<?xml version="1.0" encoding="UTF-8" standalone="no" ?>
<gpx xmlns="http://www.topografix.com/GPX/1/1" xmlns:xsi="http://www.w3.org/2001/XMLSchema-instance" xsi:schemaLocation="http://www.topografix.com/GPX/1/1 http://www.topografix.com/GPX/1/1/gpx.xsd" version="1.1" creator="VisuGPX - https://www.visugpx.com">
  <metadata>
    <name>Tour de Vassivière 2024</name>
  </metadata>
  <trk>
    <name><![CDATA[Sortie VTT le matin]]></name>
    <trkseg>
      <trkpt lat="45.80041" lon="1.84442">
        <ele>668.6</ele>
        <time>2024-09-15T08:57:42Z</time>
      </trkpt>
      <trkpt lat="45.80049" lon="1.8443">
        <ele>660</ele>
        <time>2024-09-15T08:57:47Z</time>
      </trkpt>
      <trkpt lat="45.80051" lon="1.84427">
        <ele>661.4</ele>
        <time>2024-09-15T08:57:48Z</time>
      </trkpt>
      <trkpt lat="45.80052" lon="1.84423">
        <ele>663.8</ele>
        <time>2024-09-15T08:57:49Z</time>
      </trkpt>
      <trkpt lat="45.80053" lon="1.84421">
        <ele>665</ele>
        <time>2024-09-15T08:57:50Z</time>
      </trkpt>
      <trkpt lat="45.80054" lon="1.8442">
        <ele>665</ele>
        <time>2024-09-15T08:57:51Z</time>
      </trkpt>
      <trkpt lat="45.80056" lon="1.8442">
        <ele>665.2</ele>
        <time>2024-09-15T08:57:52Z</time>
      </trkpt>
      <trkpt lat="45.80057" lon="1.8442">
        <ele>664.8</ele>
        <time>2024-09-15T08:57:53Z</time>
      </trkpt>
      <trkpt lat="45.80061" lon="1.84421">
        <ele>664.2</ele>
        <time>2024-09-15T08:57:55Z</time>
      </trkpt>
      <trkpt lat="45.80062" lon="1.84421">
        <ele>664.4</ele>
        <time>2024-09-15T08:57:56Z</time>
      </trkpt>
      <trkpt lat="45.80064" lon="1.84422">
        <ele>664.6</ele>
        <time>2024-09-15T08:57:57Z</time>
      </trkpt>
      <trkpt lat="45.80065" lon="1.84423">
        <ele>665</ele>
        <time>2024-09-15T08:57:58Z</time>
      </trkpt>
      <trkpt lat="45.80067" lon="1.84424">
        <ele>665.2</ele>
        <time>2024-09-15T08:57:59Z</time>
      </trkpt>
      <trkpt lat="45.80068" lon="1.84426">
        <ele>665.4</ele>
        <time>2024-09-15T08:58:00Z</time>
      </trkpt>
      <trkpt lat="45.8007" lon="1.84428">
        <ele>665.6</ele>
        <time>2024-09-15T08:58:01Z</time>
      </trkpt>
      <trkpt lat="45.80071" lon="1.8443">
        <ele>665.6</ele>
        <time>2024-09-15T08:58:02Z</time>
      </trkpt>
      <trkpt lat="45.80073" lon="1.84432">
        <ele>665.8</ele>
        <time>2024-09-15T08:58:03Z</time>
      </trkpt>
      <trkpt lat="45.80076" lon="1.84434">
        <ele>665.8</ele>
        <time>2024-09-15T08:58:04Z</time>
      </trkpt>
      <trkpt lat="45.80078" lon="1.84436">
        <ele>666</ele>
        <time>2024-09-15T08:58:05Z</time>
      </trkpt>
      <trkpt lat="45.8008" lon="1.84438">
        <ele>666</ele>
        <time>2024-09-15T08:58:06Z</time>
      </trkpt>
      <trkpt lat="45.80082" lon="1.8444">
        <ele>666.2</ele>
        <time>2024-09-15T08:58:07Z</time>
      </trkpt>
      <trkpt lat="45.80084" lon="1.84442">
        <ele>666.4</ele>
        <time>2024-09-15T08:58:08Z</time>
      </trkpt>
      <trkpt lat="45.80086" lon="1.84443">
        <ele>666.4</ele>
        <time>2024-09-15T08:58:09Z</time>
      </trkpt>
      <trkpt lat="45.80088" lon="1.84443">
        <ele>666.6</ele>
        <time>2024-09-15T08:58:10Z</time>
      </trkpt>
      <trkpt lat="45.80091" lon="1.84445">
        <ele>666.8</ele>
        <time>2024-09-15T08:58:11Z</time>
      </trkpt>
      <trkpt lat="45.80093" lon="1.84447">
        <ele>666.8</ele>
        <time>2024-09-15T08:58:12Z</time>
      </trkpt>
      <trkpt lat="45.80095" lon="1.84449">
        <ele>667</ele>
        <time>2024-09-15T08:58:13Z</time>
      </trkpt>
      <trkpt lat="45.80097" lon="1.84451">
        <ele>667</ele>
        <time>2024-09-15T08:58:14Z</time>
      </trkpt>
      <trkpt lat="45.801" lon="1.84452">
        <ele>667.4</ele>
        <time>2024-09-15T08:58:15Z</time>
      </trkpt>
      <trkpt lat="45.80101" lon="1.84452">
        <ele>667.6</ele>
        <time>2024-09-15T08:58:16Z</time>
      </trkpt>
      <trkpt lat="45.80103" lon="1.84453">
        <ele>667.8</ele>
        <time>2024-09-15T08:58:17Z</time>
      </trkpt>
      <trkpt lat="45.80105" lon="1.84453">
        <ele>668</ele>
        <time>2024-09-15T08:58:18Z</time>
      </trkpt>
      <trkpt lat="45.80107" lon="1.84452">
        <ele>668.4</ele>
        <time>2024-09-15T08:58:19Z</time>
      </trkpt>
      <trkpt lat="45.80109" lon="1.84451">
        <ele>668.4</ele>
        <time>2024-09-15T08:58:20Z</time>
      </trkpt>
      <trkpt lat="45.80111" lon="1.84447">
        <ele>668.6</ele>
        <time>2024-09-15T08:58:21Z</time>
      </trkpt>
      <trkpt lat="45.80112" lon="1.84445">
        <ele>668.6</ele>
        <time>2024-09-15T08:58:22Z</time>
      </trkpt>
      <trkpt lat="45.80112" lon="1.84444">
        <ele>668.8</ele>
        <time>2024-09-15T08:58:23Z</time>
      </trkpt>
      <trkpt lat="45.80112" lon="1.84442">
        <ele>669.2</ele>
        <time>2024-09-15T08:58:24Z</time>
      </trkpt>
      <trkpt lat="45.80112" lon="1.8444">
        <ele>669.2</ele>
        <time>2024-09-15T08:58:25Z</time>
      </trkpt>
      <trkpt lat="45.80112" lon="1.84439">
        <ele>669.6</ele>
        <time>2024-09-15T08:58:26Z</time>
      </trkpt>
      <trkpt lat="45.80111" lon="1.84436">
        <ele>669.8</ele>
        <time>2024-09-15T08:58:27Z</time>
      </trkpt>
      <trkpt lat="45.8011" lon="1.84434">
        <ele>670.2</ele>
        <time>2024-09-15T08:58:28Z</time>
      </trkpt>
      <trkpt lat="45.80109" lon="1.84433">
        <ele>670.4</ele>
        <time>2024-09-15T08:58:29Z</time>
      </trkpt>
      <trkpt lat="45.80106" lon="1.84429">
        <ele>670.6</ele>
        <time>2024-09-15T08:58:30Z</time>
      </trkpt>
      <trkpt lat="45.80104" lon="1.84426">
        <ele>670.8</ele>
        <time>2024-09-15T08:58:31Z</time>
      </trkpt>
      <trkpt lat="45.80103" lon="1.84423">
        <ele>671</ele>
        <time>2024-09-15T08:58:32Z</time>
      </trkpt>
      <trkpt lat="45.80102" lon="1.8442">
        <ele>671</ele>
        <time>2024-09-15T08:58:33Z</time>
      </trkpt>
      <trkpt lat="45.80102" lon="1.84418">
        <ele>671</ele>
        <time>2024-09-15T08:58:34Z</time>
      </trkpt>
      <trkpt lat="45.80101" lon="1.84416">
        <ele>671</ele>
        <time>2024-09-15T08:58:35Z</time>
      </trkpt>
      <trkpt lat="45.801" lon="1.84413">
        <ele>671</ele>
        <time>2024-09-15T08:58:36Z</time>
      </trkpt>
      <trkpt lat="45.801" lon="1.84411">
        <ele>671.2</ele>
        <time>2024-09-15T08:58:37Z</time>
      </trkpt>
      <trkpt lat="45.80099" lon="1.8441">
        <ele>671.2</ele>
        <time>2024-09-15T08:58:38Z</time>
      </trkpt>
      <trkpt lat="45.80098" lon="1.84408">
        <ele>671.2</ele>
        <time>2024-09-15T08:58:39Z</time>
      </trkpt>
      <trkpt lat="45.80096" lon="1.84405">
        <ele>671.2</ele>
        <time>2024-09-15T08:58:40Z</time>
      </trkpt>
      <trkpt lat="45.80095" lon="1.84402">
        <ele>671.2</ele>
        <time>2024-09-15T08:58:41Z</time>
      </trkpt>
      <trkpt lat="45.80094" lon="1.84398">
        <ele>671.2</ele>
        <time>2024-09-15T08:58:42Z</time>
      </trkpt>
      <trkpt lat="45.80092" lon="1.84396">
        <ele>671.2</ele>
        <time>2024-09-15T08:58:43Z</time>
      </trkpt>
      <trkpt lat="45.80091" lon="1.84394">
        <ele>671</ele>
        <time>2024-09-15T08:58:44Z</time>
      </trkpt>
      <trkpt lat="45.8009" lon="1.84391">
        <ele>671</ele>
        <time>2024-09-15T08:58:45Z</time>
      </trkpt>
      <trkpt lat="45.8009" lon="1.84389">
        <ele>671</ele>
        <time>2024-09-15T08:58:46Z</time>
      </trkpt>
      <trkpt lat="45.80089" lon="1.84387">
        <ele>671</ele>
        <time>2024-09-15T08:58:47Z</time>
      </trkpt>
      <trkpt lat="45.80089" lon="1.84385">
        <ele>671</ele>
        <time>2024-09-15T08:58:48Z</time>
      </trkpt>
      <trkpt lat="45.80088" lon="1.84384">
        <ele>670.8</ele>
        <time>2024-09-15T08:58:50Z</time>
      </trkpt>
      <trkpt lat="45.80086" lon="1.84378">
        <ele>670.8</ele>
        <time>2024-09-15T08:58:53Z</time>
      </trkpt>
      <trkpt lat="45.80078" lon="1.84352">
        <ele>670.8</ele>
        <time>2024-09-15T08:59:01Z</time>
      </trkpt>
      <trkpt lat="45.80076" lon="1.8434">
        <ele>670.6</ele>
        <time>2024-09-15T08:59:03Z</time>
      </trkpt>
      <trkpt lat="45.80075" lon="1.84332">
        <ele>670.4</ele>
        <time>2024-09-15T08:59:05Z</time>
      </trkpt>
      <trkpt lat="45.80075" lon="1.84328">
        <ele>670.4</ele>
        <time>2024-09-15T08:59:06Z</time>
      </trkpt>
      <trkpt lat="45.80074" lon="1.84324">
        <ele>670.2</ele>
        <time>2024-09-15T08:59:07Z</time>
      </trkpt>
      <trkpt lat="45.8007" lon="1.84314">
        <ele>670.2</ele>
        <time>2024-09-15T08:59:09Z</time>
      </trkpt>
      <trkpt lat="45.80066" lon="1.84309">
        <ele>670.2</ele>
        <time>2024-09-15T08:59:10Z</time>
      </trkpt>
      <trkpt lat="45.80061" lon="1.84296">
        <ele>670</ele>
        <time>2024-09-15T08:59:12Z</time>
      </trkpt>
      <trkpt lat="45.80056" lon="1.84276">
        <ele>670.2</ele>
        <time>2024-09-15T08:59:15Z</time>
      </trkpt>
      <trkpt lat="45.80053" lon="1.8427">
        <ele>670.2</ele>
        <time>2024-09-15T08:59:16Z</time>
      </trkpt>
      <trkpt lat="45.80049" lon="1.84266">
        <ele>670.2</ele>
        <time>2024-09-15T08:59:17Z</time>
      </trkpt>
      <trkpt lat="45.80046" lon="1.84261">
        <ele>670.2</ele>
        <time>2024-09-15T08:59:18Z</time>
      </trkpt>
      <trkpt lat="45.80044" lon="1.84259">
        <ele>670.2</ele>
        <time>2024-09-15T08:59:19Z</time>
      </trkpt>
      <trkpt lat="45.80044" lon="1.84254">
        <ele>670.2</ele>
        <time>2024-09-15T08:59:20Z</time>
      </trkpt>
      <trkpt lat="45.80038" lon="1.84243">
        <ele>670.2</ele>
        <time>2024-09-15T08:59:22Z</time>
      </trkpt>
      <trkpt lat="45.80034" lon="1.84239">
        <ele>670.2</ele>
        <time>2024-09-15T08:59:23Z</time>
      </trkpt>
      <trkpt lat="45.80031" lon="1.84236">
        <ele>670.4</ele>
        <time>2024-09-15T08:59:24Z</time>
      </trkpt>
      <trkpt lat="45.80029" lon="1.84233">
        <ele>670.4</ele>
        <time>2024-09-15T08:59:25Z</time>
      </trkpt>
      <trkpt lat="45.80027" lon="1.84226">
        <ele>670.4</ele>
        <time>2024-09-15T08:59:27Z</time>
      </trkpt>
      <trkpt lat="45.80024" lon="1.84222">
        <ele>670.6</ele>
        <time>2024-09-15T08:59:28Z</time>
      </trkpt>
      <trkpt lat="45.8002" lon="1.84217">
        <ele>670.6</ele>
        <time>2024-09-15T08:59:29Z</time>
      </trkpt>
      <trkpt lat="45.80018" lon="1.84212">
        <ele>670.6</ele>
        <time>2024-09-15T08:59:30Z</time>
      </trkpt>
      <trkpt lat="45.80016" lon="1.84209">
        <ele>670.6</ele>
        <time>2024-09-15T08:59:31Z</time>
      </trkpt>
      <trkpt lat="45.80015" lon="1.84207">
        <ele>670.8</ele>
        <time>2024-09-15T08:59:32Z</time>
      </trkpt>
      <trkpt lat="45.80013" lon="1.84204">
        <ele>670.8</ele>
        <time>2024-09-15T08:59:33Z</time>
      </trkpt>
      <trkpt lat="45.8001" lon="1.84199">
        <ele>671</ele>
        <time>2024-09-15T08:59:35Z</time>
      </trkpt>
      <trkpt lat="45.80008" lon="1.84196">
        <ele>671.2</ele>
        <time>2024-09-15T08:59:36Z</time>
      </trkpt>
      <trkpt lat="45.80007" lon="1.84192">
        <ele>671.2</ele>
        <time>2024-09-15T08:59:37Z</time>
      </trkpt>
      <trkpt lat="45.80005" lon="1.84189">
        <ele>671.4</ele>
        <time>2024-09-15T08:59:38Z</time>
      </trkpt>
      <trkpt lat="45.80004" lon="1.84186">
        <ele>671.8</ele>
        <time>2024-09-15T08:59:39Z</time>
      </trkpt>
      <trkpt lat="45.8" lon="1.84177">
        <ele>672.4</ele>
        <time>2024-09-15T08:59:43Z</time>
      </trkpt>
      <trkpt lat="45.8" lon="1.84175">
        <ele>672.6</ele>
        <time>2024-09-15T08:59:44Z</time>
      </trkpt>
      <trkpt lat="45.79999" lon="1.84173">
        <ele>672.6</ele>
        <time>2024-09-15T08:59:45Z</time>
      </trkpt>
      <trkpt lat="45.79998" lon="1.84171">
        <ele>672.8</ele>
        <time>2024-09-15T08:59:46Z</time>
      </trkpt>
      <trkpt lat="45.79996" lon="1.84169">
        <ele>672.8</ele>
        <time>2024-09-15T08:59:47Z</time>
      </trkpt>
      <trkpt lat="45.7999" lon="1.84161">
        <ele>673</ele>
        <time>2024-09-15T08:59:50Z</time>
      </trkpt>
      <trkpt lat="45.79988" lon="1.8416">
        <ele>673</ele>
        <time>2024-09-15T08:59:51Z</time>
      </trkpt>
      <trkpt lat="45.79986" lon="1.84159">
        <ele>673.2</ele>
        <time>2024-09-15T08:59:52Z</time>
      </trkpt>
      <trkpt lat="45.79984" lon="1.84158">
        <ele>673.2</ele>
        <time>2024-09-15T08:59:53Z</time>
      </trkpt>
      <trkpt lat="45.79982" lon="1.84157">
        <ele>673.2</ele>
        <time>2024-09-15T08:59:54Z</time>
      </trkpt>
      <trkpt lat="45.7998" lon="1.84157">
        <ele>673.2</ele>
        <time>2024-09-15T08:59:55Z</time>
      </trkpt>
      <trkpt lat="45.79978" lon="1.84156">
        <ele>673.4</ele>
        <time>2024-09-15T08:59:56Z</time>
      </trkpt>
      <trkpt lat="45.79976" lon="1.84155">
        <ele>673.4</ele>
        <time>2024-09-15T08:59:57Z</time>
      </trkpt>
      <trkpt lat="45.79973" lon="1.84153">
        <ele>673.6</ele>
        <time>2024-09-15T08:59:58Z</time>
      </trkpt>
      <trkpt lat="45.7997" lon="1.84153">
        <ele>673.6</ele>
        <time>2024-09-15T08:59:59Z</time>
      </trkpt>
      <trkpt lat="45.79968" lon="1.84152">
        <ele>673.8</ele>
        <time>2024-09-15T09:00:00Z</time>
      </trkpt>
      <trkpt lat="45.79965" lon="1.84151">
        <ele>673.8</ele>
        <time>2024-09-15T09:00:01Z</time>
      </trkpt>
      <trkpt lat="45.79947" lon="1.8415">
        <ele>674</ele>
        <time>2024-09-15T09:00:06Z</time>
      </trkpt>
      <trkpt lat="45.79943" lon="1.8415">
        <ele>674</ele>
        <time>2024-09-15T09:00:07Z</time>
      </trkpt>
      <trkpt lat="45.79939" lon="1.84149">
        <ele>674</ele>
        <time>2024-09-15T09:00:08Z</time>
      </trkpt>
      <trkpt lat="45.79935" lon="1.84149">
        <ele>673.8</ele>
        <time>2024-09-15T09:00:09Z</time>
      </trkpt>
      <trkpt lat="45.79926" lon="1.84151">
        <ele>673.4</ele>
        <time>2024-09-15T09:00:11Z</time>
      </trkpt>
      <trkpt lat="45.79923" lon="1.84154">
        <ele>673.2</ele>
        <time>2024-09-15T09:00:12Z</time>
      </trkpt>
      <trkpt lat="45.7992" lon="1.84155">
        <ele>673.2</ele>
        <time>2024-09-15T09:00:13Z</time>
      </trkpt>
      <trkpt lat="45.79909" lon="1.84157">
        <ele>673</ele>
        <time>2024-09-15T09:00:16Z</time>
      </trkpt>
      <trkpt lat="45.79905" lon="1.84159">
        <ele>673</ele>
        <time>2024-09-15T09:00:17Z</time>
      </trkpt>
      <trkpt lat="45.79901" lon="1.8416">
        <ele>673</ele>
        <time>2024-09-15T09:00:18Z</time>
      </trkpt>
      <trkpt lat="45.79898" lon="1.84161">
        <ele>673</ele>
        <time>2024-09-15T09:00:19Z</time>
      </trkpt>
      <trkpt lat="45.79896" lon="1.84164">
        <ele>673.2</ele>
        <time>2024-09-15T09:00:20Z</time>
      </trkpt>
      <trkpt lat="45.79893" lon="1.84166">
        <ele>673.2</ele>
        <time>2024-09-15T09:00:21Z</time>
      </trkpt>
      <trkpt lat="45.79889" lon="1.84168">
        <ele>673.2</ele>
        <time>2024-09-15T09:00:22Z</time>
      </trkpt>
      <trkpt lat="45.79884" lon="1.8417">
        <ele>673.4</ele>
        <time>2024-09-15T09:00:23Z</time>
      </trkpt>
      <trkpt lat="45.7987" lon="1.84177">
        <ele>673.8</ele>
        <time>2024-09-15T09:00:27Z</time>
      </trkpt>
      <trkpt lat="45.79867" lon="1.84178">
        <ele>673.8</ele>
        <time>2024-09-15T09:00:28Z</time>
      </trkpt>
      <trkpt lat="45.79866" lon="1.84179">
        <ele>673.6</ele>
        <time>2024-09-15T09:00:29Z</time>
      </trkpt>
      <trkpt lat="45.79864" lon="1.84182">
        <ele>673.6</ele>
        <time>2024-09-15T09:00:30Z</time>
      </trkpt>
      <trkpt lat="45.79862" lon="1.84183">
        <ele>673.4</ele>
        <time>2024-09-15T09:00:31Z</time>
      </trkpt>
      <trkpt lat="45.79859" lon="1.84187">
        <ele>673.4</ele>
        <time>2024-09-15T09:00:32Z</time>
      </trkpt>
      <trkpt lat="45.79852" lon="1.84194">
        <ele>673.4</ele>
        <time>2024-09-15T09:00:34Z</time>
      </trkpt>
      <trkpt lat="45.79844" lon="1.84196">
        <ele>673.4</ele>
        <time>2024-09-15T09:00:36Z</time>
      </trkpt>
      <trkpt lat="45.79841" lon="1.84196">
        <ele>673.4</ele>
        <time>2024-09-15T09:00:37Z</time>
      </trkpt>
      <trkpt lat="45.79837" lon="1.84197">
        <ele>673.4</ele>
        <time>2024-09-15T09:00:38Z</time>
      </trkpt>
      <trkpt lat="45.79826" lon="1.84204">
        <ele>673.4</ele>
        <time>2024-09-15T09:00:41Z</time>
      </trkpt>
      <trkpt lat="45.79808" lon="1.84219">
        <ele>673.6</ele>
        <time>2024-09-15T09:00:46Z</time>
      </trkpt>
      <trkpt lat="45.79806" lon="1.84222">
        <ele>673.6</ele>
        <time>2024-09-15T09:00:47Z</time>
      </trkpt>
      <trkpt lat="45.79803" lon="1.84225">
        <ele>673.4</ele>
        <time>2024-09-15T09:00:48Z</time>
      </trkpt>
      <trkpt lat="45.79801" lon="1.84228">
        <ele>673.4</ele>
        <time>2024-09-15T09:00:49Z</time>
      </trkpt>
      <trkpt lat="45.79799" lon="1.84231">
        <ele>673.2</ele>
        <time>2024-09-15T09:00:50Z</time>
      </trkpt>
      <trkpt lat="45.79798" lon="1.84233">
        <ele>672.8</ele>
        <time>2024-09-15T09:00:51Z</time>
      </trkpt>
      <trkpt lat="45.79796" lon="1.84236">
        <ele>672.6</ele>
        <time>2024-09-15T09:00:52Z</time>
      </trkpt>
      <trkpt lat="45.79794" lon="1.84237">
        <ele>672.2</ele>
        <time>2024-09-15T09:00:53Z</time>
      </trkpt>
      <trkpt lat="45.79793" lon="1.8424">
        <ele>672</ele>
        <time>2024-09-15T09:00:54Z</time>
      </trkpt>
      <trkpt lat="45.7979" lon="1.84242">
        <ele>671.4</ele>
        <time>2024-09-15T09:00:55Z</time>
      </trkpt>
      <trkpt lat="45.79788" lon="1.84244">
        <ele>671.2</ele>
        <time>2024-09-15T09:00:56Z</time>
      </trkpt>
      <trkpt lat="45.79784" lon="1.84247">
        <ele>670.2</ele>
        <time>2024-09-15T09:00:58Z</time>
      </trkpt>
      <trkpt lat="45.79784" lon="1.84248">
        <ele>669.6</ele>
        <time>2024-09-15T09:00:59Z</time>
      </trkpt>
      <trkpt lat="45.79783" lon="1.8425">
        <ele>669.6</ele>
        <time>2024-09-15T09:01:00Z</time>
      </trkpt>
      <trkpt lat="45.79783" lon="1.84251">
        <ele>669.2</ele>
        <time>2024-09-15T09:01:01Z</time>
      </trkpt>
      <trkpt lat="45.79782" lon="1.84252">
        <ele>669.2</ele>
        <time>2024-09-15T09:01:02Z</time>
      </trkpt>
      <trkpt lat="45.79782" lon="1.84255">
        <ele>669</ele>
        <time>2024-09-15T09:01:03Z</time>
      </trkpt>
      <trkpt lat="45.79782" lon="1.84256">
        <ele>668.6</ele>
        <time>2024-09-15T09:01:04Z</time>
      </trkpt>
      <trkpt lat="45.79782" lon="1.84257">
        <ele>668.4</ele>
        <time>2024-09-15T09:01:05Z</time>
      </trkpt>
      <trkpt lat="45.79782" lon="1.84258">
        <ele>668</ele>
        <time>2024-09-15T09:01:06Z</time>
      </trkpt>
      <trkpt lat="45.79783" lon="1.8426">
        <ele>667.8</ele>
        <time>2024-09-15T09:01:07Z</time>
      </trkpt>
      <trkpt lat="45.79783" lon="1.84263">
        <ele>667.2</ele>
        <time>2024-09-15T09:01:08Z</time>
      </trkpt>
      <trkpt lat="45.79784" lon="1.84266">
        <ele>667</ele>
        <time>2024-09-15T09:01:09Z</time>
      </trkpt>
      <trkpt lat="45.79784" lon="1.84268">
        <ele>666.6</ele>
        <time>2024-09-15T09:01:10Z</time>
      </trkpt>
      <trkpt lat="45.79783" lon="1.8427">
        <ele>666.4</ele>
        <time>2024-09-15T09:01:11Z</time>
      </trkpt>
      <trkpt lat="45.79783" lon="1.84273">
        <ele>666</ele>
        <time>2024-09-15T09:01:12Z</time>
      </trkpt>
      <trkpt lat="45.79781" lon="1.84276">
        <ele>665.2</ele>
        <time>2024-09-15T09:01:13Z</time>
      </trkpt>
      <trkpt lat="45.79778" lon="1.8428">
        <ele>664.6</ele>
        <time>2024-09-15T09:01:14Z</time>
      </trkpt>
      <trkpt lat="45.79776" lon="1.84284">
        <ele>664.4</ele>
        <time>2024-09-15T09:01:15Z</time>
      </trkpt>
      <trkpt lat="45.79774" lon="1.84287">
        <ele>664.2</ele>
        <time>2024-09-15T09:01:16Z</time>
      </trkpt>
      <trkpt lat="45.79771" lon="1.84291">
        <ele>664</ele>
        <time>2024-09-15T09:01:17Z</time>
      </trkpt>
      <trkpt lat="45.79768" lon="1.84293">
        <ele>663.8</ele>
        <time>2024-09-15T09:01:18Z</time>
      </trkpt>
      <trkpt lat="45.79765" lon="1.84296">
        <ele>663.2</ele>
        <time>2024-09-15T09:01:20Z</time>
      </trkpt>
      <trkpt lat="45.79762" lon="1.84298">
        <ele>663</ele>
        <time>2024-09-15T09:01:21Z</time>
      </trkpt>
      <trkpt lat="45.7976" lon="1.84302">
        <ele>663</ele>
        <time>2024-09-15T09:01:23Z</time>
      </trkpt>
      <trkpt lat="45.79759" lon="1.84304">
        <ele>663</ele>
        <time>2024-09-15T09:01:24Z</time>
      </trkpt>
      <trkpt lat="45.79758" lon="1.84306">
        <ele>663</ele>
        <time>2024-09-15T09:01:25Z</time>
      </trkpt>
      <trkpt lat="45.79757" lon="1.8431">
        <ele>663</ele>
        <time>2024-09-15T09:01:26Z</time>
      </trkpt>
      <trkpt lat="45.79755" lon="1.84312">
        <ele>663</ele>
        <time>2024-09-15T09:01:27Z</time>
      </trkpt>
      <trkpt lat="45.79754" lon="1.84316">
        <ele>663</ele>
        <time>2024-09-15T09:01:28Z</time>
      </trkpt>
      <trkpt lat="45.79754" lon="1.84318">
        <ele>663</ele>
        <time>2024-09-15T09:01:29Z</time>
      </trkpt>
      <trkpt lat="45.79756" lon="1.84324">
        <ele>663</ele>
        <time>2024-09-15T09:01:31Z</time>
      </trkpt>
      <trkpt lat="45.79757" lon="1.84326">
        <ele>663</ele>
        <time>2024-09-15T09:01:32Z</time>
      </trkpt>
      <trkpt lat="45.79758" lon="1.8433">
        <ele>662.8</ele>
        <time>2024-09-15T09:01:33Z</time>
      </trkpt>
      <trkpt lat="45.79761" lon="1.84333">
        <ele>662.6</ele>
        <time>2024-09-15T09:01:34Z</time>
      </trkpt>
      <trkpt lat="45.79763" lon="1.84338">
        <ele>662.4</ele>
        <time>2024-09-15T09:01:35Z</time>
      </trkpt>
      <trkpt lat="45.79764" lon="1.84342">
        <ele>662</ele>
        <time>2024-09-15T09:01:36Z</time>
      </trkpt>
      <trkpt lat="45.79765" lon="1.84346">
        <ele>661.8</ele>
        <time>2024-09-15T09:01:37Z</time>
      </trkpt>
      <trkpt lat="45.79764" lon="1.8435">
        <ele>661.4</ele>
        <time>2024-09-15T09:01:38Z</time>
      </trkpt>
      <trkpt lat="45.79764" lon="1.84353">
        <ele>661.4</ele>
        <time>2024-09-15T09:01:39Z</time>
      </trkpt>
      <trkpt lat="45.79764" lon="1.84356">
        <ele>661.2</ele>
        <time>2024-09-15T09:01:40Z</time>
      </trkpt>
      <trkpt lat="45.79763" lon="1.8436">
        <ele>661</ele>
        <time>2024-09-15T09:01:41Z</time>
      </trkpt>
      <trkpt lat="45.79762" lon="1.84365">
        <ele>660.8</ele>
        <time>2024-09-15T09:01:42Z</time>
      </trkpt>
      <trkpt lat="45.79761" lon="1.84372">
        <ele>660.8</ele>
        <time>2024-09-15T09:01:43Z</time>
      </trkpt>
      <trkpt lat="45.79761" lon="1.84377">
        <ele>660.4</ele>
        <time>2024-09-15T09:01:44Z</time>
      </trkpt>
      <trkpt lat="45.7976" lon="1.84397">
        <ele>659.4</ele>
        <time>2024-09-15T09:01:48Z</time>
      </trkpt>
      <trkpt lat="45.79758" lon="1.84418">
        <ele>659</ele>
        <time>2024-09-15T09:01:52Z</time>
      </trkpt>
      <trkpt lat="45.79755" lon="1.84435">
        <ele>659</ele>
        <time>2024-09-15T09:01:55Z</time>
      </trkpt>
      <trkpt lat="45.79754" lon="1.84438">
        <ele>659</ele>
        <time>2024-09-15T09:01:56Z</time>
      </trkpt>
      <trkpt lat="45.79754" lon="1.84442">
        <ele>659.2</ele>
        <time>2024-09-15T09:01:57Z</time>
      </trkpt>
      <trkpt lat="45.79754" lon="1.84446">
        <ele>659.2</ele>
        <time>2024-09-15T09:01:58Z</time>
      </trkpt>
      <trkpt lat="45.79753" lon="1.8445">
        <ele>659.2</ele>
        <time>2024-09-15T09:01:59Z</time>
      </trkpt>
      <trkpt lat="45.79751" lon="1.84452">
        <ele>659.4</ele>
        <time>2024-09-15T09:02:00Z</time>
      </trkpt>
      <trkpt lat="45.79749" lon="1.84454">
        <ele>659.4</ele>
        <time>2024-09-15T09:02:01Z</time>
      </trkpt>
      <trkpt lat="45.79746" lon="1.84457">
        <ele>659.4</ele>
        <time>2024-09-15T09:02:02Z</time>
      </trkpt>
      <trkpt lat="45.79744" lon="1.84462">
        <ele>659.6</ele>
        <time>2024-09-15T09:02:03Z</time>
      </trkpt>
      <trkpt lat="45.79742" lon="1.8447">
        <ele>659.6</ele>
        <time>2024-09-15T09:02:04Z</time>
      </trkpt>
      <trkpt lat="45.7974" lon="1.84473">
        <ele>659.8</ele>
        <time>2024-09-15T09:02:05Z</time>
      </trkpt>
      <trkpt lat="45.7974" lon="1.84476">
        <ele>660</ele>
        <time>2024-09-15T09:02:06Z</time>
      </trkpt>
      <trkpt lat="45.79739" lon="1.84477">
        <ele>660</ele>
        <time>2024-09-15T09:02:07Z</time>
      </trkpt>
      <trkpt lat="45.79737" lon="1.84481">
        <ele>660</ele>
        <time>2024-09-15T09:02:08Z</time>
      </trkpt>
      <trkpt lat="45.79736" lon="1.84483">
        <ele>660</ele>
        <time>2024-09-15T09:02:09Z</time>
      </trkpt>
      <trkpt lat="45.79736" lon="1.84485">
        <ele>660.2</ele>
        <time>2024-09-15T09:02:10Z</time>
      </trkpt>
      <trkpt lat="45.79737" lon="1.84486">
        <ele>660.4</ele>
        <time>2024-09-15T09:02:11Z</time>
      </trkpt>
      <trkpt lat="45.79739" lon="1.8449">
        <ele>660.6</ele>
        <time>2024-09-15T09:02:12Z</time>
      </trkpt>
      <trkpt lat="45.79741" lon="1.84496">
        <ele>660.6</ele>
        <time>2024-09-15T09:02:13Z</time>
      </trkpt>
      <trkpt lat="45.79742" lon="1.84501">
        <ele>660.6</ele>
        <time>2024-09-15T09:02:14Z</time>
      </trkpt>
      <trkpt lat="45.79748" lon="1.84518">
        <ele>660.8</ele>
        <time>2024-09-15T09:02:16Z</time>
      </trkpt>
      <trkpt lat="45.79748" lon="1.84546">
        <ele>660.4</ele>
        <time>2024-09-15T09:02:19Z</time>
      </trkpt>
      <trkpt lat="45.79746" lon="1.84556">
        <ele>660.2</ele>
        <time>2024-09-15T09:02:20Z</time>
      </trkpt>
      <trkpt lat="45.79746" lon="1.84561">
        <ele>659.8</ele>
        <time>2024-09-15T09:02:21Z</time>
      </trkpt>
      <trkpt lat="45.79745" lon="1.84564">
        <ele>659.6</ele>
        <time>2024-09-15T09:02:22Z</time>
      </trkpt>
      <trkpt lat="45.79744" lon="1.84567">
        <ele>659.4</ele>
        <time>2024-09-15T09:02:23Z</time>
      </trkpt>
      <trkpt lat="45.79743" lon="1.8457">
        <ele>659.4</ele>
        <time>2024-09-15T09:02:24Z</time>
      </trkpt>
      <trkpt lat="45.79743" lon="1.84575">
        <ele>659.2</ele>
        <time>2024-09-15T09:02:25Z</time>
      </trkpt>
      <trkpt lat="45.7974" lon="1.84579">
        <ele>659.2</ele>
        <time>2024-09-15T09:02:26Z</time>
      </trkpt>
      <trkpt lat="45.79738" lon="1.84584">
        <ele>659.2</ele>
        <time>2024-09-15T09:02:28Z</time>
      </trkpt>
      <trkpt lat="45.79736" lon="1.84587">
        <ele>659.2</ele>
        <time>2024-09-15T09:02:29Z</time>
      </trkpt>
      <trkpt lat="45.79735" lon="1.8459">
        <ele>659.2</ele>
        <time>2024-09-15T09:02:30Z</time>
      </trkpt>
      <trkpt lat="45.79734" lon="1.84593">
        <ele>659.2</ele>
        <time>2024-09-15T09:02:31Z</time>
      </trkpt>
      <trkpt lat="45.79733" lon="1.84595">
        <ele>659.2</ele>
        <time>2024-09-15T09:02:32Z</time>
      </trkpt>
      <trkpt lat="45.79732" lon="1.84596">
        <ele>659.2</ele>
        <time>2024-09-15T09:02:33Z</time>
      </trkpt>
      <trkpt lat="45.7973" lon="1.84599">
        <ele>659.8</ele>
        <time>2024-09-15T09:02:34Z</time>
      </trkpt>
      <trkpt lat="45.79729" lon="1.84602">
        <ele>659.8</ele>
        <time>2024-09-15T09:02:35Z</time>
      </trkpt>
      <trkpt lat="45.79723" lon="1.84622">
        <ele>661</ele>
        <time>2024-09-15T09:02:40Z</time>
      </trkpt>
      <trkpt lat="45.79721" lon="1.84632">
        <ele>661.2</ele>
        <time>2024-09-15T09:02:42Z</time>
      </trkpt>
      <trkpt lat="45.79713" lon="1.84668">
        <ele>661.6</ele>
        <time>2024-09-15T09:02:48Z</time>
      </trkpt>
      <trkpt lat="45.79708" lon="1.84698">
        <ele>661</ele>
        <time>2024-09-15T09:02:52Z</time>
      </trkpt>
      <trkpt lat="45.79708" lon="1.84708">
        <ele>660.8</ele>
        <time>2024-09-15T09:02:53Z</time>
      </trkpt>
      <trkpt lat="45.79702" lon="1.84737">
        <ele>659.2</ele>
        <time>2024-09-15T09:02:56Z</time>
      </trkpt>
      <trkpt lat="45.797" lon="1.84746">
        <ele>659.2</ele>
        <time>2024-09-15T09:02:57Z</time>
      </trkpt>
      <trkpt lat="45.79698" lon="1.84762">
        <ele>658.6</ele>
        <time>2024-09-15T09:02:59Z</time>
      </trkpt>
      <trkpt lat="45.79696" lon="1.84779">
        <ele>658.2</ele>
        <time>2024-09-15T09:03:01Z</time>
      </trkpt>
      <trkpt lat="45.79693" lon="1.84788">
        <ele>658</ele>
        <time>2024-09-15T09:03:02Z</time>
      </trkpt>
      <trkpt lat="45.79691" lon="1.84793">
        <ele>657.8</ele>
        <time>2024-09-15T09:03:03Z</time>
      </trkpt>
      <trkpt lat="45.79688" lon="1.848">
        <ele>657.4</ele>
        <time>2024-09-15T09:03:04Z</time>
      </trkpt>
      <trkpt lat="45.79685" lon="1.84804">
        <ele>657.4</ele>
        <time>2024-09-15T09:03:05Z</time>
      </trkpt>
      <trkpt lat="45.79682" lon="1.8481">
        <ele>657.2</ele>
        <time>2024-09-15T09:03:06Z</time>
      </trkpt>
      <trkpt lat="45.7968" lon="1.84816">
        <ele>656.6</ele>
        <time>2024-09-15T09:03:07Z</time>
      </trkpt>
      <trkpt lat="45.79676" lon="1.84821">
        <ele>656.6</ele>
        <time>2024-09-15T09:03:08Z</time>
      </trkpt>
      <trkpt lat="45.7967" lon="1.84845">
        <ele>656.2</ele>
        <time>2024-09-15T09:03:11Z</time>
      </trkpt>
      <trkpt lat="45.79668" lon="1.84852">
        <ele>656.2</ele>
        <time>2024-09-15T09:03:12Z</time>
      </trkpt>
      <trkpt lat="45.79667" lon="1.84856">
        <ele>656.2</ele>
        <time>2024-09-15T09:03:13Z</time>
      </trkpt>
      <trkpt lat="45.79666" lon="1.84861">
        <ele>656.2</ele>
        <time>2024-09-15T09:03:14Z</time>
      </trkpt>
      <trkpt lat="45.79665" lon="1.84866">
        <ele>656.2</ele>
        <time>2024-09-15T09:03:15Z</time>
      </trkpt>
      <trkpt lat="45.79663" lon="1.84871">
        <ele>656.2</ele>
        <time>2024-09-15T09:03:16Z</time>
      </trkpt>
      <trkpt lat="45.79664" lon="1.84878">
        <ele>656.2</ele>
        <time>2024-09-15T09:03:17Z</time>
      </trkpt>
      <trkpt lat="45.79663" lon="1.84884">
        <ele>656.2</ele>
        <time>2024-09-15T09:03:18Z</time>
      </trkpt>
      <trkpt lat="45.79661" lon="1.84889">
        <ele>656.2</ele>
        <time>2024-09-15T09:03:19Z</time>
      </trkpt>
      <trkpt lat="45.79653" lon="1.84917">
        <ele>655.6</ele>
        <time>2024-09-15T09:03:23Z</time>
      </trkpt>
      <trkpt lat="45.7965" lon="1.8492">
        <ele>655.2</ele>
        <time>2024-09-15T09:03:24Z</time>
      </trkpt>
      <trkpt lat="45.79648" lon="1.84927">
        <ele>655</ele>
        <time>2024-09-15T09:03:26Z</time>
      </trkpt>
      <trkpt lat="45.79644" lon="1.84935">
        <ele>655</ele>
        <time>2024-09-15T09:03:28Z</time>
      </trkpt>
      <trkpt lat="45.7964" lon="1.84941">
        <ele>654.8</ele>
        <time>2024-09-15T09:03:29Z</time>
      </trkpt>
      <trkpt lat="45.79633" lon="1.8495">
        <ele>654.8</ele>
        <time>2024-09-15T09:03:31Z</time>
      </trkpt>
      <trkpt lat="45.79632" lon="1.84954">
        <ele>654.8</ele>
        <time>2024-09-15T09:03:32Z</time>
      </trkpt>
      <trkpt lat="45.7963" lon="1.84958">
        <ele>654.8</ele>
        <time>2024-09-15T09:03:33Z</time>
      </trkpt>
      <trkpt lat="45.79627" lon="1.84965">
        <ele>654.8</ele>
        <time>2024-09-15T09:03:35Z</time>
      </trkpt>
      <trkpt lat="45.79625" lon="1.84968">
        <ele>654.8</ele>
        <time>2024-09-15T09:03:36Z</time>
      </trkpt>
      <trkpt lat="45.79622" lon="1.84969">
        <ele>655</ele>
        <time>2024-09-15T09:03:37Z</time>
      </trkpt>
      <trkpt lat="45.7962" lon="1.84972">
        <ele>655</ele>
        <time>2024-09-15T09:03:38Z</time>
      </trkpt>
      <trkpt lat="45.79615" lon="1.84974">
        <ele>655.2</ele>
        <time>2024-09-15T09:03:39Z</time>
      </trkpt>
      <trkpt lat="45.79612" lon="1.84976">
        <ele>655.2</ele>
        <time>2024-09-15T09:03:40Z</time>
      </trkpt>
      <trkpt lat="45.79607" lon="1.84978">
        <ele>655.6</ele>
        <time>2024-09-15T09:03:41Z</time>
      </trkpt>
      <trkpt lat="45.79605" lon="1.84978">
        <ele>655.6</ele>
        <time>2024-09-15T09:03:42Z</time>
      </trkpt>
      <trkpt lat="45.79602" lon="1.8498">
        <ele>656.2</ele>
        <time>2024-09-15T09:03:43Z</time>
      </trkpt>
      <trkpt lat="45.796" lon="1.8498">
        <ele>656.2</ele>
        <time>2024-09-15T09:03:44Z</time>
      </trkpt>
      <trkpt lat="45.79598" lon="1.84981">
        <ele>656.6</ele>
        <time>2024-09-15T09:03:45Z</time>
      </trkpt>
      <trkpt lat="45.79596" lon="1.84981">
        <ele>656.8</ele>
        <time>2024-09-15T09:03:46Z</time>
      </trkpt>
      <trkpt lat="45.79592" lon="1.84984">
        <ele>657.4</ele>
        <time>2024-09-15T09:03:47Z</time>
      </trkpt>
      <trkpt lat="45.7959" lon="1.84987">
        <ele>657.8</ele>
        <time>2024-09-15T09:03:48Z</time>
      </trkpt>
      <trkpt lat="45.79588" lon="1.8499">
        <ele>658.2</ele>
        <time>2024-09-15T09:03:49Z</time>
      </trkpt>
      <trkpt lat="45.79586" lon="1.84991">
        <ele>658.4</ele>
        <time>2024-09-15T09:03:50Z</time>
      </trkpt>
      <trkpt lat="45.79583" lon="1.84992">
        <ele>658.6</ele>
        <time>2024-09-15T09:03:51Z</time>
      </trkpt>
      <trkpt lat="45.79582" lon="1.84993">
        <ele>658.8</ele>
        <time>2024-09-15T09:03:52Z</time>
      </trkpt>
      <trkpt lat="45.79582" lon="1.84993">
        <ele>659</ele>
        <time>2024-09-15T09:03:53Z</time>
      </trkpt>
      <trkpt lat="45.79582" lon="1.84993">
        <ele>659.8</ele>
        <time>2024-09-15T09:03:55Z</time>
      </trkpt>
      <trkpt lat="45.79581" lon="1.84994">
        <ele>660.4</ele>
        <time>2024-09-15T09:04:13Z</time>
      </trkpt>
      <trkpt lat="45.7958" lon="1.84994">
        <ele>660.4</ele>
        <time>2024-09-15T09:04:14Z</time>
      </trkpt>
      <trkpt lat="45.79579" lon="1.84995">
        <ele>660.4</ele>
        <time>2024-09-15T09:04:15Z</time>
      </trkpt>
      <trkpt lat="45.79578" lon="1.84996">
        <ele>660.4</ele>
        <time>2024-09-15T09:04:16Z</time>
      </trkpt>
      <trkpt lat="45.79576" lon="1.84998">
        <ele>660.4</ele>
        <time>2024-09-15T09:04:17Z</time>
      </trkpt>
      <trkpt lat="45.79575" lon="1.85">
        <ele>660.2</ele>
        <time>2024-09-15T09:04:18Z</time>
      </trkpt>
      <trkpt lat="45.79575" lon="1.85001">
        <ele>660.2</ele>
        <time>2024-09-15T09:04:19Z</time>
      </trkpt>
      <trkpt lat="45.79574" lon="1.85002">
        <ele>660</ele>
        <time>2024-09-15T09:04:20Z</time>
      </trkpt>
      <trkpt lat="45.79574" lon="1.85003">
        <ele>659.8</ele>
        <time>2024-09-15T09:04:21Z</time>
      </trkpt>
      <trkpt lat="45.79572" lon="1.85004">
        <ele>659.8</ele>
        <time>2024-09-15T09:04:22Z</time>
      </trkpt>
      <trkpt lat="45.79571" lon="1.85006">
        <ele>659.6</ele>
        <time>2024-09-15T09:04:23Z</time>
      </trkpt>
      <trkpt lat="45.79571" lon="1.85008">
        <ele>659.4</ele>
        <time>2024-09-15T09:04:24Z</time>
      </trkpt>
      <trkpt lat="45.7957" lon="1.85018">
        <ele>659</ele>
        <time>2024-09-15T09:04:26Z</time>
      </trkpt>
      <trkpt lat="45.79569" lon="1.85023">
        <ele>658.8</ele>
        <time>2024-09-15T09:04:27Z</time>
      </trkpt>
      <trkpt lat="45.79566" lon="1.85039">
        <ele>658.2</ele>
        <time>2024-09-15T09:04:29Z</time>
      </trkpt>
      <trkpt lat="45.79562" lon="1.85045">
        <ele>657.6</ele>
        <time>2024-09-15T09:04:30Z</time>
      </trkpt>
      <trkpt lat="45.79559" lon="1.85051">
        <ele>656.8</ele>
        <time>2024-09-15T09:04:31Z</time>
      </trkpt>
      <trkpt lat="45.79555" lon="1.85057">
        <ele>656.4</ele>
        <time>2024-09-15T09:04:32Z</time>
      </trkpt>
      <trkpt lat="45.79552" lon="1.85062">
        <ele>655.8</ele>
        <time>2024-09-15T09:04:33Z</time>
      </trkpt>
      <trkpt lat="45.79548" lon="1.85067">
        <ele>655.8</ele>
        <time>2024-09-15T09:04:34Z</time>
      </trkpt>
      <trkpt lat="45.79534" lon="1.85084">
        <ele>655.2</ele>
        <time>2024-09-15T09:04:37Z</time>
      </trkpt>
      <trkpt lat="45.79527" lon="1.851">
        <ele>655</ele>
        <time>2024-09-15T09:04:40Z</time>
      </trkpt>
      <trkpt lat="45.79526" lon="1.85104">
        <ele>655</ele>
        <time>2024-09-15T09:04:41Z</time>
      </trkpt>
      <trkpt lat="45.79524" lon="1.85109">
        <ele>655</ele>
        <time>2024-09-15T09:04:42Z</time>
      </trkpt>
      <trkpt lat="45.79522" lon="1.85112">
        <ele>655</ele>
        <time>2024-09-15T09:04:43Z</time>
      </trkpt>
      <trkpt lat="45.79517" lon="1.85119">
        <ele>654.8</ele>
        <time>2024-09-15T09:04:45Z</time>
      </trkpt>
      <trkpt lat="45.79511" lon="1.85132">
        <ele>654.4</ele>
        <time>2024-09-15T09:04:47Z</time>
      </trkpt>
      <trkpt lat="45.79499" lon="1.85146">
        <ele>654</ele>
        <time>2024-09-15T09:04:51Z</time>
      </trkpt>
      <trkpt lat="45.79495" lon="1.85147">
        <ele>653.8</ele>
        <time>2024-09-15T09:04:53Z</time>
      </trkpt>
      <trkpt lat="45.79492" lon="1.8515">
        <ele>653.8</ele>
        <time>2024-09-15T09:04:54Z</time>
      </trkpt>
      <trkpt lat="45.79487" lon="1.85155">
        <ele>653.8</ele>
        <time>2024-09-15T09:04:55Z</time>
      </trkpt>
      <trkpt lat="45.79484" lon="1.85159">
        <ele>653.8</ele>
        <time>2024-09-15T09:04:56Z</time>
      </trkpt>
      <trkpt lat="45.79477" lon="1.85165">
        <ele>654</ele>
        <time>2024-09-15T09:04:59Z</time>
      </trkpt>
      <trkpt lat="45.79474" lon="1.85167">
        <ele>654</ele>
        <time>2024-09-15T09:05:00Z</time>
      </trkpt>
      <trkpt lat="45.79472" lon="1.8517">
        <ele>654.2</ele>
        <time>2024-09-15T09:05:01Z</time>
      </trkpt>
      <trkpt lat="45.79469" lon="1.85172">
        <ele>654.4</ele>
        <time>2024-09-15T09:05:02Z</time>
      </trkpt>
      <trkpt lat="45.79467" lon="1.85175">
        <ele>655.4</ele>
        <time>2024-09-15T09:05:03Z</time>
      </trkpt>
      <trkpt lat="45.79466" lon="1.85177">
        <ele>655.6</ele>
        <time>2024-09-15T09:05:04Z</time>
      </trkpt>
      <trkpt lat="45.79466" lon="1.85177">
        <ele>656</ele>
        <time>2024-09-15T09:05:05Z</time>
      </trkpt>
      <trkpt lat="45.79467" lon="1.85177">
        <ele>656.2</ele>
        <time>2024-09-15T09:05:06Z</time>
      </trkpt>
      <trkpt lat="45.79466" lon="1.85178">
        <ele>656.2</ele>
        <time>2024-09-15T09:05:07Z</time>
      </trkpt>
      <trkpt lat="45.79463" lon="1.8518">
        <ele>656.2</ele>
        <time>2024-09-15T09:05:08Z</time>
      </trkpt>
      <trkpt lat="45.79462" lon="1.85182">
        <ele>656.2</ele>
        <time>2024-09-15T09:05:09Z</time>
      </trkpt>
      <trkpt lat="45.79459" lon="1.85186">
        <ele>656.2</ele>
        <time>2024-09-15T09:05:10Z</time>
      </trkpt>
      <trkpt lat="45.79451" lon="1.85197">
        <ele>656.4</ele>
        <time>2024-09-15T09:05:13Z</time>
      </trkpt>
      <trkpt lat="45.79446" lon="1.85204">
        <ele>656.2</ele>
        <time>2024-09-15T09:05:15Z</time>
      </trkpt>
      <trkpt lat="45.7944" lon="1.85212">
        <ele>656.2</ele>
        <time>2024-09-15T09:05:16Z</time>
      </trkpt>
      <trkpt lat="45.79429" lon="1.85221">
        <ele>655.8</ele>
        <time>2024-09-15T09:05:19Z</time>
      </trkpt>
      <trkpt lat="45.79425" lon="1.85222">
        <ele>655.8</ele>
        <time>2024-09-15T09:05:20Z</time>
      </trkpt>
      <trkpt lat="45.79421" lon="1.85226">
        <ele>655.8</ele>
        <time>2024-09-15T09:05:21Z</time>
      </trkpt>
      <trkpt lat="45.79409" lon="1.85239">
        <ele>655.8</ele>
        <time>2024-09-15T09:05:24Z</time>
      </trkpt>
      <trkpt lat="45.79406" lon="1.85244">
        <ele>655.6</ele>
        <time>2024-09-15T09:05:25Z</time>
      </trkpt>
      <trkpt lat="45.79399" lon="1.85248">
        <ele>655.4</ele>
        <time>2024-09-15T09:05:27Z</time>
      </trkpt>
      <trkpt lat="45.79396" lon="1.85248">
        <ele>655.4</ele>
        <time>2024-09-15T09:05:28Z</time>
      </trkpt>
      <trkpt lat="45.79393" lon="1.85248">
        <ele>655.4</ele>
        <time>2024-09-15T09:05:29Z</time>
      </trkpt>
      <trkpt lat="45.79391" lon="1.85248">
        <ele>655.4</ele>
        <time>2024-09-15T09:05:30Z</time>
      </trkpt>
      <trkpt lat="45.79389" lon="1.85248">
        <ele>654.8</ele>
        <time>2024-09-15T09:05:31Z</time>
      </trkpt>
      <trkpt lat="45.79386" lon="1.85248">
        <ele>654.6</ele>
        <time>2024-09-15T09:05:32Z</time>
      </trkpt>
      <trkpt lat="45.79384" lon="1.85248">
        <ele>654.2</ele>
        <time>2024-09-15T09:05:33Z</time>
      </trkpt>
      <trkpt lat="45.79381" lon="1.8525">
        <ele>653.8</ele>
        <time>2024-09-15T09:05:35Z</time>
      </trkpt>
      <trkpt lat="45.79368" lon="1.85254">
        <ele>653.8</ele>
        <time>2024-09-15T09:05:40Z</time>
      </trkpt>
      <trkpt lat="45.79362" lon="1.85256">
        <ele>653.8</ele>
        <time>2024-09-15T09:05:42Z</time>
      </trkpt>
      <trkpt lat="45.7936" lon="1.85257">
        <ele>653.8</ele>
        <time>2024-09-15T09:05:43Z</time>
      </trkpt>
      <trkpt lat="45.79354" lon="1.8526">
        <ele>654</ele>
        <time>2024-09-15T09:05:45Z</time>
      </trkpt>
      <trkpt lat="45.79333" lon="1.85265">
        <ele>655</ele>
        <time>2024-09-15T09:05:51Z</time>
      </trkpt>
      <trkpt lat="45.7933" lon="1.85265">
        <ele>655.2</ele>
        <time>2024-09-15T09:05:52Z</time>
      </trkpt>
      <trkpt lat="45.79319" lon="1.85267">
        <ele>655.8</ele>
        <time>2024-09-15T09:05:56Z</time>
      </trkpt>
      <trkpt lat="45.79317" lon="1.85267">
        <ele>656.2</ele>
        <time>2024-09-15T09:05:57Z</time>
      </trkpt>
      <trkpt lat="45.79314" lon="1.85267">
        <ele>656.4</ele>
        <time>2024-09-15T09:05:58Z</time>
      </trkpt>
      <trkpt lat="45.79311" lon="1.85269">
        <ele>656.6</ele>
        <time>2024-09-15T09:05:59Z</time>
      </trkpt>
      <trkpt lat="45.79301" lon="1.85274">
        <ele>656.8</ele>
        <time>2024-09-15T09:06:02Z</time>
      </trkpt>
      <trkpt lat="45.79285" lon="1.85294">
        <ele>657</ele>
        <time>2024-09-15T09:06:07Z</time>
      </trkpt>
      <trkpt lat="45.79281" lon="1.85297">
        <ele>657.2</ele>
        <time>2024-09-15T09:06:08Z</time>
      </trkpt>
      <trkpt lat="45.79278" lon="1.85299">
        <ele>657.2</ele>
        <time>2024-09-15T09:06:09Z</time>
      </trkpt>
      <trkpt lat="45.79276" lon="1.853">
        <ele>657.4</ele>
        <time>2024-09-15T09:06:10Z</time>
      </trkpt>
      <trkpt lat="45.79273" lon="1.853">
        <ele>657.4</ele>
        <time>2024-09-15T09:06:11Z</time>
      </trkpt>
      <trkpt lat="45.79271" lon="1.85299">
        <ele>657.6</ele>
        <time>2024-09-15T09:06:12Z</time>
      </trkpt>
      <trkpt lat="45.79268" lon="1.853">
        <ele>657.6</ele>
        <time>2024-09-15T09:06:13Z</time>
      </trkpt>
      <trkpt lat="45.79264" lon="1.85304">
        <ele>658.2</ele>
        <time>2024-09-15T09:06:14Z</time>
      </trkpt>
      <trkpt lat="45.79261" lon="1.85307">
        <ele>658.4</ele>
        <time>2024-09-15T09:06:15Z</time>
      </trkpt>
      <trkpt lat="45.79255" lon="1.85311">
        <ele>658.4</ele>
        <time>2024-09-15T09:06:16Z</time>
      </trkpt>
      <trkpt lat="45.79253" lon="1.85313">
        <ele>658.4</ele>
        <time>2024-09-15T09:06:17Z</time>
      </trkpt>
      <trkpt lat="45.79249" lon="1.85314">
        <ele>658.8</ele>
        <time>2024-09-15T09:06:18Z</time>
      </trkpt>
      <trkpt lat="45.79246" lon="1.85315">
        <ele>659</ele>
        <time>2024-09-15T09:06:19Z</time>
      </trkpt>
      <trkpt lat="45.79244" lon="1.85318">
        <ele>659</ele>
        <time>2024-09-15T09:06:20Z</time>
      </trkpt>
      <trkpt lat="45.79241" lon="1.85319">
        <ele>659.2</ele>
        <time>2024-09-15T09:06:21Z</time>
      </trkpt>
      <trkpt lat="45.79239" lon="1.85323">
        <ele>659.2</ele>
        <time>2024-09-15T09:06:22Z</time>
      </trkpt>
      <trkpt lat="45.79237" lon="1.85326">
        <ele>659.2</ele>
        <time>2024-09-15T09:06:23Z</time>
      </trkpt>
      <trkpt lat="45.79233" lon="1.8533">
        <ele>659.2</ele>
        <time>2024-09-15T09:06:24Z</time>
      </trkpt>
      <trkpt lat="45.79231" lon="1.85331">
        <ele>659.2</ele>
        <time>2024-09-15T09:06:25Z</time>
      </trkpt>
      <trkpt lat="45.7923" lon="1.85331">
        <ele>659.2</ele>
        <time>2024-09-15T09:06:26Z</time>
      </trkpt>
      <trkpt lat="45.79228" lon="1.85331">
        <ele>659</ele>
        <time>2024-09-15T09:06:27Z</time>
      </trkpt>
      <trkpt lat="45.79226" lon="1.8533">
        <ele>659</ele>
        <time>2024-09-15T09:06:28Z</time>
      </trkpt>
      <trkpt lat="45.79224" lon="1.85329">
        <ele>658.8</ele>
        <time>2024-09-15T09:06:29Z</time>
      </trkpt>
      <trkpt lat="45.79221" lon="1.8533">
        <ele>658.6</ele>
        <time>2024-09-15T09:06:30Z</time>
      </trkpt>
      <trkpt lat="45.79217" lon="1.85332">
        <ele>658.6</ele>
        <time>2024-09-15T09:06:31Z</time>
      </trkpt>
      <trkpt lat="45.79215" lon="1.85334">
        <ele>658.2</ele>
        <time>2024-09-15T09:06:32Z</time>
      </trkpt>
      <trkpt lat="45.79212" lon="1.85334">
        <ele>657.4</ele>
        <time>2024-09-15T09:06:33Z</time>
      </trkpt>
      <trkpt lat="45.79209" lon="1.85333">
        <ele>657.2</ele>
        <time>2024-09-15T09:06:34Z</time>
      </trkpt>
      <trkpt lat="45.79201" lon="1.85335">
        <ele>656.4</ele>
        <time>2024-09-15T09:06:36Z</time>
      </trkpt>
      <trkpt lat="45.79196" lon="1.85336">
        <ele>655.8</ele>
        <time>2024-09-15T09:06:37Z</time>
      </trkpt>
      <trkpt lat="45.79193" lon="1.85336">
        <ele>655.6</ele>
        <time>2024-09-15T09:06:38Z</time>
      </trkpt>
      <trkpt lat="45.79181" lon="1.8534">
        <ele>655.2</ele>
        <time>2024-09-15T09:06:41Z</time>
      </trkpt>
      <trkpt lat="45.79174" lon="1.85337">
        <ele>655</ele>
        <time>2024-09-15T09:06:43Z</time>
      </trkpt>
      <trkpt lat="45.79171" lon="1.85336">
        <ele>654.8</ele>
        <time>2024-09-15T09:06:44Z</time>
      </trkpt>
      <trkpt lat="45.79169" lon="1.85335">
        <ele>654.8</ele>
        <time>2024-09-15T09:06:45Z</time>
      </trkpt>
      <trkpt lat="45.79166" lon="1.85335">
        <ele>654.6</ele>
        <time>2024-09-15T09:06:46Z</time>
      </trkpt>
      <trkpt lat="45.79164" lon="1.85334">
        <ele>654.4</ele>
        <time>2024-09-15T09:06:47Z</time>
      </trkpt>
      <trkpt lat="45.79161" lon="1.85333">
        <ele>654.2</ele>
        <time>2024-09-15T09:06:48Z</time>
      </trkpt>
      <trkpt lat="45.79151" lon="1.85333">
        <ele>654</ele>
        <time>2024-09-15T09:06:51Z</time>
      </trkpt>
      <trkpt lat="45.79129" lon="1.85342">
        <ele>654</ele>
        <time>2024-09-15T09:06:57Z</time>
      </trkpt>
      <trkpt lat="45.79118" lon="1.85341">
        <ele>654.2</ele>
        <time>2024-09-15T09:07:00Z</time>
      </trkpt>
      <trkpt lat="45.79114" lon="1.8534">
        <ele>654.2</ele>
        <time>2024-09-15T09:07:01Z</time>
      </trkpt>
      <trkpt lat="45.79111" lon="1.85339">
        <ele>654.4</ele>
        <time>2024-09-15T09:07:02Z</time>
      </trkpt>
      <trkpt lat="45.79102" lon="1.85334">
        <ele>654.8</ele>
        <time>2024-09-15T09:07:05Z</time>
      </trkpt>
      <trkpt lat="45.79098" lon="1.85331">
        <ele>654.8</ele>
        <time>2024-09-15T09:07:06Z</time>
      </trkpt>
      <trkpt lat="45.79095" lon="1.85329">
        <ele>654.8</ele>
        <time>2024-09-15T09:07:07Z</time>
      </trkpt>
      <trkpt lat="45.79093" lon="1.85329">
        <ele>654.8</ele>
        <time>2024-09-15T09:07:08Z</time>
      </trkpt>
      <trkpt lat="45.79089" lon="1.85327">
        <ele>654.8</ele>
        <time>2024-09-15T09:07:09Z</time>
      </trkpt>
      <trkpt lat="45.79077" lon="1.85317">
        <ele>655</ele>
        <time>2024-09-15T09:07:12Z</time>
      </trkpt>
      <trkpt lat="45.79074" lon="1.85314">
        <ele>655</ele>
        <time>2024-09-15T09:07:13Z</time>
      </trkpt>
      <trkpt lat="45.79072" lon="1.85311">
        <ele>655.2</ele>
        <time>2024-09-15T09:07:14Z</time>
      </trkpt>
      <trkpt lat="45.79069" lon="1.85308">
        <ele>655.2</ele>
        <time>2024-09-15T09:07:15Z</time>
      </trkpt>
      <trkpt lat="45.79063" lon="1.85307">
        <ele>655.4</ele>
        <time>2024-09-15T09:07:17Z</time>
      </trkpt>
      <trkpt lat="45.79058" lon="1.85304">
        <ele>655.4</ele>
        <time>2024-09-15T09:07:18Z</time>
      </trkpt>
      <trkpt lat="45.79045" lon="1.85296">
        <ele>655.6</ele>
        <time>2024-09-15T09:07:21Z</time>
      </trkpt>
      <trkpt lat="45.79041" lon="1.85293">
        <ele>655.6</ele>
        <time>2024-09-15T09:07:22Z</time>
      </trkpt>
      <trkpt lat="45.79038" lon="1.8529">
        <ele>655.6</ele>
        <time>2024-09-15T09:07:23Z</time>
      </trkpt>
      <trkpt lat="45.79035" lon="1.8529">
        <ele>655.6</ele>
        <time>2024-09-15T09:07:24Z</time>
      </trkpt>
      <trkpt lat="45.79033" lon="1.85289">
        <ele>655.6</ele>
        <time>2024-09-15T09:07:25Z</time>
      </trkpt>
      <trkpt lat="45.79028" lon="1.85287">
        <ele>655.4</ele>
        <time>2024-09-15T09:07:26Z</time>
      </trkpt>
      <trkpt lat="45.79022" lon="1.85282">
        <ele>655.4</ele>
        <time>2024-09-15T09:07:28Z</time>
      </trkpt>
      <trkpt lat="45.79018" lon="1.85281">
        <ele>655.4</ele>
        <time>2024-09-15T09:07:29Z</time>
      </trkpt>
      <trkpt lat="45.79015" lon="1.8528">
        <ele>655.4</ele>
        <time>2024-09-15T09:07:30Z</time>
      </trkpt>
      <trkpt lat="45.79009" lon="1.85278">
        <ele>655.6</ele>
        <time>2024-09-15T09:07:32Z</time>
      </trkpt>
      <trkpt lat="45.79006" lon="1.85276">
        <ele>655.6</ele>
        <time>2024-09-15T09:07:33Z</time>
      </trkpt>
      <trkpt lat="45.79004" lon="1.85272">
        <ele>655.6</ele>
        <time>2024-09-15T09:07:34Z</time>
      </trkpt>
      <trkpt lat="45.78996" lon="1.85271">
        <ele>655.6</ele>
        <time>2024-09-15T09:07:37Z</time>
      </trkpt>
      <trkpt lat="45.78992" lon="1.85273">
        <ele>655.6</ele>
        <time>2024-09-15T09:07:38Z</time>
      </trkpt>
      <trkpt lat="45.78986" lon="1.8527">
        <ele>655.6</ele>
        <time>2024-09-15T09:07:40Z</time>
      </trkpt>
      <trkpt lat="45.78969" lon="1.85267">
        <ele>655</ele>
        <time>2024-09-15T09:07:46Z</time>
      </trkpt>
      <trkpt lat="45.78957" lon="1.85266">
        <ele>654.8</ele>
        <time>2024-09-15T09:07:49Z</time>
      </trkpt>
      <trkpt lat="45.78953" lon="1.85264">
        <ele>654.8</ele>
        <time>2024-09-15T09:07:50Z</time>
      </trkpt>
      <trkpt lat="45.78949" lon="1.85262">
        <ele>654.8</ele>
        <time>2024-09-15T09:07:51Z</time>
      </trkpt>
      <trkpt lat="45.78921" lon="1.85249">
        <ele>654.8</ele>
        <time>2024-09-15T09:07:58Z</time>
      </trkpt>
      <trkpt lat="45.78917" lon="1.85246">
        <ele>655</ele>
        <time>2024-09-15T09:07:59Z</time>
      </trkpt>
      <trkpt lat="45.78914" lon="1.85243">
        <ele>655</ele>
        <time>2024-09-15T09:08:00Z</time>
      </trkpt>
      <trkpt lat="45.7891" lon="1.8524">
        <ele>655</ele>
        <time>2024-09-15T09:08:01Z</time>
      </trkpt>
      <trkpt lat="45.78906" lon="1.85237">
        <ele>655.2</ele>
        <time>2024-09-15T09:08:02Z</time>
      </trkpt>
      <trkpt lat="45.78887" lon="1.85226">
        <ele>655.4</ele>
        <time>2024-09-15T09:08:07Z</time>
      </trkpt>
      <trkpt lat="45.78884" lon="1.85224">
        <ele>655.4</ele>
        <time>2024-09-15T09:08:08Z</time>
      </trkpt>
      <trkpt lat="45.78881" lon="1.85223">
        <ele>655.6</ele>
        <time>2024-09-15T09:08:09Z</time>
      </trkpt>
      <trkpt lat="45.78878" lon="1.85221">
        <ele>655.6</ele>
        <time>2024-09-15T09:08:10Z</time>
      </trkpt>
      <trkpt lat="45.78875" lon="1.85217">
        <ele>655.8</ele>
        <time>2024-09-15T09:08:11Z</time>
      </trkpt>
      <trkpt lat="45.78872" lon="1.85216">
        <ele>655.8</ele>
        <time>2024-09-15T09:08:12Z</time>
      </trkpt>
      <trkpt lat="45.78869" lon="1.85214">
        <ele>655.8</ele>
        <time>2024-09-15T09:08:13Z</time>
      </trkpt>
      <trkpt lat="45.78865" lon="1.85212">
        <ele>655.8</ele>
        <time>2024-09-15T09:08:14Z</time>
      </trkpt>
      <trkpt lat="45.7884" lon="1.85194">
        <ele>655.8</ele>
        <time>2024-09-15T09:08:20Z</time>
      </trkpt>
      <trkpt lat="45.78836" lon="1.85193">
        <ele>655.6</ele>
        <time>2024-09-15T09:08:21Z</time>
      </trkpt>
      <trkpt lat="45.78822" lon="1.85184">
        <ele>655.4</ele>
        <time>2024-09-15T09:08:24Z</time>
      </trkpt>
      <trkpt lat="45.78818" lon="1.85182">
        <ele>655.2</ele>
        <time>2024-09-15T09:08:25Z</time>
      </trkpt>
      <trkpt lat="45.78815" lon="1.85178">
        <ele>655.2</ele>
        <time>2024-09-15T09:08:26Z</time>
      </trkpt>
      <trkpt lat="45.78812" lon="1.85176">
        <ele>654.8</ele>
        <time>2024-09-15T09:08:27Z</time>
      </trkpt>
      <trkpt lat="45.7881" lon="1.85172">
        <ele>654.6</ele>
        <time>2024-09-15T09:08:28Z</time>
      </trkpt>
      <trkpt lat="45.78808" lon="1.85169">
        <ele>654.6</ele>
        <time>2024-09-15T09:08:29Z</time>
      </trkpt>
      <trkpt lat="45.78806" lon="1.85167">
        <ele>654.6</ele>
        <time>2024-09-15T09:08:30Z</time>
      </trkpt>
      <trkpt lat="45.78804" lon="1.85164">
        <ele>654.6</ele>
        <time>2024-09-15T09:08:31Z</time>
      </trkpt>
      <trkpt lat="45.78803" lon="1.8516">
        <ele>654.4</ele>
        <time>2024-09-15T09:08:32Z</time>
      </trkpt>
      <trkpt lat="45.78801" lon="1.85157">
        <ele>654.6</ele>
        <time>2024-09-15T09:08:33Z</time>
      </trkpt>
      <trkpt lat="45.788" lon="1.85154">
        <ele>654.6</ele>
        <time>2024-09-15T09:08:34Z</time>
      </trkpt>
      <trkpt lat="45.78799" lon="1.85152">
        <ele>654.8</ele>
        <time>2024-09-15T09:08:35Z</time>
      </trkpt>
      <trkpt lat="45.78798" lon="1.85151">
        <ele>654.8</ele>
        <time>2024-09-15T09:08:36Z</time>
      </trkpt>
      <trkpt lat="45.78797" lon="1.85149">
        <ele>655</ele>
        <time>2024-09-15T09:08:37Z</time>
      </trkpt>
      <trkpt lat="45.78795" lon="1.85147">
        <ele>655</ele>
        <time>2024-09-15T09:08:38Z</time>
      </trkpt>
      <trkpt lat="45.78782" lon="1.8514">
        <ele>656</ele>
        <time>2024-09-15T09:08:43Z</time>
      </trkpt>
      <trkpt lat="45.7878" lon="1.85139">
        <ele>656.4</ele>
        <time>2024-09-15T09:08:44Z</time>
      </trkpt>
      <trkpt lat="45.78777" lon="1.85138">
        <ele>656.4</ele>
        <time>2024-09-15T09:08:45Z</time>
      </trkpt>
      <trkpt lat="45.7876" lon="1.85134">
        <ele>656.4</ele>
        <time>2024-09-15T09:08:49Z</time>
      </trkpt>
      <trkpt lat="45.78744" lon="1.85136">
        <ele>657</ele>
        <time>2024-09-15T09:08:54Z</time>
      </trkpt>
      <trkpt lat="45.78742" lon="1.85136">
        <ele>657</ele>
        <time>2024-09-15T09:08:55Z</time>
      </trkpt>
      <trkpt lat="45.78739" lon="1.85136">
        <ele>657</ele>
        <time>2024-09-15T09:08:56Z</time>
      </trkpt>
      <trkpt lat="45.78732" lon="1.85136">
        <ele>657</ele>
        <time>2024-09-15T09:08:58Z</time>
      </trkpt>
      <trkpt lat="45.78727" lon="1.85136">
        <ele>657.2</ele>
        <time>2024-09-15T09:08:59Z</time>
      </trkpt>
      <trkpt lat="45.78723" lon="1.85136">
        <ele>657.4</ele>
        <time>2024-09-15T09:09:00Z</time>
      </trkpt>
      <trkpt lat="45.78701" lon="1.85127">
        <ele>657.6</ele>
        <time>2024-09-15T09:09:06Z</time>
      </trkpt>
      <trkpt lat="45.78684" lon="1.85117">
        <ele>658.2</ele>
        <time>2024-09-15T09:09:10Z</time>
      </trkpt>
      <trkpt lat="45.7868" lon="1.85113">
        <ele>658.4</ele>
        <time>2024-09-15T09:09:11Z</time>
      </trkpt>
      <trkpt lat="45.78669" lon="1.85106">
        <ele>659.2</ele>
        <time>2024-09-15T09:09:14Z</time>
      </trkpt>
      <trkpt lat="45.78666" lon="1.85103">
        <ele>659.4</ele>
        <time>2024-09-15T09:09:15Z</time>
      </trkpt>
      <trkpt lat="45.78662" lon="1.851">
        <ele>659.8</ele>
        <time>2024-09-15T09:09:16Z</time>
      </trkpt>
      <trkpt lat="45.7866" lon="1.85099">
        <ele>660.2</ele>
        <time>2024-09-15T09:09:17Z</time>
      </trkpt>
      <trkpt lat="45.78657" lon="1.85098">
        <ele>660.6</ele>
        <time>2024-09-15T09:09:18Z</time>
      </trkpt>
      <trkpt lat="45.78656" lon="1.85097">
        <ele>660.8</ele>
        <time>2024-09-15T09:09:19Z</time>
      </trkpt>
      <trkpt lat="45.78654" lon="1.85094">
        <ele>661</ele>
        <time>2024-09-15T09:09:20Z</time>
      </trkpt>
      <trkpt lat="45.78652" lon="1.85092">
        <ele>661.2</ele>
        <time>2024-09-15T09:09:21Z</time>
      </trkpt>
      <trkpt lat="45.78649" lon="1.8509">
        <ele>661.2</ele>
        <time>2024-09-15T09:09:22Z</time>
      </trkpt>
      <trkpt lat="45.78647" lon="1.85089">
        <ele>661.2</ele>
        <time>2024-09-15T09:09:23Z</time>
      </trkpt>
      <trkpt lat="45.78644" lon="1.85089">
        <ele>661.2</ele>
        <time>2024-09-15T09:09:24Z</time>
      </trkpt>
      <trkpt lat="45.78641" lon="1.85088">
        <ele>661.2</ele>
        <time>2024-09-15T09:09:25Z</time>
      </trkpt>
      <trkpt lat="45.78638" lon="1.85087">
        <ele>661.2</ele>
        <time>2024-09-15T09:09:26Z</time>
      </trkpt>
      <trkpt lat="45.78635" lon="1.85086">
        <ele>661.2</ele>
        <time>2024-09-15T09:09:27Z</time>
      </trkpt>
      <trkpt lat="45.78631" lon="1.85084">
        <ele>661.2</ele>
        <time>2024-09-15T09:09:28Z</time>
      </trkpt>
      <trkpt lat="45.78628" lon="1.85081">
        <ele>661.2</ele>
        <time>2024-09-15T09:09:29Z</time>
      </trkpt>
      <trkpt lat="45.78624" lon="1.85079">
        <ele>661.2</ele>
        <time>2024-09-15T09:09:30Z</time>
      </trkpt>
      <trkpt lat="45.78621" lon="1.85076">
        <ele>661.2</ele>
        <time>2024-09-15T09:09:31Z</time>
      </trkpt>
      <trkpt lat="45.78617" lon="1.85074">
        <ele>661.2</ele>
        <time>2024-09-15T09:09:32Z</time>
      </trkpt>
      <trkpt lat="45.78614" lon="1.85072">
        <ele>661.2</ele>
        <time>2024-09-15T09:09:33Z</time>
      </trkpt>
      <trkpt lat="45.7861" lon="1.8507">
        <ele>661.2</ele>
        <time>2024-09-15T09:09:34Z</time>
      </trkpt>
      <trkpt lat="45.78607" lon="1.85068">
        <ele>661.2</ele>
        <time>2024-09-15T09:09:35Z</time>
      </trkpt>
      <trkpt lat="45.78604" lon="1.85065">
        <ele>661.2</ele>
        <time>2024-09-15T09:09:36Z</time>
      </trkpt>
      <trkpt lat="45.78601" lon="1.85062">
        <ele>661.2</ele>
        <time>2024-09-15T09:09:37Z</time>
      </trkpt>
      <trkpt lat="45.78598" lon="1.85059">
        <ele>661.4</ele>
        <time>2024-09-15T09:09:38Z</time>
      </trkpt>
      <trkpt lat="45.78594" lon="1.85057">
        <ele>661.4</ele>
        <time>2024-09-15T09:09:39Z</time>
      </trkpt>
      <trkpt lat="45.78591" lon="1.85055">
        <ele>661.4</ele>
        <time>2024-09-15T09:09:40Z</time>
      </trkpt>
      <trkpt lat="45.78587" lon="1.85052">
        <ele>661.4</ele>
        <time>2024-09-15T09:09:41Z</time>
      </trkpt>
      <trkpt lat="45.78584" lon="1.8505">
        <ele>661.6</ele>
        <time>2024-09-15T09:09:42Z</time>
      </trkpt>
      <trkpt lat="45.78581" lon="1.8505">
        <ele>661.6</ele>
        <time>2024-09-15T09:09:43Z</time>
      </trkpt>
      <trkpt lat="45.78578" lon="1.85049">
        <ele>661.6</ele>
        <time>2024-09-15T09:09:44Z</time>
      </trkpt>
      <trkpt lat="45.78575" lon="1.85049">
        <ele>661.6</ele>
        <time>2024-09-15T09:09:45Z</time>
      </trkpt>
      <trkpt lat="45.78571" lon="1.85048">
        <ele>661.8</ele>
        <time>2024-09-15T09:09:46Z</time>
      </trkpt>
      <trkpt lat="45.78566" lon="1.85048">
        <ele>661.8</ele>
        <time>2024-09-15T09:09:47Z</time>
      </trkpt>
      <trkpt lat="45.78554" lon="1.85045">
        <ele>661.8</ele>
        <time>2024-09-15T09:09:49Z</time>
      </trkpt>
      <trkpt lat="45.78548" lon="1.85043">
        <ele>661.4</ele>
        <time>2024-09-15T09:09:50Z</time>
      </trkpt>
      <trkpt lat="45.78542" lon="1.85042">
        <ele>661.4</ele>
        <time>2024-09-15T09:09:51Z</time>
      </trkpt>
      <trkpt lat="45.78532" lon="1.85043">
        <ele>660.4</ele>
        <time>2024-09-15T09:09:53Z</time>
      </trkpt>
      <trkpt lat="45.78527" lon="1.85041">
        <ele>659.8</ele>
        <time>2024-09-15T09:09:54Z</time>
      </trkpt>
      <trkpt lat="45.78517" lon="1.85033">
        <ele>659</ele>
        <time>2024-09-15T09:09:56Z</time>
      </trkpt>
      <trkpt lat="45.78514" lon="1.85032">
        <ele>658.4</ele>
        <time>2024-09-15T09:09:57Z</time>
      </trkpt>
      <trkpt lat="45.78512" lon="1.85032">
        <ele>657.6</ele>
        <time>2024-09-15T09:09:58Z</time>
      </trkpt>
      <trkpt lat="45.78512" lon="1.85031">
        <ele>656.8</ele>
        <time>2024-09-15T09:09:59Z</time>
      </trkpt>
      <trkpt lat="45.78513" lon="1.85031">
        <ele>656.6</ele>
        <time>2024-09-15T09:10:00Z</time>
      </trkpt>
      <trkpt lat="45.78512" lon="1.85031">
        <ele>656.4</ele>
        <time>2024-09-15T09:10:01Z</time>
      </trkpt>
      <trkpt lat="45.7851" lon="1.85029">
        <ele>656.2</ele>
        <time>2024-09-15T09:10:02Z</time>
      </trkpt>
      <trkpt lat="45.78507" lon="1.85027">
        <ele>656.2</ele>
        <time>2024-09-15T09:10:03Z</time>
      </trkpt>
      <trkpt lat="45.78503" lon="1.85022">
        <ele>656</ele>
        <time>2024-09-15T09:10:05Z</time>
      </trkpt>
      <trkpt lat="45.78491" lon="1.85012">
        <ele>656</ele>
        <time>2024-09-15T09:10:09Z</time>
      </trkpt>
      <trkpt lat="45.78484" lon="1.85007">
        <ele>656.2</ele>
        <time>2024-09-15T09:10:11Z</time>
      </trkpt>
      <trkpt lat="45.7847" lon="1.85">
        <ele>656.2</ele>
        <time>2024-09-15T09:10:15Z</time>
      </trkpt>
      <trkpt lat="45.78447" lon="1.84987">
        <ele>656</ele>
        <time>2024-09-15T09:10:21Z</time>
      </trkpt>
      <trkpt lat="45.78445" lon="1.84986">
        <ele>655.6</ele>
        <time>2024-09-15T09:10:22Z</time>
      </trkpt>
      <trkpt lat="45.78444" lon="1.84985">
        <ele>655.6</ele>
        <time>2024-09-15T09:10:23Z</time>
      </trkpt>
      <trkpt lat="45.78443" lon="1.84984">
        <ele>655.4</ele>
        <time>2024-09-15T09:10:24Z</time>
      </trkpt>
      <trkpt lat="45.78442" lon="1.84983">
        <ele>655.2</ele>
        <time>2024-09-15T09:10:25Z</time>
      </trkpt>
      <trkpt lat="45.78442" lon="1.84982">
        <ele>655.2</ele>
        <time>2024-09-15T09:10:26Z</time>
      </trkpt>
      <trkpt lat="45.78442" lon="1.84982">
        <ele>655.4</ele>
        <time>2024-09-15T09:10:28Z</time>
      </trkpt>
      <trkpt lat="45.78442" lon="1.84982">
        <ele>655.4</ele>
        <time>2024-09-15T09:10:31Z</time>
      </trkpt>
      <trkpt lat="45.78442" lon="1.84982">
        <ele>655.4</ele>
        <time>2024-09-15T09:10:33Z</time>
      </trkpt>
      <trkpt lat="45.78437" lon="1.84982">
        <ele>655.2</ele>
        <time>2024-09-15T09:11:17Z</time>
      </trkpt>
      <trkpt lat="45.78432" lon="1.84978">
        <ele>655.2</ele>
        <time>2024-09-15T09:11:19Z</time>
      </trkpt>
      <trkpt lat="45.78428" lon="1.84975">
        <ele>655.2</ele>
        <time>2024-09-15T09:11:20Z</time>
      </trkpt>
      <trkpt lat="45.78422" lon="1.84971">
        <ele>655.2</ele>
        <time>2024-09-15T09:11:22Z</time>
      </trkpt>
      <trkpt lat="45.78419" lon="1.84969">
        <ele>655.2</ele>
        <time>2024-09-15T09:11:23Z</time>
      </trkpt>
      <trkpt lat="45.78416" lon="1.84967">
        <ele>655.4</ele>
        <time>2024-09-15T09:11:24Z</time>
      </trkpt>
      <trkpt lat="45.78413" lon="1.84964">
        <ele>655.4</ele>
        <time>2024-09-15T09:11:25Z</time>
      </trkpt>
      <trkpt lat="45.78405" lon="1.84956">
        <ele>655.4</ele>
        <time>2024-09-15T09:11:27Z</time>
      </trkpt>
      <trkpt lat="45.78392" lon="1.84941">
        <ele>655.4</ele>
        <time>2024-09-15T09:11:30Z</time>
      </trkpt>
      <trkpt lat="45.78387" lon="1.84938">
        <ele>655.4</ele>
        <time>2024-09-15T09:11:31Z</time>
      </trkpt>
      <trkpt lat="45.78383" lon="1.84934">
        <ele>655.4</ele>
        <time>2024-09-15T09:11:32Z</time>
      </trkpt>
      <trkpt lat="45.78372" lon="1.84924">
        <ele>655.4</ele>
        <time>2024-09-15T09:11:34Z</time>
      </trkpt>
      <trkpt lat="45.78352" lon="1.84908">
        <ele>656</ele>
        <time>2024-09-15T09:11:38Z</time>
      </trkpt>
      <trkpt lat="45.78335" lon="1.84903">
        <ele>656</ele>
        <time>2024-09-15T09:11:41Z</time>
      </trkpt>
      <trkpt lat="45.7833" lon="1.84906">
        <ele>656.2</ele>
        <time>2024-09-15T09:11:42Z</time>
      </trkpt>
      <trkpt lat="45.78324" lon="1.84911">
        <ele>656.2</ele>
        <time>2024-09-15T09:11:43Z</time>
      </trkpt>
      <trkpt lat="45.78315" lon="1.84919">
        <ele>656.2</ele>
        <time>2024-09-15T09:11:45Z</time>
      </trkpt>
      <trkpt lat="45.78311" lon="1.84924">
        <ele>656.4</ele>
        <time>2024-09-15T09:11:46Z</time>
      </trkpt>
      <trkpt lat="45.78308" lon="1.84928">
        <ele>656.4</ele>
        <time>2024-09-15T09:11:47Z</time>
      </trkpt>
      <trkpt lat="45.78305" lon="1.8493">
        <ele>656</ele>
        <time>2024-09-15T09:11:48Z</time>
      </trkpt>
      <trkpt lat="45.78301" lon="1.84932">
        <ele>656.2</ele>
        <time>2024-09-15T09:11:49Z</time>
      </trkpt>
      <trkpt lat="45.78296" lon="1.84934">
        <ele>656.2</ele>
        <time>2024-09-15T09:11:50Z</time>
      </trkpt>
      <trkpt lat="45.7829" lon="1.84936">
        <ele>656</ele>
        <time>2024-09-15T09:11:51Z</time>
      </trkpt>
      <trkpt lat="45.7828" lon="1.84934">
        <ele>656</ele>
        <time>2024-09-15T09:11:53Z</time>
      </trkpt>
      <trkpt lat="45.78274" lon="1.84932">
        <ele>656</ele>
        <time>2024-09-15T09:11:54Z</time>
      </trkpt>
      <trkpt lat="45.78269" lon="1.8493">
        <ele>656</ele>
        <time>2024-09-15T09:11:55Z</time>
      </trkpt>
      <trkpt lat="45.78247" lon="1.8492">
        <ele>656</ele>
        <time>2024-09-15T09:11:59Z</time>
      </trkpt>
      <trkpt lat="45.78241" lon="1.84915">
        <ele>656</ele>
        <time>2024-09-15T09:12:00Z</time>
      </trkpt>
      <trkpt lat="45.78238" lon="1.8491">
        <ele>656</ele>
        <time>2024-09-15T09:12:01Z</time>
      </trkpt>
      <trkpt lat="45.78235" lon="1.84904">
        <ele>656</ele>
        <time>2024-09-15T09:12:02Z</time>
      </trkpt>
      <trkpt lat="45.78232" lon="1.84896">
        <ele>655.8</ele>
        <time>2024-09-15T09:12:03Z</time>
      </trkpt>
      <trkpt lat="45.7823" lon="1.84889">
        <ele>655.8</ele>
        <time>2024-09-15T09:12:04Z</time>
      </trkpt>
      <trkpt lat="45.78229" lon="1.84883">
        <ele>655.8</ele>
        <time>2024-09-15T09:12:05Z</time>
      </trkpt>
      <trkpt lat="45.78229" lon="1.84876">
        <ele>655.8</ele>
        <time>2024-09-15T09:12:06Z</time>
      </trkpt>
      <trkpt lat="45.78229" lon="1.84868">
        <ele>655.6</ele>
        <time>2024-09-15T09:12:07Z</time>
      </trkpt>
      <trkpt lat="45.78229" lon="1.84863">
        <ele>655.6</ele>
        <time>2024-09-15T09:12:08Z</time>
      </trkpt>
      <trkpt lat="45.7823" lon="1.84855">
        <ele>655.6</ele>
        <time>2024-09-15T09:12:09Z</time>
      </trkpt>
      <trkpt lat="45.7823" lon="1.84851">
        <ele>655.8</ele>
        <time>2024-09-15T09:12:10Z</time>
      </trkpt>
      <trkpt lat="45.7823" lon="1.84845">
        <ele>656</ele>
        <time>2024-09-15T09:12:11Z</time>
      </trkpt>
      <trkpt lat="45.78227" lon="1.84792">
        <ele>656.6</ele>
        <time>2024-09-15T09:12:18Z</time>
      </trkpt>
      <trkpt lat="45.78225" lon="1.84786">
        <ele>656.4</ele>
        <time>2024-09-15T09:12:19Z</time>
      </trkpt>
      <trkpt lat="45.78222" lon="1.84778">
        <ele>656.4</ele>
        <time>2024-09-15T09:12:20Z</time>
      </trkpt>
      <trkpt lat="45.78219" lon="1.84773">
        <ele>656.2</ele>
        <time>2024-09-15T09:12:21Z</time>
      </trkpt>
      <trkpt lat="45.78216" lon="1.84769">
        <ele>656.2</ele>
        <time>2024-09-15T09:12:22Z</time>
      </trkpt>
      <trkpt lat="45.78212" lon="1.84765">
        <ele>656.2</ele>
        <time>2024-09-15T09:12:23Z</time>
      </trkpt>
      <trkpt lat="45.78207" lon="1.84761">
        <ele>656</ele>
        <time>2024-09-15T09:12:24Z</time>
      </trkpt>
      <trkpt lat="45.78197" lon="1.84755">
        <ele>655.8</ele>
        <time>2024-09-15T09:12:26Z</time>
      </trkpt>
      <trkpt lat="45.78193" lon="1.84753">
        <ele>655.6</ele>
        <time>2024-09-15T09:12:27Z</time>
      </trkpt>
      <trkpt lat="45.78188" lon="1.84751">
        <ele>655.6</ele>
        <time>2024-09-15T09:12:28Z</time>
      </trkpt>
      <trkpt lat="45.78177" lon="1.84748">
        <ele>655.4</ele>
        <time>2024-09-15T09:12:30Z</time>
      </trkpt>
      <trkpt lat="45.78173" lon="1.84749">
        <ele>655.4</ele>
        <time>2024-09-15T09:12:31Z</time>
      </trkpt>
      <trkpt lat="45.78167" lon="1.84752">
        <ele>655.2</ele>
        <time>2024-09-15T09:12:32Z</time>
      </trkpt>
      <trkpt lat="45.78161" lon="1.84757">
        <ele>655.2</ele>
        <time>2024-09-15T09:12:33Z</time>
      </trkpt>
      <trkpt lat="45.78157" lon="1.84761">
        <ele>655.2</ele>
        <time>2024-09-15T09:12:34Z</time>
      </trkpt>
      <trkpt lat="45.78152" lon="1.84768">
        <ele>655.4</ele>
        <time>2024-09-15T09:12:35Z</time>
      </trkpt>
      <trkpt lat="45.7815" lon="1.84772">
        <ele>655.2</ele>
        <time>2024-09-15T09:12:36Z</time>
      </trkpt>
      <trkpt lat="45.78147" lon="1.84778">
        <ele>655.2</ele>
        <time>2024-09-15T09:12:37Z</time>
      </trkpt>
      <trkpt lat="45.78145" lon="1.84785">
        <ele>655</ele>
        <time>2024-09-15T09:12:38Z</time>
      </trkpt>
      <trkpt lat="45.78144" lon="1.84792">
        <ele>655</ele>
        <time>2024-09-15T09:12:39Z</time>
      </trkpt>
      <trkpt lat="45.78143" lon="1.84798">
        <ele>655</ele>
        <time>2024-09-15T09:12:40Z</time>
      </trkpt>
      <trkpt lat="45.78142" lon="1.84805">
        <ele>655</ele>
        <time>2024-09-15T09:12:41Z</time>
      </trkpt>
      <trkpt lat="45.78141" lon="1.84812">
        <ele>655</ele>
        <time>2024-09-15T09:12:42Z</time>
      </trkpt>
      <trkpt lat="45.78141" lon="1.84819">
        <ele>655</ele>
        <time>2024-09-15T09:12:43Z</time>
      </trkpt>
      <trkpt lat="45.7814" lon="1.84826">
        <ele>655</ele>
        <time>2024-09-15T09:12:44Z</time>
      </trkpt>
      <trkpt lat="45.7814" lon="1.84832">
        <ele>655.2</ele>
        <time>2024-09-15T09:12:45Z</time>
      </trkpt>
      <trkpt lat="45.7814" lon="1.84839">
        <ele>655.2</ele>
        <time>2024-09-15T09:12:46Z</time>
      </trkpt>
      <trkpt lat="45.78139" lon="1.84847">
        <ele>655.2</ele>
        <time>2024-09-15T09:12:47Z</time>
      </trkpt>
      <trkpt lat="45.78139" lon="1.84853">
        <ele>655.2</ele>
        <time>2024-09-15T09:12:48Z</time>
      </trkpt>
      <trkpt lat="45.78139" lon="1.84859">
        <ele>655.2</ele>
        <time>2024-09-15T09:12:49Z</time>
      </trkpt>
      <trkpt lat="45.78136" lon="1.84867">
        <ele>655.2</ele>
        <time>2024-09-15T09:12:50Z</time>
      </trkpt>
      <trkpt lat="45.78136" lon="1.84875">
        <ele>655.4</ele>
        <time>2024-09-15T09:12:51Z</time>
      </trkpt>
      <trkpt lat="45.78138" lon="1.849">
        <ele>655.2</ele>
        <time>2024-09-15T09:12:54Z</time>
      </trkpt>
      <trkpt lat="45.78138" lon="1.84916">
        <ele>655.2</ele>
        <time>2024-09-15T09:12:56Z</time>
      </trkpt>
      <trkpt lat="45.78132" lon="1.84936">
        <ele>655.2</ele>
        <time>2024-09-15T09:12:59Z</time>
      </trkpt>
      <trkpt lat="45.78124" lon="1.8496">
        <ele>655.2</ele>
        <time>2024-09-15T09:13:03Z</time>
      </trkpt>
      <trkpt lat="45.78123" lon="1.84966">
        <ele>655.2</ele>
        <time>2024-09-15T09:13:04Z</time>
      </trkpt>
      <trkpt lat="45.78123" lon="1.8497">
        <ele>655.2</ele>
        <time>2024-09-15T09:13:05Z</time>
      </trkpt>
      <trkpt lat="45.78122" lon="1.84975">
        <ele>655.4</ele>
        <time>2024-09-15T09:13:06Z</time>
      </trkpt>
      <trkpt lat="45.78121" lon="1.84978">
        <ele>655.6</ele>
        <time>2024-09-15T09:13:07Z</time>
      </trkpt>
      <trkpt lat="45.7812" lon="1.84981">
        <ele>656</ele>
        <time>2024-09-15T09:13:08Z</time>
      </trkpt>
      <trkpt lat="45.7812" lon="1.84984">
        <ele>656</ele>
        <time>2024-09-15T09:13:09Z</time>
      </trkpt>
      <trkpt lat="45.78119" lon="1.84985">
        <ele>656.2</ele>
        <time>2024-09-15T09:13:10Z</time>
      </trkpt>
      <trkpt lat="45.78119" lon="1.84986">
        <ele>656.2</ele>
        <time>2024-09-15T09:13:11Z</time>
      </trkpt>
      <trkpt lat="45.78119" lon="1.84987">
        <ele>656.2</ele>
        <time>2024-09-15T09:13:12Z</time>
      </trkpt>
      <trkpt lat="45.78118" lon="1.84988">
        <ele>656.2</ele>
        <time>2024-09-15T09:13:13Z</time>
      </trkpt>
      <trkpt lat="45.78118" lon="1.84988">
        <ele>656.2</ele>
        <time>2024-09-15T09:13:14Z</time>
      </trkpt>
      <trkpt lat="45.78118" lon="1.84988">
        <ele>656.2</ele>
        <time>2024-09-15T09:13:16Z</time>
      </trkpt>
      <trkpt lat="45.78118" lon="1.84992">
        <ele>655.6</ele>
        <time>2024-09-15T09:13:49Z</time>
      </trkpt>
      <trkpt lat="45.78118" lon="1.84996">
        <ele>655.6</ele>
        <time>2024-09-15T09:13:50Z</time>
      </trkpt>
      <trkpt lat="45.78115" lon="1.85003">
        <ele>655.8</ele>
        <time>2024-09-15T09:13:52Z</time>
      </trkpt>
      <trkpt lat="45.78114" lon="1.85006">
        <ele>655.8</ele>
        <time>2024-09-15T09:13:53Z</time>
      </trkpt>
      <trkpt lat="45.7811" lon="1.85014">
        <ele>656</ele>
        <time>2024-09-15T09:13:55Z</time>
      </trkpt>
      <trkpt lat="45.78108" lon="1.85018">
        <ele>656</ele>
        <time>2024-09-15T09:13:56Z</time>
      </trkpt>
      <trkpt lat="45.78097" lon="1.85031">
        <ele>656.2</ele>
        <time>2024-09-15T09:14:00Z</time>
      </trkpt>
      <trkpt lat="45.78084" lon="1.85041">
        <ele>655.8</ele>
        <time>2024-09-15T09:14:04Z</time>
      </trkpt>
      <trkpt lat="45.7808" lon="1.85041">
        <ele>655.8</ele>
        <time>2024-09-15T09:14:05Z</time>
      </trkpt>
      <trkpt lat="45.78076" lon="1.85041">
        <ele>655.6</ele>
        <time>2024-09-15T09:14:06Z</time>
      </trkpt>
      <trkpt lat="45.78073" lon="1.8504">
        <ele>655.4</ele>
        <time>2024-09-15T09:14:07Z</time>
      </trkpt>
      <trkpt lat="45.7807" lon="1.85039">
        <ele>655.2</ele>
        <time>2024-09-15T09:14:08Z</time>
      </trkpt>
      <trkpt lat="45.78061" lon="1.85037">
        <ele>655</ele>
        <time>2024-09-15T09:14:10Z</time>
      </trkpt>
      <trkpt lat="45.78035" lon="1.85042">
        <ele>654.4</ele>
        <time>2024-09-15T09:14:17Z</time>
      </trkpt>
      <trkpt lat="45.78032" lon="1.85043">
        <ele>654.4</ele>
        <time>2024-09-15T09:14:18Z</time>
      </trkpt>
      <trkpt lat="45.78028" lon="1.85044">
        <ele>654.4</ele>
        <time>2024-09-15T09:14:19Z</time>
      </trkpt>
      <trkpt lat="45.78026" lon="1.85046">
        <ele>654.4</ele>
        <time>2024-09-15T09:14:20Z</time>
      </trkpt>
      <trkpt lat="45.78023" lon="1.85048">
        <ele>654.4</ele>
        <time>2024-09-15T09:14:21Z</time>
      </trkpt>
      <trkpt lat="45.78019" lon="1.85049">
        <ele>654.4</ele>
        <time>2024-09-15T09:14:22Z</time>
      </trkpt>
      <trkpt lat="45.78015" lon="1.85051">
        <ele>654.4</ele>
        <time>2024-09-15T09:14:23Z</time>
      </trkpt>
      <trkpt lat="45.78013" lon="1.85052">
        <ele>654.4</ele>
        <time>2024-09-15T09:14:24Z</time>
      </trkpt>
      <trkpt lat="45.78009" lon="1.85054">
        <ele>654.4</ele>
        <time>2024-09-15T09:14:25Z</time>
      </trkpt>
      <trkpt lat="45.78006" lon="1.85056">
        <ele>654.4</ele>
        <time>2024-09-15T09:14:26Z</time>
      </trkpt>
      <trkpt lat="45.77988" lon="1.85073">
        <ele>655.2</ele>
        <time>2024-09-15T09:14:32Z</time>
      </trkpt>
      <trkpt lat="45.77982" lon="1.85081">
        <ele>655.2</ele>
        <time>2024-09-15T09:14:34Z</time>
      </trkpt>
      <trkpt lat="45.77977" lon="1.85097">
        <ele>655.4</ele>
        <time>2024-09-15T09:14:37Z</time>
      </trkpt>
      <trkpt lat="45.77976" lon="1.85107">
        <ele>655.4</ele>
        <time>2024-09-15T09:14:39Z</time>
      </trkpt>
      <trkpt lat="45.77975" lon="1.85111">
        <ele>655.4</ele>
        <time>2024-09-15T09:14:40Z</time>
      </trkpt>
      <trkpt lat="45.77975" lon="1.85121">
        <ele>655.4</ele>
        <time>2024-09-15T09:14:42Z</time>
      </trkpt>
      <trkpt lat="45.77977" lon="1.85131">
        <ele>655.4</ele>
        <time>2024-09-15T09:14:44Z</time>
      </trkpt>
      <trkpt lat="45.77978" lon="1.8514">
        <ele>655.4</ele>
        <time>2024-09-15T09:14:46Z</time>
      </trkpt>
      <trkpt lat="45.77979" lon="1.85144">
        <ele>655.6</ele>
        <time>2024-09-15T09:14:47Z</time>
      </trkpt>
      <trkpt lat="45.77981" lon="1.85149">
        <ele>655.6</ele>
        <time>2024-09-15T09:14:48Z</time>
      </trkpt>
      <trkpt lat="45.77982" lon="1.85152">
        <ele>656</ele>
        <time>2024-09-15T09:14:49Z</time>
      </trkpt>
      <trkpt lat="45.77986" lon="1.85161">
        <ele>656.2</ele>
        <time>2024-09-15T09:14:51Z</time>
      </trkpt>
      <trkpt lat="45.77992" lon="1.85173">
        <ele>656.6</ele>
        <time>2024-09-15T09:14:54Z</time>
      </trkpt>
      <trkpt lat="45.77993" lon="1.85176">
        <ele>656.6</ele>
        <time>2024-09-15T09:14:55Z</time>
      </trkpt>
      <trkpt lat="45.78006" lon="1.852">
        <ele>656.2</ele>
        <time>2024-09-15T09:15:01Z</time>
      </trkpt>
      <trkpt lat="45.78007" lon="1.85202">
        <ele>656.2</ele>
        <time>2024-09-15T09:15:02Z</time>
      </trkpt>
      <trkpt lat="45.78008" lon="1.85203">
        <ele>656.2</ele>
        <time>2024-09-15T09:15:03Z</time>
      </trkpt>
      <trkpt lat="45.78008" lon="1.85204">
        <ele>656.2</ele>
        <time>2024-09-15T09:15:04Z</time>
      </trkpt>
      <trkpt lat="45.78008" lon="1.85204">
        <ele>656.2</ele>
        <time>2024-09-15T09:15:06Z</time>
      </trkpt>
      <trkpt lat="45.78008" lon="1.85204">
        <ele>656.6</ele>
        <time>2024-09-15T09:15:09Z</time>
      </trkpt>
      <trkpt lat="45.7801" lon="1.85206">
        <ele>656.6</ele>
        <time>2024-09-15T09:15:11Z</time>
      </trkpt>
      <trkpt lat="45.7801" lon="1.85207">
        <ele>656.6</ele>
        <time>2024-09-15T09:15:12Z</time>
      </trkpt>
      <trkpt lat="45.7801" lon="1.85207">
        <ele>656.4</ele>
        <time>2024-09-15T09:15:13Z</time>
      </trkpt>
      <trkpt lat="45.7801" lon="1.85207">
        <ele>656.4</ele>
        <time>2024-09-15T09:15:15Z</time>
      </trkpt>
      <trkpt lat="45.78012" lon="1.85213">
        <ele>656.4</ele>
        <time>2024-09-15T09:15:18Z</time>
      </trkpt>
      <trkpt lat="45.78014" lon="1.85217">
        <ele>656.4</ele>
        <time>2024-09-15T09:15:19Z</time>
      </trkpt>
      <trkpt lat="45.78016" lon="1.8522">
        <ele>656.4</ele>
        <time>2024-09-15T09:15:20Z</time>
      </trkpt>
      <trkpt lat="45.78022" lon="1.85232">
        <ele>656.6</ele>
        <time>2024-09-15T09:15:23Z</time>
      </trkpt>
      <trkpt lat="45.78027" lon="1.85241">
        <ele>656.8</ele>
        <time>2024-09-15T09:15:26Z</time>
      </trkpt>
      <trkpt lat="45.78029" lon="1.85244">
        <ele>656.8</ele>
        <time>2024-09-15T09:15:27Z</time>
      </trkpt>
      <trkpt lat="45.7804" lon="1.85256">
        <ele>656.8</ele>
        <time>2024-09-15T09:15:30Z</time>
      </trkpt>
      <trkpt lat="45.78049" lon="1.85267">
        <ele>656.8</ele>
        <time>2024-09-15T09:15:33Z</time>
      </trkpt>
      <trkpt lat="45.78053" lon="1.85271">
        <ele>656.8</ele>
        <time>2024-09-15T09:15:34Z</time>
      </trkpt>
      <trkpt lat="45.78063" lon="1.85277">
        <ele>656.6</ele>
        <time>2024-09-15T09:15:36Z</time>
      </trkpt>
      <trkpt lat="45.78068" lon="1.85277">
        <ele>656.4</ele>
        <time>2024-09-15T09:15:37Z</time>
      </trkpt>
      <trkpt lat="45.78072" lon="1.85279">
        <ele>656.4</ele>
        <time>2024-09-15T09:15:38Z</time>
      </trkpt>
      <trkpt lat="45.78078" lon="1.85282">
        <ele>656.2</ele>
        <time>2024-09-15T09:15:39Z</time>
      </trkpt>
      <trkpt lat="45.78081" lon="1.85286">
        <ele>656</ele>
        <time>2024-09-15T09:15:40Z</time>
      </trkpt>
      <trkpt lat="45.78084" lon="1.85291">
        <ele>655.8</ele>
        <time>2024-09-15T09:15:41Z</time>
      </trkpt>
      <trkpt lat="45.78086" lon="1.85295">
        <ele>655.8</ele>
        <time>2024-09-15T09:15:42Z</time>
      </trkpt>
      <trkpt lat="45.78089" lon="1.85302">
        <ele>655.8</ele>
        <time>2024-09-15T09:15:43Z</time>
      </trkpt>
      <trkpt lat="45.78089" lon="1.85307">
        <ele>655.6</ele>
        <time>2024-09-15T09:15:44Z</time>
      </trkpt>
      <trkpt lat="45.78089" lon="1.85312">
        <ele>655.6</ele>
        <time>2024-09-15T09:15:45Z</time>
      </trkpt>
      <trkpt lat="45.78089" lon="1.85317">
        <ele>655.6</ele>
        <time>2024-09-15T09:15:46Z</time>
      </trkpt>
      <trkpt lat="45.78089" lon="1.85323">
        <ele>655.4</ele>
        <time>2024-09-15T09:15:47Z</time>
      </trkpt>
      <trkpt lat="45.78088" lon="1.8533">
        <ele>655.4</ele>
        <time>2024-09-15T09:15:48Z</time>
      </trkpt>
      <trkpt lat="45.78087" lon="1.85335">
        <ele>655.4</ele>
        <time>2024-09-15T09:15:49Z</time>
      </trkpt>
      <trkpt lat="45.78087" lon="1.8534">
        <ele>655.6</ele>
        <time>2024-09-15T09:15:50Z</time>
      </trkpt>
      <trkpt lat="45.78086" lon="1.85345">
        <ele>655.6</ele>
        <time>2024-09-15T09:15:51Z</time>
      </trkpt>
      <trkpt lat="45.78085" lon="1.8535">
        <ele>655.6</ele>
        <time>2024-09-15T09:15:52Z</time>
      </trkpt>
      <trkpt lat="45.78084" lon="1.85356">
        <ele>655.8</ele>
        <time>2024-09-15T09:15:53Z</time>
      </trkpt>
      <trkpt lat="45.78082" lon="1.8536">
        <ele>656</ele>
        <time>2024-09-15T09:15:54Z</time>
      </trkpt>
      <trkpt lat="45.7808" lon="1.85364">
        <ele>656</ele>
        <time>2024-09-15T09:15:55Z</time>
      </trkpt>
      <trkpt lat="45.78078" lon="1.85367">
        <ele>656.4</ele>
        <time>2024-09-15T09:15:56Z</time>
      </trkpt>
      <trkpt lat="45.78076" lon="1.85371">
        <ele>656.6</ele>
        <time>2024-09-15T09:15:57Z</time>
      </trkpt>
      <trkpt lat="45.78074" lon="1.85375">
        <ele>656.6</ele>
        <time>2024-09-15T09:15:58Z</time>
      </trkpt>
      <trkpt lat="45.78072" lon="1.85378">
        <ele>656.8</ele>
        <time>2024-09-15T09:15:59Z</time>
      </trkpt>
      <trkpt lat="45.7807" lon="1.85381">
        <ele>656.8</ele>
        <time>2024-09-15T09:16:00Z</time>
      </trkpt>
      <trkpt lat="45.78069" lon="1.85385">
        <ele>657.2</ele>
        <time>2024-09-15T09:16:01Z</time>
      </trkpt>
      <trkpt lat="45.78068" lon="1.85387">
        <ele>657.2</ele>
        <time>2024-09-15T09:16:02Z</time>
      </trkpt>
      <trkpt lat="45.78068" lon="1.85389">
        <ele>657.4</ele>
        <time>2024-09-15T09:16:03Z</time>
      </trkpt>
      <trkpt lat="45.78068" lon="1.8539">
        <ele>657.4</ele>
        <time>2024-09-15T09:16:04Z</time>
      </trkpt>
      <trkpt lat="45.78067" lon="1.85392">
        <ele>657.4</ele>
        <time>2024-09-15T09:16:05Z</time>
      </trkpt>
      <trkpt lat="45.78066" lon="1.85397">
        <ele>657.4</ele>
        <time>2024-09-15T09:16:06Z</time>
      </trkpt>
      <trkpt lat="45.78062" lon="1.85418">
        <ele>657</ele>
        <time>2024-09-15T09:16:10Z</time>
      </trkpt>
      <trkpt lat="45.78061" lon="1.85422">
        <ele>656.6</ele>
        <time>2024-09-15T09:16:11Z</time>
      </trkpt>
      <trkpt lat="45.7806" lon="1.85425">
        <ele>656.4</ele>
        <time>2024-09-15T09:16:12Z</time>
      </trkpt>
      <trkpt lat="45.78059" lon="1.8543">
        <ele>656</ele>
        <time>2024-09-15T09:16:13Z</time>
      </trkpt>
      <trkpt lat="45.78058" lon="1.85434">
        <ele>655.8</ele>
        <time>2024-09-15T09:16:14Z</time>
      </trkpt>
      <trkpt lat="45.78056" lon="1.85439">
        <ele>655.6</ele>
        <time>2024-09-15T09:16:15Z</time>
      </trkpt>
      <trkpt lat="45.78056" lon="1.85443">
        <ele>655.2</ele>
        <time>2024-09-15T09:16:16Z</time>
      </trkpt>
      <trkpt lat="45.78055" lon="1.85452">
        <ele>655</ele>
        <time>2024-09-15T09:16:18Z</time>
      </trkpt>
      <trkpt lat="45.78055" lon="1.85456">
        <ele>655</ele>
        <time>2024-09-15T09:16:19Z</time>
      </trkpt>
      <trkpt lat="45.78055" lon="1.85459">
        <ele>654.8</ele>
        <time>2024-09-15T09:16:20Z</time>
      </trkpt>
      <trkpt lat="45.78054" lon="1.85463">
        <ele>654.8</ele>
        <time>2024-09-15T09:16:21Z</time>
      </trkpt>
      <trkpt lat="45.78054" lon="1.85469">
        <ele>655</ele>
        <time>2024-09-15T09:16:22Z</time>
      </trkpt>
      <trkpt lat="45.78054" lon="1.85472">
        <ele>655</ele>
        <time>2024-09-15T09:16:23Z</time>
      </trkpt>
      <trkpt lat="45.78054" lon="1.85475">
        <ele>654.8</ele>
        <time>2024-09-15T09:16:24Z</time>
      </trkpt>
      <trkpt lat="45.78053" lon="1.85478">
        <ele>654.8</ele>
        <time>2024-09-15T09:16:25Z</time>
      </trkpt>
      <trkpt lat="45.78053" lon="1.85481">
        <ele>654.8</ele>
        <time>2024-09-15T09:16:26Z</time>
      </trkpt>
      <trkpt lat="45.78053" lon="1.85483">
        <ele>654.8</ele>
        <time>2024-09-15T09:16:27Z</time>
      </trkpt>
      <trkpt lat="45.78053" lon="1.85485">
        <ele>654.8</ele>
        <time>2024-09-15T09:16:28Z</time>
      </trkpt>
      <trkpt lat="45.78053" lon="1.855">
        <ele>655</ele>
        <time>2024-09-15T09:16:32Z</time>
      </trkpt>
      <trkpt lat="45.78053" lon="1.85502">
        <ele>655</ele>
        <time>2024-09-15T09:16:33Z</time>
      </trkpt>
      <trkpt lat="45.78056" lon="1.85511">
        <ele>655</ele>
        <time>2024-09-15T09:16:35Z</time>
      </trkpt>
      <trkpt lat="45.78058" lon="1.85516">
        <ele>655</ele>
        <time>2024-09-15T09:16:36Z</time>
      </trkpt>
      <trkpt lat="45.7806" lon="1.85521">
        <ele>655</ele>
        <time>2024-09-15T09:16:37Z</time>
      </trkpt>
      <trkpt lat="45.78063" lon="1.8553">
        <ele>655.2</ele>
        <time>2024-09-15T09:16:39Z</time>
      </trkpt>
      <trkpt lat="45.78065" lon="1.85534">
        <ele>655.4</ele>
        <time>2024-09-15T09:16:40Z</time>
      </trkpt>
      <trkpt lat="45.78067" lon="1.85538">
        <ele>655.4</ele>
        <time>2024-09-15T09:16:41Z</time>
      </trkpt>
      <trkpt lat="45.7807" lon="1.85542">
        <ele>655.4</ele>
        <time>2024-09-15T09:16:42Z</time>
      </trkpt>
      <trkpt lat="45.78076" lon="1.85549">
        <ele>655.6</ele>
        <time>2024-09-15T09:16:45Z</time>
      </trkpt>
      <trkpt lat="45.78078" lon="1.85552">
        <ele>655.8</ele>
        <time>2024-09-15T09:16:46Z</time>
      </trkpt>
      <trkpt lat="45.78079" lon="1.85555">
        <ele>655.8</ele>
        <time>2024-09-15T09:16:47Z</time>
      </trkpt>
      <trkpt lat="45.78081" lon="1.8556">
        <ele>656</ele>
        <time>2024-09-15T09:16:48Z</time>
      </trkpt>
      <trkpt lat="45.78081" lon="1.85564">
        <ele>656.2</ele>
        <time>2024-09-15T09:16:49Z</time>
      </trkpt>
      <trkpt lat="45.78081" lon="1.85568">
        <ele>656.4</ele>
        <time>2024-09-15T09:16:50Z</time>
      </trkpt>
      <trkpt lat="45.7808" lon="1.8557">
        <ele>656.4</ele>
        <time>2024-09-15T09:16:51Z</time>
      </trkpt>
      <trkpt lat="45.78079" lon="1.85572">
        <ele>656.6</ele>
        <time>2024-09-15T09:16:52Z</time>
      </trkpt>
      <trkpt lat="45.78078" lon="1.85574">
        <ele>656.6</ele>
        <time>2024-09-15T09:16:53Z</time>
      </trkpt>
      <trkpt lat="45.78077" lon="1.85576">
        <ele>656.8</ele>
        <time>2024-09-15T09:16:54Z</time>
      </trkpt>
      <trkpt lat="45.78076" lon="1.85576">
        <ele>657</ele>
        <time>2024-09-15T09:16:55Z</time>
      </trkpt>
      <trkpt lat="45.78075" lon="1.85576">
        <ele>657</ele>
        <time>2024-09-15T09:16:56Z</time>
      </trkpt>
      <trkpt lat="45.78074" lon="1.85577">
        <ele>657.4</ele>
        <time>2024-09-15T09:16:57Z</time>
      </trkpt>
      <trkpt lat="45.78072" lon="1.85577">
        <ele>657.6</ele>
        <time>2024-09-15T09:16:58Z</time>
      </trkpt>
      <trkpt lat="45.78069" lon="1.85579">
        <ele>658</ele>
        <time>2024-09-15T09:17:00Z</time>
      </trkpt>
      <trkpt lat="45.78068" lon="1.8558">
        <ele>658.2</ele>
        <time>2024-09-15T09:17:01Z</time>
      </trkpt>
      <trkpt lat="45.78067" lon="1.85581">
        <ele>658.2</ele>
        <time>2024-09-15T09:17:02Z</time>
      </trkpt>
      <trkpt lat="45.78067" lon="1.85581">
        <ele>658.2</ele>
        <time>2024-09-15T09:17:03Z</time>
      </trkpt>
      <trkpt lat="45.78067" lon="1.85581">
        <ele>658.2</ele>
        <time>2024-09-15T09:17:04Z</time>
      </trkpt>
      <trkpt lat="45.78067" lon="1.85583">
        <ele>657.6</ele>
        <time>2024-09-15T09:17:55Z</time>
      </trkpt>
      <trkpt lat="45.78065" lon="1.85589">
        <ele>657.8</ele>
        <time>2024-09-15T09:17:57Z</time>
      </trkpt>
      <trkpt lat="45.78062" lon="1.85599">
        <ele>657.8</ele>
        <time>2024-09-15T09:18:00Z</time>
      </trkpt>
      <trkpt lat="45.7806" lon="1.85612">
        <ele>657.8</ele>
        <time>2024-09-15T09:18:04Z</time>
      </trkpt>
      <trkpt lat="45.78058" lon="1.85646">
        <ele>656.8</ele>
        <time>2024-09-15T09:18:12Z</time>
      </trkpt>
      <trkpt lat="45.78058" lon="1.85658">
        <ele>656.6</ele>
        <time>2024-09-15T09:18:15Z</time>
      </trkpt>
      <trkpt lat="45.78061" lon="1.85671">
        <ele>656.4</ele>
        <time>2024-09-15T09:18:18Z</time>
      </trkpt>
      <trkpt lat="45.78077" lon="1.85706">
        <ele>655.8</ele>
        <time>2024-09-15T09:18:26Z</time>
      </trkpt>
      <trkpt lat="45.78082" lon="1.85714">
        <ele>655.6</ele>
        <time>2024-09-15T09:18:28Z</time>
      </trkpt>
      <trkpt lat="45.7809" lon="1.85723">
        <ele>655.2</ele>
        <time>2024-09-15T09:18:31Z</time>
      </trkpt>
      <trkpt lat="45.78092" lon="1.85726">
        <ele>655.2</ele>
        <time>2024-09-15T09:18:32Z</time>
      </trkpt>
      <trkpt lat="45.78093" lon="1.8573">
        <ele>655.2</ele>
        <time>2024-09-15T09:18:33Z</time>
      </trkpt>
      <trkpt lat="45.78095" lon="1.85733">
        <ele>655.2</ele>
        <time>2024-09-15T09:18:34Z</time>
      </trkpt>
      <trkpt lat="45.78097" lon="1.85737">
        <ele>655.2</ele>
        <time>2024-09-15T09:18:35Z</time>
      </trkpt>
      <trkpt lat="45.78101" lon="1.85744">
        <ele>655.2</ele>
        <time>2024-09-15T09:18:37Z</time>
      </trkpt>
      <trkpt lat="45.78102" lon="1.85747">
        <ele>655.2</ele>
        <time>2024-09-15T09:18:38Z</time>
      </trkpt>
      <trkpt lat="45.78103" lon="1.8575">
        <ele>655.4</ele>
        <time>2024-09-15T09:18:39Z</time>
      </trkpt>
      <trkpt lat="45.78104" lon="1.85751">
        <ele>655.4</ele>
        <time>2024-09-15T09:18:40Z</time>
      </trkpt>
      <trkpt lat="45.78105" lon="1.85751">
        <ele>655.4</ele>
        <time>2024-09-15T09:18:41Z</time>
      </trkpt>
      <trkpt lat="45.78106" lon="1.85752">
        <ele>655.4</ele>
        <time>2024-09-15T09:18:42Z</time>
      </trkpt>
      <trkpt lat="45.78106" lon="1.85753">
        <ele>655.4</ele>
        <time>2024-09-15T09:18:43Z</time>
      </trkpt>
      <trkpt lat="45.78107" lon="1.85754">
        <ele>655.4</ele>
        <time>2024-09-15T09:18:44Z</time>
      </trkpt>
      <trkpt lat="45.78108" lon="1.85755">
        <ele>655.4</ele>
        <time>2024-09-15T09:18:45Z</time>
      </trkpt>
      <trkpt lat="45.78108" lon="1.85755">
        <ele>655.2</ele>
        <time>2024-09-15T09:18:46Z</time>
      </trkpt>
      <trkpt lat="45.78108" lon="1.85755">
        <ele>655.2</ele>
        <time>2024-09-15T09:18:47Z</time>
      </trkpt>
      <trkpt lat="45.78108" lon="1.85755">
        <ele>655.2</ele>
        <time>2024-09-15T09:18:48Z</time>
      </trkpt>
      <trkpt lat="45.7811" lon="1.85753">
        <ele>655.4</ele>
        <time>2024-09-15T09:20:55Z</time>
      </trkpt>
      <trkpt lat="45.78114" lon="1.85749">
        <ele>655.6</ele>
        <time>2024-09-15T09:20:57Z</time>
      </trkpt>
      <trkpt lat="45.78117" lon="1.85744">
        <ele>655.8</ele>
        <time>2024-09-15T09:20:59Z</time>
      </trkpt>
      <trkpt lat="45.78119" lon="1.85741">
        <ele>655.8</ele>
        <time>2024-09-15T09:21:00Z</time>
      </trkpt>
      <trkpt lat="45.78121" lon="1.85737">
        <ele>655.8</ele>
        <time>2024-09-15T09:21:01Z</time>
      </trkpt>
      <trkpt lat="45.78122" lon="1.85731">
        <ele>656</ele>
        <time>2024-09-15T09:21:03Z</time>
      </trkpt>
      <trkpt lat="45.78123" lon="1.8573">
        <ele>656</ele>
        <time>2024-09-15T09:21:04Z</time>
      </trkpt>
      <trkpt lat="45.78123" lon="1.85728">
        <ele>656.2</ele>
        <time>2024-09-15T09:21:05Z</time>
      </trkpt>
      <trkpt lat="45.78124" lon="1.85725">
        <ele>656.4</ele>
        <time>2024-09-15T09:21:06Z</time>
      </trkpt>
      <trkpt lat="45.78124" lon="1.85722">
        <ele>657</ele>
        <time>2024-09-15T09:21:07Z</time>
      </trkpt>
      <trkpt lat="45.78129" lon="1.85705">
        <ele>658</ele>
        <time>2024-09-15T09:21:12Z</time>
      </trkpt>
      <trkpt lat="45.78131" lon="1.85701">
        <ele>658.2</ele>
        <time>2024-09-15T09:21:13Z</time>
      </trkpt>
      <trkpt lat="45.78133" lon="1.85697">
        <ele>658.2</ele>
        <time>2024-09-15T09:21:14Z</time>
      </trkpt>
      <trkpt lat="45.78135" lon="1.85693">
        <ele>658.4</ele>
        <time>2024-09-15T09:21:15Z</time>
      </trkpt>
      <trkpt lat="45.78137" lon="1.85689">
        <ele>658.6</ele>
        <time>2024-09-15T09:21:16Z</time>
      </trkpt>
      <trkpt lat="45.78139" lon="1.85685">
        <ele>658.6</ele>
        <time>2024-09-15T09:21:17Z</time>
      </trkpt>
      <trkpt lat="45.78141" lon="1.8568">
        <ele>658.6</ele>
        <time>2024-09-15T09:21:18Z</time>
      </trkpt>
      <trkpt lat="45.78142" lon="1.85676">
        <ele>658.8</ele>
        <time>2024-09-15T09:21:19Z</time>
      </trkpt>
      <trkpt lat="45.78144" lon="1.85672">
        <ele>658.8</ele>
        <time>2024-09-15T09:21:20Z</time>
      </trkpt>
      <trkpt lat="45.78146" lon="1.85669">
        <ele>658.8</ele>
        <time>2024-09-15T09:21:21Z</time>
      </trkpt>
      <trkpt lat="45.78149" lon="1.85666">
        <ele>658.8</ele>
        <time>2024-09-15T09:21:22Z</time>
      </trkpt>
      <trkpt lat="45.78152" lon="1.85662">
        <ele>658.8</ele>
        <time>2024-09-15T09:21:23Z</time>
      </trkpt>
      <trkpt lat="45.78154" lon="1.85659">
        <ele>658.6</ele>
        <time>2024-09-15T09:21:24Z</time>
      </trkpt>
      <trkpt lat="45.78157" lon="1.85654">
        <ele>658.6</ele>
        <time>2024-09-15T09:21:25Z</time>
      </trkpt>
      <trkpt lat="45.78159" lon="1.85649">
        <ele>658.6</ele>
        <time>2024-09-15T09:21:26Z</time>
      </trkpt>
      <trkpt lat="45.78162" lon="1.85644">
        <ele>658.4</ele>
        <time>2024-09-15T09:21:27Z</time>
      </trkpt>
      <trkpt lat="45.78165" lon="1.85639">
        <ele>658.4</ele>
        <time>2024-09-15T09:21:28Z</time>
      </trkpt>
      <trkpt lat="45.78168" lon="1.85634">
        <ele>658.2</ele>
        <time>2024-09-15T09:21:29Z</time>
      </trkpt>
      <trkpt lat="45.78171" lon="1.85628">
        <ele>658.2</ele>
        <time>2024-09-15T09:21:30Z</time>
      </trkpt>
      <trkpt lat="45.78173" lon="1.85623">
        <ele>658</ele>
        <time>2024-09-15T09:21:31Z</time>
      </trkpt>
      <trkpt lat="45.78174" lon="1.85618">
        <ele>658</ele>
        <time>2024-09-15T09:21:32Z</time>
      </trkpt>
      <trkpt lat="45.78175" lon="1.85613">
        <ele>657.8</ele>
        <time>2024-09-15T09:21:33Z</time>
      </trkpt>
      <trkpt lat="45.78176" lon="1.8561">
        <ele>657.8</ele>
        <time>2024-09-15T09:21:34Z</time>
      </trkpt>
      <trkpt lat="45.78178" lon="1.85606">
        <ele>657.6</ele>
        <time>2024-09-15T09:21:35Z</time>
      </trkpt>
      <trkpt lat="45.78178" lon="1.85603">
        <ele>657.2</ele>
        <time>2024-09-15T09:21:36Z</time>
      </trkpt>
      <trkpt lat="45.78179" lon="1.85602">
        <ele>656.8</ele>
        <time>2024-09-15T09:21:37Z</time>
      </trkpt>
      <trkpt lat="45.78179" lon="1.85602">
        <ele>656.6</ele>
        <time>2024-09-15T09:21:39Z</time>
      </trkpt>
      <trkpt lat="45.78182" lon="1.85601">
        <ele>656.4</ele>
        <time>2024-09-15T09:21:42Z</time>
      </trkpt>
      <trkpt lat="45.78186" lon="1.85599">
        <ele>656</ele>
        <time>2024-09-15T09:21:44Z</time>
      </trkpt>
      <trkpt lat="45.78188" lon="1.856">
        <ele>656</ele>
        <time>2024-09-15T09:21:45Z</time>
      </trkpt>
      <trkpt lat="45.78191" lon="1.856">
        <ele>656</ele>
        <time>2024-09-15T09:21:46Z</time>
      </trkpt>
      <trkpt lat="45.78196" lon="1.85595">
        <ele>656</ele>
        <time>2024-09-15T09:21:48Z</time>
      </trkpt>
      <trkpt lat="45.78198" lon="1.85592">
        <ele>656</ele>
        <time>2024-09-15T09:21:49Z</time>
      </trkpt>
      <trkpt lat="45.782" lon="1.8559">
        <ele>656</ele>
        <time>2024-09-15T09:21:50Z</time>
      </trkpt>
      <trkpt lat="45.78202" lon="1.85588">
        <ele>655.8</ele>
        <time>2024-09-15T09:21:51Z</time>
      </trkpt>
      <trkpt lat="45.78205" lon="1.85587">
        <ele>655.8</ele>
        <time>2024-09-15T09:21:52Z</time>
      </trkpt>
      <trkpt lat="45.78209" lon="1.85586">
        <ele>655.6</ele>
        <time>2024-09-15T09:21:53Z</time>
      </trkpt>
      <trkpt lat="45.78212" lon="1.85586">
        <ele>655.6</ele>
        <time>2024-09-15T09:21:54Z</time>
      </trkpt>
      <trkpt lat="45.78215" lon="1.85586">
        <ele>655.2</ele>
        <time>2024-09-15T09:21:55Z</time>
      </trkpt>
      <trkpt lat="45.78217" lon="1.85587">
        <ele>654.6</ele>
        <time>2024-09-15T09:21:56Z</time>
      </trkpt>
      <trkpt lat="45.78218" lon="1.85587">
        <ele>654</ele>
        <time>2024-09-15T09:21:57Z</time>
      </trkpt>
      <trkpt lat="45.78218" lon="1.85587">
        <ele>653.8</ele>
        <time>2024-09-15T09:21:58Z</time>
      </trkpt>
      <trkpt lat="45.78218" lon="1.85587">
        <ele>653.6</ele>
        <time>2024-09-15T09:21:59Z</time>
      </trkpt>
      <trkpt lat="45.78222" lon="1.85589">
        <ele>653.2</ele>
        <time>2024-09-15T09:22:09Z</time>
      </trkpt>
      <trkpt lat="45.78224" lon="1.8559">
        <ele>653.2</ele>
        <time>2024-09-15T09:22:10Z</time>
      </trkpt>
      <trkpt lat="45.78227" lon="1.85591">
        <ele>653.2</ele>
        <time>2024-09-15T09:22:11Z</time>
      </trkpt>
      <trkpt lat="45.78238" lon="1.85593">
        <ele>653.4</ele>
        <time>2024-09-15T09:22:15Z</time>
      </trkpt>
      <trkpt lat="45.78246" lon="1.85589">
        <ele>653.6</ele>
        <time>2024-09-15T09:22:17Z</time>
      </trkpt>
      <trkpt lat="45.7825" lon="1.85588">
        <ele>653.6</ele>
        <time>2024-09-15T09:22:18Z</time>
      </trkpt>
      <trkpt lat="45.78263" lon="1.85581">
        <ele>653.8</ele>
        <time>2024-09-15T09:22:21Z</time>
      </trkpt>
      <trkpt lat="45.78271" lon="1.85576">
        <ele>654</ele>
        <time>2024-09-15T09:22:23Z</time>
      </trkpt>
      <trkpt lat="45.78276" lon="1.85576">
        <ele>654.2</ele>
        <time>2024-09-15T09:22:25Z</time>
      </trkpt>
      <trkpt lat="45.78278" lon="1.85577">
        <ele>654.2</ele>
        <time>2024-09-15T09:22:26Z</time>
      </trkpt>
      <trkpt lat="45.78281" lon="1.85577">
        <ele>654.2</ele>
        <time>2024-09-15T09:22:27Z</time>
      </trkpt>
      <trkpt lat="45.78283" lon="1.85576">
        <ele>654.4</ele>
        <time>2024-09-15T09:22:28Z</time>
      </trkpt>
      <trkpt lat="45.78286" lon="1.85575">
        <ele>654.4</ele>
        <time>2024-09-15T09:22:29Z</time>
      </trkpt>
      <trkpt lat="45.78288" lon="1.85572">
        <ele>654.6</ele>
        <time>2024-09-15T09:22:30Z</time>
      </trkpt>
      <trkpt lat="45.7829" lon="1.8557">
        <ele>654.6</ele>
        <time>2024-09-15T09:22:31Z</time>
      </trkpt>
      <trkpt lat="45.78293" lon="1.85567">
        <ele>654.8</ele>
        <time>2024-09-15T09:22:32Z</time>
      </trkpt>
      <trkpt lat="45.78303" lon="1.85558">
        <ele>655.2</ele>
        <time>2024-09-15T09:22:35Z</time>
      </trkpt>
      <trkpt lat="45.7831" lon="1.8555">
        <ele>655.4</ele>
        <time>2024-09-15T09:22:37Z</time>
      </trkpt>
      <trkpt lat="45.78316" lon="1.85544">
        <ele>655.8</ele>
        <time>2024-09-15T09:22:39Z</time>
      </trkpt>
      <trkpt lat="45.78317" lon="1.85539">
        <ele>655.8</ele>
        <time>2024-09-15T09:22:40Z</time>
      </trkpt>
      <trkpt lat="45.78319" lon="1.85535">
        <ele>655.8</ele>
        <time>2024-09-15T09:22:41Z</time>
      </trkpt>
      <trkpt lat="45.78321" lon="1.85531">
        <ele>655.8</ele>
        <time>2024-09-15T09:22:42Z</time>
      </trkpt>
      <trkpt lat="45.78322" lon="1.85526">
        <ele>655.6</ele>
        <time>2024-09-15T09:22:43Z</time>
      </trkpt>
      <trkpt lat="45.78327" lon="1.85514">
        <ele>655.4</ele>
        <time>2024-09-15T09:22:46Z</time>
      </trkpt>
      <trkpt lat="45.78328" lon="1.85509">
        <ele>655.4</ele>
        <time>2024-09-15T09:22:47Z</time>
      </trkpt>
      <trkpt lat="45.78329" lon="1.85505">
        <ele>655.4</ele>
        <time>2024-09-15T09:22:48Z</time>
      </trkpt>
      <trkpt lat="45.7833" lon="1.85501">
        <ele>655.4</ele>
        <time>2024-09-15T09:22:49Z</time>
      </trkpt>
      <trkpt lat="45.78331" lon="1.85495">
        <ele>655.4</ele>
        <time>2024-09-15T09:22:50Z</time>
      </trkpt>
      <trkpt lat="45.78333" lon="1.8549">
        <ele>655.2</ele>
        <time>2024-09-15T09:22:51Z</time>
      </trkpt>
      <trkpt lat="45.78341" lon="1.85473">
        <ele>655.2</ele>
        <time>2024-09-15T09:22:54Z</time>
      </trkpt>
      <trkpt lat="45.78347" lon="1.85456">
        <ele>655.2</ele>
        <time>2024-09-15T09:22:57Z</time>
      </trkpt>
      <trkpt lat="45.78356" lon="1.85436">
        <ele>655.2</ele>
        <time>2024-09-15T09:23:01Z</time>
      </trkpt>
      <trkpt lat="45.78357" lon="1.85432">
        <ele>655.4</ele>
        <time>2024-09-15T09:23:02Z</time>
      </trkpt>
      <trkpt lat="45.78357" lon="1.85428">
        <ele>655.2</ele>
        <time>2024-09-15T09:23:03Z</time>
      </trkpt>
      <trkpt lat="45.78359" lon="1.85422">
        <ele>655.2</ele>
        <time>2024-09-15T09:23:04Z</time>
      </trkpt>
      <trkpt lat="45.78364" lon="1.85418">
        <ele>655</ele>
        <time>2024-09-15T09:23:06Z</time>
      </trkpt>
      <trkpt lat="45.78366" lon="1.85416">
        <ele>655</ele>
        <time>2024-09-15T09:23:07Z</time>
      </trkpt>
      <trkpt lat="45.78368" lon="1.85413">
        <ele>655</ele>
        <time>2024-09-15T09:23:08Z</time>
      </trkpt>
      <trkpt lat="45.78372" lon="1.85406">
        <ele>655</ele>
        <time>2024-09-15T09:23:10Z</time>
      </trkpt>
      <trkpt lat="45.78385" lon="1.85394">
        <ele>654.8</ele>
        <time>2024-09-15T09:23:15Z</time>
      </trkpt>
      <trkpt lat="45.78388" lon="1.85394">
        <ele>654.8</ele>
        <time>2024-09-15T09:23:16Z</time>
      </trkpt>
      <trkpt lat="45.7839" lon="1.85393">
        <ele>654.8</ele>
        <time>2024-09-15T09:23:17Z</time>
      </trkpt>
      <trkpt lat="45.78392" lon="1.85393">
        <ele>654.8</ele>
        <time>2024-09-15T09:23:18Z</time>
      </trkpt>
      <trkpt lat="45.78394" lon="1.85392">
        <ele>654.8</ele>
        <time>2024-09-15T09:23:19Z</time>
      </trkpt>
      <trkpt lat="45.78395" lon="1.85393">
        <ele>655</ele>
        <time>2024-09-15T09:23:20Z</time>
      </trkpt>
      <trkpt lat="45.78398" lon="1.85394">
        <ele>655</ele>
        <time>2024-09-15T09:23:21Z</time>
      </trkpt>
      <trkpt lat="45.78413" lon="1.85397">
        <ele>655.6</ele>
        <time>2024-09-15T09:23:25Z</time>
      </trkpt>
      <trkpt lat="45.78415" lon="1.85396">
        <ele>655.6</ele>
        <time>2024-09-15T09:23:26Z</time>
      </trkpt>
      <trkpt lat="45.78416" lon="1.85395">
        <ele>655.6</ele>
        <time>2024-09-15T09:23:27Z</time>
      </trkpt>
      <trkpt lat="45.78416" lon="1.85395">
        <ele>655.8</ele>
        <time>2024-09-15T09:23:28Z</time>
      </trkpt>
      <trkpt lat="45.78416" lon="1.85395">
        <ele>656</ele>
        <time>2024-09-15T09:23:29Z</time>
      </trkpt>
      <trkpt lat="45.78417" lon="1.85395">
        <ele>656</ele>
        <time>2024-09-15T09:23:30Z</time>
      </trkpt>
      <trkpt lat="45.7842" lon="1.85395">
        <ele>656</ele>
        <time>2024-09-15T09:23:31Z</time>
      </trkpt>
      <trkpt lat="45.78427" lon="1.85394">
        <ele>656.4</ele>
        <time>2024-09-15T09:23:33Z</time>
      </trkpt>
      <trkpt lat="45.7844" lon="1.85393">
        <ele>656.4</ele>
        <time>2024-09-15T09:23:36Z</time>
      </trkpt>
      <trkpt lat="45.78452" lon="1.85389">
        <ele>656.8</ele>
        <time>2024-09-15T09:23:40Z</time>
      </trkpt>
      <trkpt lat="45.78455" lon="1.85386">
        <ele>656.8</ele>
        <time>2024-09-15T09:23:41Z</time>
      </trkpt>
      <trkpt lat="45.78459" lon="1.85385">
        <ele>657</ele>
        <time>2024-09-15T09:23:42Z</time>
      </trkpt>
      <trkpt lat="45.78462" lon="1.85384">
        <ele>657</ele>
        <time>2024-09-15T09:23:43Z</time>
      </trkpt>
      <trkpt lat="45.78469" lon="1.85379">
        <ele>657</ele>
        <time>2024-09-15T09:23:45Z</time>
      </trkpt>
      <trkpt lat="45.78486" lon="1.85366">
        <ele>656.4</ele>
        <time>2024-09-15T09:23:50Z</time>
      </trkpt>
      <trkpt lat="45.78488" lon="1.85364">
        <ele>656.4</ele>
        <time>2024-09-15T09:23:51Z</time>
      </trkpt>
      <trkpt lat="45.7849" lon="1.85364">
        <ele>656.4</ele>
        <time>2024-09-15T09:23:52Z</time>
      </trkpt>
      <trkpt lat="45.78492" lon="1.85364">
        <ele>656.4</ele>
        <time>2024-09-15T09:23:53Z</time>
      </trkpt>
      <trkpt lat="45.78495" lon="1.85364">
        <ele>656.4</ele>
        <time>2024-09-15T09:23:54Z</time>
      </trkpt>
      <trkpt lat="45.78499" lon="1.85367">
        <ele>656.2</ele>
        <time>2024-09-15T09:23:55Z</time>
      </trkpt>
      <trkpt lat="45.78502" lon="1.85367">
        <ele>656.2</ele>
        <time>2024-09-15T09:23:56Z</time>
      </trkpt>
      <trkpt lat="45.78504" lon="1.85365">
        <ele>656.2</ele>
        <time>2024-09-15T09:23:57Z</time>
      </trkpt>
      <trkpt lat="45.78507" lon="1.85366">
        <ele>656.2</ele>
        <time>2024-09-15T09:23:58Z</time>
      </trkpt>
      <trkpt lat="45.78509" lon="1.85365">
        <ele>656.2</ele>
        <time>2024-09-15T09:23:59Z</time>
      </trkpt>
      <trkpt lat="45.78511" lon="1.85366">
        <ele>656.2</ele>
        <time>2024-09-15T09:24:00Z</time>
      </trkpt>
      <trkpt lat="45.78513" lon="1.85369">
        <ele>656.4</ele>
        <time>2024-09-15T09:24:01Z</time>
      </trkpt>
      <trkpt lat="45.78518" lon="1.85377">
        <ele>656.4</ele>
        <time>2024-09-15T09:24:02Z</time>
      </trkpt>
      <trkpt lat="45.78528" lon="1.85383">
        <ele>656.6</ele>
        <time>2024-09-15T09:24:04Z</time>
      </trkpt>
      <trkpt lat="45.78534" lon="1.8538">
        <ele>656.6</ele>
        <time>2024-09-15T09:24:06Z</time>
      </trkpt>
      <trkpt lat="45.78536" lon="1.85381">
        <ele>656.6</ele>
        <time>2024-09-15T09:24:07Z</time>
      </trkpt>
      <trkpt lat="45.78537" lon="1.85382">
        <ele>656.6</ele>
        <time>2024-09-15T09:24:08Z</time>
      </trkpt>
      <trkpt lat="45.78539" lon="1.85384">
        <ele>656.6</ele>
        <time>2024-09-15T09:24:09Z</time>
      </trkpt>
      <trkpt lat="45.78541" lon="1.85387">
        <ele>656.6</ele>
        <time>2024-09-15T09:24:10Z</time>
      </trkpt>
      <trkpt lat="45.78546" lon="1.85394">
        <ele>656.4</ele>
        <time>2024-09-15T09:24:11Z</time>
      </trkpt>
      <trkpt lat="45.78562" lon="1.85408">
        <ele>656.2</ele>
        <time>2024-09-15T09:24:14Z</time>
      </trkpt>
      <trkpt lat="45.78569" lon="1.85416">
        <ele>656.2</ele>
        <time>2024-09-15T09:24:17Z</time>
      </trkpt>
      <trkpt lat="45.78572" lon="1.85417">
        <ele>656</ele>
        <time>2024-09-15T09:24:18Z</time>
      </trkpt>
      <trkpt lat="45.78576" lon="1.85418">
        <ele>656</ele>
        <time>2024-09-15T09:24:19Z</time>
      </trkpt>
      <trkpt lat="45.78579" lon="1.85417">
        <ele>656</ele>
        <time>2024-09-15T09:24:20Z</time>
      </trkpt>
      <trkpt lat="45.78586" lon="1.85416">
        <ele>656.2</ele>
        <time>2024-09-15T09:24:22Z</time>
      </trkpt>
      <trkpt lat="45.78589" lon="1.85417">
        <ele>656.2</ele>
        <time>2024-09-15T09:24:23Z</time>
      </trkpt>
      <trkpt lat="45.78591" lon="1.85419">
        <ele>656</ele>
        <time>2024-09-15T09:24:24Z</time>
      </trkpt>
      <trkpt lat="45.78593" lon="1.8542">
        <ele>656</ele>
        <time>2024-09-15T09:24:25Z</time>
      </trkpt>
      <trkpt lat="45.78594" lon="1.85422">
        <ele>656</ele>
        <time>2024-09-15T09:24:26Z</time>
      </trkpt>
      <trkpt lat="45.78596" lon="1.85424">
        <ele>656</ele>
        <time>2024-09-15T09:24:27Z</time>
      </trkpt>
      <trkpt lat="45.786" lon="1.85424">
        <ele>656</ele>
        <time>2024-09-15T09:24:28Z</time>
      </trkpt>
      <trkpt lat="45.78602" lon="1.85424">
        <ele>656</ele>
        <time>2024-09-15T09:24:29Z</time>
      </trkpt>
      <trkpt lat="45.78604" lon="1.85422">
        <ele>656</ele>
        <time>2024-09-15T09:24:30Z</time>
      </trkpt>
      <trkpt lat="45.78607" lon="1.85422">
        <ele>655.8</ele>
        <time>2024-09-15T09:24:31Z</time>
      </trkpt>
      <trkpt lat="45.7861" lon="1.85421">
        <ele>655.8</ele>
        <time>2024-09-15T09:24:32Z</time>
      </trkpt>
      <trkpt lat="45.78612" lon="1.85421">
        <ele>655.8</ele>
        <time>2024-09-15T09:24:33Z</time>
      </trkpt>
      <trkpt lat="45.78619" lon="1.85426">
        <ele>655.8</ele>
        <time>2024-09-15T09:24:35Z</time>
      </trkpt>
      <trkpt lat="45.78626" lon="1.85436">
        <ele>655.8</ele>
        <time>2024-09-15T09:24:37Z</time>
      </trkpt>
      <trkpt lat="45.78627" lon="1.8544">
        <ele>655.8</ele>
        <time>2024-09-15T09:24:38Z</time>
      </trkpt>
      <trkpt lat="45.78628" lon="1.85442">
        <ele>655.8</ele>
        <time>2024-09-15T09:24:39Z</time>
      </trkpt>
      <trkpt lat="45.78629" lon="1.85444">
        <ele>655.6</ele>
        <time>2024-09-15T09:24:40Z</time>
      </trkpt>
      <trkpt lat="45.7863" lon="1.85446">
        <ele>655.6</ele>
        <time>2024-09-15T09:24:41Z</time>
      </trkpt>
      <trkpt lat="45.78631" lon="1.85448">
        <ele>655.6</ele>
        <time>2024-09-15T09:24:42Z</time>
      </trkpt>
      <trkpt lat="45.78632" lon="1.8545">
        <ele>655.6</ele>
        <time>2024-09-15T09:24:43Z</time>
      </trkpt>
      <trkpt lat="45.78633" lon="1.85453">
        <ele>655.4</ele>
        <time>2024-09-15T09:24:44Z</time>
      </trkpt>
      <trkpt lat="45.78633" lon="1.85455">
        <ele>655.4</ele>
        <time>2024-09-15T09:24:45Z</time>
      </trkpt>
      <trkpt lat="45.78635" lon="1.85458">
        <ele>655.2</ele>
        <time>2024-09-15T09:24:46Z</time>
      </trkpt>
      <trkpt lat="45.78636" lon="1.8546">
        <ele>655.2</ele>
        <time>2024-09-15T09:24:47Z</time>
      </trkpt>
      <trkpt lat="45.78638" lon="1.85463">
        <ele>655.2</ele>
        <time>2024-09-15T09:24:48Z</time>
      </trkpt>
      <trkpt lat="45.78639" lon="1.85464">
        <ele>655.2</ele>
        <time>2024-09-15T09:24:49Z</time>
      </trkpt>
      <trkpt lat="45.78641" lon="1.85466">
        <ele>655.2</ele>
        <time>2024-09-15T09:24:50Z</time>
      </trkpt>
      <trkpt lat="45.78642" lon="1.85468">
        <ele>655.2</ele>
        <time>2024-09-15T09:24:51Z</time>
      </trkpt>
      <trkpt lat="45.78643" lon="1.85469">
        <ele>655.2</ele>
        <time>2024-09-15T09:24:52Z</time>
      </trkpt>
      <trkpt lat="45.78643" lon="1.85471">
        <ele>655.2</ele>
        <time>2024-09-15T09:24:53Z</time>
      </trkpt>
      <trkpt lat="45.78644" lon="1.85473">
        <ele>655.2</ele>
        <time>2024-09-15T09:24:54Z</time>
      </trkpt>
      <trkpt lat="45.78645" lon="1.85474">
        <ele>655.2</ele>
        <time>2024-09-15T09:24:55Z</time>
      </trkpt>
      <trkpt lat="45.78646" lon="1.85474">
        <ele>655.2</ele>
        <time>2024-09-15T09:24:56Z</time>
      </trkpt>
      <trkpt lat="45.78646" lon="1.85474">
        <ele>655.2</ele>
        <time>2024-09-15T09:24:58Z</time>
      </trkpt>
      <trkpt lat="45.78647" lon="1.85476">
        <ele>655.2</ele>
        <time>2024-09-15T09:25:00Z</time>
      </trkpt>
      <trkpt lat="45.78647" lon="1.85477">
        <ele>655.2</ele>
        <time>2024-09-15T09:25:01Z</time>
      </trkpt>
      <trkpt lat="45.78647" lon="1.85478">
        <ele>655.2</ele>
        <time>2024-09-15T09:25:02Z</time>
      </trkpt>
      <trkpt lat="45.78647" lon="1.85478">
        <ele>655.2</ele>
        <time>2024-09-15T09:25:03Z</time>
      </trkpt>
      <trkpt lat="45.78647" lon="1.85479">
        <ele>655.2</ele>
        <time>2024-09-15T09:25:04Z</time>
      </trkpt>
      <trkpt lat="45.78647" lon="1.8548">
        <ele>655.2</ele>
        <time>2024-09-15T09:25:05Z</time>
      </trkpt>
      <trkpt lat="45.78646" lon="1.8548">
        <ele>655.2</ele>
        <time>2024-09-15T09:25:06Z</time>
      </trkpt>
      <trkpt lat="45.78646" lon="1.85482">
        <ele>655.2</ele>
        <time>2024-09-15T09:25:07Z</time>
      </trkpt>
      <trkpt lat="45.78647" lon="1.85483">
        <ele>655.2</ele>
        <time>2024-09-15T09:25:08Z</time>
      </trkpt>
      <trkpt lat="45.78647" lon="1.85484">
        <ele>655.2</ele>
        <time>2024-09-15T09:25:09Z</time>
      </trkpt>
      <trkpt lat="45.78647" lon="1.85485">
        <ele>655.2</ele>
        <time>2024-09-15T09:25:10Z</time>
      </trkpt>
      <trkpt lat="45.78647" lon="1.85485">
        <ele>655</ele>
        <time>2024-09-15T09:25:11Z</time>
      </trkpt>
      <trkpt lat="45.78648" lon="1.85487">
        <ele>655</ele>
        <time>2024-09-15T09:25:12Z</time>
      </trkpt>
      <trkpt lat="45.78648" lon="1.8549">
        <ele>655</ele>
        <time>2024-09-15T09:25:15Z</time>
      </trkpt>
      <trkpt lat="45.78648" lon="1.8549">
        <ele>655</ele>
        <time>2024-09-15T09:25:16Z</time>
      </trkpt>
      <trkpt lat="45.78648" lon="1.8549">
        <ele>655</ele>
        <time>2024-09-15T09:25:17Z</time>
      </trkpt>
      <trkpt lat="45.78648" lon="1.8549">
        <ele>655.2</ele>
        <time>2024-09-15T09:25:19Z</time>
      </trkpt>
      <trkpt lat="45.78648" lon="1.85495">
        <ele>655.6</ele>
        <time>2024-09-15T09:25:40Z</time>
      </trkpt>
      <trkpt lat="45.78648" lon="1.85504">
        <ele>655.6</ele>
        <time>2024-09-15T09:25:43Z</time>
      </trkpt>
      <trkpt lat="45.78648" lon="1.85507">
        <ele>655.6</ele>
        <time>2024-09-15T09:25:44Z</time>
      </trkpt>
      <trkpt lat="45.78647" lon="1.85527">
        <ele>656</ele>
        <time>2024-09-15T09:25:49Z</time>
      </trkpt>
      <trkpt lat="45.78647" lon="1.85532">
        <ele>656</ele>
        <time>2024-09-15T09:25:50Z</time>
      </trkpt>
      <trkpt lat="45.78646" lon="1.85542">
        <ele>655.8</ele>
        <time>2024-09-15T09:25:52Z</time>
      </trkpt>
      <trkpt lat="45.78647" lon="1.8555">
        <ele>655.6</ele>
        <time>2024-09-15T09:25:54Z</time>
      </trkpt>
      <trkpt lat="45.78647" lon="1.85558">
        <ele>655.4</ele>
        <time>2024-09-15T09:25:56Z</time>
      </trkpt>
      <trkpt lat="45.78646" lon="1.85565">
        <ele>655.4</ele>
        <time>2024-09-15T09:25:58Z</time>
      </trkpt>
      <trkpt lat="45.78646" lon="1.85569">
        <ele>655.4</ele>
        <time>2024-09-15T09:25:59Z</time>
      </trkpt>
      <trkpt lat="45.78644" lon="1.85572">
        <ele>655.2</ele>
        <time>2024-09-15T09:26:00Z</time>
      </trkpt>
      <trkpt lat="45.78644" lon="1.85575">
        <ele>655.2</ele>
        <time>2024-09-15T09:26:01Z</time>
      </trkpt>
      <trkpt lat="45.78643" lon="1.8558">
        <ele>655.2</ele>
        <time>2024-09-15T09:26:02Z</time>
      </trkpt>
      <trkpt lat="45.78642" lon="1.85584">
        <ele>655.2</ele>
        <time>2024-09-15T09:26:03Z</time>
      </trkpt>
      <trkpt lat="45.78642" lon="1.85591">
        <ele>655.2</ele>
        <time>2024-09-15T09:26:04Z</time>
      </trkpt>
      <trkpt lat="45.78643" lon="1.85598">
        <ele>655.2</ele>
        <time>2024-09-15T09:26:05Z</time>
      </trkpt>
      <trkpt lat="45.78644" lon="1.85603">
        <ele>655.2</ele>
        <time>2024-09-15T09:26:06Z</time>
      </trkpt>
      <trkpt lat="45.78644" lon="1.85606">
        <ele>655.4</ele>
        <time>2024-09-15T09:26:07Z</time>
      </trkpt>
      <trkpt lat="45.78642" lon="1.8561">
        <ele>655.4</ele>
        <time>2024-09-15T09:26:08Z</time>
      </trkpt>
      <trkpt lat="45.78639" lon="1.85614">
        <ele>655.4</ele>
        <time>2024-09-15T09:26:09Z</time>
      </trkpt>
      <trkpt lat="45.78636" lon="1.85617">
        <ele>655.4</ele>
        <time>2024-09-15T09:26:10Z</time>
      </trkpt>
      <trkpt lat="45.78635" lon="1.8562">
        <ele>655.6</ele>
        <time>2024-09-15T09:26:11Z</time>
      </trkpt>
      <trkpt lat="45.78634" lon="1.85623">
        <ele>655.8</ele>
        <time>2024-09-15T09:26:12Z</time>
      </trkpt>
      <trkpt lat="45.78635" lon="1.85629">
        <ele>655.8</ele>
        <time>2024-09-15T09:26:13Z</time>
      </trkpt>
      <trkpt lat="45.78636" lon="1.85633">
        <ele>655.8</ele>
        <time>2024-09-15T09:26:14Z</time>
      </trkpt>
      <trkpt lat="45.78637" lon="1.8564">
        <ele>655.8</ele>
        <time>2024-09-15T09:26:15Z</time>
      </trkpt>
      <trkpt lat="45.78637" lon="1.85645">
        <ele>655.8</ele>
        <time>2024-09-15T09:26:16Z</time>
      </trkpt>
      <trkpt lat="45.78636" lon="1.85656">
        <ele>655.8</ele>
        <time>2024-09-15T09:26:18Z</time>
      </trkpt>
      <trkpt lat="45.78633" lon="1.8566">
        <ele>655.8</ele>
        <time>2024-09-15T09:26:19Z</time>
      </trkpt>
      <trkpt lat="45.78632" lon="1.85663">
        <ele>655.8</ele>
        <time>2024-09-15T09:26:20Z</time>
      </trkpt>
      <trkpt lat="45.78632" lon="1.85667">
        <ele>655.8</ele>
        <time>2024-09-15T09:26:21Z</time>
      </trkpt>
      <trkpt lat="45.7863" lon="1.85671">
        <ele>655.8</ele>
        <time>2024-09-15T09:26:22Z</time>
      </trkpt>
      <trkpt lat="45.78622" lon="1.85698">
        <ele>655.6</ele>
        <time>2024-09-15T09:26:28Z</time>
      </trkpt>
      <trkpt lat="45.7862" lon="1.85722">
        <ele>655.4</ele>
        <time>2024-09-15T09:26:34Z</time>
      </trkpt>
      <trkpt lat="45.78618" lon="1.85726">
        <ele>655.4</ele>
        <time>2024-09-15T09:26:35Z</time>
      </trkpt>
      <trkpt lat="45.78618" lon="1.85729">
        <ele>655.4</ele>
        <time>2024-09-15T09:26:36Z</time>
      </trkpt>
      <trkpt lat="45.78617" lon="1.85731">
        <ele>655.4</ele>
        <time>2024-09-15T09:26:37Z</time>
      </trkpt>
      <trkpt lat="45.78617" lon="1.85733">
        <ele>655.2</ele>
        <time>2024-09-15T09:26:38Z</time>
      </trkpt>
      <trkpt lat="45.78616" lon="1.85736">
        <ele>655.2</ele>
        <time>2024-09-15T09:26:39Z</time>
      </trkpt>
      <trkpt lat="45.78616" lon="1.85738">
        <ele>655.4</ele>
        <time>2024-09-15T09:26:40Z</time>
      </trkpt>
      <trkpt lat="45.78615" lon="1.8574">
        <ele>655.4</ele>
        <time>2024-09-15T09:26:41Z</time>
      </trkpt>
      <trkpt lat="45.78614" lon="1.85743">
        <ele>655.6</ele>
        <time>2024-09-15T09:26:42Z</time>
      </trkpt>
      <trkpt lat="45.78613" lon="1.85745">
        <ele>655.6</ele>
        <time>2024-09-15T09:26:43Z</time>
      </trkpt>
      <trkpt lat="45.78613" lon="1.85747">
        <ele>655.4</ele>
        <time>2024-09-15T09:26:44Z</time>
      </trkpt>
      <trkpt lat="45.78612" lon="1.85749">
        <ele>655.4</ele>
        <time>2024-09-15T09:26:45Z</time>
      </trkpt>
      <trkpt lat="45.78612" lon="1.85751">
        <ele>655.4</ele>
        <time>2024-09-15T09:26:46Z</time>
      </trkpt>
      <trkpt lat="45.78611" lon="1.85753">
        <ele>655.4</ele>
        <time>2024-09-15T09:26:47Z</time>
      </trkpt>
      <trkpt lat="45.7861" lon="1.85755">
        <ele>655.4</ele>
        <time>2024-09-15T09:26:48Z</time>
      </trkpt>
      <trkpt lat="45.78609" lon="1.85756">
        <ele>655.2</ele>
        <time>2024-09-15T09:26:49Z</time>
      </trkpt>
      <trkpt lat="45.78605" lon="1.85762">
        <ele>655</ele>
        <time>2024-09-15T09:26:51Z</time>
      </trkpt>
      <trkpt lat="45.78592" lon="1.85774">
        <ele>654.6</ele>
        <time>2024-09-15T09:26:55Z</time>
      </trkpt>
      <trkpt lat="45.78591" lon="1.85776">
        <ele>654.6</ele>
        <time>2024-09-15T09:26:56Z</time>
      </trkpt>
      <trkpt lat="45.7859" lon="1.85777">
        <ele>654.4</ele>
        <time>2024-09-15T09:26:57Z</time>
      </trkpt>
      <trkpt lat="45.78587" lon="1.8578">
        <ele>654.4</ele>
        <time>2024-09-15T09:26:58Z</time>
      </trkpt>
      <trkpt lat="45.78585" lon="1.85783">
        <ele>654.4</ele>
        <time>2024-09-15T09:26:59Z</time>
      </trkpt>
      <trkpt lat="45.78582" lon="1.85785">
        <ele>654.2</ele>
        <time>2024-09-15T09:27:00Z</time>
      </trkpt>
      <trkpt lat="45.78573" lon="1.85791">
        <ele>654.2</ele>
        <time>2024-09-15T09:27:03Z</time>
      </trkpt>
      <trkpt lat="45.78557" lon="1.85803">
        <ele>654.2</ele>
        <time>2024-09-15T09:27:07Z</time>
      </trkpt>
      <trkpt lat="45.78555" lon="1.85803">
        <ele>654.2</ele>
        <time>2024-09-15T09:27:08Z</time>
      </trkpt>
      <trkpt lat="45.7855" lon="1.85803">
        <ele>654.2</ele>
        <time>2024-09-15T09:27:09Z</time>
      </trkpt>
      <trkpt lat="45.78544" lon="1.85803">
        <ele>654.2</ele>
        <time>2024-09-15T09:27:10Z</time>
      </trkpt>
      <trkpt lat="45.78542" lon="1.85802">
        <ele>654.2</ele>
        <time>2024-09-15T09:27:11Z</time>
      </trkpt>
      <trkpt lat="45.78538" lon="1.858">
        <ele>654.2</ele>
        <time>2024-09-15T09:27:12Z</time>
      </trkpt>
      <trkpt lat="45.78531" lon="1.85796">
        <ele>654.4</ele>
        <time>2024-09-15T09:27:14Z</time>
      </trkpt>
      <trkpt lat="45.78529" lon="1.85793">
        <ele>654.4</ele>
        <time>2024-09-15T09:27:15Z</time>
      </trkpt>
      <trkpt lat="45.78527" lon="1.8579">
        <ele>654.6</ele>
        <time>2024-09-15T09:27:16Z</time>
      </trkpt>
      <trkpt lat="45.7852" lon="1.85789">
        <ele>654.6</ele>
        <time>2024-09-15T09:27:18Z</time>
      </trkpt>
      <trkpt lat="45.78515" lon="1.85791">
        <ele>654.8</ele>
        <time>2024-09-15T09:27:19Z</time>
      </trkpt>
      <trkpt lat="45.78511" lon="1.85789">
        <ele>654.8</ele>
        <time>2024-09-15T09:27:20Z</time>
      </trkpt>
      <trkpt lat="45.78508" lon="1.85786">
        <ele>654.8</ele>
        <time>2024-09-15T09:27:21Z</time>
      </trkpt>
      <trkpt lat="45.78502" lon="1.85781">
        <ele>654.8</ele>
        <time>2024-09-15T09:27:22Z</time>
      </trkpt>
      <trkpt lat="45.78499" lon="1.85777">
        <ele>654.8</ele>
        <time>2024-09-15T09:27:23Z</time>
      </trkpt>
      <trkpt lat="45.78496" lon="1.85774">
        <ele>654.8</ele>
        <time>2024-09-15T09:27:24Z</time>
      </trkpt>
      <trkpt lat="45.78492" lon="1.85772">
        <ele>655</ele>
        <time>2024-09-15T09:27:25Z</time>
      </trkpt>
      <trkpt lat="45.78488" lon="1.85772">
        <ele>655</ele>
        <time>2024-09-15T09:27:26Z</time>
      </trkpt>
      <trkpt lat="45.78484" lon="1.85772">
        <ele>655</ele>
        <time>2024-09-15T09:27:27Z</time>
      </trkpt>
      <trkpt lat="45.78482" lon="1.85771">
        <ele>655</ele>
        <time>2024-09-15T09:27:28Z</time>
      </trkpt>
      <trkpt lat="45.7848" lon="1.8577">
        <ele>655</ele>
        <time>2024-09-15T09:27:29Z</time>
      </trkpt>
      <trkpt lat="45.78478" lon="1.85769">
        <ele>655</ele>
        <time>2024-09-15T09:27:30Z</time>
      </trkpt>
      <trkpt lat="45.78475" lon="1.85768">
        <ele>654.8</ele>
        <time>2024-09-15T09:27:31Z</time>
      </trkpt>
      <trkpt lat="45.78471" lon="1.85768">
        <ele>654.8</ele>
        <time>2024-09-15T09:27:32Z</time>
      </trkpt>
      <trkpt lat="45.78469" lon="1.85769">
        <ele>654.8</ele>
        <time>2024-09-15T09:27:33Z</time>
      </trkpt>
      <trkpt lat="45.78465" lon="1.85772">
        <ele>654.8</ele>
        <time>2024-09-15T09:27:34Z</time>
      </trkpt>
      <trkpt lat="45.78462" lon="1.85774">
        <ele>654.8</ele>
        <time>2024-09-15T09:27:35Z</time>
      </trkpt>
      <trkpt lat="45.78459" lon="1.85777">
        <ele>654.8</ele>
        <time>2024-09-15T09:27:36Z</time>
      </trkpt>
      <trkpt lat="45.78453" lon="1.85782">
        <ele>654.6</ele>
        <time>2024-09-15T09:27:38Z</time>
      </trkpt>
      <trkpt lat="45.7844" lon="1.85791">
        <ele>654.6</ele>
        <time>2024-09-15T09:27:42Z</time>
      </trkpt>
      <trkpt lat="45.78432" lon="1.85793">
        <ele>654.6</ele>
        <time>2024-09-15T09:27:44Z</time>
      </trkpt>
      <trkpt lat="45.78429" lon="1.85794">
        <ele>654.6</ele>
        <time>2024-09-15T09:27:45Z</time>
      </trkpt>
      <trkpt lat="45.78427" lon="1.85795">
        <ele>654.6</ele>
        <time>2024-09-15T09:27:46Z</time>
      </trkpt>
      <trkpt lat="45.78424" lon="1.85796">
        <ele>654.6</ele>
        <time>2024-09-15T09:27:47Z</time>
      </trkpt>
      <trkpt lat="45.7842" lon="1.85799">
        <ele>654.6</ele>
        <time>2024-09-15T09:27:48Z</time>
      </trkpt>
      <trkpt lat="45.78416" lon="1.85803">
        <ele>654.8</ele>
        <time>2024-09-15T09:27:49Z</time>
      </trkpt>
      <trkpt lat="45.78408" lon="1.85809">
        <ele>655.2</ele>
        <time>2024-09-15T09:27:51Z</time>
      </trkpt>
      <trkpt lat="45.78405" lon="1.85813">
        <ele>655.4</ele>
        <time>2024-09-15T09:27:52Z</time>
      </trkpt>
      <trkpt lat="45.78396" lon="1.85822">
        <ele>655.8</ele>
        <time>2024-09-15T09:27:56Z</time>
      </trkpt>
      <trkpt lat="45.78393" lon="1.85826">
        <ele>656</ele>
        <time>2024-09-15T09:27:57Z</time>
      </trkpt>
      <trkpt lat="45.78383" lon="1.85834">
        <ele>656</ele>
        <time>2024-09-15T09:27:59Z</time>
      </trkpt>
      <trkpt lat="45.78381" lon="1.85836">
        <ele>656</ele>
        <time>2024-09-15T09:28:00Z</time>
      </trkpt>
      <trkpt lat="45.78378" lon="1.85837">
        <ele>656</ele>
        <time>2024-09-15T09:28:01Z</time>
      </trkpt>
      <trkpt lat="45.78376" lon="1.85837">
        <ele>656</ele>
        <time>2024-09-15T09:28:02Z</time>
      </trkpt>
      <trkpt lat="45.78374" lon="1.85837">
        <ele>656</ele>
        <time>2024-09-15T09:28:03Z</time>
      </trkpt>
      <trkpt lat="45.78373" lon="1.85837">
        <ele>656</ele>
        <time>2024-09-15T09:28:04Z</time>
      </trkpt>
      <trkpt lat="45.78372" lon="1.85837">
        <ele>656.2</ele>
        <time>2024-09-15T09:28:05Z</time>
      </trkpt>
      <trkpt lat="45.78372" lon="1.85837">
        <ele>656.2</ele>
        <time>2024-09-15T09:28:06Z</time>
      </trkpt>
      <trkpt lat="45.78371" lon="1.85837">
        <ele>656.2</ele>
        <time>2024-09-15T09:28:07Z</time>
      </trkpt>
      <trkpt lat="45.78371" lon="1.85837">
        <ele>656.4</ele>
        <time>2024-09-15T09:28:09Z</time>
      </trkpt>
      <trkpt lat="45.78368" lon="1.85843">
        <ele>655.8</ele>
        <time>2024-09-15T09:29:28Z</time>
      </trkpt>
      <trkpt lat="45.78368" lon="1.85843">
        <ele>656</ele>
        <time>2024-09-15T09:29:29Z</time>
      </trkpt>
      <trkpt lat="45.78367" lon="1.85846">
        <ele>656</ele>
        <time>2024-09-15T09:29:30Z</time>
      </trkpt>
      <trkpt lat="45.78366" lon="1.85849">
        <ele>656</ele>
        <time>2024-09-15T09:29:31Z</time>
      </trkpt>
      <trkpt lat="45.78364" lon="1.85857">
        <ele>656</ele>
        <time>2024-09-15T09:29:33Z</time>
      </trkpt>
      <trkpt lat="45.78363" lon="1.85865">
        <ele>656</ele>
        <time>2024-09-15T09:29:34Z</time>
      </trkpt>
      <trkpt lat="45.78363" lon="1.85865">
        <ele>656</ele>
        <time>2024-09-15T09:29:35Z</time>
      </trkpt>
      <trkpt lat="45.78364" lon="1.8587">
        <ele>656</ele>
        <time>2024-09-15T09:29:36Z</time>
      </trkpt>
      <trkpt lat="45.78364" lon="1.85871">
        <ele>656</ele>
        <time>2024-09-15T09:29:37Z</time>
      </trkpt>
      <trkpt lat="45.78365" lon="1.85872">
        <ele>656</ele>
        <time>2024-09-15T09:29:38Z</time>
      </trkpt>
      <trkpt lat="45.7837" lon="1.85876">
        <ele>656</ele>
        <time>2024-09-15T09:29:39Z</time>
      </trkpt>
      <trkpt lat="45.78378" lon="1.85884">
        <ele>655.6</ele>
        <time>2024-09-15T09:29:42Z</time>
      </trkpt>
      <trkpt lat="45.7838" lon="1.85886">
        <ele>655.4</ele>
        <time>2024-09-15T09:29:43Z</time>
      </trkpt>
      <trkpt lat="45.78383" lon="1.85889">
        <ele>655.2</ele>
        <time>2024-09-15T09:29:44Z</time>
      </trkpt>
      <trkpt lat="45.78385" lon="1.85891">
        <ele>655.2</ele>
        <time>2024-09-15T09:29:45Z</time>
      </trkpt>
      <trkpt lat="45.7839" lon="1.85895">
        <ele>655.2</ele>
        <time>2024-09-15T09:29:46Z</time>
      </trkpt>
      <trkpt lat="45.78392" lon="1.85899">
        <ele>655.2</ele>
        <time>2024-09-15T09:29:47Z</time>
      </trkpt>
      <trkpt lat="45.78393" lon="1.85906">
        <ele>655.4</ele>
        <time>2024-09-15T09:29:48Z</time>
      </trkpt>
      <trkpt lat="45.78392" lon="1.85909">
        <ele>655.4</ele>
        <time>2024-09-15T09:29:49Z</time>
      </trkpt>
      <trkpt lat="45.78392" lon="1.85909">
        <ele>655.6</ele>
        <time>2024-09-15T09:29:50Z</time>
      </trkpt>
      <trkpt lat="45.78392" lon="1.85911">
        <ele>655.8</ele>
        <time>2024-09-15T09:29:51Z</time>
      </trkpt>
      <trkpt lat="45.78392" lon="1.85918">
        <ele>655.8</ele>
        <time>2024-09-15T09:29:52Z</time>
      </trkpt>
      <trkpt lat="45.78394" lon="1.85925">
        <ele>656.4</ele>
        <time>2024-09-15T09:29:54Z</time>
      </trkpt>
      <trkpt lat="45.78394" lon="1.8593">
        <ele>656.8</ele>
        <time>2024-09-15T09:29:55Z</time>
      </trkpt>
      <trkpt lat="45.78395" lon="1.85933">
        <ele>657.2</ele>
        <time>2024-09-15T09:29:56Z</time>
      </trkpt>
      <trkpt lat="45.78395" lon="1.85936">
        <ele>657.6</ele>
        <time>2024-09-15T09:29:58Z</time>
      </trkpt>
      <trkpt lat="45.784" lon="1.85954">
        <ele>658.2</ele>
        <time>2024-09-15T09:30:01Z</time>
      </trkpt>
      <trkpt lat="45.78401" lon="1.85958">
        <ele>658.4</ele>
        <time>2024-09-15T09:30:02Z</time>
      </trkpt>
      <trkpt lat="45.78403" lon="1.85964">
        <ele>658.8</ele>
        <time>2024-09-15T09:30:04Z</time>
      </trkpt>
      <trkpt lat="45.78405" lon="1.85968">
        <ele>659</ele>
        <time>2024-09-15T09:30:05Z</time>
      </trkpt>
      <trkpt lat="45.78411" lon="1.85978">
        <ele>659</ele>
        <time>2024-09-15T09:30:06Z</time>
      </trkpt>
      <trkpt lat="45.78411" lon="1.8598">
        <ele>659</ele>
        <time>2024-09-15T09:30:07Z</time>
      </trkpt>
      <trkpt lat="45.78412" lon="1.85983">
        <ele>659</ele>
        <time>2024-09-15T09:30:08Z</time>
      </trkpt>
      <trkpt lat="45.78413" lon="1.85995">
        <ele>658.2</ele>
        <time>2024-09-15T09:30:09Z</time>
      </trkpt>
      <trkpt lat="45.78416" lon="1.86001">
        <ele>658</ele>
        <time>2024-09-15T09:30:10Z</time>
      </trkpt>
      <trkpt lat="45.78417" lon="1.86007">
        <ele>657.8</ele>
        <time>2024-09-15T09:30:11Z</time>
      </trkpt>
      <trkpt lat="45.78418" lon="1.86013">
        <ele>657.6</ele>
        <time>2024-09-15T09:30:12Z</time>
      </trkpt>
      <trkpt lat="45.7842" lon="1.86018">
        <ele>657.6</ele>
        <time>2024-09-15T09:30:13Z</time>
      </trkpt>
      <trkpt lat="45.78422" lon="1.86022">
        <ele>657.6</ele>
        <time>2024-09-15T09:30:14Z</time>
      </trkpt>
      <trkpt lat="45.78424" lon="1.86027">
        <ele>657.6</ele>
        <time>2024-09-15T09:30:15Z</time>
      </trkpt>
      <trkpt lat="45.78425" lon="1.8603">
        <ele>657.4</ele>
        <time>2024-09-15T09:30:16Z</time>
      </trkpt>
      <trkpt lat="45.78427" lon="1.86035">
        <ele>657.4</ele>
        <time>2024-09-15T09:30:17Z</time>
      </trkpt>
      <trkpt lat="45.78429" lon="1.8604">
        <ele>657.2</ele>
        <time>2024-09-15T09:30:18Z</time>
      </trkpt>
      <trkpt lat="45.78433" lon="1.86045">
        <ele>657.2</ele>
        <time>2024-09-15T09:30:19Z</time>
      </trkpt>
      <trkpt lat="45.78436" lon="1.86051">
        <ele>657.2</ele>
        <time>2024-09-15T09:30:20Z</time>
      </trkpt>
      <trkpt lat="45.78445" lon="1.86063">
        <ele>657.2</ele>
        <time>2024-09-15T09:30:23Z</time>
      </trkpt>
      <trkpt lat="45.78448" lon="1.86066">
        <ele>657.2</ele>
        <time>2024-09-15T09:30:24Z</time>
      </trkpt>
      <trkpt lat="45.78452" lon="1.8607">
        <ele>657.2</ele>
        <time>2024-09-15T09:30:25Z</time>
      </trkpt>
      <trkpt lat="45.78465" lon="1.86087">
        <ele>657.2</ele>
        <time>2024-09-15T09:30:31Z</time>
      </trkpt>
      <trkpt lat="45.78468" lon="1.86087">
        <ele>657.2</ele>
        <time>2024-09-15T09:30:32Z</time>
      </trkpt>
      <trkpt lat="45.78484" lon="1.86082">
        <ele>657.4</ele>
        <time>2024-09-15T09:30:36Z</time>
      </trkpt>
      <trkpt lat="45.78495" lon="1.86086">
        <ele>658</ele>
        <time>2024-09-15T09:30:39Z</time>
      </trkpt>
      <trkpt lat="45.785" lon="1.86087">
        <ele>658.2</ele>
        <time>2024-09-15T09:30:41Z</time>
      </trkpt>
      <trkpt lat="45.78504" lon="1.86088">
        <ele>658.2</ele>
        <time>2024-09-15T09:30:42Z</time>
      </trkpt>
      <trkpt lat="45.78506" lon="1.8609">
        <ele>658.4</ele>
        <time>2024-09-15T09:30:43Z</time>
      </trkpt>
      <trkpt lat="45.78509" lon="1.86091">
        <ele>658.6</ele>
        <time>2024-09-15T09:30:44Z</time>
      </trkpt>
      <trkpt lat="45.78516" lon="1.86096">
        <ele>659.4</ele>
        <time>2024-09-15T09:30:47Z</time>
      </trkpt>
      <trkpt lat="45.78516" lon="1.86096">
        <ele>659.6</ele>
        <time>2024-09-15T09:30:48Z</time>
      </trkpt>
      <trkpt lat="45.78519" lon="1.86098">
        <ele>659.6</ele>
        <time>2024-09-15T09:30:49Z</time>
      </trkpt>
      <trkpt lat="45.78524" lon="1.86101">
        <ele>660</ele>
        <time>2024-09-15T09:30:50Z</time>
      </trkpt>
      <trkpt lat="45.78524" lon="1.86101">
        <ele>660</ele>
        <time>2024-09-15T09:30:51Z</time>
      </trkpt>
      <trkpt lat="45.78531" lon="1.86108">
        <ele>660.4</ele>
        <time>2024-09-15T09:30:53Z</time>
      </trkpt>
      <trkpt lat="45.78533" lon="1.86111">
        <ele>660.6</ele>
        <time>2024-09-15T09:30:54Z</time>
      </trkpt>
      <trkpt lat="45.78536" lon="1.86114">
        <ele>660.8</ele>
        <time>2024-09-15T09:30:55Z</time>
      </trkpt>
      <trkpt lat="45.78536" lon="1.86114">
        <ele>660.8</ele>
        <time>2024-09-15T09:30:56Z</time>
      </trkpt>
      <trkpt lat="45.78538" lon="1.86117">
        <ele>661.2</ele>
        <time>2024-09-15T09:30:57Z</time>
      </trkpt>
      <trkpt lat="45.78542" lon="1.86125">
        <ele>661.2</ele>
        <time>2024-09-15T09:30:58Z</time>
      </trkpt>
      <trkpt lat="45.78543" lon="1.86129">
        <ele>661.4</ele>
        <time>2024-09-15T09:30:59Z</time>
      </trkpt>
      <trkpt lat="45.78543" lon="1.86132">
        <ele>661.4</ele>
        <time>2024-09-15T09:31:00Z</time>
      </trkpt>
      <trkpt lat="45.78544" lon="1.86135">
        <ele>661.6</ele>
        <time>2024-09-15T09:31:01Z</time>
      </trkpt>
      <trkpt lat="45.78545" lon="1.86138">
        <ele>661.6</ele>
        <time>2024-09-15T09:31:02Z</time>
      </trkpt>
      <trkpt lat="45.78546" lon="1.86141">
        <ele>661.8</ele>
        <time>2024-09-15T09:31:03Z</time>
      </trkpt>
      <trkpt lat="45.78548" lon="1.86145">
        <ele>662</ele>
        <time>2024-09-15T09:31:04Z</time>
      </trkpt>
      <trkpt lat="45.78549" lon="1.86148">
        <ele>662</ele>
        <time>2024-09-15T09:31:05Z</time>
      </trkpt>
      <trkpt lat="45.7855" lon="1.8615">
        <ele>662.2</ele>
        <time>2024-09-15T09:31:06Z</time>
      </trkpt>
      <trkpt lat="45.78553" lon="1.86154">
        <ele>662.2</ele>
        <time>2024-09-15T09:31:07Z</time>
      </trkpt>
      <trkpt lat="45.78557" lon="1.8616">
        <ele>662.4</ele>
        <time>2024-09-15T09:31:08Z</time>
      </trkpt>
      <trkpt lat="45.78558" lon="1.86165">
        <ele>662.4</ele>
        <time>2024-09-15T09:31:09Z</time>
      </trkpt>
      <trkpt lat="45.78558" lon="1.86168">
        <ele>662.4</ele>
        <time>2024-09-15T09:31:10Z</time>
      </trkpt>
      <trkpt lat="45.78557" lon="1.86171">
        <ele>662.2</ele>
        <time>2024-09-15T09:31:11Z</time>
      </trkpt>
      <trkpt lat="45.78556" lon="1.86175">
        <ele>662</ele>
        <time>2024-09-15T09:31:12Z</time>
      </trkpt>
      <trkpt lat="45.78554" lon="1.86179">
        <ele>661.8</ele>
        <time>2024-09-15T09:31:13Z</time>
      </trkpt>
      <trkpt lat="45.78555" lon="1.86181">
        <ele>661.8</ele>
        <time>2024-09-15T09:31:14Z</time>
      </trkpt>
      <trkpt lat="45.78556" lon="1.86184">
        <ele>661.8</ele>
        <time>2024-09-15T09:31:15Z</time>
      </trkpt>
      <trkpt lat="45.78558" lon="1.86186">
        <ele>661.6</ele>
        <time>2024-09-15T09:31:16Z</time>
      </trkpt>
      <trkpt lat="45.78559" lon="1.86188">
        <ele>661.6</ele>
        <time>2024-09-15T09:31:17Z</time>
      </trkpt>
      <trkpt lat="45.78562" lon="1.86197">
        <ele>661</ele>
        <time>2024-09-15T09:31:19Z</time>
      </trkpt>
      <trkpt lat="45.78565" lon="1.86205">
        <ele>660.4</ele>
        <time>2024-09-15T09:31:21Z</time>
      </trkpt>
      <trkpt lat="45.78566" lon="1.86209">
        <ele>660.2</ele>
        <time>2024-09-15T09:31:22Z</time>
      </trkpt>
      <trkpt lat="45.78568" lon="1.86213">
        <ele>660</ele>
        <time>2024-09-15T09:31:23Z</time>
      </trkpt>
      <trkpt lat="45.7857" lon="1.86217">
        <ele>659.8</ele>
        <time>2024-09-15T09:31:24Z</time>
      </trkpt>
      <trkpt lat="45.78571" lon="1.8622">
        <ele>659.4</ele>
        <time>2024-09-15T09:31:25Z</time>
      </trkpt>
      <trkpt lat="45.78573" lon="1.86222">
        <ele>659.4</ele>
        <time>2024-09-15T09:31:26Z</time>
      </trkpt>
      <trkpt lat="45.78574" lon="1.86225">
        <ele>659.2</ele>
        <time>2024-09-15T09:31:27Z</time>
      </trkpt>
      <trkpt lat="45.78577" lon="1.86229">
        <ele>659</ele>
        <time>2024-09-15T09:31:29Z</time>
      </trkpt>
      <trkpt lat="45.78579" lon="1.86232">
        <ele>659</ele>
        <time>2024-09-15T09:31:30Z</time>
      </trkpt>
      <trkpt lat="45.78581" lon="1.86234">
        <ele>659</ele>
        <time>2024-09-15T09:31:31Z</time>
      </trkpt>
      <trkpt lat="45.78583" lon="1.86237">
        <ele>659.2</ele>
        <time>2024-09-15T09:31:32Z</time>
      </trkpt>
      <trkpt lat="45.78591" lon="1.86247">
        <ele>659.4</ele>
        <time>2024-09-15T09:31:35Z</time>
      </trkpt>
      <trkpt lat="45.78591" lon="1.8625">
        <ele>659.6</ele>
        <time>2024-09-15T09:31:36Z</time>
      </trkpt>
      <trkpt lat="45.78591" lon="1.86252">
        <ele>659.8</ele>
        <time>2024-09-15T09:31:37Z</time>
      </trkpt>
      <trkpt lat="45.78592" lon="1.86255">
        <ele>660.4</ele>
        <time>2024-09-15T09:31:38Z</time>
      </trkpt>
      <trkpt lat="45.78595" lon="1.86258">
        <ele>660.6</ele>
        <time>2024-09-15T09:31:39Z</time>
      </trkpt>
      <trkpt lat="45.78599" lon="1.86262">
        <ele>661</ele>
        <time>2024-09-15T09:31:41Z</time>
      </trkpt>
      <trkpt lat="45.78601" lon="1.86265">
        <ele>661.2</ele>
        <time>2024-09-15T09:31:42Z</time>
      </trkpt>
      <trkpt lat="45.78604" lon="1.86267">
        <ele>661.4</ele>
        <time>2024-09-15T09:31:43Z</time>
      </trkpt>
      <trkpt lat="45.78612" lon="1.86272">
        <ele>662</ele>
        <time>2024-09-15T09:31:47Z</time>
      </trkpt>
      <trkpt lat="45.78618" lon="1.8627">
        <ele>662.2</ele>
        <time>2024-09-15T09:31:48Z</time>
      </trkpt>
      <trkpt lat="45.78621" lon="1.86269">
        <ele>662.2</ele>
        <time>2024-09-15T09:31:49Z</time>
      </trkpt>
      <trkpt lat="45.78625" lon="1.8627">
        <ele>662.2</ele>
        <time>2024-09-15T09:31:50Z</time>
      </trkpt>
      <trkpt lat="45.78631" lon="1.86267">
        <ele>662.4</ele>
        <time>2024-09-15T09:31:52Z</time>
      </trkpt>
      <trkpt lat="45.78639" lon="1.86267">
        <ele>662.4</ele>
        <time>2024-09-15T09:31:55Z</time>
      </trkpt>
      <trkpt lat="45.78649" lon="1.86263">
        <ele>662.4</ele>
        <time>2024-09-15T09:31:59Z</time>
      </trkpt>
      <trkpt lat="45.78651" lon="1.86263">
        <ele>662.4</ele>
        <time>2024-09-15T09:32:00Z</time>
      </trkpt>
      <trkpt lat="45.78651" lon="1.86263">
        <ele>662.4</ele>
        <time>2024-09-15T09:32:01Z</time>
      </trkpt>
      <trkpt lat="45.78651" lon="1.86263">
        <ele>662.4</ele>
        <time>2024-09-15T09:32:02Z</time>
      </trkpt>
      <trkpt lat="45.78651" lon="1.86263">
        <ele>662.4</ele>
        <time>2024-09-15T09:32:03Z</time>
      </trkpt>
      <trkpt lat="45.78653" lon="1.86263">
        <ele>662.6</ele>
        <time>2024-09-15T09:32:19Z</time>
      </trkpt>
      <trkpt lat="45.78662" lon="1.86263">
        <ele>662.6</ele>
        <time>2024-09-15T09:32:22Z</time>
      </trkpt>
      <trkpt lat="45.78672" lon="1.86264">
        <ele>663</ele>
        <time>2024-09-15T09:32:26Z</time>
      </trkpt>
      <trkpt lat="45.78675" lon="1.86264">
        <ele>663</ele>
        <time>2024-09-15T09:32:27Z</time>
      </trkpt>
      <trkpt lat="45.78678" lon="1.86264">
        <ele>663</ele>
        <time>2024-09-15T09:32:28Z</time>
      </trkpt>
      <trkpt lat="45.78685" lon="1.86265">
        <ele>663</ele>
        <time>2024-09-15T09:32:30Z</time>
      </trkpt>
      <trkpt lat="45.787" lon="1.86267">
        <ele>662.8</ele>
        <time>2024-09-15T09:32:34Z</time>
      </trkpt>
      <trkpt lat="45.78704" lon="1.86267">
        <ele>662.8</ele>
        <time>2024-09-15T09:32:35Z</time>
      </trkpt>
      <trkpt lat="45.78711" lon="1.86269">
        <ele>662.8</ele>
        <time>2024-09-15T09:32:37Z</time>
      </trkpt>
      <trkpt lat="45.7872" lon="1.86273">
        <ele>662.8</ele>
        <time>2024-09-15T09:32:40Z</time>
      </trkpt>
      <trkpt lat="45.78722" lon="1.86276">
        <ele>662.8</ele>
        <time>2024-09-15T09:32:41Z</time>
      </trkpt>
      <trkpt lat="45.78725" lon="1.86277">
        <ele>662.8</ele>
        <time>2024-09-15T09:32:42Z</time>
      </trkpt>
      <trkpt lat="45.78729" lon="1.86279">
        <ele>663</ele>
        <time>2024-09-15T09:32:43Z</time>
      </trkpt>
      <trkpt lat="45.78733" lon="1.8628">
        <ele>663</ele>
        <time>2024-09-15T09:32:44Z</time>
      </trkpt>
      <trkpt lat="45.78748" lon="1.8629">
        <ele>663.4</ele>
        <time>2024-09-15T09:32:49Z</time>
      </trkpt>
      <trkpt lat="45.78752" lon="1.86292">
        <ele>663.4</ele>
        <time>2024-09-15T09:32:50Z</time>
      </trkpt>
      <trkpt lat="45.78755" lon="1.86293">
        <ele>663.4</ele>
        <time>2024-09-15T09:32:51Z</time>
      </trkpt>
      <trkpt lat="45.78759" lon="1.86295">
        <ele>663.6</ele>
        <time>2024-09-15T09:32:52Z</time>
      </trkpt>
      <trkpt lat="45.78763" lon="1.86296">
        <ele>663.6</ele>
        <time>2024-09-15T09:32:53Z</time>
      </trkpt>
      <trkpt lat="45.78792" lon="1.86306">
        <ele>664.4</ele>
        <time>2024-09-15T09:33:00Z</time>
      </trkpt>
      <trkpt lat="45.78799" lon="1.8631">
        <ele>665</ele>
        <time>2024-09-15T09:33:02Z</time>
      </trkpt>
      <trkpt lat="45.78824" lon="1.8632">
        <ele>665.6</ele>
        <time>2024-09-15T09:33:08Z</time>
      </trkpt>
      <trkpt lat="45.7885" lon="1.86328">
        <ele>666</ele>
        <time>2024-09-15T09:33:15Z</time>
      </trkpt>
      <trkpt lat="45.78857" lon="1.86331">
        <ele>666.2</ele>
        <time>2024-09-15T09:33:17Z</time>
      </trkpt>
      <trkpt lat="45.78864" lon="1.86332">
        <ele>666.6</ele>
        <time>2024-09-15T09:33:19Z</time>
      </trkpt>
      <trkpt lat="45.78867" lon="1.86332">
        <ele>666.6</ele>
        <time>2024-09-15T09:33:20Z</time>
      </trkpt>
      <trkpt lat="45.78871" lon="1.86331">
        <ele>666.8</ele>
        <time>2024-09-15T09:33:21Z</time>
      </trkpt>
      <trkpt lat="45.78874" lon="1.86329">
        <ele>666.8</ele>
        <time>2024-09-15T09:33:22Z</time>
      </trkpt>
      <trkpt lat="45.78877" lon="1.86327">
        <ele>667</ele>
        <time>2024-09-15T09:33:23Z</time>
      </trkpt>
      <trkpt lat="45.7888" lon="1.86324">
        <ele>667</ele>
        <time>2024-09-15T09:33:24Z</time>
      </trkpt>
      <trkpt lat="45.78882" lon="1.86321">
        <ele>667.2</ele>
        <time>2024-09-15T09:33:25Z</time>
      </trkpt>
      <trkpt lat="45.78885" lon="1.86319">
        <ele>667.2</ele>
        <time>2024-09-15T09:33:26Z</time>
      </trkpt>
      <trkpt lat="45.78887" lon="1.86317">
        <ele>667.4</ele>
        <time>2024-09-15T09:33:27Z</time>
      </trkpt>
      <trkpt lat="45.78891" lon="1.86314">
        <ele>667.8</ele>
        <time>2024-09-15T09:33:28Z</time>
      </trkpt>
      <trkpt lat="45.78895" lon="1.86311">
        <ele>668</ele>
        <time>2024-09-15T09:33:29Z</time>
      </trkpt>
      <trkpt lat="45.78897" lon="1.86309">
        <ele>668.2</ele>
        <time>2024-09-15T09:33:30Z</time>
      </trkpt>
      <trkpt lat="45.78899" lon="1.86307">
        <ele>668.4</ele>
        <time>2024-09-15T09:33:31Z</time>
      </trkpt>
      <trkpt lat="45.78901" lon="1.86305">
        <ele>668.8</ele>
        <time>2024-09-15T09:33:32Z</time>
      </trkpt>
      <trkpt lat="45.78902" lon="1.86303">
        <ele>668.8</ele>
        <time>2024-09-15T09:33:33Z</time>
      </trkpt>
      <trkpt lat="45.78903" lon="1.86302">
        <ele>669</ele>
        <time>2024-09-15T09:33:34Z</time>
      </trkpt>
      <trkpt lat="45.78904" lon="1.86301">
        <ele>669</ele>
        <time>2024-09-15T09:33:35Z</time>
      </trkpt>
      <trkpt lat="45.78905" lon="1.863">
        <ele>669</ele>
        <time>2024-09-15T09:33:36Z</time>
      </trkpt>
      <trkpt lat="45.78906" lon="1.86299">
        <ele>669.4</ele>
        <time>2024-09-15T09:33:37Z</time>
      </trkpt>
      <trkpt lat="45.78906" lon="1.86298">
        <ele>669.4</ele>
        <time>2024-09-15T09:33:38Z</time>
      </trkpt>
      <trkpt lat="45.78906" lon="1.86298">
        <ele>669.4</ele>
        <time>2024-09-15T09:33:39Z</time>
      </trkpt>
      <trkpt lat="45.78906" lon="1.86298">
        <ele>669.6</ele>
        <time>2024-09-15T09:33:40Z</time>
      </trkpt>
      <trkpt lat="45.78906" lon="1.86298">
        <ele>669.6</ele>
        <time>2024-09-15T09:33:41Z</time>
      </trkpt>
      <trkpt lat="45.78907" lon="1.86296">
        <ele>669.8</ele>
        <time>2024-09-15T09:35:35Z</time>
      </trkpt>
      <trkpt lat="45.78911" lon="1.86289">
        <ele>669.6</ele>
        <time>2024-09-15T09:35:38Z</time>
      </trkpt>
      <trkpt lat="45.78916" lon="1.86283">
        <ele>669.8</ele>
        <time>2024-09-15T09:35:41Z</time>
      </trkpt>
      <trkpt lat="45.78917" lon="1.8628">
        <ele>670</ele>
        <time>2024-09-15T09:35:42Z</time>
      </trkpt>
      <trkpt lat="45.78921" lon="1.86274">
        <ele>670.2</ele>
        <time>2024-09-15T09:35:45Z</time>
      </trkpt>
      <trkpt lat="45.78922" lon="1.86272">
        <ele>670.2</ele>
        <time>2024-09-15T09:35:46Z</time>
      </trkpt>
      <trkpt lat="45.78924" lon="1.86266">
        <ele>671.2</ele>
        <time>2024-09-15T09:35:49Z</time>
      </trkpt>
      <trkpt lat="45.78924" lon="1.86264">
        <ele>671.2</ele>
        <time>2024-09-15T09:35:50Z</time>
      </trkpt>
      <trkpt lat="45.78925" lon="1.86262">
        <ele>672</ele>
        <time>2024-09-15T09:35:51Z</time>
      </trkpt>
      <trkpt lat="45.78925" lon="1.86261">
        <ele>672.2</ele>
        <time>2024-09-15T09:35:52Z</time>
      </trkpt>
      <trkpt lat="45.78926" lon="1.86259">
        <ele>672.6</ele>
        <time>2024-09-15T09:35:53Z</time>
      </trkpt>
      <trkpt lat="45.78927" lon="1.86257">
        <ele>673</ele>
        <time>2024-09-15T09:35:54Z</time>
      </trkpt>
      <trkpt lat="45.78928" lon="1.86254">
        <ele>673.2</ele>
        <time>2024-09-15T09:35:55Z</time>
      </trkpt>
      <trkpt lat="45.78929" lon="1.86252">
        <ele>673.6</ele>
        <time>2024-09-15T09:35:56Z</time>
      </trkpt>
      <trkpt lat="45.78929" lon="1.86249">
        <ele>673.8</ele>
        <time>2024-09-15T09:35:57Z</time>
      </trkpt>
      <trkpt lat="45.78929" lon="1.86247">
        <ele>674</ele>
        <time>2024-09-15T09:35:58Z</time>
      </trkpt>
      <trkpt lat="45.7893" lon="1.86245">
        <ele>674.2</ele>
        <time>2024-09-15T09:35:59Z</time>
      </trkpt>
      <trkpt lat="45.78931" lon="1.86242">
        <ele>674.2</ele>
        <time>2024-09-15T09:36:00Z</time>
      </trkpt>
      <trkpt lat="45.78932" lon="1.86239">
        <ele>674.2</ele>
        <time>2024-09-15T09:36:01Z</time>
      </trkpt>
      <trkpt lat="45.78933" lon="1.86236">
        <ele>674.4</ele>
        <time>2024-09-15T09:36:02Z</time>
      </trkpt>
      <trkpt lat="45.78933" lon="1.86232">
        <ele>674.4</ele>
        <time>2024-09-15T09:36:03Z</time>
      </trkpt>
      <trkpt lat="45.78932" lon="1.86229">
        <ele>674.6</ele>
        <time>2024-09-15T09:36:04Z</time>
      </trkpt>
      <trkpt lat="45.78931" lon="1.86226">
        <ele>674.6</ele>
        <time>2024-09-15T09:36:05Z</time>
      </trkpt>
      <trkpt lat="45.78931" lon="1.86224">
        <ele>675.2</ele>
        <time>2024-09-15T09:36:06Z</time>
      </trkpt>
      <trkpt lat="45.7893" lon="1.86222">
        <ele>676</ele>
        <time>2024-09-15T09:36:07Z</time>
      </trkpt>
      <trkpt lat="45.78931" lon="1.86219">
        <ele>676.4</ele>
        <time>2024-09-15T09:36:08Z</time>
      </trkpt>
      <trkpt lat="45.78931" lon="1.86217">
        <ele>677</ele>
        <time>2024-09-15T09:36:09Z</time>
      </trkpt>
      <trkpt lat="45.7893" lon="1.86213">
        <ele>677.4</ele>
        <time>2024-09-15T09:36:10Z</time>
      </trkpt>
      <trkpt lat="45.78931" lon="1.86211">
        <ele>677.6</ele>
        <time>2024-09-15T09:36:11Z</time>
      </trkpt>
      <trkpt lat="45.78931" lon="1.86209">
        <ele>677.8</ele>
        <time>2024-09-15T09:36:12Z</time>
      </trkpt>
      <trkpt lat="45.7893" lon="1.86206">
        <ele>678.2</ele>
        <time>2024-09-15T09:36:13Z</time>
      </trkpt>
      <trkpt lat="45.7893" lon="1.86204">
        <ele>678.4</ele>
        <time>2024-09-15T09:36:14Z</time>
      </trkpt>
      <trkpt lat="45.7893" lon="1.86201">
        <ele>679</ele>
        <time>2024-09-15T09:36:15Z</time>
      </trkpt>
      <trkpt lat="45.78931" lon="1.86199">
        <ele>679</ele>
        <time>2024-09-15T09:36:16Z</time>
      </trkpt>
      <trkpt lat="45.78932" lon="1.86198">
        <ele>679.2</ele>
        <time>2024-09-15T09:36:17Z</time>
      </trkpt>
      <trkpt lat="45.78933" lon="1.86197">
        <ele>679.4</ele>
        <time>2024-09-15T09:36:18Z</time>
      </trkpt>
      <trkpt lat="45.78933" lon="1.86195">
        <ele>679.6</ele>
        <time>2024-09-15T09:36:19Z</time>
      </trkpt>
      <trkpt lat="45.78933" lon="1.86195">
        <ele>680</ele>
        <time>2024-09-15T09:36:20Z</time>
      </trkpt>
      <trkpt lat="45.78933" lon="1.86194">
        <ele>680</ele>
        <time>2024-09-15T09:36:21Z</time>
      </trkpt>
      <trkpt lat="45.78933" lon="1.86193">
        <ele>680</ele>
        <time>2024-09-15T09:36:22Z</time>
      </trkpt>
      <trkpt lat="45.78933" lon="1.86191">
        <ele>680</ele>
        <time>2024-09-15T09:36:23Z</time>
      </trkpt>
      <trkpt lat="45.78933" lon="1.86189">
        <ele>680.4</ele>
        <time>2024-09-15T09:36:24Z</time>
      </trkpt>
      <trkpt lat="45.78932" lon="1.86187">
        <ele>680.6</ele>
        <time>2024-09-15T09:36:25Z</time>
      </trkpt>
      <trkpt lat="45.78932" lon="1.86184">
        <ele>680.6</ele>
        <time>2024-09-15T09:36:26Z</time>
      </trkpt>
      <trkpt lat="45.78932" lon="1.86181">
        <ele>680.8</ele>
        <time>2024-09-15T09:36:27Z</time>
      </trkpt>
      <trkpt lat="45.78931" lon="1.86178">
        <ele>680.8</ele>
        <time>2024-09-15T09:36:28Z</time>
      </trkpt>
      <trkpt lat="45.78931" lon="1.86175">
        <ele>680.8</ele>
        <time>2024-09-15T09:36:29Z</time>
      </trkpt>
      <trkpt lat="45.7893" lon="1.86171">
        <ele>680.4</ele>
        <time>2024-09-15T09:36:30Z</time>
      </trkpt>
      <trkpt lat="45.7893" lon="1.86167">
        <ele>680.4</ele>
        <time>2024-09-15T09:36:31Z</time>
      </trkpt>
      <trkpt lat="45.78931" lon="1.86162">
        <ele>680.4</ele>
        <time>2024-09-15T09:36:32Z</time>
      </trkpt>
      <trkpt lat="45.78932" lon="1.86157">
        <ele>680.2</ele>
        <time>2024-09-15T09:36:33Z</time>
      </trkpt>
      <trkpt lat="45.78933" lon="1.86153">
        <ele>680.2</ele>
        <time>2024-09-15T09:36:34Z</time>
      </trkpt>
      <trkpt lat="45.78934" lon="1.86148">
        <ele>680.2</ele>
        <time>2024-09-15T09:36:35Z</time>
      </trkpt>
      <trkpt lat="45.78935" lon="1.86141">
        <ele>680</ele>
        <time>2024-09-15T09:36:36Z</time>
      </trkpt>
      <trkpt lat="45.78936" lon="1.86135">
        <ele>680</ele>
        <time>2024-09-15T09:36:37Z</time>
      </trkpt>
      <trkpt lat="45.78936" lon="1.8613">
        <ele>679.8</ele>
        <time>2024-09-15T09:36:38Z</time>
      </trkpt>
      <trkpt lat="45.78936" lon="1.86123">
        <ele>679.4</ele>
        <time>2024-09-15T09:36:39Z</time>
      </trkpt>
      <trkpt lat="45.78938" lon="1.86116">
        <ele>679.2</ele>
        <time>2024-09-15T09:36:40Z</time>
      </trkpt>
      <trkpt lat="45.78938" lon="1.86109">
        <ele>678.8</ele>
        <time>2024-09-15T09:36:41Z</time>
      </trkpt>
      <trkpt lat="45.7894" lon="1.86104">
        <ele>678.6</ele>
        <time>2024-09-15T09:36:42Z</time>
      </trkpt>
      <trkpt lat="45.78942" lon="1.86099">
        <ele>677.4</ele>
        <time>2024-09-15T09:36:43Z</time>
      </trkpt>
      <trkpt lat="45.78946" lon="1.86095">
        <ele>676.4</ele>
        <time>2024-09-15T09:36:44Z</time>
      </trkpt>
      <trkpt lat="45.78949" lon="1.86093">
        <ele>676</ele>
        <time>2024-09-15T09:36:45Z</time>
      </trkpt>
      <trkpt lat="45.78953" lon="1.86092">
        <ele>675.6</ele>
        <time>2024-09-15T09:36:46Z</time>
      </trkpt>
      <trkpt lat="45.78958" lon="1.86093">
        <ele>675.6</ele>
        <time>2024-09-15T09:36:47Z</time>
      </trkpt>
      <trkpt lat="45.78963" lon="1.86093">
        <ele>675</ele>
        <time>2024-09-15T09:36:48Z</time>
      </trkpt>
      <trkpt lat="45.7897" lon="1.86092">
        <ele>674.6</ele>
        <time>2024-09-15T09:36:49Z</time>
      </trkpt>
      <trkpt lat="45.78978" lon="1.86091">
        <ele>673.8</ele>
        <time>2024-09-15T09:36:50Z</time>
      </trkpt>
      <trkpt lat="45.78988" lon="1.86089">
        <ele>673.6</ele>
        <time>2024-09-15T09:36:51Z</time>
      </trkpt>
      <trkpt lat="45.79005" lon="1.86082">
        <ele>673.2</ele>
        <time>2024-09-15T09:36:53Z</time>
      </trkpt>
      <trkpt lat="45.7901" lon="1.86079">
        <ele>672.4</ele>
        <time>2024-09-15T09:36:54Z</time>
      </trkpt>
      <trkpt lat="45.79012" lon="1.86078">
        <ele>672</ele>
        <time>2024-09-15T09:36:55Z</time>
      </trkpt>
      <trkpt lat="45.79014" lon="1.86078">
        <ele>672</ele>
        <time>2024-09-15T09:36:56Z</time>
      </trkpt>
      <trkpt lat="45.79014" lon="1.86078">
        <ele>672</ele>
        <time>2024-09-15T09:36:57Z</time>
      </trkpt>
      <trkpt lat="45.79014" lon="1.86078">
        <ele>671.8</ele>
        <time>2024-09-15T09:36:58Z</time>
      </trkpt>
      <trkpt lat="45.79014" lon="1.86078">
        <ele>671.8</ele>
        <time>2024-09-15T09:36:59Z</time>
      </trkpt>
      <trkpt lat="45.79014" lon="1.86078">
        <ele>671.8</ele>
        <time>2024-09-15T09:37:00Z</time>
      </trkpt>
      <trkpt lat="45.79017" lon="1.86077">
        <ele>671.2</ele>
        <time>2024-09-15T09:37:31Z</time>
      </trkpt>
      <trkpt lat="45.79023" lon="1.86075">
        <ele>671.6</ele>
        <time>2024-09-15T09:37:34Z</time>
      </trkpt>
      <trkpt lat="45.79025" lon="1.86072">
        <ele>672</ele>
        <time>2024-09-15T09:37:36Z</time>
      </trkpt>
      <trkpt lat="45.79027" lon="1.8607">
        <ele>672</ele>
        <time>2024-09-15T09:37:37Z</time>
      </trkpt>
      <trkpt lat="45.79029" lon="1.86065">
        <ele>672.2</ele>
        <time>2024-09-15T09:37:38Z</time>
      </trkpt>
      <trkpt lat="45.79032" lon="1.86061">
        <ele>672.2</ele>
        <time>2024-09-15T09:37:39Z</time>
      </trkpt>
      <trkpt lat="45.79034" lon="1.86056">
        <ele>672.4</ele>
        <time>2024-09-15T09:37:40Z</time>
      </trkpt>
      <trkpt lat="45.79037" lon="1.86052">
        <ele>672.4</ele>
        <time>2024-09-15T09:37:41Z</time>
      </trkpt>
      <trkpt lat="45.79041" lon="1.86043">
        <ele>672.4</ele>
        <time>2024-09-15T09:37:43Z</time>
      </trkpt>
      <trkpt lat="45.79045" lon="1.86038">
        <ele>672.4</ele>
        <time>2024-09-15T09:37:44Z</time>
      </trkpt>
      <trkpt lat="45.79049" lon="1.86032">
        <ele>672.4</ele>
        <time>2024-09-15T09:37:45Z</time>
      </trkpt>
      <trkpt lat="45.79051" lon="1.86026">
        <ele>672.4</ele>
        <time>2024-09-15T09:37:46Z</time>
      </trkpt>
      <trkpt lat="45.79061" lon="1.86011">
        <ele>671.2</ele>
        <time>2024-09-15T09:37:49Z</time>
      </trkpt>
      <trkpt lat="45.79065" lon="1.86007">
        <ele>671</ele>
        <time>2024-09-15T09:37:50Z</time>
      </trkpt>
      <trkpt lat="45.79068" lon="1.86003">
        <ele>669.6</ele>
        <time>2024-09-15T09:37:51Z</time>
      </trkpt>
      <trkpt lat="45.79072" lon="1.86">
        <ele>669.2</ele>
        <time>2024-09-15T09:37:52Z</time>
      </trkpt>
      <trkpt lat="45.79076" lon="1.85997">
        <ele>668</ele>
        <time>2024-09-15T09:37:53Z</time>
      </trkpt>
      <trkpt lat="45.79081" lon="1.85993">
        <ele>667.6</ele>
        <time>2024-09-15T09:37:54Z</time>
      </trkpt>
      <trkpt lat="45.79087" lon="1.85989">
        <ele>666.6</ele>
        <time>2024-09-15T09:37:55Z</time>
      </trkpt>
      <trkpt lat="45.79095" lon="1.85982">
        <ele>665.6</ele>
        <time>2024-09-15T09:37:57Z</time>
      </trkpt>
      <trkpt lat="45.79097" lon="1.85979">
        <ele>664.8</ele>
        <time>2024-09-15T09:37:58Z</time>
      </trkpt>
      <trkpt lat="45.79097" lon="1.85975">
        <ele>664.2</ele>
        <time>2024-09-15T09:37:59Z</time>
      </trkpt>
      <trkpt lat="45.79098" lon="1.8597">
        <ele>663.2</ele>
        <time>2024-09-15T09:38:00Z</time>
      </trkpt>
      <trkpt lat="45.79098" lon="1.85964">
        <ele>662.8</ele>
        <time>2024-09-15T09:38:01Z</time>
      </trkpt>
      <trkpt lat="45.79099" lon="1.85958">
        <ele>662.4</ele>
        <time>2024-09-15T09:38:02Z</time>
      </trkpt>
      <trkpt lat="45.79099" lon="1.85953">
        <ele>662.2</ele>
        <time>2024-09-15T09:38:03Z</time>
      </trkpt>
      <trkpt lat="45.79099" lon="1.85949">
        <ele>661.8</ele>
        <time>2024-09-15T09:38:04Z</time>
      </trkpt>
      <trkpt lat="45.79101" lon="1.85945">
        <ele>661.6</ele>
        <time>2024-09-15T09:38:05Z</time>
      </trkpt>
      <trkpt lat="45.79103" lon="1.8594">
        <ele>661.2</ele>
        <time>2024-09-15T09:38:06Z</time>
      </trkpt>
      <trkpt lat="45.79105" lon="1.85937">
        <ele>661</ele>
        <time>2024-09-15T09:38:07Z</time>
      </trkpt>
      <trkpt lat="45.79107" lon="1.85934">
        <ele>660.4</ele>
        <time>2024-09-15T09:38:08Z</time>
      </trkpt>
      <trkpt lat="45.79109" lon="1.85932">
        <ele>659.8</ele>
        <time>2024-09-15T09:38:09Z</time>
      </trkpt>
      <trkpt lat="45.79114" lon="1.8593">
        <ele>659.4</ele>
        <time>2024-09-15T09:38:10Z</time>
      </trkpt>
      <trkpt lat="45.79116" lon="1.85928">
        <ele>658</ele>
        <time>2024-09-15T09:38:11Z</time>
      </trkpt>
      <trkpt lat="45.79119" lon="1.85926">
        <ele>657.6</ele>
        <time>2024-09-15T09:38:12Z</time>
      </trkpt>
      <trkpt lat="45.7912" lon="1.85925">
        <ele>657</ele>
        <time>2024-09-15T09:38:13Z</time>
      </trkpt>
      <trkpt lat="45.79122" lon="1.85923">
        <ele>656.8</ele>
        <time>2024-09-15T09:38:14Z</time>
      </trkpt>
      <trkpt lat="45.79124" lon="1.85922">
        <ele>656.4</ele>
        <time>2024-09-15T09:38:15Z</time>
      </trkpt>
      <trkpt lat="45.79126" lon="1.8592">
        <ele>656.4</ele>
        <time>2024-09-15T09:38:16Z</time>
      </trkpt>
      <trkpt lat="45.79132" lon="1.85918">
        <ele>656.2</ele>
        <time>2024-09-15T09:38:18Z</time>
      </trkpt>
      <trkpt lat="45.79134" lon="1.85916">
        <ele>656.2</ele>
        <time>2024-09-15T09:38:19Z</time>
      </trkpt>
      <trkpt lat="45.79135" lon="1.85915">
        <ele>656.2</ele>
        <time>2024-09-15T09:38:20Z</time>
      </trkpt>
      <trkpt lat="45.79135" lon="1.85915">
        <ele>656.2</ele>
        <time>2024-09-15T09:38:21Z</time>
      </trkpt>
      <trkpt lat="45.79135" lon="1.85915">
        <ele>656.2</ele>
        <time>2024-09-15T09:38:22Z</time>
      </trkpt>
      <trkpt lat="45.79135" lon="1.85913">
        <ele>656.2</ele>
        <time>2024-09-15T09:38:23Z</time>
      </trkpt>
      <trkpt lat="45.79138" lon="1.85907">
        <ele>656.2</ele>
        <time>2024-09-15T09:38:25Z</time>
      </trkpt>
      <trkpt lat="45.79143" lon="1.85906">
        <ele>656.2</ele>
        <time>2024-09-15T09:38:27Z</time>
      </trkpt>
      <trkpt lat="45.79144" lon="1.85906">
        <ele>656.2</ele>
        <time>2024-09-15T09:38:28Z</time>
      </trkpt>
      <trkpt lat="45.79145" lon="1.85905">
        <ele>656.2</ele>
        <time>2024-09-15T09:38:29Z</time>
      </trkpt>
      <trkpt lat="45.79147" lon="1.85902">
        <ele>656</ele>
        <time>2024-09-15T09:38:30Z</time>
      </trkpt>
      <trkpt lat="45.79149" lon="1.85898">
        <ele>656</ele>
        <time>2024-09-15T09:38:31Z</time>
      </trkpt>
      <trkpt lat="45.79152" lon="1.85894">
        <ele>656</ele>
        <time>2024-09-15T09:38:32Z</time>
      </trkpt>
      <trkpt lat="45.79156" lon="1.85891">
        <ele>656</ele>
        <time>2024-09-15T09:38:33Z</time>
      </trkpt>
      <trkpt lat="45.79159" lon="1.85888">
        <ele>655.6</ele>
        <time>2024-09-15T09:38:34Z</time>
      </trkpt>
      <trkpt lat="45.79163" lon="1.85883">
        <ele>656</ele>
        <time>2024-09-15T09:38:36Z</time>
      </trkpt>
      <trkpt lat="45.79165" lon="1.85881">
        <ele>655.6</ele>
        <time>2024-09-15T09:38:37Z</time>
      </trkpt>
      <trkpt lat="45.79168" lon="1.85879">
        <ele>655.6</ele>
        <time>2024-09-15T09:38:38Z</time>
      </trkpt>
      <trkpt lat="45.79171" lon="1.85878">
        <ele>655.6</ele>
        <time>2024-09-15T09:38:39Z</time>
      </trkpt>
      <trkpt lat="45.79173" lon="1.85877">
        <ele>655.6</ele>
        <time>2024-09-15T09:38:40Z</time>
      </trkpt>
      <trkpt lat="45.79182" lon="1.85872">
        <ele>655.6</ele>
        <time>2024-09-15T09:38:43Z</time>
      </trkpt>
      <trkpt lat="45.79185" lon="1.85871">
        <ele>655.8</ele>
        <time>2024-09-15T09:38:44Z</time>
      </trkpt>
      <trkpt lat="45.79187" lon="1.85869">
        <ele>655.8</ele>
        <time>2024-09-15T09:38:45Z</time>
      </trkpt>
      <trkpt lat="45.79189" lon="1.85867">
        <ele>655.8</ele>
        <time>2024-09-15T09:38:46Z</time>
      </trkpt>
      <trkpt lat="45.79192" lon="1.85865">
        <ele>655.8</ele>
        <time>2024-09-15T09:38:47Z</time>
      </trkpt>
      <trkpt lat="45.79194" lon="1.85862">
        <ele>655.8</ele>
        <time>2024-09-15T09:38:48Z</time>
      </trkpt>
      <trkpt lat="45.79197" lon="1.85858">
        <ele>655.8</ele>
        <time>2024-09-15T09:38:49Z</time>
      </trkpt>
      <trkpt lat="45.79201" lon="1.85856">
        <ele>656</ele>
        <time>2024-09-15T09:38:50Z</time>
      </trkpt>
      <trkpt lat="45.79204" lon="1.85854">
        <ele>656</ele>
        <time>2024-09-15T09:38:51Z</time>
      </trkpt>
      <trkpt lat="45.79208" lon="1.85851">
        <ele>656.2</ele>
        <time>2024-09-15T09:38:52Z</time>
      </trkpt>
      <trkpt lat="45.79211" lon="1.85849">
        <ele>656.4</ele>
        <time>2024-09-15T09:38:53Z</time>
      </trkpt>
      <trkpt lat="45.79214" lon="1.85847">
        <ele>656.6</ele>
        <time>2024-09-15T09:38:54Z</time>
      </trkpt>
      <trkpt lat="45.79217" lon="1.85845">
        <ele>656.6</ele>
        <time>2024-09-15T09:38:55Z</time>
      </trkpt>
      <trkpt lat="45.79221" lon="1.85842">
        <ele>656.6</ele>
        <time>2024-09-15T09:38:56Z</time>
      </trkpt>
      <trkpt lat="45.7923" lon="1.85835">
        <ele>656.6</ele>
        <time>2024-09-15T09:38:58Z</time>
      </trkpt>
      <trkpt lat="45.79235" lon="1.85828">
        <ele>656.8</ele>
        <time>2024-09-15T09:39:00Z</time>
      </trkpt>
      <trkpt lat="45.79238" lon="1.85825">
        <ele>656.8</ele>
        <time>2024-09-15T09:39:01Z</time>
      </trkpt>
      <trkpt lat="45.79241" lon="1.85822">
        <ele>656.8</ele>
        <time>2024-09-15T09:39:02Z</time>
      </trkpt>
      <trkpt lat="45.79244" lon="1.85819">
        <ele>656.8</ele>
        <time>2024-09-15T09:39:03Z</time>
      </trkpt>
      <trkpt lat="45.79255" lon="1.85814">
        <ele>656.2</ele>
        <time>2024-09-15T09:39:07Z</time>
      </trkpt>
      <trkpt lat="45.79258" lon="1.85812">
        <ele>656</ele>
        <time>2024-09-15T09:39:08Z</time>
      </trkpt>
      <trkpt lat="45.79261" lon="1.85812">
        <ele>655.8</ele>
        <time>2024-09-15T09:39:09Z</time>
      </trkpt>
      <trkpt lat="45.7927" lon="1.85808">
        <ele>655.8</ele>
        <time>2024-09-15T09:39:12Z</time>
      </trkpt>
      <trkpt lat="45.79274" lon="1.85803">
        <ele>655.6</ele>
        <time>2024-09-15T09:39:14Z</time>
      </trkpt>
      <trkpt lat="45.79277" lon="1.858">
        <ele>655.6</ele>
        <time>2024-09-15T09:39:15Z</time>
      </trkpt>
      <trkpt lat="45.79281" lon="1.85799">
        <ele>655.6</ele>
        <time>2024-09-15T09:39:16Z</time>
      </trkpt>
      <trkpt lat="45.79284" lon="1.85796">
        <ele>655.6</ele>
        <time>2024-09-15T09:39:17Z</time>
      </trkpt>
      <trkpt lat="45.79287" lon="1.85793">
        <ele>655.8</ele>
        <time>2024-09-15T09:39:18Z</time>
      </trkpt>
      <trkpt lat="45.79294" lon="1.85789">
        <ele>655.8</ele>
        <time>2024-09-15T09:39:19Z</time>
      </trkpt>
      <trkpt lat="45.7931" lon="1.85777">
        <ele>656</ele>
        <time>2024-09-15T09:39:24Z</time>
      </trkpt>
      <trkpt lat="45.79311" lon="1.85776">
        <ele>656</ele>
        <time>2024-09-15T09:39:25Z</time>
      </trkpt>
      <trkpt lat="45.79314" lon="1.85775">
        <ele>656</ele>
        <time>2024-09-15T09:39:26Z</time>
      </trkpt>
      <trkpt lat="45.79317" lon="1.85774">
        <ele>656</ele>
        <time>2024-09-15T09:39:27Z</time>
      </trkpt>
      <trkpt lat="45.79325" lon="1.85769">
        <ele>656</ele>
        <time>2024-09-15T09:39:29Z</time>
      </trkpt>
      <trkpt lat="45.79327" lon="1.85766">
        <ele>655.8</ele>
        <time>2024-09-15T09:39:30Z</time>
      </trkpt>
      <trkpt lat="45.79329" lon="1.85763">
        <ele>655.8</ele>
        <time>2024-09-15T09:39:31Z</time>
      </trkpt>
      <trkpt lat="45.7933" lon="1.85762">
        <ele>655.6</ele>
        <time>2024-09-15T09:39:32Z</time>
      </trkpt>
      <trkpt lat="45.79328" lon="1.85761">
        <ele>655.4</ele>
        <time>2024-09-15T09:39:33Z</time>
      </trkpt>
      <trkpt lat="45.79329" lon="1.85758">
        <ele>655.4</ele>
        <time>2024-09-15T09:39:34Z</time>
      </trkpt>
      <trkpt lat="45.7933" lon="1.85755">
        <ele>655.4</ele>
        <time>2024-09-15T09:39:35Z</time>
      </trkpt>
      <trkpt lat="45.79331" lon="1.85752">
        <ele>655.2</ele>
        <time>2024-09-15T09:39:36Z</time>
      </trkpt>
      <trkpt lat="45.79335" lon="1.85745">
        <ele>655.2</ele>
        <time>2024-09-15T09:39:38Z</time>
      </trkpt>
      <trkpt lat="45.79337" lon="1.85741">
        <ele>655</ele>
        <time>2024-09-15T09:39:39Z</time>
      </trkpt>
      <trkpt lat="45.7934" lon="1.85738">
        <ele>655</ele>
        <time>2024-09-15T09:39:40Z</time>
      </trkpt>
      <trkpt lat="45.79342" lon="1.85732">
        <ele>655</ele>
        <time>2024-09-15T09:39:42Z</time>
      </trkpt>
      <trkpt lat="45.79343" lon="1.8573">
        <ele>655</ele>
        <time>2024-09-15T09:39:43Z</time>
      </trkpt>
      <trkpt lat="45.79353" lon="1.85717">
        <ele>655</ele>
        <time>2024-09-15T09:39:48Z</time>
      </trkpt>
      <trkpt lat="45.79353" lon="1.85716">
        <ele>655</ele>
        <time>2024-09-15T09:39:50Z</time>
      </trkpt>
      <trkpt lat="45.79355" lon="1.85715">
        <ele>655</ele>
        <time>2024-09-15T09:39:51Z</time>
      </trkpt>
      <trkpt lat="45.79356" lon="1.85714">
        <ele>655</ele>
        <time>2024-09-15T09:39:52Z</time>
      </trkpt>
      <trkpt lat="45.79356" lon="1.85713">
        <ele>655</ele>
        <time>2024-09-15T09:39:53Z</time>
      </trkpt>
      <trkpt lat="45.79363" lon="1.8571">
        <ele>655.2</ele>
        <time>2024-09-15T09:39:58Z</time>
      </trkpt>
      <trkpt lat="45.79363" lon="1.8571">
        <ele>655.2</ele>
        <time>2024-09-15T09:39:59Z</time>
      </trkpt>
      <trkpt lat="45.7937" lon="1.85706">
        <ele>655.2</ele>
        <time>2024-09-15T09:40:00Z</time>
      </trkpt>
      <trkpt lat="45.7938" lon="1.85698">
        <ele>655.2</ele>
        <time>2024-09-15T09:40:03Z</time>
      </trkpt>
      <trkpt lat="45.79384" lon="1.85693">
        <ele>655.2</ele>
        <time>2024-09-15T09:40:04Z</time>
      </trkpt>
      <trkpt lat="45.79389" lon="1.85683">
        <ele>655.4</ele>
        <time>2024-09-15T09:40:06Z</time>
      </trkpt>
      <trkpt lat="45.79389" lon="1.85681">
        <ele>655.4</ele>
        <time>2024-09-15T09:40:07Z</time>
      </trkpt>
      <trkpt lat="45.7939" lon="1.85679">
        <ele>655.4</ele>
        <time>2024-09-15T09:40:08Z</time>
      </trkpt>
      <trkpt lat="45.794" lon="1.85677">
        <ele>655.4</ele>
        <time>2024-09-15T09:40:10Z</time>
      </trkpt>
      <trkpt lat="45.79401" lon="1.85672">
        <ele>655.4</ele>
        <time>2024-09-15T09:40:11Z</time>
      </trkpt>
      <trkpt lat="45.79402" lon="1.8567">
        <ele>655.2</ele>
        <time>2024-09-15T09:40:12Z</time>
      </trkpt>
      <trkpt lat="45.794" lon="1.85668">
        <ele>655.2</ele>
        <time>2024-09-15T09:40:13Z</time>
      </trkpt>
      <trkpt lat="45.79399" lon="1.85665">
        <ele>655</ele>
        <time>2024-09-15T09:40:14Z</time>
      </trkpt>
      <trkpt lat="45.79398" lon="1.85662">
        <ele>655</ele>
        <time>2024-09-15T09:40:15Z</time>
      </trkpt>
      <trkpt lat="45.79398" lon="1.85661">
        <ele>654.8</ele>
        <time>2024-09-15T09:40:16Z</time>
      </trkpt>
      <trkpt lat="45.79399" lon="1.85659">
        <ele>654.6</ele>
        <time>2024-09-15T09:40:17Z</time>
      </trkpt>
      <trkpt lat="45.794" lon="1.85657">
        <ele>654.6</ele>
        <time>2024-09-15T09:40:18Z</time>
      </trkpt>
      <trkpt lat="45.79401" lon="1.85654">
        <ele>654.4</ele>
        <time>2024-09-15T09:40:19Z</time>
      </trkpt>
      <trkpt lat="45.79402" lon="1.85651">
        <ele>654.4</ele>
        <time>2024-09-15T09:40:20Z</time>
      </trkpt>
      <trkpt lat="45.79404" lon="1.85649">
        <ele>654.4</ele>
        <time>2024-09-15T09:40:21Z</time>
      </trkpt>
      <trkpt lat="45.79406" lon="1.85647">
        <ele>654.4</ele>
        <time>2024-09-15T09:40:22Z</time>
      </trkpt>
      <trkpt lat="45.79408" lon="1.85645">
        <ele>654.4</ele>
        <time>2024-09-15T09:40:23Z</time>
      </trkpt>
      <trkpt lat="45.7941" lon="1.85643">
        <ele>654.4</ele>
        <time>2024-09-15T09:40:24Z</time>
      </trkpt>
      <trkpt lat="45.79412" lon="1.85641">
        <ele>654.2</ele>
        <time>2024-09-15T09:40:25Z</time>
      </trkpt>
      <trkpt lat="45.79417" lon="1.85635">
        <ele>654.4</ele>
        <time>2024-09-15T09:40:28Z</time>
      </trkpt>
      <trkpt lat="45.79418" lon="1.85633">
        <ele>654.4</ele>
        <time>2024-09-15T09:40:29Z</time>
      </trkpt>
      <trkpt lat="45.7942" lon="1.85632">
        <ele>654.4</ele>
        <time>2024-09-15T09:40:30Z</time>
      </trkpt>
      <trkpt lat="45.79421" lon="1.85632">
        <ele>654.6</ele>
        <time>2024-09-15T09:40:31Z</time>
      </trkpt>
      <trkpt lat="45.79422" lon="1.85632">
        <ele>654.6</ele>
        <time>2024-09-15T09:40:32Z</time>
      </trkpt>
      <trkpt lat="45.79424" lon="1.85631">
        <ele>654.6</ele>
        <time>2024-09-15T09:40:33Z</time>
      </trkpt>
      <trkpt lat="45.79426" lon="1.8563">
        <ele>654.6</ele>
        <time>2024-09-15T09:40:34Z</time>
      </trkpt>
      <trkpt lat="45.79432" lon="1.85628">
        <ele>655</ele>
        <time>2024-09-15T09:40:37Z</time>
      </trkpt>
      <trkpt lat="45.79434" lon="1.85626">
        <ele>655</ele>
        <time>2024-09-15T09:40:38Z</time>
      </trkpt>
      <trkpt lat="45.79438" lon="1.85626">
        <ele>655</ele>
        <time>2024-09-15T09:40:40Z</time>
      </trkpt>
      <trkpt lat="45.79439" lon="1.85626">
        <ele>655</ele>
        <time>2024-09-15T09:40:41Z</time>
      </trkpt>
      <trkpt lat="45.79441" lon="1.85627">
        <ele>655</ele>
        <time>2024-09-15T09:40:42Z</time>
      </trkpt>
      <trkpt lat="45.79443" lon="1.85627">
        <ele>655</ele>
        <time>2024-09-15T09:40:43Z</time>
      </trkpt>
      <trkpt lat="45.79444" lon="1.85628">
        <ele>655</ele>
        <time>2024-09-15T09:40:44Z</time>
      </trkpt>
      <trkpt lat="45.7946" lon="1.85635">
        <ele>654.6</ele>
        <time>2024-09-15T09:40:51Z</time>
      </trkpt>
      <trkpt lat="45.79461" lon="1.85636">
        <ele>654.4</ele>
        <time>2024-09-15T09:40:52Z</time>
      </trkpt>
      <trkpt lat="45.79473" lon="1.85644">
        <ele>654.4</ele>
        <time>2024-09-15T09:40:57Z</time>
      </trkpt>
      <trkpt lat="45.79483" lon="1.85664">
        <ele>654.4</ele>
        <time>2024-09-15T09:41:03Z</time>
      </trkpt>
      <trkpt lat="45.79483" lon="1.85667">
        <ele>654.4</ele>
        <time>2024-09-15T09:41:04Z</time>
      </trkpt>
      <trkpt lat="45.79483" lon="1.8567">
        <ele>654.4</ele>
        <time>2024-09-15T09:41:05Z</time>
      </trkpt>
      <trkpt lat="45.79484" lon="1.85673">
        <ele>654.2</ele>
        <time>2024-09-15T09:41:06Z</time>
      </trkpt>
      <trkpt lat="45.79484" lon="1.8568">
        <ele>654</ele>
        <time>2024-09-15T09:41:08Z</time>
      </trkpt>
      <trkpt lat="45.79483" lon="1.85683">
        <ele>654</ele>
        <time>2024-09-15T09:41:09Z</time>
      </trkpt>
      <trkpt lat="45.7948" lon="1.85688">
        <ele>654</ele>
        <time>2024-09-15T09:41:11Z</time>
      </trkpt>
      <trkpt lat="45.79478" lon="1.85689">
        <ele>654</ele>
        <time>2024-09-15T09:41:12Z</time>
      </trkpt>
      <trkpt lat="45.79476" lon="1.85691">
        <ele>654</ele>
        <time>2024-09-15T09:41:13Z</time>
      </trkpt>
      <trkpt lat="45.79474" lon="1.85693">
        <ele>654</ele>
        <time>2024-09-15T09:41:14Z</time>
      </trkpt>
      <trkpt lat="45.79472" lon="1.85695">
        <ele>654.2</ele>
        <time>2024-09-15T09:41:15Z</time>
      </trkpt>
      <trkpt lat="45.7947" lon="1.85697">
        <ele>654.2</ele>
        <time>2024-09-15T09:41:16Z</time>
      </trkpt>
      <trkpt lat="45.79468" lon="1.857">
        <ele>654.6</ele>
        <time>2024-09-15T09:41:17Z</time>
      </trkpt>
      <trkpt lat="45.79454" lon="1.85721">
        <ele>655</ele>
        <time>2024-09-15T09:41:24Z</time>
      </trkpt>
      <trkpt lat="45.79437" lon="1.85738">
        <ele>655</ele>
        <time>2024-09-15T09:41:31Z</time>
      </trkpt>
      <trkpt lat="45.79436" lon="1.85739">
        <ele>655.4</ele>
        <time>2024-09-15T09:41:32Z</time>
      </trkpt>
      <trkpt lat="45.79434" lon="1.85741">
        <ele>655.4</ele>
        <time>2024-09-15T09:41:33Z</time>
      </trkpt>
      <trkpt lat="45.79432" lon="1.85743">
        <ele>655.4</ele>
        <time>2024-09-15T09:41:34Z</time>
      </trkpt>
      <trkpt lat="45.79431" lon="1.85744">
        <ele>655.4</ele>
        <time>2024-09-15T09:41:35Z</time>
      </trkpt>
      <trkpt lat="45.79427" lon="1.85748">
        <ele>655.6</ele>
        <time>2024-09-15T09:41:37Z</time>
      </trkpt>
      <trkpt lat="45.79425" lon="1.85751">
        <ele>655.6</ele>
        <time>2024-09-15T09:41:38Z</time>
      </trkpt>
      <trkpt lat="45.79424" lon="1.85753">
        <ele>655.8</ele>
        <time>2024-09-15T09:41:39Z</time>
      </trkpt>
      <trkpt lat="45.79422" lon="1.85755">
        <ele>655.8</ele>
        <time>2024-09-15T09:41:40Z</time>
      </trkpt>
      <trkpt lat="45.79416" lon="1.85763">
        <ele>655.8</ele>
        <time>2024-09-15T09:41:43Z</time>
      </trkpt>
      <trkpt lat="45.79416" lon="1.85766">
        <ele>655.8</ele>
        <time>2024-09-15T09:41:44Z</time>
      </trkpt>
      <trkpt lat="45.79415" lon="1.85769">
        <ele>656.2</ele>
        <time>2024-09-15T09:41:45Z</time>
      </trkpt>
      <trkpt lat="45.79414" lon="1.85773">
        <ele>656.2</ele>
        <time>2024-09-15T09:41:46Z</time>
      </trkpt>
      <trkpt lat="45.79413" lon="1.85776">
        <ele>656.2</ele>
        <time>2024-09-15T09:41:47Z</time>
      </trkpt>
      <trkpt lat="45.79412" lon="1.8578">
        <ele>656.2</ele>
        <time>2024-09-15T09:41:48Z</time>
      </trkpt>
      <trkpt lat="45.79412" lon="1.85783">
        <ele>656.4</ele>
        <time>2024-09-15T09:41:49Z</time>
      </trkpt>
      <trkpt lat="45.79411" lon="1.85785">
        <ele>656.4</ele>
        <time>2024-09-15T09:41:50Z</time>
      </trkpt>
      <trkpt lat="45.79411" lon="1.85789">
        <ele>656.4</ele>
        <time>2024-09-15T09:41:51Z</time>
      </trkpt>
      <trkpt lat="45.79411" lon="1.85794">
        <ele>656.4</ele>
        <time>2024-09-15T09:41:52Z</time>
      </trkpt>
      <trkpt lat="45.79411" lon="1.85798">
        <ele>656.4</ele>
        <time>2024-09-15T09:41:53Z</time>
      </trkpt>
      <trkpt lat="45.7941" lon="1.85804">
        <ele>656.4</ele>
        <time>2024-09-15T09:41:54Z</time>
      </trkpt>
      <trkpt lat="45.79411" lon="1.85807">
        <ele>656.6</ele>
        <time>2024-09-15T09:41:55Z</time>
      </trkpt>
      <trkpt lat="45.79411" lon="1.8581">
        <ele>656.8</ele>
        <time>2024-09-15T09:41:56Z</time>
      </trkpt>
      <trkpt lat="45.79413" lon="1.85814">
        <ele>657</ele>
        <time>2024-09-15T09:41:57Z</time>
      </trkpt>
      <trkpt lat="45.79415" lon="1.85818">
        <ele>657</ele>
        <time>2024-09-15T09:41:58Z</time>
      </trkpt>
      <trkpt lat="45.79416" lon="1.85822">
        <ele>657.2</ele>
        <time>2024-09-15T09:41:59Z</time>
      </trkpt>
      <trkpt lat="45.79417" lon="1.85826">
        <ele>657.2</ele>
        <time>2024-09-15T09:42:00Z</time>
      </trkpt>
      <trkpt lat="45.7942" lon="1.85841">
        <ele>657.2</ele>
        <time>2024-09-15T09:42:02Z</time>
      </trkpt>
      <trkpt lat="45.79421" lon="1.8585">
        <ele>657.2</ele>
        <time>2024-09-15T09:42:03Z</time>
      </trkpt>
      <trkpt lat="45.79422" lon="1.85854">
        <ele>657.2</ele>
        <time>2024-09-15T09:42:04Z</time>
      </trkpt>
      <trkpt lat="45.7942" lon="1.85873">
        <ele>657</ele>
        <time>2024-09-15T09:42:08Z</time>
      </trkpt>
      <trkpt lat="45.7942" lon="1.85879">
        <ele>656.8</ele>
        <time>2024-09-15T09:42:09Z</time>
      </trkpt>
      <trkpt lat="45.79421" lon="1.85886">
        <ele>656.8</ele>
        <time>2024-09-15T09:42:11Z</time>
      </trkpt>
      <trkpt lat="45.79422" lon="1.8589">
        <ele>656.8</ele>
        <time>2024-09-15T09:42:12Z</time>
      </trkpt>
      <trkpt lat="45.79421" lon="1.85896">
        <ele>656.6</ele>
        <time>2024-09-15T09:42:13Z</time>
      </trkpt>
      <trkpt lat="45.7942" lon="1.85902">
        <ele>656.6</ele>
        <time>2024-09-15T09:42:14Z</time>
      </trkpt>
      <trkpt lat="45.79416" lon="1.85913">
        <ele>656.2</ele>
        <time>2024-09-15T09:42:17Z</time>
      </trkpt>
      <trkpt lat="45.79415" lon="1.85914">
        <ele>656</ele>
        <time>2024-09-15T09:42:18Z</time>
      </trkpt>
      <trkpt lat="45.79412" lon="1.85918">
        <ele>656</ele>
        <time>2024-09-15T09:42:19Z</time>
      </trkpt>
      <trkpt lat="45.79412" lon="1.8592">
        <ele>656</ele>
        <time>2024-09-15T09:42:20Z</time>
      </trkpt>
      <trkpt lat="45.79413" lon="1.85924">
        <ele>656</ele>
        <time>2024-09-15T09:42:21Z</time>
      </trkpt>
      <trkpt lat="45.79413" lon="1.85928">
        <ele>656</ele>
        <time>2024-09-15T09:42:22Z</time>
      </trkpt>
      <trkpt lat="45.79411" lon="1.85934">
        <ele>656</ele>
        <time>2024-09-15T09:42:23Z</time>
      </trkpt>
      <trkpt lat="45.7941" lon="1.85938">
        <ele>656</ele>
        <time>2024-09-15T09:42:24Z</time>
      </trkpt>
      <trkpt lat="45.79409" lon="1.85941">
        <ele>656</ele>
        <time>2024-09-15T09:42:25Z</time>
      </trkpt>
      <trkpt lat="45.79409" lon="1.85942">
        <ele>655.8</ele>
        <time>2024-09-15T09:42:26Z</time>
      </trkpt>
      <trkpt lat="45.79409" lon="1.85945">
        <ele>655.8</ele>
        <time>2024-09-15T09:42:27Z</time>
      </trkpt>
      <trkpt lat="45.7941" lon="1.85947">
        <ele>655.8</ele>
        <time>2024-09-15T09:42:28Z</time>
      </trkpt>
      <trkpt lat="45.79411" lon="1.85951">
        <ele>655.8</ele>
        <time>2024-09-15T09:42:29Z</time>
      </trkpt>
      <trkpt lat="45.79411" lon="1.85956">
        <ele>655.4</ele>
        <time>2024-09-15T09:42:30Z</time>
      </trkpt>
      <trkpt lat="45.79408" lon="1.85964">
        <ele>654.8</ele>
        <time>2024-09-15T09:42:32Z</time>
      </trkpt>
      <trkpt lat="45.79407" lon="1.85967">
        <ele>654.4</ele>
        <time>2024-09-15T09:42:33Z</time>
      </trkpt>
      <trkpt lat="45.79406" lon="1.85969">
        <ele>654.4</ele>
        <time>2024-09-15T09:42:34Z</time>
      </trkpt>
      <trkpt lat="45.79406" lon="1.85972">
        <ele>654.2</ele>
        <time>2024-09-15T09:42:35Z</time>
      </trkpt>
      <trkpt lat="45.79405" lon="1.85977">
        <ele>654.2</ele>
        <time>2024-09-15T09:42:36Z</time>
      </trkpt>
      <trkpt lat="45.79402" lon="1.85982">
        <ele>654</ele>
        <time>2024-09-15T09:42:37Z</time>
      </trkpt>
      <trkpt lat="45.79396" lon="1.8599">
        <ele>653.6</ele>
        <time>2024-09-15T09:42:40Z</time>
      </trkpt>
      <trkpt lat="45.79395" lon="1.85991">
        <ele>653.4</ele>
        <time>2024-09-15T09:42:41Z</time>
      </trkpt>
      <trkpt lat="45.79394" lon="1.85992">
        <ele>653.4</ele>
        <time>2024-09-15T09:42:42Z</time>
      </trkpt>
      <trkpt lat="45.79392" lon="1.85994">
        <ele>653.2</ele>
        <time>2024-09-15T09:42:43Z</time>
      </trkpt>
      <trkpt lat="45.79388" lon="1.85996">
        <ele>653.2</ele>
        <time>2024-09-15T09:42:44Z</time>
      </trkpt>
      <trkpt lat="45.79384" lon="1.85999">
        <ele>653</ele>
        <time>2024-09-15T09:42:45Z</time>
      </trkpt>
      <trkpt lat="45.79379" lon="1.86002">
        <ele>653</ele>
        <time>2024-09-15T09:42:47Z</time>
      </trkpt>
      <trkpt lat="45.79377" lon="1.86001">
        <ele>653</ele>
        <time>2024-09-15T09:42:48Z</time>
      </trkpt>
      <trkpt lat="45.79376" lon="1.86001">
        <ele>653</ele>
        <time>2024-09-15T09:42:49Z</time>
      </trkpt>
      <trkpt lat="45.79374" lon="1.85998">
        <ele>653</ele>
        <time>2024-09-15T09:42:50Z</time>
      </trkpt>
      <trkpt lat="45.79372" lon="1.85997">
        <ele>653</ele>
        <time>2024-09-15T09:42:51Z</time>
      </trkpt>
      <trkpt lat="45.7937" lon="1.85997">
        <ele>653</ele>
        <time>2024-09-15T09:42:52Z</time>
      </trkpt>
      <trkpt lat="45.79368" lon="1.85998">
        <ele>653</ele>
        <time>2024-09-15T09:42:53Z</time>
      </trkpt>
      <trkpt lat="45.79365" lon="1.86">
        <ele>653</ele>
        <time>2024-09-15T09:42:54Z</time>
      </trkpt>
      <trkpt lat="45.79363" lon="1.86001">
        <ele>653</ele>
        <time>2024-09-15T09:42:55Z</time>
      </trkpt>
      <trkpt lat="45.7936" lon="1.86002">
        <ele>653.2</ele>
        <time>2024-09-15T09:42:56Z</time>
      </trkpt>
      <trkpt lat="45.79358" lon="1.86002">
        <ele>653.4</ele>
        <time>2024-09-15T09:42:57Z</time>
      </trkpt>
      <trkpt lat="45.79357" lon="1.86002">
        <ele>653.8</ele>
        <time>2024-09-15T09:42:58Z</time>
      </trkpt>
      <trkpt lat="45.79355" lon="1.86001">
        <ele>653.8</ele>
        <time>2024-09-15T09:42:59Z</time>
      </trkpt>
      <trkpt lat="45.79353" lon="1.86001">
        <ele>654</ele>
        <time>2024-09-15T09:43:00Z</time>
      </trkpt>
      <trkpt lat="45.79351" lon="1.86001">
        <ele>654.2</ele>
        <time>2024-09-15T09:43:01Z</time>
      </trkpt>
      <trkpt lat="45.7935" lon="1.86002">
        <ele>654.2</ele>
        <time>2024-09-15T09:43:02Z</time>
      </trkpt>
      <trkpt lat="45.79348" lon="1.86003">
        <ele>654.2</ele>
        <time>2024-09-15T09:43:03Z</time>
      </trkpt>
      <trkpt lat="45.79347" lon="1.86005">
        <ele>654.2</ele>
        <time>2024-09-15T09:43:04Z</time>
      </trkpt>
      <trkpt lat="45.79346" lon="1.86007">
        <ele>654.2</ele>
        <time>2024-09-15T09:43:05Z</time>
      </trkpt>
      <trkpt lat="45.79345" lon="1.86008">
        <ele>654.2</ele>
        <time>2024-09-15T09:43:06Z</time>
      </trkpt>
      <trkpt lat="45.79344" lon="1.86008">
        <ele>654.2</ele>
        <time>2024-09-15T09:43:07Z</time>
      </trkpt>
      <trkpt lat="45.79341" lon="1.86009">
        <ele>654.2</ele>
        <time>2024-09-15T09:43:08Z</time>
      </trkpt>
      <trkpt lat="45.79339" lon="1.86009">
        <ele>654</ele>
        <time>2024-09-15T09:43:09Z</time>
      </trkpt>
      <trkpt lat="45.79337" lon="1.8601">
        <ele>654</ele>
        <time>2024-09-15T09:43:10Z</time>
      </trkpt>
      <trkpt lat="45.79336" lon="1.8601">
        <ele>654.2</ele>
        <time>2024-09-15T09:43:11Z</time>
      </trkpt>
      <trkpt lat="45.79334" lon="1.8601">
        <ele>654.2</ele>
        <time>2024-09-15T09:43:12Z</time>
      </trkpt>
      <trkpt lat="45.79334" lon="1.8601">
        <ele>654.2</ele>
        <time>2024-09-15T09:43:13Z</time>
      </trkpt>
      <trkpt lat="45.79332" lon="1.86012">
        <ele>654.4</ele>
        <time>2024-09-15T09:43:14Z</time>
      </trkpt>
      <trkpt lat="45.7933" lon="1.86014">
        <ele>654.4</ele>
        <time>2024-09-15T09:43:15Z</time>
      </trkpt>
      <trkpt lat="45.79327" lon="1.86018">
        <ele>654.4</ele>
        <time>2024-09-15T09:43:16Z</time>
      </trkpt>
      <trkpt lat="45.79318" lon="1.86028">
        <ele>654.4</ele>
        <time>2024-09-15T09:43:18Z</time>
      </trkpt>
      <trkpt lat="45.79311" lon="1.86041">
        <ele>654.6</ele>
        <time>2024-09-15T09:43:21Z</time>
      </trkpt>
      <trkpt lat="45.79308" lon="1.8605">
        <ele>654.4</ele>
        <time>2024-09-15T09:43:23Z</time>
      </trkpt>
      <trkpt lat="45.79307" lon="1.86053">
        <ele>654.2</ele>
        <time>2024-09-15T09:43:24Z</time>
      </trkpt>
      <trkpt lat="45.79307" lon="1.86055">
        <ele>654.2</ele>
        <time>2024-09-15T09:43:25Z</time>
      </trkpt>
      <trkpt lat="45.79306" lon="1.86059">
        <ele>654</ele>
        <time>2024-09-15T09:43:26Z</time>
      </trkpt>
      <trkpt lat="45.79305" lon="1.86062">
        <ele>654</ele>
        <time>2024-09-15T09:43:27Z</time>
      </trkpt>
      <trkpt lat="45.79304" lon="1.86066">
        <ele>653.8</ele>
        <time>2024-09-15T09:43:28Z</time>
      </trkpt>
      <trkpt lat="45.79303" lon="1.86069">
        <ele>653.6</ele>
        <time>2024-09-15T09:43:29Z</time>
      </trkpt>
      <trkpt lat="45.79302" lon="1.86073">
        <ele>653.4</ele>
        <time>2024-09-15T09:43:30Z</time>
      </trkpt>
      <trkpt lat="45.79302" lon="1.86075">
        <ele>653.4</ele>
        <time>2024-09-15T09:43:31Z</time>
      </trkpt>
      <trkpt lat="45.79301" lon="1.86079">
        <ele>653.4</ele>
        <time>2024-09-15T09:43:32Z</time>
      </trkpt>
      <trkpt lat="45.79299" lon="1.86086">
        <ele>653.4</ele>
        <time>2024-09-15T09:43:33Z</time>
      </trkpt>
      <trkpt lat="45.79296" lon="1.86103">
        <ele>653.6</ele>
        <time>2024-09-15T09:43:37Z</time>
      </trkpt>
      <trkpt lat="45.79294" lon="1.86108">
        <ele>653.6</ele>
        <time>2024-09-15T09:43:38Z</time>
      </trkpt>
      <trkpt lat="45.79294" lon="1.86111">
        <ele>653.6</ele>
        <time>2024-09-15T09:43:39Z</time>
      </trkpt>
      <trkpt lat="45.79295" lon="1.86115">
        <ele>653.8</ele>
        <time>2024-09-15T09:43:40Z</time>
      </trkpt>
      <trkpt lat="45.79296" lon="1.86125">
        <ele>653.8</ele>
        <time>2024-09-15T09:43:43Z</time>
      </trkpt>
      <trkpt lat="45.79295" lon="1.8613">
        <ele>653.8</ele>
        <time>2024-09-15T09:43:44Z</time>
      </trkpt>
      <trkpt lat="45.79294" lon="1.86135">
        <ele>654</ele>
        <time>2024-09-15T09:43:45Z</time>
      </trkpt>
      <trkpt lat="45.79293" lon="1.86138">
        <ele>654</ele>
        <time>2024-09-15T09:43:46Z</time>
      </trkpt>
      <trkpt lat="45.79292" lon="1.86141">
        <ele>654</ele>
        <time>2024-09-15T09:43:47Z</time>
      </trkpt>
      <trkpt lat="45.79292" lon="1.86143">
        <ele>654</ele>
        <time>2024-09-15T09:43:48Z</time>
      </trkpt>
      <trkpt lat="45.79293" lon="1.86148">
        <ele>654</ele>
        <time>2024-09-15T09:43:49Z</time>
      </trkpt>
      <trkpt lat="45.79293" lon="1.86148">
        <ele>654</ele>
        <time>2024-09-15T09:43:50Z</time>
      </trkpt>
      <trkpt lat="45.79292" lon="1.8616">
        <ele>653.8</ele>
        <time>2024-09-15T09:43:52Z</time>
      </trkpt>
      <trkpt lat="45.79292" lon="1.86162">
        <ele>653.6</ele>
        <time>2024-09-15T09:43:53Z</time>
      </trkpt>
      <trkpt lat="45.79292" lon="1.86166">
        <ele>653.6</ele>
        <time>2024-09-15T09:43:54Z</time>
      </trkpt>
      <trkpt lat="45.79292" lon="1.8617">
        <ele>653.4</ele>
        <time>2024-09-15T09:43:55Z</time>
      </trkpt>
      <trkpt lat="45.79291" lon="1.86175">
        <ele>653.2</ele>
        <time>2024-09-15T09:43:56Z</time>
      </trkpt>
      <trkpt lat="45.79291" lon="1.86178">
        <ele>653.2</ele>
        <time>2024-09-15T09:43:57Z</time>
      </trkpt>
      <trkpt lat="45.79291" lon="1.86181">
        <ele>653</ele>
        <time>2024-09-15T09:43:59Z</time>
      </trkpt>
      <trkpt lat="45.7929" lon="1.86184">
        <ele>653</ele>
        <time>2024-09-15T09:44:00Z</time>
      </trkpt>
      <trkpt lat="45.79289" lon="1.86186">
        <ele>653</ele>
        <time>2024-09-15T09:44:01Z</time>
      </trkpt>
      <trkpt lat="45.79288" lon="1.86189">
        <ele>653</ele>
        <time>2024-09-15T09:44:02Z</time>
      </trkpt>
      <trkpt lat="45.79287" lon="1.8619">
        <ele>653</ele>
        <time>2024-09-15T09:44:03Z</time>
      </trkpt>
      <trkpt lat="45.79286" lon="1.86197">
        <ele>653.2</ele>
        <time>2024-09-15T09:44:06Z</time>
      </trkpt>
      <trkpt lat="45.79286" lon="1.862">
        <ele>653.2</ele>
        <time>2024-09-15T09:44:07Z</time>
      </trkpt>
      <trkpt lat="45.79286" lon="1.86204">
        <ele>653.4</ele>
        <time>2024-09-15T09:44:08Z</time>
      </trkpt>
      <trkpt lat="45.79284" lon="1.86206">
        <ele>653.6</ele>
        <time>2024-09-15T09:44:09Z</time>
      </trkpt>
      <trkpt lat="45.79281" lon="1.86228">
        <ele>654.8</ele>
        <time>2024-09-15T09:44:16Z</time>
      </trkpt>
      <trkpt lat="45.7928" lon="1.8623">
        <ele>654.8</ele>
        <time>2024-09-15T09:44:17Z</time>
      </trkpt>
      <trkpt lat="45.79279" lon="1.8623">
        <ele>654.6</ele>
        <time>2024-09-15T09:44:18Z</time>
      </trkpt>
      <trkpt lat="45.79279" lon="1.8623">
        <ele>654.6</ele>
        <time>2024-09-15T09:44:19Z</time>
      </trkpt>
      <trkpt lat="45.7928" lon="1.86233">
        <ele>654.4</ele>
        <time>2024-09-15T09:45:35Z</time>
      </trkpt>
      <trkpt lat="45.7928" lon="1.86235">
        <ele>654.4</ele>
        <time>2024-09-15T09:45:36Z</time>
      </trkpt>
      <trkpt lat="45.79281" lon="1.86237">
        <ele>654.2</ele>
        <time>2024-09-15T09:45:37Z</time>
      </trkpt>
      <trkpt lat="45.79281" lon="1.86242">
        <ele>654.2</ele>
        <time>2024-09-15T09:45:39Z</time>
      </trkpt>
      <trkpt lat="45.7928" lon="1.86245">
        <ele>654.2</ele>
        <time>2024-09-15T09:45:40Z</time>
      </trkpt>
      <trkpt lat="45.79279" lon="1.86249">
        <ele>654.2</ele>
        <time>2024-09-15T09:45:41Z</time>
      </trkpt>
      <trkpt lat="45.79278" lon="1.86252">
        <ele>654.2</ele>
        <time>2024-09-15T09:45:42Z</time>
      </trkpt>
      <trkpt lat="45.79268" lon="1.86273">
        <ele>654.4</ele>
        <time>2024-09-15T09:45:48Z</time>
      </trkpt>
      <trkpt lat="45.79253" lon="1.86294">
        <ele>655.4</ele>
        <time>2024-09-15T09:45:56Z</time>
      </trkpt>
      <trkpt lat="45.79249" lon="1.86297">
        <ele>655.8</ele>
        <time>2024-09-15T09:45:58Z</time>
      </trkpt>
      <trkpt lat="45.79242" lon="1.86304">
        <ele>657.2</ele>
        <time>2024-09-15T09:46:01Z</time>
      </trkpt>
      <trkpt lat="45.79239" lon="1.86306">
        <ele>657.6</ele>
        <time>2024-09-15T09:46:02Z</time>
      </trkpt>
      <trkpt lat="45.79237" lon="1.86307">
        <ele>658</ele>
        <time>2024-09-15T09:46:03Z</time>
      </trkpt>
      <trkpt lat="45.79235" lon="1.86309">
        <ele>658.4</ele>
        <time>2024-09-15T09:46:04Z</time>
      </trkpt>
      <trkpt lat="45.79233" lon="1.8631">
        <ele>658.8</ele>
        <time>2024-09-15T09:46:05Z</time>
      </trkpt>
      <trkpt lat="45.7923" lon="1.86312">
        <ele>658.8</ele>
        <time>2024-09-15T09:46:06Z</time>
      </trkpt>
      <trkpt lat="45.79229" lon="1.86314">
        <ele>659.2</ele>
        <time>2024-09-15T09:46:07Z</time>
      </trkpt>
      <trkpt lat="45.79226" lon="1.86317">
        <ele>659.2</ele>
        <time>2024-09-15T09:46:08Z</time>
      </trkpt>
      <trkpt lat="45.79224" lon="1.86319">
        <ele>659.2</ele>
        <time>2024-09-15T09:46:09Z</time>
      </trkpt>
      <trkpt lat="45.79222" lon="1.86321">
        <ele>659.2</ele>
        <time>2024-09-15T09:46:10Z</time>
      </trkpt>
      <trkpt lat="45.7922" lon="1.86323">
        <ele>659.4</ele>
        <time>2024-09-15T09:46:11Z</time>
      </trkpt>
      <trkpt lat="45.79217" lon="1.86326">
        <ele>659.4</ele>
        <time>2024-09-15T09:46:12Z</time>
      </trkpt>
      <trkpt lat="45.79215" lon="1.86329">
        <ele>659.4</ele>
        <time>2024-09-15T09:46:13Z</time>
      </trkpt>
      <trkpt lat="45.79213" lon="1.86332">
        <ele>659.4</ele>
        <time>2024-09-15T09:46:14Z</time>
      </trkpt>
      <trkpt lat="45.79211" lon="1.86334">
        <ele>659.4</ele>
        <time>2024-09-15T09:46:15Z</time>
      </trkpt>
      <trkpt lat="45.7921" lon="1.86335">
        <ele>659.4</ele>
        <time>2024-09-15T09:46:16Z</time>
      </trkpt>
      <trkpt lat="45.79208" lon="1.86337">
        <ele>659.4</ele>
        <time>2024-09-15T09:46:17Z</time>
      </trkpt>
      <trkpt lat="45.79206" lon="1.86338">
        <ele>659.6</ele>
        <time>2024-09-15T09:46:18Z</time>
      </trkpt>
      <trkpt lat="45.79204" lon="1.86339">
        <ele>659.6</ele>
        <time>2024-09-15T09:46:19Z</time>
      </trkpt>
      <trkpt lat="45.79203" lon="1.8634">
        <ele>659.6</ele>
        <time>2024-09-15T09:46:20Z</time>
      </trkpt>
      <trkpt lat="45.79201" lon="1.86342">
        <ele>659.6</ele>
        <time>2024-09-15T09:46:21Z</time>
      </trkpt>
      <trkpt lat="45.79201" lon="1.86343">
        <ele>659.6</ele>
        <time>2024-09-15T09:46:22Z</time>
      </trkpt>
      <trkpt lat="45.792" lon="1.86344">
        <ele>659.6</ele>
        <time>2024-09-15T09:46:23Z</time>
      </trkpt>
      <trkpt lat="45.79199" lon="1.86345">
        <ele>659.6</ele>
        <time>2024-09-15T09:46:24Z</time>
      </trkpt>
      <trkpt lat="45.79197" lon="1.86346">
        <ele>659.4</ele>
        <time>2024-09-15T09:46:25Z</time>
      </trkpt>
      <trkpt lat="45.79196" lon="1.86347">
        <ele>659.4</ele>
        <time>2024-09-15T09:46:26Z</time>
      </trkpt>
      <trkpt lat="45.79194" lon="1.86347">
        <ele>659.4</ele>
        <time>2024-09-15T09:46:27Z</time>
      </trkpt>
      <trkpt lat="45.79193" lon="1.86348">
        <ele>659.6</ele>
        <time>2024-09-15T09:46:28Z</time>
      </trkpt>
      <trkpt lat="45.79193" lon="1.86348">
        <ele>659.6</ele>
        <time>2024-09-15T09:46:29Z</time>
      </trkpt>
      <trkpt lat="45.79192" lon="1.86349">
        <ele>659.6</ele>
        <time>2024-09-15T09:46:30Z</time>
      </trkpt>
      <trkpt lat="45.79192" lon="1.86349">
        <ele>659.8</ele>
        <time>2024-09-15T09:46:31Z</time>
      </trkpt>
      <trkpt lat="45.79192" lon="1.86349">
        <ele>659.8</ele>
        <time>2024-09-15T09:46:32Z</time>
      </trkpt>
      <trkpt lat="45.79192" lon="1.86349">
        <ele>660</ele>
        <time>2024-09-15T09:46:33Z</time>
      </trkpt>
      <trkpt lat="45.79188" lon="1.86351">
        <ele>660.2</ele>
        <time>2024-09-15T09:46:41Z</time>
      </trkpt>
      <trkpt lat="45.79187" lon="1.86351">
        <ele>660.4</ele>
        <time>2024-09-15T09:46:42Z</time>
      </trkpt>
      <trkpt lat="45.79184" lon="1.86353">
        <ele>660.4</ele>
        <time>2024-09-15T09:46:44Z</time>
      </trkpt>
      <trkpt lat="45.79182" lon="1.86354">
        <ele>660.4</ele>
        <time>2024-09-15T09:46:45Z</time>
      </trkpt>
      <trkpt lat="45.79174" lon="1.86359">
        <ele>661.4</ele>
        <time>2024-09-15T09:46:49Z</time>
      </trkpt>
      <trkpt lat="45.79172" lon="1.86361">
        <ele>661.6</ele>
        <time>2024-09-15T09:46:50Z</time>
      </trkpt>
      <trkpt lat="45.7917" lon="1.86362">
        <ele>662</ele>
        <time>2024-09-15T09:46:53Z</time>
      </trkpt>
      <trkpt lat="45.79168" lon="1.86364">
        <ele>662</ele>
        <time>2024-09-15T09:46:54Z</time>
      </trkpt>
      <trkpt lat="45.79166" lon="1.86366">
        <ele>662</ele>
        <time>2024-09-15T09:46:55Z</time>
      </trkpt>
      <trkpt lat="45.79164" lon="1.86367">
        <ele>662</ele>
        <time>2024-09-15T09:46:56Z</time>
      </trkpt>
      <trkpt lat="45.79163" lon="1.8637">
        <ele>662</ele>
        <time>2024-09-15T09:46:57Z</time>
      </trkpt>
      <trkpt lat="45.79162" lon="1.86371">
        <ele>662</ele>
        <time>2024-09-15T09:46:58Z</time>
      </trkpt>
      <trkpt lat="45.79161" lon="1.86372">
        <ele>662</ele>
        <time>2024-09-15T09:46:59Z</time>
      </trkpt>
      <trkpt lat="45.7916" lon="1.86373">
        <ele>662</ele>
        <time>2024-09-15T09:47:00Z</time>
      </trkpt>
      <trkpt lat="45.79158" lon="1.86376">
        <ele>662</ele>
        <time>2024-09-15T09:47:01Z</time>
      </trkpt>
      <trkpt lat="45.79155" lon="1.8638">
        <ele>662</ele>
        <time>2024-09-15T09:47:03Z</time>
      </trkpt>
      <trkpt lat="45.79152" lon="1.86381">
        <ele>662</ele>
        <time>2024-09-15T09:47:04Z</time>
      </trkpt>
      <trkpt lat="45.79141" lon="1.8639">
        <ele>662.2</ele>
        <time>2024-09-15T09:47:09Z</time>
      </trkpt>
      <trkpt lat="45.79139" lon="1.86393">
        <ele>662.2</ele>
        <time>2024-09-15T09:47:10Z</time>
      </trkpt>
      <trkpt lat="45.79137" lon="1.86394">
        <ele>662.4</ele>
        <time>2024-09-15T09:47:11Z</time>
      </trkpt>
      <trkpt lat="45.79136" lon="1.86396">
        <ele>662.6</ele>
        <time>2024-09-15T09:47:12Z</time>
      </trkpt>
      <trkpt lat="45.79128" lon="1.864">
        <ele>662.6</ele>
        <time>2024-09-15T09:47:15Z</time>
      </trkpt>
      <trkpt lat="45.79112" lon="1.86405">
        <ele>664</ele>
        <time>2024-09-15T09:47:22Z</time>
      </trkpt>
      <trkpt lat="45.79109" lon="1.86406">
        <ele>664.2</ele>
        <time>2024-09-15T09:47:23Z</time>
      </trkpt>
      <trkpt lat="45.79099" lon="1.86406">
        <ele>665.4</ele>
        <time>2024-09-15T09:47:27Z</time>
      </trkpt>
      <trkpt lat="45.79096" lon="1.86407">
        <ele>665.6</ele>
        <time>2024-09-15T09:47:28Z</time>
      </trkpt>
      <trkpt lat="45.79094" lon="1.86407">
        <ele>666</ele>
        <time>2024-09-15T09:47:29Z</time>
      </trkpt>
      <trkpt lat="45.79091" lon="1.86407">
        <ele>666.2</ele>
        <time>2024-09-15T09:47:30Z</time>
      </trkpt>
      <trkpt lat="45.79088" lon="1.86408">
        <ele>667</ele>
        <time>2024-09-15T09:47:31Z</time>
      </trkpt>
      <trkpt lat="45.79086" lon="1.86409">
        <ele>667.4</ele>
        <time>2024-09-15T09:47:32Z</time>
      </trkpt>
      <trkpt lat="45.79084" lon="1.86409">
        <ele>668</ele>
        <time>2024-09-15T09:47:33Z</time>
      </trkpt>
      <trkpt lat="45.79083" lon="1.86408">
        <ele>668.2</ele>
        <time>2024-09-15T09:47:34Z</time>
      </trkpt>
      <trkpt lat="45.79081" lon="1.86407">
        <ele>668.4</ele>
        <time>2024-09-15T09:47:35Z</time>
      </trkpt>
      <trkpt lat="45.79079" lon="1.86406">
        <ele>668.6</ele>
        <time>2024-09-15T09:47:36Z</time>
      </trkpt>
      <trkpt lat="45.79077" lon="1.86406">
        <ele>668.8</ele>
        <time>2024-09-15T09:47:37Z</time>
      </trkpt>
      <trkpt lat="45.79076" lon="1.86406">
        <ele>669</ele>
        <time>2024-09-15T09:47:38Z</time>
      </trkpt>
      <trkpt lat="45.79075" lon="1.86407">
        <ele>669.4</ele>
        <time>2024-09-15T09:47:39Z</time>
      </trkpt>
      <trkpt lat="45.79075" lon="1.86407">
        <ele>669.6</ele>
        <time>2024-09-15T09:47:40Z</time>
      </trkpt>
      <trkpt lat="45.79074" lon="1.86407">
        <ele>670.2</ele>
        <time>2024-09-15T09:47:58Z</time>
      </trkpt>
      <trkpt lat="45.79074" lon="1.86408">
        <ele>670.2</ele>
        <time>2024-09-15T09:47:59Z</time>
      </trkpt>
      <trkpt lat="45.79074" lon="1.86408">
        <ele>670.4</ele>
        <time>2024-09-15T09:48:00Z</time>
      </trkpt>
      <trkpt lat="45.79074" lon="1.86408">
        <ele>670.4</ele>
        <time>2024-09-15T09:48:01Z</time>
      </trkpt>
      <trkpt lat="45.79073" lon="1.8641">
        <ele>670.6</ele>
        <time>2024-09-15T09:48:03Z</time>
      </trkpt>
      <trkpt lat="45.79072" lon="1.86412">
        <ele>670.6</ele>
        <time>2024-09-15T09:48:04Z</time>
      </trkpt>
      <trkpt lat="45.79072" lon="1.86414">
        <ele>670.6</ele>
        <time>2024-09-15T09:48:05Z</time>
      </trkpt>
      <trkpt lat="45.79072" lon="1.86417">
        <ele>670.6</ele>
        <time>2024-09-15T09:48:06Z</time>
      </trkpt>
      <trkpt lat="45.79072" lon="1.8642">
        <ele>670.6</ele>
        <time>2024-09-15T09:48:07Z</time>
      </trkpt>
      <trkpt lat="45.79072" lon="1.86423">
        <ele>670.6</ele>
        <time>2024-09-15T09:48:08Z</time>
      </trkpt>
      <trkpt lat="45.79071" lon="1.86426">
        <ele>670.6</ele>
        <time>2024-09-15T09:48:09Z</time>
      </trkpt>
      <trkpt lat="45.7907" lon="1.86431">
        <ele>670.4</ele>
        <time>2024-09-15T09:48:11Z</time>
      </trkpt>
      <trkpt lat="45.79069" lon="1.86445">
        <ele>670</ele>
        <time>2024-09-15T09:48:16Z</time>
      </trkpt>
      <trkpt lat="45.7907" lon="1.86447">
        <ele>670</ele>
        <time>2024-09-15T09:48:17Z</time>
      </trkpt>
      <trkpt lat="45.79071" lon="1.86449">
        <ele>670</ele>
        <time>2024-09-15T09:48:18Z</time>
      </trkpt>
      <trkpt lat="45.79071" lon="1.86451">
        <ele>670</ele>
        <time>2024-09-15T09:48:19Z</time>
      </trkpt>
      <trkpt lat="45.79067" lon="1.86457">
        <ele>670</ele>
        <time>2024-09-15T09:48:21Z</time>
      </trkpt>
      <trkpt lat="45.79065" lon="1.86461">
        <ele>670</ele>
        <time>2024-09-15T09:48:22Z</time>
      </trkpt>
      <trkpt lat="45.79063" lon="1.86483">
        <ele>669.8</ele>
        <time>2024-09-15T09:48:26Z</time>
      </trkpt>
      <trkpt lat="45.79062" lon="1.86489">
        <ele>669.6</ele>
        <time>2024-09-15T09:48:27Z</time>
      </trkpt>
      <trkpt lat="45.79058" lon="1.86496">
        <ele>669.4</ele>
        <time>2024-09-15T09:48:28Z</time>
      </trkpt>
      <trkpt lat="45.79054" lon="1.86505">
        <ele>669.4</ele>
        <time>2024-09-15T09:48:29Z</time>
      </trkpt>
      <trkpt lat="45.79052" lon="1.86513">
        <ele>669.2</ele>
        <time>2024-09-15T09:48:30Z</time>
      </trkpt>
      <trkpt lat="45.79051" lon="1.86521">
        <ele>668.2</ele>
        <time>2024-09-15T09:48:31Z</time>
      </trkpt>
      <trkpt lat="45.79051" lon="1.86538">
        <ele>667.6</ele>
        <time>2024-09-15T09:48:33Z</time>
      </trkpt>
      <trkpt lat="45.79048" lon="1.86547">
        <ele>667.6</ele>
        <time>2024-09-15T09:48:34Z</time>
      </trkpt>
      <trkpt lat="45.79047" lon="1.86554">
        <ele>667</ele>
        <time>2024-09-15T09:48:35Z</time>
      </trkpt>
      <trkpt lat="45.79047" lon="1.86557">
        <ele>666.8</ele>
        <time>2024-09-15T09:48:36Z</time>
      </trkpt>
      <trkpt lat="45.79048" lon="1.8656">
        <ele>666</ele>
        <time>2024-09-15T09:48:37Z</time>
      </trkpt>
      <trkpt lat="45.79048" lon="1.86563">
        <ele>665.6</ele>
        <time>2024-09-15T09:48:38Z</time>
      </trkpt>
      <trkpt lat="45.79048" lon="1.86564">
        <ele>665.4</ele>
        <time>2024-09-15T09:48:39Z</time>
      </trkpt>
      <trkpt lat="45.79048" lon="1.86566">
        <ele>665.2</ele>
        <time>2024-09-15T09:48:40Z</time>
      </trkpt>
      <trkpt lat="45.79046" lon="1.86571">
        <ele>665.2</ele>
        <time>2024-09-15T09:48:42Z</time>
      </trkpt>
      <trkpt lat="45.79043" lon="1.86574">
        <ele>665.2</ele>
        <time>2024-09-15T09:48:43Z</time>
      </trkpt>
      <trkpt lat="45.79041" lon="1.86577">
        <ele>665.2</ele>
        <time>2024-09-15T09:48:44Z</time>
      </trkpt>
      <trkpt lat="45.7904" lon="1.86579">
        <ele>665.2</ele>
        <time>2024-09-15T09:48:45Z</time>
      </trkpt>
      <trkpt lat="45.79037" lon="1.86582">
        <ele>665.2</ele>
        <time>2024-09-15T09:48:46Z</time>
      </trkpt>
      <trkpt lat="45.79037" lon="1.86583">
        <ele>665.2</ele>
        <time>2024-09-15T09:48:47Z</time>
      </trkpt>
      <trkpt lat="45.79036" lon="1.86585">
        <ele>665.4</ele>
        <time>2024-09-15T09:48:48Z</time>
      </trkpt>
      <trkpt lat="45.79036" lon="1.86587">
        <ele>665.6</ele>
        <time>2024-09-15T09:48:49Z</time>
      </trkpt>
      <trkpt lat="45.79035" lon="1.86589">
        <ele>665.8</ele>
        <time>2024-09-15T09:48:50Z</time>
      </trkpt>
      <trkpt lat="45.79034" lon="1.86591">
        <ele>666</ele>
        <time>2024-09-15T09:48:51Z</time>
      </trkpt>
      <trkpt lat="45.79033" lon="1.86594">
        <ele>666.2</ele>
        <time>2024-09-15T09:48:52Z</time>
      </trkpt>
      <trkpt lat="45.79031" lon="1.86596">
        <ele>666.4</ele>
        <time>2024-09-15T09:48:53Z</time>
      </trkpt>
      <trkpt lat="45.79029" lon="1.86599">
        <ele>666.6</ele>
        <time>2024-09-15T09:48:54Z</time>
      </trkpt>
      <trkpt lat="45.79028" lon="1.86601">
        <ele>667</ele>
        <time>2024-09-15T09:48:55Z</time>
      </trkpt>
      <trkpt lat="45.79026" lon="1.86602">
        <ele>667</ele>
        <time>2024-09-15T09:48:56Z</time>
      </trkpt>
      <trkpt lat="45.79025" lon="1.86604">
        <ele>667.2</ele>
        <time>2024-09-15T09:48:57Z</time>
      </trkpt>
      <trkpt lat="45.79021" lon="1.86608">
        <ele>667.2</ele>
        <time>2024-09-15T09:48:58Z</time>
      </trkpt>
      <trkpt lat="45.79011" lon="1.86617">
        <ele>667.2</ele>
        <time>2024-09-15T09:49:01Z</time>
      </trkpt>
      <trkpt lat="45.78987" lon="1.86632">
        <ele>666.6</ele>
        <time>2024-09-15T09:49:06Z</time>
      </trkpt>
      <trkpt lat="45.78973" lon="1.8664">
        <ele>666.4</ele>
        <time>2024-09-15T09:49:10Z</time>
      </trkpt>
      <trkpt lat="45.7897" lon="1.86641">
        <ele>666.4</ele>
        <time>2024-09-15T09:49:11Z</time>
      </trkpt>
      <trkpt lat="45.78965" lon="1.86645">
        <ele>666</ele>
        <time>2024-09-15T09:49:12Z</time>
      </trkpt>
      <trkpt lat="45.78959" lon="1.86648">
        <ele>665.8</ele>
        <time>2024-09-15T09:49:13Z</time>
      </trkpt>
      <trkpt lat="45.78945" lon="1.86654">
        <ele>665</ele>
        <time>2024-09-15T09:49:16Z</time>
      </trkpt>
      <trkpt lat="45.78933" lon="1.86662">
        <ele>664.8</ele>
        <time>2024-09-15T09:49:18Z</time>
      </trkpt>
      <trkpt lat="45.78918" lon="1.8667">
        <ele>664.6</ele>
        <time>2024-09-15T09:49:21Z</time>
      </trkpt>
      <trkpt lat="45.78914" lon="1.86671">
        <ele>664.4</ele>
        <time>2024-09-15T09:49:22Z</time>
      </trkpt>
      <trkpt lat="45.78909" lon="1.86674">
        <ele>664</ele>
        <time>2024-09-15T09:49:23Z</time>
      </trkpt>
      <trkpt lat="45.78904" lon="1.86675">
        <ele>663.8</ele>
        <time>2024-09-15T09:49:24Z</time>
      </trkpt>
      <trkpt lat="45.78899" lon="1.86674">
        <ele>663.6</ele>
        <time>2024-09-15T09:49:26Z</time>
      </trkpt>
      <trkpt lat="45.78897" lon="1.86674">
        <ele>663.2</ele>
        <time>2024-09-15T09:49:27Z</time>
      </trkpt>
      <trkpt lat="45.78895" lon="1.86676">
        <ele>663.2</ele>
        <time>2024-09-15T09:49:28Z</time>
      </trkpt>
      <trkpt lat="45.78892" lon="1.86679">
        <ele>663</ele>
        <time>2024-09-15T09:49:29Z</time>
      </trkpt>
      <trkpt lat="45.78891" lon="1.86681">
        <ele>662.8</ele>
        <time>2024-09-15T09:49:30Z</time>
      </trkpt>
      <trkpt lat="45.78891" lon="1.86682">
        <ele>662.8</ele>
        <time>2024-09-15T09:49:31Z</time>
      </trkpt>
      <trkpt lat="45.78889" lon="1.86684">
        <ele>662.4</ele>
        <time>2024-09-15T09:49:32Z</time>
      </trkpt>
      <trkpt lat="45.78888" lon="1.86685">
        <ele>660.8</ele>
        <time>2024-09-15T09:49:33Z</time>
      </trkpt>
      <trkpt lat="45.78886" lon="1.86686">
        <ele>660.4</ele>
        <time>2024-09-15T09:49:34Z</time>
      </trkpt>
      <trkpt lat="45.78884" lon="1.86688">
        <ele>659.8</ele>
        <time>2024-09-15T09:49:35Z</time>
      </trkpt>
      <trkpt lat="45.78883" lon="1.86689">
        <ele>659.8</ele>
        <time>2024-09-15T09:49:36Z</time>
      </trkpt>
      <trkpt lat="45.7888" lon="1.86692">
        <ele>659.4</ele>
        <time>2024-09-15T09:49:37Z</time>
      </trkpt>
      <trkpt lat="45.7888" lon="1.86695">
        <ele>658.8</ele>
        <time>2024-09-15T09:49:38Z</time>
      </trkpt>
      <trkpt lat="45.7888" lon="1.86698">
        <ele>658.6</ele>
        <time>2024-09-15T09:49:39Z</time>
      </trkpt>
      <trkpt lat="45.78881" lon="1.86703">
        <ele>658.4</ele>
        <time>2024-09-15T09:49:40Z</time>
      </trkpt>
      <trkpt lat="45.78877" lon="1.86717">
        <ele>657.6</ele>
        <time>2024-09-15T09:49:42Z</time>
      </trkpt>
      <trkpt lat="45.78873" lon="1.86728">
        <ele>656.4</ele>
        <time>2024-09-15T09:49:44Z</time>
      </trkpt>
      <trkpt lat="45.78872" lon="1.8673">
        <ele>656.2</ele>
        <time>2024-09-15T09:49:45Z</time>
      </trkpt>
      <trkpt lat="45.78872" lon="1.86731">
        <ele>655.4</ele>
        <time>2024-09-15T09:49:46Z</time>
      </trkpt>
      <trkpt lat="45.78872" lon="1.86731">
        <ele>655</ele>
        <time>2024-09-15T09:49:47Z</time>
      </trkpt>
      <trkpt lat="45.78872" lon="1.86731">
        <ele>654.6</ele>
        <time>2024-09-15T09:49:48Z</time>
      </trkpt>
      <trkpt lat="45.78871" lon="1.86731">
        <ele>653.8</ele>
        <time>2024-09-15T09:50:11Z</time>
      </trkpt>
      <trkpt lat="45.78871" lon="1.86731">
        <ele>653.8</ele>
        <time>2024-09-15T09:50:13Z</time>
      </trkpt>
      <trkpt lat="45.78867" lon="1.86732">
        <ele>656.4</ele>
        <time>2024-09-15T09:50:36Z</time>
      </trkpt>
      <trkpt lat="45.78862" lon="1.8673">
        <ele>656.6</ele>
        <time>2024-09-15T09:50:38Z</time>
      </trkpt>
      <trkpt lat="45.7886" lon="1.86729">
        <ele>656.6</ele>
        <time>2024-09-15T09:50:39Z</time>
      </trkpt>
      <trkpt lat="45.78857" lon="1.86728">
        <ele>656.8</ele>
        <time>2024-09-15T09:50:40Z</time>
      </trkpt>
      <trkpt lat="45.78854" lon="1.86727">
        <ele>656.8</ele>
        <time>2024-09-15T09:50:41Z</time>
      </trkpt>
      <trkpt lat="45.78847" lon="1.86723">
        <ele>657</ele>
        <time>2024-09-15T09:50:43Z</time>
      </trkpt>
      <trkpt lat="45.78834" lon="1.86714">
        <ele>657.4</ele>
        <time>2024-09-15T09:50:47Z</time>
      </trkpt>
      <trkpt lat="45.78827" lon="1.86709">
        <ele>657.8</ele>
        <time>2024-09-15T09:50:49Z</time>
      </trkpt>
      <trkpt lat="45.78816" lon="1.86707">
        <ele>657.8</ele>
        <time>2024-09-15T09:50:52Z</time>
      </trkpt>
      <trkpt lat="45.78812" lon="1.86707">
        <ele>658.2</ele>
        <time>2024-09-15T09:50:53Z</time>
      </trkpt>
      <trkpt lat="45.7881" lon="1.86707">
        <ele>658.2</ele>
        <time>2024-09-15T09:50:54Z</time>
      </trkpt>
      <trkpt lat="45.78807" lon="1.86707">
        <ele>658.4</ele>
        <time>2024-09-15T09:50:55Z</time>
      </trkpt>
      <trkpt lat="45.78805" lon="1.86708">
        <ele>658.6</ele>
        <time>2024-09-15T09:50:56Z</time>
      </trkpt>
      <trkpt lat="45.78802" lon="1.86709">
        <ele>658.8</ele>
        <time>2024-09-15T09:50:57Z</time>
      </trkpt>
      <trkpt lat="45.788" lon="1.86708">
        <ele>659</ele>
        <time>2024-09-15T09:50:58Z</time>
      </trkpt>
      <trkpt lat="45.78797" lon="1.86706">
        <ele>659.2</ele>
        <time>2024-09-15T09:50:59Z</time>
      </trkpt>
      <trkpt lat="45.78792" lon="1.86704">
        <ele>659.2</ele>
        <time>2024-09-15T09:51:00Z</time>
      </trkpt>
      <trkpt lat="45.78788" lon="1.86701">
        <ele>659.2</ele>
        <time>2024-09-15T09:51:01Z</time>
      </trkpt>
      <trkpt lat="45.78784" lon="1.86699">
        <ele>659.4</ele>
        <time>2024-09-15T09:51:02Z</time>
      </trkpt>
      <trkpt lat="45.78781" lon="1.86695">
        <ele>659.4</ele>
        <time>2024-09-15T09:51:03Z</time>
      </trkpt>
      <trkpt lat="45.78777" lon="1.86691">
        <ele>659.6</ele>
        <time>2024-09-15T09:51:04Z</time>
      </trkpt>
      <trkpt lat="45.78773" lon="1.86688">
        <ele>659.6</ele>
        <time>2024-09-15T09:51:05Z</time>
      </trkpt>
      <trkpt lat="45.78769" lon="1.86686">
        <ele>659.8</ele>
        <time>2024-09-15T09:51:06Z</time>
      </trkpt>
      <trkpt lat="45.78765" lon="1.86686">
        <ele>659.8</ele>
        <time>2024-09-15T09:51:07Z</time>
      </trkpt>
      <trkpt lat="45.7876" lon="1.86686">
        <ele>659.8</ele>
        <time>2024-09-15T09:51:08Z</time>
      </trkpt>
      <trkpt lat="45.78757" lon="1.86685">
        <ele>659.8</ele>
        <time>2024-09-15T09:51:09Z</time>
      </trkpt>
      <trkpt lat="45.78753" lon="1.86684">
        <ele>659.6</ele>
        <time>2024-09-15T09:51:10Z</time>
      </trkpt>
      <trkpt lat="45.7875" lon="1.86684">
        <ele>659.4</ele>
        <time>2024-09-15T09:51:11Z</time>
      </trkpt>
      <trkpt lat="45.78747" lon="1.86684">
        <ele>659.2</ele>
        <time>2024-09-15T09:51:12Z</time>
      </trkpt>
      <trkpt lat="45.78744" lon="1.86683">
        <ele>659.2</ele>
        <time>2024-09-15T09:51:13Z</time>
      </trkpt>
      <trkpt lat="45.78741" lon="1.86682">
        <ele>659</ele>
        <time>2024-09-15T09:51:14Z</time>
      </trkpt>
      <trkpt lat="45.78713" lon="1.8667">
        <ele>658.8</ele>
        <time>2024-09-15T09:51:22Z</time>
      </trkpt>
      <trkpt lat="45.78693" lon="1.86665">
        <ele>659</ele>
        <time>2024-09-15T09:51:28Z</time>
      </trkpt>
      <trkpt lat="45.78691" lon="1.86664">
        <ele>659</ele>
        <time>2024-09-15T09:51:29Z</time>
      </trkpt>
      <trkpt lat="45.78687" lon="1.86662">
        <ele>659</ele>
        <time>2024-09-15T09:51:30Z</time>
      </trkpt>
      <trkpt lat="45.78677" lon="1.86657">
        <ele>659</ele>
        <time>2024-09-15T09:51:33Z</time>
      </trkpt>
      <trkpt lat="45.78674" lon="1.86655">
        <ele>659</ele>
        <time>2024-09-15T09:51:34Z</time>
      </trkpt>
      <trkpt lat="45.78671" lon="1.86653">
        <ele>659</ele>
        <time>2024-09-15T09:51:35Z</time>
      </trkpt>
      <trkpt lat="45.78668" lon="1.86651">
        <ele>658.8</ele>
        <time>2024-09-15T09:51:36Z</time>
      </trkpt>
      <trkpt lat="45.78665" lon="1.8665">
        <ele>658.8</ele>
        <time>2024-09-15T09:51:37Z</time>
      </trkpt>
      <trkpt lat="45.78662" lon="1.8665">
        <ele>658.8</ele>
        <time>2024-09-15T09:51:38Z</time>
      </trkpt>
      <trkpt lat="45.78659" lon="1.86651">
        <ele>658.8</ele>
        <time>2024-09-15T09:51:39Z</time>
      </trkpt>
      <trkpt lat="45.78657" lon="1.86653">
        <ele>658.6</ele>
        <time>2024-09-15T09:51:40Z</time>
      </trkpt>
      <trkpt lat="45.78656" lon="1.86654">
        <ele>658.8</ele>
        <time>2024-09-15T09:51:41Z</time>
      </trkpt>
      <trkpt lat="45.78654" lon="1.86655">
        <ele>658.8</ele>
        <time>2024-09-15T09:51:42Z</time>
      </trkpt>
      <trkpt lat="45.78653" lon="1.86656">
        <ele>659</ele>
        <time>2024-09-15T09:51:43Z</time>
      </trkpt>
      <trkpt lat="45.78653" lon="1.86658">
        <ele>659</ele>
        <time>2024-09-15T09:51:44Z</time>
      </trkpt>
      <trkpt lat="45.78652" lon="1.86659">
        <ele>659.2</ele>
        <time>2024-09-15T09:51:45Z</time>
      </trkpt>
      <trkpt lat="45.78651" lon="1.8666">
        <ele>659.4</ele>
        <time>2024-09-15T09:51:46Z</time>
      </trkpt>
      <trkpt lat="45.78649" lon="1.86661">
        <ele>659.6</ele>
        <time>2024-09-15T09:51:47Z</time>
      </trkpt>
      <trkpt lat="45.78648" lon="1.86662">
        <ele>659.6</ele>
        <time>2024-09-15T09:51:48Z</time>
      </trkpt>
      <trkpt lat="45.78648" lon="1.86662">
        <ele>659.8</ele>
        <time>2024-09-15T09:51:49Z</time>
      </trkpt>
      <trkpt lat="45.78648" lon="1.86662">
        <ele>659.8</ele>
        <time>2024-09-15T09:51:50Z</time>
      </trkpt>
      <trkpt lat="45.78648" lon="1.86663">
        <ele>659.8</ele>
        <time>2024-09-15T09:51:51Z</time>
      </trkpt>
      <trkpt lat="45.78647" lon="1.86663">
        <ele>659.8</ele>
        <time>2024-09-15T09:51:52Z</time>
      </trkpt>
      <trkpt lat="45.78646" lon="1.86664">
        <ele>659.8</ele>
        <time>2024-09-15T09:51:53Z</time>
      </trkpt>
      <trkpt lat="45.78642" lon="1.86668">
        <ele>659.8</ele>
        <time>2024-09-15T09:51:56Z</time>
      </trkpt>
      <trkpt lat="45.78639" lon="1.86673">
        <ele>659.8</ele>
        <time>2024-09-15T09:51:58Z</time>
      </trkpt>
      <trkpt lat="45.78638" lon="1.86677">
        <ele>659.6</ele>
        <time>2024-09-15T09:51:59Z</time>
      </trkpt>
      <trkpt lat="45.78637" lon="1.86681">
        <ele>659.6</ele>
        <time>2024-09-15T09:52:00Z</time>
      </trkpt>
      <trkpt lat="45.78637" lon="1.86685">
        <ele>659.4</ele>
        <time>2024-09-15T09:52:01Z</time>
      </trkpt>
      <trkpt lat="45.78637" lon="1.86691">
        <ele>659.4</ele>
        <time>2024-09-15T09:52:02Z</time>
      </trkpt>
      <trkpt lat="45.78637" lon="1.86696">
        <ele>659.4</ele>
        <time>2024-09-15T09:52:03Z</time>
      </trkpt>
      <trkpt lat="45.78637" lon="1.86712">
        <ele>659.4</ele>
        <time>2024-09-15T09:52:06Z</time>
      </trkpt>
      <trkpt lat="45.78637" lon="1.86717">
        <ele>659.4</ele>
        <time>2024-09-15T09:52:07Z</time>
      </trkpt>
      <trkpt lat="45.78637" lon="1.86728">
        <ele>659</ele>
        <time>2024-09-15T09:52:09Z</time>
      </trkpt>
      <trkpt lat="45.78638" lon="1.86757">
        <ele>658.4</ele>
        <time>2024-09-15T09:52:14Z</time>
      </trkpt>
      <trkpt lat="45.78639" lon="1.86764">
        <ele>658.4</ele>
        <time>2024-09-15T09:52:15Z</time>
      </trkpt>
      <trkpt lat="45.78639" lon="1.8677">
        <ele>658.4</ele>
        <time>2024-09-15T09:52:16Z</time>
      </trkpt>
      <trkpt lat="45.78639" lon="1.868">
        <ele>658.2</ele>
        <time>2024-09-15T09:52:20Z</time>
      </trkpt>
      <trkpt lat="45.7864" lon="1.86823">
        <ele>658</ele>
        <time>2024-09-15T09:52:23Z</time>
      </trkpt>
      <trkpt lat="45.7864" lon="1.86838">
        <ele>657.6</ele>
        <time>2024-09-15T09:52:25Z</time>
      </trkpt>
      <trkpt lat="45.7864" lon="1.86845">
        <ele>657.6</ele>
        <time>2024-09-15T09:52:26Z</time>
      </trkpt>
      <trkpt lat="45.78641" lon="1.86852">
        <ele>657.4</ele>
        <time>2024-09-15T09:52:27Z</time>
      </trkpt>
      <trkpt lat="45.78642" lon="1.86859">
        <ele>657.4</ele>
        <time>2024-09-15T09:52:28Z</time>
      </trkpt>
      <trkpt lat="45.78642" lon="1.86867">
        <ele>657.2</ele>
        <time>2024-09-15T09:52:29Z</time>
      </trkpt>
      <trkpt lat="45.78643" lon="1.86883">
        <ele>657</ele>
        <time>2024-09-15T09:52:31Z</time>
      </trkpt>
      <trkpt lat="45.78644" lon="1.86914">
        <ele>656.8</ele>
        <time>2024-09-15T09:52:35Z</time>
      </trkpt>
      <trkpt lat="45.78644" lon="1.86921">
        <ele>656.8</ele>
        <time>2024-09-15T09:52:36Z</time>
      </trkpt>
      <trkpt lat="45.78644" lon="1.86928">
        <ele>656.8</ele>
        <time>2024-09-15T09:52:37Z</time>
      </trkpt>
      <trkpt lat="45.78644" lon="1.86935">
        <ele>656.6</ele>
        <time>2024-09-15T09:52:38Z</time>
      </trkpt>
      <trkpt lat="45.78644" lon="1.86954">
        <ele>656.6</ele>
        <time>2024-09-15T09:52:41Z</time>
      </trkpt>
      <trkpt lat="45.78644" lon="1.86965">
        <ele>656.6</ele>
        <time>2024-09-15T09:52:43Z</time>
      </trkpt>
      <trkpt lat="45.78643" lon="1.86969">
        <ele>656.6</ele>
        <time>2024-09-15T09:52:44Z</time>
      </trkpt>
      <trkpt lat="45.78643" lon="1.86973">
        <ele>656.6</ele>
        <time>2024-09-15T09:52:45Z</time>
      </trkpt>
      <trkpt lat="45.78642" lon="1.86975">
        <ele>656.6</ele>
        <time>2024-09-15T09:52:46Z</time>
      </trkpt>
      <trkpt lat="45.78642" lon="1.86976">
        <ele>656.4</ele>
        <time>2024-09-15T09:52:47Z</time>
      </trkpt>
      <trkpt lat="45.78642" lon="1.86976">
        <ele>656.4</ele>
        <time>2024-09-15T09:52:48Z</time>
      </trkpt>
      <trkpt lat="45.78642" lon="1.86976">
        <ele>656.2</ele>
        <time>2024-09-15T09:52:51Z</time>
      </trkpt>
      <trkpt lat="45.78642" lon="1.86976">
        <ele>656.2</ele>
        <time>2024-09-15T09:52:53Z</time>
      </trkpt>
      <trkpt lat="45.78643" lon="1.86976">
        <ele>656</ele>
        <time>2024-09-15T09:53:32Z</time>
      </trkpt>
      <trkpt lat="45.78644" lon="1.86976">
        <ele>656</ele>
        <time>2024-09-15T09:53:33Z</time>
      </trkpt>
      <trkpt lat="45.78644" lon="1.86961">
        <ele>655.8</ele>
        <time>2024-09-15T09:53:38Z</time>
      </trkpt>
      <trkpt lat="45.78645" lon="1.86951">
        <ele>655.6</ele>
        <time>2024-09-15T09:53:41Z</time>
      </trkpt>
      <trkpt lat="45.78645" lon="1.86948">
        <ele>655.6</ele>
        <time>2024-09-15T09:53:42Z</time>
      </trkpt>
      <trkpt lat="45.78645" lon="1.86944">
        <ele>655.6</ele>
        <time>2024-09-15T09:53:43Z</time>
      </trkpt>
      <trkpt lat="45.78645" lon="1.86913">
        <ele>655.4</ele>
        <time>2024-09-15T09:53:50Z</time>
      </trkpt>
      <trkpt lat="45.78643" lon="1.86876">
        <ele>655.4</ele>
        <time>2024-09-15T09:53:58Z</time>
      </trkpt>
      <trkpt lat="45.7864" lon="1.86868">
        <ele>655.4</ele>
        <time>2024-09-15T09:54:00Z</time>
      </trkpt>
      <trkpt lat="45.78639" lon="1.86864">
        <ele>655.4</ele>
        <time>2024-09-15T09:54:01Z</time>
      </trkpt>
      <trkpt lat="45.78639" lon="1.8686">
        <ele>655.6</ele>
        <time>2024-09-15T09:54:02Z</time>
      </trkpt>
      <trkpt lat="45.78638" lon="1.86856">
        <ele>655.6</ele>
        <time>2024-09-15T09:54:03Z</time>
      </trkpt>
      <trkpt lat="45.78637" lon="1.86852">
        <ele>655.6</ele>
        <time>2024-09-15T09:54:04Z</time>
      </trkpt>
      <trkpt lat="45.78636" lon="1.86847">
        <ele>655.8</ele>
        <time>2024-09-15T09:54:05Z</time>
      </trkpt>
      <trkpt lat="45.78637" lon="1.86841">
        <ele>655.8</ele>
        <time>2024-09-15T09:54:06Z</time>
      </trkpt>
      <trkpt lat="45.78637" lon="1.86838">
        <ele>655.8</ele>
        <time>2024-09-15T09:54:07Z</time>
      </trkpt>
      <trkpt lat="45.78638" lon="1.86835">
        <ele>655.8</ele>
        <time>2024-09-15T09:54:08Z</time>
      </trkpt>
      <trkpt lat="45.78637" lon="1.86831">
        <ele>655.8</ele>
        <time>2024-09-15T09:54:09Z</time>
      </trkpt>
      <trkpt lat="45.78637" lon="1.86827">
        <ele>656</ele>
        <time>2024-09-15T09:54:10Z</time>
      </trkpt>
      <trkpt lat="45.78636" lon="1.86822">
        <ele>656.2</ele>
        <time>2024-09-15T09:54:11Z</time>
      </trkpt>
      <trkpt lat="45.78635" lon="1.86817">
        <ele>656.4</ele>
        <time>2024-09-15T09:54:12Z</time>
      </trkpt>
      <trkpt lat="45.78635" lon="1.86813">
        <ele>656.6</ele>
        <time>2024-09-15T09:54:13Z</time>
      </trkpt>
      <trkpt lat="45.78635" lon="1.86811">
        <ele>656.6</ele>
        <time>2024-09-15T09:54:14Z</time>
      </trkpt>
      <trkpt lat="45.78635" lon="1.86808">
        <ele>656.8</ele>
        <time>2024-09-15T09:54:15Z</time>
      </trkpt>
      <trkpt lat="45.78638" lon="1.868">
        <ele>656.8</ele>
        <time>2024-09-15T09:54:17Z</time>
      </trkpt>
      <trkpt lat="45.78639" lon="1.86793">
        <ele>657</ele>
        <time>2024-09-15T09:54:18Z</time>
      </trkpt>
      <trkpt lat="45.78641" lon="1.86781">
        <ele>657.4</ele>
        <time>2024-09-15T09:54:21Z</time>
      </trkpt>
      <trkpt lat="45.78641" lon="1.86778">
        <ele>657.6</ele>
        <time>2024-09-15T09:54:22Z</time>
      </trkpt>
      <trkpt lat="45.78641" lon="1.86774">
        <ele>657.6</ele>
        <time>2024-09-15T09:54:23Z</time>
      </trkpt>
      <trkpt lat="45.78642" lon="1.86771">
        <ele>657.6</ele>
        <time>2024-09-15T09:54:24Z</time>
      </trkpt>
      <trkpt lat="45.78643" lon="1.86763">
        <ele>657.6</ele>
        <time>2024-09-15T09:54:26Z</time>
      </trkpt>
      <trkpt lat="45.78642" lon="1.86758">
        <ele>657.8</ele>
        <time>2024-09-15T09:54:27Z</time>
      </trkpt>
      <trkpt lat="45.78642" lon="1.86752">
        <ele>657.8</ele>
        <time>2024-09-15T09:54:28Z</time>
      </trkpt>
      <trkpt lat="45.78641" lon="1.86744">
        <ele>657.8</ele>
        <time>2024-09-15T09:54:29Z</time>
      </trkpt>
      <trkpt lat="45.78639" lon="1.86734">
        <ele>658</ele>
        <time>2024-09-15T09:54:31Z</time>
      </trkpt>
      <trkpt lat="45.78638" lon="1.8673">
        <ele>658.2</ele>
        <time>2024-09-15T09:54:32Z</time>
      </trkpt>
      <trkpt lat="45.78633" lon="1.86712">
        <ele>658.4</ele>
        <time>2024-09-15T09:54:36Z</time>
      </trkpt>
      <trkpt lat="45.78633" lon="1.86708">
        <ele>658.6</ele>
        <time>2024-09-15T09:54:37Z</time>
      </trkpt>
      <trkpt lat="45.78633" lon="1.86704">
        <ele>658.6</ele>
        <time>2024-09-15T09:54:38Z</time>
      </trkpt>
      <trkpt lat="45.78634" lon="1.867">
        <ele>658.6</ele>
        <time>2024-09-15T09:54:39Z</time>
      </trkpt>
      <trkpt lat="45.78635" lon="1.86696">
        <ele>658.8</ele>
        <time>2024-09-15T09:54:40Z</time>
      </trkpt>
      <trkpt lat="45.78635" lon="1.86692">
        <ele>658.8</ele>
        <time>2024-09-15T09:54:41Z</time>
      </trkpt>
      <trkpt lat="45.78633" lon="1.86687">
        <ele>658.8</ele>
        <time>2024-09-15T09:54:42Z</time>
      </trkpt>
      <trkpt lat="45.78631" lon="1.86682">
        <ele>658.8</ele>
        <time>2024-09-15T09:54:43Z</time>
      </trkpt>
      <trkpt lat="45.7863" lon="1.86677">
        <ele>658.8</ele>
        <time>2024-09-15T09:54:44Z</time>
      </trkpt>
      <trkpt lat="45.78628" lon="1.86668">
        <ele>659</ele>
        <time>2024-09-15T09:54:46Z</time>
      </trkpt>
      <trkpt lat="45.78632" lon="1.86663">
        <ele>659</ele>
        <time>2024-09-15T09:54:47Z</time>
      </trkpt>
      <trkpt lat="45.78632" lon="1.86658">
        <ele>659</ele>
        <time>2024-09-15T09:54:48Z</time>
      </trkpt>
      <trkpt lat="45.78632" lon="1.86653">
        <ele>659.2</ele>
        <time>2024-09-15T09:54:49Z</time>
      </trkpt>
      <trkpt lat="45.78632" lon="1.86649">
        <ele>659.2</ele>
        <time>2024-09-15T09:54:50Z</time>
      </trkpt>
      <trkpt lat="45.78633" lon="1.86645">
        <ele>659.2</ele>
        <time>2024-09-15T09:54:51Z</time>
      </trkpt>
      <trkpt lat="45.78633" lon="1.86638">
        <ele>659.2</ele>
        <time>2024-09-15T09:54:52Z</time>
      </trkpt>
      <trkpt lat="45.78632" lon="1.86633">
        <ele>659.2</ele>
        <time>2024-09-15T09:54:53Z</time>
      </trkpt>
      <trkpt lat="45.7863" lon="1.86613">
        <ele>659.6</ele>
        <time>2024-09-15T09:54:57Z</time>
      </trkpt>
      <trkpt lat="45.7863" lon="1.86606">
        <ele>659.6</ele>
        <time>2024-09-15T09:54:58Z</time>
      </trkpt>
      <trkpt lat="45.78631" lon="1.8659">
        <ele>659.6</ele>
        <time>2024-09-15T09:55:01Z</time>
      </trkpt>
      <trkpt lat="45.78632" lon="1.86585">
        <ele>659.6</ele>
        <time>2024-09-15T09:55:02Z</time>
      </trkpt>
      <trkpt lat="45.78636" lon="1.86573">
        <ele>659.8</ele>
        <time>2024-09-15T09:55:05Z</time>
      </trkpt>
      <trkpt lat="45.7864" lon="1.86565">
        <ele>659.8</ele>
        <time>2024-09-15T09:55:07Z</time>
      </trkpt>
      <trkpt lat="45.78642" lon="1.86561">
        <ele>659.8</ele>
        <time>2024-09-15T09:55:08Z</time>
      </trkpt>
      <trkpt lat="45.78646" lon="1.86554">
        <ele>660</ele>
        <time>2024-09-15T09:55:10Z</time>
      </trkpt>
      <trkpt lat="45.78648" lon="1.86551">
        <ele>660</ele>
        <time>2024-09-15T09:55:11Z</time>
      </trkpt>
      <trkpt lat="45.7865" lon="1.86548">
        <ele>660</ele>
        <time>2024-09-15T09:55:12Z</time>
      </trkpt>
      <trkpt lat="45.78661" lon="1.86529">
        <ele>660.4</ele>
        <time>2024-09-15T09:55:17Z</time>
      </trkpt>
      <trkpt lat="45.78665" lon="1.86522">
        <ele>660.6</ele>
        <time>2024-09-15T09:55:19Z</time>
      </trkpt>
      <trkpt lat="45.78679" lon="1.86498">
        <ele>661.4</ele>
        <time>2024-09-15T09:55:25Z</time>
      </trkpt>
      <trkpt lat="45.78681" lon="1.86494">
        <ele>661.8</ele>
        <time>2024-09-15T09:55:26Z</time>
      </trkpt>
      <trkpt lat="45.78691" lon="1.86473">
        <ele>662.4</ele>
        <time>2024-09-15T09:55:31Z</time>
      </trkpt>
      <trkpt lat="45.78692" lon="1.86462">
        <ele>662.8</ele>
        <time>2024-09-15T09:55:33Z</time>
      </trkpt>
      <trkpt lat="45.78691" lon="1.86457">
        <ele>663.2</ele>
        <time>2024-09-15T09:55:34Z</time>
      </trkpt>
      <trkpt lat="45.7869" lon="1.86451">
        <ele>663.2</ele>
        <time>2024-09-15T09:55:35Z</time>
      </trkpt>
      <trkpt lat="45.78688" lon="1.86446">
        <ele>663.4</ele>
        <time>2024-09-15T09:55:36Z</time>
      </trkpt>
      <trkpt lat="45.78686" lon="1.86441">
        <ele>663.6</ele>
        <time>2024-09-15T09:55:37Z</time>
      </trkpt>
      <trkpt lat="45.78685" lon="1.86436">
        <ele>664</ele>
        <time>2024-09-15T09:55:38Z</time>
      </trkpt>
      <trkpt lat="45.78684" lon="1.8643">
        <ele>664.2</ele>
        <time>2024-09-15T09:55:39Z</time>
      </trkpt>
      <trkpt lat="45.78682" lon="1.86425">
        <ele>664.4</ele>
        <time>2024-09-15T09:55:40Z</time>
      </trkpt>
      <trkpt lat="45.7868" lon="1.8642">
        <ele>664.6</ele>
        <time>2024-09-15T09:55:41Z</time>
      </trkpt>
      <trkpt lat="45.78677" lon="1.86417">
        <ele>664.8</ele>
        <time>2024-09-15T09:55:42Z</time>
      </trkpt>
      <trkpt lat="45.78675" lon="1.86413">
        <ele>665</ele>
        <time>2024-09-15T09:55:43Z</time>
      </trkpt>
      <trkpt lat="45.78672" lon="1.86409">
        <ele>665</ele>
        <time>2024-09-15T09:55:44Z</time>
      </trkpt>
      <trkpt lat="45.78669" lon="1.86405">
        <ele>665.2</ele>
        <time>2024-09-15T09:55:45Z</time>
      </trkpt>
      <trkpt lat="45.78667" lon="1.86401">
        <ele>665.2</ele>
        <time>2024-09-15T09:55:46Z</time>
      </trkpt>
      <trkpt lat="45.78664" lon="1.86396">
        <ele>665.4</ele>
        <time>2024-09-15T09:55:47Z</time>
      </trkpt>
      <trkpt lat="45.7866" lon="1.86391">
        <ele>665.6</ele>
        <time>2024-09-15T09:55:48Z</time>
      </trkpt>
      <trkpt lat="45.78656" lon="1.86387">
        <ele>665.8</ele>
        <time>2024-09-15T09:55:49Z</time>
      </trkpt>
      <trkpt lat="45.78652" lon="1.86382">
        <ele>665.8</ele>
        <time>2024-09-15T09:55:50Z</time>
      </trkpt>
      <trkpt lat="45.78649" lon="1.86378">
        <ele>666</ele>
        <time>2024-09-15T09:55:51Z</time>
      </trkpt>
      <trkpt lat="45.78646" lon="1.86373">
        <ele>666.2</ele>
        <time>2024-09-15T09:55:52Z</time>
      </trkpt>
      <trkpt lat="45.78644" lon="1.86368">
        <ele>666.2</ele>
        <time>2024-09-15T09:55:53Z</time>
      </trkpt>
      <trkpt lat="45.78642" lon="1.86364">
        <ele>666.2</ele>
        <time>2024-09-15T09:55:54Z</time>
      </trkpt>
      <trkpt lat="45.78638" lon="1.8636">
        <ele>666.2</ele>
        <time>2024-09-15T09:55:55Z</time>
      </trkpt>
      <trkpt lat="45.78634" lon="1.86357">
        <ele>666.2</ele>
        <time>2024-09-15T09:55:56Z</time>
      </trkpt>
      <trkpt lat="45.78631" lon="1.86352">
        <ele>666</ele>
        <time>2024-09-15T09:55:57Z</time>
      </trkpt>
      <trkpt lat="45.78628" lon="1.86348">
        <ele>666</ele>
        <time>2024-09-15T09:55:58Z</time>
      </trkpt>
      <trkpt lat="45.78625" lon="1.86345">
        <ele>666</ele>
        <time>2024-09-15T09:55:59Z</time>
      </trkpt>
      <trkpt lat="45.78625" lon="1.8634">
        <ele>666</ele>
        <time>2024-09-15T09:56:00Z</time>
      </trkpt>
      <trkpt lat="45.78626" lon="1.86336">
        <ele>665.8</ele>
        <time>2024-09-15T09:56:01Z</time>
      </trkpt>
      <trkpt lat="45.78625" lon="1.86334">
        <ele>665.8</ele>
        <time>2024-09-15T09:56:02Z</time>
      </trkpt>
      <trkpt lat="45.78625" lon="1.86333">
        <ele>665.8</ele>
        <time>2024-09-15T09:56:03Z</time>
      </trkpt>
      <trkpt lat="45.78625" lon="1.86332">
        <ele>665.6</ele>
        <time>2024-09-15T09:56:04Z</time>
      </trkpt>
      <trkpt lat="45.78625" lon="1.86332">
        <ele>665.6</ele>
        <time>2024-09-15T09:56:05Z</time>
      </trkpt>
      <trkpt lat="45.78625" lon="1.86332">
        <ele>665.6</ele>
        <time>2024-09-15T09:56:06Z</time>
      </trkpt>
      <trkpt lat="45.78625" lon="1.86331">
        <ele>665.4</ele>
        <time>2024-09-15T09:56:09Z</time>
      </trkpt>
      <trkpt lat="45.78625" lon="1.86331">
        <ele>665.4</ele>
        <time>2024-09-15T09:56:10Z</time>
      </trkpt>
      <trkpt lat="45.78625" lon="1.86331">
        <ele>665.4</ele>
        <time>2024-09-15T09:56:12Z</time>
      </trkpt>
      <trkpt lat="45.78624" lon="1.86329">
        <ele>665.2</ele>
        <time>2024-09-15T09:56:16Z</time>
      </trkpt>
      <trkpt lat="45.78623" lon="1.86329">
        <ele>665.8</ele>
        <time>2024-09-15T09:57:27Z</time>
      </trkpt>
      <trkpt lat="45.78622" lon="1.86328">
        <ele>665.8</ele>
        <time>2024-09-15T09:57:28Z</time>
      </trkpt>
      <trkpt lat="45.78622" lon="1.86326">
        <ele>665.8</ele>
        <time>2024-09-15T09:57:29Z</time>
      </trkpt>
      <trkpt lat="45.78622" lon="1.86324">
        <ele>665.6</ele>
        <time>2024-09-15T09:57:32Z</time>
      </trkpt>
      <trkpt lat="45.78622" lon="1.86324">
        <ele>665.6</ele>
        <time>2024-09-15T09:57:33Z</time>
      </trkpt>
      <trkpt lat="45.7862" lon="1.86323">
        <ele>665.2</ele>
        <time>2024-09-15T09:57:39Z</time>
      </trkpt>
      <trkpt lat="45.78614" lon="1.86322">
        <ele>665</ele>
        <time>2024-09-15T09:57:42Z</time>
      </trkpt>
      <trkpt lat="45.78611" lon="1.86322">
        <ele>665</ele>
        <time>2024-09-15T09:57:43Z</time>
      </trkpt>
      <trkpt lat="45.78607" lon="1.86321">
        <ele>665</ele>
        <time>2024-09-15T09:57:45Z</time>
      </trkpt>
      <trkpt lat="45.78606" lon="1.86321">
        <ele>665</ele>
        <time>2024-09-15T09:57:46Z</time>
      </trkpt>
      <trkpt lat="45.78606" lon="1.86321">
        <ele>665</ele>
        <time>2024-09-15T09:57:47Z</time>
      </trkpt>
      <trkpt lat="45.78605" lon="1.86321">
        <ele>665.2</ele>
        <time>2024-09-15T09:57:53Z</time>
      </trkpt>
      <trkpt lat="45.78605" lon="1.86321">
        <ele>665.2</ele>
        <time>2024-09-15T09:57:55Z</time>
      </trkpt>
      <trkpt lat="45.78605" lon="1.86321">
        <ele>665.2</ele>
        <time>2024-09-15T09:57:56Z</time>
      </trkpt>
      <trkpt lat="45.78608" lon="1.86317">
        <ele>665.2</ele>
        <time>2024-09-15T10:02:11Z</time>
      </trkpt>
      <trkpt lat="45.78604" lon="1.86309">
        <ele>665.2</ele>
        <time>2024-09-15T10:02:14Z</time>
      </trkpt>
      <trkpt lat="45.786" lon="1.86297">
        <ele>665.2</ele>
        <time>2024-09-15T10:02:17Z</time>
      </trkpt>
      <trkpt lat="45.78599" lon="1.86292">
        <ele>665</ele>
        <time>2024-09-15T10:02:18Z</time>
      </trkpt>
      <trkpt lat="45.78595" lon="1.86283">
        <ele>665</ele>
        <time>2024-09-15T10:02:20Z</time>
      </trkpt>
      <trkpt lat="45.78588" lon="1.86269">
        <ele>664.6</ele>
        <time>2024-09-15T10:02:23Z</time>
      </trkpt>
      <trkpt lat="45.78583" lon="1.8626">
        <ele>664.4</ele>
        <time>2024-09-15T10:02:25Z</time>
      </trkpt>
      <trkpt lat="45.78578" lon="1.8625">
        <ele>664.2</ele>
        <time>2024-09-15T10:02:27Z</time>
      </trkpt>
      <trkpt lat="45.78563" lon="1.86223">
        <ele>663.4</ele>
        <time>2024-09-15T10:02:32Z</time>
      </trkpt>
      <trkpt lat="45.7856" lon="1.86217">
        <ele>663.2</ele>
        <time>2024-09-15T10:02:33Z</time>
      </trkpt>
      <trkpt lat="45.78556" lon="1.86209">
        <ele>663</ele>
        <time>2024-09-15T10:02:34Z</time>
      </trkpt>
      <trkpt lat="45.78548" lon="1.8618">
        <ele>662.8</ele>
        <time>2024-09-15T10:02:38Z</time>
      </trkpt>
      <trkpt lat="45.78529" lon="1.86121">
        <ele>662.8</ele>
        <time>2024-09-15T10:02:46Z</time>
      </trkpt>
      <trkpt lat="45.78521" lon="1.8611">
        <ele>662.6</ele>
        <time>2024-09-15T10:02:48Z</time>
      </trkpt>
      <trkpt lat="45.78508" lon="1.861">
        <ele>662.2</ele>
        <time>2024-09-15T10:02:50Z</time>
      </trkpt>
      <trkpt lat="45.78496" lon="1.86095">
        <ele>662</ele>
        <time>2024-09-15T10:02:52Z</time>
      </trkpt>
      <trkpt lat="45.7849" lon="1.86094">
        <ele>662</ele>
        <time>2024-09-15T10:02:53Z</time>
      </trkpt>
      <trkpt lat="45.78485" lon="1.86093">
        <ele>661.8</ele>
        <time>2024-09-15T10:02:54Z</time>
      </trkpt>
      <trkpt lat="45.78478" lon="1.86092">
        <ele>661.6</ele>
        <time>2024-09-15T10:02:55Z</time>
      </trkpt>
      <trkpt lat="45.78472" lon="1.86091">
        <ele>661.4</ele>
        <time>2024-09-15T10:02:56Z</time>
      </trkpt>
      <trkpt lat="45.78466" lon="1.86089">
        <ele>661.4</ele>
        <time>2024-09-15T10:02:57Z</time>
      </trkpt>
      <trkpt lat="45.78462" lon="1.86084">
        <ele>661.2</ele>
        <time>2024-09-15T10:02:58Z</time>
      </trkpt>
      <trkpt lat="45.78457" lon="1.86079">
        <ele>661</ele>
        <time>2024-09-15T10:02:59Z</time>
      </trkpt>
      <trkpt lat="45.78452" lon="1.86074">
        <ele>660.8</ele>
        <time>2024-09-15T10:03:00Z</time>
      </trkpt>
      <trkpt lat="45.78448" lon="1.86067">
        <ele>660.4</ele>
        <time>2024-09-15T10:03:01Z</time>
      </trkpt>
      <trkpt lat="45.78443" lon="1.86061">
        <ele>660.2</ele>
        <time>2024-09-15T10:03:02Z</time>
      </trkpt>
      <trkpt lat="45.7844" lon="1.86056">
        <ele>660.2</ele>
        <time>2024-09-15T10:03:03Z</time>
      </trkpt>
      <trkpt lat="45.78437" lon="1.86048">
        <ele>660</ele>
        <time>2024-09-15T10:03:04Z</time>
      </trkpt>
      <trkpt lat="45.78432" lon="1.86041">
        <ele>660</ele>
        <time>2024-09-15T10:03:05Z</time>
      </trkpt>
      <trkpt lat="45.78421" lon="1.86019">
        <ele>659.6</ele>
        <time>2024-09-15T10:03:08Z</time>
      </trkpt>
      <trkpt lat="45.78417" lon="1.86012">
        <ele>659.6</ele>
        <time>2024-09-15T10:03:09Z</time>
      </trkpt>
      <trkpt lat="45.78407" lon="1.8599">
        <ele>659.4</ele>
        <time>2024-09-15T10:03:12Z</time>
      </trkpt>
      <trkpt lat="45.784" lon="1.85974">
        <ele>659.4</ele>
        <time>2024-09-15T10:03:14Z</time>
      </trkpt>
      <trkpt lat="45.78397" lon="1.85968">
        <ele>659.4</ele>
        <time>2024-09-15T10:03:15Z</time>
      </trkpt>
      <trkpt lat="45.7839" lon="1.85954">
        <ele>659.4</ele>
        <time>2024-09-15T10:03:17Z</time>
      </trkpt>
      <trkpt lat="45.78384" lon="1.85938">
        <ele>659.4</ele>
        <time>2024-09-15T10:03:19Z</time>
      </trkpt>
      <trkpt lat="45.78373" lon="1.8592">
        <ele>659.2</ele>
        <time>2024-09-15T10:03:22Z</time>
      </trkpt>
      <trkpt lat="45.78368" lon="1.85916">
        <ele>659</ele>
        <time>2024-09-15T10:03:23Z</time>
      </trkpt>
      <trkpt lat="45.78363" lon="1.85912">
        <ele>659</ele>
        <time>2024-09-15T10:03:24Z</time>
      </trkpt>
      <trkpt lat="45.78358" lon="1.85908">
        <ele>659</ele>
        <time>2024-09-15T10:03:25Z</time>
      </trkpt>
      <trkpt lat="45.78343" lon="1.85897">
        <ele>659</ele>
        <time>2024-09-15T10:03:27Z</time>
      </trkpt>
      <trkpt lat="45.78331" lon="1.85893">
        <ele>659</ele>
        <time>2024-09-15T10:03:29Z</time>
      </trkpt>
      <trkpt lat="45.7832" lon="1.85892">
        <ele>658.6</ele>
        <time>2024-09-15T10:03:31Z</time>
      </trkpt>
      <trkpt lat="45.78306" lon="1.85896">
        <ele>658.4</ele>
        <time>2024-09-15T10:03:33Z</time>
      </trkpt>
      <trkpt lat="45.78299" lon="1.85896">
        <ele>658.2</ele>
        <time>2024-09-15T10:03:34Z</time>
      </trkpt>
      <trkpt lat="45.78296" lon="1.85896">
        <ele>658</ele>
        <time>2024-09-15T10:03:35Z</time>
      </trkpt>
      <trkpt lat="45.7829" lon="1.85896">
        <ele>657.8</ele>
        <time>2024-09-15T10:03:36Z</time>
      </trkpt>
      <trkpt lat="45.78287" lon="1.85896">
        <ele>657.6</ele>
        <time>2024-09-15T10:03:37Z</time>
      </trkpt>
      <trkpt lat="45.78288" lon="1.85897">
        <ele>657.4</ele>
        <time>2024-09-15T10:03:38Z</time>
      </trkpt>
      <trkpt lat="45.78287" lon="1.85898">
        <ele>657.4</ele>
        <time>2024-09-15T10:03:39Z</time>
      </trkpt>
      <trkpt lat="45.78286" lon="1.859">
        <ele>657.2</ele>
        <time>2024-09-15T10:03:40Z</time>
      </trkpt>
      <trkpt lat="45.78286" lon="1.85902">
        <ele>657</ele>
        <time>2024-09-15T10:03:41Z</time>
      </trkpt>
      <trkpt lat="45.78285" lon="1.85904">
        <ele>657</ele>
        <time>2024-09-15T10:03:42Z</time>
      </trkpt>
      <trkpt lat="45.78284" lon="1.85904">
        <ele>657</ele>
        <time>2024-09-15T10:03:43Z</time>
      </trkpt>
      <trkpt lat="45.78282" lon="1.85905">
        <ele>657</ele>
        <time>2024-09-15T10:03:44Z</time>
      </trkpt>
      <trkpt lat="45.78281" lon="1.85906">
        <ele>656.8</ele>
        <time>2024-09-15T10:03:45Z</time>
      </trkpt>
      <trkpt lat="45.78281" lon="1.85906">
        <ele>656.8</ele>
        <time>2024-09-15T10:03:46Z</time>
      </trkpt>
      <trkpt lat="45.7828" lon="1.85907">
        <ele>656.6</ele>
        <time>2024-09-15T10:03:48Z</time>
      </trkpt>
      <trkpt lat="45.78279" lon="1.85908">
        <ele>656.6</ele>
        <time>2024-09-15T10:03:49Z</time>
      </trkpt>
      <trkpt lat="45.78266" lon="1.85923">
        <ele>656.2</ele>
        <time>2024-09-15T10:03:56Z</time>
      </trkpt>
      <trkpt lat="45.78263" lon="1.85925">
        <ele>656.2</ele>
        <time>2024-09-15T10:03:57Z</time>
      </trkpt>
      <trkpt lat="45.78254" lon="1.85934">
        <ele>656.4</ele>
        <time>2024-09-15T10:04:00Z</time>
      </trkpt>
      <trkpt lat="45.78251" lon="1.85937">
        <ele>656.4</ele>
        <time>2024-09-15T10:04:01Z</time>
      </trkpt>
      <trkpt lat="45.78245" lon="1.85943">
        <ele>656.6</ele>
        <time>2024-09-15T10:04:03Z</time>
      </trkpt>
      <trkpt lat="45.7824" lon="1.85946">
        <ele>656.8</ele>
        <time>2024-09-15T10:04:04Z</time>
      </trkpt>
      <trkpt lat="45.78223" lon="1.85956">
        <ele>657.4</ele>
        <time>2024-09-15T10:04:08Z</time>
      </trkpt>
      <trkpt lat="45.78221" lon="1.85959">
        <ele>657.6</ele>
        <time>2024-09-15T10:04:09Z</time>
      </trkpt>
      <trkpt lat="45.78221" lon="1.8596">
        <ele>657.6</ele>
        <time>2024-09-15T10:04:10Z</time>
      </trkpt>
      <trkpt lat="45.78221" lon="1.8596">
        <ele>657.6</ele>
        <time>2024-09-15T10:04:11Z</time>
      </trkpt>
      <trkpt lat="45.78219" lon="1.85963">
        <ele>657.6</ele>
        <time>2024-09-15T10:04:12Z</time>
      </trkpt>
      <trkpt lat="45.78214" lon="1.85968">
        <ele>657.8</ele>
        <time>2024-09-15T10:04:13Z</time>
      </trkpt>
      <trkpt lat="45.78214" lon="1.85969">
        <ele>657.8</ele>
        <time>2024-09-15T10:04:14Z</time>
      </trkpt>
      <trkpt lat="45.78206" lon="1.85976">
        <ele>657.6</ele>
        <time>2024-09-15T10:04:16Z</time>
      </trkpt>
      <trkpt lat="45.78196" lon="1.85986">
        <ele>657.8</ele>
        <time>2024-09-15T10:04:18Z</time>
      </trkpt>
      <trkpt lat="45.78194" lon="1.85988">
        <ele>658</ele>
        <time>2024-09-15T10:04:19Z</time>
      </trkpt>
      <trkpt lat="45.78191" lon="1.8599">
        <ele>658</ele>
        <time>2024-09-15T10:04:20Z</time>
      </trkpt>
      <trkpt lat="45.78172" lon="1.86014">
        <ele>657.6</ele>
        <time>2024-09-15T10:04:25Z</time>
      </trkpt>
      <trkpt lat="45.78158" lon="1.86033">
        <ele>657.6</ele>
        <time>2024-09-15T10:04:31Z</time>
      </trkpt>
      <trkpt lat="45.78156" lon="1.86035">
        <ele>657.8</ele>
        <time>2024-09-15T10:04:32Z</time>
      </trkpt>
      <trkpt lat="45.78153" lon="1.86039">
        <ele>657.8</ele>
        <time>2024-09-15T10:04:33Z</time>
      </trkpt>
      <trkpt lat="45.78149" lon="1.86044">
        <ele>658</ele>
        <time>2024-09-15T10:04:34Z</time>
      </trkpt>
      <trkpt lat="45.78145" lon="1.86049">
        <ele>658</ele>
        <time>2024-09-15T10:04:35Z</time>
      </trkpt>
      <trkpt lat="45.78143" lon="1.86061">
        <ele>658.2</ele>
        <time>2024-09-15T10:04:37Z</time>
      </trkpt>
      <trkpt lat="45.78143" lon="1.86078">
        <ele>658.2</ele>
        <time>2024-09-15T10:04:40Z</time>
      </trkpt>
      <trkpt lat="45.78141" lon="1.86082">
        <ele>658.2</ele>
        <time>2024-09-15T10:04:41Z</time>
      </trkpt>
      <trkpt lat="45.7814" lon="1.86088">
        <ele>658.2</ele>
        <time>2024-09-15T10:04:42Z</time>
      </trkpt>
      <trkpt lat="45.78138" lon="1.86095">
        <ele>658.4</ele>
        <time>2024-09-15T10:04:43Z</time>
      </trkpt>
      <trkpt lat="45.78137" lon="1.861">
        <ele>658.4</ele>
        <time>2024-09-15T10:04:44Z</time>
      </trkpt>
      <trkpt lat="45.78132" lon="1.86129">
        <ele>658.6</ele>
        <time>2024-09-15T10:04:49Z</time>
      </trkpt>
      <trkpt lat="45.78124" lon="1.86165">
        <ele>659</ele>
        <time>2024-09-15T10:04:56Z</time>
      </trkpt>
      <trkpt lat="45.78123" lon="1.86171">
        <ele>659</ele>
        <time>2024-09-15T10:04:57Z</time>
      </trkpt>
      <trkpt lat="45.78122" lon="1.86176">
        <ele>659</ele>
        <time>2024-09-15T10:04:58Z</time>
      </trkpt>
      <trkpt lat="45.78116" lon="1.86206">
        <ele>659.2</ele>
        <time>2024-09-15T10:05:03Z</time>
      </trkpt>
      <trkpt lat="45.78112" lon="1.86225">
        <ele>659.4</ele>
        <time>2024-09-15T10:05:07Z</time>
      </trkpt>
      <trkpt lat="45.7811" lon="1.8623">
        <ele>659.4</ele>
        <time>2024-09-15T10:05:08Z</time>
      </trkpt>
      <trkpt lat="45.78109" lon="1.86232">
        <ele>659.6</ele>
        <time>2024-09-15T10:05:09Z</time>
      </trkpt>
      <trkpt lat="45.78108" lon="1.86234">
        <ele>659.6</ele>
        <time>2024-09-15T10:05:10Z</time>
      </trkpt>
      <trkpt lat="45.78107" lon="1.86238">
        <ele>659.8</ele>
        <time>2024-09-15T10:05:11Z</time>
      </trkpt>
      <trkpt lat="45.78106" lon="1.86243">
        <ele>659.8</ele>
        <time>2024-09-15T10:05:12Z</time>
      </trkpt>
      <trkpt lat="45.78105" lon="1.86247">
        <ele>660</ele>
        <time>2024-09-15T10:05:13Z</time>
      </trkpt>
      <trkpt lat="45.78101" lon="1.8627">
        <ele>660.2</ele>
        <time>2024-09-15T10:05:17Z</time>
      </trkpt>
      <trkpt lat="45.78098" lon="1.86285">
        <ele>660.4</ele>
        <time>2024-09-15T10:05:20Z</time>
      </trkpt>
      <trkpt lat="45.78097" lon="1.8629">
        <ele>660.4</ele>
        <time>2024-09-15T10:05:21Z</time>
      </trkpt>
      <trkpt lat="45.78095" lon="1.86301">
        <ele>660.8</ele>
        <time>2024-09-15T10:05:23Z</time>
      </trkpt>
      <trkpt lat="45.78091" lon="1.86319">
        <ele>661</ele>
        <time>2024-09-15T10:05:26Z</time>
      </trkpt>
      <trkpt lat="45.78088" lon="1.86343">
        <ele>661.4</ele>
        <time>2024-09-15T10:05:30Z</time>
      </trkpt>
      <trkpt lat="45.78086" lon="1.86358">
        <ele>661.6</ele>
        <time>2024-09-15T10:05:33Z</time>
      </trkpt>
      <trkpt lat="45.78085" lon="1.8637">
        <ele>661.6</ele>
        <time>2024-09-15T10:05:35Z</time>
      </trkpt>
      <trkpt lat="45.78086" lon="1.86375">
        <ele>661.6</ele>
        <time>2024-09-15T10:05:36Z</time>
      </trkpt>
      <trkpt lat="45.78086" lon="1.8638">
        <ele>661.6</ele>
        <time>2024-09-15T10:05:37Z</time>
      </trkpt>
      <trkpt lat="45.78086" lon="1.86387">
        <ele>661.6</ele>
        <time>2024-09-15T10:05:38Z</time>
      </trkpt>
      <trkpt lat="45.78084" lon="1.86393">
        <ele>661.8</ele>
        <time>2024-09-15T10:05:39Z</time>
      </trkpt>
      <trkpt lat="45.7808" lon="1.86405">
        <ele>661.8</ele>
        <time>2024-09-15T10:05:41Z</time>
      </trkpt>
      <trkpt lat="45.78078" lon="1.86411">
        <ele>661.8</ele>
        <time>2024-09-15T10:05:42Z</time>
      </trkpt>
      <trkpt lat="45.78077" lon="1.86416">
        <ele>661.8</ele>
        <time>2024-09-15T10:05:43Z</time>
      </trkpt>
      <trkpt lat="45.7807" lon="1.86445">
        <ele>661.8</ele>
        <time>2024-09-15T10:05:48Z</time>
      </trkpt>
      <trkpt lat="45.78069" lon="1.86455">
        <ele>661.8</ele>
        <time>2024-09-15T10:05:50Z</time>
      </trkpt>
      <trkpt lat="45.78063" lon="1.86494">
        <ele>661.4</ele>
        <time>2024-09-15T10:05:58Z</time>
      </trkpt>
      <trkpt lat="45.78063" lon="1.86504">
        <ele>661.4</ele>
        <time>2024-09-15T10:06:00Z</time>
      </trkpt>
      <trkpt lat="45.78063" lon="1.8651">
        <ele>661.4</ele>
        <time>2024-09-15T10:06:01Z</time>
      </trkpt>
      <trkpt lat="45.78062" lon="1.86515">
        <ele>661.6</ele>
        <time>2024-09-15T10:06:02Z</time>
      </trkpt>
      <trkpt lat="45.7806" lon="1.86519">
        <ele>661.6</ele>
        <time>2024-09-15T10:06:03Z</time>
      </trkpt>
      <trkpt lat="45.78059" lon="1.86523">
        <ele>661.6</ele>
        <time>2024-09-15T10:06:04Z</time>
      </trkpt>
      <trkpt lat="45.78058" lon="1.86527">
        <ele>661.8</ele>
        <time>2024-09-15T10:06:05Z</time>
      </trkpt>
      <trkpt lat="45.78056" lon="1.86531">
        <ele>661.8</ele>
        <time>2024-09-15T10:06:06Z</time>
      </trkpt>
      <trkpt lat="45.78054" lon="1.86535">
        <ele>661.8</ele>
        <time>2024-09-15T10:06:07Z</time>
      </trkpt>
      <trkpt lat="45.78052" lon="1.8654">
        <ele>661.8</ele>
        <time>2024-09-15T10:06:08Z</time>
      </trkpt>
      <trkpt lat="45.78044" lon="1.86554">
        <ele>662</ele>
        <time>2024-09-15T10:06:11Z</time>
      </trkpt>
      <trkpt lat="45.78033" lon="1.86568">
        <ele>662.2</ele>
        <time>2024-09-15T10:06:15Z</time>
      </trkpt>
      <trkpt lat="45.78021" lon="1.86581">
        <ele>662</ele>
        <time>2024-09-15T10:06:19Z</time>
      </trkpt>
      <trkpt lat="45.78017" lon="1.86583">
        <ele>662</ele>
        <time>2024-09-15T10:06:20Z</time>
      </trkpt>
      <trkpt lat="45.78014" lon="1.86585">
        <ele>662.2</ele>
        <time>2024-09-15T10:06:21Z</time>
      </trkpt>
      <trkpt lat="45.78011" lon="1.86587">
        <ele>662.4</ele>
        <time>2024-09-15T10:06:22Z</time>
      </trkpt>
      <trkpt lat="45.78008" lon="1.86588">
        <ele>662.4</ele>
        <time>2024-09-15T10:06:23Z</time>
      </trkpt>
      <trkpt lat="45.78004" lon="1.8659">
        <ele>662.6</ele>
        <time>2024-09-15T10:06:24Z</time>
      </trkpt>
      <trkpt lat="45.78001" lon="1.86591">
        <ele>662.6</ele>
        <time>2024-09-15T10:06:25Z</time>
      </trkpt>
      <trkpt lat="45.77997" lon="1.86592">
        <ele>662.6</ele>
        <time>2024-09-15T10:06:26Z</time>
      </trkpt>
      <trkpt lat="45.77993" lon="1.86593">
        <ele>662.6</ele>
        <time>2024-09-15T10:06:27Z</time>
      </trkpt>
      <trkpt lat="45.7799" lon="1.86594">
        <ele>662.6</ele>
        <time>2024-09-15T10:06:28Z</time>
      </trkpt>
      <trkpt lat="45.77979" lon="1.86595">
        <ele>662.8</ele>
        <time>2024-09-15T10:06:31Z</time>
      </trkpt>
      <trkpt lat="45.77969" lon="1.86594">
        <ele>663.2</ele>
        <time>2024-09-15T10:06:34Z</time>
      </trkpt>
      <trkpt lat="45.77965" lon="1.86593">
        <ele>663.2</ele>
        <time>2024-09-15T10:06:35Z</time>
      </trkpt>
      <trkpt lat="45.77962" lon="1.86592">
        <ele>663.6</ele>
        <time>2024-09-15T10:06:36Z</time>
      </trkpt>
      <trkpt lat="45.77948" lon="1.86586">
        <ele>664.6</ele>
        <time>2024-09-15T10:06:40Z</time>
      </trkpt>
      <trkpt lat="45.77941" lon="1.86583">
        <ele>665.4</ele>
        <time>2024-09-15T10:06:42Z</time>
      </trkpt>
      <trkpt lat="45.77935" lon="1.8658">
        <ele>665.8</ele>
        <time>2024-09-15T10:06:44Z</time>
      </trkpt>
      <trkpt lat="45.77931" lon="1.86578">
        <ele>665.8</ele>
        <time>2024-09-15T10:06:45Z</time>
      </trkpt>
      <trkpt lat="45.77928" lon="1.86577">
        <ele>666</ele>
        <time>2024-09-15T10:06:46Z</time>
      </trkpt>
      <trkpt lat="45.77924" lon="1.86575">
        <ele>666.2</ele>
        <time>2024-09-15T10:06:47Z</time>
      </trkpt>
      <trkpt lat="45.77921" lon="1.86572">
        <ele>666.4</ele>
        <time>2024-09-15T10:06:48Z</time>
      </trkpt>
      <trkpt lat="45.77917" lon="1.86569">
        <ele>666.4</ele>
        <time>2024-09-15T10:06:49Z</time>
      </trkpt>
      <trkpt lat="45.77914" lon="1.86565">
        <ele>666.6</ele>
        <time>2024-09-15T10:06:50Z</time>
      </trkpt>
      <trkpt lat="45.7791" lon="1.86562">
        <ele>666.6</ele>
        <time>2024-09-15T10:06:51Z</time>
      </trkpt>
      <trkpt lat="45.77907" lon="1.86558">
        <ele>666.4</ele>
        <time>2024-09-15T10:06:52Z</time>
      </trkpt>
      <trkpt lat="45.77904" lon="1.86553">
        <ele>666.4</ele>
        <time>2024-09-15T10:06:53Z</time>
      </trkpt>
      <trkpt lat="45.77902" lon="1.86549">
        <ele>666.4</ele>
        <time>2024-09-15T10:06:54Z</time>
      </trkpt>
      <trkpt lat="45.77899" lon="1.86545">
        <ele>666.2</ele>
        <time>2024-09-15T10:06:55Z</time>
      </trkpt>
      <trkpt lat="45.77897" lon="1.8654">
        <ele>666.2</ele>
        <time>2024-09-15T10:06:56Z</time>
      </trkpt>
      <trkpt lat="45.77895" lon="1.86535">
        <ele>666</ele>
        <time>2024-09-15T10:06:57Z</time>
      </trkpt>
      <trkpt lat="45.77893" lon="1.86529">
        <ele>666</ele>
        <time>2024-09-15T10:06:58Z</time>
      </trkpt>
      <trkpt lat="45.77891" lon="1.86525">
        <ele>666</ele>
        <time>2024-09-15T10:06:59Z</time>
      </trkpt>
      <trkpt lat="45.7789" lon="1.8652">
        <ele>665.6</ele>
        <time>2024-09-15T10:07:00Z</time>
      </trkpt>
      <trkpt lat="45.77888" lon="1.86514">
        <ele>665.6</ele>
        <time>2024-09-15T10:07:01Z</time>
      </trkpt>
      <trkpt lat="45.77886" lon="1.86508">
        <ele>665.4</ele>
        <time>2024-09-15T10:07:02Z</time>
      </trkpt>
      <trkpt lat="45.7788" lon="1.86482">
        <ele>665.2</ele>
        <time>2024-09-15T10:07:06Z</time>
      </trkpt>
      <trkpt lat="45.77877" lon="1.86475">
        <ele>665.2</ele>
        <time>2024-09-15T10:07:07Z</time>
      </trkpt>
      <trkpt lat="45.7787" lon="1.86451">
        <ele>664.8</ele>
        <time>2024-09-15T10:07:11Z</time>
      </trkpt>
      <trkpt lat="45.77867" lon="1.86447">
        <ele>664.4</ele>
        <time>2024-09-15T10:07:12Z</time>
      </trkpt>
      <trkpt lat="45.77864" lon="1.86442">
        <ele>664.4</ele>
        <time>2024-09-15T10:07:13Z</time>
      </trkpt>
      <trkpt lat="45.77861" lon="1.86437">
        <ele>664.4</ele>
        <time>2024-09-15T10:07:14Z</time>
      </trkpt>
      <trkpt lat="45.77848" lon="1.86423">
        <ele>663.8</ele>
        <time>2024-09-15T10:07:17Z</time>
      </trkpt>
      <trkpt lat="45.7784" lon="1.86416">
        <ele>663.6</ele>
        <time>2024-09-15T10:07:19Z</time>
      </trkpt>
      <trkpt lat="45.7783" lon="1.86406">
        <ele>663.6</ele>
        <time>2024-09-15T10:07:21Z</time>
      </trkpt>
      <trkpt lat="45.77825" lon="1.86402">
        <ele>663.4</ele>
        <time>2024-09-15T10:07:22Z</time>
      </trkpt>
      <trkpt lat="45.7782" lon="1.86398">
        <ele>663.2</ele>
        <time>2024-09-15T10:07:23Z</time>
      </trkpt>
      <trkpt lat="45.77815" lon="1.86393">
        <ele>663.2</ele>
        <time>2024-09-15T10:07:24Z</time>
      </trkpt>
      <trkpt lat="45.77801" lon="1.86381">
        <ele>662.8</ele>
        <time>2024-09-15T10:07:27Z</time>
      </trkpt>
      <trkpt lat="45.77797" lon="1.86379">
        <ele>662.6</ele>
        <time>2024-09-15T10:07:28Z</time>
      </trkpt>
      <trkpt lat="45.77792" lon="1.86378">
        <ele>662.4</ele>
        <time>2024-09-15T10:07:29Z</time>
      </trkpt>
      <trkpt lat="45.77789" lon="1.86378">
        <ele>662</ele>
        <time>2024-09-15T10:07:30Z</time>
      </trkpt>
      <trkpt lat="45.77786" lon="1.86377">
        <ele>661.6</ele>
        <time>2024-09-15T10:07:31Z</time>
      </trkpt>
      <trkpt lat="45.77782" lon="1.86377">
        <ele>660.6</ele>
        <time>2024-09-15T10:07:32Z</time>
      </trkpt>
      <trkpt lat="45.77778" lon="1.86377">
        <ele>660.2</ele>
        <time>2024-09-15T10:07:33Z</time>
      </trkpt>
      <trkpt lat="45.7777" lon="1.86379">
        <ele>659.4</ele>
        <time>2024-09-15T10:07:35Z</time>
      </trkpt>
      <trkpt lat="45.77756" lon="1.86385">
        <ele>658.6</ele>
        <time>2024-09-15T10:07:38Z</time>
      </trkpt>
      <trkpt lat="45.77748" lon="1.8639">
        <ele>658.4</ele>
        <time>2024-09-15T10:07:40Z</time>
      </trkpt>
      <trkpt lat="45.77741" lon="1.86397">
        <ele>658.2</ele>
        <time>2024-09-15T10:07:42Z</time>
      </trkpt>
      <trkpt lat="45.77738" lon="1.86401">
        <ele>658.2</ele>
        <time>2024-09-15T10:07:43Z</time>
      </trkpt>
      <trkpt lat="45.77735" lon="1.86405">
        <ele>658.2</ele>
        <time>2024-09-15T10:07:44Z</time>
      </trkpt>
      <trkpt lat="45.77732" lon="1.86409">
        <ele>658</ele>
        <time>2024-09-15T10:07:45Z</time>
      </trkpt>
      <trkpt lat="45.7773" lon="1.86413">
        <ele>658</ele>
        <time>2024-09-15T10:07:46Z</time>
      </trkpt>
      <trkpt lat="45.77727" lon="1.86417">
        <ele>657.8</ele>
        <time>2024-09-15T10:07:47Z</time>
      </trkpt>
      <trkpt lat="45.77724" lon="1.86422">
        <ele>657.8</ele>
        <time>2024-09-15T10:07:48Z</time>
      </trkpt>
      <trkpt lat="45.77722" lon="1.86427">
        <ele>657.8</ele>
        <time>2024-09-15T10:07:49Z</time>
      </trkpt>
      <trkpt lat="45.7772" lon="1.86432">
        <ele>657.6</ele>
        <time>2024-09-15T10:07:50Z</time>
      </trkpt>
      <trkpt lat="45.77716" lon="1.86452">
        <ele>657.4</ele>
        <time>2024-09-15T10:07:53Z</time>
      </trkpt>
      <trkpt lat="45.77716" lon="1.86459">
        <ele>657.4</ele>
        <time>2024-09-15T10:07:54Z</time>
      </trkpt>
      <trkpt lat="45.77716" lon="1.86466">
        <ele>657.4</ele>
        <time>2024-09-15T10:07:55Z</time>
      </trkpt>
      <trkpt lat="45.77718" lon="1.865">
        <ele>657.4</ele>
        <time>2024-09-15T10:08:00Z</time>
      </trkpt>
      <trkpt lat="45.77719" lon="1.86505">
        <ele>657.4</ele>
        <time>2024-09-15T10:08:01Z</time>
      </trkpt>
      <trkpt lat="45.77719" lon="1.8651">
        <ele>657.4</ele>
        <time>2024-09-15T10:08:02Z</time>
      </trkpt>
      <trkpt lat="45.77719" lon="1.86513">
        <ele>657.4</ele>
        <time>2024-09-15T10:08:03Z</time>
      </trkpt>
      <trkpt lat="45.77718" lon="1.86518">
        <ele>657.6</ele>
        <time>2024-09-15T10:08:04Z</time>
      </trkpt>
      <trkpt lat="45.77718" lon="1.86522">
        <ele>657.6</ele>
        <time>2024-09-15T10:08:05Z</time>
      </trkpt>
      <trkpt lat="45.77719" lon="1.86526">
        <ele>657.6</ele>
        <time>2024-09-15T10:08:06Z</time>
      </trkpt>
      <trkpt lat="45.77721" lon="1.86529">
        <ele>657.8</ele>
        <time>2024-09-15T10:08:07Z</time>
      </trkpt>
      <trkpt lat="45.77723" lon="1.86531">
        <ele>657.8</ele>
        <time>2024-09-15T10:08:08Z</time>
      </trkpt>
      <trkpt lat="45.77725" lon="1.86535">
        <ele>657.8</ele>
        <time>2024-09-15T10:08:09Z</time>
      </trkpt>
      <trkpt lat="45.77726" lon="1.86548">
        <ele>657.8</ele>
        <time>2024-09-15T10:08:12Z</time>
      </trkpt>
      <trkpt lat="45.77726" lon="1.86552">
        <ele>657.8</ele>
        <time>2024-09-15T10:08:13Z</time>
      </trkpt>
      <trkpt lat="45.77725" lon="1.86556">
        <ele>657.8</ele>
        <time>2024-09-15T10:08:14Z</time>
      </trkpt>
      <trkpt lat="45.77725" lon="1.8656">
        <ele>657.8</ele>
        <time>2024-09-15T10:08:15Z</time>
      </trkpt>
      <trkpt lat="45.77726" lon="1.86573">
        <ele>657.8</ele>
        <time>2024-09-15T10:08:18Z</time>
      </trkpt>
      <trkpt lat="45.77728" lon="1.86579">
        <ele>657.8</ele>
        <time>2024-09-15T10:08:19Z</time>
      </trkpt>
      <trkpt lat="45.77731" lon="1.86584">
        <ele>657.8</ele>
        <time>2024-09-15T10:08:20Z</time>
      </trkpt>
      <trkpt lat="45.77734" lon="1.8659">
        <ele>657.6</ele>
        <time>2024-09-15T10:08:21Z</time>
      </trkpt>
      <trkpt lat="45.77737" lon="1.86596">
        <ele>657.6</ele>
        <time>2024-09-15T10:08:22Z</time>
      </trkpt>
      <trkpt lat="45.77739" lon="1.86601">
        <ele>657.6</ele>
        <time>2024-09-15T10:08:23Z</time>
      </trkpt>
      <trkpt lat="45.77741" lon="1.86607">
        <ele>657</ele>
        <time>2024-09-15T10:08:24Z</time>
      </trkpt>
      <trkpt lat="45.77742" lon="1.86612">
        <ele>656.8</ele>
        <time>2024-09-15T10:08:25Z</time>
      </trkpt>
      <trkpt lat="45.77743" lon="1.86616">
        <ele>656.6</ele>
        <time>2024-09-15T10:08:26Z</time>
      </trkpt>
      <trkpt lat="45.77743" lon="1.86619">
        <ele>656.2</ele>
        <time>2024-09-15T10:08:27Z</time>
      </trkpt>
      <trkpt lat="45.77744" lon="1.86621">
        <ele>655.6</ele>
        <time>2024-09-15T10:08:28Z</time>
      </trkpt>
      <trkpt lat="45.77743" lon="1.86621">
        <ele>655.4</ele>
        <time>2024-09-15T10:08:29Z</time>
      </trkpt>
      <trkpt lat="45.77743" lon="1.86621">
        <ele>655.2</ele>
        <time>2024-09-15T10:08:30Z</time>
      </trkpt>
      <trkpt lat="45.77743" lon="1.86624">
        <ele>654</ele>
        <time>2024-09-15T10:08:48Z</time>
      </trkpt>
      <trkpt lat="45.7774" lon="1.86633">
        <ele>654.2</ele>
        <time>2024-09-15T10:08:54Z</time>
      </trkpt>
      <trkpt lat="45.7774" lon="1.86634">
        <ele>654.2</ele>
        <time>2024-09-15T10:08:55Z</time>
      </trkpt>
      <trkpt lat="45.7774" lon="1.86634">
        <ele>654.2</ele>
        <time>2024-09-15T10:08:56Z</time>
      </trkpt>
      <trkpt lat="45.7774" lon="1.86634">
        <ele>654.2</ele>
        <time>2024-09-15T10:08:57Z</time>
      </trkpt>
      <trkpt lat="45.77739" lon="1.86637">
        <ele>654.6</ele>
        <time>2024-09-15T10:09:12Z</time>
      </trkpt>
      <trkpt lat="45.77739" lon="1.86639">
        <ele>654.6</ele>
        <time>2024-09-15T10:09:13Z</time>
      </trkpt>
      <trkpt lat="45.7774" lon="1.86643">
        <ele>654.6</ele>
        <time>2024-09-15T10:09:15Z</time>
      </trkpt>
      <trkpt lat="45.7774" lon="1.86646">
        <ele>654.6</ele>
        <time>2024-09-15T10:09:16Z</time>
      </trkpt>
      <trkpt lat="45.77741" lon="1.86656">
        <ele>654.6</ele>
        <time>2024-09-15T10:09:21Z</time>
      </trkpt>
      <trkpt lat="45.77741" lon="1.86658">
        <ele>654.6</ele>
        <time>2024-09-15T10:09:22Z</time>
      </trkpt>
      <trkpt lat="45.77742" lon="1.8666">
        <ele>654.6</ele>
        <time>2024-09-15T10:09:23Z</time>
      </trkpt>
      <trkpt lat="45.77743" lon="1.86662">
        <ele>654.6</ele>
        <time>2024-09-15T10:09:24Z</time>
      </trkpt>
      <trkpt lat="45.77744" lon="1.86667">
        <ele>654.8</ele>
        <time>2024-09-15T10:09:28Z</time>
      </trkpt>
      <trkpt lat="45.77744" lon="1.86667">
        <ele>654.8</ele>
        <time>2024-09-15T10:09:29Z</time>
      </trkpt>
      <trkpt lat="45.77745" lon="1.86672">
        <ele>654.8</ele>
        <time>2024-09-15T10:09:31Z</time>
      </trkpt>
      <trkpt lat="45.77746" lon="1.86679">
        <ele>654.8</ele>
        <time>2024-09-15T10:09:33Z</time>
      </trkpt>
      <trkpt lat="45.77748" lon="1.86682">
        <ele>654.8</ele>
        <time>2024-09-15T10:09:34Z</time>
      </trkpt>
      <trkpt lat="45.77751" lon="1.86685">
        <ele>654.8</ele>
        <time>2024-09-15T10:09:35Z</time>
      </trkpt>
      <trkpt lat="45.77753" lon="1.86687">
        <ele>654.8</ele>
        <time>2024-09-15T10:09:36Z</time>
      </trkpt>
      <trkpt lat="45.77756" lon="1.8669">
        <ele>655</ele>
        <time>2024-09-15T10:09:37Z</time>
      </trkpt>
      <trkpt lat="45.7776" lon="1.86693">
        <ele>655</ele>
        <time>2024-09-15T10:09:38Z</time>
      </trkpt>
      <trkpt lat="45.77762" lon="1.86696">
        <ele>655</ele>
        <time>2024-09-15T10:09:39Z</time>
      </trkpt>
      <trkpt lat="45.77768" lon="1.867">
        <ele>655</ele>
        <time>2024-09-15T10:09:41Z</time>
      </trkpt>
      <trkpt lat="45.77771" lon="1.86702">
        <ele>655.2</ele>
        <time>2024-09-15T10:09:42Z</time>
      </trkpt>
      <trkpt lat="45.77782" lon="1.86711">
        <ele>655.4</ele>
        <time>2024-09-15T10:09:46Z</time>
      </trkpt>
      <trkpt lat="45.77783" lon="1.86713">
        <ele>655.4</ele>
        <time>2024-09-15T10:09:47Z</time>
      </trkpt>
      <trkpt lat="45.77784" lon="1.86716">
        <ele>655.4</ele>
        <time>2024-09-15T10:09:48Z</time>
      </trkpt>
      <trkpt lat="45.77783" lon="1.86718">
        <ele>655.4</ele>
        <time>2024-09-15T10:09:49Z</time>
      </trkpt>
      <trkpt lat="45.77784" lon="1.86719">
        <ele>655.6</ele>
        <time>2024-09-15T10:09:50Z</time>
      </trkpt>
      <trkpt lat="45.77784" lon="1.86721">
        <ele>655.6</ele>
        <time>2024-09-15T10:09:51Z</time>
      </trkpt>
      <trkpt lat="45.77785" lon="1.86723">
        <ele>655.6</ele>
        <time>2024-09-15T10:09:52Z</time>
      </trkpt>
      <trkpt lat="45.77785" lon="1.86726">
        <ele>655.6</ele>
        <time>2024-09-15T10:09:53Z</time>
      </trkpt>
      <trkpt lat="45.77788" lon="1.86748">
        <ele>655.6</ele>
        <time>2024-09-15T10:09:58Z</time>
      </trkpt>
      <trkpt lat="45.77788" lon="1.86753">
        <ele>655.6</ele>
        <time>2024-09-15T10:09:59Z</time>
      </trkpt>
      <trkpt lat="45.77783" lon="1.86775">
        <ele>656.2</ele>
        <time>2024-09-15T10:10:04Z</time>
      </trkpt>
      <trkpt lat="45.77783" lon="1.86795">
        <ele>657.4</ele>
        <time>2024-09-15T10:10:08Z</time>
      </trkpt>
      <trkpt lat="45.77782" lon="1.86798">
        <ele>657.6</ele>
        <time>2024-09-15T10:10:09Z</time>
      </trkpt>
      <trkpt lat="45.77781" lon="1.86801">
        <ele>657.8</ele>
        <time>2024-09-15T10:10:10Z</time>
      </trkpt>
      <trkpt lat="45.77779" lon="1.86803">
        <ele>658</ele>
        <time>2024-09-15T10:10:11Z</time>
      </trkpt>
      <trkpt lat="45.77778" lon="1.86805">
        <ele>658.2</ele>
        <time>2024-09-15T10:10:12Z</time>
      </trkpt>
      <trkpt lat="45.77776" lon="1.86807">
        <ele>658.2</ele>
        <time>2024-09-15T10:10:13Z</time>
      </trkpt>
      <trkpt lat="45.77775" lon="1.86809">
        <ele>658.6</ele>
        <time>2024-09-15T10:10:14Z</time>
      </trkpt>
      <trkpt lat="45.77773" lon="1.8681">
        <ele>659.2</ele>
        <time>2024-09-15T10:10:15Z</time>
      </trkpt>
      <trkpt lat="45.77772" lon="1.86812">
        <ele>659.4</ele>
        <time>2024-09-15T10:10:16Z</time>
      </trkpt>
      <trkpt lat="45.77771" lon="1.86815">
        <ele>659.6</ele>
        <time>2024-09-15T10:10:17Z</time>
      </trkpt>
      <trkpt lat="45.7777" lon="1.86818">
        <ele>659.8</ele>
        <time>2024-09-15T10:10:18Z</time>
      </trkpt>
      <trkpt lat="45.77769" lon="1.86823">
        <ele>660</ele>
        <time>2024-09-15T10:10:19Z</time>
      </trkpt>
      <trkpt lat="45.77767" lon="1.86828">
        <ele>660.2</ele>
        <time>2024-09-15T10:10:20Z</time>
      </trkpt>
      <trkpt lat="45.77766" lon="1.86833">
        <ele>660.2</ele>
        <time>2024-09-15T10:10:21Z</time>
      </trkpt>
      <trkpt lat="45.77765" lon="1.86839">
        <ele>660.2</ele>
        <time>2024-09-15T10:10:22Z</time>
      </trkpt>
      <trkpt lat="45.77765" lon="1.86844">
        <ele>660.4</ele>
        <time>2024-09-15T10:10:23Z</time>
      </trkpt>
      <trkpt lat="45.77765" lon="1.86849">
        <ele>660.4</ele>
        <time>2024-09-15T10:10:24Z</time>
      </trkpt>
      <trkpt lat="45.77765" lon="1.86854">
        <ele>660.4</ele>
        <time>2024-09-15T10:10:25Z</time>
      </trkpt>
      <trkpt lat="45.77765" lon="1.86858">
        <ele>660.4</ele>
        <time>2024-09-15T10:10:26Z</time>
      </trkpt>
      <trkpt lat="45.77764" lon="1.86862">
        <ele>660.2</ele>
        <time>2024-09-15T10:10:27Z</time>
      </trkpt>
      <trkpt lat="45.77763" lon="1.86864">
        <ele>660</ele>
        <time>2024-09-15T10:10:28Z</time>
      </trkpt>
      <trkpt lat="45.77761" lon="1.86867">
        <ele>660</ele>
        <time>2024-09-15T10:10:29Z</time>
      </trkpt>
      <trkpt lat="45.7776" lon="1.86868">
        <ele>659.6</ele>
        <time>2024-09-15T10:10:30Z</time>
      </trkpt>
      <trkpt lat="45.7776" lon="1.86869">
        <ele>659.4</ele>
        <time>2024-09-15T10:10:31Z</time>
      </trkpt>
      <trkpt lat="45.77759" lon="1.8687">
        <ele>658.8</ele>
        <time>2024-09-15T10:10:33Z</time>
      </trkpt>
      <trkpt lat="45.77758" lon="1.86872">
        <ele>658.2</ele>
        <time>2024-09-15T10:10:34Z</time>
      </trkpt>
      <trkpt lat="45.77757" lon="1.86873">
        <ele>657.8</ele>
        <time>2024-09-15T10:10:35Z</time>
      </trkpt>
      <trkpt lat="45.77754" lon="1.86875">
        <ele>657</ele>
        <time>2024-09-15T10:10:37Z</time>
      </trkpt>
      <trkpt lat="45.77752" lon="1.86876">
        <ele>656.6</ele>
        <time>2024-09-15T10:10:38Z</time>
      </trkpt>
      <trkpt lat="45.7775" lon="1.86877">
        <ele>656.4</ele>
        <time>2024-09-15T10:10:39Z</time>
      </trkpt>
      <trkpt lat="45.77746" lon="1.86879">
        <ele>656</ele>
        <time>2024-09-15T10:10:41Z</time>
      </trkpt>
      <trkpt lat="45.77735" lon="1.86883">
        <ele>655.6</ele>
        <time>2024-09-15T10:10:45Z</time>
      </trkpt>
      <trkpt lat="45.77718" lon="1.86887">
        <ele>655.2</ele>
        <time>2024-09-15T10:10:49Z</time>
      </trkpt>
      <trkpt lat="45.77714" lon="1.8689">
        <ele>655</ele>
        <time>2024-09-15T10:10:51Z</time>
      </trkpt>
      <trkpt lat="45.77713" lon="1.86892">
        <ele>654.8</ele>
        <time>2024-09-15T10:10:52Z</time>
      </trkpt>
      <trkpt lat="45.77712" lon="1.86896">
        <ele>654.8</ele>
        <time>2024-09-15T10:10:53Z</time>
      </trkpt>
      <trkpt lat="45.77712" lon="1.86901">
        <ele>654.6</ele>
        <time>2024-09-15T10:10:54Z</time>
      </trkpt>
      <trkpt lat="45.77711" lon="1.86912">
        <ele>654.4</ele>
        <time>2024-09-15T10:10:56Z</time>
      </trkpt>
      <trkpt lat="45.7771" lon="1.86925">
        <ele>654.4</ele>
        <time>2024-09-15T10:10:58Z</time>
      </trkpt>
      <trkpt lat="45.77713" lon="1.8695">
        <ele>654.4</ele>
        <time>2024-09-15T10:11:02Z</time>
      </trkpt>
      <trkpt lat="45.77715" lon="1.86957">
        <ele>654.6</ele>
        <time>2024-09-15T10:11:03Z</time>
      </trkpt>
      <trkpt lat="45.77718" lon="1.86999">
        <ele>655</ele>
        <time>2024-09-15T10:11:09Z</time>
      </trkpt>
      <trkpt lat="45.77721" lon="1.87011">
        <ele>655</ele>
        <time>2024-09-15T10:11:11Z</time>
      </trkpt>
      <trkpt lat="45.77726" lon="1.8703">
        <ele>655.2</ele>
        <time>2024-09-15T10:11:14Z</time>
      </trkpt>
      <trkpt lat="45.7773" lon="1.87039">
        <ele>655.4</ele>
        <time>2024-09-15T10:11:16Z</time>
      </trkpt>
      <trkpt lat="45.77732" lon="1.87043">
        <ele>655.4</ele>
        <time>2024-09-15T10:11:17Z</time>
      </trkpt>
      <trkpt lat="45.77734" lon="1.87047">
        <ele>655.6</ele>
        <time>2024-09-15T10:11:18Z</time>
      </trkpt>
      <trkpt lat="45.77735" lon="1.8705">
        <ele>655.8</ele>
        <time>2024-09-15T10:11:19Z</time>
      </trkpt>
      <trkpt lat="45.77736" lon="1.87054">
        <ele>656</ele>
        <time>2024-09-15T10:11:20Z</time>
      </trkpt>
      <trkpt lat="45.77737" lon="1.87057">
        <ele>656</ele>
        <time>2024-09-15T10:11:21Z</time>
      </trkpt>
      <trkpt lat="45.77738" lon="1.87059">
        <ele>656.2</ele>
        <time>2024-09-15T10:11:22Z</time>
      </trkpt>
      <trkpt lat="45.7774" lon="1.87062">
        <ele>656.4</ele>
        <time>2024-09-15T10:11:23Z</time>
      </trkpt>
      <trkpt lat="45.77742" lon="1.87064">
        <ele>656.6</ele>
        <time>2024-09-15T10:11:24Z</time>
      </trkpt>
      <trkpt lat="45.77746" lon="1.8707">
        <ele>657</ele>
        <time>2024-09-15T10:11:26Z</time>
      </trkpt>
      <trkpt lat="45.77748" lon="1.87071">
        <ele>657.2</ele>
        <time>2024-09-15T10:11:27Z</time>
      </trkpt>
      <trkpt lat="45.77754" lon="1.87074">
        <ele>657.6</ele>
        <time>2024-09-15T10:11:29Z</time>
      </trkpt>
      <trkpt lat="45.77757" lon="1.87076">
        <ele>657.8</ele>
        <time>2024-09-15T10:11:30Z</time>
      </trkpt>
      <trkpt lat="45.77764" lon="1.87079">
        <ele>657.8</ele>
        <time>2024-09-15T10:11:32Z</time>
      </trkpt>
      <trkpt lat="45.77768" lon="1.8708">
        <ele>657.8</ele>
        <time>2024-09-15T10:11:33Z</time>
      </trkpt>
      <trkpt lat="45.77772" lon="1.8708">
        <ele>657.8</ele>
        <time>2024-09-15T10:11:34Z</time>
      </trkpt>
      <trkpt lat="45.77776" lon="1.87081">
        <ele>658.2</ele>
        <time>2024-09-15T10:11:35Z</time>
      </trkpt>
      <trkpt lat="45.7778" lon="1.87081">
        <ele>658</ele>
        <time>2024-09-15T10:11:36Z</time>
      </trkpt>
      <trkpt lat="45.77784" lon="1.87081">
        <ele>658</ele>
        <time>2024-09-15T10:11:37Z</time>
      </trkpt>
      <trkpt lat="45.77789" lon="1.87081">
        <ele>658</ele>
        <time>2024-09-15T10:11:38Z</time>
      </trkpt>
      <trkpt lat="45.77795" lon="1.8708">
        <ele>657.8</ele>
        <time>2024-09-15T10:11:39Z</time>
      </trkpt>
      <trkpt lat="45.77802" lon="1.8708">
        <ele>657.8</ele>
        <time>2024-09-15T10:11:40Z</time>
      </trkpt>
      <trkpt lat="45.77807" lon="1.87081">
        <ele>657.4</ele>
        <time>2024-09-15T10:11:41Z</time>
      </trkpt>
      <trkpt lat="45.77813" lon="1.87083">
        <ele>657.4</ele>
        <time>2024-09-15T10:11:42Z</time>
      </trkpt>
      <trkpt lat="45.77825" lon="1.87086">
        <ele>657</ele>
        <time>2024-09-15T10:11:44Z</time>
      </trkpt>
      <trkpt lat="45.77831" lon="1.87086">
        <ele>657</ele>
        <time>2024-09-15T10:11:45Z</time>
      </trkpt>
      <trkpt lat="45.77837" lon="1.87086">
        <ele>657</ele>
        <time>2024-09-15T10:11:46Z</time>
      </trkpt>
      <trkpt lat="45.77868" lon="1.8708">
        <ele>657.2</ele>
        <time>2024-09-15T10:11:51Z</time>
      </trkpt>
      <trkpt lat="45.77894" lon="1.8708">
        <ele>657</ele>
        <time>2024-09-15T10:11:55Z</time>
      </trkpt>
      <trkpt lat="45.77909" lon="1.8708">
        <ele>657</ele>
        <time>2024-09-15T10:11:57Z</time>
      </trkpt>
      <trkpt lat="45.77933" lon="1.87083">
        <ele>656.4</ele>
        <time>2024-09-15T10:12:01Z</time>
      </trkpt>
      <trkpt lat="45.77944" lon="1.87083">
        <ele>656</ele>
        <time>2024-09-15T10:12:03Z</time>
      </trkpt>
      <trkpt lat="45.77954" lon="1.87084">
        <ele>655.8</ele>
        <time>2024-09-15T10:12:05Z</time>
      </trkpt>
      <trkpt lat="45.77959" lon="1.87084">
        <ele>655.8</ele>
        <time>2024-09-15T10:12:06Z</time>
      </trkpt>
      <trkpt lat="45.77963" lon="1.87085">
        <ele>655.6</ele>
        <time>2024-09-15T10:12:07Z</time>
      </trkpt>
      <trkpt lat="45.77967" lon="1.87087">
        <ele>655.4</ele>
        <time>2024-09-15T10:12:08Z</time>
      </trkpt>
      <trkpt lat="45.77972" lon="1.87088">
        <ele>655.4</ele>
        <time>2024-09-15T10:12:09Z</time>
      </trkpt>
      <trkpt lat="45.77976" lon="1.87089">
        <ele>655.4</ele>
        <time>2024-09-15T10:12:10Z</time>
      </trkpt>
      <trkpt lat="45.7798" lon="1.87091">
        <ele>655.4</ele>
        <time>2024-09-15T10:12:11Z</time>
      </trkpt>
      <trkpt lat="45.77985" lon="1.87095">
        <ele>655.4</ele>
        <time>2024-09-15T10:12:12Z</time>
      </trkpt>
      <trkpt lat="45.77989" lon="1.87098">
        <ele>655.2</ele>
        <time>2024-09-15T10:12:13Z</time>
      </trkpt>
      <trkpt lat="45.77992" lon="1.87102">
        <ele>655.2</ele>
        <time>2024-09-15T10:12:14Z</time>
      </trkpt>
      <trkpt lat="45.77996" lon="1.87107">
        <ele>655</ele>
        <time>2024-09-15T10:12:16Z</time>
      </trkpt>
      <trkpt lat="45.77999" lon="1.87109">
        <ele>655</ele>
        <time>2024-09-15T10:12:17Z</time>
      </trkpt>
      <trkpt lat="45.78002" lon="1.87111">
        <ele>654.8</ele>
        <time>2024-09-15T10:12:18Z</time>
      </trkpt>
      <trkpt lat="45.78006" lon="1.87113">
        <ele>654.8</ele>
        <time>2024-09-15T10:12:19Z</time>
      </trkpt>
      <trkpt lat="45.78007" lon="1.87115">
        <ele>655</ele>
        <time>2024-09-15T10:12:20Z</time>
      </trkpt>
      <trkpt lat="45.78009" lon="1.87117">
        <ele>655.2</ele>
        <time>2024-09-15T10:12:21Z</time>
      </trkpt>
      <trkpt lat="45.78011" lon="1.87118">
        <ele>655.2</ele>
        <time>2024-09-15T10:12:22Z</time>
      </trkpt>
      <trkpt lat="45.78013" lon="1.87119">
        <ele>655.2</ele>
        <time>2024-09-15T10:12:23Z</time>
      </trkpt>
      <trkpt lat="45.78015" lon="1.8712">
        <ele>655.2</ele>
        <time>2024-09-15T10:12:24Z</time>
      </trkpt>
      <trkpt lat="45.78017" lon="1.87122">
        <ele>655</ele>
        <time>2024-09-15T10:12:25Z</time>
      </trkpt>
      <trkpt lat="45.78023" lon="1.87127">
        <ele>655</ele>
        <time>2024-09-15T10:12:27Z</time>
      </trkpt>
      <trkpt lat="45.78032" lon="1.87139">
        <ele>655</ele>
        <time>2024-09-15T10:12:30Z</time>
      </trkpt>
      <trkpt lat="45.78035" lon="1.87143">
        <ele>655</ele>
        <time>2024-09-15T10:12:31Z</time>
      </trkpt>
      <trkpt lat="45.78037" lon="1.87146">
        <ele>655</ele>
        <time>2024-09-15T10:12:32Z</time>
      </trkpt>
      <trkpt lat="45.78039" lon="1.87148">
        <ele>655</ele>
        <time>2024-09-15T10:12:33Z</time>
      </trkpt>
      <trkpt lat="45.78042" lon="1.87154">
        <ele>655</ele>
        <time>2024-09-15T10:12:35Z</time>
      </trkpt>
      <trkpt lat="45.78044" lon="1.87156">
        <ele>655</ele>
        <time>2024-09-15T10:12:36Z</time>
      </trkpt>
      <trkpt lat="45.78045" lon="1.87158">
        <ele>655.2</ele>
        <time>2024-09-15T10:12:37Z</time>
      </trkpt>
      <trkpt lat="45.78045" lon="1.87159">
        <ele>655.2</ele>
        <time>2024-09-15T10:12:38Z</time>
      </trkpt>
      <trkpt lat="45.78045" lon="1.87162">
        <ele>655.2</ele>
        <time>2024-09-15T10:12:39Z</time>
      </trkpt>
      <trkpt lat="45.78045" lon="1.87164">
        <ele>655.4</ele>
        <time>2024-09-15T10:12:40Z</time>
      </trkpt>
      <trkpt lat="45.78046" lon="1.87167">
        <ele>655.4</ele>
        <time>2024-09-15T10:12:41Z</time>
      </trkpt>
      <trkpt lat="45.78046" lon="1.8717">
        <ele>655.6</ele>
        <time>2024-09-15T10:12:42Z</time>
      </trkpt>
      <trkpt lat="45.78047" lon="1.87173">
        <ele>655.6</ele>
        <time>2024-09-15T10:12:43Z</time>
      </trkpt>
      <trkpt lat="45.78047" lon="1.87175">
        <ele>655.8</ele>
        <time>2024-09-15T10:12:44Z</time>
      </trkpt>
      <trkpt lat="45.78049" lon="1.87179">
        <ele>656</ele>
        <time>2024-09-15T10:12:46Z</time>
      </trkpt>
      <trkpt lat="45.78051" lon="1.87182">
        <ele>656.2</ele>
        <time>2024-09-15T10:12:47Z</time>
      </trkpt>
      <trkpt lat="45.78053" lon="1.87186">
        <ele>656.2</ele>
        <time>2024-09-15T10:12:48Z</time>
      </trkpt>
      <trkpt lat="45.78056" lon="1.87191">
        <ele>656.2</ele>
        <time>2024-09-15T10:12:49Z</time>
      </trkpt>
      <trkpt lat="45.7806" lon="1.87201">
        <ele>656.4</ele>
        <time>2024-09-15T10:12:52Z</time>
      </trkpt>
      <trkpt lat="45.78059" lon="1.87203">
        <ele>656.4</ele>
        <time>2024-09-15T10:12:53Z</time>
      </trkpt>
      <trkpt lat="45.78059" lon="1.87206">
        <ele>656.4</ele>
        <time>2024-09-15T10:12:54Z</time>
      </trkpt>
      <trkpt lat="45.78058" lon="1.8721">
        <ele>656.4</ele>
        <time>2024-09-15T10:12:55Z</time>
      </trkpt>
      <trkpt lat="45.78057" lon="1.87214">
        <ele>656.4</ele>
        <time>2024-09-15T10:12:56Z</time>
      </trkpt>
      <trkpt lat="45.78055" lon="1.87218">
        <ele>656.4</ele>
        <time>2024-09-15T10:12:57Z</time>
      </trkpt>
      <trkpt lat="45.78052" lon="1.87226">
        <ele>656.6</ele>
        <time>2024-09-15T10:12:59Z</time>
      </trkpt>
      <trkpt lat="45.78053" lon="1.87229">
        <ele>657.2</ele>
        <time>2024-09-15T10:13:01Z</time>
      </trkpt>
      <trkpt lat="45.78053" lon="1.87231">
        <ele>657.4</ele>
        <time>2024-09-15T10:13:02Z</time>
      </trkpt>
      <trkpt lat="45.78053" lon="1.87234">
        <ele>657.4</ele>
        <time>2024-09-15T10:13:03Z</time>
      </trkpt>
      <trkpt lat="45.78053" lon="1.87237">
        <ele>657.6</ele>
        <time>2024-09-15T10:13:04Z</time>
      </trkpt>
      <trkpt lat="45.78052" lon="1.87241">
        <ele>657.8</ele>
        <time>2024-09-15T10:13:05Z</time>
      </trkpt>
      <trkpt lat="45.78052" lon="1.87246">
        <ele>657.8</ele>
        <time>2024-09-15T10:13:06Z</time>
      </trkpt>
      <trkpt lat="45.78052" lon="1.87251">
        <ele>658</ele>
        <time>2024-09-15T10:13:07Z</time>
      </trkpt>
      <trkpt lat="45.78054" lon="1.87259">
        <ele>658.2</ele>
        <time>2024-09-15T10:13:09Z</time>
      </trkpt>
      <trkpt lat="45.78053" lon="1.87273">
        <ele>659.4</ele>
        <time>2024-09-15T10:13:13Z</time>
      </trkpt>
      <trkpt lat="45.78053" lon="1.87276">
        <ele>659.6</ele>
        <time>2024-09-15T10:13:14Z</time>
      </trkpt>
      <trkpt lat="45.78053" lon="1.87278">
        <ele>660</ele>
        <time>2024-09-15T10:13:15Z</time>
      </trkpt>
      <trkpt lat="45.78054" lon="1.87281">
        <ele>660.2</ele>
        <time>2024-09-15T10:13:16Z</time>
      </trkpt>
      <trkpt lat="45.78055" lon="1.87284">
        <ele>660.6</ele>
        <time>2024-09-15T10:13:17Z</time>
      </trkpt>
      <trkpt lat="45.78055" lon="1.87286">
        <ele>660.6</ele>
        <time>2024-09-15T10:13:18Z</time>
      </trkpt>
      <trkpt lat="45.78055" lon="1.87289">
        <ele>660.8</ele>
        <time>2024-09-15T10:13:19Z</time>
      </trkpt>
      <trkpt lat="45.78056" lon="1.87292">
        <ele>661</ele>
        <time>2024-09-15T10:13:20Z</time>
      </trkpt>
      <trkpt lat="45.78056" lon="1.87294">
        <ele>661.2</ele>
        <time>2024-09-15T10:13:21Z</time>
      </trkpt>
      <trkpt lat="45.78056" lon="1.87296">
        <ele>661.2</ele>
        <time>2024-09-15T10:13:22Z</time>
      </trkpt>
      <trkpt lat="45.78055" lon="1.87298">
        <ele>661.2</ele>
        <time>2024-09-15T10:13:23Z</time>
      </trkpt>
      <trkpt lat="45.78055" lon="1.873">
        <ele>661.4</ele>
        <time>2024-09-15T10:13:24Z</time>
      </trkpt>
      <trkpt lat="45.78054" lon="1.87302">
        <ele>661.6</ele>
        <time>2024-09-15T10:13:25Z</time>
      </trkpt>
      <trkpt lat="45.78054" lon="1.87304">
        <ele>661.8</ele>
        <time>2024-09-15T10:13:26Z</time>
      </trkpt>
      <trkpt lat="45.78054" lon="1.87306">
        <ele>662</ele>
        <time>2024-09-15T10:13:27Z</time>
      </trkpt>
      <trkpt lat="45.78054" lon="1.87307">
        <ele>662</ele>
        <time>2024-09-15T10:13:28Z</time>
      </trkpt>
      <trkpt lat="45.78053" lon="1.87309">
        <ele>662.2</ele>
        <time>2024-09-15T10:13:29Z</time>
      </trkpt>
      <trkpt lat="45.78053" lon="1.87311">
        <ele>662.2</ele>
        <time>2024-09-15T10:13:30Z</time>
      </trkpt>
      <trkpt lat="45.78053" lon="1.87314">
        <ele>662.4</ele>
        <time>2024-09-15T10:13:31Z</time>
      </trkpt>
      <trkpt lat="45.78053" lon="1.87316">
        <ele>662.4</ele>
        <time>2024-09-15T10:13:32Z</time>
      </trkpt>
      <trkpt lat="45.78054" lon="1.8732">
        <ele>662.4</ele>
        <time>2024-09-15T10:13:33Z</time>
      </trkpt>
      <trkpt lat="45.78055" lon="1.87323">
        <ele>662.6</ele>
        <time>2024-09-15T10:13:34Z</time>
      </trkpt>
      <trkpt lat="45.78056" lon="1.87326">
        <ele>662.6</ele>
        <time>2024-09-15T10:13:35Z</time>
      </trkpt>
      <trkpt lat="45.78057" lon="1.87329">
        <ele>662.6</ele>
        <time>2024-09-15T10:13:36Z</time>
      </trkpt>
      <trkpt lat="45.78058" lon="1.87331">
        <ele>662.8</ele>
        <time>2024-09-15T10:13:37Z</time>
      </trkpt>
      <trkpt lat="45.78058" lon="1.87334">
        <ele>662.8</ele>
        <time>2024-09-15T10:13:38Z</time>
      </trkpt>
      <trkpt lat="45.78058" lon="1.87337">
        <ele>662.8</ele>
        <time>2024-09-15T10:13:39Z</time>
      </trkpt>
      <trkpt lat="45.78058" lon="1.87341">
        <ele>663</ele>
        <time>2024-09-15T10:13:40Z</time>
      </trkpt>
      <trkpt lat="45.78058" lon="1.87346">
        <ele>663</ele>
        <time>2024-09-15T10:13:41Z</time>
      </trkpt>
      <trkpt lat="45.78059" lon="1.8735">
        <ele>663.2</ele>
        <time>2024-09-15T10:13:42Z</time>
      </trkpt>
      <trkpt lat="45.78059" lon="1.87355">
        <ele>663.6</ele>
        <time>2024-09-15T10:13:43Z</time>
      </trkpt>
      <trkpt lat="45.7806" lon="1.87358">
        <ele>663.8</ele>
        <time>2024-09-15T10:13:44Z</time>
      </trkpt>
      <trkpt lat="45.78061" lon="1.87362">
        <ele>664</ele>
        <time>2024-09-15T10:13:45Z</time>
      </trkpt>
      <trkpt lat="45.78061" lon="1.87366">
        <ele>664</ele>
        <time>2024-09-15T10:13:46Z</time>
      </trkpt>
      <trkpt lat="45.7806" lon="1.87368">
        <ele>664</ele>
        <time>2024-09-15T10:13:47Z</time>
      </trkpt>
      <trkpt lat="45.7806" lon="1.8737">
        <ele>664.2</ele>
        <time>2024-09-15T10:13:48Z</time>
      </trkpt>
      <trkpt lat="45.7806" lon="1.87372">
        <ele>664.4</ele>
        <time>2024-09-15T10:13:49Z</time>
      </trkpt>
      <trkpt lat="45.7806" lon="1.87375">
        <ele>664.4</ele>
        <time>2024-09-15T10:13:50Z</time>
      </trkpt>
      <trkpt lat="45.78061" lon="1.87376">
        <ele>664.8</ele>
        <time>2024-09-15T10:13:51Z</time>
      </trkpt>
      <trkpt lat="45.78061" lon="1.87376">
        <ele>665</ele>
        <time>2024-09-15T10:13:52Z</time>
      </trkpt>
      <trkpt lat="45.78062" lon="1.87378">
        <ele>665</ele>
        <time>2024-09-15T10:13:53Z</time>
      </trkpt>
      <trkpt lat="45.78063" lon="1.8738">
        <ele>665.2</ele>
        <time>2024-09-15T10:13:54Z</time>
      </trkpt>
      <trkpt lat="45.78063" lon="1.87382">
        <ele>665.4</ele>
        <time>2024-09-15T10:13:55Z</time>
      </trkpt>
      <trkpt lat="45.78062" lon="1.87384">
        <ele>665.6</ele>
        <time>2024-09-15T10:13:56Z</time>
      </trkpt>
      <trkpt lat="45.78062" lon="1.87387">
        <ele>665.8</ele>
        <time>2024-09-15T10:13:57Z</time>
      </trkpt>
      <trkpt lat="45.7806" lon="1.8739">
        <ele>666</ele>
        <time>2024-09-15T10:13:58Z</time>
      </trkpt>
      <trkpt lat="45.7806" lon="1.87393">
        <ele>666</ele>
        <time>2024-09-15T10:13:59Z</time>
      </trkpt>
      <trkpt lat="45.78061" lon="1.87395">
        <ele>666.4</ele>
        <time>2024-09-15T10:14:00Z</time>
      </trkpt>
      <trkpt lat="45.78061" lon="1.874">
        <ele>666.4</ele>
        <time>2024-09-15T10:14:01Z</time>
      </trkpt>
      <trkpt lat="45.78062" lon="1.87403">
        <ele>666.8</ele>
        <time>2024-09-15T10:14:02Z</time>
      </trkpt>
      <trkpt lat="45.78062" lon="1.87404">
        <ele>667</ele>
        <time>2024-09-15T10:14:03Z</time>
      </trkpt>
      <trkpt lat="45.78063" lon="1.87405">
        <ele>667.2</ele>
        <time>2024-09-15T10:14:04Z</time>
      </trkpt>
      <trkpt lat="45.78063" lon="1.87406">
        <ele>667.4</ele>
        <time>2024-09-15T10:14:05Z</time>
      </trkpt>
      <trkpt lat="45.78063" lon="1.87406">
        <ele>667.8</ele>
        <time>2024-09-15T10:14:06Z</time>
      </trkpt>
      <trkpt lat="45.78063" lon="1.87408">
        <ele>668.4</ele>
        <time>2024-09-15T10:14:07Z</time>
      </trkpt>
      <trkpt lat="45.78063" lon="1.87411">
        <ele>668.6</ele>
        <time>2024-09-15T10:14:08Z</time>
      </trkpt>
      <trkpt lat="45.78062" lon="1.87411">
        <ele>668.8</ele>
        <time>2024-09-15T10:14:09Z</time>
      </trkpt>
      <trkpt lat="45.78062" lon="1.87416">
        <ele>668.8</ele>
        <time>2024-09-15T10:14:10Z</time>
      </trkpt>
      <trkpt lat="45.78063" lon="1.8742">
        <ele>669</ele>
        <time>2024-09-15T10:14:11Z</time>
      </trkpt>
      <trkpt lat="45.78064" lon="1.87426">
        <ele>669.2</ele>
        <time>2024-09-15T10:14:12Z</time>
      </trkpt>
      <trkpt lat="45.78063" lon="1.8743">
        <ele>669.4</ele>
        <time>2024-09-15T10:14:13Z</time>
      </trkpt>
      <trkpt lat="45.78063" lon="1.87432">
        <ele>669.4</ele>
        <time>2024-09-15T10:14:14Z</time>
      </trkpt>
      <trkpt lat="45.78064" lon="1.87434">
        <ele>669.4</ele>
        <time>2024-09-15T10:14:15Z</time>
      </trkpt>
      <trkpt lat="45.78064" lon="1.87437">
        <ele>669.6</ele>
        <time>2024-09-15T10:14:16Z</time>
      </trkpt>
      <trkpt lat="45.78065" lon="1.8744">
        <ele>669.6</ele>
        <time>2024-09-15T10:14:17Z</time>
      </trkpt>
      <trkpt lat="45.78065" lon="1.87444">
        <ele>669.6</ele>
        <time>2024-09-15T10:14:18Z</time>
      </trkpt>
      <trkpt lat="45.78065" lon="1.87447">
        <ele>670</ele>
        <time>2024-09-15T10:14:19Z</time>
      </trkpt>
      <trkpt lat="45.78063" lon="1.8745">
        <ele>670.4</ele>
        <time>2024-09-15T10:14:20Z</time>
      </trkpt>
      <trkpt lat="45.78063" lon="1.87454">
        <ele>670.6</ele>
        <time>2024-09-15T10:14:21Z</time>
      </trkpt>
      <trkpt lat="45.78064" lon="1.87459">
        <ele>670.8</ele>
        <time>2024-09-15T10:14:22Z</time>
      </trkpt>
      <trkpt lat="45.78065" lon="1.87464">
        <ele>670.8</ele>
        <time>2024-09-15T10:14:23Z</time>
      </trkpt>
      <trkpt lat="45.78066" lon="1.87467">
        <ele>670.8</ele>
        <time>2024-09-15T10:14:24Z</time>
      </trkpt>
      <trkpt lat="45.78066" lon="1.87471">
        <ele>670.8</ele>
        <time>2024-09-15T10:14:25Z</time>
      </trkpt>
      <trkpt lat="45.78065" lon="1.87476">
        <ele>670.8</ele>
        <time>2024-09-15T10:14:26Z</time>
      </trkpt>
      <trkpt lat="45.78062" lon="1.87479">
        <ele>670.8</ele>
        <time>2024-09-15T10:14:27Z</time>
      </trkpt>
      <trkpt lat="45.78061" lon="1.87483">
        <ele>670.8</ele>
        <time>2024-09-15T10:14:28Z</time>
      </trkpt>
      <trkpt lat="45.78061" lon="1.87485">
        <ele>670.8</ele>
        <time>2024-09-15T10:14:29Z</time>
      </trkpt>
      <trkpt lat="45.78061" lon="1.87487">
        <ele>671</ele>
        <time>2024-09-15T10:14:30Z</time>
      </trkpt>
      <trkpt lat="45.7806" lon="1.87489">
        <ele>671</ele>
        <time>2024-09-15T10:14:31Z</time>
      </trkpt>
      <trkpt lat="45.78059" lon="1.87491">
        <ele>671</ele>
        <time>2024-09-15T10:14:32Z</time>
      </trkpt>
      <trkpt lat="45.78057" lon="1.87493">
        <ele>671.2</ele>
        <time>2024-09-15T10:14:33Z</time>
      </trkpt>
      <trkpt lat="45.78055" lon="1.87498">
        <ele>671.2</ele>
        <time>2024-09-15T10:14:34Z</time>
      </trkpt>
      <trkpt lat="45.78055" lon="1.87503">
        <ele>671.2</ele>
        <time>2024-09-15T10:14:35Z</time>
      </trkpt>
      <trkpt lat="45.78054" lon="1.87507">
        <ele>671.2</ele>
        <time>2024-09-15T10:14:36Z</time>
      </trkpt>
      <trkpt lat="45.78053" lon="1.87509">
        <ele>671.2</ele>
        <time>2024-09-15T10:14:37Z</time>
      </trkpt>
      <trkpt lat="45.78051" lon="1.8751">
        <ele>671.2</ele>
        <time>2024-09-15T10:14:38Z</time>
      </trkpt>
      <trkpt lat="45.78049" lon="1.87511">
        <ele>671.2</ele>
        <time>2024-09-15T10:14:39Z</time>
      </trkpt>
      <trkpt lat="45.78046" lon="1.87512">
        <ele>671.2</ele>
        <time>2024-09-15T10:14:40Z</time>
      </trkpt>
      <trkpt lat="45.78044" lon="1.87514">
        <ele>671.2</ele>
        <time>2024-09-15T10:14:41Z</time>
      </trkpt>
      <trkpt lat="45.78042" lon="1.87516">
        <ele>671.2</ele>
        <time>2024-09-15T10:14:42Z</time>
      </trkpt>
      <trkpt lat="45.7804" lon="1.87517">
        <ele>671.4</ele>
        <time>2024-09-15T10:14:43Z</time>
      </trkpt>
      <trkpt lat="45.78037" lon="1.87521">
        <ele>671.4</ele>
        <time>2024-09-15T10:14:44Z</time>
      </trkpt>
      <trkpt lat="45.7803" lon="1.87524">
        <ele>671.4</ele>
        <time>2024-09-15T10:14:46Z</time>
      </trkpt>
      <trkpt lat="45.78026" lon="1.87527">
        <ele>671.4</ele>
        <time>2024-09-15T10:14:47Z</time>
      </trkpt>
      <trkpt lat="45.7802" lon="1.87535">
        <ele>671.6</ele>
        <time>2024-09-15T10:14:49Z</time>
      </trkpt>
      <trkpt lat="45.78016" lon="1.87538">
        <ele>671.6</ele>
        <time>2024-09-15T10:14:50Z</time>
      </trkpt>
      <trkpt lat="45.78006" lon="1.87542">
        <ele>671.8</ele>
        <time>2024-09-15T10:14:53Z</time>
      </trkpt>
      <trkpt lat="45.78004" lon="1.87543">
        <ele>671.8</ele>
        <time>2024-09-15T10:14:54Z</time>
      </trkpt>
      <trkpt lat="45.78" lon="1.87544">
        <ele>672</ele>
        <time>2024-09-15T10:14:56Z</time>
      </trkpt>
      <trkpt lat="45.77997" lon="1.87544">
        <ele>672.2</ele>
        <time>2024-09-15T10:14:57Z</time>
      </trkpt>
      <trkpt lat="45.77993" lon="1.87547">
        <ele>672.4</ele>
        <time>2024-09-15T10:14:59Z</time>
      </trkpt>
      <trkpt lat="45.77988" lon="1.87551">
        <ele>673</ele>
        <time>2024-09-15T10:15:01Z</time>
      </trkpt>
      <trkpt lat="45.77986" lon="1.87553">
        <ele>673.2</ele>
        <time>2024-09-15T10:15:02Z</time>
      </trkpt>
      <trkpt lat="45.7798" lon="1.87558">
        <ele>673.6</ele>
        <time>2024-09-15T10:15:05Z</time>
      </trkpt>
      <trkpt lat="45.77978" lon="1.87559">
        <ele>673.6</ele>
        <time>2024-09-15T10:15:06Z</time>
      </trkpt>
      <trkpt lat="45.77976" lon="1.8756">
        <ele>673.6</ele>
        <time>2024-09-15T10:15:07Z</time>
      </trkpt>
      <trkpt lat="45.77975" lon="1.87561">
        <ele>673.6</ele>
        <time>2024-09-15T10:15:08Z</time>
      </trkpt>
      <trkpt lat="45.77958" lon="1.87577">
        <ele>673</ele>
        <time>2024-09-15T10:15:13Z</time>
      </trkpt>
      <trkpt lat="45.77954" lon="1.8758">
        <ele>672.8</ele>
        <time>2024-09-15T10:15:14Z</time>
      </trkpt>
      <trkpt lat="45.77946" lon="1.87587">
        <ele>672.2</ele>
        <time>2024-09-15T10:15:19Z</time>
      </trkpt>
      <trkpt lat="45.77944" lon="1.87589">
        <ele>672.2</ele>
        <time>2024-09-15T10:15:20Z</time>
      </trkpt>
      <trkpt lat="45.77938" lon="1.876">
        <ele>672.2</ele>
        <time>2024-09-15T10:15:23Z</time>
      </trkpt>
      <trkpt lat="45.77937" lon="1.87605">
        <ele>672.2</ele>
        <time>2024-09-15T10:15:24Z</time>
      </trkpt>
      <trkpt lat="45.77937" lon="1.87609">
        <ele>672.2</ele>
        <time>2024-09-15T10:15:25Z</time>
      </trkpt>
      <trkpt lat="45.77938" lon="1.87613">
        <ele>672.2</ele>
        <time>2024-09-15T10:15:26Z</time>
      </trkpt>
      <trkpt lat="45.77939" lon="1.87618">
        <ele>672.2</ele>
        <time>2024-09-15T10:15:27Z</time>
      </trkpt>
      <trkpt lat="45.7794" lon="1.87624">
        <ele>672.2</ele>
        <time>2024-09-15T10:15:28Z</time>
      </trkpt>
      <trkpt lat="45.77942" lon="1.8763">
        <ele>672.2</ele>
        <time>2024-09-15T10:15:29Z</time>
      </trkpt>
      <trkpt lat="45.77948" lon="1.87643">
        <ele>672.4</ele>
        <time>2024-09-15T10:15:32Z</time>
      </trkpt>
      <trkpt lat="45.7795" lon="1.87646">
        <ele>672.4</ele>
        <time>2024-09-15T10:15:33Z</time>
      </trkpt>
      <trkpt lat="45.77952" lon="1.87649">
        <ele>672.4</ele>
        <time>2024-09-15T10:15:34Z</time>
      </trkpt>
      <trkpt lat="45.7796" lon="1.87659">
        <ele>672.2</ele>
        <time>2024-09-15T10:15:38Z</time>
      </trkpt>
      <trkpt lat="45.77962" lon="1.87661">
        <ele>672.2</ele>
        <time>2024-09-15T10:15:39Z</time>
      </trkpt>
      <trkpt lat="45.77964" lon="1.87663">
        <ele>672.2</ele>
        <time>2024-09-15T10:15:40Z</time>
      </trkpt>
      <trkpt lat="45.77967" lon="1.87665">
        <ele>672.2</ele>
        <time>2024-09-15T10:15:41Z</time>
      </trkpt>
      <trkpt lat="45.7797" lon="1.87667">
        <ele>672.4</ele>
        <time>2024-09-15T10:15:42Z</time>
      </trkpt>
      <trkpt lat="45.77973" lon="1.87668">
        <ele>672.4</ele>
        <time>2024-09-15T10:15:43Z</time>
      </trkpt>
      <trkpt lat="45.77976" lon="1.8767">
        <ele>672.4</ele>
        <time>2024-09-15T10:15:44Z</time>
      </trkpt>
      <trkpt lat="45.77979" lon="1.87671">
        <ele>672.4</ele>
        <time>2024-09-15T10:15:45Z</time>
      </trkpt>
      <trkpt lat="45.77982" lon="1.87673">
        <ele>672.6</ele>
        <time>2024-09-15T10:15:46Z</time>
      </trkpt>
      <trkpt lat="45.78001" lon="1.87679">
        <ele>673.4</ele>
        <time>2024-09-15T10:15:52Z</time>
      </trkpt>
      <trkpt lat="45.78006" lon="1.8768">
        <ele>673.8</ele>
        <time>2024-09-15T10:15:54Z</time>
      </trkpt>
      <trkpt lat="45.78009" lon="1.87681">
        <ele>674.2</ele>
        <time>2024-09-15T10:15:55Z</time>
      </trkpt>
      <trkpt lat="45.78012" lon="1.87682">
        <ele>674.4</ele>
        <time>2024-09-15T10:15:56Z</time>
      </trkpt>
      <trkpt lat="45.78015" lon="1.87683">
        <ele>674.6</ele>
        <time>2024-09-15T10:15:57Z</time>
      </trkpt>
      <trkpt lat="45.78027" lon="1.87681">
        <ele>675.8</ele>
        <time>2024-09-15T10:16:01Z</time>
      </trkpt>
      <trkpt lat="45.78033" lon="1.87681">
        <ele>676.2</ele>
        <time>2024-09-15T10:16:03Z</time>
      </trkpt>
      <trkpt lat="45.78035" lon="1.87681">
        <ele>676.4</ele>
        <time>2024-09-15T10:16:04Z</time>
      </trkpt>
      <trkpt lat="45.78038" lon="1.8768">
        <ele>676.6</ele>
        <time>2024-09-15T10:16:05Z</time>
      </trkpt>
      <trkpt lat="45.7804" lon="1.87679">
        <ele>676.6</ele>
        <time>2024-09-15T10:16:06Z</time>
      </trkpt>
      <trkpt lat="45.78043" lon="1.87679">
        <ele>676.8</ele>
        <time>2024-09-15T10:16:07Z</time>
      </trkpt>
      <trkpt lat="45.78046" lon="1.8768">
        <ele>676.8</ele>
        <time>2024-09-15T10:16:08Z</time>
      </trkpt>
      <trkpt lat="45.78048" lon="1.87682">
        <ele>677</ele>
        <time>2024-09-15T10:16:09Z</time>
      </trkpt>
      <trkpt lat="45.78051" lon="1.87683">
        <ele>677.6</ele>
        <time>2024-09-15T10:16:10Z</time>
      </trkpt>
      <trkpt lat="45.78054" lon="1.87683">
        <ele>677.8</ele>
        <time>2024-09-15T10:16:11Z</time>
      </trkpt>
      <trkpt lat="45.78057" lon="1.87684">
        <ele>678</ele>
        <time>2024-09-15T10:16:12Z</time>
      </trkpt>
      <trkpt lat="45.78059" lon="1.87685">
        <ele>678.2</ele>
        <time>2024-09-15T10:16:13Z</time>
      </trkpt>
      <trkpt lat="45.78062" lon="1.87685">
        <ele>678.4</ele>
        <time>2024-09-15T10:16:14Z</time>
      </trkpt>
      <trkpt lat="45.78065" lon="1.87685">
        <ele>678.4</ele>
        <time>2024-09-15T10:16:15Z</time>
      </trkpt>
      <trkpt lat="45.78069" lon="1.87684">
        <ele>678.6</ele>
        <time>2024-09-15T10:16:16Z</time>
      </trkpt>
      <trkpt lat="45.78073" lon="1.87682">
        <ele>678.6</ele>
        <time>2024-09-15T10:16:17Z</time>
      </trkpt>
      <trkpt lat="45.78078" lon="1.87681">
        <ele>678.8</ele>
        <time>2024-09-15T10:16:18Z</time>
      </trkpt>
      <trkpt lat="45.78083" lon="1.87679">
        <ele>678.8</ele>
        <time>2024-09-15T10:16:19Z</time>
      </trkpt>
      <trkpt lat="45.78088" lon="1.87678">
        <ele>678.8</ele>
        <time>2024-09-15T10:16:20Z</time>
      </trkpt>
      <trkpt lat="45.78093" lon="1.87676">
        <ele>678.8</ele>
        <time>2024-09-15T10:16:21Z</time>
      </trkpt>
      <trkpt lat="45.78099" lon="1.87674">
        <ele>678.8</ele>
        <time>2024-09-15T10:16:22Z</time>
      </trkpt>
      <trkpt lat="45.78105" lon="1.87672">
        <ele>678.8</ele>
        <time>2024-09-15T10:16:23Z</time>
      </trkpt>
      <trkpt lat="45.78111" lon="1.87671">
        <ele>678.6</ele>
        <time>2024-09-15T10:16:24Z</time>
      </trkpt>
      <trkpt lat="45.78117" lon="1.8767">
        <ele>678.6</ele>
        <time>2024-09-15T10:16:25Z</time>
      </trkpt>
      <trkpt lat="45.78123" lon="1.8767">
        <ele>678.6</ele>
        <time>2024-09-15T10:16:26Z</time>
      </trkpt>
      <trkpt lat="45.78129" lon="1.8767">
        <ele>678.4</ele>
        <time>2024-09-15T10:16:27Z</time>
      </trkpt>
      <trkpt lat="45.78134" lon="1.87671">
        <ele>678.4</ele>
        <time>2024-09-15T10:16:28Z</time>
      </trkpt>
      <trkpt lat="45.78139" lon="1.87673">
        <ele>678</ele>
        <time>2024-09-15T10:16:29Z</time>
      </trkpt>
      <trkpt lat="45.78144" lon="1.87675">
        <ele>678</ele>
        <time>2024-09-15T10:16:30Z</time>
      </trkpt>
      <trkpt lat="45.78149" lon="1.87676">
        <ele>677.6</ele>
        <time>2024-09-15T10:16:31Z</time>
      </trkpt>
      <trkpt lat="45.78153" lon="1.87678">
        <ele>677.6</ele>
        <time>2024-09-15T10:16:32Z</time>
      </trkpt>
      <trkpt lat="45.78158" lon="1.87681">
        <ele>677.4</ele>
        <time>2024-09-15T10:16:33Z</time>
      </trkpt>
      <trkpt lat="45.78163" lon="1.87683">
        <ele>677.2</ele>
        <time>2024-09-15T10:16:34Z</time>
      </trkpt>
      <trkpt lat="45.78168" lon="1.87685">
        <ele>677</ele>
        <time>2024-09-15T10:16:35Z</time>
      </trkpt>
      <trkpt lat="45.78176" lon="1.8769">
        <ele>677</ele>
        <time>2024-09-15T10:16:37Z</time>
      </trkpt>
      <trkpt lat="45.78182" lon="1.87692">
        <ele>676.6</ele>
        <time>2024-09-15T10:16:38Z</time>
      </trkpt>
      <trkpt lat="45.78187" lon="1.87696">
        <ele>676.8</ele>
        <time>2024-09-15T10:16:39Z</time>
      </trkpt>
      <trkpt lat="45.78193" lon="1.877">
        <ele>676.8</ele>
        <time>2024-09-15T10:16:40Z</time>
      </trkpt>
      <trkpt lat="45.78209" lon="1.87708">
        <ele>676.2</ele>
        <time>2024-09-15T10:16:43Z</time>
      </trkpt>
      <trkpt lat="45.78212" lon="1.8771">
        <ele>676.2</ele>
        <time>2024-09-15T10:16:44Z</time>
      </trkpt>
      <trkpt lat="45.78216" lon="1.8771">
        <ele>676</ele>
        <time>2024-09-15T10:16:45Z</time>
      </trkpt>
      <trkpt lat="45.78219" lon="1.87708">
        <ele>675.8</ele>
        <time>2024-09-15T10:16:46Z</time>
      </trkpt>
      <trkpt lat="45.78221" lon="1.87708">
        <ele>675.8</ele>
        <time>2024-09-15T10:16:47Z</time>
      </trkpt>
      <trkpt lat="45.78224" lon="1.87706">
        <ele>675.6</ele>
        <time>2024-09-15T10:16:48Z</time>
      </trkpt>
      <trkpt lat="45.78225" lon="1.87705">
        <ele>675.4</ele>
        <time>2024-09-15T10:16:49Z</time>
      </trkpt>
      <trkpt lat="45.78227" lon="1.87701">
        <ele>675.2</ele>
        <time>2024-09-15T10:16:50Z</time>
      </trkpt>
      <trkpt lat="45.7823" lon="1.87696">
        <ele>675.2</ele>
        <time>2024-09-15T10:16:51Z</time>
      </trkpt>
      <trkpt lat="45.78237" lon="1.87685">
        <ele>675</ele>
        <time>2024-09-15T10:16:53Z</time>
      </trkpt>
      <trkpt lat="45.7824" lon="1.8768">
        <ele>674.8</ele>
        <time>2024-09-15T10:16:54Z</time>
      </trkpt>
      <trkpt lat="45.78249" lon="1.87665">
        <ele>674</ele>
        <time>2024-09-15T10:16:56Z</time>
      </trkpt>
      <trkpt lat="45.78255" lon="1.87656">
        <ele>673.4</ele>
        <time>2024-09-15T10:16:57Z</time>
      </trkpt>
      <trkpt lat="45.78265" lon="1.87638">
        <ele>672.6</ele>
        <time>2024-09-15T10:16:59Z</time>
      </trkpt>
      <trkpt lat="45.78274" lon="1.87627">
        <ele>671.4</ele>
        <time>2024-09-15T10:17:01Z</time>
      </trkpt>
      <trkpt lat="45.78277" lon="1.87622">
        <ele>671</ele>
        <time>2024-09-15T10:17:02Z</time>
      </trkpt>
      <trkpt lat="45.7828" lon="1.87619">
        <ele>670.2</ele>
        <time>2024-09-15T10:17:03Z</time>
      </trkpt>
      <trkpt lat="45.78282" lon="1.87616">
        <ele>669.8</ele>
        <time>2024-09-15T10:17:04Z</time>
      </trkpt>
      <trkpt lat="45.78284" lon="1.87613">
        <ele>669</ele>
        <time>2024-09-15T10:17:05Z</time>
      </trkpt>
      <trkpt lat="45.78285" lon="1.87612">
        <ele>668.6</ele>
        <time>2024-09-15T10:17:06Z</time>
      </trkpt>
      <trkpt lat="45.78287" lon="1.87611">
        <ele>668.4</ele>
        <time>2024-09-15T10:17:07Z</time>
      </trkpt>
      <trkpt lat="45.78289" lon="1.87611">
        <ele>667.8</ele>
        <time>2024-09-15T10:17:08Z</time>
      </trkpt>
      <trkpt lat="45.78291" lon="1.87612">
        <ele>667.4</ele>
        <time>2024-09-15T10:17:09Z</time>
      </trkpt>
      <trkpt lat="45.78294" lon="1.87613">
        <ele>667</ele>
        <time>2024-09-15T10:17:10Z</time>
      </trkpt>
      <trkpt lat="45.78298" lon="1.87618">
        <ele>666.8</ele>
        <time>2024-09-15T10:17:12Z</time>
      </trkpt>
      <trkpt lat="45.78301" lon="1.8762">
        <ele>666.6</ele>
        <time>2024-09-15T10:17:13Z</time>
      </trkpt>
      <trkpt lat="45.78306" lon="1.87629">
        <ele>666.2</ele>
        <time>2024-09-15T10:17:16Z</time>
      </trkpt>
      <trkpt lat="45.78308" lon="1.87632">
        <ele>665.6</ele>
        <time>2024-09-15T10:17:17Z</time>
      </trkpt>
      <trkpt lat="45.78314" lon="1.87641">
        <ele>664.6</ele>
        <time>2024-09-15T10:17:19Z</time>
      </trkpt>
      <trkpt lat="45.7832" lon="1.87649">
        <ele>663.8</ele>
        <time>2024-09-15T10:17:21Z</time>
      </trkpt>
      <trkpt lat="45.78325" lon="1.87656">
        <ele>663.4</ele>
        <time>2024-09-15T10:17:23Z</time>
      </trkpt>
      <trkpt lat="45.78327" lon="1.87658">
        <ele>663.2</ele>
        <time>2024-09-15T10:17:24Z</time>
      </trkpt>
      <trkpt lat="45.78328" lon="1.87662">
        <ele>662.6</ele>
        <time>2024-09-15T10:17:25Z</time>
      </trkpt>
      <trkpt lat="45.78328" lon="1.87667">
        <ele>662.6</ele>
        <time>2024-09-15T10:17:26Z</time>
      </trkpt>
      <trkpt lat="45.78328" lon="1.87672">
        <ele>662</ele>
        <time>2024-09-15T10:17:27Z</time>
      </trkpt>
      <trkpt lat="45.78328" lon="1.87677">
        <ele>662</ele>
        <time>2024-09-15T10:17:28Z</time>
      </trkpt>
      <trkpt lat="45.78327" lon="1.8768">
        <ele>661.8</ele>
        <time>2024-09-15T10:17:29Z</time>
      </trkpt>
      <trkpt lat="45.78328" lon="1.87682">
        <ele>661.6</ele>
        <time>2024-09-15T10:17:30Z</time>
      </trkpt>
      <trkpt lat="45.7833" lon="1.87685">
        <ele>661.2</ele>
        <time>2024-09-15T10:17:31Z</time>
      </trkpt>
      <trkpt lat="45.78334" lon="1.8769">
        <ele>661.2</ele>
        <time>2024-09-15T10:17:32Z</time>
      </trkpt>
      <trkpt lat="45.78339" lon="1.87698">
        <ele>661.4</ele>
        <time>2024-09-15T10:17:34Z</time>
      </trkpt>
      <trkpt lat="45.7834" lon="1.87702">
        <ele>661.4</ele>
        <time>2024-09-15T10:17:35Z</time>
      </trkpt>
      <trkpt lat="45.7834" lon="1.87708">
        <ele>661.6</ele>
        <time>2024-09-15T10:17:36Z</time>
      </trkpt>
      <trkpt lat="45.78339" lon="1.87714">
        <ele>661.8</ele>
        <time>2024-09-15T10:17:37Z</time>
      </trkpt>
      <trkpt lat="45.78338" lon="1.87718">
        <ele>662.2</ele>
        <time>2024-09-15T10:17:38Z</time>
      </trkpt>
      <trkpt lat="45.78336" lon="1.87724">
        <ele>662.4</ele>
        <time>2024-09-15T10:17:39Z</time>
      </trkpt>
      <trkpt lat="45.78335" lon="1.8773">
        <ele>662.8</ele>
        <time>2024-09-15T10:17:40Z</time>
      </trkpt>
      <trkpt lat="45.78335" lon="1.87735">
        <ele>663.2</ele>
        <time>2024-09-15T10:17:41Z</time>
      </trkpt>
      <trkpt lat="45.78334" lon="1.8774">
        <ele>664.2</ele>
        <time>2024-09-15T10:17:42Z</time>
      </trkpt>
      <trkpt lat="45.78332" lon="1.87745">
        <ele>664.4</ele>
        <time>2024-09-15T10:17:43Z</time>
      </trkpt>
      <trkpt lat="45.78331" lon="1.87747">
        <ele>664.8</ele>
        <time>2024-09-15T10:17:44Z</time>
      </trkpt>
      <trkpt lat="45.78331" lon="1.8775">
        <ele>665</ele>
        <time>2024-09-15T10:17:45Z</time>
      </trkpt>
      <trkpt lat="45.78331" lon="1.87754">
        <ele>665.2</ele>
        <time>2024-09-15T10:17:46Z</time>
      </trkpt>
      <trkpt lat="45.78331" lon="1.8776">
        <ele>665.8</ele>
        <time>2024-09-15T10:17:48Z</time>
      </trkpt>
      <trkpt lat="45.78331" lon="1.87764">
        <ele>666.2</ele>
        <time>2024-09-15T10:17:49Z</time>
      </trkpt>
      <trkpt lat="45.7833" lon="1.87771">
        <ele>666.4</ele>
        <time>2024-09-15T10:17:50Z</time>
      </trkpt>
      <trkpt lat="45.78331" lon="1.87784">
        <ele>667</ele>
        <time>2024-09-15T10:17:53Z</time>
      </trkpt>
      <trkpt lat="45.78332" lon="1.87789">
        <ele>667.2</ele>
        <time>2024-09-15T10:17:54Z</time>
      </trkpt>
      <trkpt lat="45.78334" lon="1.87794">
        <ele>667.4</ele>
        <time>2024-09-15T10:17:55Z</time>
      </trkpt>
      <trkpt lat="45.78335" lon="1.87799">
        <ele>667.4</ele>
        <time>2024-09-15T10:17:56Z</time>
      </trkpt>
      <trkpt lat="45.78335" lon="1.87804">
        <ele>667.6</ele>
        <time>2024-09-15T10:17:57Z</time>
      </trkpt>
      <trkpt lat="45.78335" lon="1.87811">
        <ele>667.8</ele>
        <time>2024-09-15T10:17:58Z</time>
      </trkpt>
      <trkpt lat="45.78336" lon="1.87818">
        <ele>667.8</ele>
        <time>2024-09-15T10:17:59Z</time>
      </trkpt>
      <trkpt lat="45.78338" lon="1.87826">
        <ele>667.8</ele>
        <time>2024-09-15T10:18:00Z</time>
      </trkpt>
      <trkpt lat="45.7834" lon="1.87833">
        <ele>667.6</ele>
        <time>2024-09-15T10:18:01Z</time>
      </trkpt>
      <trkpt lat="45.78344" lon="1.8784">
        <ele>667.6</ele>
        <time>2024-09-15T10:18:02Z</time>
      </trkpt>
      <trkpt lat="45.78349" lon="1.87847">
        <ele>667.6</ele>
        <time>2024-09-15T10:18:03Z</time>
      </trkpt>
      <trkpt lat="45.78354" lon="1.87855">
        <ele>667.2</ele>
        <time>2024-09-15T10:18:04Z</time>
      </trkpt>
      <trkpt lat="45.78356" lon="1.87865">
        <ele>666.8</ele>
        <time>2024-09-15T10:18:05Z</time>
      </trkpt>
      <trkpt lat="45.78357" lon="1.87875">
        <ele>665.2</ele>
        <time>2024-09-15T10:18:06Z</time>
      </trkpt>
      <trkpt lat="45.78356" lon="1.87886">
        <ele>664.8</ele>
        <time>2024-09-15T10:18:07Z</time>
      </trkpt>
      <trkpt lat="45.78356" lon="1.87897">
        <ele>664.2</ele>
        <time>2024-09-15T10:18:08Z</time>
      </trkpt>
      <trkpt lat="45.78355" lon="1.87905">
        <ele>663.8</ele>
        <time>2024-09-15T10:18:09Z</time>
      </trkpt>
      <trkpt lat="45.78355" lon="1.87912">
        <ele>663</ele>
        <time>2024-09-15T10:18:10Z</time>
      </trkpt>
      <trkpt lat="45.78353" lon="1.87917">
        <ele>662.8</ele>
        <time>2024-09-15T10:18:11Z</time>
      </trkpt>
      <trkpt lat="45.78351" lon="1.87923">
        <ele>662.4</ele>
        <time>2024-09-15T10:18:12Z</time>
      </trkpt>
      <trkpt lat="45.7835" lon="1.87928">
        <ele>662.2</ele>
        <time>2024-09-15T10:18:13Z</time>
      </trkpt>
      <trkpt lat="45.78348" lon="1.87932">
        <ele>661.6</ele>
        <time>2024-09-15T10:18:14Z</time>
      </trkpt>
      <trkpt lat="45.78348" lon="1.87936">
        <ele>661.4</ele>
        <time>2024-09-15T10:18:15Z</time>
      </trkpt>
      <trkpt lat="45.78347" lon="1.87941">
        <ele>661.4</ele>
        <time>2024-09-15T10:18:16Z</time>
      </trkpt>
      <trkpt lat="45.78347" lon="1.87945">
        <ele>661.2</ele>
        <time>2024-09-15T10:18:17Z</time>
      </trkpt>
      <trkpt lat="45.78346" lon="1.8795">
        <ele>661</ele>
        <time>2024-09-15T10:18:18Z</time>
      </trkpt>
      <trkpt lat="45.78345" lon="1.87956">
        <ele>661</ele>
        <time>2024-09-15T10:18:19Z</time>
      </trkpt>
      <trkpt lat="45.78345" lon="1.87963">
        <ele>661</ele>
        <time>2024-09-15T10:18:20Z</time>
      </trkpt>
      <trkpt lat="45.78342" lon="1.87977">
        <ele>661</ele>
        <time>2024-09-15T10:18:22Z</time>
      </trkpt>
      <trkpt lat="45.78339" lon="1.87986">
        <ele>660.8</ele>
        <time>2024-09-15T10:18:24Z</time>
      </trkpt>
      <trkpt lat="45.78338" lon="1.87989">
        <ele>660.6</ele>
        <time>2024-09-15T10:18:25Z</time>
      </trkpt>
      <trkpt lat="45.78337" lon="1.87992">
        <ele>660.6</ele>
        <time>2024-09-15T10:18:26Z</time>
      </trkpt>
      <trkpt lat="45.78337" lon="1.87995">
        <ele>660</ele>
        <time>2024-09-15T10:18:27Z</time>
      </trkpt>
      <trkpt lat="45.78337" lon="1.88">
        <ele>659.8</ele>
        <time>2024-09-15T10:18:28Z</time>
      </trkpt>
      <trkpt lat="45.78338" lon="1.88004">
        <ele>659.4</ele>
        <time>2024-09-15T10:18:29Z</time>
      </trkpt>
      <trkpt lat="45.78339" lon="1.88009">
        <ele>659.2</ele>
        <time>2024-09-15T10:18:30Z</time>
      </trkpt>
      <trkpt lat="45.7834" lon="1.88014">
        <ele>659.2</ele>
        <time>2024-09-15T10:18:31Z</time>
      </trkpt>
      <trkpt lat="45.78341" lon="1.88018">
        <ele>658.8</ele>
        <time>2024-09-15T10:18:32Z</time>
      </trkpt>
      <trkpt lat="45.78345" lon="1.88027">
        <ele>658.6</ele>
        <time>2024-09-15T10:18:34Z</time>
      </trkpt>
      <trkpt lat="45.78347" lon="1.88032">
        <ele>658.4</ele>
        <time>2024-09-15T10:18:35Z</time>
      </trkpt>
      <trkpt lat="45.78348" lon="1.8804">
        <ele>658.4</ele>
        <time>2024-09-15T10:18:36Z</time>
      </trkpt>
      <trkpt lat="45.78349" lon="1.88043">
        <ele>658.4</ele>
        <time>2024-09-15T10:18:37Z</time>
      </trkpt>
      <trkpt lat="45.78358" lon="1.88054">
        <ele>658.8</ele>
        <time>2024-09-15T10:18:41Z</time>
      </trkpt>
      <trkpt lat="45.78359" lon="1.88056">
        <ele>659.2</ele>
        <time>2024-09-15T10:18:42Z</time>
      </trkpt>
      <trkpt lat="45.78362" lon="1.88059">
        <ele>659.6</ele>
        <time>2024-09-15T10:18:43Z</time>
      </trkpt>
      <trkpt lat="45.78372" lon="1.88064">
        <ele>660</ele>
        <time>2024-09-15T10:18:46Z</time>
      </trkpt>
      <trkpt lat="45.78375" lon="1.88064">
        <ele>660.4</ele>
        <time>2024-09-15T10:18:47Z</time>
      </trkpt>
      <trkpt lat="45.78377" lon="1.88064">
        <ele>660.6</ele>
        <time>2024-09-15T10:18:48Z</time>
      </trkpt>
      <trkpt lat="45.7838" lon="1.88063">
        <ele>661</ele>
        <time>2024-09-15T10:18:49Z</time>
      </trkpt>
      <trkpt lat="45.78393" lon="1.88063">
        <ele>662</ele>
        <time>2024-09-15T10:18:52Z</time>
      </trkpt>
      <trkpt lat="45.78401" lon="1.88063">
        <ele>662.4</ele>
        <time>2024-09-15T10:18:54Z</time>
      </trkpt>
      <trkpt lat="45.78412" lon="1.88064">
        <ele>663.2</ele>
        <time>2024-09-15T10:18:57Z</time>
      </trkpt>
      <trkpt lat="45.78415" lon="1.88066">
        <ele>663.4</ele>
        <time>2024-09-15T10:18:58Z</time>
      </trkpt>
      <trkpt lat="45.78419" lon="1.88068">
        <ele>663.4</ele>
        <time>2024-09-15T10:18:59Z</time>
      </trkpt>
      <trkpt lat="45.78422" lon="1.88069">
        <ele>663.4</ele>
        <time>2024-09-15T10:19:00Z</time>
      </trkpt>
      <trkpt lat="45.78425" lon="1.88073">
        <ele>663.4</ele>
        <time>2024-09-15T10:19:01Z</time>
      </trkpt>
      <trkpt lat="45.78427" lon="1.88077">
        <ele>663.4</ele>
        <time>2024-09-15T10:19:02Z</time>
      </trkpt>
      <trkpt lat="45.78431" lon="1.8808">
        <ele>663.4</ele>
        <time>2024-09-15T10:19:03Z</time>
      </trkpt>
      <trkpt lat="45.78435" lon="1.8808">
        <ele>663.4</ele>
        <time>2024-09-15T10:19:04Z</time>
      </trkpt>
      <trkpt lat="45.78439" lon="1.8808">
        <ele>663.4</ele>
        <time>2024-09-15T10:19:05Z</time>
      </trkpt>
      <trkpt lat="45.78444" lon="1.88079">
        <ele>663.2</ele>
        <time>2024-09-15T10:19:06Z</time>
      </trkpt>
      <trkpt lat="45.78448" lon="1.88079">
        <ele>663.2</ele>
        <time>2024-09-15T10:19:07Z</time>
      </trkpt>
      <trkpt lat="45.78452" lon="1.88079">
        <ele>663.2</ele>
        <time>2024-09-15T10:19:08Z</time>
      </trkpt>
      <trkpt lat="45.78456" lon="1.8808">
        <ele>663</ele>
        <time>2024-09-15T10:19:09Z</time>
      </trkpt>
      <trkpt lat="45.7846" lon="1.88081">
        <ele>662.8</ele>
        <time>2024-09-15T10:19:10Z</time>
      </trkpt>
      <trkpt lat="45.78464" lon="1.88082">
        <ele>662.6</ele>
        <time>2024-09-15T10:19:11Z</time>
      </trkpt>
      <trkpt lat="45.78467" lon="1.88083">
        <ele>662.6</ele>
        <time>2024-09-15T10:19:12Z</time>
      </trkpt>
      <trkpt lat="45.7847" lon="1.88084">
        <ele>662.4</ele>
        <time>2024-09-15T10:19:13Z</time>
      </trkpt>
      <trkpt lat="45.78473" lon="1.88084">
        <ele>662.4</ele>
        <time>2024-09-15T10:19:14Z</time>
      </trkpt>
      <trkpt lat="45.78477" lon="1.88085">
        <ele>662.2</ele>
        <time>2024-09-15T10:19:15Z</time>
      </trkpt>
      <trkpt lat="45.78479" lon="1.88085">
        <ele>662</ele>
        <time>2024-09-15T10:19:16Z</time>
      </trkpt>
      <trkpt lat="45.78481" lon="1.88086">
        <ele>662</ele>
        <time>2024-09-15T10:19:17Z</time>
      </trkpt>
      <trkpt lat="45.78485" lon="1.88086">
        <ele>661.8</ele>
        <time>2024-09-15T10:19:18Z</time>
      </trkpt>
      <trkpt lat="45.78495" lon="1.88086">
        <ele>661.8</ele>
        <time>2024-09-15T10:19:21Z</time>
      </trkpt>
      <trkpt lat="45.78505" lon="1.88087">
        <ele>661.6</ele>
        <time>2024-09-15T10:19:24Z</time>
      </trkpt>
      <trkpt lat="45.78515" lon="1.88086">
        <ele>661</ele>
        <time>2024-09-15T10:19:27Z</time>
      </trkpt>
      <trkpt lat="45.78522" lon="1.88086">
        <ele>660.6</ele>
        <time>2024-09-15T10:19:29Z</time>
      </trkpt>
      <trkpt lat="45.78524" lon="1.88086">
        <ele>660.2</ele>
        <time>2024-09-15T10:19:30Z</time>
      </trkpt>
      <trkpt lat="45.78527" lon="1.88086">
        <ele>660</ele>
        <time>2024-09-15T10:19:31Z</time>
      </trkpt>
      <trkpt lat="45.78532" lon="1.88087">
        <ele>659.6</ele>
        <time>2024-09-15T10:19:33Z</time>
      </trkpt>
      <trkpt lat="45.78534" lon="1.88087">
        <ele>659.4</ele>
        <time>2024-09-15T10:19:34Z</time>
      </trkpt>
      <trkpt lat="45.78535" lon="1.88086">
        <ele>659.4</ele>
        <time>2024-09-15T10:19:35Z</time>
      </trkpt>
      <trkpt lat="45.78537" lon="1.88085">
        <ele>659.2</ele>
        <time>2024-09-15T10:19:36Z</time>
      </trkpt>
      <trkpt lat="45.78538" lon="1.88084">
        <ele>659.2</ele>
        <time>2024-09-15T10:19:37Z</time>
      </trkpt>
      <trkpt lat="45.78541" lon="1.88082">
        <ele>659.2</ele>
        <time>2024-09-15T10:19:38Z</time>
      </trkpt>
      <trkpt lat="45.78545" lon="1.88082">
        <ele>659.2</ele>
        <time>2024-09-15T10:19:39Z</time>
      </trkpt>
      <trkpt lat="45.78553" lon="1.88082">
        <ele>659</ele>
        <time>2024-09-15T10:19:41Z</time>
      </trkpt>
      <trkpt lat="45.78553" lon="1.88082">
        <ele>659</ele>
        <time>2024-09-15T10:19:42Z</time>
      </trkpt>
      <trkpt lat="45.78561" lon="1.88079">
        <ele>659</ele>
        <time>2024-09-15T10:19:44Z</time>
      </trkpt>
      <trkpt lat="45.78566" lon="1.88076">
        <ele>658.8</ele>
        <time>2024-09-15T10:19:45Z</time>
      </trkpt>
      <trkpt lat="45.78568" lon="1.88076">
        <ele>658.8</ele>
        <time>2024-09-15T10:19:46Z</time>
      </trkpt>
      <trkpt lat="45.7857" lon="1.88077">
        <ele>658.6</ele>
        <time>2024-09-15T10:19:47Z</time>
      </trkpt>
      <trkpt lat="45.78572" lon="1.88077">
        <ele>658.6</ele>
        <time>2024-09-15T10:19:48Z</time>
      </trkpt>
      <trkpt lat="45.78576" lon="1.88081">
        <ele>658.6</ele>
        <time>2024-09-15T10:19:50Z</time>
      </trkpt>
      <trkpt lat="45.7858" lon="1.88082">
        <ele>658.6</ele>
        <time>2024-09-15T10:19:51Z</time>
      </trkpt>
      <trkpt lat="45.78583" lon="1.88084">
        <ele>658.6</ele>
        <time>2024-09-15T10:19:52Z</time>
      </trkpt>
      <trkpt lat="45.78593" lon="1.88091">
        <ele>658.6</ele>
        <time>2024-09-15T10:19:56Z</time>
      </trkpt>
      <trkpt lat="45.78595" lon="1.88092">
        <ele>658.6</ele>
        <time>2024-09-15T10:19:57Z</time>
      </trkpt>
      <trkpt lat="45.78597" lon="1.88093">
        <ele>658.8</ele>
        <time>2024-09-15T10:19:58Z</time>
      </trkpt>
      <trkpt lat="45.78598" lon="1.88093">
        <ele>658.8</ele>
        <time>2024-09-15T10:19:59Z</time>
      </trkpt>
      <trkpt lat="45.78602" lon="1.88095">
        <ele>659</ele>
        <time>2024-09-15T10:20:01Z</time>
      </trkpt>
      <trkpt lat="45.78603" lon="1.88096">
        <ele>659</ele>
        <time>2024-09-15T10:20:02Z</time>
      </trkpt>
      <trkpt lat="45.78604" lon="1.88097">
        <ele>659.2</ele>
        <time>2024-09-15T10:20:03Z</time>
      </trkpt>
      <trkpt lat="45.78606" lon="1.88099">
        <ele>659.2</ele>
        <time>2024-09-15T10:20:04Z</time>
      </trkpt>
      <trkpt lat="45.78608" lon="1.881">
        <ele>659.2</ele>
        <time>2024-09-15T10:20:05Z</time>
      </trkpt>
      <trkpt lat="45.78611" lon="1.88105">
        <ele>659.2</ele>
        <time>2024-09-15T10:20:08Z</time>
      </trkpt>
      <trkpt lat="45.78611" lon="1.88105">
        <ele>659.4</ele>
        <time>2024-09-15T10:20:09Z</time>
      </trkpt>
      <trkpt lat="45.78612" lon="1.88106">
        <ele>659.4</ele>
        <time>2024-09-15T10:20:10Z</time>
      </trkpt>
      <trkpt lat="45.78614" lon="1.88107">
        <ele>659.4</ele>
        <time>2024-09-15T10:20:11Z</time>
      </trkpt>
      <trkpt lat="45.78617" lon="1.8811">
        <ele>659.4</ele>
        <time>2024-09-15T10:20:12Z</time>
      </trkpt>
      <trkpt lat="45.78621" lon="1.88113">
        <ele>659.4</ele>
        <time>2024-09-15T10:20:13Z</time>
      </trkpt>
      <trkpt lat="45.78641" lon="1.88127">
        <ele>659.4</ele>
        <time>2024-09-15T10:20:16Z</time>
      </trkpt>
      <trkpt lat="45.78656" lon="1.88133">
        <ele>659.2</ele>
        <time>2024-09-15T10:20:18Z</time>
      </trkpt>
      <trkpt lat="45.7867" lon="1.88137">
        <ele>658.4</ele>
        <time>2024-09-15T10:20:20Z</time>
      </trkpt>
      <trkpt lat="45.78677" lon="1.88137">
        <ele>658</ele>
        <time>2024-09-15T10:20:21Z</time>
      </trkpt>
      <trkpt lat="45.78684" lon="1.88137">
        <ele>657.6</ele>
        <time>2024-09-15T10:20:22Z</time>
      </trkpt>
      <trkpt lat="45.78699" lon="1.88139">
        <ele>656.8</ele>
        <time>2024-09-15T10:20:25Z</time>
      </trkpt>
      <trkpt lat="45.78704" lon="1.8814">
        <ele>656.6</ele>
        <time>2024-09-15T10:20:26Z</time>
      </trkpt>
      <trkpt lat="45.78711" lon="1.88142">
        <ele>656.6</ele>
        <time>2024-09-15T10:20:27Z</time>
      </trkpt>
      <trkpt lat="45.78716" lon="1.88144">
        <ele>656.4</ele>
        <time>2024-09-15T10:20:28Z</time>
      </trkpt>
      <trkpt lat="45.78721" lon="1.88144">
        <ele>656.4</ele>
        <time>2024-09-15T10:20:29Z</time>
      </trkpt>
      <trkpt lat="45.78726" lon="1.88145">
        <ele>656.2</ele>
        <time>2024-09-15T10:20:30Z</time>
      </trkpt>
      <trkpt lat="45.7873" lon="1.88146">
        <ele>656.2</ele>
        <time>2024-09-15T10:20:31Z</time>
      </trkpt>
      <trkpt lat="45.78733" lon="1.88149">
        <ele>656.2</ele>
        <time>2024-09-15T10:20:32Z</time>
      </trkpt>
      <trkpt lat="45.78736" lon="1.88152">
        <ele>656.2</ele>
        <time>2024-09-15T10:20:33Z</time>
      </trkpt>
      <trkpt lat="45.7874" lon="1.88154">
        <ele>656.4</ele>
        <time>2024-09-15T10:20:34Z</time>
      </trkpt>
      <trkpt lat="45.78744" lon="1.88156">
        <ele>656.4</ele>
        <time>2024-09-15T10:20:35Z</time>
      </trkpt>
      <trkpt lat="45.78748" lon="1.88159">
        <ele>656.6</ele>
        <time>2024-09-15T10:20:36Z</time>
      </trkpt>
      <trkpt lat="45.78768" lon="1.88172">
        <ele>656.8</ele>
        <time>2024-09-15T10:20:41Z</time>
      </trkpt>
      <trkpt lat="45.78771" lon="1.88176">
        <ele>656.8</ele>
        <time>2024-09-15T10:20:42Z</time>
      </trkpt>
      <trkpt lat="45.78785" lon="1.8819">
        <ele>657.2</ele>
        <time>2024-09-15T10:20:47Z</time>
      </trkpt>
      <trkpt lat="45.78787" lon="1.88192">
        <ele>657.4</ele>
        <time>2024-09-15T10:20:48Z</time>
      </trkpt>
      <trkpt lat="45.7879" lon="1.88195">
        <ele>657.6</ele>
        <time>2024-09-15T10:20:49Z</time>
      </trkpt>
      <trkpt lat="45.78793" lon="1.88197">
        <ele>657.8</ele>
        <time>2024-09-15T10:20:50Z</time>
      </trkpt>
      <trkpt lat="45.78796" lon="1.88201">
        <ele>657.8</ele>
        <time>2024-09-15T10:20:51Z</time>
      </trkpt>
      <trkpt lat="45.788" lon="1.88205">
        <ele>657.8</ele>
        <time>2024-09-15T10:20:52Z</time>
      </trkpt>
      <trkpt lat="45.78808" lon="1.8821">
        <ele>658</ele>
        <time>2024-09-15T10:20:54Z</time>
      </trkpt>
      <trkpt lat="45.78821" lon="1.88216">
        <ele>657.8</ele>
        <time>2024-09-15T10:20:57Z</time>
      </trkpt>
      <trkpt lat="45.78847" lon="1.88225">
        <ele>658.2</ele>
        <time>2024-09-15T10:21:03Z</time>
      </trkpt>
      <trkpt lat="45.78856" lon="1.88228">
        <ele>658.4</ele>
        <time>2024-09-15T10:21:05Z</time>
      </trkpt>
      <trkpt lat="45.78876" lon="1.88234">
        <ele>658.8</ele>
        <time>2024-09-15T10:21:09Z</time>
      </trkpt>
      <trkpt lat="45.78894" lon="1.88243">
        <ele>658.6</ele>
        <time>2024-09-15T10:21:13Z</time>
      </trkpt>
      <trkpt lat="45.789" lon="1.88246">
        <ele>658.6</ele>
        <time>2024-09-15T10:21:14Z</time>
      </trkpt>
      <trkpt lat="45.78926" lon="1.88262">
        <ele>658.2</ele>
        <time>2024-09-15T10:21:20Z</time>
      </trkpt>
      <trkpt lat="45.78929" lon="1.88264">
        <ele>658.2</ele>
        <time>2024-09-15T10:21:21Z</time>
      </trkpt>
      <trkpt lat="45.78932" lon="1.88267">
        <ele>658.4</ele>
        <time>2024-09-15T10:21:22Z</time>
      </trkpt>
      <trkpt lat="45.78936" lon="1.8827">
        <ele>658.4</ele>
        <time>2024-09-15T10:21:23Z</time>
      </trkpt>
      <trkpt lat="45.78939" lon="1.88272">
        <ele>658.4</ele>
        <time>2024-09-15T10:21:24Z</time>
      </trkpt>
      <trkpt lat="45.78949" lon="1.88279">
        <ele>658.6</ele>
        <time>2024-09-15T10:21:27Z</time>
      </trkpt>
      <trkpt lat="45.78952" lon="1.8828">
        <ele>658.6</ele>
        <time>2024-09-15T10:21:28Z</time>
      </trkpt>
      <trkpt lat="45.78954" lon="1.88281">
        <ele>658.6</ele>
        <time>2024-09-15T10:21:29Z</time>
      </trkpt>
      <trkpt lat="45.78956" lon="1.88282">
        <ele>658.6</ele>
        <time>2024-09-15T10:21:30Z</time>
      </trkpt>
      <trkpt lat="45.78959" lon="1.88284">
        <ele>658.6</ele>
        <time>2024-09-15T10:21:31Z</time>
      </trkpt>
      <trkpt lat="45.78961" lon="1.88287">
        <ele>658.6</ele>
        <time>2024-09-15T10:21:32Z</time>
      </trkpt>
      <trkpt lat="45.78963" lon="1.8829">
        <ele>658.6</ele>
        <time>2024-09-15T10:21:33Z</time>
      </trkpt>
      <trkpt lat="45.78965" lon="1.88295">
        <ele>658.4</ele>
        <time>2024-09-15T10:21:34Z</time>
      </trkpt>
      <trkpt lat="45.78967" lon="1.883">
        <ele>658.2</ele>
        <time>2024-09-15T10:21:35Z</time>
      </trkpt>
      <trkpt lat="45.78969" lon="1.88304">
        <ele>657.8</ele>
        <time>2024-09-15T10:21:36Z</time>
      </trkpt>
      <trkpt lat="45.78972" lon="1.88309">
        <ele>657.2</ele>
        <time>2024-09-15T10:21:37Z</time>
      </trkpt>
      <trkpt lat="45.78974" lon="1.88314">
        <ele>657.2</ele>
        <time>2024-09-15T10:21:38Z</time>
      </trkpt>
      <trkpt lat="45.78977" lon="1.88324">
        <ele>656.8</ele>
        <time>2024-09-15T10:21:40Z</time>
      </trkpt>
      <trkpt lat="45.78978" lon="1.88331">
        <ele>656.6</ele>
        <time>2024-09-15T10:21:41Z</time>
      </trkpt>
      <trkpt lat="45.78979" lon="1.88337">
        <ele>656.4</ele>
        <time>2024-09-15T10:21:42Z</time>
      </trkpt>
      <trkpt lat="45.7898" lon="1.88342">
        <ele>656.2</ele>
        <time>2024-09-15T10:21:43Z</time>
      </trkpt>
      <trkpt lat="45.7898" lon="1.88369">
        <ele>656</ele>
        <time>2024-09-15T10:21:48Z</time>
      </trkpt>
      <trkpt lat="45.78979" lon="1.88374">
        <ele>656.2</ele>
        <time>2024-09-15T10:21:49Z</time>
      </trkpt>
      <trkpt lat="45.78978" lon="1.88378">
        <ele>656.2</ele>
        <time>2024-09-15T10:21:50Z</time>
      </trkpt>
      <trkpt lat="45.78977" lon="1.88383">
        <ele>656.2</ele>
        <time>2024-09-15T10:21:51Z</time>
      </trkpt>
      <trkpt lat="45.78976" lon="1.88388">
        <ele>656.2</ele>
        <time>2024-09-15T10:21:52Z</time>
      </trkpt>
      <trkpt lat="45.78975" lon="1.88393">
        <ele>656.4</ele>
        <time>2024-09-15T10:21:53Z</time>
      </trkpt>
      <trkpt lat="45.78968" lon="1.88435">
        <ele>656.2</ele>
        <time>2024-09-15T10:22:00Z</time>
      </trkpt>
      <trkpt lat="45.78966" lon="1.88462">
        <ele>655.4</ele>
        <time>2024-09-15T10:22:05Z</time>
      </trkpt>
      <trkpt lat="45.78964" lon="1.88474">
        <ele>655.2</ele>
        <time>2024-09-15T10:22:07Z</time>
      </trkpt>
      <trkpt lat="45.78962" lon="1.88498">
        <ele>654.8</ele>
        <time>2024-09-15T10:22:11Z</time>
      </trkpt>
      <trkpt lat="45.78959" lon="1.88536">
        <ele>654.6</ele>
        <time>2024-09-15T10:22:17Z</time>
      </trkpt>
      <trkpt lat="45.78957" lon="1.88555">
        <ele>654.6</ele>
        <time>2024-09-15T10:22:20Z</time>
      </trkpt>
      <trkpt lat="45.78952" lon="1.88588">
        <ele>654.6</ele>
        <time>2024-09-15T10:22:25Z</time>
      </trkpt>
      <trkpt lat="45.78949" lon="1.886">
        <ele>654.6</ele>
        <time>2024-09-15T10:22:27Z</time>
      </trkpt>
      <trkpt lat="45.78946" lon="1.88628">
        <ele>654.6</ele>
        <time>2024-09-15T10:22:31Z</time>
      </trkpt>
      <trkpt lat="45.78944" lon="1.88639">
        <ele>654.4</ele>
        <time>2024-09-15T10:22:33Z</time>
      </trkpt>
      <trkpt lat="45.78943" lon="1.88646">
        <ele>654.4</ele>
        <time>2024-09-15T10:22:34Z</time>
      </trkpt>
      <trkpt lat="45.78944" lon="1.88651">
        <ele>654.4</ele>
        <time>2024-09-15T10:22:35Z</time>
      </trkpt>
      <trkpt lat="45.78945" lon="1.88665">
        <ele>654.4</ele>
        <time>2024-09-15T10:22:37Z</time>
      </trkpt>
      <trkpt lat="45.78943" lon="1.88673">
        <ele>654.2</ele>
        <time>2024-09-15T10:22:38Z</time>
      </trkpt>
      <trkpt lat="45.78938" lon="1.88697">
        <ele>654.2</ele>
        <time>2024-09-15T10:22:42Z</time>
      </trkpt>
      <trkpt lat="45.78937" lon="1.88702">
        <ele>654.2</ele>
        <time>2024-09-15T10:22:43Z</time>
      </trkpt>
      <trkpt lat="45.78933" lon="1.88726">
        <ele>654</ele>
        <time>2024-09-15T10:22:47Z</time>
      </trkpt>
      <trkpt lat="45.78936" lon="1.88739">
        <ele>653.6</ele>
        <time>2024-09-15T10:22:49Z</time>
      </trkpt>
      <trkpt lat="45.78938" lon="1.88744">
        <ele>653.8</ele>
        <time>2024-09-15T10:22:50Z</time>
      </trkpt>
      <trkpt lat="45.7894" lon="1.88748">
        <ele>653.6</ele>
        <time>2024-09-15T10:22:51Z</time>
      </trkpt>
      <trkpt lat="45.78943" lon="1.88751">
        <ele>653.4</ele>
        <time>2024-09-15T10:22:52Z</time>
      </trkpt>
      <trkpt lat="45.78948" lon="1.88757">
        <ele>653.4</ele>
        <time>2024-09-15T10:22:53Z</time>
      </trkpt>
      <trkpt lat="45.78951" lon="1.88759">
        <ele>653.2</ele>
        <time>2024-09-15T10:22:54Z</time>
      </trkpt>
      <trkpt lat="45.78955" lon="1.88762">
        <ele>653.2</ele>
        <time>2024-09-15T10:22:55Z</time>
      </trkpt>
      <trkpt lat="45.78958" lon="1.88766">
        <ele>653.2</ele>
        <time>2024-09-15T10:22:56Z</time>
      </trkpt>
      <trkpt lat="45.7896" lon="1.8877">
        <ele>653.2</ele>
        <time>2024-09-15T10:22:57Z</time>
      </trkpt>
      <trkpt lat="45.78963" lon="1.88774">
        <ele>653.2</ele>
        <time>2024-09-15T10:22:58Z</time>
      </trkpt>
      <trkpt lat="45.78965" lon="1.88777">
        <ele>653.2</ele>
        <time>2024-09-15T10:22:59Z</time>
      </trkpt>
      <trkpt lat="45.78967" lon="1.88782">
        <ele>653.2</ele>
        <time>2024-09-15T10:23:00Z</time>
      </trkpt>
      <trkpt lat="45.78968" lon="1.88786">
        <ele>653.2</ele>
        <time>2024-09-15T10:23:01Z</time>
      </trkpt>
      <trkpt lat="45.78969" lon="1.88791">
        <ele>653.2</ele>
        <time>2024-09-15T10:23:02Z</time>
      </trkpt>
      <trkpt lat="45.78969" lon="1.88796">
        <ele>653</ele>
        <time>2024-09-15T10:23:03Z</time>
      </trkpt>
      <trkpt lat="45.78969" lon="1.88801">
        <ele>653.2</ele>
        <time>2024-09-15T10:23:04Z</time>
      </trkpt>
      <trkpt lat="45.78969" lon="1.88807">
        <ele>653.2</ele>
        <time>2024-09-15T10:23:05Z</time>
      </trkpt>
      <trkpt lat="45.78964" lon="1.8883">
        <ele>653.2</ele>
        <time>2024-09-15T10:23:09Z</time>
      </trkpt>
      <trkpt lat="45.78958" lon="1.88853">
        <ele>654</ele>
        <time>2024-09-15T10:23:14Z</time>
      </trkpt>
      <trkpt lat="45.78957" lon="1.88855">
        <ele>654</ele>
        <time>2024-09-15T10:23:15Z</time>
      </trkpt>
      <trkpt lat="45.78954" lon="1.88857">
        <ele>654</ele>
        <time>2024-09-15T10:23:16Z</time>
      </trkpt>
      <trkpt lat="45.78951" lon="1.88859">
        <ele>654</ele>
        <time>2024-09-15T10:23:17Z</time>
      </trkpt>
      <trkpt lat="45.78947" lon="1.88861">
        <ele>654</ele>
        <time>2024-09-15T10:23:18Z</time>
      </trkpt>
      <trkpt lat="45.78943" lon="1.88863">
        <ele>654</ele>
        <time>2024-09-15T10:23:19Z</time>
      </trkpt>
      <trkpt lat="45.7894" lon="1.88865">
        <ele>654</ele>
        <time>2024-09-15T10:23:20Z</time>
      </trkpt>
      <trkpt lat="45.78937" lon="1.88867">
        <ele>653.8</ele>
        <time>2024-09-15T10:23:21Z</time>
      </trkpt>
      <trkpt lat="45.78935" lon="1.88869">
        <ele>653.8</ele>
        <time>2024-09-15T10:23:22Z</time>
      </trkpt>
      <trkpt lat="45.78932" lon="1.88873">
        <ele>653.8</ele>
        <time>2024-09-15T10:23:23Z</time>
      </trkpt>
      <trkpt lat="45.7893" lon="1.88877">
        <ele>653.8</ele>
        <time>2024-09-15T10:23:24Z</time>
      </trkpt>
      <trkpt lat="45.78928" lon="1.88882">
        <ele>653.8</ele>
        <time>2024-09-15T10:23:25Z</time>
      </trkpt>
      <trkpt lat="45.78927" lon="1.88886">
        <ele>653.8</ele>
        <time>2024-09-15T10:23:26Z</time>
      </trkpt>
      <trkpt lat="45.78926" lon="1.88892">
        <ele>653.6</ele>
        <time>2024-09-15T10:23:27Z</time>
      </trkpt>
      <trkpt lat="45.78925" lon="1.88901">
        <ele>653.6</ele>
        <time>2024-09-15T10:23:29Z</time>
      </trkpt>
      <trkpt lat="45.78924" lon="1.88905">
        <ele>653.6</ele>
        <time>2024-09-15T10:23:30Z</time>
      </trkpt>
      <trkpt lat="45.78922" lon="1.88909">
        <ele>653.6</ele>
        <time>2024-09-15T10:23:31Z</time>
      </trkpt>
      <trkpt lat="45.78919" lon="1.88912">
        <ele>653.6</ele>
        <time>2024-09-15T10:23:32Z</time>
      </trkpt>
      <trkpt lat="45.78917" lon="1.88916">
        <ele>653.6</ele>
        <time>2024-09-15T10:23:33Z</time>
      </trkpt>
      <trkpt lat="45.78916" lon="1.88919">
        <ele>653.6</ele>
        <time>2024-09-15T10:23:34Z</time>
      </trkpt>
      <trkpt lat="45.78915" lon="1.88923">
        <ele>653.6</ele>
        <time>2024-09-15T10:23:35Z</time>
      </trkpt>
      <trkpt lat="45.78914" lon="1.88925">
        <ele>653.4</ele>
        <time>2024-09-15T10:23:36Z</time>
      </trkpt>
      <trkpt lat="45.78913" lon="1.88927">
        <ele>653.4</ele>
        <time>2024-09-15T10:23:37Z</time>
      </trkpt>
      <trkpt lat="45.78914" lon="1.88931">
        <ele>653.4</ele>
        <time>2024-09-15T10:23:38Z</time>
      </trkpt>
      <trkpt lat="45.78914" lon="1.88932">
        <ele>653.4</ele>
        <time>2024-09-15T10:23:39Z</time>
      </trkpt>
      <trkpt lat="45.78914" lon="1.88932">
        <ele>653.4</ele>
        <time>2024-09-15T10:23:40Z</time>
      </trkpt>
      <trkpt lat="45.78913" lon="1.8894">
        <ele>653.4</ele>
        <time>2024-09-15T10:23:43Z</time>
      </trkpt>
      <trkpt lat="45.78911" lon="1.88942">
        <ele>653.6</ele>
        <time>2024-09-15T10:23:44Z</time>
      </trkpt>
      <trkpt lat="45.78911" lon="1.88945">
        <ele>653.6</ele>
        <time>2024-09-15T10:23:45Z</time>
      </trkpt>
      <trkpt lat="45.78912" lon="1.88947">
        <ele>653.6</ele>
        <time>2024-09-15T10:23:46Z</time>
      </trkpt>
      <trkpt lat="45.78913" lon="1.88949">
        <ele>653.6</ele>
        <time>2024-09-15T10:23:47Z</time>
      </trkpt>
      <trkpt lat="45.78914" lon="1.8895">
        <ele>653.6</ele>
        <time>2024-09-15T10:23:48Z</time>
      </trkpt>
      <trkpt lat="45.78915" lon="1.8895">
        <ele>653.8</ele>
        <time>2024-09-15T10:23:49Z</time>
      </trkpt>
      <trkpt lat="45.78915" lon="1.8895">
        <ele>653.8</ele>
        <time>2024-09-15T10:23:50Z</time>
      </trkpt>
      <trkpt lat="45.78915" lon="1.8895">
        <ele>654</ele>
        <time>2024-09-15T10:23:51Z</time>
      </trkpt>
      <trkpt lat="45.78915" lon="1.8895">
        <ele>654.2</ele>
        <time>2024-09-15T10:23:52Z</time>
      </trkpt>
      <trkpt lat="45.78916" lon="1.8895">
        <ele>654.4</ele>
        <time>2024-09-15T10:23:53Z</time>
      </trkpt>
      <trkpt lat="45.78919" lon="1.8895">
        <ele>655.2</ele>
        <time>2024-09-15T10:23:55Z</time>
      </trkpt>
      <trkpt lat="45.78921" lon="1.8895">
        <ele>655.6</ele>
        <time>2024-09-15T10:23:56Z</time>
      </trkpt>
      <trkpt lat="45.78923" lon="1.88951">
        <ele>656.2</ele>
        <time>2024-09-15T10:23:58Z</time>
      </trkpt>
      <trkpt lat="45.78923" lon="1.88951">
        <ele>656.6</ele>
        <time>2024-09-15T10:23:59Z</time>
      </trkpt>
      <trkpt lat="45.78923" lon="1.88951">
        <ele>656.8</ele>
        <time>2024-09-15T10:24:00Z</time>
      </trkpt>
      <trkpt lat="45.78923" lon="1.88951">
        <ele>657.2</ele>
        <time>2024-09-15T10:24:01Z</time>
      </trkpt>
      <trkpt lat="45.78925" lon="1.88951">
        <ele>657.6</ele>
        <time>2024-09-15T10:25:53Z</time>
      </trkpt>
      <trkpt lat="45.78932" lon="1.88952">
        <ele>657.6</ele>
        <time>2024-09-15T10:25:57Z</time>
      </trkpt>
      <trkpt lat="45.78934" lon="1.88952">
        <ele>657.6</ele>
        <time>2024-09-15T10:25:58Z</time>
      </trkpt>
      <trkpt lat="45.78935" lon="1.88952">
        <ele>657.6</ele>
        <time>2024-09-15T10:25:59Z</time>
      </trkpt>
      <trkpt lat="45.78937" lon="1.88952">
        <ele>657.4</ele>
        <time>2024-09-15T10:26:00Z</time>
      </trkpt>
      <trkpt lat="45.78947" lon="1.88954">
        <ele>657.4</ele>
        <time>2024-09-15T10:26:05Z</time>
      </trkpt>
      <trkpt lat="45.78954" lon="1.88954">
        <ele>657.4</ele>
        <time>2024-09-15T10:26:07Z</time>
      </trkpt>
      <trkpt lat="45.78964" lon="1.88952">
        <ele>657.6</ele>
        <time>2024-09-15T10:26:11Z</time>
      </trkpt>
      <trkpt lat="45.78967" lon="1.88952">
        <ele>657.6</ele>
        <time>2024-09-15T10:26:12Z</time>
      </trkpt>
      <trkpt lat="45.78971" lon="1.88951">
        <ele>657.8</ele>
        <time>2024-09-15T10:26:13Z</time>
      </trkpt>
      <trkpt lat="45.78974" lon="1.8895">
        <ele>657.8</ele>
        <time>2024-09-15T10:26:14Z</time>
      </trkpt>
      <trkpt lat="45.78977" lon="1.8895">
        <ele>657.8</ele>
        <time>2024-09-15T10:26:15Z</time>
      </trkpt>
      <trkpt lat="45.78991" lon="1.88947">
        <ele>658.4</ele>
        <time>2024-09-15T10:26:19Z</time>
      </trkpt>
      <trkpt lat="45.78995" lon="1.88945">
        <ele>658.6</ele>
        <time>2024-09-15T10:26:20Z</time>
      </trkpt>
      <trkpt lat="45.79" lon="1.88944">
        <ele>658.6</ele>
        <time>2024-09-15T10:26:21Z</time>
      </trkpt>
      <trkpt lat="45.7902" lon="1.88941">
        <ele>658.6</ele>
        <time>2024-09-15T10:26:26Z</time>
      </trkpt>
      <trkpt lat="45.79024" lon="1.88939">
        <ele>658.6</ele>
        <time>2024-09-15T10:26:27Z</time>
      </trkpt>
      <trkpt lat="45.7903" lon="1.88936">
        <ele>658.6</ele>
        <time>2024-09-15T10:26:28Z</time>
      </trkpt>
      <trkpt lat="45.79034" lon="1.88934">
        <ele>658.4</ele>
        <time>2024-09-15T10:26:29Z</time>
      </trkpt>
      <trkpt lat="45.79038" lon="1.88933">
        <ele>658.4</ele>
        <time>2024-09-15T10:26:30Z</time>
      </trkpt>
      <trkpt lat="45.79042" lon="1.88933">
        <ele>658.4</ele>
        <time>2024-09-15T10:26:31Z</time>
      </trkpt>
      <trkpt lat="45.79051" lon="1.88932">
        <ele>658.4</ele>
        <time>2024-09-15T10:26:33Z</time>
      </trkpt>
      <trkpt lat="45.79054" lon="1.88931">
        <ele>658.4</ele>
        <time>2024-09-15T10:26:34Z</time>
      </trkpt>
      <trkpt lat="45.79062" lon="1.88929">
        <ele>658.6</ele>
        <time>2024-09-15T10:26:36Z</time>
      </trkpt>
      <trkpt lat="45.79073" lon="1.88928">
        <ele>658.6</ele>
        <time>2024-09-15T10:26:38Z</time>
      </trkpt>
      <trkpt lat="45.79075" lon="1.88929">
        <ele>658.6</ele>
        <time>2024-09-15T10:26:39Z</time>
      </trkpt>
      <trkpt lat="45.79078" lon="1.8893">
        <ele>658.8</ele>
        <time>2024-09-15T10:26:40Z</time>
      </trkpt>
      <trkpt lat="45.79081" lon="1.8893">
        <ele>659</ele>
        <time>2024-09-15T10:26:41Z</time>
      </trkpt>
      <trkpt lat="45.79084" lon="1.88932">
        <ele>659.2</ele>
        <time>2024-09-15T10:26:42Z</time>
      </trkpt>
      <trkpt lat="45.79086" lon="1.88936">
        <ele>659.2</ele>
        <time>2024-09-15T10:26:43Z</time>
      </trkpt>
      <trkpt lat="45.79088" lon="1.88937">
        <ele>659.4</ele>
        <time>2024-09-15T10:26:44Z</time>
      </trkpt>
      <trkpt lat="45.79093" lon="1.88939">
        <ele>659.4</ele>
        <time>2024-09-15T10:26:45Z</time>
      </trkpt>
      <trkpt lat="45.79096" lon="1.88942">
        <ele>659.6</ele>
        <time>2024-09-15T10:26:46Z</time>
      </trkpt>
      <trkpt lat="45.79102" lon="1.88946">
        <ele>659.6</ele>
        <time>2024-09-15T10:26:47Z</time>
      </trkpt>
      <trkpt lat="45.79104" lon="1.88951">
        <ele>659.6</ele>
        <time>2024-09-15T10:26:48Z</time>
      </trkpt>
      <trkpt lat="45.79106" lon="1.88956">
        <ele>659.8</ele>
        <time>2024-09-15T10:26:49Z</time>
      </trkpt>
      <trkpt lat="45.79106" lon="1.88962">
        <ele>660</ele>
        <time>2024-09-15T10:26:50Z</time>
      </trkpt>
      <trkpt lat="45.79108" lon="1.88968">
        <ele>660</ele>
        <time>2024-09-15T10:26:51Z</time>
      </trkpt>
      <trkpt lat="45.79109" lon="1.88972">
        <ele>660</ele>
        <time>2024-09-15T10:26:52Z</time>
      </trkpt>
      <trkpt lat="45.7911" lon="1.88975">
        <ele>660.2</ele>
        <time>2024-09-15T10:26:53Z</time>
      </trkpt>
      <trkpt lat="45.79112" lon="1.8898">
        <ele>660.2</ele>
        <time>2024-09-15T10:26:54Z</time>
      </trkpt>
      <trkpt lat="45.79114" lon="1.88983">
        <ele>660.8</ele>
        <time>2024-09-15T10:26:55Z</time>
      </trkpt>
      <trkpt lat="45.79115" lon="1.88986">
        <ele>661</ele>
        <time>2024-09-15T10:26:56Z</time>
      </trkpt>
      <trkpt lat="45.79121" lon="1.88997">
        <ele>661.8</ele>
        <time>2024-09-15T10:26:59Z</time>
      </trkpt>
      <trkpt lat="45.79123" lon="1.89008">
        <ele>662.4</ele>
        <time>2024-09-15T10:27:01Z</time>
      </trkpt>
      <trkpt lat="45.79124" lon="1.8901">
        <ele>662.8</ele>
        <time>2024-09-15T10:27:02Z</time>
      </trkpt>
      <trkpt lat="45.79126" lon="1.89011">
        <ele>662.8</ele>
        <time>2024-09-15T10:27:03Z</time>
      </trkpt>
      <trkpt lat="45.79127" lon="1.89014">
        <ele>663</ele>
        <time>2024-09-15T10:27:04Z</time>
      </trkpt>
      <trkpt lat="45.79128" lon="1.89016">
        <ele>663</ele>
        <time>2024-09-15T10:27:05Z</time>
      </trkpt>
      <trkpt lat="45.79128" lon="1.8902">
        <ele>663.2</ele>
        <time>2024-09-15T10:27:06Z</time>
      </trkpt>
      <trkpt lat="45.79129" lon="1.89022">
        <ele>663.2</ele>
        <time>2024-09-15T10:27:07Z</time>
      </trkpt>
      <trkpt lat="45.7913" lon="1.89025">
        <ele>663.2</ele>
        <time>2024-09-15T10:27:08Z</time>
      </trkpt>
      <trkpt lat="45.79131" lon="1.8903">
        <ele>663.4</ele>
        <time>2024-09-15T10:27:09Z</time>
      </trkpt>
      <trkpt lat="45.79132" lon="1.89034">
        <ele>663.4</ele>
        <time>2024-09-15T10:27:10Z</time>
      </trkpt>
      <trkpt lat="45.79134" lon="1.89036">
        <ele>663.4</ele>
        <time>2024-09-15T10:27:11Z</time>
      </trkpt>
      <trkpt lat="45.79134" lon="1.8904">
        <ele>663.4</ele>
        <time>2024-09-15T10:27:12Z</time>
      </trkpt>
      <trkpt lat="45.79135" lon="1.89045">
        <ele>663.4</ele>
        <time>2024-09-15T10:27:13Z</time>
      </trkpt>
      <trkpt lat="45.79136" lon="1.89048">
        <ele>663.4</ele>
        <time>2024-09-15T10:27:14Z</time>
      </trkpt>
      <trkpt lat="45.79137" lon="1.89052">
        <ele>663.6</ele>
        <time>2024-09-15T10:27:15Z</time>
      </trkpt>
      <trkpt lat="45.79138" lon="1.89054">
        <ele>663.6</ele>
        <time>2024-09-15T10:27:16Z</time>
      </trkpt>
      <trkpt lat="45.7914" lon="1.89057">
        <ele>663.6</ele>
        <time>2024-09-15T10:27:17Z</time>
      </trkpt>
      <trkpt lat="45.79142" lon="1.89063">
        <ele>663.6</ele>
        <time>2024-09-15T10:27:18Z</time>
      </trkpt>
      <trkpt lat="45.79143" lon="1.89068">
        <ele>663.8</ele>
        <time>2024-09-15T10:27:19Z</time>
      </trkpt>
      <trkpt lat="45.79144" lon="1.89072">
        <ele>663.8</ele>
        <time>2024-09-15T10:27:20Z</time>
      </trkpt>
      <trkpt lat="45.79145" lon="1.89076">
        <ele>663.8</ele>
        <time>2024-09-15T10:27:21Z</time>
      </trkpt>
      <trkpt lat="45.79147" lon="1.89081">
        <ele>663.6</ele>
        <time>2024-09-15T10:27:22Z</time>
      </trkpt>
      <trkpt lat="45.79149" lon="1.89084">
        <ele>663.6</ele>
        <time>2024-09-15T10:27:23Z</time>
      </trkpt>
      <trkpt lat="45.7915" lon="1.89088">
        <ele>663.8</ele>
        <time>2024-09-15T10:27:24Z</time>
      </trkpt>
      <trkpt lat="45.79151" lon="1.8909">
        <ele>663.8</ele>
        <time>2024-09-15T10:27:25Z</time>
      </trkpt>
      <trkpt lat="45.79152" lon="1.89093">
        <ele>663.8</ele>
        <time>2024-09-15T10:27:26Z</time>
      </trkpt>
      <trkpt lat="45.79154" lon="1.89097">
        <ele>663.6</ele>
        <time>2024-09-15T10:27:27Z</time>
      </trkpt>
      <trkpt lat="45.79154" lon="1.891">
        <ele>663.6</ele>
        <time>2024-09-15T10:27:28Z</time>
      </trkpt>
      <trkpt lat="45.79155" lon="1.89107">
        <ele>663.4</ele>
        <time>2024-09-15T10:27:30Z</time>
      </trkpt>
      <trkpt lat="45.79155" lon="1.89111">
        <ele>663.4</ele>
        <time>2024-09-15T10:27:31Z</time>
      </trkpt>
      <trkpt lat="45.79156" lon="1.89115">
        <ele>663.6</ele>
        <time>2024-09-15T10:27:32Z</time>
      </trkpt>
      <trkpt lat="45.79158" lon="1.89118">
        <ele>663.6</ele>
        <time>2024-09-15T10:27:33Z</time>
      </trkpt>
      <trkpt lat="45.79158" lon="1.89121">
        <ele>663.6</ele>
        <time>2024-09-15T10:27:34Z</time>
      </trkpt>
      <trkpt lat="45.79158" lon="1.89127">
        <ele>663.6</ele>
        <time>2024-09-15T10:27:35Z</time>
      </trkpt>
      <trkpt lat="45.79158" lon="1.89132">
        <ele>663.6</ele>
        <time>2024-09-15T10:27:36Z</time>
      </trkpt>
      <trkpt lat="45.79157" lon="1.89138">
        <ele>663.6</ele>
        <time>2024-09-15T10:27:37Z</time>
      </trkpt>
      <trkpt lat="45.79157" lon="1.89142">
        <ele>663.8</ele>
        <time>2024-09-15T10:27:38Z</time>
      </trkpt>
      <trkpt lat="45.79157" lon="1.89146">
        <ele>663.8</ele>
        <time>2024-09-15T10:27:39Z</time>
      </trkpt>
      <trkpt lat="45.79157" lon="1.8915">
        <ele>663.8</ele>
        <time>2024-09-15T10:27:40Z</time>
      </trkpt>
      <trkpt lat="45.79157" lon="1.89165">
        <ele>664</ele>
        <time>2024-09-15T10:27:43Z</time>
      </trkpt>
      <trkpt lat="45.7915" lon="1.89184">
        <ele>664.2</ele>
        <time>2024-09-15T10:27:47Z</time>
      </trkpt>
      <trkpt lat="45.79149" lon="1.8919">
        <ele>664.2</ele>
        <time>2024-09-15T10:27:48Z</time>
      </trkpt>
      <trkpt lat="45.79147" lon="1.89194">
        <ele>664.2</ele>
        <time>2024-09-15T10:27:49Z</time>
      </trkpt>
      <trkpt lat="45.79144" lon="1.892">
        <ele>664</ele>
        <time>2024-09-15T10:27:50Z</time>
      </trkpt>
      <trkpt lat="45.79131" lon="1.89212">
        <ele>663.8</ele>
        <time>2024-09-15T10:27:53Z</time>
      </trkpt>
      <trkpt lat="45.79126" lon="1.89216">
        <ele>663.8</ele>
        <time>2024-09-15T10:27:54Z</time>
      </trkpt>
      <trkpt lat="45.79114" lon="1.89229">
        <ele>662.8</ele>
        <time>2024-09-15T10:27:57Z</time>
      </trkpt>
      <trkpt lat="45.79104" lon="1.89251">
        <ele>662.2</ele>
        <time>2024-09-15T10:27:59Z</time>
      </trkpt>
      <trkpt lat="45.79102" lon="1.89264">
        <ele>661.6</ele>
        <time>2024-09-15T10:28:00Z</time>
      </trkpt>
      <trkpt lat="45.79102" lon="1.89274">
        <ele>661.2</ele>
        <time>2024-09-15T10:28:01Z</time>
      </trkpt>
      <trkpt lat="45.79102" lon="1.89282">
        <ele>660.6</ele>
        <time>2024-09-15T10:28:02Z</time>
      </trkpt>
      <trkpt lat="45.79103" lon="1.89292">
        <ele>660.2</ele>
        <time>2024-09-15T10:28:03Z</time>
      </trkpt>
      <trkpt lat="45.79104" lon="1.89301">
        <ele>659.4</ele>
        <time>2024-09-15T10:28:04Z</time>
      </trkpt>
      <trkpt lat="45.79105" lon="1.89307">
        <ele>659.2</ele>
        <time>2024-09-15T10:28:05Z</time>
      </trkpt>
      <trkpt lat="45.79106" lon="1.89316">
        <ele>658.6</ele>
        <time>2024-09-15T10:28:06Z</time>
      </trkpt>
      <trkpt lat="45.79108" lon="1.89324">
        <ele>658.2</ele>
        <time>2024-09-15T10:28:07Z</time>
      </trkpt>
      <trkpt lat="45.79108" lon="1.8933">
        <ele>657.6</ele>
        <time>2024-09-15T10:28:08Z</time>
      </trkpt>
      <trkpt lat="45.79107" lon="1.89339">
        <ele>657.6</ele>
        <time>2024-09-15T10:28:09Z</time>
      </trkpt>
      <trkpt lat="45.79106" lon="1.89345">
        <ele>657.4</ele>
        <time>2024-09-15T10:28:10Z</time>
      </trkpt>
      <trkpt lat="45.79104" lon="1.89354">
        <ele>657.2</ele>
        <time>2024-09-15T10:28:11Z</time>
      </trkpt>
      <trkpt lat="45.79099" lon="1.89395">
        <ele>656.6</ele>
        <time>2024-09-15T10:28:15Z</time>
      </trkpt>
      <trkpt lat="45.79099" lon="1.89404">
        <ele>656.4</ele>
        <time>2024-09-15T10:28:16Z</time>
      </trkpt>
      <trkpt lat="45.79098" lon="1.89424">
        <ele>656</ele>
        <time>2024-09-15T10:28:18Z</time>
      </trkpt>
      <trkpt lat="45.79098" lon="1.89431">
        <ele>654.8</ele>
        <time>2024-09-15T10:28:19Z</time>
      </trkpt>
      <trkpt lat="45.79097" lon="1.89443">
        <ele>653.6</ele>
        <time>2024-09-15T10:28:21Z</time>
      </trkpt>
      <trkpt lat="45.79097" lon="1.89448">
        <ele>653.6</ele>
        <time>2024-09-15T10:28:22Z</time>
      </trkpt>
      <trkpt lat="45.79097" lon="1.89457">
        <ele>653.4</ele>
        <time>2024-09-15T10:28:23Z</time>
      </trkpt>
      <trkpt lat="45.79096" lon="1.89461">
        <ele>653.4</ele>
        <time>2024-09-15T10:28:24Z</time>
      </trkpt>
      <trkpt lat="45.79096" lon="1.89468">
        <ele>653.4</ele>
        <time>2024-09-15T10:28:25Z</time>
      </trkpt>
      <trkpt lat="45.79096" lon="1.89478">
        <ele>653.4</ele>
        <time>2024-09-15T10:28:27Z</time>
      </trkpt>
      <trkpt lat="45.79095" lon="1.89482">
        <ele>653.4</ele>
        <time>2024-09-15T10:28:28Z</time>
      </trkpt>
      <trkpt lat="45.79095" lon="1.89488">
        <ele>653.4</ele>
        <time>2024-09-15T10:28:29Z</time>
      </trkpt>
      <trkpt lat="45.79089" lon="1.89504">
        <ele>653.4</ele>
        <time>2024-09-15T10:28:32Z</time>
      </trkpt>
      <trkpt lat="45.79086" lon="1.89509">
        <ele>653.4</ele>
        <time>2024-09-15T10:28:33Z</time>
      </trkpt>
      <trkpt lat="45.79083" lon="1.89515">
        <ele>653.4</ele>
        <time>2024-09-15T10:28:34Z</time>
      </trkpt>
      <trkpt lat="45.79072" lon="1.89535">
        <ele>653</ele>
        <time>2024-09-15T10:28:38Z</time>
      </trkpt>
      <trkpt lat="45.7907" lon="1.89539">
        <ele>652.8</ele>
        <time>2024-09-15T10:28:39Z</time>
      </trkpt>
      <trkpt lat="45.79068" lon="1.89543">
        <ele>652.6</ele>
        <time>2024-09-15T10:28:40Z</time>
      </trkpt>
      <trkpt lat="45.79065" lon="1.89548">
        <ele>652.6</ele>
        <time>2024-09-15T10:28:41Z</time>
      </trkpt>
      <trkpt lat="45.79063" lon="1.89552">
        <ele>652.6</ele>
        <time>2024-09-15T10:28:42Z</time>
      </trkpt>
      <trkpt lat="45.79061" lon="1.89557">
        <ele>652.6</ele>
        <time>2024-09-15T10:28:43Z</time>
      </trkpt>
      <trkpt lat="45.79059" lon="1.8956">
        <ele>652.4</ele>
        <time>2024-09-15T10:28:44Z</time>
      </trkpt>
      <trkpt lat="45.79057" lon="1.89564">
        <ele>652.4</ele>
        <time>2024-09-15T10:28:45Z</time>
      </trkpt>
      <trkpt lat="45.79054" lon="1.89568">
        <ele>652.4</ele>
        <time>2024-09-15T10:28:46Z</time>
      </trkpt>
      <trkpt lat="45.79052" lon="1.89572">
        <ele>652.4</ele>
        <time>2024-09-15T10:28:47Z</time>
      </trkpt>
      <trkpt lat="45.79049" lon="1.89576">
        <ele>652.4</ele>
        <time>2024-09-15T10:28:48Z</time>
      </trkpt>
      <trkpt lat="45.79048" lon="1.89579">
        <ele>652.4</ele>
        <time>2024-09-15T10:28:49Z</time>
      </trkpt>
      <trkpt lat="45.79046" lon="1.89581">
        <ele>652.4</ele>
        <time>2024-09-15T10:28:50Z</time>
      </trkpt>
      <trkpt lat="45.79043" lon="1.89584">
        <ele>652.4</ele>
        <time>2024-09-15T10:28:51Z</time>
      </trkpt>
      <trkpt lat="45.79042" lon="1.89585">
        <ele>652.4</ele>
        <time>2024-09-15T10:28:52Z</time>
      </trkpt>
      <trkpt lat="45.79041" lon="1.89587">
        <ele>652.6</ele>
        <time>2024-09-15T10:28:53Z</time>
      </trkpt>
      <trkpt lat="45.79039" lon="1.8959">
        <ele>652.8</ele>
        <time>2024-09-15T10:28:54Z</time>
      </trkpt>
      <trkpt lat="45.79037" lon="1.89593">
        <ele>653</ele>
        <time>2024-09-15T10:28:55Z</time>
      </trkpt>
      <trkpt lat="45.79035" lon="1.896">
        <ele>653.4</ele>
        <time>2024-09-15T10:28:57Z</time>
      </trkpt>
      <trkpt lat="45.79035" lon="1.89602">
        <ele>653.6</ele>
        <time>2024-09-15T10:28:58Z</time>
      </trkpt>
      <trkpt lat="45.79034" lon="1.89605">
        <ele>653.6</ele>
        <time>2024-09-15T10:28:59Z</time>
      </trkpt>
      <trkpt lat="45.79034" lon="1.89608">
        <ele>654.2</ele>
        <time>2024-09-15T10:29:00Z</time>
      </trkpt>
      <trkpt lat="45.79034" lon="1.89612">
        <ele>654.2</ele>
        <time>2024-09-15T10:29:01Z</time>
      </trkpt>
      <trkpt lat="45.79034" lon="1.89615">
        <ele>654.6</ele>
        <time>2024-09-15T10:29:02Z</time>
      </trkpt>
      <trkpt lat="45.79034" lon="1.8962">
        <ele>654.6</ele>
        <time>2024-09-15T10:29:03Z</time>
      </trkpt>
      <trkpt lat="45.79031" lon="1.89645">
        <ele>654.2</ele>
        <time>2024-09-15T10:29:09Z</time>
      </trkpt>
      <trkpt lat="45.79027" lon="1.89667">
        <ele>653.6</ele>
        <time>2024-09-15T10:29:15Z</time>
      </trkpt>
      <trkpt lat="45.79026" lon="1.8967">
        <ele>653.8</ele>
        <time>2024-09-15T10:29:16Z</time>
      </trkpt>
      <trkpt lat="45.79026" lon="1.89673">
        <ele>653.6</ele>
        <time>2024-09-15T10:29:17Z</time>
      </trkpt>
      <trkpt lat="45.79025" lon="1.89675">
        <ele>653.8</ele>
        <time>2024-09-15T10:29:18Z</time>
      </trkpt>
      <trkpt lat="45.79024" lon="1.89679">
        <ele>653.6</ele>
        <time>2024-09-15T10:29:19Z</time>
      </trkpt>
      <trkpt lat="45.79023" lon="1.89682">
        <ele>653.8</ele>
        <time>2024-09-15T10:29:20Z</time>
      </trkpt>
      <trkpt lat="45.79022" lon="1.89685">
        <ele>653.8</ele>
        <time>2024-09-15T10:29:21Z</time>
      </trkpt>
      <trkpt lat="45.7902" lon="1.89688">
        <ele>653.8</ele>
        <time>2024-09-15T10:29:22Z</time>
      </trkpt>
      <trkpt lat="45.7902" lon="1.8969">
        <ele>653.8</ele>
        <time>2024-09-15T10:29:23Z</time>
      </trkpt>
      <trkpt lat="45.79018" lon="1.89692">
        <ele>653.8</ele>
        <time>2024-09-15T10:29:24Z</time>
      </trkpt>
      <trkpt lat="45.79017" lon="1.89695">
        <ele>653.8</ele>
        <time>2024-09-15T10:29:25Z</time>
      </trkpt>
      <trkpt lat="45.79015" lon="1.89698">
        <ele>653.8</ele>
        <time>2024-09-15T10:29:26Z</time>
      </trkpt>
      <trkpt lat="45.79013" lon="1.89701">
        <ele>654</ele>
        <time>2024-09-15T10:29:27Z</time>
      </trkpt>
      <trkpt lat="45.79014" lon="1.8971">
        <ele>654</ele>
        <time>2024-09-15T10:29:29Z</time>
      </trkpt>
      <trkpt lat="45.79016" lon="1.89725">
        <ele>654</ele>
        <time>2024-09-15T10:29:32Z</time>
      </trkpt>
      <trkpt lat="45.79017" lon="1.89729">
        <ele>654</ele>
        <time>2024-09-15T10:29:33Z</time>
      </trkpt>
      <trkpt lat="45.79018" lon="1.8974">
        <ele>654</ele>
        <time>2024-09-15T10:29:35Z</time>
      </trkpt>
      <trkpt lat="45.79018" lon="1.89751">
        <ele>654.2</ele>
        <time>2024-09-15T10:29:37Z</time>
      </trkpt>
      <trkpt lat="45.79017" lon="1.89756">
        <ele>654.2</ele>
        <time>2024-09-15T10:29:38Z</time>
      </trkpt>
      <trkpt lat="45.79014" lon="1.89765">
        <ele>654.2</ele>
        <time>2024-09-15T10:29:40Z</time>
      </trkpt>
      <trkpt lat="45.79012" lon="1.89777">
        <ele>654.4</ele>
        <time>2024-09-15T10:29:43Z</time>
      </trkpt>
      <trkpt lat="45.79012" lon="1.89781">
        <ele>654.4</ele>
        <time>2024-09-15T10:29:44Z</time>
      </trkpt>
      <trkpt lat="45.79012" lon="1.89786">
        <ele>654.2</ele>
        <time>2024-09-15T10:29:45Z</time>
      </trkpt>
      <trkpt lat="45.79011" lon="1.89792">
        <ele>654.2</ele>
        <time>2024-09-15T10:29:46Z</time>
      </trkpt>
      <trkpt lat="45.79011" lon="1.89797">
        <ele>654.2</ele>
        <time>2024-09-15T10:29:47Z</time>
      </trkpt>
      <trkpt lat="45.79009" lon="1.89828">
        <ele>653.8</ele>
        <time>2024-09-15T10:29:53Z</time>
      </trkpt>
      <trkpt lat="45.79004" lon="1.8986">
        <ele>653.4</ele>
        <time>2024-09-15T10:29:59Z</time>
      </trkpt>
      <trkpt lat="45.79" lon="1.89877">
        <ele>653.2</ele>
        <time>2024-09-15T10:30:03Z</time>
      </trkpt>
      <trkpt lat="45.78998" lon="1.89882">
        <ele>653</ele>
        <time>2024-09-15T10:30:04Z</time>
      </trkpt>
      <trkpt lat="45.78996" lon="1.89886">
        <ele>652.8</ele>
        <time>2024-09-15T10:30:05Z</time>
      </trkpt>
      <trkpt lat="45.78994" lon="1.89887">
        <ele>652.6</ele>
        <time>2024-09-15T10:30:06Z</time>
      </trkpt>
      <trkpt lat="45.78991" lon="1.89888">
        <ele>652.6</ele>
        <time>2024-09-15T10:30:07Z</time>
      </trkpt>
      <trkpt lat="45.78986" lon="1.89887">
        <ele>652.4</ele>
        <time>2024-09-15T10:30:08Z</time>
      </trkpt>
      <trkpt lat="45.78979" lon="1.89884">
        <ele>652.2</ele>
        <time>2024-09-15T10:30:10Z</time>
      </trkpt>
      <trkpt lat="45.78976" lon="1.89883">
        <ele>652</ele>
        <time>2024-09-15T10:30:11Z</time>
      </trkpt>
      <trkpt lat="45.78953" lon="1.8988">
        <ele>651.8</ele>
        <time>2024-09-15T10:30:17Z</time>
      </trkpt>
      <trkpt lat="45.78939" lon="1.89887">
        <ele>651.8</ele>
        <time>2024-09-15T10:30:21Z</time>
      </trkpt>
      <trkpt lat="45.78936" lon="1.8989">
        <ele>651.8</ele>
        <time>2024-09-15T10:30:22Z</time>
      </trkpt>
      <trkpt lat="45.78928" lon="1.89897">
        <ele>652</ele>
        <time>2024-09-15T10:30:25Z</time>
      </trkpt>
      <trkpt lat="45.78925" lon="1.89899">
        <ele>652.2</ele>
        <time>2024-09-15T10:30:26Z</time>
      </trkpt>
      <trkpt lat="45.78923" lon="1.89902">
        <ele>652.2</ele>
        <time>2024-09-15T10:30:27Z</time>
      </trkpt>
      <trkpt lat="45.78921" lon="1.89905">
        <ele>652.4</ele>
        <time>2024-09-15T10:30:28Z</time>
      </trkpt>
      <trkpt lat="45.78913" lon="1.89913">
        <ele>652.6</ele>
        <time>2024-09-15T10:30:31Z</time>
      </trkpt>
      <trkpt lat="45.78905" lon="1.89923">
        <ele>652.8</ele>
        <time>2024-09-15T10:30:34Z</time>
      </trkpt>
      <trkpt lat="45.78902" lon="1.89926">
        <ele>653</ele>
        <time>2024-09-15T10:30:35Z</time>
      </trkpt>
      <trkpt lat="45.789" lon="1.8993">
        <ele>653</ele>
        <time>2024-09-15T10:30:36Z</time>
      </trkpt>
      <trkpt lat="45.78898" lon="1.89932">
        <ele>653.2</ele>
        <time>2024-09-15T10:30:37Z</time>
      </trkpt>
      <trkpt lat="45.78895" lon="1.89935">
        <ele>653.2</ele>
        <time>2024-09-15T10:30:38Z</time>
      </trkpt>
      <trkpt lat="45.78878" lon="1.89948">
        <ele>653.6</ele>
        <time>2024-09-15T10:30:44Z</time>
      </trkpt>
      <trkpt lat="45.78872" lon="1.89952">
        <ele>653.8</ele>
        <time>2024-09-15T10:30:46Z</time>
      </trkpt>
      <trkpt lat="45.78864" lon="1.89957">
        <ele>653.6</ele>
        <time>2024-09-15T10:30:49Z</time>
      </trkpt>
      <trkpt lat="45.78859" lon="1.8996">
        <ele>653.4</ele>
        <time>2024-09-15T10:30:50Z</time>
      </trkpt>
      <trkpt lat="45.78856" lon="1.89964">
        <ele>653.2</ele>
        <time>2024-09-15T10:30:51Z</time>
      </trkpt>
      <trkpt lat="45.78845" lon="1.89976">
        <ele>652.4</ele>
        <time>2024-09-15T10:30:54Z</time>
      </trkpt>
      <trkpt lat="45.78843" lon="1.89979">
        <ele>652.4</ele>
        <time>2024-09-15T10:30:55Z</time>
      </trkpt>
      <trkpt lat="45.7884" lon="1.89984">
        <ele>652.2</ele>
        <time>2024-09-15T10:30:56Z</time>
      </trkpt>
      <trkpt lat="45.78838" lon="1.89989">
        <ele>652.2</ele>
        <time>2024-09-15T10:30:57Z</time>
      </trkpt>
      <trkpt lat="45.78836" lon="1.89992">
        <ele>652</ele>
        <time>2024-09-15T10:30:58Z</time>
      </trkpt>
      <trkpt lat="45.78833" lon="1.89998">
        <ele>652</ele>
        <time>2024-09-15T10:30:59Z</time>
      </trkpt>
      <trkpt lat="45.78829" lon="1.9001">
        <ele>651.6</ele>
        <time>2024-09-15T10:31:01Z</time>
      </trkpt>
      <trkpt lat="45.78824" lon="1.90021">
        <ele>651.6</ele>
        <time>2024-09-15T10:31:03Z</time>
      </trkpt>
      <trkpt lat="45.78823" lon="1.90024">
        <ele>651.8</ele>
        <time>2024-09-15T10:31:04Z</time>
      </trkpt>
      <trkpt lat="45.78821" lon="1.90029">
        <ele>651.8</ele>
        <time>2024-09-15T10:31:05Z</time>
      </trkpt>
      <trkpt lat="45.78819" lon="1.90036">
        <ele>652</ele>
        <time>2024-09-15T10:31:06Z</time>
      </trkpt>
      <trkpt lat="45.78816" lon="1.90041">
        <ele>652</ele>
        <time>2024-09-15T10:31:07Z</time>
      </trkpt>
      <trkpt lat="45.7881" lon="1.90058">
        <ele>652.4</ele>
        <time>2024-09-15T10:31:10Z</time>
      </trkpt>
      <trkpt lat="45.78805" lon="1.90067">
        <ele>653.2</ele>
        <time>2024-09-15T10:31:13Z</time>
      </trkpt>
      <trkpt lat="45.78803" lon="1.9007">
        <ele>653.6</ele>
        <time>2024-09-15T10:31:14Z</time>
      </trkpt>
      <trkpt lat="45.78802" lon="1.90076">
        <ele>653.6</ele>
        <time>2024-09-15T10:31:15Z</time>
      </trkpt>
      <trkpt lat="45.78801" lon="1.90077">
        <ele>653.8</ele>
        <time>2024-09-15T10:31:16Z</time>
      </trkpt>
      <trkpt lat="45.78799" lon="1.90079">
        <ele>653.8</ele>
        <time>2024-09-15T10:31:17Z</time>
      </trkpt>
      <trkpt lat="45.78799" lon="1.90081">
        <ele>654</ele>
        <time>2024-09-15T10:31:18Z</time>
      </trkpt>
      <trkpt lat="45.78797" lon="1.90082">
        <ele>654</ele>
        <time>2024-09-15T10:31:19Z</time>
      </trkpt>
      <trkpt lat="45.78795" lon="1.90084">
        <ele>654.2</ele>
        <time>2024-09-15T10:31:20Z</time>
      </trkpt>
      <trkpt lat="45.78792" lon="1.90085">
        <ele>654.2</ele>
        <time>2024-09-15T10:31:22Z</time>
      </trkpt>
      <trkpt lat="45.7879" lon="1.90086">
        <ele>654.2</ele>
        <time>2024-09-15T10:31:23Z</time>
      </trkpt>
      <trkpt lat="45.78781" lon="1.90097">
        <ele>654.6</ele>
        <time>2024-09-15T10:31:26Z</time>
      </trkpt>
      <trkpt lat="45.78778" lon="1.90101">
        <ele>655.8</ele>
        <time>2024-09-15T10:31:27Z</time>
      </trkpt>
      <trkpt lat="45.78777" lon="1.90103">
        <ele>656</ele>
        <time>2024-09-15T10:31:28Z</time>
      </trkpt>
      <trkpt lat="45.78774" lon="1.90107">
        <ele>656.8</ele>
        <time>2024-09-15T10:31:30Z</time>
      </trkpt>
      <trkpt lat="45.78772" lon="1.9011">
        <ele>657.2</ele>
        <time>2024-09-15T10:31:31Z</time>
      </trkpt>
      <trkpt lat="45.7877" lon="1.90113">
        <ele>657.2</ele>
        <time>2024-09-15T10:31:32Z</time>
      </trkpt>
      <trkpt lat="45.78765" lon="1.90119">
        <ele>657.4</ele>
        <time>2024-09-15T10:31:33Z</time>
      </trkpt>
      <trkpt lat="45.78764" lon="1.90122">
        <ele>657.6</ele>
        <time>2024-09-15T10:31:34Z</time>
      </trkpt>
      <trkpt lat="45.78764" lon="1.90124">
        <ele>657.8</ele>
        <time>2024-09-15T10:31:35Z</time>
      </trkpt>
      <trkpt lat="45.78763" lon="1.90126">
        <ele>657.8</ele>
        <time>2024-09-15T10:31:36Z</time>
      </trkpt>
      <trkpt lat="45.78762" lon="1.90129">
        <ele>658</ele>
        <time>2024-09-15T10:31:37Z</time>
      </trkpt>
      <trkpt lat="45.7876" lon="1.90134">
        <ele>658</ele>
        <time>2024-09-15T10:31:38Z</time>
      </trkpt>
      <trkpt lat="45.78758" lon="1.90139">
        <ele>658.2</ele>
        <time>2024-09-15T10:31:39Z</time>
      </trkpt>
      <trkpt lat="45.78756" lon="1.90143">
        <ele>658.2</ele>
        <time>2024-09-15T10:31:40Z</time>
      </trkpt>
      <trkpt lat="45.78755" lon="1.90145">
        <ele>658.2</ele>
        <time>2024-09-15T10:31:41Z</time>
      </trkpt>
      <trkpt lat="45.78753" lon="1.90149">
        <ele>658.2</ele>
        <time>2024-09-15T10:31:42Z</time>
      </trkpt>
      <trkpt lat="45.78751" lon="1.90153">
        <ele>658</ele>
        <time>2024-09-15T10:31:43Z</time>
      </trkpt>
      <trkpt lat="45.7875" lon="1.90156">
        <ele>658</ele>
        <time>2024-09-15T10:31:44Z</time>
      </trkpt>
      <trkpt lat="45.78748" lon="1.90161">
        <ele>658</ele>
        <time>2024-09-15T10:31:45Z</time>
      </trkpt>
      <trkpt lat="45.78745" lon="1.90166">
        <ele>657.8</ele>
        <time>2024-09-15T10:31:46Z</time>
      </trkpt>
      <trkpt lat="45.78744" lon="1.90169">
        <ele>657.6</ele>
        <time>2024-09-15T10:31:47Z</time>
      </trkpt>
      <trkpt lat="45.78741" lon="1.90174">
        <ele>657.4</ele>
        <time>2024-09-15T10:31:48Z</time>
      </trkpt>
      <trkpt lat="45.78739" lon="1.90179">
        <ele>657.4</ele>
        <time>2024-09-15T10:31:49Z</time>
      </trkpt>
      <trkpt lat="45.78737" lon="1.90183">
        <ele>657.2</ele>
        <time>2024-09-15T10:31:50Z</time>
      </trkpt>
      <trkpt lat="45.78731" lon="1.9019">
        <ele>657</ele>
        <time>2024-09-15T10:31:51Z</time>
      </trkpt>
      <trkpt lat="45.78726" lon="1.90198">
        <ele>656.8</ele>
        <time>2024-09-15T10:31:52Z</time>
      </trkpt>
      <trkpt lat="45.78722" lon="1.90204">
        <ele>656.6</ele>
        <time>2024-09-15T10:31:53Z</time>
      </trkpt>
      <trkpt lat="45.78718" lon="1.90212">
        <ele>656.4</ele>
        <time>2024-09-15T10:31:54Z</time>
      </trkpt>
      <trkpt lat="45.78711" lon="1.90231">
        <ele>655.8</ele>
        <time>2024-09-15T10:31:56Z</time>
      </trkpt>
      <trkpt lat="45.7871" lon="1.90242">
        <ele>655.4</ele>
        <time>2024-09-15T10:31:57Z</time>
      </trkpt>
      <trkpt lat="45.7871" lon="1.90251">
        <ele>655.2</ele>
        <time>2024-09-15T10:31:58Z</time>
      </trkpt>
      <trkpt lat="45.78709" lon="1.90258">
        <ele>654.6</ele>
        <time>2024-09-15T10:31:59Z</time>
      </trkpt>
      <trkpt lat="45.78708" lon="1.90269">
        <ele>654.6</ele>
        <time>2024-09-15T10:32:00Z</time>
      </trkpt>
      <trkpt lat="45.78708" lon="1.90277">
        <ele>654.2</ele>
        <time>2024-09-15T10:32:01Z</time>
      </trkpt>
      <trkpt lat="45.78707" lon="1.90286">
        <ele>654.2</ele>
        <time>2024-09-15T10:32:02Z</time>
      </trkpt>
      <trkpt lat="45.78705" lon="1.90302">
        <ele>654</ele>
        <time>2024-09-15T10:32:04Z</time>
      </trkpt>
      <trkpt lat="45.78703" lon="1.90309">
        <ele>653.8</ele>
        <time>2024-09-15T10:32:05Z</time>
      </trkpt>
      <trkpt lat="45.78701" lon="1.90316">
        <ele>653.8</ele>
        <time>2024-09-15T10:32:06Z</time>
      </trkpt>
      <trkpt lat="45.78698" lon="1.90324">
        <ele>653.8</ele>
        <time>2024-09-15T10:32:07Z</time>
      </trkpt>
      <trkpt lat="45.78696" lon="1.9033">
        <ele>653.8</ele>
        <time>2024-09-15T10:32:08Z</time>
      </trkpt>
      <trkpt lat="45.78694" lon="1.90345">
        <ele>653.8</ele>
        <time>2024-09-15T10:32:11Z</time>
      </trkpt>
      <trkpt lat="45.78692" lon="1.90348">
        <ele>653.8</ele>
        <time>2024-09-15T10:32:12Z</time>
      </trkpt>
      <trkpt lat="45.78688" lon="1.90353">
        <ele>653.8</ele>
        <time>2024-09-15T10:32:13Z</time>
      </trkpt>
      <trkpt lat="45.78678" lon="1.90367">
        <ele>653.8</ele>
        <time>2024-09-15T10:32:16Z</time>
      </trkpt>
      <trkpt lat="45.78674" lon="1.9038">
        <ele>653.8</ele>
        <time>2024-09-15T10:32:18Z</time>
      </trkpt>
      <trkpt lat="45.78676" lon="1.90387">
        <ele>653.8</ele>
        <time>2024-09-15T10:32:19Z</time>
      </trkpt>
      <trkpt lat="45.78678" lon="1.90393">
        <ele>653.6</ele>
        <time>2024-09-15T10:32:20Z</time>
      </trkpt>
      <trkpt lat="45.78684" lon="1.90406">
        <ele>653.6</ele>
        <time>2024-09-15T10:32:22Z</time>
      </trkpt>
      <trkpt lat="45.78692" lon="1.90413">
        <ele>653.6</ele>
        <time>2024-09-15T10:32:24Z</time>
      </trkpt>
      <trkpt lat="45.78695" lon="1.90413">
        <ele>653.8</ele>
        <time>2024-09-15T10:32:25Z</time>
      </trkpt>
      <trkpt lat="45.78697" lon="1.90414">
        <ele>653.8</ele>
        <time>2024-09-15T10:32:26Z</time>
      </trkpt>
      <trkpt lat="45.787" lon="1.90415">
        <ele>654.2</ele>
        <time>2024-09-15T10:32:27Z</time>
      </trkpt>
      <trkpt lat="45.78704" lon="1.90414">
        <ele>654.2</ele>
        <time>2024-09-15T10:32:28Z</time>
      </trkpt>
      <trkpt lat="45.78709" lon="1.90412">
        <ele>654.4</ele>
        <time>2024-09-15T10:32:29Z</time>
      </trkpt>
      <trkpt lat="45.78713" lon="1.9041">
        <ele>654.4</ele>
        <time>2024-09-15T10:32:30Z</time>
      </trkpt>
      <trkpt lat="45.78718" lon="1.90407">
        <ele>654.6</ele>
        <time>2024-09-15T10:32:31Z</time>
      </trkpt>
      <trkpt lat="45.78732" lon="1.90398">
        <ele>654.8</ele>
        <time>2024-09-15T10:32:35Z</time>
      </trkpt>
      <trkpt lat="45.78734" lon="1.90398">
        <ele>654.6</ele>
        <time>2024-09-15T10:32:36Z</time>
      </trkpt>
      <trkpt lat="45.78736" lon="1.90399">
        <ele>654.4</ele>
        <time>2024-09-15T10:32:37Z</time>
      </trkpt>
      <trkpt lat="45.7874" lon="1.904">
        <ele>654.2</ele>
        <time>2024-09-15T10:32:38Z</time>
      </trkpt>
      <trkpt lat="45.78746" lon="1.904">
        <ele>654</ele>
        <time>2024-09-15T10:32:39Z</time>
      </trkpt>
      <trkpt lat="45.78751" lon="1.904">
        <ele>653.8</ele>
        <time>2024-09-15T10:32:40Z</time>
      </trkpt>
      <trkpt lat="45.78763" lon="1.904">
        <ele>653.2</ele>
        <time>2024-09-15T10:32:43Z</time>
      </trkpt>
      <trkpt lat="45.78767" lon="1.904">
        <ele>653.2</ele>
        <time>2024-09-15T10:32:44Z</time>
      </trkpt>
      <trkpt lat="45.78772" lon="1.904">
        <ele>653.2</ele>
        <time>2024-09-15T10:32:45Z</time>
      </trkpt>
      <trkpt lat="45.78798" lon="1.90409">
        <ele>653.2</ele>
        <time>2024-09-15T10:32:51Z</time>
      </trkpt>
      <trkpt lat="45.78805" lon="1.90417">
        <ele>653.4</ele>
        <time>2024-09-15T10:32:53Z</time>
      </trkpt>
      <trkpt lat="45.78807" lon="1.90421">
        <ele>653.4</ele>
        <time>2024-09-15T10:32:54Z</time>
      </trkpt>
      <trkpt lat="45.78811" lon="1.90428">
        <ele>653.6</ele>
        <time>2024-09-15T10:32:55Z</time>
      </trkpt>
      <trkpt lat="45.78813" lon="1.90432">
        <ele>653.6</ele>
        <time>2024-09-15T10:32:56Z</time>
      </trkpt>
      <trkpt lat="45.78816" lon="1.90438">
        <ele>653.8</ele>
        <time>2024-09-15T10:32:57Z</time>
      </trkpt>
      <trkpt lat="45.78818" lon="1.90443">
        <ele>653.8</ele>
        <time>2024-09-15T10:32:58Z</time>
      </trkpt>
      <trkpt lat="45.78821" lon="1.90448">
        <ele>653.8</ele>
        <time>2024-09-15T10:32:59Z</time>
      </trkpt>
      <trkpt lat="45.78826" lon="1.90457">
        <ele>653.8</ele>
        <time>2024-09-15T10:33:01Z</time>
      </trkpt>
      <trkpt lat="45.78829" lon="1.90463">
        <ele>653.8</ele>
        <time>2024-09-15T10:33:02Z</time>
      </trkpt>
      <trkpt lat="45.78831" lon="1.90466">
        <ele>653.8</ele>
        <time>2024-09-15T10:33:03Z</time>
      </trkpt>
      <trkpt lat="45.78834" lon="1.90471">
        <ele>653.8</ele>
        <time>2024-09-15T10:33:04Z</time>
      </trkpt>
      <trkpt lat="45.78835" lon="1.90475">
        <ele>654</ele>
        <time>2024-09-15T10:33:05Z</time>
      </trkpt>
      <trkpt lat="45.78836" lon="1.90479">
        <ele>654</ele>
        <time>2024-09-15T10:33:06Z</time>
      </trkpt>
      <trkpt lat="45.78837" lon="1.90483">
        <ele>654</ele>
        <time>2024-09-15T10:33:07Z</time>
      </trkpt>
      <trkpt lat="45.78838" lon="1.90486">
        <ele>654</ele>
        <time>2024-09-15T10:33:08Z</time>
      </trkpt>
      <trkpt lat="45.78839" lon="1.9049">
        <ele>654.2</ele>
        <time>2024-09-15T10:33:09Z</time>
      </trkpt>
      <trkpt lat="45.78842" lon="1.90496">
        <ele>654.4</ele>
        <time>2024-09-15T10:33:10Z</time>
      </trkpt>
      <trkpt lat="45.78849" lon="1.90504">
        <ele>654.2</ele>
        <time>2024-09-15T10:33:12Z</time>
      </trkpt>
      <trkpt lat="45.78853" lon="1.90508">
        <ele>654.4</ele>
        <time>2024-09-15T10:33:13Z</time>
      </trkpt>
      <trkpt lat="45.78854" lon="1.90513">
        <ele>654.4</ele>
        <time>2024-09-15T10:33:14Z</time>
      </trkpt>
      <trkpt lat="45.78855" lon="1.90517">
        <ele>654.4</ele>
        <time>2024-09-15T10:33:15Z</time>
      </trkpt>
      <trkpt lat="45.78856" lon="1.90522">
        <ele>654.4</ele>
        <time>2024-09-15T10:33:16Z</time>
      </trkpt>
      <trkpt lat="45.78859" lon="1.90527">
        <ele>654.2</ele>
        <time>2024-09-15T10:33:17Z</time>
      </trkpt>
      <trkpt lat="45.78862" lon="1.9053">
        <ele>654.2</ele>
        <time>2024-09-15T10:33:18Z</time>
      </trkpt>
      <trkpt lat="45.78865" lon="1.90535">
        <ele>654</ele>
        <time>2024-09-15T10:33:19Z</time>
      </trkpt>
      <trkpt lat="45.78868" lon="1.90539">
        <ele>654</ele>
        <time>2024-09-15T10:33:20Z</time>
      </trkpt>
      <trkpt lat="45.7887" lon="1.90542">
        <ele>654</ele>
        <time>2024-09-15T10:33:21Z</time>
      </trkpt>
      <trkpt lat="45.78872" lon="1.90547">
        <ele>654</ele>
        <time>2024-09-15T10:33:22Z</time>
      </trkpt>
      <trkpt lat="45.78883" lon="1.9056">
        <ele>653.8</ele>
        <time>2024-09-15T10:33:25Z</time>
      </trkpt>
      <trkpt lat="45.7889" lon="1.90567">
        <ele>653.8</ele>
        <time>2024-09-15T10:33:27Z</time>
      </trkpt>
      <trkpt lat="45.78905" lon="1.90591">
        <ele>654.2</ele>
        <time>2024-09-15T10:33:32Z</time>
      </trkpt>
      <trkpt lat="45.78919" lon="1.90605">
        <ele>654.6</ele>
        <time>2024-09-15T10:33:36Z</time>
      </trkpt>
      <trkpt lat="45.78922" lon="1.90611">
        <ele>654.6</ele>
        <time>2024-09-15T10:33:37Z</time>
      </trkpt>
      <trkpt lat="45.78933" lon="1.90621">
        <ele>654.6</ele>
        <time>2024-09-15T10:33:40Z</time>
      </trkpt>
      <trkpt lat="45.78936" lon="1.90623">
        <ele>654.6</ele>
        <time>2024-09-15T10:33:41Z</time>
      </trkpt>
      <trkpt lat="45.78942" lon="1.90631">
        <ele>654.8</ele>
        <time>2024-09-15T10:33:43Z</time>
      </trkpt>
      <trkpt lat="45.78944" lon="1.90634">
        <ele>654.8</ele>
        <time>2024-09-15T10:33:44Z</time>
      </trkpt>
      <trkpt lat="45.78947" lon="1.90637">
        <ele>655</ele>
        <time>2024-09-15T10:33:45Z</time>
      </trkpt>
      <trkpt lat="45.78951" lon="1.90641">
        <ele>655</ele>
        <time>2024-09-15T10:33:46Z</time>
      </trkpt>
      <trkpt lat="45.78953" lon="1.90644">
        <ele>655</ele>
        <time>2024-09-15T10:33:47Z</time>
      </trkpt>
      <trkpt lat="45.78956" lon="1.90648">
        <ele>655</ele>
        <time>2024-09-15T10:33:48Z</time>
      </trkpt>
      <trkpt lat="45.78959" lon="1.9065">
        <ele>655</ele>
        <time>2024-09-15T10:33:49Z</time>
      </trkpt>
      <trkpt lat="45.78968" lon="1.90671">
        <ele>655</ele>
        <time>2024-09-15T10:33:54Z</time>
      </trkpt>
      <trkpt lat="45.78968" lon="1.90677">
        <ele>655.2</ele>
        <time>2024-09-15T10:33:55Z</time>
      </trkpt>
      <trkpt lat="45.78969" lon="1.90683">
        <ele>655</ele>
        <time>2024-09-15T10:33:56Z</time>
      </trkpt>
      <trkpt lat="45.7897" lon="1.90689">
        <ele>655</ele>
        <time>2024-09-15T10:33:57Z</time>
      </trkpt>
      <trkpt lat="45.78973" lon="1.90697">
        <ele>655</ele>
        <time>2024-09-15T10:33:59Z</time>
      </trkpt>
      <trkpt lat="45.78974" lon="1.90699">
        <ele>655</ele>
        <time>2024-09-15T10:34:00Z</time>
      </trkpt>
      <trkpt lat="45.78975" lon="1.90702">
        <ele>655</ele>
        <time>2024-09-15T10:34:01Z</time>
      </trkpt>
      <trkpt lat="45.78976" lon="1.90705">
        <ele>655</ele>
        <time>2024-09-15T10:34:02Z</time>
      </trkpt>
      <trkpt lat="45.78977" lon="1.90708">
        <ele>655</ele>
        <time>2024-09-15T10:34:03Z</time>
      </trkpt>
      <trkpt lat="45.78984" lon="1.90715">
        <ele>655.2</ele>
        <time>2024-09-15T10:34:06Z</time>
      </trkpt>
      <trkpt lat="45.78986" lon="1.90717">
        <ele>655.2</ele>
        <time>2024-09-15T10:34:07Z</time>
      </trkpt>
      <trkpt lat="45.78989" lon="1.90718">
        <ele>655.2</ele>
        <time>2024-09-15T10:34:08Z</time>
      </trkpt>
      <trkpt lat="45.78999" lon="1.90723">
        <ele>655.2</ele>
        <time>2024-09-15T10:34:10Z</time>
      </trkpt>
      <trkpt lat="45.79001" lon="1.90726">
        <ele>655.2</ele>
        <time>2024-09-15T10:34:11Z</time>
      </trkpt>
      <trkpt lat="45.79003" lon="1.90734">
        <ele>655.2</ele>
        <time>2024-09-15T10:34:13Z</time>
      </trkpt>
      <trkpt lat="45.79004" lon="1.90737">
        <ele>655.2</ele>
        <time>2024-09-15T10:34:14Z</time>
      </trkpt>
      <trkpt lat="45.79007" lon="1.90741">
        <ele>655.2</ele>
        <time>2024-09-15T10:34:15Z</time>
      </trkpt>
      <trkpt lat="45.79009" lon="1.90744">
        <ele>655.2</ele>
        <time>2024-09-15T10:34:16Z</time>
      </trkpt>
      <trkpt lat="45.79009" lon="1.90746">
        <ele>655.2</ele>
        <time>2024-09-15T10:34:17Z</time>
      </trkpt>
      <trkpt lat="45.79009" lon="1.90746">
        <ele>655.2</ele>
        <time>2024-09-15T10:34:18Z</time>
      </trkpt>
      <trkpt lat="45.79009" lon="1.90746">
        <ele>655.2</ele>
        <time>2024-09-15T10:34:19Z</time>
      </trkpt>
      <trkpt lat="45.79011" lon="1.90747">
        <ele>655.2</ele>
        <time>2024-09-15T10:34:23Z</time>
      </trkpt>
      <trkpt lat="45.79011" lon="1.90747">
        <ele>655.4</ele>
        <time>2024-09-15T10:34:25Z</time>
      </trkpt>
      <trkpt lat="45.79011" lon="1.90747">
        <ele>655.4</ele>
        <time>2024-09-15T10:34:26Z</time>
      </trkpt>
      <trkpt lat="45.79013" lon="1.90751">
        <ele>656</ele>
        <time>2024-09-15T10:34:30Z</time>
      </trkpt>
      <trkpt lat="45.79012" lon="1.90751">
        <ele>656</ele>
        <time>2024-09-15T10:34:31Z</time>
      </trkpt>
      <trkpt lat="45.79013" lon="1.90752">
        <ele>656.2</ele>
        <time>2024-09-15T10:34:32Z</time>
      </trkpt>
      <trkpt lat="45.79013" lon="1.90752">
        <ele>656.4</ele>
        <time>2024-09-15T10:34:34Z</time>
      </trkpt>
      <trkpt lat="45.79014" lon="1.90753">
        <ele>656.8</ele>
        <time>2024-09-15T10:34:36Z</time>
      </trkpt>
      <trkpt lat="45.79016" lon="1.90758">
        <ele>656.8</ele>
        <time>2024-09-15T10:34:39Z</time>
      </trkpt>
      <trkpt lat="45.79016" lon="1.90759">
        <ele>656.8</ele>
        <time>2024-09-15T10:34:41Z</time>
      </trkpt>
      <trkpt lat="45.79016" lon="1.90759">
        <ele>656.8</ele>
        <time>2024-09-15T10:34:42Z</time>
      </trkpt>
      <trkpt lat="45.79017" lon="1.90762">
        <ele>655</ele>
        <time>2024-09-15T10:34:54Z</time>
      </trkpt>
      <trkpt lat="45.79018" lon="1.90764">
        <ele>655</ele>
        <time>2024-09-15T10:34:55Z</time>
      </trkpt>
      <trkpt lat="45.79019" lon="1.90766">
        <ele>655</ele>
        <time>2024-09-15T10:34:56Z</time>
      </trkpt>
      <trkpt lat="45.79021" lon="1.90771">
        <ele>655.2</ele>
        <time>2024-09-15T10:35:00Z</time>
      </trkpt>
      <trkpt lat="45.79021" lon="1.90772">
        <ele>655.2</ele>
        <time>2024-09-15T10:35:01Z</time>
      </trkpt>
      <trkpt lat="45.79023" lon="1.90772">
        <ele>655.2</ele>
        <time>2024-09-15T10:35:04Z</time>
      </trkpt>
      <trkpt lat="45.79023" lon="1.90772">
        <ele>655.2</ele>
        <time>2024-09-15T10:35:06Z</time>
      </trkpt>
      <trkpt lat="45.79023" lon="1.90772">
        <ele>655.2</ele>
        <time>2024-09-15T10:35:07Z</time>
      </trkpt>
      <trkpt lat="45.79023" lon="1.90772">
        <ele>655.2</ele>
        <time>2024-09-15T10:35:08Z</time>
      </trkpt>
      <trkpt lat="45.79023" lon="1.90772">
        <ele>655.2</ele>
        <time>2024-09-15T10:35:09Z</time>
      </trkpt>
      <trkpt lat="45.79025" lon="1.90774">
        <ele>655.2</ele>
        <time>2024-09-15T10:37:26Z</time>
      </trkpt>
      <trkpt lat="45.7903" lon="1.90779">
        <ele>655.4</ele>
        <time>2024-09-15T10:37:28Z</time>
      </trkpt>
      <trkpt lat="45.79047" lon="1.90798">
        <ele>655.4</ele>
        <time>2024-09-15T10:37:32Z</time>
      </trkpt>
      <trkpt lat="45.79055" lon="1.90811">
        <ele>655.6</ele>
        <time>2024-09-15T10:37:35Z</time>
      </trkpt>
      <trkpt lat="45.79057" lon="1.90815">
        <ele>655.6</ele>
        <time>2024-09-15T10:37:36Z</time>
      </trkpt>
      <trkpt lat="45.7906" lon="1.9082">
        <ele>655.8</ele>
        <time>2024-09-15T10:37:37Z</time>
      </trkpt>
      <trkpt lat="45.79064" lon="1.90825">
        <ele>655.8</ele>
        <time>2024-09-15T10:37:38Z</time>
      </trkpt>
      <trkpt lat="45.79076" lon="1.90835">
        <ele>656</ele>
        <time>2024-09-15T10:37:41Z</time>
      </trkpt>
      <trkpt lat="45.79082" lon="1.90834">
        <ele>656</ele>
        <time>2024-09-15T10:37:42Z</time>
      </trkpt>
      <trkpt lat="45.79087" lon="1.90833">
        <ele>656</ele>
        <time>2024-09-15T10:37:43Z</time>
      </trkpt>
      <trkpt lat="45.79092" lon="1.90833">
        <ele>656</ele>
        <time>2024-09-15T10:37:44Z</time>
      </trkpt>
      <trkpt lat="45.79095" lon="1.90832">
        <ele>656</ele>
        <time>2024-09-15T10:37:45Z</time>
      </trkpt>
      <trkpt lat="45.79098" lon="1.90831">
        <ele>656.2</ele>
        <time>2024-09-15T10:37:46Z</time>
      </trkpt>
      <trkpt lat="45.79101" lon="1.9083">
        <ele>656.2</ele>
        <time>2024-09-15T10:37:47Z</time>
      </trkpt>
      <trkpt lat="45.79104" lon="1.90826">
        <ele>656.2</ele>
        <time>2024-09-15T10:37:48Z</time>
      </trkpt>
      <trkpt lat="45.79106" lon="1.90821">
        <ele>656.2</ele>
        <time>2024-09-15T10:37:49Z</time>
      </trkpt>
      <trkpt lat="45.79109" lon="1.90815">
        <ele>656.2</ele>
        <time>2024-09-15T10:37:50Z</time>
      </trkpt>
      <trkpt lat="45.79112" lon="1.9081">
        <ele>656.2</ele>
        <time>2024-09-15T10:37:51Z</time>
      </trkpt>
      <trkpt lat="45.79116" lon="1.90806">
        <ele>656.2</ele>
        <time>2024-09-15T10:37:52Z</time>
      </trkpt>
      <trkpt lat="45.7912" lon="1.90804">
        <ele>656.2</ele>
        <time>2024-09-15T10:37:53Z</time>
      </trkpt>
      <trkpt lat="45.79124" lon="1.90804">
        <ele>656.2</ele>
        <time>2024-09-15T10:37:54Z</time>
      </trkpt>
      <trkpt lat="45.79129" lon="1.90804">
        <ele>656.2</ele>
        <time>2024-09-15T10:37:55Z</time>
      </trkpt>
      <trkpt lat="45.79137" lon="1.90805">
        <ele>656.2</ele>
        <time>2024-09-15T10:37:57Z</time>
      </trkpt>
      <trkpt lat="45.79142" lon="1.90804">
        <ele>656.2</ele>
        <time>2024-09-15T10:37:58Z</time>
      </trkpt>
      <trkpt lat="45.79164" lon="1.90807">
        <ele>656.2</ele>
        <time>2024-09-15T10:38:03Z</time>
      </trkpt>
      <trkpt lat="45.79167" lon="1.90807">
        <ele>656.4</ele>
        <time>2024-09-15T10:38:04Z</time>
      </trkpt>
      <trkpt lat="45.79173" lon="1.90806">
        <ele>656.6</ele>
        <time>2024-09-15T10:38:06Z</time>
      </trkpt>
      <trkpt lat="45.79175" lon="1.90805">
        <ele>656.6</ele>
        <time>2024-09-15T10:38:07Z</time>
      </trkpt>
      <trkpt lat="45.79178" lon="1.90802">
        <ele>656.6</ele>
        <time>2024-09-15T10:38:08Z</time>
      </trkpt>
      <trkpt lat="45.7918" lon="1.90799">
        <ele>656.8</ele>
        <time>2024-09-15T10:38:09Z</time>
      </trkpt>
      <trkpt lat="45.79183" lon="1.90795">
        <ele>656.6</ele>
        <time>2024-09-15T10:38:10Z</time>
      </trkpt>
      <trkpt lat="45.79185" lon="1.9079">
        <ele>656.6</ele>
        <time>2024-09-15T10:38:11Z</time>
      </trkpt>
      <trkpt lat="45.79187" lon="1.90784">
        <ele>656.8</ele>
        <time>2024-09-15T10:38:12Z</time>
      </trkpt>
      <trkpt lat="45.79187" lon="1.90778">
        <ele>656.8</ele>
        <time>2024-09-15T10:38:13Z</time>
      </trkpt>
      <trkpt lat="45.79187" lon="1.90772">
        <ele>656.8</ele>
        <time>2024-09-15T10:38:14Z</time>
      </trkpt>
      <trkpt lat="45.79188" lon="1.90766">
        <ele>656.6</ele>
        <time>2024-09-15T10:38:15Z</time>
      </trkpt>
      <trkpt lat="45.7919" lon="1.9076">
        <ele>656.6</ele>
        <time>2024-09-15T10:38:16Z</time>
      </trkpt>
      <trkpt lat="45.79192" lon="1.90755">
        <ele>656.6</ele>
        <time>2024-09-15T10:38:17Z</time>
      </trkpt>
      <trkpt lat="45.79195" lon="1.9075">
        <ele>656.6</ele>
        <time>2024-09-15T10:38:18Z</time>
      </trkpt>
      <trkpt lat="45.79199" lon="1.90748">
        <ele>656.6</ele>
        <time>2024-09-15T10:38:19Z</time>
      </trkpt>
      <trkpt lat="45.79203" lon="1.90748">
        <ele>656.6</ele>
        <time>2024-09-15T10:38:20Z</time>
      </trkpt>
      <trkpt lat="45.79211" lon="1.90747">
        <ele>656.6</ele>
        <time>2024-09-15T10:38:22Z</time>
      </trkpt>
      <trkpt lat="45.79215" lon="1.90747">
        <ele>656.6</ele>
        <time>2024-09-15T10:38:23Z</time>
      </trkpt>
      <trkpt lat="45.79219" lon="1.90746">
        <ele>656.6</ele>
        <time>2024-09-15T10:38:24Z</time>
      </trkpt>
      <trkpt lat="45.79224" lon="1.90745">
        <ele>656.6</ele>
        <time>2024-09-15T10:38:25Z</time>
      </trkpt>
      <trkpt lat="45.79232" lon="1.90742">
        <ele>656.6</ele>
        <time>2024-09-15T10:38:27Z</time>
      </trkpt>
      <trkpt lat="45.79236" lon="1.90741">
        <ele>656.6</ele>
        <time>2024-09-15T10:38:28Z</time>
      </trkpt>
      <trkpt lat="45.7924" lon="1.90741">
        <ele>656.6</ele>
        <time>2024-09-15T10:38:29Z</time>
      </trkpt>
      <trkpt lat="45.79247" lon="1.90742">
        <ele>656.6</ele>
        <time>2024-09-15T10:38:31Z</time>
      </trkpt>
      <trkpt lat="45.79251" lon="1.90742">
        <ele>656.6</ele>
        <time>2024-09-15T10:38:32Z</time>
      </trkpt>
      <trkpt lat="45.79254" lon="1.90742">
        <ele>656.6</ele>
        <time>2024-09-15T10:38:33Z</time>
      </trkpt>
      <trkpt lat="45.79258" lon="1.90742">
        <ele>656.6</ele>
        <time>2024-09-15T10:38:34Z</time>
      </trkpt>
      <trkpt lat="45.79261" lon="1.90741">
        <ele>656.4</ele>
        <time>2024-09-15T10:38:35Z</time>
      </trkpt>
      <trkpt lat="45.79264" lon="1.90742">
        <ele>656.4</ele>
        <time>2024-09-15T10:38:36Z</time>
      </trkpt>
      <trkpt lat="45.79268" lon="1.90742">
        <ele>656.4</ele>
        <time>2024-09-15T10:38:37Z</time>
      </trkpt>
      <trkpt lat="45.79271" lon="1.90743">
        <ele>656.4</ele>
        <time>2024-09-15T10:38:38Z</time>
      </trkpt>
      <trkpt lat="45.79274" lon="1.90744">
        <ele>656.4</ele>
        <time>2024-09-15T10:38:39Z</time>
      </trkpt>
      <trkpt lat="45.79277" lon="1.90746">
        <ele>656.4</ele>
        <time>2024-09-15T10:38:40Z</time>
      </trkpt>
      <trkpt lat="45.7928" lon="1.90746">
        <ele>656.4</ele>
        <time>2024-09-15T10:38:41Z</time>
      </trkpt>
      <trkpt lat="45.79283" lon="1.90747">
        <ele>656.6</ele>
        <time>2024-09-15T10:38:42Z</time>
      </trkpt>
      <trkpt lat="45.79285" lon="1.90748">
        <ele>656.6</ele>
        <time>2024-09-15T10:38:43Z</time>
      </trkpt>
      <trkpt lat="45.79289" lon="1.90749">
        <ele>656.6</ele>
        <time>2024-09-15T10:38:44Z</time>
      </trkpt>
      <trkpt lat="45.79292" lon="1.9075">
        <ele>656.6</ele>
        <time>2024-09-15T10:38:45Z</time>
      </trkpt>
      <trkpt lat="45.79294" lon="1.90752">
        <ele>657</ele>
        <time>2024-09-15T10:38:46Z</time>
      </trkpt>
      <trkpt lat="45.79297" lon="1.90752">
        <ele>657.2</ele>
        <time>2024-09-15T10:38:47Z</time>
      </trkpt>
      <trkpt lat="45.79299" lon="1.90754">
        <ele>657.4</ele>
        <time>2024-09-15T10:38:48Z</time>
      </trkpt>
      <trkpt lat="45.793" lon="1.90755">
        <ele>657.4</ele>
        <time>2024-09-15T10:38:49Z</time>
      </trkpt>
      <trkpt lat="45.79302" lon="1.90755">
        <ele>657.8</ele>
        <time>2024-09-15T10:38:50Z</time>
      </trkpt>
      <trkpt lat="45.79303" lon="1.90755">
        <ele>657.8</ele>
        <time>2024-09-15T10:38:51Z</time>
      </trkpt>
      <trkpt lat="45.79303" lon="1.90755">
        <ele>658</ele>
        <time>2024-09-15T10:38:52Z</time>
      </trkpt>
      <trkpt lat="45.79304" lon="1.90756">
        <ele>658</ele>
        <time>2024-09-15T10:38:53Z</time>
      </trkpt>
      <trkpt lat="45.79304" lon="1.90756">
        <ele>658.2</ele>
        <time>2024-09-15T10:38:54Z</time>
      </trkpt>
      <trkpt lat="45.79304" lon="1.90756">
        <ele>658.2</ele>
        <time>2024-09-15T10:38:55Z</time>
      </trkpt>
      <trkpt lat="45.79304" lon="1.90756">
        <ele>658.4</ele>
        <time>2024-09-15T10:38:56Z</time>
      </trkpt>
      <trkpt lat="45.79306" lon="1.90757">
        <ele>658</ele>
        <time>2024-09-15T10:39:48Z</time>
      </trkpt>
      <trkpt lat="45.79308" lon="1.90758">
        <ele>658</ele>
        <time>2024-09-15T10:39:49Z</time>
      </trkpt>
      <trkpt lat="45.79312" lon="1.90762">
        <ele>658.4</ele>
        <time>2024-09-15T10:39:51Z</time>
      </trkpt>
      <trkpt lat="45.7932" lon="1.90776">
        <ele>658.8</ele>
        <time>2024-09-15T10:39:55Z</time>
      </trkpt>
      <trkpt lat="45.7932" lon="1.90781">
        <ele>659</ele>
        <time>2024-09-15T10:39:56Z</time>
      </trkpt>
      <trkpt lat="45.7932" lon="1.90786">
        <ele>659</ele>
        <time>2024-09-15T10:39:57Z</time>
      </trkpt>
      <trkpt lat="45.79319" lon="1.90792">
        <ele>659.2</ele>
        <time>2024-09-15T10:39:58Z</time>
      </trkpt>
      <trkpt lat="45.79319" lon="1.90797">
        <ele>659.2</ele>
        <time>2024-09-15T10:39:59Z</time>
      </trkpt>
      <trkpt lat="45.79319" lon="1.90814">
        <ele>659.2</ele>
        <time>2024-09-15T10:40:02Z</time>
      </trkpt>
      <trkpt lat="45.79316" lon="1.9085">
        <ele>659.2</ele>
        <time>2024-09-15T10:40:08Z</time>
      </trkpt>
      <trkpt lat="45.79313" lon="1.90874">
        <ele>659.4</ele>
        <time>2024-09-15T10:40:12Z</time>
      </trkpt>
      <trkpt lat="45.79312" lon="1.90885">
        <ele>659.6</ele>
        <time>2024-09-15T10:40:14Z</time>
      </trkpt>
      <trkpt lat="45.79303" lon="1.90927">
        <ele>659.8</ele>
        <time>2024-09-15T10:40:21Z</time>
      </trkpt>
      <trkpt lat="45.79302" lon="1.90934">
        <ele>660</ele>
        <time>2024-09-15T10:40:22Z</time>
      </trkpt>
      <trkpt lat="45.793" lon="1.90946">
        <ele>660.2</ele>
        <time>2024-09-15T10:40:24Z</time>
      </trkpt>
      <trkpt lat="45.79297" lon="1.90958">
        <ele>660.4</ele>
        <time>2024-09-15T10:40:26Z</time>
      </trkpt>
      <trkpt lat="45.7929" lon="1.9099">
        <ele>661.2</ele>
        <time>2024-09-15T10:40:32Z</time>
      </trkpt>
      <trkpt lat="45.79289" lon="1.90994">
        <ele>661.2</ele>
        <time>2024-09-15T10:40:33Z</time>
      </trkpt>
      <trkpt lat="45.79288" lon="1.90997">
        <ele>661.4</ele>
        <time>2024-09-15T10:40:34Z</time>
      </trkpt>
      <trkpt lat="45.79288" lon="1.91001">
        <ele>661.4</ele>
        <time>2024-09-15T10:40:35Z</time>
      </trkpt>
      <trkpt lat="45.79288" lon="1.91005">
        <ele>661.6</ele>
        <time>2024-09-15T10:40:36Z</time>
      </trkpt>
      <trkpt lat="45.79286" lon="1.91009">
        <ele>661.6</ele>
        <time>2024-09-15T10:40:37Z</time>
      </trkpt>
      <trkpt lat="45.79284" lon="1.91018">
        <ele>661.8</ele>
        <time>2024-09-15T10:40:39Z</time>
      </trkpt>
      <trkpt lat="45.79282" lon="1.91027">
        <ele>661.8</ele>
        <time>2024-09-15T10:40:41Z</time>
      </trkpt>
      <trkpt lat="45.79282" lon="1.91029">
        <ele>661.8</ele>
        <time>2024-09-15T10:40:42Z</time>
      </trkpt>
      <trkpt lat="45.79282" lon="1.91031">
        <ele>661.8</ele>
        <time>2024-09-15T10:40:43Z</time>
      </trkpt>
      <trkpt lat="45.79283" lon="1.91033">
        <ele>661.8</ele>
        <time>2024-09-15T10:40:44Z</time>
      </trkpt>
      <trkpt lat="45.79284" lon="1.91034">
        <ele>661.6</ele>
        <time>2024-09-15T10:40:45Z</time>
      </trkpt>
      <trkpt lat="45.79285" lon="1.91036">
        <ele>661.6</ele>
        <time>2024-09-15T10:40:46Z</time>
      </trkpt>
      <trkpt lat="45.79287" lon="1.91037">
        <ele>661.6</ele>
        <time>2024-09-15T10:40:47Z</time>
      </trkpt>
      <trkpt lat="45.79289" lon="1.91039">
        <ele>661.6</ele>
        <time>2024-09-15T10:40:48Z</time>
      </trkpt>
      <trkpt lat="45.79291" lon="1.91042">
        <ele>661.6</ele>
        <time>2024-09-15T10:40:49Z</time>
      </trkpt>
      <trkpt lat="45.79304" lon="1.91061">
        <ele>661.4</ele>
        <time>2024-09-15T10:40:56Z</time>
      </trkpt>
      <trkpt lat="45.79305" lon="1.91068">
        <ele>661.2</ele>
        <time>2024-09-15T10:40:58Z</time>
      </trkpt>
      <trkpt lat="45.79304" lon="1.91076">
        <ele>661.2</ele>
        <time>2024-09-15T10:41:00Z</time>
      </trkpt>
      <trkpt lat="45.79303" lon="1.91079">
        <ele>661.2</ele>
        <time>2024-09-15T10:41:01Z</time>
      </trkpt>
      <trkpt lat="45.79303" lon="1.91083">
        <ele>661.2</ele>
        <time>2024-09-15T10:41:02Z</time>
      </trkpt>
      <trkpt lat="45.79303" lon="1.91087">
        <ele>661.2</ele>
        <time>2024-09-15T10:41:03Z</time>
      </trkpt>
      <trkpt lat="45.79304" lon="1.91092">
        <ele>661</ele>
        <time>2024-09-15T10:41:04Z</time>
      </trkpt>
      <trkpt lat="45.79305" lon="1.91096">
        <ele>661</ele>
        <time>2024-09-15T10:41:05Z</time>
      </trkpt>
      <trkpt lat="45.79305" lon="1.91101">
        <ele>661</ele>
        <time>2024-09-15T10:41:06Z</time>
      </trkpt>
      <trkpt lat="45.79304" lon="1.91111">
        <ele>660.8</ele>
        <time>2024-09-15T10:41:09Z</time>
      </trkpt>
      <trkpt lat="45.79303" lon="1.91115">
        <ele>660.6</ele>
        <time>2024-09-15T10:41:10Z</time>
      </trkpt>
      <trkpt lat="45.79304" lon="1.91119">
        <ele>660.6</ele>
        <time>2024-09-15T10:41:11Z</time>
      </trkpt>
      <trkpt lat="45.79305" lon="1.91123">
        <ele>660.4</ele>
        <time>2024-09-15T10:41:12Z</time>
      </trkpt>
      <trkpt lat="45.79305" lon="1.91127">
        <ele>660.2</ele>
        <time>2024-09-15T10:41:13Z</time>
      </trkpt>
      <trkpt lat="45.79305" lon="1.91132">
        <ele>660.2</ele>
        <time>2024-09-15T10:41:14Z</time>
      </trkpt>
      <trkpt lat="45.79304" lon="1.9114">
        <ele>659.6</ele>
        <time>2024-09-15T10:41:16Z</time>
      </trkpt>
      <trkpt lat="45.79304" lon="1.91143">
        <ele>659</ele>
        <time>2024-09-15T10:41:17Z</time>
      </trkpt>
      <trkpt lat="45.79305" lon="1.91146">
        <ele>658.8</ele>
        <time>2024-09-15T10:41:18Z</time>
      </trkpt>
      <trkpt lat="45.79305" lon="1.9115">
        <ele>658.4</ele>
        <time>2024-09-15T10:41:19Z</time>
      </trkpt>
      <trkpt lat="45.79306" lon="1.91152">
        <ele>658</ele>
        <time>2024-09-15T10:41:20Z</time>
      </trkpt>
      <trkpt lat="45.79306" lon="1.91154">
        <ele>657.2</ele>
        <time>2024-09-15T10:41:21Z</time>
      </trkpt>
      <trkpt lat="45.79307" lon="1.91157">
        <ele>657</ele>
        <time>2024-09-15T10:41:22Z</time>
      </trkpt>
      <trkpt lat="45.79307" lon="1.9116">
        <ele>656.4</ele>
        <time>2024-09-15T10:41:23Z</time>
      </trkpt>
      <trkpt lat="45.79308" lon="1.91164">
        <ele>656.2</ele>
        <time>2024-09-15T10:41:24Z</time>
      </trkpt>
      <trkpt lat="45.79312" lon="1.91174">
        <ele>655.8</ele>
        <time>2024-09-15T10:41:26Z</time>
      </trkpt>
      <trkpt lat="45.79314" lon="1.91179">
        <ele>655.6</ele>
        <time>2024-09-15T10:41:27Z</time>
      </trkpt>
      <trkpt lat="45.79322" lon="1.91199">
        <ele>655.2</ele>
        <time>2024-09-15T10:41:31Z</time>
      </trkpt>
      <trkpt lat="45.79324" lon="1.91202">
        <ele>655</ele>
        <time>2024-09-15T10:41:32Z</time>
      </trkpt>
      <trkpt lat="45.79325" lon="1.91208">
        <ele>655</ele>
        <time>2024-09-15T10:41:33Z</time>
      </trkpt>
      <trkpt lat="45.79327" lon="1.91235">
        <ele>654.6</ele>
        <time>2024-09-15T10:41:36Z</time>
      </trkpt>
      <trkpt lat="45.79327" lon="1.91243">
        <ele>654.6</ele>
        <time>2024-09-15T10:41:37Z</time>
      </trkpt>
      <trkpt lat="45.79326" lon="1.9125">
        <ele>654.4</ele>
        <time>2024-09-15T10:41:38Z</time>
      </trkpt>
      <trkpt lat="45.79325" lon="1.91272">
        <ele>654.4</ele>
        <time>2024-09-15T10:41:41Z</time>
      </trkpt>
      <trkpt lat="45.79326" lon="1.91285">
        <ele>654.4</ele>
        <time>2024-09-15T10:41:43Z</time>
      </trkpt>
      <trkpt lat="45.79326" lon="1.91312">
        <ele>654.4</ele>
        <time>2024-09-15T10:41:47Z</time>
      </trkpt>
      <trkpt lat="45.79324" lon="1.91325">
        <ele>654.2</ele>
        <time>2024-09-15T10:41:49Z</time>
      </trkpt>
      <trkpt lat="45.79325" lon="1.91332">
        <ele>654.2</ele>
        <time>2024-09-15T10:41:50Z</time>
      </trkpt>
      <trkpt lat="45.79324" lon="1.91337">
        <ele>654.2</ele>
        <time>2024-09-15T10:41:51Z</time>
      </trkpt>
      <trkpt lat="45.79325" lon="1.91371">
        <ele>653.8</ele>
        <time>2024-09-15T10:41:56Z</time>
      </trkpt>
      <trkpt lat="45.79325" lon="1.91376">
        <ele>653.8</ele>
        <time>2024-09-15T10:41:57Z</time>
      </trkpt>
      <trkpt lat="45.79331" lon="1.91395">
        <ele>653.8</ele>
        <time>2024-09-15T10:42:01Z</time>
      </trkpt>
      <trkpt lat="45.79332" lon="1.914">
        <ele>653.6</ele>
        <time>2024-09-15T10:42:02Z</time>
      </trkpt>
      <trkpt lat="45.79334" lon="1.91404">
        <ele>653.6</ele>
        <time>2024-09-15T10:42:03Z</time>
      </trkpt>
      <trkpt lat="45.79336" lon="1.91408">
        <ele>653.6</ele>
        <time>2024-09-15T10:42:04Z</time>
      </trkpt>
      <trkpt lat="45.79339" lon="1.91412">
        <ele>653.4</ele>
        <time>2024-09-15T10:42:05Z</time>
      </trkpt>
      <trkpt lat="45.79341" lon="1.91415">
        <ele>653.4</ele>
        <time>2024-09-15T10:42:06Z</time>
      </trkpt>
      <trkpt lat="45.79347" lon="1.91424">
        <ele>653.4</ele>
        <time>2024-09-15T10:42:08Z</time>
      </trkpt>
      <trkpt lat="45.79359" lon="1.91441">
        <ele>653.2</ele>
        <time>2024-09-15T10:42:12Z</time>
      </trkpt>
      <trkpt lat="45.79362" lon="1.91446">
        <ele>653.2</ele>
        <time>2024-09-15T10:42:13Z</time>
      </trkpt>
      <trkpt lat="45.79367" lon="1.91455">
        <ele>653</ele>
        <time>2024-09-15T10:42:15Z</time>
      </trkpt>
      <trkpt lat="45.79369" lon="1.91458">
        <ele>653</ele>
        <time>2024-09-15T10:42:16Z</time>
      </trkpt>
      <trkpt lat="45.79371" lon="1.91464">
        <ele>652.8</ele>
        <time>2024-09-15T10:42:17Z</time>
      </trkpt>
      <trkpt lat="45.79373" lon="1.91469">
        <ele>652.8</ele>
        <time>2024-09-15T10:42:18Z</time>
      </trkpt>
      <trkpt lat="45.79375" lon="1.91474">
        <ele>652.8</ele>
        <time>2024-09-15T10:42:19Z</time>
      </trkpt>
      <trkpt lat="45.7938" lon="1.91488">
        <ele>652.6</ele>
        <time>2024-09-15T10:42:22Z</time>
      </trkpt>
      <trkpt lat="45.79381" lon="1.91492">
        <ele>652.8</ele>
        <time>2024-09-15T10:42:23Z</time>
      </trkpt>
      <trkpt lat="45.79383" lon="1.91496">
        <ele>652.8</ele>
        <time>2024-09-15T10:42:24Z</time>
      </trkpt>
      <trkpt lat="45.79384" lon="1.91501">
        <ele>652.8</ele>
        <time>2024-09-15T10:42:25Z</time>
      </trkpt>
      <trkpt lat="45.79385" lon="1.91506">
        <ele>652.8</ele>
        <time>2024-09-15T10:42:26Z</time>
      </trkpt>
      <trkpt lat="45.79388" lon="1.91524">
        <ele>653</ele>
        <time>2024-09-15T10:42:29Z</time>
      </trkpt>
      <trkpt lat="45.7939" lon="1.9154">
        <ele>653</ele>
        <time>2024-09-15T10:42:32Z</time>
      </trkpt>
      <trkpt lat="45.7939" lon="1.91545">
        <ele>653</ele>
        <time>2024-09-15T10:42:33Z</time>
      </trkpt>
      <trkpt lat="45.79391" lon="1.91552">
        <ele>653</ele>
        <time>2024-09-15T10:42:34Z</time>
      </trkpt>
      <trkpt lat="45.79387" lon="1.91583">
        <ele>653.2</ele>
        <time>2024-09-15T10:42:39Z</time>
      </trkpt>
      <trkpt lat="45.79386" lon="1.91588">
        <ele>653.2</ele>
        <time>2024-09-15T10:42:40Z</time>
      </trkpt>
      <trkpt lat="45.79384" lon="1.91593">
        <ele>653</ele>
        <time>2024-09-15T10:42:41Z</time>
      </trkpt>
      <trkpt lat="45.79382" lon="1.91598">
        <ele>653</ele>
        <time>2024-09-15T10:42:42Z</time>
      </trkpt>
      <trkpt lat="45.79378" lon="1.91621">
        <ele>653</ele>
        <time>2024-09-15T10:42:46Z</time>
      </trkpt>
      <trkpt lat="45.79373" lon="1.91629">
        <ele>653.2</ele>
        <time>2024-09-15T10:42:48Z</time>
      </trkpt>
      <trkpt lat="45.79372" lon="1.91635">
        <ele>653.2</ele>
        <time>2024-09-15T10:42:49Z</time>
      </trkpt>
      <trkpt lat="45.79367" lon="1.91649">
        <ele>653.2</ele>
        <time>2024-09-15T10:42:52Z</time>
      </trkpt>
      <trkpt lat="45.79361" lon="1.91659">
        <ele>653.2</ele>
        <time>2024-09-15T10:42:54Z</time>
      </trkpt>
      <trkpt lat="45.79358" lon="1.91663">
        <ele>653.2</ele>
        <time>2024-09-15T10:42:55Z</time>
      </trkpt>
      <trkpt lat="45.79347" lon="1.91682">
        <ele>653</ele>
        <time>2024-09-15T10:43:00Z</time>
      </trkpt>
      <trkpt lat="45.79345" lon="1.91686">
        <ele>653</ele>
        <time>2024-09-15T10:43:01Z</time>
      </trkpt>
      <trkpt lat="45.79343" lon="1.91689">
        <ele>653</ele>
        <time>2024-09-15T10:43:02Z</time>
      </trkpt>
      <trkpt lat="45.7934" lon="1.91693">
        <ele>653</ele>
        <time>2024-09-15T10:43:03Z</time>
      </trkpt>
      <trkpt lat="45.7934" lon="1.91696">
        <ele>653</ele>
        <time>2024-09-15T10:43:04Z</time>
      </trkpt>
      <trkpt lat="45.79337" lon="1.91701">
        <ele>653</ele>
        <time>2024-09-15T10:43:05Z</time>
      </trkpt>
      <trkpt lat="45.79331" lon="1.91705">
        <ele>653</ele>
        <time>2024-09-15T10:43:06Z</time>
      </trkpt>
      <trkpt lat="45.79326" lon="1.91709">
        <ele>653</ele>
        <time>2024-09-15T10:43:07Z</time>
      </trkpt>
      <trkpt lat="45.79321" lon="1.91714">
        <ele>653.2</ele>
        <time>2024-09-15T10:43:09Z</time>
      </trkpt>
      <trkpt lat="45.79316" lon="1.91718">
        <ele>653.2</ele>
        <time>2024-09-15T10:43:11Z</time>
      </trkpt>
      <trkpt lat="45.79299" lon="1.91736">
        <ele>653.6</ele>
        <time>2024-09-15T10:43:15Z</time>
      </trkpt>
      <trkpt lat="45.79295" lon="1.91742">
        <ele>653.2</ele>
        <time>2024-09-15T10:43:17Z</time>
      </trkpt>
      <trkpt lat="45.79296" lon="1.91743">
        <ele>653.2</ele>
        <time>2024-09-15T10:43:18Z</time>
      </trkpt>
      <trkpt lat="45.79297" lon="1.91747">
        <ele>653.2</ele>
        <time>2024-09-15T10:43:19Z</time>
      </trkpt>
      <trkpt lat="45.79298" lon="1.91749">
        <ele>653.2</ele>
        <time>2024-09-15T10:43:20Z</time>
      </trkpt>
      <trkpt lat="45.79305" lon="1.91761">
        <ele>653</ele>
        <time>2024-09-15T10:43:24Z</time>
      </trkpt>
      <trkpt lat="45.79311" lon="1.91772">
        <ele>653.2</ele>
        <time>2024-09-15T10:43:27Z</time>
      </trkpt>
      <trkpt lat="45.79319" lon="1.91785">
        <ele>653.2</ele>
        <time>2024-09-15T10:43:31Z</time>
      </trkpt>
      <trkpt lat="45.79328" lon="1.91803">
        <ele>653</ele>
        <time>2024-09-15T10:43:36Z</time>
      </trkpt>
      <trkpt lat="45.7933" lon="1.91807">
        <ele>653</ele>
        <time>2024-09-15T10:43:37Z</time>
      </trkpt>
      <trkpt lat="45.79332" lon="1.91811">
        <ele>653</ele>
        <time>2024-09-15T10:43:38Z</time>
      </trkpt>
      <trkpt lat="45.79334" lon="1.91816">
        <ele>653</ele>
        <time>2024-09-15T10:43:40Z</time>
      </trkpt>
      <trkpt lat="45.79354" lon="1.91858">
        <ele>653.4</ele>
        <time>2024-09-15T10:43:49Z</time>
      </trkpt>
      <trkpt lat="45.79361" lon="1.91878">
        <ele>653.8</ele>
        <time>2024-09-15T10:43:53Z</time>
      </trkpt>
      <trkpt lat="45.79361" lon="1.91888">
        <ele>654</ele>
        <time>2024-09-15T10:43:55Z</time>
      </trkpt>
      <trkpt lat="45.79361" lon="1.91893">
        <ele>654</ele>
        <time>2024-09-15T10:43:56Z</time>
      </trkpt>
      <trkpt lat="45.79361" lon="1.91898">
        <ele>654</ele>
        <time>2024-09-15T10:43:57Z</time>
      </trkpt>
      <trkpt lat="45.79361" lon="1.91901">
        <ele>654.2</ele>
        <time>2024-09-15T10:43:58Z</time>
      </trkpt>
      <trkpt lat="45.79362" lon="1.91903">
        <ele>654.2</ele>
        <time>2024-09-15T10:43:59Z</time>
      </trkpt>
      <trkpt lat="45.79361" lon="1.91905">
        <ele>654.2</ele>
        <time>2024-09-15T10:44:00Z</time>
      </trkpt>
      <trkpt lat="45.79361" lon="1.91906">
        <ele>654.4</ele>
        <time>2024-09-15T10:44:01Z</time>
      </trkpt>
      <trkpt lat="45.79361" lon="1.91908">
        <ele>654.4</ele>
        <time>2024-09-15T10:44:02Z</time>
      </trkpt>
      <trkpt lat="45.7936" lon="1.9191">
        <ele>654.6</ele>
        <time>2024-09-15T10:44:03Z</time>
      </trkpt>
      <trkpt lat="45.7936" lon="1.91913">
        <ele>654.6</ele>
        <time>2024-09-15T10:44:05Z</time>
      </trkpt>
      <trkpt lat="45.7936" lon="1.91913">
        <ele>654.6</ele>
        <time>2024-09-15T10:44:06Z</time>
      </trkpt>
      <trkpt lat="45.7936" lon="1.91914">
        <ele>654.6</ele>
        <time>2024-09-15T10:44:08Z</time>
      </trkpt>
      <trkpt lat="45.7936" lon="1.91914">
        <ele>654.6</ele>
        <time>2024-09-15T10:44:09Z</time>
      </trkpt>
      <trkpt lat="45.7936" lon="1.91915">
        <ele>654.6</ele>
        <time>2024-09-15T10:44:10Z</time>
      </trkpt>
      <trkpt lat="45.7936" lon="1.91915">
        <ele>654.6</ele>
        <time>2024-09-15T10:44:11Z</time>
      </trkpt>
      <trkpt lat="45.79359" lon="1.91915">
        <ele>654.8</ele>
        <time>2024-09-15T10:44:13Z</time>
      </trkpt>
      <trkpt lat="45.79359" lon="1.91915">
        <ele>654.6</ele>
        <time>2024-09-15T10:44:16Z</time>
      </trkpt>
      <trkpt lat="45.79363" lon="1.91915">
        <ele>654.8</ele>
        <time>2024-09-15T11:54:07Z</time>
      </trkpt>
      <trkpt lat="45.79364" lon="1.91917">
        <ele>655</ele>
        <time>2024-09-15T11:54:08Z</time>
      </trkpt>
      <trkpt lat="45.79373" lon="1.91924">
        <ele>655.2</ele>
        <time>2024-09-15T11:54:14Z</time>
      </trkpt>
      <trkpt lat="45.79374" lon="1.91924">
        <ele>655.2</ele>
        <time>2024-09-15T11:54:15Z</time>
      </trkpt>
      <trkpt lat="45.79387" lon="1.91929">
        <ele>655.4</ele>
        <time>2024-09-15T11:54:22Z</time>
      </trkpt>
      <trkpt lat="45.79388" lon="1.9193">
        <ele>655.4</ele>
        <time>2024-09-15T11:54:23Z</time>
      </trkpt>
      <trkpt lat="45.79389" lon="1.9193">
        <ele>655.6</ele>
        <time>2024-09-15T11:54:24Z</time>
      </trkpt>
      <trkpt lat="45.79391" lon="1.91929">
        <ele>655.6</ele>
        <time>2024-09-15T11:54:25Z</time>
      </trkpt>
      <trkpt lat="45.79392" lon="1.91929">
        <ele>656</ele>
        <time>2024-09-15T11:54:26Z</time>
      </trkpt>
      <trkpt lat="45.79393" lon="1.91928">
        <ele>656.2</ele>
        <time>2024-09-15T11:54:27Z</time>
      </trkpt>
      <trkpt lat="45.79394" lon="1.91928">
        <ele>656.4</ele>
        <time>2024-09-15T11:54:28Z</time>
      </trkpt>
      <trkpt lat="45.79395" lon="1.91928">
        <ele>656.6</ele>
        <time>2024-09-15T11:54:29Z</time>
      </trkpt>
      <trkpt lat="45.79396" lon="1.91928">
        <ele>656.8</ele>
        <time>2024-09-15T11:54:30Z</time>
      </trkpt>
      <trkpt lat="45.79397" lon="1.91927">
        <ele>656.8</ele>
        <time>2024-09-15T11:54:31Z</time>
      </trkpt>
      <trkpt lat="45.79398" lon="1.91926">
        <ele>657</ele>
        <time>2024-09-15T11:54:32Z</time>
      </trkpt>
      <trkpt lat="45.794" lon="1.91925">
        <ele>657.2</ele>
        <time>2024-09-15T11:54:33Z</time>
      </trkpt>
      <trkpt lat="45.79401" lon="1.91924">
        <ele>657.2</ele>
        <time>2024-09-15T11:54:34Z</time>
      </trkpt>
      <trkpt lat="45.79403" lon="1.91923">
        <ele>657.6</ele>
        <time>2024-09-15T11:54:35Z</time>
      </trkpt>
      <trkpt lat="45.79405" lon="1.91922">
        <ele>657.6</ele>
        <time>2024-09-15T11:54:36Z</time>
      </trkpt>
      <trkpt lat="45.79408" lon="1.9192">
        <ele>657.8</ele>
        <time>2024-09-15T11:54:37Z</time>
      </trkpt>
      <trkpt lat="45.79414" lon="1.91913">
        <ele>658.2</ele>
        <time>2024-09-15T11:54:39Z</time>
      </trkpt>
      <trkpt lat="45.79417" lon="1.9191">
        <ele>658.4</ele>
        <time>2024-09-15T11:54:40Z</time>
      </trkpt>
      <trkpt lat="45.79419" lon="1.91906">
        <ele>658.8</ele>
        <time>2024-09-15T11:54:41Z</time>
      </trkpt>
      <trkpt lat="45.79422" lon="1.91901">
        <ele>659.4</ele>
        <time>2024-09-15T11:54:42Z</time>
      </trkpt>
      <trkpt lat="45.79426" lon="1.91898">
        <ele>659.4</ele>
        <time>2024-09-15T11:54:43Z</time>
      </trkpt>
      <trkpt lat="45.7943" lon="1.91895">
        <ele>659.8</ele>
        <time>2024-09-15T11:54:44Z</time>
      </trkpt>
      <trkpt lat="45.79434" lon="1.91893">
        <ele>660</ele>
        <time>2024-09-15T11:54:45Z</time>
      </trkpt>
      <trkpt lat="45.79438" lon="1.91892">
        <ele>660.2</ele>
        <time>2024-09-15T11:54:46Z</time>
      </trkpt>
      <trkpt lat="45.79441" lon="1.91891">
        <ele>660.4</ele>
        <time>2024-09-15T11:54:47Z</time>
      </trkpt>
      <trkpt lat="45.79445" lon="1.9189">
        <ele>660.4</ele>
        <time>2024-09-15T11:54:48Z</time>
      </trkpt>
      <trkpt lat="45.79449" lon="1.9189">
        <ele>660.4</ele>
        <time>2024-09-15T11:54:49Z</time>
      </trkpt>
      <trkpt lat="45.79452" lon="1.91891">
        <ele>660.6</ele>
        <time>2024-09-15T11:54:50Z</time>
      </trkpt>
      <trkpt lat="45.79455" lon="1.91891">
        <ele>660.8</ele>
        <time>2024-09-15T11:54:51Z</time>
      </trkpt>
      <trkpt lat="45.79458" lon="1.9189">
        <ele>661</ele>
        <time>2024-09-15T11:54:52Z</time>
      </trkpt>
      <trkpt lat="45.79462" lon="1.91889">
        <ele>661.2</ele>
        <time>2024-09-15T11:54:53Z</time>
      </trkpt>
      <trkpt lat="45.79465" lon="1.91888">
        <ele>661.2</ele>
        <time>2024-09-15T11:54:54Z</time>
      </trkpt>
      <trkpt lat="45.79468" lon="1.91886">
        <ele>661.4</ele>
        <time>2024-09-15T11:54:55Z</time>
      </trkpt>
      <trkpt lat="45.7947" lon="1.91885">
        <ele>661.4</ele>
        <time>2024-09-15T11:54:56Z</time>
      </trkpt>
      <trkpt lat="45.79473" lon="1.91884">
        <ele>661.6</ele>
        <time>2024-09-15T11:54:57Z</time>
      </trkpt>
      <trkpt lat="45.79475" lon="1.9188">
        <ele>661.6</ele>
        <time>2024-09-15T11:54:58Z</time>
      </trkpt>
      <trkpt lat="45.79477" lon="1.91876">
        <ele>661.6</ele>
        <time>2024-09-15T11:54:59Z</time>
      </trkpt>
      <trkpt lat="45.79479" lon="1.91874">
        <ele>661.8</ele>
        <time>2024-09-15T11:55:00Z</time>
      </trkpt>
      <trkpt lat="45.7948" lon="1.91873">
        <ele>662</ele>
        <time>2024-09-15T11:55:01Z</time>
      </trkpt>
      <trkpt lat="45.79482" lon="1.91871">
        <ele>662.2</ele>
        <time>2024-09-15T11:55:02Z</time>
      </trkpt>
      <trkpt lat="45.79483" lon="1.91868">
        <ele>662.2</ele>
        <time>2024-09-15T11:55:03Z</time>
      </trkpt>
      <trkpt lat="45.79485" lon="1.91865">
        <ele>662.4</ele>
        <time>2024-09-15T11:55:04Z</time>
      </trkpt>
      <trkpt lat="45.79486" lon="1.91861">
        <ele>662.4</ele>
        <time>2024-09-15T11:55:05Z</time>
      </trkpt>
      <trkpt lat="45.79489" lon="1.91858">
        <ele>662.4</ele>
        <time>2024-09-15T11:55:06Z</time>
      </trkpt>
      <trkpt lat="45.79492" lon="1.91854">
        <ele>662.4</ele>
        <time>2024-09-15T11:55:07Z</time>
      </trkpt>
      <trkpt lat="45.79495" lon="1.9185">
        <ele>662.2</ele>
        <time>2024-09-15T11:55:08Z</time>
      </trkpt>
      <trkpt lat="45.79499" lon="1.91845">
        <ele>662.2</ele>
        <time>2024-09-15T11:55:09Z</time>
      </trkpt>
      <trkpt lat="45.79502" lon="1.91841">
        <ele>662.2</ele>
        <time>2024-09-15T11:55:10Z</time>
      </trkpt>
      <trkpt lat="45.79506" lon="1.91837">
        <ele>662</ele>
        <time>2024-09-15T11:55:11Z</time>
      </trkpt>
      <trkpt lat="45.7951" lon="1.91835">
        <ele>661.8</ele>
        <time>2024-09-15T11:55:12Z</time>
      </trkpt>
      <trkpt lat="45.79514" lon="1.91832">
        <ele>661.6</ele>
        <time>2024-09-15T11:55:13Z</time>
      </trkpt>
      <trkpt lat="45.79516" lon="1.9183">
        <ele>661.6</ele>
        <time>2024-09-15T11:55:14Z</time>
      </trkpt>
      <trkpt lat="45.79518" lon="1.91829">
        <ele>661.6</ele>
        <time>2024-09-15T11:55:15Z</time>
      </trkpt>
      <trkpt lat="45.79521" lon="1.91827">
        <ele>661.6</ele>
        <time>2024-09-15T11:55:16Z</time>
      </trkpt>
      <trkpt lat="45.79523" lon="1.91826">
        <ele>661.6</ele>
        <time>2024-09-15T11:55:17Z</time>
      </trkpt>
      <trkpt lat="45.79525" lon="1.91823">
        <ele>661.8</ele>
        <time>2024-09-15T11:55:18Z</time>
      </trkpt>
      <trkpt lat="45.79527" lon="1.91822">
        <ele>661.8</ele>
        <time>2024-09-15T11:55:19Z</time>
      </trkpt>
      <trkpt lat="45.79528" lon="1.91821">
        <ele>662.2</ele>
        <time>2024-09-15T11:55:20Z</time>
      </trkpt>
      <trkpt lat="45.7953" lon="1.91821">
        <ele>662.4</ele>
        <time>2024-09-15T11:55:21Z</time>
      </trkpt>
      <trkpt lat="45.79531" lon="1.91821">
        <ele>662.8</ele>
        <time>2024-09-15T11:55:22Z</time>
      </trkpt>
      <trkpt lat="45.79533" lon="1.91821">
        <ele>663.2</ele>
        <time>2024-09-15T11:55:23Z</time>
      </trkpt>
      <trkpt lat="45.79535" lon="1.91821">
        <ele>663.4</ele>
        <time>2024-09-15T11:55:24Z</time>
      </trkpt>
      <trkpt lat="45.79539" lon="1.91818">
        <ele>664</ele>
        <time>2024-09-15T11:55:26Z</time>
      </trkpt>
      <trkpt lat="45.79541" lon="1.91817">
        <ele>664.2</ele>
        <time>2024-09-15T11:55:27Z</time>
      </trkpt>
      <trkpt lat="45.79544" lon="1.91818">
        <ele>664.4</ele>
        <time>2024-09-15T11:55:28Z</time>
      </trkpt>
      <trkpt lat="45.79546" lon="1.91818">
        <ele>664.8</ele>
        <time>2024-09-15T11:55:29Z</time>
      </trkpt>
      <trkpt lat="45.79549" lon="1.91818">
        <ele>664.8</ele>
        <time>2024-09-15T11:55:30Z</time>
      </trkpt>
      <trkpt lat="45.79552" lon="1.91817">
        <ele>665</ele>
        <time>2024-09-15T11:55:31Z</time>
      </trkpt>
      <trkpt lat="45.79555" lon="1.91816">
        <ele>665</ele>
        <time>2024-09-15T11:55:32Z</time>
      </trkpt>
      <trkpt lat="45.79558" lon="1.91815">
        <ele>665.4</ele>
        <time>2024-09-15T11:55:33Z</time>
      </trkpt>
      <trkpt lat="45.79563" lon="1.91813">
        <ele>665.6</ele>
        <time>2024-09-15T11:55:34Z</time>
      </trkpt>
      <trkpt lat="45.79568" lon="1.9181">
        <ele>665.6</ele>
        <time>2024-09-15T11:55:35Z</time>
      </trkpt>
      <trkpt lat="45.79572" lon="1.91807">
        <ele>666</ele>
        <time>2024-09-15T11:55:36Z</time>
      </trkpt>
      <trkpt lat="45.79576" lon="1.91802">
        <ele>666</ele>
        <time>2024-09-15T11:55:37Z</time>
      </trkpt>
      <trkpt lat="45.7958" lon="1.91798">
        <ele>666</ele>
        <time>2024-09-15T11:55:38Z</time>
      </trkpt>
      <trkpt lat="45.79582" lon="1.91795">
        <ele>666.2</ele>
        <time>2024-09-15T11:55:39Z</time>
      </trkpt>
      <trkpt lat="45.79586" lon="1.91791">
        <ele>666</ele>
        <time>2024-09-15T11:55:40Z</time>
      </trkpt>
      <trkpt lat="45.79589" lon="1.91788">
        <ele>665.8</ele>
        <time>2024-09-15T11:55:41Z</time>
      </trkpt>
      <trkpt lat="45.79595" lon="1.91784">
        <ele>665.6</ele>
        <time>2024-09-15T11:55:42Z</time>
      </trkpt>
      <trkpt lat="45.79599" lon="1.91781">
        <ele>665.4</ele>
        <time>2024-09-15T11:55:43Z</time>
      </trkpt>
      <trkpt lat="45.79603" lon="1.91778">
        <ele>665.2</ele>
        <time>2024-09-15T11:55:44Z</time>
      </trkpt>
      <trkpt lat="45.79607" lon="1.91776">
        <ele>665.2</ele>
        <time>2024-09-15T11:55:45Z</time>
      </trkpt>
      <trkpt lat="45.79609" lon="1.91773">
        <ele>665.2</ele>
        <time>2024-09-15T11:55:46Z</time>
      </trkpt>
      <trkpt lat="45.79611" lon="1.91768">
        <ele>665</ele>
        <time>2024-09-15T11:55:47Z</time>
      </trkpt>
      <trkpt lat="45.79612" lon="1.91764">
        <ele>665</ele>
        <time>2024-09-15T11:55:48Z</time>
      </trkpt>
      <trkpt lat="45.79614" lon="1.91761">
        <ele>665</ele>
        <time>2024-09-15T11:55:49Z</time>
      </trkpt>
      <trkpt lat="45.79616" lon="1.9176">
        <ele>664.8</ele>
        <time>2024-09-15T11:55:50Z</time>
      </trkpt>
      <trkpt lat="45.79618" lon="1.9176">
        <ele>664.8</ele>
        <time>2024-09-15T11:55:51Z</time>
      </trkpt>
      <trkpt lat="45.79619" lon="1.91758">
        <ele>664.8</ele>
        <time>2024-09-15T11:55:52Z</time>
      </trkpt>
      <trkpt lat="45.79623" lon="1.91754">
        <ele>665</ele>
        <time>2024-09-15T11:55:54Z</time>
      </trkpt>
      <trkpt lat="45.79625" lon="1.91751">
        <ele>665</ele>
        <time>2024-09-15T11:55:55Z</time>
      </trkpt>
      <trkpt lat="45.79626" lon="1.91749">
        <ele>665</ele>
        <time>2024-09-15T11:55:56Z</time>
      </trkpt>
      <trkpt lat="45.79627" lon="1.91748">
        <ele>665</ele>
        <time>2024-09-15T11:55:57Z</time>
      </trkpt>
      <trkpt lat="45.79628" lon="1.91747">
        <ele>665.2</ele>
        <time>2024-09-15T11:55:58Z</time>
      </trkpt>
      <trkpt lat="45.79629" lon="1.91746">
        <ele>665.2</ele>
        <time>2024-09-15T11:55:59Z</time>
      </trkpt>
      <trkpt lat="45.7963" lon="1.91746">
        <ele>665.2</ele>
        <time>2024-09-15T11:56:00Z</time>
      </trkpt>
      <trkpt lat="45.79632" lon="1.91746">
        <ele>665.2</ele>
        <time>2024-09-15T11:56:01Z</time>
      </trkpt>
      <trkpt lat="45.79633" lon="1.91746">
        <ele>665.2</ele>
        <time>2024-09-15T11:56:02Z</time>
      </trkpt>
      <trkpt lat="45.79635" lon="1.91745">
        <ele>665.2</ele>
        <time>2024-09-15T11:56:03Z</time>
      </trkpt>
      <trkpt lat="45.79638" lon="1.91739">
        <ele>665.4</ele>
        <time>2024-09-15T11:56:05Z</time>
      </trkpt>
      <trkpt lat="45.7964" lon="1.91736">
        <ele>665.4</ele>
        <time>2024-09-15T11:56:06Z</time>
      </trkpt>
      <trkpt lat="45.79641" lon="1.91734">
        <ele>665.4</ele>
        <time>2024-09-15T11:56:07Z</time>
      </trkpt>
      <trkpt lat="45.79643" lon="1.91732">
        <ele>665.4</ele>
        <time>2024-09-15T11:56:08Z</time>
      </trkpt>
      <trkpt lat="45.79646" lon="1.9173">
        <ele>665.6</ele>
        <time>2024-09-15T11:56:09Z</time>
      </trkpt>
      <trkpt lat="45.7965" lon="1.91728">
        <ele>665.6</ele>
        <time>2024-09-15T11:56:11Z</time>
      </trkpt>
      <trkpt lat="45.79651" lon="1.91728">
        <ele>665.8</ele>
        <time>2024-09-15T11:56:12Z</time>
      </trkpt>
      <trkpt lat="45.79653" lon="1.91726">
        <ele>666.2</ele>
        <time>2024-09-15T11:56:13Z</time>
      </trkpt>
      <trkpt lat="45.79655" lon="1.91725">
        <ele>666.4</ele>
        <time>2024-09-15T11:56:14Z</time>
      </trkpt>
      <trkpt lat="45.79657" lon="1.91724">
        <ele>666.4</ele>
        <time>2024-09-15T11:56:15Z</time>
      </trkpt>
      <trkpt lat="45.79658" lon="1.91723">
        <ele>666.8</ele>
        <time>2024-09-15T11:56:16Z</time>
      </trkpt>
      <trkpt lat="45.79659" lon="1.91722">
        <ele>667</ele>
        <time>2024-09-15T11:56:17Z</time>
      </trkpt>
      <trkpt lat="45.7966" lon="1.91719">
        <ele>667.2</ele>
        <time>2024-09-15T11:56:18Z</time>
      </trkpt>
      <trkpt lat="45.7966" lon="1.91718">
        <ele>667.2</ele>
        <time>2024-09-15T11:56:19Z</time>
      </trkpt>
      <trkpt lat="45.7966" lon="1.91715">
        <ele>667.2</ele>
        <time>2024-09-15T11:56:20Z</time>
      </trkpt>
      <trkpt lat="45.7966" lon="1.91689">
        <ele>666.8</ele>
        <time>2024-09-15T11:56:26Z</time>
      </trkpt>
      <trkpt lat="45.79659" lon="1.91684">
        <ele>666.6</ele>
        <time>2024-09-15T11:56:27Z</time>
      </trkpt>
      <trkpt lat="45.79657" lon="1.91679">
        <ele>666.4</ele>
        <time>2024-09-15T11:56:28Z</time>
      </trkpt>
      <trkpt lat="45.79656" lon="1.91674">
        <ele>666</ele>
        <time>2024-09-15T11:56:29Z</time>
      </trkpt>
      <trkpt lat="45.79656" lon="1.91669">
        <ele>666</ele>
        <time>2024-09-15T11:56:30Z</time>
      </trkpt>
      <trkpt lat="45.79656" lon="1.91663">
        <ele>665.2</ele>
        <time>2024-09-15T11:56:31Z</time>
      </trkpt>
      <trkpt lat="45.79657" lon="1.91657">
        <ele>665</ele>
        <time>2024-09-15T11:56:32Z</time>
      </trkpt>
      <trkpt lat="45.79658" lon="1.91653">
        <ele>664.4</ele>
        <time>2024-09-15T11:56:33Z</time>
      </trkpt>
      <trkpt lat="45.7966" lon="1.91649">
        <ele>663.6</ele>
        <time>2024-09-15T11:56:34Z</time>
      </trkpt>
      <trkpt lat="45.79663" lon="1.91646">
        <ele>663.4</ele>
        <time>2024-09-15T11:56:35Z</time>
      </trkpt>
      <trkpt lat="45.79666" lon="1.91642">
        <ele>662.8</ele>
        <time>2024-09-15T11:56:36Z</time>
      </trkpt>
      <trkpt lat="45.79669" lon="1.91638">
        <ele>662.6</ele>
        <time>2024-09-15T11:56:37Z</time>
      </trkpt>
      <trkpt lat="45.79671" lon="1.91636">
        <ele>662.2</ele>
        <time>2024-09-15T11:56:38Z</time>
      </trkpt>
      <trkpt lat="45.79674" lon="1.91635">
        <ele>662</ele>
        <time>2024-09-15T11:56:39Z</time>
      </trkpt>
      <trkpt lat="45.79676" lon="1.91635">
        <ele>661.8</ele>
        <time>2024-09-15T11:56:40Z</time>
      </trkpt>
      <trkpt lat="45.79678" lon="1.91635">
        <ele>661.8</ele>
        <time>2024-09-15T11:56:41Z</time>
      </trkpt>
      <trkpt lat="45.7968" lon="1.91636">
        <ele>661.6</ele>
        <time>2024-09-15T11:56:42Z</time>
      </trkpt>
      <trkpt lat="45.79682" lon="1.91635">
        <ele>661.8</ele>
        <time>2024-09-15T11:56:43Z</time>
      </trkpt>
      <trkpt lat="45.79683" lon="1.91636">
        <ele>661.8</ele>
        <time>2024-09-15T11:56:44Z</time>
      </trkpt>
      <trkpt lat="45.79685" lon="1.91637">
        <ele>661.8</ele>
        <time>2024-09-15T11:56:45Z</time>
      </trkpt>
      <trkpt lat="45.79688" lon="1.91637">
        <ele>661.8</ele>
        <time>2024-09-15T11:56:46Z</time>
      </trkpt>
      <trkpt lat="45.7969" lon="1.91638">
        <ele>661.8</ele>
        <time>2024-09-15T11:56:47Z</time>
      </trkpt>
      <trkpt lat="45.79692" lon="1.91638">
        <ele>661.8</ele>
        <time>2024-09-15T11:56:48Z</time>
      </trkpt>
      <trkpt lat="45.79695" lon="1.91637">
        <ele>662</ele>
        <time>2024-09-15T11:56:49Z</time>
      </trkpt>
      <trkpt lat="45.79697" lon="1.91636">
        <ele>662</ele>
        <time>2024-09-15T11:56:50Z</time>
      </trkpt>
      <trkpt lat="45.79699" lon="1.91636">
        <ele>662</ele>
        <time>2024-09-15T11:56:51Z</time>
      </trkpt>
      <trkpt lat="45.79701" lon="1.91636">
        <ele>662</ele>
        <time>2024-09-15T11:56:52Z</time>
      </trkpt>
      <trkpt lat="45.79707" lon="1.91635">
        <ele>662.2</ele>
        <time>2024-09-15T11:56:54Z</time>
      </trkpt>
      <trkpt lat="45.7972" lon="1.91632">
        <ele>663</ele>
        <time>2024-09-15T11:56:58Z</time>
      </trkpt>
      <trkpt lat="45.79722" lon="1.91633">
        <ele>663</ele>
        <time>2024-09-15T11:56:59Z</time>
      </trkpt>
      <trkpt lat="45.79724" lon="1.91633">
        <ele>663.2</ele>
        <time>2024-09-15T11:57:00Z</time>
      </trkpt>
      <trkpt lat="45.79725" lon="1.91635">
        <ele>663.2</ele>
        <time>2024-09-15T11:57:01Z</time>
      </trkpt>
      <trkpt lat="45.79727" lon="1.91635">
        <ele>663.4</ele>
        <time>2024-09-15T11:57:02Z</time>
      </trkpt>
      <trkpt lat="45.79729" lon="1.91636">
        <ele>663.4</ele>
        <time>2024-09-15T11:57:03Z</time>
      </trkpt>
      <trkpt lat="45.79731" lon="1.91638">
        <ele>663.6</ele>
        <time>2024-09-15T11:57:04Z</time>
      </trkpt>
      <trkpt lat="45.79734" lon="1.91643">
        <ele>663.8</ele>
        <time>2024-09-15T11:57:06Z</time>
      </trkpt>
      <trkpt lat="45.79735" lon="1.91646">
        <ele>664</ele>
        <time>2024-09-15T11:57:07Z</time>
      </trkpt>
      <trkpt lat="45.79737" lon="1.91647">
        <ele>664.2</ele>
        <time>2024-09-15T11:57:08Z</time>
      </trkpt>
      <trkpt lat="45.79738" lon="1.91646">
        <ele>664.6</ele>
        <time>2024-09-15T11:57:09Z</time>
      </trkpt>
      <trkpt lat="45.7974" lon="1.91645">
        <ele>664.6</ele>
        <time>2024-09-15T11:57:10Z</time>
      </trkpt>
      <trkpt lat="45.7974" lon="1.91645">
        <ele>665</ele>
        <time>2024-09-15T11:57:11Z</time>
      </trkpt>
      <trkpt lat="45.79741" lon="1.91645">
        <ele>665.4</ele>
        <time>2024-09-15T11:57:12Z</time>
      </trkpt>
      <trkpt lat="45.79743" lon="1.91645">
        <ele>665.6</ele>
        <time>2024-09-15T11:57:13Z</time>
      </trkpt>
      <trkpt lat="45.79744" lon="1.91642">
        <ele>665.8</ele>
        <time>2024-09-15T11:57:14Z</time>
      </trkpt>
      <trkpt lat="45.79747" lon="1.91639">
        <ele>666.2</ele>
        <time>2024-09-15T11:57:15Z</time>
      </trkpt>
      <trkpt lat="45.7975" lon="1.91634">
        <ele>666.2</ele>
        <time>2024-09-15T11:57:16Z</time>
      </trkpt>
      <trkpt lat="45.79753" lon="1.91627">
        <ele>666.2</ele>
        <time>2024-09-15T11:57:17Z</time>
      </trkpt>
      <trkpt lat="45.79758" lon="1.91621">
        <ele>666.2</ele>
        <time>2024-09-15T11:57:18Z</time>
      </trkpt>
      <trkpt lat="45.79763" lon="1.91616">
        <ele>666</ele>
        <time>2024-09-15T11:57:19Z</time>
      </trkpt>
      <trkpt lat="45.79767" lon="1.91614">
        <ele>665.6</ele>
        <time>2024-09-15T11:57:20Z</time>
      </trkpt>
      <trkpt lat="45.79768" lon="1.91613">
        <ele>665.2</ele>
        <time>2024-09-15T11:57:21Z</time>
      </trkpt>
      <trkpt lat="45.79769" lon="1.91617">
        <ele>664.8</ele>
        <time>2024-09-15T11:57:22Z</time>
      </trkpt>
      <trkpt lat="45.79773" lon="1.91615">
        <ele>664.8</ele>
        <time>2024-09-15T11:57:23Z</time>
      </trkpt>
      <trkpt lat="45.79776" lon="1.91614">
        <ele>664.6</ele>
        <time>2024-09-15T11:57:24Z</time>
      </trkpt>
      <trkpt lat="45.79778" lon="1.91612">
        <ele>664.6</ele>
        <time>2024-09-15T11:57:25Z</time>
      </trkpt>
      <trkpt lat="45.79779" lon="1.91612">
        <ele>664.6</ele>
        <time>2024-09-15T11:57:26Z</time>
      </trkpt>
      <trkpt lat="45.79781" lon="1.91612">
        <ele>664.6</ele>
        <time>2024-09-15T11:57:27Z</time>
      </trkpt>
      <trkpt lat="45.79782" lon="1.91613">
        <ele>664.8</ele>
        <time>2024-09-15T11:57:28Z</time>
      </trkpt>
      <trkpt lat="45.79783" lon="1.91614">
        <ele>665</ele>
        <time>2024-09-15T11:57:29Z</time>
      </trkpt>
      <trkpt lat="45.79784" lon="1.91614">
        <ele>665.2</ele>
        <time>2024-09-15T11:57:30Z</time>
      </trkpt>
      <trkpt lat="45.79785" lon="1.91615">
        <ele>665.4</ele>
        <time>2024-09-15T11:57:31Z</time>
      </trkpt>
      <trkpt lat="45.79788" lon="1.91615">
        <ele>665.4</ele>
        <time>2024-09-15T11:57:32Z</time>
      </trkpt>
      <trkpt lat="45.7979" lon="1.91615">
        <ele>665.4</ele>
        <time>2024-09-15T11:57:33Z</time>
      </trkpt>
      <trkpt lat="45.79792" lon="1.91616">
        <ele>665.6</ele>
        <time>2024-09-15T11:57:34Z</time>
      </trkpt>
      <trkpt lat="45.79793" lon="1.91618">
        <ele>665.8</ele>
        <time>2024-09-15T11:57:35Z</time>
      </trkpt>
      <trkpt lat="45.79796" lon="1.91617">
        <ele>666</ele>
        <time>2024-09-15T11:57:36Z</time>
      </trkpt>
      <trkpt lat="45.79799" lon="1.91617">
        <ele>666.2</ele>
        <time>2024-09-15T11:57:37Z</time>
      </trkpt>
      <trkpt lat="45.79801" lon="1.91617">
        <ele>666.6</ele>
        <time>2024-09-15T11:57:38Z</time>
      </trkpt>
      <trkpt lat="45.79804" lon="1.91616">
        <ele>666.6</ele>
        <time>2024-09-15T11:57:39Z</time>
      </trkpt>
      <trkpt lat="45.79805" lon="1.91615">
        <ele>666.8</ele>
        <time>2024-09-15T11:57:40Z</time>
      </trkpt>
      <trkpt lat="45.79807" lon="1.91614">
        <ele>667</ele>
        <time>2024-09-15T11:57:41Z</time>
      </trkpt>
      <trkpt lat="45.79808" lon="1.91614">
        <ele>667.2</ele>
        <time>2024-09-15T11:57:42Z</time>
      </trkpt>
      <trkpt lat="45.7981" lon="1.91616">
        <ele>667.4</ele>
        <time>2024-09-15T11:57:43Z</time>
      </trkpt>
      <trkpt lat="45.79812" lon="1.91618">
        <ele>667.6</ele>
        <time>2024-09-15T11:57:44Z</time>
      </trkpt>
      <trkpt lat="45.79814" lon="1.91619">
        <ele>667.8</ele>
        <time>2024-09-15T11:57:45Z</time>
      </trkpt>
      <trkpt lat="45.79816" lon="1.91619">
        <ele>667.8</ele>
        <time>2024-09-15T11:57:46Z</time>
      </trkpt>
      <trkpt lat="45.79818" lon="1.91619">
        <ele>668</ele>
        <time>2024-09-15T11:57:47Z</time>
      </trkpt>
      <trkpt lat="45.79821" lon="1.91617">
        <ele>668</ele>
        <time>2024-09-15T11:57:48Z</time>
      </trkpt>
      <trkpt lat="45.79823" lon="1.91616">
        <ele>668.4</ele>
        <time>2024-09-15T11:57:49Z</time>
      </trkpt>
      <trkpt lat="45.79825" lon="1.91615">
        <ele>668.4</ele>
        <time>2024-09-15T11:57:50Z</time>
      </trkpt>
      <trkpt lat="45.79827" lon="1.91614">
        <ele>668.8</ele>
        <time>2024-09-15T11:57:51Z</time>
      </trkpt>
      <trkpt lat="45.79828" lon="1.91612">
        <ele>669</ele>
        <time>2024-09-15T11:57:52Z</time>
      </trkpt>
      <trkpt lat="45.7983" lon="1.9161">
        <ele>669.4</ele>
        <time>2024-09-15T11:57:53Z</time>
      </trkpt>
      <trkpt lat="45.79831" lon="1.91609">
        <ele>669.6</ele>
        <time>2024-09-15T11:57:54Z</time>
      </trkpt>
      <trkpt lat="45.79832" lon="1.91607">
        <ele>669.6</ele>
        <time>2024-09-15T11:57:55Z</time>
      </trkpt>
      <trkpt lat="45.79834" lon="1.91606">
        <ele>669.8</ele>
        <time>2024-09-15T11:57:56Z</time>
      </trkpt>
      <trkpt lat="45.79836" lon="1.91605">
        <ele>669.8</ele>
        <time>2024-09-15T11:57:57Z</time>
      </trkpt>
      <trkpt lat="45.79837" lon="1.91603">
        <ele>670</ele>
        <time>2024-09-15T11:57:58Z</time>
      </trkpt>
      <trkpt lat="45.79839" lon="1.91602">
        <ele>670</ele>
        <time>2024-09-15T11:57:59Z</time>
      </trkpt>
      <trkpt lat="45.79841" lon="1.91601">
        <ele>670</ele>
        <time>2024-09-15T11:58:00Z</time>
      </trkpt>
      <trkpt lat="45.79843" lon="1.916">
        <ele>670</ele>
        <time>2024-09-15T11:58:01Z</time>
      </trkpt>
      <trkpt lat="45.79845" lon="1.91599">
        <ele>670</ele>
        <time>2024-09-15T11:58:02Z</time>
      </trkpt>
      <trkpt lat="45.79847" lon="1.91596">
        <ele>670</ele>
        <time>2024-09-15T11:58:03Z</time>
      </trkpt>
      <trkpt lat="45.79849" lon="1.91594">
        <ele>670</ele>
        <time>2024-09-15T11:58:04Z</time>
      </trkpt>
      <trkpt lat="45.79852" lon="1.91593">
        <ele>670</ele>
        <time>2024-09-15T11:58:05Z</time>
      </trkpt>
      <trkpt lat="45.79854" lon="1.91592">
        <ele>670</ele>
        <time>2024-09-15T11:58:06Z</time>
      </trkpt>
      <trkpt lat="45.79857" lon="1.91591">
        <ele>670</ele>
        <time>2024-09-15T11:58:07Z</time>
      </trkpt>
      <trkpt lat="45.79861" lon="1.9159">
        <ele>670</ele>
        <time>2024-09-15T11:58:08Z</time>
      </trkpt>
      <trkpt lat="45.79866" lon="1.91588">
        <ele>669.8</ele>
        <time>2024-09-15T11:58:09Z</time>
      </trkpt>
      <trkpt lat="45.79872" lon="1.91586">
        <ele>669.8</ele>
        <time>2024-09-15T11:58:10Z</time>
      </trkpt>
      <trkpt lat="45.79876" lon="1.91582">
        <ele>669.4</ele>
        <time>2024-09-15T11:58:11Z</time>
      </trkpt>
      <trkpt lat="45.7988" lon="1.91577">
        <ele>669.2</ele>
        <time>2024-09-15T11:58:12Z</time>
      </trkpt>
      <trkpt lat="45.79883" lon="1.91573">
        <ele>669</ele>
        <time>2024-09-15T11:58:13Z</time>
      </trkpt>
      <trkpt lat="45.79885" lon="1.91567">
        <ele>668.4</ele>
        <time>2024-09-15T11:58:14Z</time>
      </trkpt>
      <trkpt lat="45.79887" lon="1.9156">
        <ele>667.4</ele>
        <time>2024-09-15T11:58:15Z</time>
      </trkpt>
      <trkpt lat="45.79887" lon="1.91554">
        <ele>667</ele>
        <time>2024-09-15T11:58:16Z</time>
      </trkpt>
      <trkpt lat="45.79888" lon="1.9155">
        <ele>666.4</ele>
        <time>2024-09-15T11:58:17Z</time>
      </trkpt>
      <trkpt lat="45.79888" lon="1.91547">
        <ele>666</ele>
        <time>2024-09-15T11:58:18Z</time>
      </trkpt>
      <trkpt lat="45.79889" lon="1.91546">
        <ele>665.8</ele>
        <time>2024-09-15T11:58:19Z</time>
      </trkpt>
      <trkpt lat="45.7989" lon="1.91545">
        <ele>665.4</ele>
        <time>2024-09-15T11:58:20Z</time>
      </trkpt>
      <trkpt lat="45.79891" lon="1.91544">
        <ele>665.2</ele>
        <time>2024-09-15T11:58:21Z</time>
      </trkpt>
      <trkpt lat="45.79891" lon="1.91542">
        <ele>665</ele>
        <time>2024-09-15T11:58:22Z</time>
      </trkpt>
      <trkpt lat="45.79892" lon="1.91541">
        <ele>665</ele>
        <time>2024-09-15T11:58:23Z</time>
      </trkpt>
      <trkpt lat="45.79892" lon="1.91539">
        <ele>665</ele>
        <time>2024-09-15T11:58:24Z</time>
      </trkpt>
      <trkpt lat="45.79892" lon="1.91537">
        <ele>665</ele>
        <time>2024-09-15T11:58:25Z</time>
      </trkpt>
      <trkpt lat="45.79893" lon="1.91535">
        <ele>665</ele>
        <time>2024-09-15T11:58:26Z</time>
      </trkpt>
      <trkpt lat="45.79893" lon="1.91534">
        <ele>665</ele>
        <time>2024-09-15T11:58:27Z</time>
      </trkpt>
      <trkpt lat="45.79894" lon="1.91533">
        <ele>665.2</ele>
        <time>2024-09-15T11:58:28Z</time>
      </trkpt>
      <trkpt lat="45.79894" lon="1.91531">
        <ele>665.2</ele>
        <time>2024-09-15T11:58:29Z</time>
      </trkpt>
      <trkpt lat="45.79894" lon="1.91529">
        <ele>665.2</ele>
        <time>2024-09-15T11:58:30Z</time>
      </trkpt>
      <trkpt lat="45.79895" lon="1.91529">
        <ele>665.6</ele>
        <time>2024-09-15T11:58:33Z</time>
      </trkpt>
      <trkpt lat="45.79895" lon="1.91529">
        <ele>665.8</ele>
        <time>2024-09-15T11:58:34Z</time>
      </trkpt>
      <trkpt lat="45.79901" lon="1.91519">
        <ele>669.8</ele>
        <time>2024-09-15T11:59:17Z</time>
      </trkpt>
      <trkpt lat="45.79901" lon="1.91518">
        <ele>670</ele>
        <time>2024-09-15T11:59:20Z</time>
      </trkpt>
      <trkpt lat="45.79903" lon="1.91516">
        <ele>670.2</ele>
        <time>2024-09-15T11:59:26Z</time>
      </trkpt>
      <trkpt lat="45.79904" lon="1.91514">
        <ele>670.2</ele>
        <time>2024-09-15T11:59:27Z</time>
      </trkpt>
      <trkpt lat="45.79915" lon="1.91491">
        <ele>670.2</ele>
        <time>2024-09-15T11:59:33Z</time>
      </trkpt>
      <trkpt lat="45.79925" lon="1.91464">
        <ele>670</ele>
        <time>2024-09-15T11:59:38Z</time>
      </trkpt>
      <trkpt lat="45.7993" lon="1.91459">
        <ele>669.6</ele>
        <time>2024-09-15T11:59:40Z</time>
      </trkpt>
      <trkpt lat="45.79933" lon="1.91457">
        <ele>669.4</ele>
        <time>2024-09-15T11:59:41Z</time>
      </trkpt>
      <trkpt lat="45.79935" lon="1.91456">
        <ele>669.4</ele>
        <time>2024-09-15T11:59:42Z</time>
      </trkpt>
      <trkpt lat="45.79937" lon="1.91454">
        <ele>669.2</ele>
        <time>2024-09-15T11:59:43Z</time>
      </trkpt>
      <trkpt lat="45.79939" lon="1.91452">
        <ele>669.2</ele>
        <time>2024-09-15T11:59:44Z</time>
      </trkpt>
      <trkpt lat="45.7994" lon="1.9145">
        <ele>669.2</ele>
        <time>2024-09-15T11:59:45Z</time>
      </trkpt>
      <trkpt lat="45.79941" lon="1.91448">
        <ele>669.2</ele>
        <time>2024-09-15T11:59:46Z</time>
      </trkpt>
      <trkpt lat="45.79943" lon="1.91446">
        <ele>669.2</ele>
        <time>2024-09-15T11:59:47Z</time>
      </trkpt>
      <trkpt lat="45.79945" lon="1.91442">
        <ele>669.2</ele>
        <time>2024-09-15T11:59:48Z</time>
      </trkpt>
      <trkpt lat="45.7995" lon="1.91424">
        <ele>669.2</ele>
        <time>2024-09-15T11:59:51Z</time>
      </trkpt>
      <trkpt lat="45.79952" lon="1.91411">
        <ele>668.6</ele>
        <time>2024-09-15T11:59:53Z</time>
      </trkpt>
      <trkpt lat="45.79959" lon="1.91399">
        <ele>667.6</ele>
        <time>2024-09-15T11:59:55Z</time>
      </trkpt>
      <trkpt lat="45.79962" lon="1.91396">
        <ele>666.8</ele>
        <time>2024-09-15T11:59:56Z</time>
      </trkpt>
      <trkpt lat="45.79965" lon="1.91397">
        <ele>666.2</ele>
        <time>2024-09-15T11:59:57Z</time>
      </trkpt>
      <trkpt lat="45.79969" lon="1.91397">
        <ele>666</ele>
        <time>2024-09-15T11:59:58Z</time>
      </trkpt>
      <trkpt lat="45.79971" lon="1.91397">
        <ele>665</ele>
        <time>2024-09-15T11:59:59Z</time>
      </trkpt>
      <trkpt lat="45.79974" lon="1.91396">
        <ele>664.6</ele>
        <time>2024-09-15T12:00:00Z</time>
      </trkpt>
      <trkpt lat="45.79978" lon="1.91394">
        <ele>664</ele>
        <time>2024-09-15T12:00:01Z</time>
      </trkpt>
      <trkpt lat="45.79981" lon="1.91392">
        <ele>663.8</ele>
        <time>2024-09-15T12:00:02Z</time>
      </trkpt>
      <trkpt lat="45.79983" lon="1.91392">
        <ele>663.8</ele>
        <time>2024-09-15T12:00:03Z</time>
      </trkpt>
      <trkpt lat="45.79986" lon="1.91391">
        <ele>663.8</ele>
        <time>2024-09-15T12:00:04Z</time>
      </trkpt>
      <trkpt lat="45.79989" lon="1.91391">
        <ele>663.6</ele>
        <time>2024-09-15T12:00:05Z</time>
      </trkpt>
      <trkpt lat="45.79995" lon="1.91388">
        <ele>663.4</ele>
        <time>2024-09-15T12:00:07Z</time>
      </trkpt>
      <trkpt lat="45.79999" lon="1.91389">
        <ele>663.4</ele>
        <time>2024-09-15T12:00:08Z</time>
      </trkpt>
      <trkpt lat="45.80016" lon="1.9138">
        <ele>663</ele>
        <time>2024-09-15T12:00:12Z</time>
      </trkpt>
      <trkpt lat="45.8002" lon="1.91378">
        <ele>662.8</ele>
        <time>2024-09-15T12:00:13Z</time>
      </trkpt>
      <trkpt lat="45.80024" lon="1.91379">
        <ele>662.4</ele>
        <time>2024-09-15T12:00:14Z</time>
      </trkpt>
      <trkpt lat="45.80027" lon="1.9138">
        <ele>662</ele>
        <time>2024-09-15T12:00:15Z</time>
      </trkpt>
      <trkpt lat="45.8003" lon="1.91381">
        <ele>661.8</ele>
        <time>2024-09-15T12:00:16Z</time>
      </trkpt>
      <trkpt lat="45.80034" lon="1.91381">
        <ele>661.6</ele>
        <time>2024-09-15T12:00:17Z</time>
      </trkpt>
      <trkpt lat="45.80038" lon="1.91378">
        <ele>661.4</ele>
        <time>2024-09-15T12:00:18Z</time>
      </trkpt>
      <trkpt lat="45.80042" lon="1.91375">
        <ele>661.4</ele>
        <time>2024-09-15T12:00:19Z</time>
      </trkpt>
      <trkpt lat="45.80046" lon="1.91372">
        <ele>661.2</ele>
        <time>2024-09-15T12:00:20Z</time>
      </trkpt>
      <trkpt lat="45.80052" lon="1.91365">
        <ele>661.2</ele>
        <time>2024-09-15T12:00:22Z</time>
      </trkpt>
      <trkpt lat="45.8006" lon="1.91354">
        <ele>661.2</ele>
        <time>2024-09-15T12:00:25Z</time>
      </trkpt>
      <trkpt lat="45.80062" lon="1.91349">
        <ele>661.2</ele>
        <time>2024-09-15T12:00:26Z</time>
      </trkpt>
      <trkpt lat="45.80064" lon="1.91343">
        <ele>661.2</ele>
        <time>2024-09-15T12:00:27Z</time>
      </trkpt>
      <trkpt lat="45.80066" lon="1.91337">
        <ele>661</ele>
        <time>2024-09-15T12:00:28Z</time>
      </trkpt>
      <trkpt lat="45.80068" lon="1.91332">
        <ele>661</ele>
        <time>2024-09-15T12:00:29Z</time>
      </trkpt>
      <trkpt lat="45.80073" lon="1.91324">
        <ele>660.6</ele>
        <time>2024-09-15T12:00:31Z</time>
      </trkpt>
      <trkpt lat="45.80076" lon="1.91314">
        <ele>660.4</ele>
        <time>2024-09-15T12:00:33Z</time>
      </trkpt>
      <trkpt lat="45.80077" lon="1.9131">
        <ele>660.4</ele>
        <time>2024-09-15T12:00:34Z</time>
      </trkpt>
      <trkpt lat="45.80078" lon="1.91306">
        <ele>660.4</ele>
        <time>2024-09-15T12:00:35Z</time>
      </trkpt>
      <trkpt lat="45.80079" lon="1.91303">
        <ele>660.4</ele>
        <time>2024-09-15T12:00:36Z</time>
      </trkpt>
      <trkpt lat="45.8008" lon="1.913">
        <ele>660.4</ele>
        <time>2024-09-15T12:00:37Z</time>
      </trkpt>
      <trkpt lat="45.8008" lon="1.91297">
        <ele>660.4</ele>
        <time>2024-09-15T12:00:38Z</time>
      </trkpt>
      <trkpt lat="45.80081" lon="1.91295">
        <ele>660.8</ele>
        <time>2024-09-15T12:00:39Z</time>
      </trkpt>
      <trkpt lat="45.80083" lon="1.91292">
        <ele>661</ele>
        <time>2024-09-15T12:00:40Z</time>
      </trkpt>
      <trkpt lat="45.80084" lon="1.91289">
        <ele>661.4</ele>
        <time>2024-09-15T12:00:41Z</time>
      </trkpt>
      <trkpt lat="45.80086" lon="1.91285">
        <ele>661.8</ele>
        <time>2024-09-15T12:00:43Z</time>
      </trkpt>
      <trkpt lat="45.80087" lon="1.91282">
        <ele>661.8</ele>
        <time>2024-09-15T12:00:44Z</time>
      </trkpt>
      <trkpt lat="45.80087" lon="1.91279">
        <ele>662.2</ele>
        <time>2024-09-15T12:00:45Z</time>
      </trkpt>
      <trkpt lat="45.80086" lon="1.91277">
        <ele>662.4</ele>
        <time>2024-09-15T12:00:46Z</time>
      </trkpt>
      <trkpt lat="45.80086" lon="1.91275">
        <ele>662.8</ele>
        <time>2024-09-15T12:00:47Z</time>
      </trkpt>
      <trkpt lat="45.80085" lon="1.91275">
        <ele>662.8</ele>
        <time>2024-09-15T12:00:48Z</time>
      </trkpt>
      <trkpt lat="45.80085" lon="1.91274">
        <ele>663.4</ele>
        <time>2024-09-15T12:00:49Z</time>
      </trkpt>
      <trkpt lat="45.80084" lon="1.91274">
        <ele>663.6</ele>
        <time>2024-09-15T12:00:50Z</time>
      </trkpt>
      <trkpt lat="45.80083" lon="1.91274">
        <ele>664</ele>
        <time>2024-09-15T12:00:51Z</time>
      </trkpt>
      <trkpt lat="45.80082" lon="1.91273">
        <ele>664</ele>
        <time>2024-09-15T12:00:52Z</time>
      </trkpt>
      <trkpt lat="45.80081" lon="1.91273">
        <ele>664</ele>
        <time>2024-09-15T12:00:53Z</time>
      </trkpt>
      <trkpt lat="45.8008" lon="1.91273">
        <ele>664</ele>
        <time>2024-09-15T12:00:54Z</time>
      </trkpt>
      <trkpt lat="45.80078" lon="1.91272">
        <ele>664</ele>
        <time>2024-09-15T12:00:55Z</time>
      </trkpt>
      <trkpt lat="45.80077" lon="1.91271">
        <ele>664</ele>
        <time>2024-09-15T12:00:56Z</time>
      </trkpt>
      <trkpt lat="45.80076" lon="1.91269">
        <ele>664</ele>
        <time>2024-09-15T12:00:57Z</time>
      </trkpt>
      <trkpt lat="45.80076" lon="1.91268">
        <ele>663.4</ele>
        <time>2024-09-15T12:00:58Z</time>
      </trkpt>
      <trkpt lat="45.80076" lon="1.91267">
        <ele>663</ele>
        <time>2024-09-15T12:00:59Z</time>
      </trkpt>
      <trkpt lat="45.80076" lon="1.91265">
        <ele>662.8</ele>
        <time>2024-09-15T12:01:00Z</time>
      </trkpt>
      <trkpt lat="45.80076" lon="1.91264">
        <ele>662.8</ele>
        <time>2024-09-15T12:01:01Z</time>
      </trkpt>
      <trkpt lat="45.80076" lon="1.91263">
        <ele>662.6</ele>
        <time>2024-09-15T12:01:02Z</time>
      </trkpt>
      <trkpt lat="45.80076" lon="1.91262">
        <ele>662.4</ele>
        <time>2024-09-15T12:01:03Z</time>
      </trkpt>
      <trkpt lat="45.80076" lon="1.91261">
        <ele>662.4</ele>
        <time>2024-09-15T12:01:04Z</time>
      </trkpt>
      <trkpt lat="45.80076" lon="1.9126">
        <ele>662.2</ele>
        <time>2024-09-15T12:01:05Z</time>
      </trkpt>
      <trkpt lat="45.80074" lon="1.91258">
        <ele>662.2</ele>
        <time>2024-09-15T12:01:06Z</time>
      </trkpt>
      <trkpt lat="45.80071" lon="1.91255">
        <ele>662</ele>
        <time>2024-09-15T12:01:07Z</time>
      </trkpt>
      <trkpt lat="45.80066" lon="1.91249">
        <ele>661.6</ele>
        <time>2024-09-15T12:01:09Z</time>
      </trkpt>
      <trkpt lat="45.80065" lon="1.91246">
        <ele>661.4</ele>
        <time>2024-09-15T12:01:10Z</time>
      </trkpt>
      <trkpt lat="45.80064" lon="1.91242">
        <ele>660.6</ele>
        <time>2024-09-15T12:01:11Z</time>
      </trkpt>
      <trkpt lat="45.80064" lon="1.91237">
        <ele>660.2</ele>
        <time>2024-09-15T12:01:12Z</time>
      </trkpt>
      <trkpt lat="45.80064" lon="1.91233">
        <ele>659.6</ele>
        <time>2024-09-15T12:01:13Z</time>
      </trkpt>
      <trkpt lat="45.80065" lon="1.91228">
        <ele>658.4</ele>
        <time>2024-09-15T12:01:14Z</time>
      </trkpt>
      <trkpt lat="45.80067" lon="1.91218">
        <ele>657.4</ele>
        <time>2024-09-15T12:01:16Z</time>
      </trkpt>
      <trkpt lat="45.80069" lon="1.91214">
        <ele>657.2</ele>
        <time>2024-09-15T12:01:17Z</time>
      </trkpt>
      <trkpt lat="45.80071" lon="1.9121">
        <ele>656.8</ele>
        <time>2024-09-15T12:01:18Z</time>
      </trkpt>
      <trkpt lat="45.80073" lon="1.91206">
        <ele>656.8</ele>
        <time>2024-09-15T12:01:19Z</time>
      </trkpt>
      <trkpt lat="45.80076" lon="1.91201">
        <ele>656.8</ele>
        <time>2024-09-15T12:01:20Z</time>
      </trkpt>
      <trkpt lat="45.80079" lon="1.91195">
        <ele>656.8</ele>
        <time>2024-09-15T12:01:22Z</time>
      </trkpt>
      <trkpt lat="45.8008" lon="1.91192">
        <ele>656.8</ele>
        <time>2024-09-15T12:01:23Z</time>
      </trkpt>
      <trkpt lat="45.80081" lon="1.91189">
        <ele>656.8</ele>
        <time>2024-09-15T12:01:24Z</time>
      </trkpt>
      <trkpt lat="45.80082" lon="1.91186">
        <ele>657</ele>
        <time>2024-09-15T12:01:25Z</time>
      </trkpt>
      <trkpt lat="45.80084" lon="1.91182">
        <ele>657</ele>
        <time>2024-09-15T12:01:26Z</time>
      </trkpt>
      <trkpt lat="45.80086" lon="1.91178">
        <ele>657</ele>
        <time>2024-09-15T12:01:27Z</time>
      </trkpt>
      <trkpt lat="45.80088" lon="1.91173">
        <ele>657</ele>
        <time>2024-09-15T12:01:28Z</time>
      </trkpt>
      <trkpt lat="45.80104" lon="1.91154">
        <ele>657</ele>
        <time>2024-09-15T12:01:32Z</time>
      </trkpt>
      <trkpt lat="45.80105" lon="1.91152">
        <ele>656.6</ele>
        <time>2024-09-15T12:01:33Z</time>
      </trkpt>
      <trkpt lat="45.80107" lon="1.91148">
        <ele>656.4</ele>
        <time>2024-09-15T12:01:34Z</time>
      </trkpt>
      <trkpt lat="45.80109" lon="1.91145">
        <ele>656.4</ele>
        <time>2024-09-15T12:01:35Z</time>
      </trkpt>
      <trkpt lat="45.80112" lon="1.91143">
        <ele>656.4</ele>
        <time>2024-09-15T12:01:36Z</time>
      </trkpt>
      <trkpt lat="45.80117" lon="1.91141">
        <ele>656.4</ele>
        <time>2024-09-15T12:01:38Z</time>
      </trkpt>
      <trkpt lat="45.80119" lon="1.91141">
        <ele>656.6</ele>
        <time>2024-09-15T12:01:39Z</time>
      </trkpt>
      <trkpt lat="45.80121" lon="1.91144">
        <ele>656.6</ele>
        <time>2024-09-15T12:01:40Z</time>
      </trkpt>
      <trkpt lat="45.80123" lon="1.91142">
        <ele>656.8</ele>
        <time>2024-09-15T12:01:41Z</time>
      </trkpt>
      <trkpt lat="45.80125" lon="1.91139">
        <ele>657.2</ele>
        <time>2024-09-15T12:01:42Z</time>
      </trkpt>
      <trkpt lat="45.80128" lon="1.91135">
        <ele>657.2</ele>
        <time>2024-09-15T12:01:43Z</time>
      </trkpt>
      <trkpt lat="45.8013" lon="1.91132">
        <ele>657.4</ele>
        <time>2024-09-15T12:01:44Z</time>
      </trkpt>
      <trkpt lat="45.80136" lon="1.91123">
        <ele>658.2</ele>
        <time>2024-09-15T12:01:47Z</time>
      </trkpt>
      <trkpt lat="45.80139" lon="1.9111">
        <ele>658.4</ele>
        <time>2024-09-15T12:01:50Z</time>
      </trkpt>
      <trkpt lat="45.8014" lon="1.91104">
        <ele>658.4</ele>
        <time>2024-09-15T12:01:51Z</time>
      </trkpt>
      <trkpt lat="45.80142" lon="1.91101">
        <ele>658.4</ele>
        <time>2024-09-15T12:01:52Z</time>
      </trkpt>
      <trkpt lat="45.80147" lon="1.91094">
        <ele>658.4</ele>
        <time>2024-09-15T12:01:54Z</time>
      </trkpt>
      <trkpt lat="45.80148" lon="1.91091">
        <ele>658.2</ele>
        <time>2024-09-15T12:01:55Z</time>
      </trkpt>
      <trkpt lat="45.8015" lon="1.91085">
        <ele>658.2</ele>
        <time>2024-09-15T12:01:56Z</time>
      </trkpt>
      <trkpt lat="45.80151" lon="1.91079">
        <ele>658</ele>
        <time>2024-09-15T12:01:57Z</time>
      </trkpt>
      <trkpt lat="45.80152" lon="1.91076">
        <ele>658</ele>
        <time>2024-09-15T12:01:58Z</time>
      </trkpt>
      <trkpt lat="45.80156" lon="1.91073">
        <ele>657.6</ele>
        <time>2024-09-15T12:02:00Z</time>
      </trkpt>
      <trkpt lat="45.80156" lon="1.91072">
        <ele>657.6</ele>
        <time>2024-09-15T12:02:01Z</time>
      </trkpt>
      <trkpt lat="45.80158" lon="1.91071">
        <ele>657.2</ele>
        <time>2024-09-15T12:02:02Z</time>
      </trkpt>
      <trkpt lat="45.80158" lon="1.91069">
        <ele>657</ele>
        <time>2024-09-15T12:02:03Z</time>
      </trkpt>
      <trkpt lat="45.80158" lon="1.91069">
        <ele>656.4</ele>
        <time>2024-09-15T12:02:04Z</time>
      </trkpt>
      <trkpt lat="45.80158" lon="1.91069">
        <ele>656.2</ele>
        <time>2024-09-15T12:02:05Z</time>
      </trkpt>
      <trkpt lat="45.80159" lon="1.91067">
        <ele>656</ele>
        <time>2024-09-15T12:02:06Z</time>
      </trkpt>
      <trkpt lat="45.8016" lon="1.91066">
        <ele>656</ele>
        <time>2024-09-15T12:02:07Z</time>
      </trkpt>
      <trkpt lat="45.8016" lon="1.91065">
        <ele>655.8</ele>
        <time>2024-09-15T12:02:08Z</time>
      </trkpt>
      <trkpt lat="45.80161" lon="1.91064">
        <ele>655.8</ele>
        <time>2024-09-15T12:02:09Z</time>
      </trkpt>
      <trkpt lat="45.80163" lon="1.91062">
        <ele>655.8</ele>
        <time>2024-09-15T12:02:10Z</time>
      </trkpt>
      <trkpt lat="45.80165" lon="1.9106">
        <ele>655.6</ele>
        <time>2024-09-15T12:02:11Z</time>
      </trkpt>
      <trkpt lat="45.80166" lon="1.91057">
        <ele>655.6</ele>
        <time>2024-09-15T12:02:12Z</time>
      </trkpt>
      <trkpt lat="45.80169" lon="1.91051">
        <ele>655.6</ele>
        <time>2024-09-15T12:02:14Z</time>
      </trkpt>
      <trkpt lat="45.8017" lon="1.91049">
        <ele>655.6</ele>
        <time>2024-09-15T12:02:15Z</time>
      </trkpt>
      <trkpt lat="45.80173" lon="1.91029">
        <ele>655.4</ele>
        <time>2024-09-15T12:02:19Z</time>
      </trkpt>
      <trkpt lat="45.80174" lon="1.91024">
        <ele>655.4</ele>
        <time>2024-09-15T12:02:20Z</time>
      </trkpt>
      <trkpt lat="45.80175" lon="1.91022">
        <ele>655.4</ele>
        <time>2024-09-15T12:02:21Z</time>
      </trkpt>
      <trkpt lat="45.80176" lon="1.9102">
        <ele>655.6</ele>
        <time>2024-09-15T12:02:22Z</time>
      </trkpt>
      <trkpt lat="45.80178" lon="1.91018">
        <ele>655.8</ele>
        <time>2024-09-15T12:02:23Z</time>
      </trkpt>
      <trkpt lat="45.80179" lon="1.91016">
        <ele>655.8</ele>
        <time>2024-09-15T12:02:24Z</time>
      </trkpt>
      <trkpt lat="45.8018" lon="1.91014">
        <ele>655.8</ele>
        <time>2024-09-15T12:02:25Z</time>
      </trkpt>
      <trkpt lat="45.80181" lon="1.91012">
        <ele>656.2</ele>
        <time>2024-09-15T12:02:26Z</time>
      </trkpt>
      <trkpt lat="45.80182" lon="1.9101">
        <ele>656.4</ele>
        <time>2024-09-15T12:02:27Z</time>
      </trkpt>
      <trkpt lat="45.80192" lon="1.90997">
        <ele>657.2</ele>
        <time>2024-09-15T12:02:31Z</time>
      </trkpt>
      <trkpt lat="45.80195" lon="1.90991">
        <ele>657.2</ele>
        <time>2024-09-15T12:02:32Z</time>
      </trkpt>
      <trkpt lat="45.80201" lon="1.90982">
        <ele>657.6</ele>
        <time>2024-09-15T12:02:35Z</time>
      </trkpt>
      <trkpt lat="45.80204" lon="1.90981">
        <ele>657.4</ele>
        <time>2024-09-15T12:02:36Z</time>
      </trkpt>
      <trkpt lat="45.80207" lon="1.90978">
        <ele>657.4</ele>
        <time>2024-09-15T12:02:37Z</time>
      </trkpt>
      <trkpt lat="45.8021" lon="1.90976">
        <ele>657.4</ele>
        <time>2024-09-15T12:02:38Z</time>
      </trkpt>
      <trkpt lat="45.80213" lon="1.90974">
        <ele>657.4</ele>
        <time>2024-09-15T12:02:39Z</time>
      </trkpt>
      <trkpt lat="45.80217" lon="1.90971">
        <ele>657.4</ele>
        <time>2024-09-15T12:02:40Z</time>
      </trkpt>
      <trkpt lat="45.80218" lon="1.90967">
        <ele>657.4</ele>
        <time>2024-09-15T12:02:41Z</time>
      </trkpt>
      <trkpt lat="45.80219" lon="1.90961">
        <ele>657.2</ele>
        <time>2024-09-15T12:02:42Z</time>
      </trkpt>
      <trkpt lat="45.8022" lon="1.90955">
        <ele>657.2</ele>
        <time>2024-09-15T12:02:43Z</time>
      </trkpt>
      <trkpt lat="45.80223" lon="1.90952">
        <ele>657.2</ele>
        <time>2024-09-15T12:02:44Z</time>
      </trkpt>
      <trkpt lat="45.80226" lon="1.9095">
        <ele>657</ele>
        <time>2024-09-15T12:02:45Z</time>
      </trkpt>
      <trkpt lat="45.80241" lon="1.90945">
        <ele>656.2</ele>
        <time>2024-09-15T12:02:49Z</time>
      </trkpt>
      <trkpt lat="45.80248" lon="1.90939">
        <ele>656</ele>
        <time>2024-09-15T12:02:51Z</time>
      </trkpt>
      <trkpt lat="45.8025" lon="1.90938">
        <ele>656</ele>
        <time>2024-09-15T12:02:52Z</time>
      </trkpt>
      <trkpt lat="45.80252" lon="1.90936">
        <ele>655.8</ele>
        <time>2024-09-15T12:02:53Z</time>
      </trkpt>
      <trkpt lat="45.80253" lon="1.90935">
        <ele>656</ele>
        <time>2024-09-15T12:02:54Z</time>
      </trkpt>
      <trkpt lat="45.80255" lon="1.90933">
        <ele>656.2</ele>
        <time>2024-09-15T12:02:55Z</time>
      </trkpt>
      <trkpt lat="45.80257" lon="1.90929">
        <ele>656.2</ele>
        <time>2024-09-15T12:02:56Z</time>
      </trkpt>
      <trkpt lat="45.80261" lon="1.90925">
        <ele>656.4</ele>
        <time>2024-09-15T12:02:59Z</time>
      </trkpt>
      <trkpt lat="45.80263" lon="1.90924">
        <ele>656.4</ele>
        <time>2024-09-15T12:03:00Z</time>
      </trkpt>
      <trkpt lat="45.80265" lon="1.90923">
        <ele>656.4</ele>
        <time>2024-09-15T12:03:01Z</time>
      </trkpt>
      <trkpt lat="45.80267" lon="1.90923">
        <ele>656.4</ele>
        <time>2024-09-15T12:03:02Z</time>
      </trkpt>
      <trkpt lat="45.80269" lon="1.90924">
        <ele>656.6</ele>
        <time>2024-09-15T12:03:03Z</time>
      </trkpt>
      <trkpt lat="45.80271" lon="1.90925">
        <ele>656.6</ele>
        <time>2024-09-15T12:03:04Z</time>
      </trkpt>
      <trkpt lat="45.80273" lon="1.90926">
        <ele>656.6</ele>
        <time>2024-09-15T12:03:05Z</time>
      </trkpt>
      <trkpt lat="45.80277" lon="1.90926">
        <ele>656.6</ele>
        <time>2024-09-15T12:03:07Z</time>
      </trkpt>
      <trkpt lat="45.80279" lon="1.90925">
        <ele>656.6</ele>
        <time>2024-09-15T12:03:08Z</time>
      </trkpt>
      <trkpt lat="45.80281" lon="1.90924">
        <ele>656.6</ele>
        <time>2024-09-15T12:03:09Z</time>
      </trkpt>
      <trkpt lat="45.80283" lon="1.90923">
        <ele>656.6</ele>
        <time>2024-09-15T12:03:10Z</time>
      </trkpt>
      <trkpt lat="45.80285" lon="1.90921">
        <ele>656.6</ele>
        <time>2024-09-15T12:03:11Z</time>
      </trkpt>
      <trkpt lat="45.80287" lon="1.9092">
        <ele>656.6</ele>
        <time>2024-09-15T12:03:12Z</time>
      </trkpt>
      <trkpt lat="45.80289" lon="1.90919">
        <ele>656.6</ele>
        <time>2024-09-15T12:03:13Z</time>
      </trkpt>
      <trkpt lat="45.8029" lon="1.90918">
        <ele>656.6</ele>
        <time>2024-09-15T12:03:14Z</time>
      </trkpt>
      <trkpt lat="45.80293" lon="1.90916">
        <ele>656.6</ele>
        <time>2024-09-15T12:03:15Z</time>
      </trkpt>
      <trkpt lat="45.80297" lon="1.90914">
        <ele>656.8</ele>
        <time>2024-09-15T12:03:17Z</time>
      </trkpt>
      <trkpt lat="45.80298" lon="1.90914">
        <ele>656.8</ele>
        <time>2024-09-15T12:03:18Z</time>
      </trkpt>
      <trkpt lat="45.80299" lon="1.90912">
        <ele>656.8</ele>
        <time>2024-09-15T12:03:19Z</time>
      </trkpt>
      <trkpt lat="45.80301" lon="1.9091">
        <ele>656.8</ele>
        <time>2024-09-15T12:03:20Z</time>
      </trkpt>
      <trkpt lat="45.80303" lon="1.90907">
        <ele>657</ele>
        <time>2024-09-15T12:03:21Z</time>
      </trkpt>
      <trkpt lat="45.80305" lon="1.90904">
        <ele>657</ele>
        <time>2024-09-15T12:03:22Z</time>
      </trkpt>
      <trkpt lat="45.80308" lon="1.90901">
        <ele>657</ele>
        <time>2024-09-15T12:03:23Z</time>
      </trkpt>
      <trkpt lat="45.8031" lon="1.90898">
        <ele>657.2</ele>
        <time>2024-09-15T12:03:24Z</time>
      </trkpt>
      <trkpt lat="45.80316" lon="1.90892">
        <ele>657.2</ele>
        <time>2024-09-15T12:03:26Z</time>
      </trkpt>
      <trkpt lat="45.80321" lon="1.90891">
        <ele>657.4</ele>
        <time>2024-09-15T12:03:28Z</time>
      </trkpt>
      <trkpt lat="45.80324" lon="1.9089">
        <ele>657.4</ele>
        <time>2024-09-15T12:03:29Z</time>
      </trkpt>
      <trkpt lat="45.80326" lon="1.90887">
        <ele>657.4</ele>
        <time>2024-09-15T12:03:30Z</time>
      </trkpt>
      <trkpt lat="45.8033" lon="1.90883">
        <ele>657.4</ele>
        <time>2024-09-15T12:03:31Z</time>
      </trkpt>
      <trkpt lat="45.80333" lon="1.90879">
        <ele>657.6</ele>
        <time>2024-09-15T12:03:32Z</time>
      </trkpt>
      <trkpt lat="45.80337" lon="1.90875">
        <ele>657.8</ele>
        <time>2024-09-15T12:03:33Z</time>
      </trkpt>
      <trkpt lat="45.80338" lon="1.90872">
        <ele>658</ele>
        <time>2024-09-15T12:03:34Z</time>
      </trkpt>
      <trkpt lat="45.80347" lon="1.90863">
        <ele>658</ele>
        <time>2024-09-15T12:03:39Z</time>
      </trkpt>
      <trkpt lat="45.80361" lon="1.90852">
        <ele>657.2</ele>
        <time>2024-09-15T12:03:45Z</time>
      </trkpt>
      <trkpt lat="45.80364" lon="1.90851">
        <ele>657.2</ele>
        <time>2024-09-15T12:03:46Z</time>
      </trkpt>
      <trkpt lat="45.80367" lon="1.9085">
        <ele>657</ele>
        <time>2024-09-15T12:03:47Z</time>
      </trkpt>
      <trkpt lat="45.80377" lon="1.90847">
        <ele>656.8</ele>
        <time>2024-09-15T12:03:50Z</time>
      </trkpt>
      <trkpt lat="45.8038" lon="1.90845">
        <ele>656.4</ele>
        <time>2024-09-15T12:03:51Z</time>
      </trkpt>
      <trkpt lat="45.80384" lon="1.90844">
        <ele>656.2</ele>
        <time>2024-09-15T12:03:52Z</time>
      </trkpt>
      <trkpt lat="45.80398" lon="1.90833">
        <ele>655.8</ele>
        <time>2024-09-15T12:03:55Z</time>
      </trkpt>
      <trkpt lat="45.80402" lon="1.90829">
        <ele>655.6</ele>
        <time>2024-09-15T12:03:56Z</time>
      </trkpt>
      <trkpt lat="45.80405" lon="1.90827">
        <ele>655.6</ele>
        <time>2024-09-15T12:03:57Z</time>
      </trkpt>
      <trkpt lat="45.80408" lon="1.90824">
        <ele>655.6</ele>
        <time>2024-09-15T12:03:58Z</time>
      </trkpt>
      <trkpt lat="45.80411" lon="1.90821">
        <ele>655.6</ele>
        <time>2024-09-15T12:03:59Z</time>
      </trkpt>
      <trkpt lat="45.80414" lon="1.90818">
        <ele>655.6</ele>
        <time>2024-09-15T12:04:00Z</time>
      </trkpt>
      <trkpt lat="45.80416" lon="1.90815">
        <ele>655.4</ele>
        <time>2024-09-15T12:04:01Z</time>
      </trkpt>
      <trkpt lat="45.80419" lon="1.90812">
        <ele>655.4</ele>
        <time>2024-09-15T12:04:02Z</time>
      </trkpt>
      <trkpt lat="45.80421" lon="1.9081">
        <ele>655.4</ele>
        <time>2024-09-15T12:04:03Z</time>
      </trkpt>
      <trkpt lat="45.80426" lon="1.90803">
        <ele>655.6</ele>
        <time>2024-09-15T12:04:05Z</time>
      </trkpt>
      <trkpt lat="45.80428" lon="1.908">
        <ele>655.6</ele>
        <time>2024-09-15T12:04:06Z</time>
      </trkpt>
      <trkpt lat="45.8043" lon="1.90796">
        <ele>655.6</ele>
        <time>2024-09-15T12:04:07Z</time>
      </trkpt>
      <trkpt lat="45.80433" lon="1.90792">
        <ele>655.6</ele>
        <time>2024-09-15T12:04:08Z</time>
      </trkpt>
      <trkpt lat="45.80435" lon="1.90788">
        <ele>655.6</ele>
        <time>2024-09-15T12:04:09Z</time>
      </trkpt>
      <trkpt lat="45.80437" lon="1.90785">
        <ele>655.6</ele>
        <time>2024-09-15T12:04:10Z</time>
      </trkpt>
      <trkpt lat="45.80439" lon="1.90782">
        <ele>655.6</ele>
        <time>2024-09-15T12:04:11Z</time>
      </trkpt>
      <trkpt lat="45.80441" lon="1.90779">
        <ele>655.6</ele>
        <time>2024-09-15T12:04:12Z</time>
      </trkpt>
      <trkpt lat="45.80443" lon="1.90777">
        <ele>655.6</ele>
        <time>2024-09-15T12:04:13Z</time>
      </trkpt>
      <trkpt lat="45.80443" lon="1.90775">
        <ele>655.6</ele>
        <time>2024-09-15T12:04:14Z</time>
      </trkpt>
      <trkpt lat="45.80443" lon="1.90772">
        <ele>655.6</ele>
        <time>2024-09-15T12:04:15Z</time>
      </trkpt>
      <trkpt lat="45.80443" lon="1.90769">
        <ele>655.6</ele>
        <time>2024-09-15T12:04:16Z</time>
      </trkpt>
      <trkpt lat="45.80442" lon="1.90768">
        <ele>655.6</ele>
        <time>2024-09-15T12:04:17Z</time>
      </trkpt>
      <trkpt lat="45.80441" lon="1.90766">
        <ele>655.4</ele>
        <time>2024-09-15T12:04:18Z</time>
      </trkpt>
      <trkpt lat="45.80441" lon="1.90764">
        <ele>655.4</ele>
        <time>2024-09-15T12:04:19Z</time>
      </trkpt>
      <trkpt lat="45.8044" lon="1.90762">
        <ele>655.2</ele>
        <time>2024-09-15T12:04:20Z</time>
      </trkpt>
      <trkpt lat="45.80441" lon="1.90759">
        <ele>655.2</ele>
        <time>2024-09-15T12:04:21Z</time>
      </trkpt>
      <trkpt lat="45.8044" lon="1.90757">
        <ele>655.2</ele>
        <time>2024-09-15T12:04:22Z</time>
      </trkpt>
      <trkpt lat="45.8044" lon="1.90757">
        <ele>655.2</ele>
        <time>2024-09-15T12:04:23Z</time>
      </trkpt>
      <trkpt lat="45.8044" lon="1.90756">
        <ele>655.2</ele>
        <time>2024-09-15T12:04:24Z</time>
      </trkpt>
      <trkpt lat="45.8044" lon="1.90756">
        <ele>655.2</ele>
        <time>2024-09-15T12:04:25Z</time>
      </trkpt>
      <trkpt lat="45.80441" lon="1.90755">
        <ele>655.2</ele>
        <time>2024-09-15T12:04:26Z</time>
      </trkpt>
      <trkpt lat="45.80441" lon="1.90755">
        <ele>655.2</ele>
        <time>2024-09-15T12:04:27Z</time>
      </trkpt>
      <trkpt lat="45.80441" lon="1.90753">
        <ele>655.2</ele>
        <time>2024-09-15T12:04:28Z</time>
      </trkpt>
      <trkpt lat="45.80441" lon="1.90752">
        <ele>655.2</ele>
        <time>2024-09-15T12:04:29Z</time>
      </trkpt>
      <trkpt lat="45.80441" lon="1.90752">
        <ele>655.2</ele>
        <time>2024-09-15T12:04:31Z</time>
      </trkpt>
      <trkpt lat="45.8044" lon="1.90746">
        <ele>656</ele>
        <time>2024-09-15T12:04:37Z</time>
      </trkpt>
      <trkpt lat="45.8044" lon="1.90746">
        <ele>656.2</ele>
        <time>2024-09-15T12:04:38Z</time>
      </trkpt>
      <trkpt lat="45.8044" lon="1.90746">
        <ele>656.2</ele>
        <time>2024-09-15T12:04:39Z</time>
      </trkpt>
      <trkpt lat="45.8044" lon="1.90745">
        <ele>656.4</ele>
        <time>2024-09-15T12:04:40Z</time>
      </trkpt>
      <trkpt lat="45.8044" lon="1.90745">
        <ele>656.4</ele>
        <time>2024-09-15T12:04:42Z</time>
      </trkpt>
      <trkpt lat="45.8044" lon="1.90745">
        <ele>656.4</ele>
        <time>2024-09-15T12:04:43Z</time>
      </trkpt>
      <trkpt lat="45.80441" lon="1.90737">
        <ele>656.8</ele>
        <time>2024-09-15T12:04:47Z</time>
      </trkpt>
      <trkpt lat="45.80441" lon="1.90735">
        <ele>656.8</ele>
        <time>2024-09-15T12:04:48Z</time>
      </trkpt>
      <trkpt lat="45.80441" lon="1.90733">
        <ele>656.8</ele>
        <time>2024-09-15T12:04:49Z</time>
      </trkpt>
      <trkpt lat="45.80441" lon="1.9073">
        <ele>656.8</ele>
        <time>2024-09-15T12:04:50Z</time>
      </trkpt>
      <trkpt lat="45.80441" lon="1.90725">
        <ele>656.8</ele>
        <time>2024-09-15T12:04:51Z</time>
      </trkpt>
      <trkpt lat="45.80441" lon="1.90712">
        <ele>656.8</ele>
        <time>2024-09-15T12:04:54Z</time>
      </trkpt>
      <trkpt lat="45.8044" lon="1.9071">
        <ele>656.8</ele>
        <time>2024-09-15T12:04:55Z</time>
      </trkpt>
      <trkpt lat="45.80441" lon="1.90707">
        <ele>656.8</ele>
        <time>2024-09-15T12:04:56Z</time>
      </trkpt>
      <trkpt lat="45.8044" lon="1.907">
        <ele>656.6</ele>
        <time>2024-09-15T12:04:57Z</time>
      </trkpt>
      <trkpt lat="45.80438" lon="1.90694">
        <ele>656.6</ele>
        <time>2024-09-15T12:04:58Z</time>
      </trkpt>
      <trkpt lat="45.80438" lon="1.90688">
        <ele>656.2</ele>
        <time>2024-09-15T12:04:59Z</time>
      </trkpt>
      <trkpt lat="45.80439" lon="1.90685">
        <ele>656</ele>
        <time>2024-09-15T12:05:00Z</time>
      </trkpt>
      <trkpt lat="45.80445" lon="1.90678">
        <ele>656</ele>
        <time>2024-09-15T12:05:03Z</time>
      </trkpt>
      <trkpt lat="45.80448" lon="1.90676">
        <ele>656</ele>
        <time>2024-09-15T12:05:04Z</time>
      </trkpt>
      <trkpt lat="45.80449" lon="1.90675">
        <ele>656</ele>
        <time>2024-09-15T12:05:05Z</time>
      </trkpt>
      <trkpt lat="45.80451" lon="1.90675">
        <ele>656</ele>
        <time>2024-09-15T12:05:06Z</time>
      </trkpt>
      <trkpt lat="45.80453" lon="1.90675">
        <ele>656</ele>
        <time>2024-09-15T12:05:07Z</time>
      </trkpt>
      <trkpt lat="45.80454" lon="1.90675">
        <ele>656.4</ele>
        <time>2024-09-15T12:05:08Z</time>
      </trkpt>
      <trkpt lat="45.80455" lon="1.90675">
        <ele>656.4</ele>
        <time>2024-09-15T12:05:09Z</time>
      </trkpt>
      <trkpt lat="45.80455" lon="1.90675">
        <ele>656.6</ele>
        <time>2024-09-15T12:05:10Z</time>
      </trkpt>
      <trkpt lat="45.80455" lon="1.90675">
        <ele>656.6</ele>
        <time>2024-09-15T12:05:11Z</time>
      </trkpt>
      <trkpt lat="45.80456" lon="1.90676">
        <ele>656.8</ele>
        <time>2024-09-15T12:05:12Z</time>
      </trkpt>
      <trkpt lat="45.80457" lon="1.90678">
        <ele>656.8</ele>
        <time>2024-09-15T12:05:13Z</time>
      </trkpt>
      <trkpt lat="45.80458" lon="1.90679">
        <ele>657.2</ele>
        <time>2024-09-15T12:05:15Z</time>
      </trkpt>
      <trkpt lat="45.80459" lon="1.90679">
        <ele>657.2</ele>
        <time>2024-09-15T12:05:16Z</time>
      </trkpt>
      <trkpt lat="45.8046" lon="1.90679">
        <ele>657.4</ele>
        <time>2024-09-15T12:05:17Z</time>
      </trkpt>
      <trkpt lat="45.80462" lon="1.90679">
        <ele>657.4</ele>
        <time>2024-09-15T12:05:18Z</time>
      </trkpt>
      <trkpt lat="45.80462" lon="1.9068">
        <ele>657.6</ele>
        <time>2024-09-15T12:05:19Z</time>
      </trkpt>
      <trkpt lat="45.80463" lon="1.90679">
        <ele>657.6</ele>
        <time>2024-09-15T12:05:20Z</time>
      </trkpt>
      <trkpt lat="45.80465" lon="1.90679">
        <ele>657.8</ele>
        <time>2024-09-15T12:05:21Z</time>
      </trkpt>
      <trkpt lat="45.80466" lon="1.90678">
        <ele>657.8</ele>
        <time>2024-09-15T12:05:22Z</time>
      </trkpt>
      <trkpt lat="45.80468" lon="1.90678">
        <ele>658.2</ele>
        <time>2024-09-15T12:05:24Z</time>
      </trkpt>
      <trkpt lat="45.80469" lon="1.90678">
        <ele>658.4</ele>
        <time>2024-09-15T12:05:25Z</time>
      </trkpt>
      <trkpt lat="45.80471" lon="1.90678">
        <ele>658.4</ele>
        <time>2024-09-15T12:05:26Z</time>
      </trkpt>
      <trkpt lat="45.80475" lon="1.90677">
        <ele>658.8</ele>
        <time>2024-09-15T12:05:28Z</time>
      </trkpt>
      <trkpt lat="45.80477" lon="1.90677">
        <ele>659</ele>
        <time>2024-09-15T12:05:29Z</time>
      </trkpt>
      <trkpt lat="45.80478" lon="1.90675">
        <ele>659.2</ele>
        <time>2024-09-15T12:05:30Z</time>
      </trkpt>
      <trkpt lat="45.80483" lon="1.9067">
        <ele>659.2</ele>
        <time>2024-09-15T12:05:32Z</time>
      </trkpt>
      <trkpt lat="45.80484" lon="1.90669">
        <ele>659.2</ele>
        <time>2024-09-15T12:05:33Z</time>
      </trkpt>
      <trkpt lat="45.80486" lon="1.90667">
        <ele>659.2</ele>
        <time>2024-09-15T12:05:34Z</time>
      </trkpt>
      <trkpt lat="45.80488" lon="1.90666">
        <ele>659.2</ele>
        <time>2024-09-15T12:05:35Z</time>
      </trkpt>
      <trkpt lat="45.8049" lon="1.90664">
        <ele>659.2</ele>
        <time>2024-09-15T12:05:36Z</time>
      </trkpt>
      <trkpt lat="45.8049" lon="1.90664">
        <ele>659.2</ele>
        <time>2024-09-15T12:05:37Z</time>
      </trkpt>
      <trkpt lat="45.8049" lon="1.90664">
        <ele>659</ele>
        <time>2024-09-15T12:05:38Z</time>
      </trkpt>
      <trkpt lat="45.80492" lon="1.90662">
        <ele>658.2</ele>
        <time>2024-09-15T12:05:55Z</time>
      </trkpt>
      <trkpt lat="45.80499" lon="1.90654">
        <ele>658</ele>
        <time>2024-09-15T12:05:58Z</time>
      </trkpt>
      <trkpt lat="45.80502" lon="1.90653">
        <ele>658</ele>
        <time>2024-09-15T12:05:59Z</time>
      </trkpt>
      <trkpt lat="45.80505" lon="1.9065">
        <ele>657.8</ele>
        <time>2024-09-15T12:06:00Z</time>
      </trkpt>
      <trkpt lat="45.80509" lon="1.90648">
        <ele>657.8</ele>
        <time>2024-09-15T12:06:01Z</time>
      </trkpt>
      <trkpt lat="45.80514" lon="1.90645">
        <ele>657.4</ele>
        <time>2024-09-15T12:06:03Z</time>
      </trkpt>
      <trkpt lat="45.80516" lon="1.90641">
        <ele>657.2</ele>
        <time>2024-09-15T12:06:04Z</time>
      </trkpt>
      <trkpt lat="45.80519" lon="1.90637">
        <ele>656.8</ele>
        <time>2024-09-15T12:06:05Z</time>
      </trkpt>
      <trkpt lat="45.80522" lon="1.90634">
        <ele>656.6</ele>
        <time>2024-09-15T12:06:06Z</time>
      </trkpt>
      <trkpt lat="45.80524" lon="1.90633">
        <ele>656.2</ele>
        <time>2024-09-15T12:06:07Z</time>
      </trkpt>
      <trkpt lat="45.80526" lon="1.90633">
        <ele>656.2</ele>
        <time>2024-09-15T12:06:08Z</time>
      </trkpt>
      <trkpt lat="45.80528" lon="1.90633">
        <ele>656</ele>
        <time>2024-09-15T12:06:09Z</time>
      </trkpt>
      <trkpt lat="45.80531" lon="1.90635">
        <ele>655.8</ele>
        <time>2024-09-15T12:06:10Z</time>
      </trkpt>
      <trkpt lat="45.80534" lon="1.90637">
        <ele>655.6</ele>
        <time>2024-09-15T12:06:11Z</time>
      </trkpt>
      <trkpt lat="45.8054" lon="1.90641">
        <ele>655.4</ele>
        <time>2024-09-15T12:06:13Z</time>
      </trkpt>
      <trkpt lat="45.80543" lon="1.90643">
        <ele>655.2</ele>
        <time>2024-09-15T12:06:14Z</time>
      </trkpt>
      <trkpt lat="45.80565" lon="1.9065">
        <ele>654.8</ele>
        <time>2024-09-15T12:06:20Z</time>
      </trkpt>
      <trkpt lat="45.80582" lon="1.90656">
        <ele>655</ele>
        <time>2024-09-15T12:06:26Z</time>
      </trkpt>
      <trkpt lat="45.80585" lon="1.90654">
        <ele>655.2</ele>
        <time>2024-09-15T12:06:27Z</time>
      </trkpt>
      <trkpt lat="45.80587" lon="1.90652">
        <ele>655.2</ele>
        <time>2024-09-15T12:06:28Z</time>
      </trkpt>
      <trkpt lat="45.80589" lon="1.9065">
        <ele>655.2</ele>
        <time>2024-09-15T12:06:29Z</time>
      </trkpt>
      <trkpt lat="45.80591" lon="1.90649">
        <ele>655.2</ele>
        <time>2024-09-15T12:06:30Z</time>
      </trkpt>
      <trkpt lat="45.80594" lon="1.90647">
        <ele>655.2</ele>
        <time>2024-09-15T12:06:31Z</time>
      </trkpt>
      <trkpt lat="45.80598" lon="1.90644">
        <ele>655.2</ele>
        <time>2024-09-15T12:06:32Z</time>
      </trkpt>
      <trkpt lat="45.80604" lon="1.90633">
        <ele>655.6</ele>
        <time>2024-09-15T12:06:35Z</time>
      </trkpt>
      <trkpt lat="45.80606" lon="1.90631">
        <ele>655.8</ele>
        <time>2024-09-15T12:06:36Z</time>
      </trkpt>
      <trkpt lat="45.80612" lon="1.90623">
        <ele>656.2</ele>
        <time>2024-09-15T12:06:39Z</time>
      </trkpt>
      <trkpt lat="45.80613" lon="1.9062">
        <ele>656.2</ele>
        <time>2024-09-15T12:06:40Z</time>
      </trkpt>
      <trkpt lat="45.80615" lon="1.90618">
        <ele>656.4</ele>
        <time>2024-09-15T12:06:41Z</time>
      </trkpt>
      <trkpt lat="45.80617" lon="1.90617">
        <ele>656.6</ele>
        <time>2024-09-15T12:06:42Z</time>
      </trkpt>
      <trkpt lat="45.80619" lon="1.90617">
        <ele>656.6</ele>
        <time>2024-09-15T12:06:43Z</time>
      </trkpt>
      <trkpt lat="45.80622" lon="1.90617">
        <ele>656.8</ele>
        <time>2024-09-15T12:06:44Z</time>
      </trkpt>
      <trkpt lat="45.80624" lon="1.90615">
        <ele>656.8</ele>
        <time>2024-09-15T12:06:45Z</time>
      </trkpt>
      <trkpt lat="45.80626" lon="1.90614">
        <ele>656.8</ele>
        <time>2024-09-15T12:06:46Z</time>
      </trkpt>
      <trkpt lat="45.80627" lon="1.90613">
        <ele>656.8</ele>
        <time>2024-09-15T12:06:47Z</time>
      </trkpt>
      <trkpt lat="45.80628" lon="1.90612">
        <ele>656.8</ele>
        <time>2024-09-15T12:06:48Z</time>
      </trkpt>
      <trkpt lat="45.80629" lon="1.90611">
        <ele>656.8</ele>
        <time>2024-09-15T12:06:49Z</time>
      </trkpt>
      <trkpt lat="45.80631" lon="1.90609">
        <ele>656.8</ele>
        <time>2024-09-15T12:06:50Z</time>
      </trkpt>
      <trkpt lat="45.80633" lon="1.90606">
        <ele>656.8</ele>
        <time>2024-09-15T12:06:51Z</time>
      </trkpt>
      <trkpt lat="45.80635" lon="1.90603">
        <ele>656.8</ele>
        <time>2024-09-15T12:06:52Z</time>
      </trkpt>
      <trkpt lat="45.80637" lon="1.90602">
        <ele>656.6</ele>
        <time>2024-09-15T12:06:53Z</time>
      </trkpt>
      <trkpt lat="45.80639" lon="1.90601">
        <ele>656.6</ele>
        <time>2024-09-15T12:06:54Z</time>
      </trkpt>
      <trkpt lat="45.80642" lon="1.90601">
        <ele>656.6</ele>
        <time>2024-09-15T12:06:55Z</time>
      </trkpt>
      <trkpt lat="45.80645" lon="1.90599">
        <ele>656.6</ele>
        <time>2024-09-15T12:06:56Z</time>
      </trkpt>
      <trkpt lat="45.80651" lon="1.90592">
        <ele>656.4</ele>
        <time>2024-09-15T12:06:58Z</time>
      </trkpt>
      <trkpt lat="45.80653" lon="1.90589">
        <ele>656.2</ele>
        <time>2024-09-15T12:06:59Z</time>
      </trkpt>
      <trkpt lat="45.80656" lon="1.90587">
        <ele>656.2</ele>
        <time>2024-09-15T12:07:00Z</time>
      </trkpt>
      <trkpt lat="45.80663" lon="1.9058">
        <ele>656</ele>
        <time>2024-09-15T12:07:03Z</time>
      </trkpt>
      <trkpt lat="45.80666" lon="1.90579">
        <ele>655.8</ele>
        <time>2024-09-15T12:07:04Z</time>
      </trkpt>
      <trkpt lat="45.80671" lon="1.90576">
        <ele>655.8</ele>
        <time>2024-09-15T12:07:05Z</time>
      </trkpt>
      <trkpt lat="45.80676" lon="1.90573">
        <ele>655.8</ele>
        <time>2024-09-15T12:07:06Z</time>
      </trkpt>
      <trkpt lat="45.80685" lon="1.90568">
        <ele>655.6</ele>
        <time>2024-09-15T12:07:09Z</time>
      </trkpt>
      <trkpt lat="45.8069" lon="1.90565">
        <ele>655.6</ele>
        <time>2024-09-15T12:07:11Z</time>
      </trkpt>
      <trkpt lat="45.80699" lon="1.90563">
        <ele>655.4</ele>
        <time>2024-09-15T12:07:15Z</time>
      </trkpt>
      <trkpt lat="45.80702" lon="1.90562">
        <ele>655.6</ele>
        <time>2024-09-15T12:07:16Z</time>
      </trkpt>
      <trkpt lat="45.80706" lon="1.90559">
        <ele>655.6</ele>
        <time>2024-09-15T12:07:17Z</time>
      </trkpt>
      <trkpt lat="45.80707" lon="1.90556">
        <ele>655.6</ele>
        <time>2024-09-15T12:07:18Z</time>
      </trkpt>
      <trkpt lat="45.8071" lon="1.90556">
        <ele>655.6</ele>
        <time>2024-09-15T12:07:19Z</time>
      </trkpt>
      <trkpt lat="45.80711" lon="1.90557">
        <ele>655.6</ele>
        <time>2024-09-15T12:07:20Z</time>
      </trkpt>
      <trkpt lat="45.80712" lon="1.90557">
        <ele>655.8</ele>
        <time>2024-09-15T12:07:21Z</time>
      </trkpt>
      <trkpt lat="45.80716" lon="1.90558">
        <ele>655.8</ele>
        <time>2024-09-15T12:07:22Z</time>
      </trkpt>
      <trkpt lat="45.80719" lon="1.90558">
        <ele>655.8</ele>
        <time>2024-09-15T12:07:23Z</time>
      </trkpt>
      <trkpt lat="45.80721" lon="1.90558">
        <ele>656</ele>
        <time>2024-09-15T12:07:24Z</time>
      </trkpt>
      <trkpt lat="45.8073" lon="1.9056">
        <ele>656.4</ele>
        <time>2024-09-15T12:07:28Z</time>
      </trkpt>
      <trkpt lat="45.80735" lon="1.90559">
        <ele>656.8</ele>
        <time>2024-09-15T12:07:30Z</time>
      </trkpt>
      <trkpt lat="45.80737" lon="1.9056">
        <ele>657</ele>
        <time>2024-09-15T12:07:31Z</time>
      </trkpt>
      <trkpt lat="45.80738" lon="1.9056">
        <ele>657.6</ele>
        <time>2024-09-15T12:07:32Z</time>
      </trkpt>
      <trkpt lat="45.8074" lon="1.90561">
        <ele>657.8</ele>
        <time>2024-09-15T12:07:33Z</time>
      </trkpt>
      <trkpt lat="45.80742" lon="1.90563">
        <ele>658.2</ele>
        <time>2024-09-15T12:07:34Z</time>
      </trkpt>
      <trkpt lat="45.80744" lon="1.90563">
        <ele>658.4</ele>
        <time>2024-09-15T12:07:35Z</time>
      </trkpt>
      <trkpt lat="45.80746" lon="1.90563">
        <ele>658.8</ele>
        <time>2024-09-15T12:07:36Z</time>
      </trkpt>
      <trkpt lat="45.80749" lon="1.90562">
        <ele>659.2</ele>
        <time>2024-09-15T12:07:37Z</time>
      </trkpt>
      <trkpt lat="45.80753" lon="1.90562">
        <ele>659.6</ele>
        <time>2024-09-15T12:07:38Z</time>
      </trkpt>
      <trkpt lat="45.80756" lon="1.9056">
        <ele>660.2</ele>
        <time>2024-09-15T12:07:39Z</time>
      </trkpt>
      <trkpt lat="45.80758" lon="1.90559">
        <ele>660.4</ele>
        <time>2024-09-15T12:07:40Z</time>
      </trkpt>
      <trkpt lat="45.8076" lon="1.90556">
        <ele>660.8</ele>
        <time>2024-09-15T12:07:41Z</time>
      </trkpt>
      <trkpt lat="45.80761" lon="1.90554">
        <ele>661</ele>
        <time>2024-09-15T12:07:42Z</time>
      </trkpt>
      <trkpt lat="45.80764" lon="1.9055">
        <ele>661.2</ele>
        <time>2024-09-15T12:07:43Z</time>
      </trkpt>
      <trkpt lat="45.80768" lon="1.90546">
        <ele>661.2</ele>
        <time>2024-09-15T12:07:44Z</time>
      </trkpt>
      <trkpt lat="45.80771" lon="1.90542">
        <ele>661</ele>
        <time>2024-09-15T12:07:45Z</time>
      </trkpt>
      <trkpt lat="45.80772" lon="1.9054">
        <ele>661</ele>
        <time>2024-09-15T12:07:46Z</time>
      </trkpt>
      <trkpt lat="45.80772" lon="1.90537">
        <ele>661</ele>
        <time>2024-09-15T12:07:47Z</time>
      </trkpt>
      <trkpt lat="45.80773" lon="1.90534">
        <ele>660.8</ele>
        <time>2024-09-15T12:07:48Z</time>
      </trkpt>
      <trkpt lat="45.80775" lon="1.9053">
        <ele>660.8</ele>
        <time>2024-09-15T12:07:49Z</time>
      </trkpt>
      <trkpt lat="45.80777" lon="1.90525">
        <ele>660.4</ele>
        <time>2024-09-15T12:07:50Z</time>
      </trkpt>
      <trkpt lat="45.8078" lon="1.90521">
        <ele>660.4</ele>
        <time>2024-09-15T12:07:51Z</time>
      </trkpt>
      <trkpt lat="45.80783" lon="1.90515">
        <ele>659.8</ele>
        <time>2024-09-15T12:07:52Z</time>
      </trkpt>
      <trkpt lat="45.80786" lon="1.90511">
        <ele>659.6</ele>
        <time>2024-09-15T12:07:53Z</time>
      </trkpt>
      <trkpt lat="45.8079" lon="1.90508">
        <ele>659.4</ele>
        <time>2024-09-15T12:07:54Z</time>
      </trkpt>
      <trkpt lat="45.80795" lon="1.90507">
        <ele>659.2</ele>
        <time>2024-09-15T12:07:55Z</time>
      </trkpt>
      <trkpt lat="45.80799" lon="1.90504">
        <ele>659</ele>
        <time>2024-09-15T12:07:56Z</time>
      </trkpt>
      <trkpt lat="45.80803" lon="1.90502">
        <ele>658.8</ele>
        <time>2024-09-15T12:07:57Z</time>
      </trkpt>
      <trkpt lat="45.80807" lon="1.90499">
        <ele>658.2</ele>
        <time>2024-09-15T12:07:58Z</time>
      </trkpt>
      <trkpt lat="45.80811" lon="1.90497">
        <ele>657.8</ele>
        <time>2024-09-15T12:07:59Z</time>
      </trkpt>
      <trkpt lat="45.80815" lon="1.90495">
        <ele>657.4</ele>
        <time>2024-09-15T12:08:00Z</time>
      </trkpt>
      <trkpt lat="45.80833" lon="1.90489">
        <ele>656.8</ele>
        <time>2024-09-15T12:08:04Z</time>
      </trkpt>
      <trkpt lat="45.80845" lon="1.90485">
        <ele>656.6</ele>
        <time>2024-09-15T12:08:07Z</time>
      </trkpt>
      <trkpt lat="45.80848" lon="1.90484">
        <ele>656.6</ele>
        <time>2024-09-15T12:08:08Z</time>
      </trkpt>
      <trkpt lat="45.80851" lon="1.90483">
        <ele>656.2</ele>
        <time>2024-09-15T12:08:09Z</time>
      </trkpt>
      <trkpt lat="45.80861" lon="1.9048">
        <ele>656</ele>
        <time>2024-09-15T12:08:12Z</time>
      </trkpt>
      <trkpt lat="45.80865" lon="1.90478">
        <ele>655.8</ele>
        <time>2024-09-15T12:08:13Z</time>
      </trkpt>
      <trkpt lat="45.80868" lon="1.90476">
        <ele>655.8</ele>
        <time>2024-09-15T12:08:14Z</time>
      </trkpt>
      <trkpt lat="45.80875" lon="1.90469">
        <ele>655.8</ele>
        <time>2024-09-15T12:08:16Z</time>
      </trkpt>
      <trkpt lat="45.80877" lon="1.90467">
        <ele>655.8</ele>
        <time>2024-09-15T12:08:17Z</time>
      </trkpt>
      <trkpt lat="45.80879" lon="1.90465">
        <ele>655.8</ele>
        <time>2024-09-15T12:08:18Z</time>
      </trkpt>
      <trkpt lat="45.80882" lon="1.90463">
        <ele>655.8</ele>
        <time>2024-09-15T12:08:19Z</time>
      </trkpt>
      <trkpt lat="45.80885" lon="1.90459">
        <ele>656</ele>
        <time>2024-09-15T12:08:20Z</time>
      </trkpt>
      <trkpt lat="45.80888" lon="1.90455">
        <ele>656</ele>
        <time>2024-09-15T12:08:21Z</time>
      </trkpt>
      <trkpt lat="45.80892" lon="1.90451">
        <ele>656</ele>
        <time>2024-09-15T12:08:22Z</time>
      </trkpt>
      <trkpt lat="45.80895" lon="1.90448">
        <ele>656.2</ele>
        <time>2024-09-15T12:08:23Z</time>
      </trkpt>
      <trkpt lat="45.80905" lon="1.90436">
        <ele>656.4</ele>
        <time>2024-09-15T12:08:26Z</time>
      </trkpt>
      <trkpt lat="45.80934" lon="1.90402">
        <ele>656</ele>
        <time>2024-09-15T12:08:34Z</time>
      </trkpt>
      <trkpt lat="45.80936" lon="1.904">
        <ele>655.8</ele>
        <time>2024-09-15T12:08:35Z</time>
      </trkpt>
      <trkpt lat="45.80953" lon="1.90391">
        <ele>655</ele>
        <time>2024-09-15T12:08:39Z</time>
      </trkpt>
      <trkpt lat="45.80956" lon="1.9039">
        <ele>655</ele>
        <time>2024-09-15T12:08:40Z</time>
      </trkpt>
      <trkpt lat="45.80959" lon="1.90389">
        <ele>655</ele>
        <time>2024-09-15T12:08:41Z</time>
      </trkpt>
      <trkpt lat="45.80963" lon="1.90388">
        <ele>655</ele>
        <time>2024-09-15T12:08:42Z</time>
      </trkpt>
      <trkpt lat="45.80973" lon="1.90387">
        <ele>655</ele>
        <time>2024-09-15T12:08:45Z</time>
      </trkpt>
      <trkpt lat="45.80977" lon="1.90388">
        <ele>655</ele>
        <time>2024-09-15T12:08:46Z</time>
      </trkpt>
      <trkpt lat="45.8098" lon="1.90389">
        <ele>655</ele>
        <time>2024-09-15T12:08:47Z</time>
      </trkpt>
      <trkpt lat="45.80984" lon="1.9039">
        <ele>655</ele>
        <time>2024-09-15T12:08:48Z</time>
      </trkpt>
      <trkpt lat="45.80988" lon="1.90392">
        <ele>655</ele>
        <time>2024-09-15T12:08:49Z</time>
      </trkpt>
      <trkpt lat="45.80997" lon="1.90399">
        <ele>655</ele>
        <time>2024-09-15T12:08:52Z</time>
      </trkpt>
      <trkpt lat="45.81" lon="1.90402">
        <ele>654.8</ele>
        <time>2024-09-15T12:08:53Z</time>
      </trkpt>
      <trkpt lat="45.81014" lon="1.90413">
        <ele>654.8</ele>
        <time>2024-09-15T12:08:58Z</time>
      </trkpt>
      <trkpt lat="45.81017" lon="1.90415">
        <ele>654.8</ele>
        <time>2024-09-15T12:08:59Z</time>
      </trkpt>
      <trkpt lat="45.81023" lon="1.90419">
        <ele>655</ele>
        <time>2024-09-15T12:09:01Z</time>
      </trkpt>
      <trkpt lat="45.81026" lon="1.90422">
        <ele>655.2</ele>
        <time>2024-09-15T12:09:02Z</time>
      </trkpt>
      <trkpt lat="45.81028" lon="1.90425">
        <ele>655.4</ele>
        <time>2024-09-15T12:09:03Z</time>
      </trkpt>
      <trkpt lat="45.8104" lon="1.90435">
        <ele>655.8</ele>
        <time>2024-09-15T12:09:07Z</time>
      </trkpt>
      <trkpt lat="45.81043" lon="1.90437">
        <ele>655.8</ele>
        <time>2024-09-15T12:09:08Z</time>
      </trkpt>
      <trkpt lat="45.81046" lon="1.90439">
        <ele>655.8</ele>
        <time>2024-09-15T12:09:09Z</time>
      </trkpt>
      <trkpt lat="45.81049" lon="1.90442">
        <ele>655.8</ele>
        <time>2024-09-15T12:09:10Z</time>
      </trkpt>
      <trkpt lat="45.81062" lon="1.9045">
        <ele>656.2</ele>
        <time>2024-09-15T12:09:14Z</time>
      </trkpt>
      <trkpt lat="45.81067" lon="1.90455">
        <ele>656.2</ele>
        <time>2024-09-15T12:09:16Z</time>
      </trkpt>
      <trkpt lat="45.81069" lon="1.90458">
        <ele>656.4</ele>
        <time>2024-09-15T12:09:17Z</time>
      </trkpt>
      <trkpt lat="45.81072" lon="1.90461">
        <ele>656.4</ele>
        <time>2024-09-15T12:09:18Z</time>
      </trkpt>
      <trkpt lat="45.81074" lon="1.90465">
        <ele>656.4</ele>
        <time>2024-09-15T12:09:19Z</time>
      </trkpt>
      <trkpt lat="45.81085" lon="1.90483">
        <ele>656.4</ele>
        <time>2024-09-15T12:09:23Z</time>
      </trkpt>
      <trkpt lat="45.81089" lon="1.90485">
        <ele>656.4</ele>
        <time>2024-09-15T12:09:24Z</time>
      </trkpt>
      <trkpt lat="45.81092" lon="1.90487">
        <ele>656.4</ele>
        <time>2024-09-15T12:09:25Z</time>
      </trkpt>
      <trkpt lat="45.81095" lon="1.90488">
        <ele>656.2</ele>
        <time>2024-09-15T12:09:26Z</time>
      </trkpt>
      <trkpt lat="45.81097" lon="1.90488">
        <ele>656</ele>
        <time>2024-09-15T12:09:27Z</time>
      </trkpt>
      <trkpt lat="45.811" lon="1.90489">
        <ele>655.8</ele>
        <time>2024-09-15T12:09:28Z</time>
      </trkpt>
      <trkpt lat="45.81103" lon="1.90489">
        <ele>655.8</ele>
        <time>2024-09-15T12:09:29Z</time>
      </trkpt>
      <trkpt lat="45.81123" lon="1.90489">
        <ele>655.4</ele>
        <time>2024-09-15T12:09:34Z</time>
      </trkpt>
      <trkpt lat="45.81125" lon="1.90489">
        <ele>655.4</ele>
        <time>2024-09-15T12:09:35Z</time>
      </trkpt>
      <trkpt lat="45.81127" lon="1.9049">
        <ele>655.4</ele>
        <time>2024-09-15T12:09:36Z</time>
      </trkpt>
      <trkpt lat="45.81128" lon="1.9049">
        <ele>655.4</ele>
        <time>2024-09-15T12:09:37Z</time>
      </trkpt>
      <trkpt lat="45.81132" lon="1.9049">
        <ele>655.4</ele>
        <time>2024-09-15T12:09:38Z</time>
      </trkpt>
      <trkpt lat="45.81135" lon="1.90491">
        <ele>655.4</ele>
        <time>2024-09-15T12:09:39Z</time>
      </trkpt>
      <trkpt lat="45.81158" lon="1.90503">
        <ele>655.4</ele>
        <time>2024-09-15T12:09:46Z</time>
      </trkpt>
      <trkpt lat="45.81183" lon="1.90514">
        <ele>656</ele>
        <time>2024-09-15T12:09:53Z</time>
      </trkpt>
      <trkpt lat="45.81209" lon="1.90523">
        <ele>656.2</ele>
        <time>2024-09-15T12:10:00Z</time>
      </trkpt>
      <trkpt lat="45.8123" lon="1.90537">
        <ele>655.8</ele>
        <time>2024-09-15T12:10:06Z</time>
      </trkpt>
      <trkpt lat="45.81233" lon="1.90539">
        <ele>655.8</ele>
        <time>2024-09-15T12:10:07Z</time>
      </trkpt>
      <trkpt lat="45.81236" lon="1.90542">
        <ele>655.8</ele>
        <time>2024-09-15T12:10:08Z</time>
      </trkpt>
      <trkpt lat="45.81247" lon="1.90552">
        <ele>655.4</ele>
        <time>2024-09-15T12:10:12Z</time>
      </trkpt>
      <trkpt lat="45.81249" lon="1.90554">
        <ele>655.4</ele>
        <time>2024-09-15T12:10:13Z</time>
      </trkpt>
      <trkpt lat="45.81251" lon="1.90556">
        <ele>655.4</ele>
        <time>2024-09-15T12:10:14Z</time>
      </trkpt>
      <trkpt lat="45.81253" lon="1.90558">
        <ele>655.6</ele>
        <time>2024-09-15T12:10:15Z</time>
      </trkpt>
      <trkpt lat="45.81254" lon="1.9056">
        <ele>655.6</ele>
        <time>2024-09-15T12:10:16Z</time>
      </trkpt>
      <trkpt lat="45.81256" lon="1.90563">
        <ele>655.8</ele>
        <time>2024-09-15T12:10:17Z</time>
      </trkpt>
      <trkpt lat="45.81258" lon="1.90565">
        <ele>656</ele>
        <time>2024-09-15T12:10:18Z</time>
      </trkpt>
      <trkpt lat="45.81262" lon="1.9057">
        <ele>656.2</ele>
        <time>2024-09-15T12:10:20Z</time>
      </trkpt>
      <trkpt lat="45.81264" lon="1.90573">
        <ele>656.2</ele>
        <time>2024-09-15T12:10:21Z</time>
      </trkpt>
      <trkpt lat="45.81267" lon="1.90576">
        <ele>656.2</ele>
        <time>2024-09-15T12:10:22Z</time>
      </trkpt>
      <trkpt lat="45.81269" lon="1.90579">
        <ele>656.2</ele>
        <time>2024-09-15T12:10:23Z</time>
      </trkpt>
      <trkpt lat="45.81272" lon="1.90582">
        <ele>656.4</ele>
        <time>2024-09-15T12:10:24Z</time>
      </trkpt>
      <trkpt lat="45.81275" lon="1.90584">
        <ele>656.4</ele>
        <time>2024-09-15T12:10:25Z</time>
      </trkpt>
      <trkpt lat="45.81291" lon="1.90593">
        <ele>656.4</ele>
        <time>2024-09-15T12:10:29Z</time>
      </trkpt>
      <trkpt lat="45.81323" lon="1.9061">
        <ele>656.2</ele>
        <time>2024-09-15T12:10:36Z</time>
      </trkpt>
      <trkpt lat="45.81332" lon="1.90614">
        <ele>656.4</ele>
        <time>2024-09-15T12:10:38Z</time>
      </trkpt>
      <trkpt lat="45.81336" lon="1.90615">
        <ele>656.4</ele>
        <time>2024-09-15T12:10:39Z</time>
      </trkpt>
      <trkpt lat="45.8134" lon="1.90618">
        <ele>656.4</ele>
        <time>2024-09-15T12:10:40Z</time>
      </trkpt>
      <trkpt lat="45.81345" lon="1.90621">
        <ele>656.4</ele>
        <time>2024-09-15T12:10:41Z</time>
      </trkpt>
      <trkpt lat="45.81349" lon="1.90625">
        <ele>656.4</ele>
        <time>2024-09-15T12:10:42Z</time>
      </trkpt>
      <trkpt lat="45.81353" lon="1.90627">
        <ele>656.4</ele>
        <time>2024-09-15T12:10:43Z</time>
      </trkpt>
      <trkpt lat="45.81356" lon="1.9063">
        <ele>656.4</ele>
        <time>2024-09-15T12:10:44Z</time>
      </trkpt>
      <trkpt lat="45.81366" lon="1.90641">
        <ele>656.4</ele>
        <time>2024-09-15T12:10:47Z</time>
      </trkpt>
      <trkpt lat="45.81377" lon="1.90651">
        <ele>656.4</ele>
        <time>2024-09-15T12:10:50Z</time>
      </trkpt>
      <trkpt lat="45.8138" lon="1.90653">
        <ele>656.4</ele>
        <time>2024-09-15T12:10:51Z</time>
      </trkpt>
      <trkpt lat="45.81383" lon="1.90656">
        <ele>656.2</ele>
        <time>2024-09-15T12:10:52Z</time>
      </trkpt>
      <trkpt lat="45.81386" lon="1.90659">
        <ele>656.2</ele>
        <time>2024-09-15T12:10:53Z</time>
      </trkpt>
      <trkpt lat="45.81395" lon="1.9067">
        <ele>655.8</ele>
        <time>2024-09-15T12:10:56Z</time>
      </trkpt>
      <trkpt lat="45.81397" lon="1.90674">
        <ele>655.8</ele>
        <time>2024-09-15T12:10:57Z</time>
      </trkpt>
      <trkpt lat="45.814" lon="1.90678">
        <ele>655.8</ele>
        <time>2024-09-15T12:10:58Z</time>
      </trkpt>
      <trkpt lat="45.81404" lon="1.90683">
        <ele>655.6</ele>
        <time>2024-09-15T12:10:59Z</time>
      </trkpt>
      <trkpt lat="45.81408" lon="1.90688">
        <ele>655.6</ele>
        <time>2024-09-15T12:11:00Z</time>
      </trkpt>
      <trkpt lat="45.81412" lon="1.90692">
        <ele>655.4</ele>
        <time>2024-09-15T12:11:01Z</time>
      </trkpt>
      <trkpt lat="45.81427" lon="1.907">
        <ele>655.2</ele>
        <time>2024-09-15T12:11:04Z</time>
      </trkpt>
      <trkpt lat="45.81431" lon="1.90701">
        <ele>655.2</ele>
        <time>2024-09-15T12:11:05Z</time>
      </trkpt>
      <trkpt lat="45.81434" lon="1.90701">
        <ele>655</ele>
        <time>2024-09-15T12:11:06Z</time>
      </trkpt>
      <trkpt lat="45.81437" lon="1.90701">
        <ele>655</ele>
        <time>2024-09-15T12:11:07Z</time>
      </trkpt>
      <trkpt lat="45.81441" lon="1.907">
        <ele>655</ele>
        <time>2024-09-15T12:11:08Z</time>
      </trkpt>
      <trkpt lat="45.81445" lon="1.90701">
        <ele>655</ele>
        <time>2024-09-15T12:11:09Z</time>
      </trkpt>
      <trkpt lat="45.8145" lon="1.90703">
        <ele>655.2</ele>
        <time>2024-09-15T12:11:10Z</time>
      </trkpt>
      <trkpt lat="45.81466" lon="1.90711">
        <ele>655.4</ele>
        <time>2024-09-15T12:11:15Z</time>
      </trkpt>
      <trkpt lat="45.8147" lon="1.90712">
        <ele>655.4</ele>
        <time>2024-09-15T12:11:16Z</time>
      </trkpt>
      <trkpt lat="45.81476" lon="1.90712">
        <ele>655.4</ele>
        <time>2024-09-15T12:11:17Z</time>
      </trkpt>
      <trkpt lat="45.8149" lon="1.90719">
        <ele>655.6</ele>
        <time>2024-09-15T12:11:21Z</time>
      </trkpt>
      <trkpt lat="45.81509" lon="1.90729">
        <ele>655.4</ele>
        <time>2024-09-15T12:11:26Z</time>
      </trkpt>
      <trkpt lat="45.81517" lon="1.90728">
        <ele>655.4</ele>
        <time>2024-09-15T12:11:28Z</time>
      </trkpt>
      <trkpt lat="45.81522" lon="1.90727">
        <ele>655.4</ele>
        <time>2024-09-15T12:11:29Z</time>
      </trkpt>
      <trkpt lat="45.81526" lon="1.90725">
        <ele>655.6</ele>
        <time>2024-09-15T12:11:30Z</time>
      </trkpt>
      <trkpt lat="45.81529" lon="1.90725">
        <ele>655.6</ele>
        <time>2024-09-15T12:11:31Z</time>
      </trkpt>
      <trkpt lat="45.81532" lon="1.90723">
        <ele>655.6</ele>
        <time>2024-09-15T12:11:32Z</time>
      </trkpt>
      <trkpt lat="45.81534" lon="1.90721">
        <ele>655.6</ele>
        <time>2024-09-15T12:11:33Z</time>
      </trkpt>
      <trkpt lat="45.81539" lon="1.90721">
        <ele>656</ele>
        <time>2024-09-15T12:11:35Z</time>
      </trkpt>
      <trkpt lat="45.81542" lon="1.9072">
        <ele>656.2</ele>
        <time>2024-09-15T12:11:36Z</time>
      </trkpt>
      <trkpt lat="45.81544" lon="1.90718">
        <ele>656.2</ele>
        <time>2024-09-15T12:11:37Z</time>
      </trkpt>
      <trkpt lat="45.81546" lon="1.90717">
        <ele>656.4</ele>
        <time>2024-09-15T12:11:38Z</time>
      </trkpt>
      <trkpt lat="45.81548" lon="1.90715">
        <ele>656.4</ele>
        <time>2024-09-15T12:11:39Z</time>
      </trkpt>
      <trkpt lat="45.8155" lon="1.90714">
        <ele>656.6</ele>
        <time>2024-09-15T12:11:40Z</time>
      </trkpt>
      <trkpt lat="45.81552" lon="1.90713">
        <ele>656.6</ele>
        <time>2024-09-15T12:11:41Z</time>
      </trkpt>
      <trkpt lat="45.81553" lon="1.90712">
        <ele>656.6</ele>
        <time>2024-09-15T12:11:42Z</time>
      </trkpt>
      <trkpt lat="45.81554" lon="1.9071">
        <ele>656.6</ele>
        <time>2024-09-15T12:11:43Z</time>
      </trkpt>
      <trkpt lat="45.81554" lon="1.90708">
        <ele>656.6</ele>
        <time>2024-09-15T12:11:44Z</time>
      </trkpt>
      <trkpt lat="45.81554" lon="1.90706">
        <ele>656.8</ele>
        <time>2024-09-15T12:11:45Z</time>
      </trkpt>
      <trkpt lat="45.81552" lon="1.90691">
        <ele>656.8</ele>
        <time>2024-09-15T12:11:50Z</time>
      </trkpt>
      <trkpt lat="45.8155" lon="1.90669">
        <ele>656.6</ele>
        <time>2024-09-15T12:11:55Z</time>
      </trkpt>
      <trkpt lat="45.81549" lon="1.9066">
        <ele>656.6</ele>
        <time>2024-09-15T12:11:57Z</time>
      </trkpt>
      <trkpt lat="45.81543" lon="1.90625">
        <ele>656.6</ele>
        <time>2024-09-15T12:12:04Z</time>
      </trkpt>
      <trkpt lat="45.81543" lon="1.90607">
        <ele>657.2</ele>
        <time>2024-09-15T12:12:08Z</time>
      </trkpt>
      <trkpt lat="45.81543" lon="1.90603">
        <ele>657.4</ele>
        <time>2024-09-15T12:12:09Z</time>
      </trkpt>
      <trkpt lat="45.81543" lon="1.90598">
        <ele>657.6</ele>
        <time>2024-09-15T12:12:10Z</time>
      </trkpt>
      <trkpt lat="45.81544" lon="1.90594">
        <ele>657.6</ele>
        <time>2024-09-15T12:12:11Z</time>
      </trkpt>
      <trkpt lat="45.81544" lon="1.90589">
        <ele>657.8</ele>
        <time>2024-09-15T12:12:12Z</time>
      </trkpt>
      <trkpt lat="45.81544" lon="1.90585">
        <ele>657.8</ele>
        <time>2024-09-15T12:12:13Z</time>
      </trkpt>
      <trkpt lat="45.81544" lon="1.9058">
        <ele>658.2</ele>
        <time>2024-09-15T12:12:14Z</time>
      </trkpt>
      <trkpt lat="45.81545" lon="1.90576">
        <ele>658.4</ele>
        <time>2024-09-15T12:12:15Z</time>
      </trkpt>
      <trkpt lat="45.81551" lon="1.90559">
        <ele>659.2</ele>
        <time>2024-09-15T12:12:20Z</time>
      </trkpt>
      <trkpt lat="45.81552" lon="1.90557">
        <ele>659.2</ele>
        <time>2024-09-15T12:12:21Z</time>
      </trkpt>
      <trkpt lat="45.81553" lon="1.90554">
        <ele>659.4</ele>
        <time>2024-09-15T12:12:22Z</time>
      </trkpt>
      <trkpt lat="45.81553" lon="1.90552">
        <ele>659.6</ele>
        <time>2024-09-15T12:12:23Z</time>
      </trkpt>
      <trkpt lat="45.81552" lon="1.9055">
        <ele>659.8</ele>
        <time>2024-09-15T12:12:24Z</time>
      </trkpt>
      <trkpt lat="45.81552" lon="1.90549">
        <ele>659.8</ele>
        <time>2024-09-15T12:12:25Z</time>
      </trkpt>
      <trkpt lat="45.81551" lon="1.90547">
        <ele>659.8</ele>
        <time>2024-09-15T12:12:26Z</time>
      </trkpt>
      <trkpt lat="45.81549" lon="1.90545">
        <ele>659.8</ele>
        <time>2024-09-15T12:12:27Z</time>
      </trkpt>
      <trkpt lat="45.81547" lon="1.90542">
        <ele>659.8</ele>
        <time>2024-09-15T12:12:28Z</time>
      </trkpt>
      <trkpt lat="45.81545" lon="1.9054">
        <ele>659.8</ele>
        <time>2024-09-15T12:12:29Z</time>
      </trkpt>
      <trkpt lat="45.81544" lon="1.90539">
        <ele>659.8</ele>
        <time>2024-09-15T12:12:30Z</time>
      </trkpt>
      <trkpt lat="45.81543" lon="1.90539">
        <ele>659.8</ele>
        <time>2024-09-15T12:12:31Z</time>
      </trkpt>
      <trkpt lat="45.81541" lon="1.9054">
        <ele>659.8</ele>
        <time>2024-09-15T12:12:32Z</time>
      </trkpt>
      <trkpt lat="45.8154" lon="1.90539">
        <ele>659.6</ele>
        <time>2024-09-15T12:12:33Z</time>
      </trkpt>
      <trkpt lat="45.81539" lon="1.90538">
        <ele>659.2</ele>
        <time>2024-09-15T12:12:34Z</time>
      </trkpt>
      <trkpt lat="45.81537" lon="1.90533">
        <ele>659</ele>
        <time>2024-09-15T12:12:35Z</time>
      </trkpt>
      <trkpt lat="45.81535" lon="1.90528">
        <ele>658.6</ele>
        <time>2024-09-15T12:12:36Z</time>
      </trkpt>
      <trkpt lat="45.81534" lon="1.90522">
        <ele>658.4</ele>
        <time>2024-09-15T12:12:37Z</time>
      </trkpt>
      <trkpt lat="45.81533" lon="1.90513">
        <ele>658.2</ele>
        <time>2024-09-15T12:12:38Z</time>
      </trkpt>
      <trkpt lat="45.81531" lon="1.90505">
        <ele>657.8</ele>
        <time>2024-09-15T12:12:39Z</time>
      </trkpt>
      <trkpt lat="45.81527" lon="1.90495">
        <ele>657.2</ele>
        <time>2024-09-15T12:12:41Z</time>
      </trkpt>
      <trkpt lat="45.81526" lon="1.9049">
        <ele>657.2</ele>
        <time>2024-09-15T12:12:42Z</time>
      </trkpt>
      <trkpt lat="45.81524" lon="1.90486">
        <ele>657</ele>
        <time>2024-09-15T12:12:43Z</time>
      </trkpt>
      <trkpt lat="45.81523" lon="1.90481">
        <ele>657</ele>
        <time>2024-09-15T12:12:44Z</time>
      </trkpt>
      <trkpt lat="45.81522" lon="1.90479">
        <ele>656.8</ele>
        <time>2024-09-15T12:12:45Z</time>
      </trkpt>
      <trkpt lat="45.81522" lon="1.90476">
        <ele>656.6</ele>
        <time>2024-09-15T12:12:46Z</time>
      </trkpt>
      <trkpt lat="45.81522" lon="1.90472">
        <ele>656.6</ele>
        <time>2024-09-15T12:12:47Z</time>
      </trkpt>
      <trkpt lat="45.8152" lon="1.90465">
        <ele>656.6</ele>
        <time>2024-09-15T12:12:48Z</time>
      </trkpt>
      <trkpt lat="45.81518" lon="1.90458">
        <ele>656.6</ele>
        <time>2024-09-15T12:12:49Z</time>
      </trkpt>
      <trkpt lat="45.81514" lon="1.9043">
        <ele>656.4</ele>
        <time>2024-09-15T12:12:53Z</time>
      </trkpt>
      <trkpt lat="45.81507" lon="1.904">
        <ele>655.8</ele>
        <time>2024-09-15T12:12:58Z</time>
      </trkpt>
      <trkpt lat="45.81509" lon="1.90395">
        <ele>655.6</ele>
        <time>2024-09-15T12:12:59Z</time>
      </trkpt>
      <trkpt lat="45.8151" lon="1.90388">
        <ele>655.2</ele>
        <time>2024-09-15T12:13:00Z</time>
      </trkpt>
      <trkpt lat="45.81509" lon="1.90382">
        <ele>655</ele>
        <time>2024-09-15T12:13:01Z</time>
      </trkpt>
      <trkpt lat="45.81509" lon="1.90369">
        <ele>655</ele>
        <time>2024-09-15T12:13:03Z</time>
      </trkpt>
      <trkpt lat="45.81508" lon="1.90365">
        <ele>655</ele>
        <time>2024-09-15T12:13:04Z</time>
      </trkpt>
      <trkpt lat="45.81505" lon="1.90361">
        <ele>654.8</ele>
        <time>2024-09-15T12:13:05Z</time>
      </trkpt>
      <trkpt lat="45.81503" lon="1.90358">
        <ele>654.8</ele>
        <time>2024-09-15T12:13:06Z</time>
      </trkpt>
      <trkpt lat="45.81502" lon="1.90352">
        <ele>654.6</ele>
        <time>2024-09-15T12:13:07Z</time>
      </trkpt>
      <trkpt lat="45.815" lon="1.90347">
        <ele>654.6</ele>
        <time>2024-09-15T12:13:08Z</time>
      </trkpt>
      <trkpt lat="45.81497" lon="1.9034">
        <ele>654.6</ele>
        <time>2024-09-15T12:13:09Z</time>
      </trkpt>
      <trkpt lat="45.81493" lon="1.90333">
        <ele>654.8</ele>
        <time>2024-09-15T12:13:10Z</time>
      </trkpt>
      <trkpt lat="45.81488" lon="1.90328">
        <ele>654.6</ele>
        <time>2024-09-15T12:13:12Z</time>
      </trkpt>
      <trkpt lat="45.81486" lon="1.90327">
        <ele>654.6</ele>
        <time>2024-09-15T12:13:13Z</time>
      </trkpt>
      <trkpt lat="45.81485" lon="1.90326">
        <ele>654.6</ele>
        <time>2024-09-15T12:13:14Z</time>
      </trkpt>
      <trkpt lat="45.81482" lon="1.90323">
        <ele>654.6</ele>
        <time>2024-09-15T12:13:15Z</time>
      </trkpt>
      <trkpt lat="45.8148" lon="1.90321">
        <ele>654.4</ele>
        <time>2024-09-15T12:13:16Z</time>
      </trkpt>
      <trkpt lat="45.81477" lon="1.90319">
        <ele>654.4</ele>
        <time>2024-09-15T12:13:17Z</time>
      </trkpt>
      <trkpt lat="45.81475" lon="1.90317">
        <ele>654.2</ele>
        <time>2024-09-15T12:13:18Z</time>
      </trkpt>
      <trkpt lat="45.81472" lon="1.90314">
        <ele>654.2</ele>
        <time>2024-09-15T12:13:19Z</time>
      </trkpt>
      <trkpt lat="45.8147" lon="1.90312">
        <ele>654.2</ele>
        <time>2024-09-15T12:13:20Z</time>
      </trkpt>
      <trkpt lat="45.81467" lon="1.9031">
        <ele>654</ele>
        <time>2024-09-15T12:13:21Z</time>
      </trkpt>
      <trkpt lat="45.81465" lon="1.90308">
        <ele>654</ele>
        <time>2024-09-15T12:13:22Z</time>
      </trkpt>
      <trkpt lat="45.81463" lon="1.90305">
        <ele>654</ele>
        <time>2024-09-15T12:13:23Z</time>
      </trkpt>
      <trkpt lat="45.8145" lon="1.90296">
        <ele>654</ele>
        <time>2024-09-15T12:13:28Z</time>
      </trkpt>
      <trkpt lat="45.81448" lon="1.90295">
        <ele>654</ele>
        <time>2024-09-15T12:13:29Z</time>
      </trkpt>
      <trkpt lat="45.81431" lon="1.90285">
        <ele>653.6</ele>
        <time>2024-09-15T12:13:35Z</time>
      </trkpt>
      <trkpt lat="45.81425" lon="1.90285">
        <ele>653.6</ele>
        <time>2024-09-15T12:13:37Z</time>
      </trkpt>
      <trkpt lat="45.81413" lon="1.90286">
        <ele>653.4</ele>
        <time>2024-09-15T12:13:41Z</time>
      </trkpt>
      <trkpt lat="45.81411" lon="1.90286">
        <ele>653.4</ele>
        <time>2024-09-15T12:13:42Z</time>
      </trkpt>
      <trkpt lat="45.81409" lon="1.90286">
        <ele>653.4</ele>
        <time>2024-09-15T12:13:43Z</time>
      </trkpt>
      <trkpt lat="45.81407" lon="1.90287">
        <ele>653.4</ele>
        <time>2024-09-15T12:13:44Z</time>
      </trkpt>
      <trkpt lat="45.81405" lon="1.90287">
        <ele>653.4</ele>
        <time>2024-09-15T12:13:45Z</time>
      </trkpt>
      <trkpt lat="45.81402" lon="1.90287">
        <ele>653.4</ele>
        <time>2024-09-15T12:13:46Z</time>
      </trkpt>
      <trkpt lat="45.81399" lon="1.90288">
        <ele>653.4</ele>
        <time>2024-09-15T12:13:47Z</time>
      </trkpt>
      <trkpt lat="45.81397" lon="1.90288">
        <ele>653.4</ele>
        <time>2024-09-15T12:13:48Z</time>
      </trkpt>
      <trkpt lat="45.81395" lon="1.90287">
        <ele>653.6</ele>
        <time>2024-09-15T12:13:50Z</time>
      </trkpt>
      <trkpt lat="45.81395" lon="1.90287">
        <ele>653.6</ele>
        <time>2024-09-15T12:13:51Z</time>
      </trkpt>
      <trkpt lat="45.81395" lon="1.90287">
        <ele>653.6</ele>
        <time>2024-09-15T12:13:52Z</time>
      </trkpt>
      <trkpt lat="45.81391" lon="1.90288">
        <ele>654</ele>
        <time>2024-09-15T12:15:18Z</time>
      </trkpt>
      <trkpt lat="45.81384" lon="1.90289">
        <ele>654.2</ele>
        <time>2024-09-15T12:15:20Z</time>
      </trkpt>
      <trkpt lat="45.81371" lon="1.90291">
        <ele>654.2</ele>
        <time>2024-09-15T12:15:24Z</time>
      </trkpt>
      <trkpt lat="45.81356" lon="1.90293">
        <ele>654.4</ele>
        <time>2024-09-15T12:15:28Z</time>
      </trkpt>
      <trkpt lat="45.81343" lon="1.90285">
        <ele>654.2</ele>
        <time>2024-09-15T12:15:32Z</time>
      </trkpt>
      <trkpt lat="45.81341" lon="1.90281">
        <ele>654.2</ele>
        <time>2024-09-15T12:15:33Z</time>
      </trkpt>
      <trkpt lat="45.81339" lon="1.90277">
        <ele>654</ele>
        <time>2024-09-15T12:15:34Z</time>
      </trkpt>
      <trkpt lat="45.81338" lon="1.90274">
        <ele>654</ele>
        <time>2024-09-15T12:15:35Z</time>
      </trkpt>
      <trkpt lat="45.81336" lon="1.90272">
        <ele>653.8</ele>
        <time>2024-09-15T12:15:36Z</time>
      </trkpt>
      <trkpt lat="45.81334" lon="1.90271">
        <ele>653.8</ele>
        <time>2024-09-15T12:15:37Z</time>
      </trkpt>
      <trkpt lat="45.81331" lon="1.9027">
        <ele>653.8</ele>
        <time>2024-09-15T12:15:38Z</time>
      </trkpt>
      <trkpt lat="45.81328" lon="1.90271">
        <ele>653.8</ele>
        <time>2024-09-15T12:15:39Z</time>
      </trkpt>
      <trkpt lat="45.81325" lon="1.90272">
        <ele>653.8</ele>
        <time>2024-09-15T12:15:40Z</time>
      </trkpt>
      <trkpt lat="45.81323" lon="1.90274">
        <ele>653.8</ele>
        <time>2024-09-15T12:15:41Z</time>
      </trkpt>
      <trkpt lat="45.8132" lon="1.90276">
        <ele>654</ele>
        <time>2024-09-15T12:15:42Z</time>
      </trkpt>
      <trkpt lat="45.81318" lon="1.90278">
        <ele>654</ele>
        <time>2024-09-15T12:15:43Z</time>
      </trkpt>
      <trkpt lat="45.81316" lon="1.90279">
        <ele>654.2</ele>
        <time>2024-09-15T12:15:44Z</time>
      </trkpt>
      <trkpt lat="45.81313" lon="1.90281">
        <ele>654.2</ele>
        <time>2024-09-15T12:15:45Z</time>
      </trkpt>
      <trkpt lat="45.81308" lon="1.90284">
        <ele>654.8</ele>
        <time>2024-09-15T12:15:47Z</time>
      </trkpt>
      <trkpt lat="45.81305" lon="1.90285">
        <ele>655.2</ele>
        <time>2024-09-15T12:15:48Z</time>
      </trkpt>
      <trkpt lat="45.81302" lon="1.90285">
        <ele>655.4</ele>
        <time>2024-09-15T12:15:49Z</time>
      </trkpt>
      <trkpt lat="45.813" lon="1.90285">
        <ele>655.6</ele>
        <time>2024-09-15T12:15:50Z</time>
      </trkpt>
      <trkpt lat="45.81295" lon="1.90285">
        <ele>656.2</ele>
        <time>2024-09-15T12:15:52Z</time>
      </trkpt>
      <trkpt lat="45.81292" lon="1.90285">
        <ele>656.6</ele>
        <time>2024-09-15T12:15:53Z</time>
      </trkpt>
      <trkpt lat="45.8129" lon="1.90285">
        <ele>657</ele>
        <time>2024-09-15T12:15:54Z</time>
      </trkpt>
      <trkpt lat="45.81287" lon="1.90286">
        <ele>657.2</ele>
        <time>2024-09-15T12:15:55Z</time>
      </trkpt>
      <trkpt lat="45.81284" lon="1.90286">
        <ele>657.2</ele>
        <time>2024-09-15T12:15:56Z</time>
      </trkpt>
      <trkpt lat="45.81276" lon="1.90287">
        <ele>657.4</ele>
        <time>2024-09-15T12:15:58Z</time>
      </trkpt>
      <trkpt lat="45.81272" lon="1.90287">
        <ele>657.6</ele>
        <time>2024-09-15T12:15:59Z</time>
      </trkpt>
      <trkpt lat="45.81268" lon="1.90288">
        <ele>657.6</ele>
        <time>2024-09-15T12:16:00Z</time>
      </trkpt>
      <trkpt lat="45.81265" lon="1.9029">
        <ele>657.6</ele>
        <time>2024-09-15T12:16:01Z</time>
      </trkpt>
      <trkpt lat="45.81261" lon="1.90291">
        <ele>657.6</ele>
        <time>2024-09-15T12:16:02Z</time>
      </trkpt>
      <trkpt lat="45.81258" lon="1.90292">
        <ele>657.6</ele>
        <time>2024-09-15T12:16:03Z</time>
      </trkpt>
      <trkpt lat="45.81255" lon="1.90293">
        <ele>657.6</ele>
        <time>2024-09-15T12:16:04Z</time>
      </trkpt>
      <trkpt lat="45.81252" lon="1.90293">
        <ele>657.6</ele>
        <time>2024-09-15T12:16:05Z</time>
      </trkpt>
      <trkpt lat="45.81247" lon="1.90294">
        <ele>657.6</ele>
        <time>2024-09-15T12:16:06Z</time>
      </trkpt>
      <trkpt lat="45.81244" lon="1.90294">
        <ele>657.4</ele>
        <time>2024-09-15T12:16:07Z</time>
      </trkpt>
      <trkpt lat="45.81239" lon="1.90294">
        <ele>657.4</ele>
        <time>2024-09-15T12:16:08Z</time>
      </trkpt>
      <trkpt lat="45.81234" lon="1.90295">
        <ele>657.4</ele>
        <time>2024-09-15T12:16:09Z</time>
      </trkpt>
      <trkpt lat="45.81231" lon="1.90295">
        <ele>657.4</ele>
        <time>2024-09-15T12:16:10Z</time>
      </trkpt>
      <trkpt lat="45.81226" lon="1.90294">
        <ele>657.4</ele>
        <time>2024-09-15T12:16:11Z</time>
      </trkpt>
      <trkpt lat="45.81224" lon="1.90294">
        <ele>657.4</ele>
        <time>2024-09-15T12:16:12Z</time>
      </trkpt>
      <trkpt lat="45.81221" lon="1.90292">
        <ele>657.4</ele>
        <time>2024-09-15T12:16:13Z</time>
      </trkpt>
      <trkpt lat="45.81217" lon="1.9029">
        <ele>657.4</ele>
        <time>2024-09-15T12:16:14Z</time>
      </trkpt>
      <trkpt lat="45.81213" lon="1.90289">
        <ele>657.6</ele>
        <time>2024-09-15T12:16:15Z</time>
      </trkpt>
      <trkpt lat="45.81197" lon="1.90286">
        <ele>658.2</ele>
        <time>2024-09-15T12:16:19Z</time>
      </trkpt>
      <trkpt lat="45.81181" lon="1.90282">
        <ele>658.2</ele>
        <time>2024-09-15T12:16:23Z</time>
      </trkpt>
      <trkpt lat="45.81176" lon="1.90282">
        <ele>658</ele>
        <time>2024-09-15T12:16:24Z</time>
      </trkpt>
      <trkpt lat="45.81167" lon="1.90282">
        <ele>658.2</ele>
        <time>2024-09-15T12:16:27Z</time>
      </trkpt>
      <trkpt lat="45.81165" lon="1.90281">
        <ele>658.2</ele>
        <time>2024-09-15T12:16:28Z</time>
      </trkpt>
      <trkpt lat="45.81162" lon="1.90279">
        <ele>658.2</ele>
        <time>2024-09-15T12:16:29Z</time>
      </trkpt>
      <trkpt lat="45.81159" lon="1.90277">
        <ele>658</ele>
        <time>2024-09-15T12:16:30Z</time>
      </trkpt>
      <trkpt lat="45.81156" lon="1.90275">
        <ele>658</ele>
        <time>2024-09-15T12:16:31Z</time>
      </trkpt>
      <trkpt lat="45.81146" lon="1.90263">
        <ele>658</ele>
        <time>2024-09-15T12:16:35Z</time>
      </trkpt>
      <trkpt lat="45.81144" lon="1.9026">
        <ele>658</ele>
        <time>2024-09-15T12:16:36Z</time>
      </trkpt>
      <trkpt lat="45.81141" lon="1.90258">
        <ele>658</ele>
        <time>2024-09-15T12:16:37Z</time>
      </trkpt>
      <trkpt lat="45.81128" lon="1.90238">
        <ele>657.4</ele>
        <time>2024-09-15T12:16:43Z</time>
      </trkpt>
      <trkpt lat="45.81127" lon="1.90232">
        <ele>657.2</ele>
        <time>2024-09-15T12:16:44Z</time>
      </trkpt>
      <trkpt lat="45.81128" lon="1.90227">
        <ele>656.8</ele>
        <time>2024-09-15T12:16:45Z</time>
      </trkpt>
      <trkpt lat="45.8113" lon="1.90217">
        <ele>656.2</ele>
        <time>2024-09-15T12:16:47Z</time>
      </trkpt>
      <trkpt lat="45.81131" lon="1.90212">
        <ele>656</ele>
        <time>2024-09-15T12:16:48Z</time>
      </trkpt>
      <trkpt lat="45.81133" lon="1.90207">
        <ele>655.8</ele>
        <time>2024-09-15T12:16:49Z</time>
      </trkpt>
      <trkpt lat="45.81139" lon="1.90192">
        <ele>655.4</ele>
        <time>2024-09-15T12:16:53Z</time>
      </trkpt>
      <trkpt lat="45.8114" lon="1.90188">
        <ele>655.4</ele>
        <time>2024-09-15T12:16:54Z</time>
      </trkpt>
      <trkpt lat="45.8114" lon="1.90184">
        <ele>655.2</ele>
        <time>2024-09-15T12:16:55Z</time>
      </trkpt>
      <trkpt lat="45.8114" lon="1.90179">
        <ele>655.2</ele>
        <time>2024-09-15T12:16:56Z</time>
      </trkpt>
      <trkpt lat="45.8114" lon="1.90175">
        <ele>655.2</ele>
        <time>2024-09-15T12:16:57Z</time>
      </trkpt>
      <trkpt lat="45.81139" lon="1.90171">
        <ele>655.2</ele>
        <time>2024-09-15T12:16:58Z</time>
      </trkpt>
      <trkpt lat="45.81138" lon="1.90167">
        <ele>655.2</ele>
        <time>2024-09-15T12:16:59Z</time>
      </trkpt>
      <trkpt lat="45.81137" lon="1.90163">
        <ele>655.4</ele>
        <time>2024-09-15T12:17:00Z</time>
      </trkpt>
      <trkpt lat="45.81136" lon="1.9016">
        <ele>655.4</ele>
        <time>2024-09-15T12:17:01Z</time>
      </trkpt>
      <trkpt lat="45.81134" lon="1.90156">
        <ele>655.4</ele>
        <time>2024-09-15T12:17:02Z</time>
      </trkpt>
      <trkpt lat="45.81133" lon="1.90152">
        <ele>655.4</ele>
        <time>2024-09-15T12:17:03Z</time>
      </trkpt>
      <trkpt lat="45.81132" lon="1.90149">
        <ele>655.6</ele>
        <time>2024-09-15T12:17:04Z</time>
      </trkpt>
      <trkpt lat="45.8112" lon="1.90122">
        <ele>656</ele>
        <time>2024-09-15T12:17:11Z</time>
      </trkpt>
      <trkpt lat="45.81112" lon="1.90107">
        <ele>656</ele>
        <time>2024-09-15T12:17:15Z</time>
      </trkpt>
      <trkpt lat="45.81107" lon="1.901">
        <ele>656.2</ele>
        <time>2024-09-15T12:17:17Z</time>
      </trkpt>
      <trkpt lat="45.81106" lon="1.90095">
        <ele>656.2</ele>
        <time>2024-09-15T12:17:18Z</time>
      </trkpt>
      <trkpt lat="45.81105" lon="1.9009">
        <ele>656.2</ele>
        <time>2024-09-15T12:17:19Z</time>
      </trkpt>
      <trkpt lat="45.81102" lon="1.9008">
        <ele>656.2</ele>
        <time>2024-09-15T12:17:21Z</time>
      </trkpt>
      <trkpt lat="45.81101" lon="1.90064">
        <ele>656.2</ele>
        <time>2024-09-15T12:17:24Z</time>
      </trkpt>
      <trkpt lat="45.811" lon="1.90058">
        <ele>656.4</ele>
        <time>2024-09-15T12:17:25Z</time>
      </trkpt>
      <trkpt lat="45.811" lon="1.90053">
        <ele>656.4</ele>
        <time>2024-09-15T12:17:26Z</time>
      </trkpt>
      <trkpt lat="45.81097" lon="1.90026">
        <ele>657</ele>
        <time>2024-09-15T12:17:31Z</time>
      </trkpt>
      <trkpt lat="45.81095" lon="1.90022">
        <ele>657.2</ele>
        <time>2024-09-15T12:17:32Z</time>
      </trkpt>
      <trkpt lat="45.81093" lon="1.90018">
        <ele>657.2</ele>
        <time>2024-09-15T12:17:33Z</time>
      </trkpt>
      <trkpt lat="45.81086" lon="1.89994">
        <ele>657.8</ele>
        <time>2024-09-15T12:17:38Z</time>
      </trkpt>
      <trkpt lat="45.81084" lon="1.89966">
        <ele>657.4</ele>
        <time>2024-09-15T12:17:44Z</time>
      </trkpt>
      <trkpt lat="45.81085" lon="1.89963">
        <ele>657.4</ele>
        <time>2024-09-15T12:17:45Z</time>
      </trkpt>
      <trkpt lat="45.81086" lon="1.89958">
        <ele>657.2</ele>
        <time>2024-09-15T12:17:46Z</time>
      </trkpt>
      <trkpt lat="45.81086" lon="1.89954">
        <ele>657.2</ele>
        <time>2024-09-15T12:17:47Z</time>
      </trkpt>
      <trkpt lat="45.81089" lon="1.89939">
        <ele>657</ele>
        <time>2024-09-15T12:17:50Z</time>
      </trkpt>
      <trkpt lat="45.8109" lon="1.89935">
        <ele>657</ele>
        <time>2024-09-15T12:17:51Z</time>
      </trkpt>
      <trkpt lat="45.81091" lon="1.8993">
        <ele>657</ele>
        <time>2024-09-15T12:17:52Z</time>
      </trkpt>
      <trkpt lat="45.81095" lon="1.89915">
        <ele>656.2</ele>
        <time>2024-09-15T12:17:55Z</time>
      </trkpt>
      <trkpt lat="45.81096" lon="1.89904">
        <ele>655.8</ele>
        <time>2024-09-15T12:17:57Z</time>
      </trkpt>
      <trkpt lat="45.81097" lon="1.89884">
        <ele>655.6</ele>
        <time>2024-09-15T12:18:01Z</time>
      </trkpt>
      <trkpt lat="45.81095" lon="1.89879">
        <ele>655.6</ele>
        <time>2024-09-15T12:18:02Z</time>
      </trkpt>
      <trkpt lat="45.81093" lon="1.89875">
        <ele>655.6</ele>
        <time>2024-09-15T12:18:03Z</time>
      </trkpt>
      <trkpt lat="45.81091" lon="1.89872">
        <ele>655.6</ele>
        <time>2024-09-15T12:18:04Z</time>
      </trkpt>
      <trkpt lat="45.81088" lon="1.89869">
        <ele>655.6</ele>
        <time>2024-09-15T12:18:05Z</time>
      </trkpt>
      <trkpt lat="45.81085" lon="1.89868">
        <ele>655.6</ele>
        <time>2024-09-15T12:18:06Z</time>
      </trkpt>
      <trkpt lat="45.81083" lon="1.89866">
        <ele>655.6</ele>
        <time>2024-09-15T12:18:07Z</time>
      </trkpt>
      <trkpt lat="45.8108" lon="1.89865">
        <ele>655.6</ele>
        <time>2024-09-15T12:18:08Z</time>
      </trkpt>
      <trkpt lat="45.81077" lon="1.89864">
        <ele>655.6</ele>
        <time>2024-09-15T12:18:09Z</time>
      </trkpt>
      <trkpt lat="45.81074" lon="1.89863">
        <ele>655.4</ele>
        <time>2024-09-15T12:18:10Z</time>
      </trkpt>
      <trkpt lat="45.81072" lon="1.89863">
        <ele>655.4</ele>
        <time>2024-09-15T12:18:11Z</time>
      </trkpt>
      <trkpt lat="45.8107" lon="1.89863">
        <ele>655.4</ele>
        <time>2024-09-15T12:18:12Z</time>
      </trkpt>
      <trkpt lat="45.81068" lon="1.89864">
        <ele>655.4</ele>
        <time>2024-09-15T12:18:13Z</time>
      </trkpt>
      <trkpt lat="45.81068" lon="1.89864">
        <ele>655.4</ele>
        <time>2024-09-15T12:18:14Z</time>
      </trkpt>
      <trkpt lat="45.81064" lon="1.89864">
        <ele>655.4</ele>
        <time>2024-09-15T12:18:15Z</time>
      </trkpt>
      <trkpt lat="45.8106" lon="1.89865">
        <ele>655.4</ele>
        <time>2024-09-15T12:18:16Z</time>
      </trkpt>
      <trkpt lat="45.81048" lon="1.89865">
        <ele>655.4</ele>
        <time>2024-09-15T12:18:18Z</time>
      </trkpt>
      <trkpt lat="45.81031" lon="1.89867">
        <ele>655.6</ele>
        <time>2024-09-15T12:18:22Z</time>
      </trkpt>
      <trkpt lat="45.81021" lon="1.89872">
        <ele>655.8</ele>
        <time>2024-09-15T12:18:25Z</time>
      </trkpt>
      <trkpt lat="45.81019" lon="1.89874">
        <ele>656</ele>
        <time>2024-09-15T12:18:26Z</time>
      </trkpt>
      <trkpt lat="45.81016" lon="1.89876">
        <ele>656</ele>
        <time>2024-09-15T12:18:27Z</time>
      </trkpt>
      <trkpt lat="45.81007" lon="1.89883">
        <ele>656.6</ele>
        <time>2024-09-15T12:18:30Z</time>
      </trkpt>
      <trkpt lat="45.81003" lon="1.89884">
        <ele>656.6</ele>
        <time>2024-09-15T12:18:31Z</time>
      </trkpt>
      <trkpt lat="45.81" lon="1.89885">
        <ele>656.6</ele>
        <time>2024-09-15T12:18:32Z</time>
      </trkpt>
      <trkpt lat="45.80996" lon="1.89887">
        <ele>656.8</ele>
        <time>2024-09-15T12:18:33Z</time>
      </trkpt>
      <trkpt lat="45.80993" lon="1.89888">
        <ele>657</ele>
        <time>2024-09-15T12:18:34Z</time>
      </trkpt>
      <trkpt lat="45.80983" lon="1.89888">
        <ele>657</ele>
        <time>2024-09-15T12:18:37Z</time>
      </trkpt>
      <trkpt lat="45.80979" lon="1.89887">
        <ele>657.2</ele>
        <time>2024-09-15T12:18:38Z</time>
      </trkpt>
      <trkpt lat="45.80975" lon="1.89884">
        <ele>656.8</ele>
        <time>2024-09-15T12:18:40Z</time>
      </trkpt>
      <trkpt lat="45.80972" lon="1.89882">
        <ele>657.2</ele>
        <time>2024-09-15T12:18:41Z</time>
      </trkpt>
      <trkpt lat="45.80969" lon="1.89879">
        <ele>656.8</ele>
        <time>2024-09-15T12:18:42Z</time>
      </trkpt>
      <trkpt lat="45.80967" lon="1.89876">
        <ele>656.8</ele>
        <time>2024-09-15T12:18:43Z</time>
      </trkpt>
      <trkpt lat="45.80966" lon="1.89873">
        <ele>656.8</ele>
        <time>2024-09-15T12:18:44Z</time>
      </trkpt>
      <trkpt lat="45.80964" lon="1.89871">
        <ele>656.8</ele>
        <time>2024-09-15T12:18:45Z</time>
      </trkpt>
      <trkpt lat="45.80963" lon="1.89868">
        <ele>656.8</ele>
        <time>2024-09-15T12:18:46Z</time>
      </trkpt>
      <trkpt lat="45.80962" lon="1.89865">
        <ele>657.2</ele>
        <time>2024-09-15T12:18:47Z</time>
      </trkpt>
      <trkpt lat="45.80961" lon="1.89861">
        <ele>657.4</ele>
        <time>2024-09-15T12:18:48Z</time>
      </trkpt>
      <trkpt lat="45.80961" lon="1.89857">
        <ele>657.6</ele>
        <time>2024-09-15T12:18:49Z</time>
      </trkpt>
      <trkpt lat="45.80958" lon="1.8984">
        <ele>657.8</ele>
        <time>2024-09-15T12:18:53Z</time>
      </trkpt>
      <trkpt lat="45.80947" lon="1.89809">
        <ele>657.6</ele>
        <time>2024-09-15T12:18:59Z</time>
      </trkpt>
      <trkpt lat="45.80935" lon="1.8977">
        <ele>657</ele>
        <time>2024-09-15T12:19:06Z</time>
      </trkpt>
      <trkpt lat="45.80929" lon="1.89749">
        <ele>656.6</ele>
        <time>2024-09-15T12:19:09Z</time>
      </trkpt>
      <trkpt lat="45.80922" lon="1.89726">
        <ele>656.2</ele>
        <time>2024-09-15T12:19:13Z</time>
      </trkpt>
      <trkpt lat="45.80919" lon="1.89711">
        <ele>655.2</ele>
        <time>2024-09-15T12:19:16Z</time>
      </trkpt>
      <trkpt lat="45.8092" lon="1.89706">
        <ele>655</ele>
        <time>2024-09-15T12:19:17Z</time>
      </trkpt>
      <trkpt lat="45.80921" lon="1.89702">
        <ele>655</ele>
        <time>2024-09-15T12:19:18Z</time>
      </trkpt>
      <trkpt lat="45.80923" lon="1.89698">
        <ele>654.8</ele>
        <time>2024-09-15T12:19:19Z</time>
      </trkpt>
      <trkpt lat="45.80926" lon="1.89695">
        <ele>654.6</ele>
        <time>2024-09-15T12:19:20Z</time>
      </trkpt>
      <trkpt lat="45.80928" lon="1.89692">
        <ele>654.6</ele>
        <time>2024-09-15T12:19:21Z</time>
      </trkpt>
      <trkpt lat="45.80931" lon="1.89689">
        <ele>654.4</ele>
        <time>2024-09-15T12:19:22Z</time>
      </trkpt>
      <trkpt lat="45.80933" lon="1.89687">
        <ele>654.4</ele>
        <time>2024-09-15T12:19:23Z</time>
      </trkpt>
      <trkpt lat="45.80936" lon="1.89683">
        <ele>654.4</ele>
        <time>2024-09-15T12:19:24Z</time>
      </trkpt>
      <trkpt lat="45.80939" lon="1.8968">
        <ele>654.4</ele>
        <time>2024-09-15T12:19:25Z</time>
      </trkpt>
      <trkpt lat="45.80942" lon="1.89677">
        <ele>654.2</ele>
        <time>2024-09-15T12:19:26Z</time>
      </trkpt>
      <trkpt lat="45.80944" lon="1.89674">
        <ele>654.4</ele>
        <time>2024-09-15T12:19:27Z</time>
      </trkpt>
      <trkpt lat="45.80947" lon="1.89671">
        <ele>654.4</ele>
        <time>2024-09-15T12:19:28Z</time>
      </trkpt>
      <trkpt lat="45.80949" lon="1.89668">
        <ele>654.4</ele>
        <time>2024-09-15T12:19:29Z</time>
      </trkpt>
      <trkpt lat="45.8095" lon="1.89663">
        <ele>654.4</ele>
        <time>2024-09-15T12:19:30Z</time>
      </trkpt>
      <trkpt lat="45.80951" lon="1.89658">
        <ele>654.4</ele>
        <time>2024-09-15T12:19:31Z</time>
      </trkpt>
      <trkpt lat="45.80951" lon="1.89654">
        <ele>654.4</ele>
        <time>2024-09-15T12:19:32Z</time>
      </trkpt>
      <trkpt lat="45.8095" lon="1.8965">
        <ele>654.4</ele>
        <time>2024-09-15T12:19:33Z</time>
      </trkpt>
      <trkpt lat="45.80948" lon="1.89646">
        <ele>654.4</ele>
        <time>2024-09-15T12:19:34Z</time>
      </trkpt>
      <trkpt lat="45.80946" lon="1.89641">
        <ele>654.4</ele>
        <time>2024-09-15T12:19:35Z</time>
      </trkpt>
      <trkpt lat="45.80944" lon="1.89635">
        <ele>654.4</ele>
        <time>2024-09-15T12:19:36Z</time>
      </trkpt>
      <trkpt lat="45.80941" lon="1.89629">
        <ele>654.4</ele>
        <time>2024-09-15T12:19:37Z</time>
      </trkpt>
      <trkpt lat="45.80938" lon="1.89622">
        <ele>654.2</ele>
        <time>2024-09-15T12:19:38Z</time>
      </trkpt>
      <trkpt lat="45.80936" lon="1.89615">
        <ele>654.2</ele>
        <time>2024-09-15T12:19:39Z</time>
      </trkpt>
      <trkpt lat="45.80933" lon="1.8961">
        <ele>654.2</ele>
        <time>2024-09-15T12:19:40Z</time>
      </trkpt>
      <trkpt lat="45.80929" lon="1.896">
        <ele>654.2</ele>
        <time>2024-09-15T12:19:42Z</time>
      </trkpt>
      <trkpt lat="45.80928" lon="1.89595">
        <ele>654.2</ele>
        <time>2024-09-15T12:19:43Z</time>
      </trkpt>
      <trkpt lat="45.80926" lon="1.8959">
        <ele>654.2</ele>
        <time>2024-09-15T12:19:44Z</time>
      </trkpt>
      <trkpt lat="45.80925" lon="1.89586">
        <ele>654.2</ele>
        <time>2024-09-15T12:19:45Z</time>
      </trkpt>
      <trkpt lat="45.80923" lon="1.89582">
        <ele>654.2</ele>
        <time>2024-09-15T12:19:46Z</time>
      </trkpt>
      <trkpt lat="45.80922" lon="1.89578">
        <ele>654.2</ele>
        <time>2024-09-15T12:19:47Z</time>
      </trkpt>
      <trkpt lat="45.80918" lon="1.89566">
        <ele>654.2</ele>
        <time>2024-09-15T12:19:50Z</time>
      </trkpt>
      <trkpt lat="45.80914" lon="1.89557">
        <ele>654.2</ele>
        <time>2024-09-15T12:19:52Z</time>
      </trkpt>
      <trkpt lat="45.80913" lon="1.89553">
        <ele>654.2</ele>
        <time>2024-09-15T12:19:53Z</time>
      </trkpt>
      <trkpt lat="45.80912" lon="1.8955">
        <ele>654.2</ele>
        <time>2024-09-15T12:19:54Z</time>
      </trkpt>
      <trkpt lat="45.80911" lon="1.89547">
        <ele>654</ele>
        <time>2024-09-15T12:19:55Z</time>
      </trkpt>
      <trkpt lat="45.80911" lon="1.89543">
        <ele>654</ele>
        <time>2024-09-15T12:19:56Z</time>
      </trkpt>
      <trkpt lat="45.80911" lon="1.89539">
        <ele>654</ele>
        <time>2024-09-15T12:19:57Z</time>
      </trkpt>
      <trkpt lat="45.80912" lon="1.89535">
        <ele>654</ele>
        <time>2024-09-15T12:19:58Z</time>
      </trkpt>
      <trkpt lat="45.80914" lon="1.89532">
        <ele>654.2</ele>
        <time>2024-09-15T12:19:59Z</time>
      </trkpt>
      <trkpt lat="45.80915" lon="1.89528">
        <ele>654.2</ele>
        <time>2024-09-15T12:20:00Z</time>
      </trkpt>
      <trkpt lat="45.80917" lon="1.89525">
        <ele>654.2</ele>
        <time>2024-09-15T12:20:01Z</time>
      </trkpt>
      <trkpt lat="45.80922" lon="1.89517">
        <ele>654.4</ele>
        <time>2024-09-15T12:20:04Z</time>
      </trkpt>
      <trkpt lat="45.80946" lon="1.89491">
        <ele>654</ele>
        <time>2024-09-15T12:20:13Z</time>
      </trkpt>
      <trkpt lat="45.80946" lon="1.89491">
        <ele>654</ele>
        <time>2024-09-15T12:20:14Z</time>
      </trkpt>
      <trkpt lat="45.80948" lon="1.89489">
        <ele>654</ele>
        <time>2024-09-15T12:20:15Z</time>
      </trkpt>
      <trkpt lat="45.80951" lon="1.89487">
        <ele>654</ele>
        <time>2024-09-15T12:20:16Z</time>
      </trkpt>
      <trkpt lat="45.80954" lon="1.89485">
        <ele>654</ele>
        <time>2024-09-15T12:20:17Z</time>
      </trkpt>
      <trkpt lat="45.80958" lon="1.89482">
        <ele>654</ele>
        <time>2024-09-15T12:20:19Z</time>
      </trkpt>
      <trkpt lat="45.80973" lon="1.89484">
        <ele>654</ele>
        <time>2024-09-15T12:20:24Z</time>
      </trkpt>
      <trkpt lat="45.80976" lon="1.89484">
        <ele>654.2</ele>
        <time>2024-09-15T12:20:25Z</time>
      </trkpt>
      <trkpt lat="45.80978" lon="1.89485">
        <ele>654.2</ele>
        <time>2024-09-15T12:20:26Z</time>
      </trkpt>
      <trkpt lat="45.80984" lon="1.89487">
        <ele>654.4</ele>
        <time>2024-09-15T12:20:29Z</time>
      </trkpt>
      <trkpt lat="45.80986" lon="1.89488">
        <ele>654.4</ele>
        <time>2024-09-15T12:20:30Z</time>
      </trkpt>
      <trkpt lat="45.80988" lon="1.8949">
        <ele>654.4</ele>
        <time>2024-09-15T12:20:31Z</time>
      </trkpt>
      <trkpt lat="45.80991" lon="1.89495">
        <ele>654.4</ele>
        <time>2024-09-15T12:20:33Z</time>
      </trkpt>
      <trkpt lat="45.80992" lon="1.89498">
        <ele>654.4</ele>
        <time>2024-09-15T12:20:34Z</time>
      </trkpt>
      <trkpt lat="45.80994" lon="1.89499">
        <ele>654.4</ele>
        <time>2024-09-15T12:20:35Z</time>
      </trkpt>
      <trkpt lat="45.80995" lon="1.895">
        <ele>654.4</ele>
        <time>2024-09-15T12:20:36Z</time>
      </trkpt>
      <trkpt lat="45.80995" lon="1.895">
        <ele>654.4</ele>
        <time>2024-09-15T12:20:37Z</time>
      </trkpt>
      <trkpt lat="45.80996" lon="1.89501">
        <ele>654.4</ele>
        <time>2024-09-15T12:20:38Z</time>
      </trkpt>
      <trkpt lat="45.80996" lon="1.89501">
        <ele>654.4</ele>
        <time>2024-09-15T12:20:39Z</time>
      </trkpt>
      <trkpt lat="45.80997" lon="1.89501">
        <ele>654.4</ele>
        <time>2024-09-15T12:20:40Z</time>
      </trkpt>
      <trkpt lat="45.80999" lon="1.89502">
        <ele>654.2</ele>
        <time>2024-09-15T12:20:41Z</time>
      </trkpt>
      <trkpt lat="45.81" lon="1.89503">
        <ele>654.2</ele>
        <time>2024-09-15T12:20:42Z</time>
      </trkpt>
      <trkpt lat="45.8101" lon="1.89504">
        <ele>654.2</ele>
        <time>2024-09-15T12:20:47Z</time>
      </trkpt>
      <trkpt lat="45.81012" lon="1.89504">
        <ele>654.2</ele>
        <time>2024-09-15T12:20:48Z</time>
      </trkpt>
      <trkpt lat="45.81026" lon="1.895">
        <ele>654.6</ele>
        <time>2024-09-15T12:20:53Z</time>
      </trkpt>
      <trkpt lat="45.81028" lon="1.895">
        <ele>654.8</ele>
        <time>2024-09-15T12:20:54Z</time>
      </trkpt>
      <trkpt lat="45.81032" lon="1.89498">
        <ele>654.8</ele>
        <time>2024-09-15T12:20:55Z</time>
      </trkpt>
      <trkpt lat="45.81035" lon="1.89495">
        <ele>654.8</ele>
        <time>2024-09-15T12:20:56Z</time>
      </trkpt>
      <trkpt lat="45.81038" lon="1.89493">
        <ele>654.8</ele>
        <time>2024-09-15T12:20:57Z</time>
      </trkpt>
      <trkpt lat="45.8104" lon="1.89492">
        <ele>655</ele>
        <time>2024-09-15T12:20:58Z</time>
      </trkpt>
      <trkpt lat="45.81042" lon="1.8949">
        <ele>655</ele>
        <time>2024-09-15T12:20:59Z</time>
      </trkpt>
      <trkpt lat="45.81056" lon="1.89477">
        <ele>655.2</ele>
        <time>2024-09-15T12:21:04Z</time>
      </trkpt>
      <trkpt lat="45.81057" lon="1.89475">
        <ele>655.8</ele>
        <time>2024-09-15T12:21:05Z</time>
      </trkpt>
      <trkpt lat="45.81059" lon="1.89473">
        <ele>655.8</ele>
        <time>2024-09-15T12:21:06Z</time>
      </trkpt>
      <trkpt lat="45.81063" lon="1.8947">
        <ele>656.4</ele>
        <time>2024-09-15T12:21:08Z</time>
      </trkpt>
      <trkpt lat="45.81069" lon="1.89466">
        <ele>656.6</ele>
        <time>2024-09-15T12:21:09Z</time>
      </trkpt>
      <trkpt lat="45.81071" lon="1.89464">
        <ele>656.6</ele>
        <time>2024-09-15T12:21:10Z</time>
      </trkpt>
      <trkpt lat="45.81072" lon="1.89462">
        <ele>656.8</ele>
        <time>2024-09-15T12:21:11Z</time>
      </trkpt>
      <trkpt lat="45.81074" lon="1.89458">
        <ele>657</ele>
        <time>2024-09-15T12:21:12Z</time>
      </trkpt>
      <trkpt lat="45.81076" lon="1.89455">
        <ele>657.2</ele>
        <time>2024-09-15T12:21:13Z</time>
      </trkpt>
      <trkpt lat="45.81078" lon="1.89452">
        <ele>657.4</ele>
        <time>2024-09-15T12:21:14Z</time>
      </trkpt>
      <trkpt lat="45.8108" lon="1.89449">
        <ele>657.4</ele>
        <time>2024-09-15T12:21:15Z</time>
      </trkpt>
      <trkpt lat="45.81082" lon="1.89445">
        <ele>657.6</ele>
        <time>2024-09-15T12:21:16Z</time>
      </trkpt>
      <trkpt lat="45.81087" lon="1.8944">
        <ele>657.8</ele>
        <time>2024-09-15T12:21:17Z</time>
      </trkpt>
      <trkpt lat="45.81091" lon="1.89436">
        <ele>657.8</ele>
        <time>2024-09-15T12:21:18Z</time>
      </trkpt>
      <trkpt lat="45.81094" lon="1.89433">
        <ele>658</ele>
        <time>2024-09-15T12:21:19Z</time>
      </trkpt>
      <trkpt lat="45.81095" lon="1.89431">
        <ele>658</ele>
        <time>2024-09-15T12:21:20Z</time>
      </trkpt>
      <trkpt lat="45.81097" lon="1.89429">
        <ele>658</ele>
        <time>2024-09-15T12:21:21Z</time>
      </trkpt>
      <trkpt lat="45.81098" lon="1.89427">
        <ele>658.2</ele>
        <time>2024-09-15T12:21:22Z</time>
      </trkpt>
      <trkpt lat="45.811" lon="1.89425">
        <ele>658.2</ele>
        <time>2024-09-15T12:21:23Z</time>
      </trkpt>
      <trkpt lat="45.81101" lon="1.89423">
        <ele>658.2</ele>
        <time>2024-09-15T12:21:24Z</time>
      </trkpt>
      <trkpt lat="45.81101" lon="1.89421">
        <ele>658.2</ele>
        <time>2024-09-15T12:21:25Z</time>
      </trkpt>
      <trkpt lat="45.81102" lon="1.89418">
        <ele>658.4</ele>
        <time>2024-09-15T12:21:26Z</time>
      </trkpt>
      <trkpt lat="45.81102" lon="1.89414">
        <ele>658.6</ele>
        <time>2024-09-15T12:21:27Z</time>
      </trkpt>
      <trkpt lat="45.81102" lon="1.89409">
        <ele>658.8</ele>
        <time>2024-09-15T12:21:28Z</time>
      </trkpt>
      <trkpt lat="45.81103" lon="1.89405">
        <ele>659.4</ele>
        <time>2024-09-15T12:21:29Z</time>
      </trkpt>
      <trkpt lat="45.81106" lon="1.89401">
        <ele>659.6</ele>
        <time>2024-09-15T12:21:30Z</time>
      </trkpt>
      <trkpt lat="45.81107" lon="1.89397">
        <ele>659.8</ele>
        <time>2024-09-15T12:21:31Z</time>
      </trkpt>
      <trkpt lat="45.8111" lon="1.89392">
        <ele>660</ele>
        <time>2024-09-15T12:21:32Z</time>
      </trkpt>
      <trkpt lat="45.81112" lon="1.89388">
        <ele>660.4</ele>
        <time>2024-09-15T12:21:33Z</time>
      </trkpt>
      <trkpt lat="45.81112" lon="1.89385">
        <ele>660.6</ele>
        <time>2024-09-15T12:21:34Z</time>
      </trkpt>
      <trkpt lat="45.81114" lon="1.89381">
        <ele>660.6</ele>
        <time>2024-09-15T12:21:35Z</time>
      </trkpt>
      <trkpt lat="45.81116" lon="1.89376">
        <ele>660.8</ele>
        <time>2024-09-15T12:21:36Z</time>
      </trkpt>
      <trkpt lat="45.81118" lon="1.89372">
        <ele>661</ele>
        <time>2024-09-15T12:21:37Z</time>
      </trkpt>
      <trkpt lat="45.81118" lon="1.89368">
        <ele>661</ele>
        <time>2024-09-15T12:21:38Z</time>
      </trkpt>
      <trkpt lat="45.81118" lon="1.89365">
        <ele>661</ele>
        <time>2024-09-15T12:21:39Z</time>
      </trkpt>
      <trkpt lat="45.8112" lon="1.89362">
        <ele>661</ele>
        <time>2024-09-15T12:21:40Z</time>
      </trkpt>
      <trkpt lat="45.81121" lon="1.8936">
        <ele>661.2</ele>
        <time>2024-09-15T12:21:41Z</time>
      </trkpt>
      <trkpt lat="45.81122" lon="1.89357">
        <ele>661.2</ele>
        <time>2024-09-15T12:21:42Z</time>
      </trkpt>
      <trkpt lat="45.81123" lon="1.89354">
        <ele>661.2</ele>
        <time>2024-09-15T12:21:43Z</time>
      </trkpt>
      <trkpt lat="45.81125" lon="1.89352">
        <ele>661.2</ele>
        <time>2024-09-15T12:21:44Z</time>
      </trkpt>
      <trkpt lat="45.81127" lon="1.89349">
        <ele>661.2</ele>
        <time>2024-09-15T12:21:45Z</time>
      </trkpt>
      <trkpt lat="45.81128" lon="1.89344">
        <ele>661.2</ele>
        <time>2024-09-15T12:21:46Z</time>
      </trkpt>
      <trkpt lat="45.81129" lon="1.8934">
        <ele>661.2</ele>
        <time>2024-09-15T12:21:47Z</time>
      </trkpt>
      <trkpt lat="45.8113" lon="1.89336">
        <ele>661.2</ele>
        <time>2024-09-15T12:21:48Z</time>
      </trkpt>
      <trkpt lat="45.81131" lon="1.89331">
        <ele>661.2</ele>
        <time>2024-09-15T12:21:49Z</time>
      </trkpt>
      <trkpt lat="45.81133" lon="1.89328">
        <ele>661.4</ele>
        <time>2024-09-15T12:21:50Z</time>
      </trkpt>
      <trkpt lat="45.81134" lon="1.89326">
        <ele>661.6</ele>
        <time>2024-09-15T12:21:51Z</time>
      </trkpt>
      <trkpt lat="45.81134" lon="1.89323">
        <ele>661.6</ele>
        <time>2024-09-15T12:21:52Z</time>
      </trkpt>
      <trkpt lat="45.81135" lon="1.89322">
        <ele>661.6</ele>
        <time>2024-09-15T12:21:53Z</time>
      </trkpt>
      <trkpt lat="45.81136" lon="1.8932">
        <ele>661.8</ele>
        <time>2024-09-15T12:21:54Z</time>
      </trkpt>
      <trkpt lat="45.81138" lon="1.89319">
        <ele>662</ele>
        <time>2024-09-15T12:21:55Z</time>
      </trkpt>
      <trkpt lat="45.81139" lon="1.89319">
        <ele>662.2</ele>
        <time>2024-09-15T12:21:56Z</time>
      </trkpt>
      <trkpt lat="45.81142" lon="1.8932">
        <ele>662.6</ele>
        <time>2024-09-15T12:21:58Z</time>
      </trkpt>
      <trkpt lat="45.81144" lon="1.89323">
        <ele>662.8</ele>
        <time>2024-09-15T12:21:59Z</time>
      </trkpt>
      <trkpt lat="45.81146" lon="1.89324">
        <ele>663</ele>
        <time>2024-09-15T12:22:00Z</time>
      </trkpt>
      <trkpt lat="45.81147" lon="1.89325">
        <ele>663.6</ele>
        <time>2024-09-15T12:22:01Z</time>
      </trkpt>
      <trkpt lat="45.81148" lon="1.89324">
        <ele>664</ele>
        <time>2024-09-15T12:22:02Z</time>
      </trkpt>
      <trkpt lat="45.81149" lon="1.89323">
        <ele>664.2</ele>
        <time>2024-09-15T12:22:03Z</time>
      </trkpt>
      <trkpt lat="45.8115" lon="1.89322">
        <ele>664.2</ele>
        <time>2024-09-15T12:22:04Z</time>
      </trkpt>
      <trkpt lat="45.81151" lon="1.89319">
        <ele>664.4</ele>
        <time>2024-09-15T12:22:05Z</time>
      </trkpt>
      <trkpt lat="45.81152" lon="1.89317">
        <ele>664.6</ele>
        <time>2024-09-15T12:22:06Z</time>
      </trkpt>
      <trkpt lat="45.81152" lon="1.89314">
        <ele>664.8</ele>
        <time>2024-09-15T12:22:07Z</time>
      </trkpt>
      <trkpt lat="45.81152" lon="1.89311">
        <ele>664.8</ele>
        <time>2024-09-15T12:22:08Z</time>
      </trkpt>
      <trkpt lat="45.81151" lon="1.89309">
        <ele>665</ele>
        <time>2024-09-15T12:22:09Z</time>
      </trkpt>
      <trkpt lat="45.81151" lon="1.89307">
        <ele>665.2</ele>
        <time>2024-09-15T12:22:10Z</time>
      </trkpt>
      <trkpt lat="45.81151" lon="1.89305">
        <ele>665.2</ele>
        <time>2024-09-15T12:22:11Z</time>
      </trkpt>
      <trkpt lat="45.81151" lon="1.89303">
        <ele>665.2</ele>
        <time>2024-09-15T12:22:12Z</time>
      </trkpt>
      <trkpt lat="45.8115" lon="1.893">
        <ele>665.2</ele>
        <time>2024-09-15T12:22:13Z</time>
      </trkpt>
      <trkpt lat="45.8115" lon="1.89298">
        <ele>665.2</ele>
        <time>2024-09-15T12:22:14Z</time>
      </trkpt>
      <trkpt lat="45.81149" lon="1.89296">
        <ele>665</ele>
        <time>2024-09-15T12:22:15Z</time>
      </trkpt>
      <trkpt lat="45.81149" lon="1.89295">
        <ele>665</ele>
        <time>2024-09-15T12:22:16Z</time>
      </trkpt>
      <trkpt lat="45.81148" lon="1.89294">
        <ele>664.8</ele>
        <time>2024-09-15T12:22:17Z</time>
      </trkpt>
      <trkpt lat="45.81148" lon="1.89293">
        <ele>664.6</ele>
        <time>2024-09-15T12:22:18Z</time>
      </trkpt>
      <trkpt lat="45.81147" lon="1.89291">
        <ele>664</ele>
        <time>2024-09-15T12:22:19Z</time>
      </trkpt>
      <trkpt lat="45.81146" lon="1.89288">
        <ele>663.8</ele>
        <time>2024-09-15T12:22:20Z</time>
      </trkpt>
      <trkpt lat="45.81145" lon="1.89285">
        <ele>663.6</ele>
        <time>2024-09-15T12:22:21Z</time>
      </trkpt>
      <trkpt lat="45.81145" lon="1.89284">
        <ele>663.4</ele>
        <time>2024-09-15T12:22:22Z</time>
      </trkpt>
      <trkpt lat="45.81145" lon="1.89284">
        <ele>663.4</ele>
        <time>2024-09-15T12:22:23Z</time>
      </trkpt>
      <trkpt lat="45.81144" lon="1.89283">
        <ele>663</ele>
        <time>2024-09-15T12:22:26Z</time>
      </trkpt>
      <trkpt lat="45.81144" lon="1.8928">
        <ele>663</ele>
        <time>2024-09-15T12:22:27Z</time>
      </trkpt>
      <trkpt lat="45.81143" lon="1.89276">
        <ele>662.8</ele>
        <time>2024-09-15T12:22:28Z</time>
      </trkpt>
      <trkpt lat="45.81142" lon="1.89271">
        <ele>662.6</ele>
        <time>2024-09-15T12:22:31Z</time>
      </trkpt>
      <trkpt lat="45.81143" lon="1.89265">
        <ele>662.6</ele>
        <time>2024-09-15T12:22:32Z</time>
      </trkpt>
      <trkpt lat="45.81144" lon="1.89261">
        <ele>662.4</ele>
        <time>2024-09-15T12:22:33Z</time>
      </trkpt>
      <trkpt lat="45.81148" lon="1.89252">
        <ele>662.2</ele>
        <time>2024-09-15T12:22:34Z</time>
      </trkpt>
      <trkpt lat="45.81151" lon="1.89244">
        <ele>662</ele>
        <time>2024-09-15T12:22:35Z</time>
      </trkpt>
      <trkpt lat="45.81152" lon="1.89236">
        <ele>661.6</ele>
        <time>2024-09-15T12:22:36Z</time>
      </trkpt>
      <trkpt lat="45.81153" lon="1.89221">
        <ele>661.4</ele>
        <time>2024-09-15T12:22:38Z</time>
      </trkpt>
      <trkpt lat="45.81154" lon="1.89218">
        <ele>661.2</ele>
        <time>2024-09-15T12:22:39Z</time>
      </trkpt>
      <trkpt lat="45.81154" lon="1.89217">
        <ele>661.2</ele>
        <time>2024-09-15T12:22:40Z</time>
      </trkpt>
      <trkpt lat="45.81156" lon="1.89215">
        <ele>661</ele>
        <time>2024-09-15T12:22:41Z</time>
      </trkpt>
      <trkpt lat="45.8116" lon="1.89213">
        <ele>661.2</ele>
        <time>2024-09-15T12:22:42Z</time>
      </trkpt>
      <trkpt lat="45.81163" lon="1.89211">
        <ele>661.4</ele>
        <time>2024-09-15T12:22:43Z</time>
      </trkpt>
      <trkpt lat="45.81167" lon="1.89207">
        <ele>661.4</ele>
        <time>2024-09-15T12:22:44Z</time>
      </trkpt>
      <trkpt lat="45.81168" lon="1.89204">
        <ele>661.4</ele>
        <time>2024-09-15T12:22:45Z</time>
      </trkpt>
      <trkpt lat="45.8117" lon="1.892">
        <ele>661.6</ele>
        <time>2024-09-15T12:22:46Z</time>
      </trkpt>
      <trkpt lat="45.8117" lon="1.89196">
        <ele>661.8</ele>
        <time>2024-09-15T12:22:47Z</time>
      </trkpt>
      <trkpt lat="45.81171" lon="1.89194">
        <ele>661.8</ele>
        <time>2024-09-15T12:22:48Z</time>
      </trkpt>
      <trkpt lat="45.81172" lon="1.89189">
        <ele>662</ele>
        <time>2024-09-15T12:22:49Z</time>
      </trkpt>
      <trkpt lat="45.81175" lon="1.89185">
        <ele>662.2</ele>
        <time>2024-09-15T12:22:50Z</time>
      </trkpt>
      <trkpt lat="45.81176" lon="1.89182">
        <ele>662.2</ele>
        <time>2024-09-15T12:22:51Z</time>
      </trkpt>
      <trkpt lat="45.81178" lon="1.8918">
        <ele>662.6</ele>
        <time>2024-09-15T12:22:52Z</time>
      </trkpt>
      <trkpt lat="45.8118" lon="1.89177">
        <ele>662.8</ele>
        <time>2024-09-15T12:22:53Z</time>
      </trkpt>
      <trkpt lat="45.81182" lon="1.89176">
        <ele>662.8</ele>
        <time>2024-09-15T12:22:54Z</time>
      </trkpt>
      <trkpt lat="45.81186" lon="1.89174">
        <ele>663.8</ele>
        <time>2024-09-15T12:22:59Z</time>
      </trkpt>
      <trkpt lat="45.81187" lon="1.89174">
        <ele>664.4</ele>
        <time>2024-09-15T12:23:00Z</time>
      </trkpt>
      <trkpt lat="45.81188" lon="1.89174">
        <ele>665</ele>
        <time>2024-09-15T12:23:02Z</time>
      </trkpt>
      <trkpt lat="45.81188" lon="1.89174">
        <ele>665.4</ele>
        <time>2024-09-15T12:23:03Z</time>
      </trkpt>
      <trkpt lat="45.81189" lon="1.89173">
        <ele>665.4</ele>
        <time>2024-09-15T12:23:04Z</time>
      </trkpt>
      <trkpt lat="45.8119" lon="1.89172">
        <ele>666</ele>
        <time>2024-09-15T12:23:05Z</time>
      </trkpt>
      <trkpt lat="45.81192" lon="1.89171">
        <ele>666</ele>
        <time>2024-09-15T12:23:06Z</time>
      </trkpt>
      <trkpt lat="45.81193" lon="1.8917">
        <ele>666.4</ele>
        <time>2024-09-15T12:23:07Z</time>
      </trkpt>
      <trkpt lat="45.81195" lon="1.8917">
        <ele>666.6</ele>
        <time>2024-09-15T12:23:08Z</time>
      </trkpt>
      <trkpt lat="45.81196" lon="1.8917">
        <ele>666.8</ele>
        <time>2024-09-15T12:23:09Z</time>
      </trkpt>
      <trkpt lat="45.81197" lon="1.8917">
        <ele>667</ele>
        <time>2024-09-15T12:23:10Z</time>
      </trkpt>
      <trkpt lat="45.81197" lon="1.8917">
        <ele>667.2</ele>
        <time>2024-09-15T12:23:11Z</time>
      </trkpt>
      <trkpt lat="45.81199" lon="1.89169">
        <ele>667.4</ele>
        <time>2024-09-15T12:23:12Z</time>
      </trkpt>
      <trkpt lat="45.81199" lon="1.89169">
        <ele>667.6</ele>
        <time>2024-09-15T12:23:13Z</time>
      </trkpt>
      <trkpt lat="45.812" lon="1.89169">
        <ele>668</ele>
        <time>2024-09-15T12:23:15Z</time>
      </trkpt>
      <trkpt lat="45.81202" lon="1.89167">
        <ele>668.4</ele>
        <time>2024-09-15T12:23:16Z</time>
      </trkpt>
      <trkpt lat="45.81202" lon="1.89167">
        <ele>668.4</ele>
        <time>2024-09-15T12:23:17Z</time>
      </trkpt>
      <trkpt lat="45.81202" lon="1.89167">
        <ele>668.6</ele>
        <time>2024-09-15T12:23:18Z</time>
      </trkpt>
      <trkpt lat="45.81203" lon="1.89166">
        <ele>668.6</ele>
        <time>2024-09-15T12:23:19Z</time>
      </trkpt>
      <trkpt lat="45.81205" lon="1.89165">
        <ele>668.8</ele>
        <time>2024-09-15T12:23:20Z</time>
      </trkpt>
      <trkpt lat="45.81207" lon="1.89163">
        <ele>668.8</ele>
        <time>2024-09-15T12:23:21Z</time>
      </trkpt>
      <trkpt lat="45.81209" lon="1.89162">
        <ele>669</ele>
        <time>2024-09-15T12:23:22Z</time>
      </trkpt>
      <trkpt lat="45.81211" lon="1.89161">
        <ele>669.2</ele>
        <time>2024-09-15T12:23:23Z</time>
      </trkpt>
      <trkpt lat="45.81212" lon="1.8916">
        <ele>669.6</ele>
        <time>2024-09-15T12:23:24Z</time>
      </trkpt>
      <trkpt lat="45.81215" lon="1.89158">
        <ele>669.8</ele>
        <time>2024-09-15T12:23:25Z</time>
      </trkpt>
      <trkpt lat="45.81217" lon="1.89158">
        <ele>670</ele>
        <time>2024-09-15T12:23:26Z</time>
      </trkpt>
      <trkpt lat="45.81219" lon="1.89158">
        <ele>670.4</ele>
        <time>2024-09-15T12:23:27Z</time>
      </trkpt>
      <trkpt lat="45.81221" lon="1.89158">
        <ele>670.6</ele>
        <time>2024-09-15T12:23:28Z</time>
      </trkpt>
      <trkpt lat="45.81224" lon="1.89157">
        <ele>671.2</ele>
        <time>2024-09-15T12:23:29Z</time>
      </trkpt>
      <trkpt lat="45.81224" lon="1.89156">
        <ele>671.4</ele>
        <time>2024-09-15T12:23:30Z</time>
      </trkpt>
      <trkpt lat="45.81226" lon="1.89155">
        <ele>671.6</ele>
        <time>2024-09-15T12:23:31Z</time>
      </trkpt>
      <trkpt lat="45.81228" lon="1.89153">
        <ele>671.6</ele>
        <time>2024-09-15T12:23:32Z</time>
      </trkpt>
      <trkpt lat="45.8123" lon="1.89153">
        <ele>672</ele>
        <time>2024-09-15T12:23:33Z</time>
      </trkpt>
      <trkpt lat="45.81231" lon="1.89152">
        <ele>672</ele>
        <time>2024-09-15T12:23:34Z</time>
      </trkpt>
      <trkpt lat="45.81232" lon="1.89151">
        <ele>672.2</ele>
        <time>2024-09-15T12:23:35Z</time>
      </trkpt>
      <trkpt lat="45.81233" lon="1.89151">
        <ele>672.4</ele>
        <time>2024-09-15T12:23:36Z</time>
      </trkpt>
      <trkpt lat="45.81234" lon="1.89151">
        <ele>672.4</ele>
        <time>2024-09-15T12:23:37Z</time>
      </trkpt>
      <trkpt lat="45.81236" lon="1.89151">
        <ele>672.6</ele>
        <time>2024-09-15T12:23:38Z</time>
      </trkpt>
      <trkpt lat="45.81237" lon="1.89152">
        <ele>672.6</ele>
        <time>2024-09-15T12:23:39Z</time>
      </trkpt>
      <trkpt lat="45.81239" lon="1.89152">
        <ele>672.8</ele>
        <time>2024-09-15T12:23:40Z</time>
      </trkpt>
      <trkpt lat="45.81239" lon="1.89152">
        <ele>672.8</ele>
        <time>2024-09-15T12:23:41Z</time>
      </trkpt>
      <trkpt lat="45.81239" lon="1.89152">
        <ele>673</ele>
        <time>2024-09-15T12:23:42Z</time>
      </trkpt>
      <trkpt lat="45.81242" lon="1.89151">
        <ele>673.2</ele>
        <time>2024-09-15T12:23:43Z</time>
      </trkpt>
      <trkpt lat="45.81244" lon="1.8915">
        <ele>673.6</ele>
        <time>2024-09-15T12:23:44Z</time>
      </trkpt>
      <trkpt lat="45.81247" lon="1.8915">
        <ele>673.6</ele>
        <time>2024-09-15T12:23:45Z</time>
      </trkpt>
      <trkpt lat="45.8125" lon="1.89151">
        <ele>673.8</ele>
        <time>2024-09-15T12:23:46Z</time>
      </trkpt>
      <trkpt lat="45.81253" lon="1.89152">
        <ele>673.8</ele>
        <time>2024-09-15T12:23:47Z</time>
      </trkpt>
      <trkpt lat="45.81253" lon="1.89152">
        <ele>674</ele>
        <time>2024-09-15T12:23:48Z</time>
      </trkpt>
      <trkpt lat="45.81253" lon="1.89152">
        <ele>674.2</ele>
        <time>2024-09-15T12:23:49Z</time>
      </trkpt>
      <trkpt lat="45.81253" lon="1.89152">
        <ele>674.4</ele>
        <time>2024-09-15T12:23:50Z</time>
      </trkpt>
      <trkpt lat="45.81252" lon="1.89151">
        <ele>674.4</ele>
        <time>2024-09-15T12:24:05Z</time>
      </trkpt>
      <trkpt lat="45.81251" lon="1.8915">
        <ele>674.4</ele>
        <time>2024-09-15T12:24:06Z</time>
      </trkpt>
      <trkpt lat="45.8125" lon="1.8915">
        <ele>674.4</ele>
        <time>2024-09-15T12:24:08Z</time>
      </trkpt>
      <trkpt lat="45.8125" lon="1.8915">
        <ele>674.4</ele>
        <time>2024-09-15T12:24:09Z</time>
      </trkpt>
      <trkpt lat="45.81252" lon="1.89147">
        <ele>674.2</ele>
        <time>2024-09-15T12:29:25Z</time>
      </trkpt>
      <trkpt lat="45.81255" lon="1.8914">
        <ele>674.4</ele>
        <time>2024-09-15T12:29:28Z</time>
      </trkpt>
      <trkpt lat="45.81257" lon="1.89133">
        <ele>674.6</ele>
        <time>2024-09-15T12:29:31Z</time>
      </trkpt>
      <trkpt lat="45.81259" lon="1.8913">
        <ele>674.6</ele>
        <time>2024-09-15T12:29:32Z</time>
      </trkpt>
      <trkpt lat="45.8126" lon="1.89128">
        <ele>674.6</ele>
        <time>2024-09-15T12:29:33Z</time>
      </trkpt>
      <trkpt lat="45.8126" lon="1.89125">
        <ele>674.6</ele>
        <time>2024-09-15T12:29:34Z</time>
      </trkpt>
      <trkpt lat="45.81262" lon="1.89119">
        <ele>674.6</ele>
        <time>2024-09-15T12:29:36Z</time>
      </trkpt>
      <trkpt lat="45.81263" lon="1.89116">
        <ele>674.6</ele>
        <time>2024-09-15T12:29:37Z</time>
      </trkpt>
      <trkpt lat="45.81267" lon="1.89106">
        <ele>674.4</ele>
        <time>2024-09-15T12:29:40Z</time>
      </trkpt>
      <trkpt lat="45.81268" lon="1.89102">
        <ele>674.4</ele>
        <time>2024-09-15T12:29:41Z</time>
      </trkpt>
      <trkpt lat="45.8127" lon="1.89098">
        <ele>674.4</ele>
        <time>2024-09-15T12:29:42Z</time>
      </trkpt>
      <trkpt lat="45.81271" lon="1.89093">
        <ele>674.6</ele>
        <time>2024-09-15T12:29:43Z</time>
      </trkpt>
      <trkpt lat="45.81274" lon="1.89085">
        <ele>674.8</ele>
        <time>2024-09-15T12:29:45Z</time>
      </trkpt>
      <trkpt lat="45.81276" lon="1.89082">
        <ele>674.8</ele>
        <time>2024-09-15T12:29:46Z</time>
      </trkpt>
      <trkpt lat="45.81277" lon="1.89078">
        <ele>674.6</ele>
        <time>2024-09-15T12:29:47Z</time>
      </trkpt>
      <trkpt lat="45.81278" lon="1.89066">
        <ele>674.6</ele>
        <time>2024-09-15T12:29:49Z</time>
      </trkpt>
      <trkpt lat="45.81279" lon="1.8906">
        <ele>674.6</ele>
        <time>2024-09-15T12:29:50Z</time>
      </trkpt>
      <trkpt lat="45.81279" lon="1.89054">
        <ele>674.6</ele>
        <time>2024-09-15T12:29:51Z</time>
      </trkpt>
      <trkpt lat="45.81279" lon="1.89049">
        <ele>674.6</ele>
        <time>2024-09-15T12:29:52Z</time>
      </trkpt>
      <trkpt lat="45.81277" lon="1.89042">
        <ele>674.6</ele>
        <time>2024-09-15T12:29:53Z</time>
      </trkpt>
      <trkpt lat="45.81275" lon="1.89036">
        <ele>674.4</ele>
        <time>2024-09-15T12:29:54Z</time>
      </trkpt>
      <trkpt lat="45.81272" lon="1.8903">
        <ele>674.4</ele>
        <time>2024-09-15T12:29:55Z</time>
      </trkpt>
      <trkpt lat="45.81269" lon="1.89024">
        <ele>674</ele>
        <time>2024-09-15T12:29:56Z</time>
      </trkpt>
      <trkpt lat="45.81266" lon="1.8902">
        <ele>674</ele>
        <time>2024-09-15T12:29:57Z</time>
      </trkpt>
      <trkpt lat="45.81265" lon="1.89016">
        <ele>674</ele>
        <time>2024-09-15T12:29:58Z</time>
      </trkpt>
      <trkpt lat="45.81262" lon="1.89011">
        <ele>673.8</ele>
        <time>2024-09-15T12:29:59Z</time>
      </trkpt>
      <trkpt lat="45.81259" lon="1.89008">
        <ele>673.8</ele>
        <time>2024-09-15T12:30:00Z</time>
      </trkpt>
      <trkpt lat="45.81257" lon="1.89004">
        <ele>673.8</ele>
        <time>2024-09-15T12:30:01Z</time>
      </trkpt>
      <trkpt lat="45.81254" lon="1.89">
        <ele>673.8</ele>
        <time>2024-09-15T12:30:02Z</time>
      </trkpt>
      <trkpt lat="45.81251" lon="1.88995">
        <ele>674</ele>
        <time>2024-09-15T12:30:03Z</time>
      </trkpt>
      <trkpt lat="45.81244" lon="1.88986">
        <ele>674.2</ele>
        <time>2024-09-15T12:30:05Z</time>
      </trkpt>
      <trkpt lat="45.81243" lon="1.88984">
        <ele>674.4</ele>
        <time>2024-09-15T12:30:06Z</time>
      </trkpt>
      <trkpt lat="45.81241" lon="1.88981">
        <ele>674.6</ele>
        <time>2024-09-15T12:30:07Z</time>
      </trkpt>
      <trkpt lat="45.81239" lon="1.88977">
        <ele>674.8</ele>
        <time>2024-09-15T12:30:08Z</time>
      </trkpt>
      <trkpt lat="45.81238" lon="1.88974">
        <ele>675</ele>
        <time>2024-09-15T12:30:09Z</time>
      </trkpt>
      <trkpt lat="45.81237" lon="1.8897">
        <ele>675.2</ele>
        <time>2024-09-15T12:30:10Z</time>
      </trkpt>
      <trkpt lat="45.81235" lon="1.88968">
        <ele>675.2</ele>
        <time>2024-09-15T12:30:11Z</time>
      </trkpt>
      <trkpt lat="45.81234" lon="1.88964">
        <ele>675.2</ele>
        <time>2024-09-15T12:30:12Z</time>
      </trkpt>
      <trkpt lat="45.81232" lon="1.8896">
        <ele>675.6</ele>
        <time>2024-09-15T12:30:13Z</time>
      </trkpt>
      <trkpt lat="45.81231" lon="1.88957">
        <ele>675.6</ele>
        <time>2024-09-15T12:30:14Z</time>
      </trkpt>
      <trkpt lat="45.81227" lon="1.88945">
        <ele>676.6</ele>
        <time>2024-09-15T12:30:17Z</time>
      </trkpt>
      <trkpt lat="45.81225" lon="1.88934">
        <ele>677</ele>
        <time>2024-09-15T12:30:20Z</time>
      </trkpt>
      <trkpt lat="45.81224" lon="1.88926">
        <ele>677.2</ele>
        <time>2024-09-15T12:30:22Z</time>
      </trkpt>
      <trkpt lat="45.81224" lon="1.88923">
        <ele>677.4</ele>
        <time>2024-09-15T12:30:23Z</time>
      </trkpt>
      <trkpt lat="45.81224" lon="1.88919">
        <ele>677.4</ele>
        <time>2024-09-15T12:30:24Z</time>
      </trkpt>
      <trkpt lat="45.81225" lon="1.88917">
        <ele>677.4</ele>
        <time>2024-09-15T12:30:25Z</time>
      </trkpt>
      <trkpt lat="45.81227" lon="1.88914">
        <ele>677.4</ele>
        <time>2024-09-15T12:30:26Z</time>
      </trkpt>
      <trkpt lat="45.81228" lon="1.88911">
        <ele>677.4</ele>
        <time>2024-09-15T12:30:27Z</time>
      </trkpt>
      <trkpt lat="45.8123" lon="1.88907">
        <ele>677.6</ele>
        <time>2024-09-15T12:30:28Z</time>
      </trkpt>
      <trkpt lat="45.8123" lon="1.88905">
        <ele>677.6</ele>
        <time>2024-09-15T12:30:29Z</time>
      </trkpt>
      <trkpt lat="45.81231" lon="1.88902">
        <ele>678</ele>
        <time>2024-09-15T12:30:30Z</time>
      </trkpt>
      <trkpt lat="45.81231" lon="1.889">
        <ele>678.2</ele>
        <time>2024-09-15T12:30:31Z</time>
      </trkpt>
      <trkpt lat="45.8123" lon="1.88898">
        <ele>678.4</ele>
        <time>2024-09-15T12:30:32Z</time>
      </trkpt>
      <trkpt lat="45.8123" lon="1.88895">
        <ele>678.6</ele>
        <time>2024-09-15T12:30:33Z</time>
      </trkpt>
      <trkpt lat="45.81228" lon="1.88892">
        <ele>678.8</ele>
        <time>2024-09-15T12:30:34Z</time>
      </trkpt>
      <trkpt lat="45.81227" lon="1.88889">
        <ele>679</ele>
        <time>2024-09-15T12:30:35Z</time>
      </trkpt>
      <trkpt lat="45.81226" lon="1.88885">
        <ele>679</ele>
        <time>2024-09-15T12:30:36Z</time>
      </trkpt>
      <trkpt lat="45.81223" lon="1.88882">
        <ele>679.2</ele>
        <time>2024-09-15T12:30:37Z</time>
      </trkpt>
      <trkpt lat="45.81221" lon="1.88878">
        <ele>679.2</ele>
        <time>2024-09-15T12:30:38Z</time>
      </trkpt>
      <trkpt lat="45.8122" lon="1.88874">
        <ele>679.2</ele>
        <time>2024-09-15T12:30:39Z</time>
      </trkpt>
      <trkpt lat="45.81221" lon="1.88868">
        <ele>679.4</ele>
        <time>2024-09-15T12:30:40Z</time>
      </trkpt>
      <trkpt lat="45.81222" lon="1.88864">
        <ele>679.2</ele>
        <time>2024-09-15T12:30:41Z</time>
      </trkpt>
      <trkpt lat="45.81224" lon="1.88861">
        <ele>679.2</ele>
        <time>2024-09-15T12:30:42Z</time>
      </trkpt>
      <trkpt lat="45.81226" lon="1.88859">
        <ele>679.2</ele>
        <time>2024-09-15T12:30:43Z</time>
      </trkpt>
      <trkpt lat="45.81229" lon="1.88856">
        <ele>679.2</ele>
        <time>2024-09-15T12:30:44Z</time>
      </trkpt>
      <trkpt lat="45.81232" lon="1.88854">
        <ele>679.2</ele>
        <time>2024-09-15T12:30:45Z</time>
      </trkpt>
      <trkpt lat="45.81233" lon="1.8885">
        <ele>679.2</ele>
        <time>2024-09-15T12:30:46Z</time>
      </trkpt>
      <trkpt lat="45.81234" lon="1.88846">
        <ele>679.2</ele>
        <time>2024-09-15T12:30:47Z</time>
      </trkpt>
      <trkpt lat="45.81233" lon="1.88842">
        <ele>679.4</ele>
        <time>2024-09-15T12:30:48Z</time>
      </trkpt>
      <trkpt lat="45.81231" lon="1.88838">
        <ele>679.4</ele>
        <time>2024-09-15T12:30:49Z</time>
      </trkpt>
      <trkpt lat="45.81228" lon="1.88829">
        <ele>679.8</ele>
        <time>2024-09-15T12:30:51Z</time>
      </trkpt>
      <trkpt lat="45.81226" lon="1.88824">
        <ele>679.6</ele>
        <time>2024-09-15T12:30:52Z</time>
      </trkpt>
      <trkpt lat="45.8122" lon="1.88814">
        <ele>680</ele>
        <time>2024-09-15T12:30:54Z</time>
      </trkpt>
      <trkpt lat="45.81215" lon="1.88804">
        <ele>680</ele>
        <time>2024-09-15T12:30:56Z</time>
      </trkpt>
      <trkpt lat="45.81201" lon="1.88771">
        <ele>679</ele>
        <time>2024-09-15T12:31:02Z</time>
      </trkpt>
      <trkpt lat="45.81198" lon="1.88766">
        <ele>679</ele>
        <time>2024-09-15T12:31:03Z</time>
      </trkpt>
      <trkpt lat="45.81192" lon="1.88752">
        <ele>678.8</ele>
        <time>2024-09-15T12:31:06Z</time>
      </trkpt>
      <trkpt lat="45.81183" lon="1.88734">
        <ele>678.8</ele>
        <time>2024-09-15T12:31:10Z</time>
      </trkpt>
      <trkpt lat="45.81181" lon="1.8873">
        <ele>678.8</ele>
        <time>2024-09-15T12:31:11Z</time>
      </trkpt>
      <trkpt lat="45.81179" lon="1.88726">
        <ele>678.8</ele>
        <time>2024-09-15T12:31:12Z</time>
      </trkpt>
      <trkpt lat="45.81177" lon="1.88722">
        <ele>679</ele>
        <time>2024-09-15T12:31:13Z</time>
      </trkpt>
      <trkpt lat="45.81175" lon="1.88718">
        <ele>679</ele>
        <time>2024-09-15T12:31:14Z</time>
      </trkpt>
      <trkpt lat="45.81172" lon="1.88715">
        <ele>679</ele>
        <time>2024-09-15T12:31:15Z</time>
      </trkpt>
      <trkpt lat="45.8117" lon="1.8871">
        <ele>679.2</ele>
        <time>2024-09-15T12:31:16Z</time>
      </trkpt>
      <trkpt lat="45.81168" lon="1.88706">
        <ele>679.2</ele>
        <time>2024-09-15T12:31:17Z</time>
      </trkpt>
      <trkpt lat="45.81151" lon="1.88675">
        <ele>679.2</ele>
        <time>2024-09-15T12:31:24Z</time>
      </trkpt>
      <trkpt lat="45.8115" lon="1.88672">
        <ele>679.2</ele>
        <time>2024-09-15T12:31:25Z</time>
      </trkpt>
      <trkpt lat="45.81151" lon="1.88669">
        <ele>679.2</ele>
        <time>2024-09-15T12:31:26Z</time>
      </trkpt>
      <trkpt lat="45.81151" lon="1.88667">
        <ele>679.4</ele>
        <time>2024-09-15T12:31:27Z</time>
      </trkpt>
      <trkpt lat="45.81149" lon="1.88665">
        <ele>679.4</ele>
        <time>2024-09-15T12:31:28Z</time>
      </trkpt>
      <trkpt lat="45.81147" lon="1.88663">
        <ele>679.4</ele>
        <time>2024-09-15T12:31:29Z</time>
      </trkpt>
      <trkpt lat="45.81144" lon="1.88661">
        <ele>679.4</ele>
        <time>2024-09-15T12:31:30Z</time>
      </trkpt>
      <trkpt lat="45.81142" lon="1.88659">
        <ele>679.4</ele>
        <time>2024-09-15T12:31:31Z</time>
      </trkpt>
      <trkpt lat="45.8114" lon="1.88658">
        <ele>679.4</ele>
        <time>2024-09-15T12:31:32Z</time>
      </trkpt>
      <trkpt lat="45.81137" lon="1.88658">
        <ele>679.6</ele>
        <time>2024-09-15T12:31:33Z</time>
      </trkpt>
      <trkpt lat="45.81135" lon="1.88659">
        <ele>679.6</ele>
        <time>2024-09-15T12:31:34Z</time>
      </trkpt>
      <trkpt lat="45.81133" lon="1.8866">
        <ele>679.6</ele>
        <time>2024-09-15T12:31:35Z</time>
      </trkpt>
      <trkpt lat="45.8113" lon="1.88661">
        <ele>679.6</ele>
        <time>2024-09-15T12:31:36Z</time>
      </trkpt>
      <trkpt lat="45.81127" lon="1.88661">
        <ele>679.4</ele>
        <time>2024-09-15T12:31:37Z</time>
      </trkpt>
      <trkpt lat="45.81117" lon="1.88661">
        <ele>679.2</ele>
        <time>2024-09-15T12:31:40Z</time>
      </trkpt>
      <trkpt lat="45.81115" lon="1.88661">
        <ele>679.2</ele>
        <time>2024-09-15T12:31:41Z</time>
      </trkpt>
      <trkpt lat="45.81112" lon="1.88661">
        <ele>679.2</ele>
        <time>2024-09-15T12:31:42Z</time>
      </trkpt>
      <trkpt lat="45.81095" lon="1.8866">
        <ele>678.4</ele>
        <time>2024-09-15T12:31:46Z</time>
      </trkpt>
      <trkpt lat="45.81088" lon="1.88657">
        <ele>678.2</ele>
        <time>2024-09-15T12:31:48Z</time>
      </trkpt>
      <trkpt lat="45.81084" lon="1.88655">
        <ele>677.8</ele>
        <time>2024-09-15T12:31:49Z</time>
      </trkpt>
      <trkpt lat="45.81081" lon="1.88653">
        <ele>677.8</ele>
        <time>2024-09-15T12:31:50Z</time>
      </trkpt>
      <trkpt lat="45.81079" lon="1.88651">
        <ele>677.6</ele>
        <time>2024-09-15T12:31:51Z</time>
      </trkpt>
      <trkpt lat="45.81076" lon="1.8865">
        <ele>677.4</ele>
        <time>2024-09-15T12:31:52Z</time>
      </trkpt>
      <trkpt lat="45.81075" lon="1.88647">
        <ele>677</ele>
        <time>2024-09-15T12:31:53Z</time>
      </trkpt>
      <trkpt lat="45.81074" lon="1.88645">
        <ele>676.8</ele>
        <time>2024-09-15T12:31:54Z</time>
      </trkpt>
      <trkpt lat="45.81072" lon="1.88642">
        <ele>676.6</ele>
        <time>2024-09-15T12:31:55Z</time>
      </trkpt>
      <trkpt lat="45.8107" lon="1.88639">
        <ele>676.4</ele>
        <time>2024-09-15T12:31:56Z</time>
      </trkpt>
      <trkpt lat="45.81061" lon="1.88627">
        <ele>676</ele>
        <time>2024-09-15T12:31:59Z</time>
      </trkpt>
      <trkpt lat="45.81055" lon="1.8862">
        <ele>675.8</ele>
        <time>2024-09-15T12:32:00Z</time>
      </trkpt>
      <trkpt lat="45.81049" lon="1.88615">
        <ele>675.6</ele>
        <time>2024-09-15T12:32:01Z</time>
      </trkpt>
      <trkpt lat="45.81045" lon="1.88611">
        <ele>675</ele>
        <time>2024-09-15T12:32:02Z</time>
      </trkpt>
      <trkpt lat="45.81042" lon="1.88609">
        <ele>674.8</ele>
        <time>2024-09-15T12:32:03Z</time>
      </trkpt>
      <trkpt lat="45.81038" lon="1.88609">
        <ele>674.2</ele>
        <time>2024-09-15T12:32:04Z</time>
      </trkpt>
      <trkpt lat="45.81034" lon="1.88609">
        <ele>674.2</ele>
        <time>2024-09-15T12:32:05Z</time>
      </trkpt>
      <trkpt lat="45.8103" lon="1.88607">
        <ele>674</ele>
        <time>2024-09-15T12:32:06Z</time>
      </trkpt>
      <trkpt lat="45.81028" lon="1.88605">
        <ele>674</ele>
        <time>2024-09-15T12:32:07Z</time>
      </trkpt>
      <trkpt lat="45.81026" lon="1.88606">
        <ele>674</ele>
        <time>2024-09-15T12:32:08Z</time>
      </trkpt>
      <trkpt lat="45.81026" lon="1.88606">
        <ele>674</ele>
        <time>2024-09-15T12:32:09Z</time>
      </trkpt>
      <trkpt lat="45.81025" lon="1.88606">
        <ele>674</ele>
        <time>2024-09-15T12:32:10Z</time>
      </trkpt>
      <trkpt lat="45.81025" lon="1.88607">
        <ele>674</ele>
        <time>2024-09-15T12:32:11Z</time>
      </trkpt>
      <trkpt lat="45.81024" lon="1.88607">
        <ele>674</ele>
        <time>2024-09-15T12:32:12Z</time>
      </trkpt>
      <trkpt lat="45.81024" lon="1.88608">
        <ele>674</ele>
        <time>2024-09-15T12:32:13Z</time>
      </trkpt>
      <trkpt lat="45.81024" lon="1.88608">
        <ele>673.6</ele>
        <time>2024-09-15T12:32:14Z</time>
      </trkpt>
      <trkpt lat="45.81023" lon="1.88609">
        <ele>673</ele>
        <time>2024-09-15T12:32:15Z</time>
      </trkpt>
      <trkpt lat="45.81023" lon="1.88609">
        <ele>672.8</ele>
        <time>2024-09-15T12:32:16Z</time>
      </trkpt>
      <trkpt lat="45.81022" lon="1.8861">
        <ele>672.6</ele>
        <time>2024-09-15T12:32:17Z</time>
      </trkpt>
      <trkpt lat="45.81022" lon="1.8861">
        <ele>672.2</ele>
        <time>2024-09-15T12:32:18Z</time>
      </trkpt>
      <trkpt lat="45.81021" lon="1.8861">
        <ele>672</ele>
        <time>2024-09-15T12:32:20Z</time>
      </trkpt>
      <trkpt lat="45.81021" lon="1.88611">
        <ele>671.8</ele>
        <time>2024-09-15T12:32:21Z</time>
      </trkpt>
      <trkpt lat="45.8102" lon="1.88611">
        <ele>671.8</ele>
        <time>2024-09-15T12:32:22Z</time>
      </trkpt>
      <trkpt lat="45.81015" lon="1.8862">
        <ele>671.8</ele>
        <time>2024-09-15T12:32:23Z</time>
      </trkpt>
      <trkpt lat="45.80999" lon="1.88638">
        <ele>671.8</ele>
        <time>2024-09-15T12:32:25Z</time>
      </trkpt>
      <trkpt lat="45.80979" lon="1.88659">
        <ele>672</ele>
        <time>2024-09-15T12:32:28Z</time>
      </trkpt>
      <trkpt lat="45.80972" lon="1.88667">
        <ele>672.2</ele>
        <time>2024-09-15T12:32:29Z</time>
      </trkpt>
      <trkpt lat="45.80956" lon="1.8868">
        <ele>672.8</ele>
        <time>2024-09-15T12:32:32Z</time>
      </trkpt>
      <trkpt lat="45.80948" lon="1.88687">
        <ele>673.2</ele>
        <time>2024-09-15T12:32:34Z</time>
      </trkpt>
      <trkpt lat="45.8093" lon="1.887">
        <ele>674</ele>
        <time>2024-09-15T12:32:39Z</time>
      </trkpt>
      <trkpt lat="45.80923" lon="1.88702">
        <ele>674.2</ele>
        <time>2024-09-15T12:32:41Z</time>
      </trkpt>
      <trkpt lat="45.80916" lon="1.88704">
        <ele>674.6</ele>
        <time>2024-09-15T12:32:44Z</time>
      </trkpt>
      <trkpt lat="45.80915" lon="1.88703">
        <ele>674.8</ele>
        <time>2024-09-15T12:32:45Z</time>
      </trkpt>
      <trkpt lat="45.80914" lon="1.88703">
        <ele>674.8</ele>
        <time>2024-09-15T12:32:46Z</time>
      </trkpt>
      <trkpt lat="45.80912" lon="1.88705">
        <ele>675.2</ele>
        <time>2024-09-15T12:32:47Z</time>
      </trkpt>
      <trkpt lat="45.80909" lon="1.88705">
        <ele>675.2</ele>
        <time>2024-09-15T12:32:48Z</time>
      </trkpt>
      <trkpt lat="45.80906" lon="1.88706">
        <ele>675.6</ele>
        <time>2024-09-15T12:32:49Z</time>
      </trkpt>
      <trkpt lat="45.80904" lon="1.88707">
        <ele>676</ele>
        <time>2024-09-15T12:32:50Z</time>
      </trkpt>
      <trkpt lat="45.80901" lon="1.8871">
        <ele>676.2</ele>
        <time>2024-09-15T12:32:51Z</time>
      </trkpt>
      <trkpt lat="45.80899" lon="1.88711">
        <ele>676.4</ele>
        <time>2024-09-15T12:32:52Z</time>
      </trkpt>
      <trkpt lat="45.80897" lon="1.88713">
        <ele>676.6</ele>
        <time>2024-09-15T12:32:53Z</time>
      </trkpt>
      <trkpt lat="45.80895" lon="1.88714">
        <ele>676.8</ele>
        <time>2024-09-15T12:32:54Z</time>
      </trkpt>
      <trkpt lat="45.80891" lon="1.88716">
        <ele>677</ele>
        <time>2024-09-15T12:32:55Z</time>
      </trkpt>
      <trkpt lat="45.80888" lon="1.88717">
        <ele>677.2</ele>
        <time>2024-09-15T12:32:56Z</time>
      </trkpt>
      <trkpt lat="45.80886" lon="1.88716">
        <ele>677.4</ele>
        <time>2024-09-15T12:32:57Z</time>
      </trkpt>
      <trkpt lat="45.80884" lon="1.88718">
        <ele>677.8</ele>
        <time>2024-09-15T12:32:58Z</time>
      </trkpt>
      <trkpt lat="45.80884" lon="1.8872">
        <ele>677.8</ele>
        <time>2024-09-15T12:32:59Z</time>
      </trkpt>
      <trkpt lat="45.80883" lon="1.88723">
        <ele>678</ele>
        <time>2024-09-15T12:33:00Z</time>
      </trkpt>
      <trkpt lat="45.80881" lon="1.88725">
        <ele>678.2</ele>
        <time>2024-09-15T12:33:01Z</time>
      </trkpt>
      <trkpt lat="45.8088" lon="1.88726">
        <ele>678.4</ele>
        <time>2024-09-15T12:33:02Z</time>
      </trkpt>
      <trkpt lat="45.80877" lon="1.88729">
        <ele>678.6</ele>
        <time>2024-09-15T12:33:03Z</time>
      </trkpt>
      <trkpt lat="45.80875" lon="1.88731">
        <ele>678.6</ele>
        <time>2024-09-15T12:33:04Z</time>
      </trkpt>
      <trkpt lat="45.80871" lon="1.88733">
        <ele>678.8</ele>
        <time>2024-09-15T12:33:05Z</time>
      </trkpt>
      <trkpt lat="45.80868" lon="1.88735">
        <ele>678.8</ele>
        <time>2024-09-15T12:33:06Z</time>
      </trkpt>
      <trkpt lat="45.80864" lon="1.88735">
        <ele>678.8</ele>
        <time>2024-09-15T12:33:07Z</time>
      </trkpt>
      <trkpt lat="45.80862" lon="1.88735">
        <ele>679</ele>
        <time>2024-09-15T12:33:08Z</time>
      </trkpt>
      <trkpt lat="45.80858" lon="1.88736">
        <ele>679</ele>
        <time>2024-09-15T12:33:09Z</time>
      </trkpt>
      <trkpt lat="45.80856" lon="1.88736">
        <ele>679.2</ele>
        <time>2024-09-15T12:33:10Z</time>
      </trkpt>
      <trkpt lat="45.80856" lon="1.88736">
        <ele>679.2</ele>
        <time>2024-09-15T12:33:11Z</time>
      </trkpt>
      <trkpt lat="45.80855" lon="1.88734">
        <ele>679.2</ele>
        <time>2024-09-15T12:33:12Z</time>
      </trkpt>
      <trkpt lat="45.80854" lon="1.88731">
        <ele>679.4</ele>
        <time>2024-09-15T12:33:13Z</time>
      </trkpt>
      <trkpt lat="45.80853" lon="1.88728">
        <ele>679.6</ele>
        <time>2024-09-15T12:33:14Z</time>
      </trkpt>
      <trkpt lat="45.8085" lon="1.88724">
        <ele>679.8</ele>
        <time>2024-09-15T12:33:15Z</time>
      </trkpt>
      <trkpt lat="45.80848" lon="1.88721">
        <ele>680.2</ele>
        <time>2024-09-15T12:33:16Z</time>
      </trkpt>
      <trkpt lat="45.80845" lon="1.88719">
        <ele>680.2</ele>
        <time>2024-09-15T12:33:17Z</time>
      </trkpt>
      <trkpt lat="45.80843" lon="1.88718">
        <ele>680.4</ele>
        <time>2024-09-15T12:33:18Z</time>
      </trkpt>
      <trkpt lat="45.8084" lon="1.88717">
        <ele>680.6</ele>
        <time>2024-09-15T12:33:19Z</time>
      </trkpt>
      <trkpt lat="45.80839" lon="1.88715">
        <ele>680.8</ele>
        <time>2024-09-15T12:33:20Z</time>
      </trkpt>
      <trkpt lat="45.80837" lon="1.88714">
        <ele>680.8</ele>
        <time>2024-09-15T12:33:21Z</time>
      </trkpt>
      <trkpt lat="45.80836" lon="1.88712">
        <ele>681</ele>
        <time>2024-09-15T12:33:22Z</time>
      </trkpt>
      <trkpt lat="45.80834" lon="1.8871">
        <ele>681</ele>
        <time>2024-09-15T12:33:23Z</time>
      </trkpt>
      <trkpt lat="45.80834" lon="1.88708">
        <ele>681.2</ele>
        <time>2024-09-15T12:33:24Z</time>
      </trkpt>
      <trkpt lat="45.80834" lon="1.88706">
        <ele>681.2</ele>
        <time>2024-09-15T12:33:25Z</time>
      </trkpt>
      <trkpt lat="45.80834" lon="1.88704">
        <ele>681.2</ele>
        <time>2024-09-15T12:33:26Z</time>
      </trkpt>
      <trkpt lat="45.80834" lon="1.887">
        <ele>681.4</ele>
        <time>2024-09-15T12:33:27Z</time>
      </trkpt>
      <trkpt lat="45.80834" lon="1.88697">
        <ele>681.4</ele>
        <time>2024-09-15T12:33:28Z</time>
      </trkpt>
      <trkpt lat="45.80834" lon="1.88695">
        <ele>681.4</ele>
        <time>2024-09-15T12:33:29Z</time>
      </trkpt>
      <trkpt lat="45.80835" lon="1.88694">
        <ele>681.6</ele>
        <time>2024-09-15T12:33:30Z</time>
      </trkpt>
      <trkpt lat="45.80835" lon="1.88694">
        <ele>681.8</ele>
        <time>2024-09-15T12:33:31Z</time>
      </trkpt>
      <trkpt lat="45.80835" lon="1.88693">
        <ele>682</ele>
        <time>2024-09-15T12:33:32Z</time>
      </trkpt>
      <trkpt lat="45.80836" lon="1.88692">
        <ele>682.4</ele>
        <time>2024-09-15T12:33:33Z</time>
      </trkpt>
      <trkpt lat="45.80837" lon="1.8869">
        <ele>682.4</ele>
        <time>2024-09-15T12:33:34Z</time>
      </trkpt>
      <trkpt lat="45.80838" lon="1.88688">
        <ele>682.8</ele>
        <time>2024-09-15T12:33:35Z</time>
      </trkpt>
      <trkpt lat="45.8084" lon="1.88687">
        <ele>683</ele>
        <time>2024-09-15T12:33:36Z</time>
      </trkpt>
      <trkpt lat="45.80842" lon="1.88685">
        <ele>683.4</ele>
        <time>2024-09-15T12:33:37Z</time>
      </trkpt>
      <trkpt lat="45.80844" lon="1.88682">
        <ele>683.4</ele>
        <time>2024-09-15T12:33:38Z</time>
      </trkpt>
      <trkpt lat="45.80846" lon="1.88679">
        <ele>683.6</ele>
        <time>2024-09-15T12:33:39Z</time>
      </trkpt>
      <trkpt lat="45.80847" lon="1.88676">
        <ele>683.8</ele>
        <time>2024-09-15T12:33:40Z</time>
      </trkpt>
      <trkpt lat="45.80848" lon="1.88672">
        <ele>683.8</ele>
        <time>2024-09-15T12:33:41Z</time>
      </trkpt>
      <trkpt lat="45.80848" lon="1.88669">
        <ele>684</ele>
        <time>2024-09-15T12:33:42Z</time>
      </trkpt>
      <trkpt lat="45.8085" lon="1.88665">
        <ele>684.2</ele>
        <time>2024-09-15T12:33:43Z</time>
      </trkpt>
      <trkpt lat="45.80851" lon="1.88661">
        <ele>684.6</ele>
        <time>2024-09-15T12:33:44Z</time>
      </trkpt>
      <trkpt lat="45.80852" lon="1.88657">
        <ele>684.6</ele>
        <time>2024-09-15T12:33:45Z</time>
      </trkpt>
      <trkpt lat="45.80851" lon="1.88654">
        <ele>684.8</ele>
        <time>2024-09-15T12:33:46Z</time>
      </trkpt>
      <trkpt lat="45.80851" lon="1.88651">
        <ele>685</ele>
        <time>2024-09-15T12:33:47Z</time>
      </trkpt>
      <trkpt lat="45.80851" lon="1.88648">
        <ele>685.4</ele>
        <time>2024-09-15T12:33:48Z</time>
      </trkpt>
      <trkpt lat="45.80851" lon="1.88645">
        <ele>685.4</ele>
        <time>2024-09-15T12:33:49Z</time>
      </trkpt>
      <trkpt lat="45.80851" lon="1.88642">
        <ele>685.6</ele>
        <time>2024-09-15T12:33:50Z</time>
      </trkpt>
      <trkpt lat="45.80851" lon="1.88639">
        <ele>685.6</ele>
        <time>2024-09-15T12:33:51Z</time>
      </trkpt>
      <trkpt lat="45.80851" lon="1.88634">
        <ele>685.8</ele>
        <time>2024-09-15T12:33:52Z</time>
      </trkpt>
      <trkpt lat="45.80851" lon="1.88629">
        <ele>686</ele>
        <time>2024-09-15T12:33:53Z</time>
      </trkpt>
      <trkpt lat="45.80852" lon="1.88625">
        <ele>686</ele>
        <time>2024-09-15T12:33:54Z</time>
      </trkpt>
      <trkpt lat="45.80853" lon="1.88621">
        <ele>686.2</ele>
        <time>2024-09-15T12:33:55Z</time>
      </trkpt>
      <trkpt lat="45.80853" lon="1.88617">
        <ele>686.2</ele>
        <time>2024-09-15T12:33:56Z</time>
      </trkpt>
      <trkpt lat="45.80852" lon="1.88614">
        <ele>686.4</ele>
        <time>2024-09-15T12:33:57Z</time>
      </trkpt>
      <trkpt lat="45.80852" lon="1.88612">
        <ele>686.6</ele>
        <time>2024-09-15T12:33:58Z</time>
      </trkpt>
      <trkpt lat="45.80851" lon="1.88609">
        <ele>687</ele>
        <time>2024-09-15T12:33:59Z</time>
      </trkpt>
      <trkpt lat="45.80851" lon="1.88607">
        <ele>687.2</ele>
        <time>2024-09-15T12:34:00Z</time>
      </trkpt>
      <trkpt lat="45.8085" lon="1.88604">
        <ele>687.2</ele>
        <time>2024-09-15T12:34:01Z</time>
      </trkpt>
      <trkpt lat="45.80848" lon="1.88602">
        <ele>687.4</ele>
        <time>2024-09-15T12:34:02Z</time>
      </trkpt>
      <trkpt lat="45.80847" lon="1.886">
        <ele>687.4</ele>
        <time>2024-09-15T12:34:03Z</time>
      </trkpt>
      <trkpt lat="45.80846" lon="1.88598">
        <ele>687.6</ele>
        <time>2024-09-15T12:34:04Z</time>
      </trkpt>
      <trkpt lat="45.80846" lon="1.88594">
        <ele>687.6</ele>
        <time>2024-09-15T12:34:05Z</time>
      </trkpt>
      <trkpt lat="45.80846" lon="1.88591">
        <ele>687.6</ele>
        <time>2024-09-15T12:34:06Z</time>
      </trkpt>
      <trkpt lat="45.80847" lon="1.88588">
        <ele>687.6</ele>
        <time>2024-09-15T12:34:07Z</time>
      </trkpt>
      <trkpt lat="45.80846" lon="1.88586">
        <ele>687.6</ele>
        <time>2024-09-15T12:34:08Z</time>
      </trkpt>
      <trkpt lat="45.80844" lon="1.88583">
        <ele>687.8</ele>
        <time>2024-09-15T12:34:09Z</time>
      </trkpt>
      <trkpt lat="45.80841" lon="1.88579">
        <ele>688</ele>
        <time>2024-09-15T12:34:10Z</time>
      </trkpt>
      <trkpt lat="45.8084" lon="1.88575">
        <ele>688</ele>
        <time>2024-09-15T12:34:11Z</time>
      </trkpt>
      <trkpt lat="45.80839" lon="1.8857">
        <ele>688.2</ele>
        <time>2024-09-15T12:34:12Z</time>
      </trkpt>
      <trkpt lat="45.80838" lon="1.88567">
        <ele>688.2</ele>
        <time>2024-09-15T12:34:13Z</time>
      </trkpt>
      <trkpt lat="45.80836" lon="1.88563">
        <ele>688.2</ele>
        <time>2024-09-15T12:34:14Z</time>
      </trkpt>
      <trkpt lat="45.80834" lon="1.88559">
        <ele>688.4</ele>
        <time>2024-09-15T12:34:15Z</time>
      </trkpt>
      <trkpt lat="45.80832" lon="1.88555">
        <ele>688.4</ele>
        <time>2024-09-15T12:34:16Z</time>
      </trkpt>
      <trkpt lat="45.80829" lon="1.8855">
        <ele>688.4</ele>
        <time>2024-09-15T12:34:17Z</time>
      </trkpt>
      <trkpt lat="45.80827" lon="1.88545">
        <ele>688.2</ele>
        <time>2024-09-15T12:34:18Z</time>
      </trkpt>
      <trkpt lat="45.80825" lon="1.8854">
        <ele>688.2</ele>
        <time>2024-09-15T12:34:19Z</time>
      </trkpt>
      <trkpt lat="45.80824" lon="1.88536">
        <ele>688.2</ele>
        <time>2024-09-15T12:34:20Z</time>
      </trkpt>
      <trkpt lat="45.80823" lon="1.88534">
        <ele>688.2</ele>
        <time>2024-09-15T12:34:21Z</time>
      </trkpt>
      <trkpt lat="45.80821" lon="1.88531">
        <ele>688</ele>
        <time>2024-09-15T12:34:22Z</time>
      </trkpt>
      <trkpt lat="45.8082" lon="1.88527">
        <ele>688</ele>
        <time>2024-09-15T12:34:23Z</time>
      </trkpt>
      <trkpt lat="45.80815" lon="1.8852">
        <ele>688</ele>
        <time>2024-09-15T12:34:24Z</time>
      </trkpt>
      <trkpt lat="45.80813" lon="1.88516">
        <ele>688</ele>
        <time>2024-09-15T12:34:25Z</time>
      </trkpt>
      <trkpt lat="45.80811" lon="1.88513">
        <ele>687.8</ele>
        <time>2024-09-15T12:34:27Z</time>
      </trkpt>
      <trkpt lat="45.80809" lon="1.88511">
        <ele>687.8</ele>
        <time>2024-09-15T12:34:28Z</time>
      </trkpt>
      <trkpt lat="45.80808" lon="1.88511">
        <ele>687.6</ele>
        <time>2024-09-15T12:34:29Z</time>
      </trkpt>
      <trkpt lat="45.80808" lon="1.88511">
        <ele>687.6</ele>
        <time>2024-09-15T12:34:30Z</time>
      </trkpt>
      <trkpt lat="45.80806" lon="1.88513">
        <ele>686.4</ele>
        <time>2024-09-15T12:35:09Z</time>
      </trkpt>
      <trkpt lat="45.80805" lon="1.88514">
        <ele>686.4</ele>
        <time>2024-09-15T12:35:10Z</time>
      </trkpt>
      <trkpt lat="45.80804" lon="1.88515">
        <ele>686.4</ele>
        <time>2024-09-15T12:35:11Z</time>
      </trkpt>
      <trkpt lat="45.80803" lon="1.88517">
        <ele>686.4</ele>
        <time>2024-09-15T12:35:12Z</time>
      </trkpt>
      <trkpt lat="45.80801" lon="1.88518">
        <ele>686.2</ele>
        <time>2024-09-15T12:35:13Z</time>
      </trkpt>
      <trkpt lat="45.80799" lon="1.88519">
        <ele>686.2</ele>
        <time>2024-09-15T12:35:14Z</time>
      </trkpt>
      <trkpt lat="45.80791" lon="1.88521">
        <ele>686</ele>
        <time>2024-09-15T12:35:17Z</time>
      </trkpt>
      <trkpt lat="45.80789" lon="1.88521">
        <ele>685.8</ele>
        <time>2024-09-15T12:35:18Z</time>
      </trkpt>
      <trkpt lat="45.80787" lon="1.88521">
        <ele>685.8</ele>
        <time>2024-09-15T12:35:19Z</time>
      </trkpt>
      <trkpt lat="45.80784" lon="1.88521">
        <ele>685.8</ele>
        <time>2024-09-15T12:35:20Z</time>
      </trkpt>
      <trkpt lat="45.80782" lon="1.88522">
        <ele>685.8</ele>
        <time>2024-09-15T12:35:21Z</time>
      </trkpt>
      <trkpt lat="45.8078" lon="1.88522">
        <ele>685.8</ele>
        <time>2024-09-15T12:35:22Z</time>
      </trkpt>
      <trkpt lat="45.80778" lon="1.88523">
        <ele>685.8</ele>
        <time>2024-09-15T12:35:23Z</time>
      </trkpt>
      <trkpt lat="45.80775" lon="1.88523">
        <ele>685.8</ele>
        <time>2024-09-15T12:35:24Z</time>
      </trkpt>
      <trkpt lat="45.80773" lon="1.88524">
        <ele>685.8</ele>
        <time>2024-09-15T12:35:25Z</time>
      </trkpt>
      <trkpt lat="45.8077" lon="1.88524">
        <ele>685.8</ele>
        <time>2024-09-15T12:35:26Z</time>
      </trkpt>
      <trkpt lat="45.80767" lon="1.88525">
        <ele>685.6</ele>
        <time>2024-09-15T12:35:27Z</time>
      </trkpt>
      <trkpt lat="45.80765" lon="1.88527">
        <ele>685.6</ele>
        <time>2024-09-15T12:35:28Z</time>
      </trkpt>
      <trkpt lat="45.8076" lon="1.88529">
        <ele>685.6</ele>
        <time>2024-09-15T12:35:30Z</time>
      </trkpt>
      <trkpt lat="45.80757" lon="1.8853">
        <ele>685.6</ele>
        <time>2024-09-15T12:35:31Z</time>
      </trkpt>
      <trkpt lat="45.80755" lon="1.88533">
        <ele>685.6</ele>
        <time>2024-09-15T12:35:32Z</time>
      </trkpt>
      <trkpt lat="45.80752" lon="1.88535">
        <ele>685.6</ele>
        <time>2024-09-15T12:35:33Z</time>
      </trkpt>
      <trkpt lat="45.80745" lon="1.88538">
        <ele>685.4</ele>
        <time>2024-09-15T12:35:36Z</time>
      </trkpt>
      <trkpt lat="45.80739" lon="1.88539">
        <ele>685.2</ele>
        <time>2024-09-15T12:35:38Z</time>
      </trkpt>
      <trkpt lat="45.80732" lon="1.8854">
        <ele>685.2</ele>
        <time>2024-09-15T12:35:40Z</time>
      </trkpt>
      <trkpt lat="45.80726" lon="1.88543">
        <ele>684.8</ele>
        <time>2024-09-15T12:35:42Z</time>
      </trkpt>
      <trkpt lat="45.80713" lon="1.88544">
        <ele>684.6</ele>
        <time>2024-09-15T12:35:46Z</time>
      </trkpt>
      <trkpt lat="45.80709" lon="1.88545">
        <ele>684.6</ele>
        <time>2024-09-15T12:35:47Z</time>
      </trkpt>
      <trkpt lat="45.80704" lon="1.88545">
        <ele>684.6</ele>
        <time>2024-09-15T12:35:48Z</time>
      </trkpt>
      <trkpt lat="45.807" lon="1.88547">
        <ele>684.4</ele>
        <time>2024-09-15T12:35:49Z</time>
      </trkpt>
      <trkpt lat="45.80697" lon="1.88547">
        <ele>684.4</ele>
        <time>2024-09-15T12:35:50Z</time>
      </trkpt>
      <trkpt lat="45.80685" lon="1.8855">
        <ele>684.2</ele>
        <time>2024-09-15T12:35:53Z</time>
      </trkpt>
      <trkpt lat="45.80679" lon="1.8855">
        <ele>683.8</ele>
        <time>2024-09-15T12:35:54Z</time>
      </trkpt>
      <trkpt lat="45.80674" lon="1.88549">
        <ele>683.6</ele>
        <time>2024-09-15T12:35:55Z</time>
      </trkpt>
      <trkpt lat="45.80664" lon="1.88546">
        <ele>683</ele>
        <time>2024-09-15T12:35:57Z</time>
      </trkpt>
      <trkpt lat="45.80659" lon="1.88545">
        <ele>682.8</ele>
        <time>2024-09-15T12:35:58Z</time>
      </trkpt>
      <trkpt lat="45.80653" lon="1.88543">
        <ele>682.4</ele>
        <time>2024-09-15T12:35:59Z</time>
      </trkpt>
      <trkpt lat="45.80648" lon="1.88542">
        <ele>682.2</ele>
        <time>2024-09-15T12:36:00Z</time>
      </trkpt>
      <trkpt lat="45.8063" lon="1.88533">
        <ele>681.8</ele>
        <time>2024-09-15T12:36:03Z</time>
      </trkpt>
      <trkpt lat="45.80623" lon="1.88532">
        <ele>681.8</ele>
        <time>2024-09-15T12:36:04Z</time>
      </trkpt>
      <trkpt lat="45.80605" lon="1.88529">
        <ele>681.2</ele>
        <time>2024-09-15T12:36:07Z</time>
      </trkpt>
      <trkpt lat="45.806" lon="1.88531">
        <ele>680.8</ele>
        <time>2024-09-15T12:36:08Z</time>
      </trkpt>
      <trkpt lat="45.80595" lon="1.88533">
        <ele>680.4</ele>
        <time>2024-09-15T12:36:09Z</time>
      </trkpt>
      <trkpt lat="45.8059" lon="1.88535">
        <ele>679.4</ele>
        <time>2024-09-15T12:36:10Z</time>
      </trkpt>
      <trkpt lat="45.80586" lon="1.88537">
        <ele>679.2</ele>
        <time>2024-09-15T12:36:11Z</time>
      </trkpt>
      <trkpt lat="45.80582" lon="1.88538">
        <ele>678.8</ele>
        <time>2024-09-15T12:36:12Z</time>
      </trkpt>
      <trkpt lat="45.80576" lon="1.88539">
        <ele>678.8</ele>
        <time>2024-09-15T12:36:13Z</time>
      </trkpt>
      <trkpt lat="45.80571" lon="1.88541">
        <ele>678.6</ele>
        <time>2024-09-15T12:36:14Z</time>
      </trkpt>
      <trkpt lat="45.80566" lon="1.88541">
        <ele>678.6</ele>
        <time>2024-09-15T12:36:15Z</time>
      </trkpt>
      <trkpt lat="45.8056" lon="1.88541">
        <ele>678.4</ele>
        <time>2024-09-15T12:36:17Z</time>
      </trkpt>
      <trkpt lat="45.80558" lon="1.88542">
        <ele>678.2</ele>
        <time>2024-09-15T12:36:18Z</time>
      </trkpt>
      <trkpt lat="45.80557" lon="1.88542">
        <ele>678.2</ele>
        <time>2024-09-15T12:36:19Z</time>
      </trkpt>
      <trkpt lat="45.80556" lon="1.88542">
        <ele>677.8</ele>
        <time>2024-09-15T12:36:20Z</time>
      </trkpt>
      <trkpt lat="45.80556" lon="1.88542">
        <ele>677.4</ele>
        <time>2024-09-15T12:36:21Z</time>
      </trkpt>
      <trkpt lat="45.80556" lon="1.88542">
        <ele>677.2</ele>
        <time>2024-09-15T12:36:22Z</time>
      </trkpt>
      <trkpt lat="45.80555" lon="1.88541">
        <ele>676.2</ele>
        <time>2024-09-15T12:37:08Z</time>
      </trkpt>
      <trkpt lat="45.80555" lon="1.8854">
        <ele>676.2</ele>
        <time>2024-09-15T12:37:11Z</time>
      </trkpt>
      <trkpt lat="45.80555" lon="1.8854">
        <ele>676.2</ele>
        <time>2024-09-15T12:37:12Z</time>
      </trkpt>
      <trkpt lat="45.80554" lon="1.88537">
        <ele>676.4</ele>
        <time>2024-09-15T12:37:15Z</time>
      </trkpt>
      <trkpt lat="45.80553" lon="1.8853">
        <ele>676.4</ele>
        <time>2024-09-15T12:37:18Z</time>
      </trkpt>
      <trkpt lat="45.80553" lon="1.88527">
        <ele>676.6</ele>
        <time>2024-09-15T12:37:19Z</time>
      </trkpt>
      <trkpt lat="45.80551" lon="1.88521">
        <ele>676.8</ele>
        <time>2024-09-15T12:37:21Z</time>
      </trkpt>
      <trkpt lat="45.8055" lon="1.88511">
        <ele>677.4</ele>
        <time>2024-09-15T12:37:25Z</time>
      </trkpt>
      <trkpt lat="45.8055" lon="1.8851">
        <ele>677.6</ele>
        <time>2024-09-15T12:37:26Z</time>
      </trkpt>
      <trkpt lat="45.80549" lon="1.88508">
        <ele>677.6</ele>
        <time>2024-09-15T12:37:27Z</time>
      </trkpt>
      <trkpt lat="45.80548" lon="1.88502">
        <ele>677.8</ele>
        <time>2024-09-15T12:37:29Z</time>
      </trkpt>
      <trkpt lat="45.80546" lon="1.88497">
        <ele>678</ele>
        <time>2024-09-15T12:37:31Z</time>
      </trkpt>
      <trkpt lat="45.80546" lon="1.88495">
        <ele>678.2</ele>
        <time>2024-09-15T12:37:32Z</time>
      </trkpt>
      <trkpt lat="45.80546" lon="1.88494">
        <ele>678.2</ele>
        <time>2024-09-15T12:37:33Z</time>
      </trkpt>
      <trkpt lat="45.80546" lon="1.88494">
        <ele>678</ele>
        <time>2024-09-15T12:37:34Z</time>
      </trkpt>
      <trkpt lat="45.80546" lon="1.88493">
        <ele>678</ele>
        <time>2024-09-15T12:37:35Z</time>
      </trkpt>
      <trkpt lat="45.80546" lon="1.88492">
        <ele>678</ele>
        <time>2024-09-15T12:37:36Z</time>
      </trkpt>
      <trkpt lat="45.80543" lon="1.88485">
        <ele>677.8</ele>
        <time>2024-09-15T12:37:38Z</time>
      </trkpt>
      <trkpt lat="45.80542" lon="1.88482">
        <ele>677.8</ele>
        <time>2024-09-15T12:37:39Z</time>
      </trkpt>
      <trkpt lat="45.80539" lon="1.88472">
        <ele>677.6</ele>
        <time>2024-09-15T12:37:41Z</time>
      </trkpt>
      <trkpt lat="45.80538" lon="1.88466">
        <ele>677.6</ele>
        <time>2024-09-15T12:37:42Z</time>
      </trkpt>
      <trkpt lat="45.80536" lon="1.88462">
        <ele>677.4</ele>
        <time>2024-09-15T12:37:43Z</time>
      </trkpt>
      <trkpt lat="45.80536" lon="1.88456">
        <ele>677.2</ele>
        <time>2024-09-15T12:37:45Z</time>
      </trkpt>
      <trkpt lat="45.80536" lon="1.88452">
        <ele>677.2</ele>
        <time>2024-09-15T12:37:46Z</time>
      </trkpt>
      <trkpt lat="45.80537" lon="1.88448">
        <ele>676.6</ele>
        <time>2024-09-15T12:37:47Z</time>
      </trkpt>
      <trkpt lat="45.80536" lon="1.88443">
        <ele>676.4</ele>
        <time>2024-09-15T12:37:48Z</time>
      </trkpt>
      <trkpt lat="45.80535" lon="1.88439">
        <ele>676</ele>
        <time>2024-09-15T12:37:49Z</time>
      </trkpt>
      <trkpt lat="45.80535" lon="1.88427">
        <ele>674.6</ele>
        <time>2024-09-15T12:37:52Z</time>
      </trkpt>
      <trkpt lat="45.80536" lon="1.88425">
        <ele>674.2</ele>
        <time>2024-09-15T12:37:53Z</time>
      </trkpt>
      <trkpt lat="45.80538" lon="1.88422">
        <ele>673.8</ele>
        <time>2024-09-15T12:37:54Z</time>
      </trkpt>
      <trkpt lat="45.80539" lon="1.88419">
        <ele>673.6</ele>
        <time>2024-09-15T12:37:55Z</time>
      </trkpt>
      <trkpt lat="45.8054" lon="1.88417">
        <ele>673.2</ele>
        <time>2024-09-15T12:37:56Z</time>
      </trkpt>
      <trkpt lat="45.8054" lon="1.88417">
        <ele>672.8</ele>
        <time>2024-09-15T12:37:57Z</time>
      </trkpt>
      <trkpt lat="45.8054" lon="1.88417">
        <ele>672.2</ele>
        <time>2024-09-15T12:37:58Z</time>
      </trkpt>
      <trkpt lat="45.80537" lon="1.88411">
        <ele>671.4</ele>
        <time>2024-09-15T12:38:00Z</time>
      </trkpt>
      <trkpt lat="45.80539" lon="1.88407">
        <ele>671.2</ele>
        <time>2024-09-15T12:38:01Z</time>
      </trkpt>
      <trkpt lat="45.80535" lon="1.88399">
        <ele>671</ele>
        <time>2024-09-15T12:38:02Z</time>
      </trkpt>
      <trkpt lat="45.8053" lon="1.88399">
        <ele>670.8</ele>
        <time>2024-09-15T12:38:04Z</time>
      </trkpt>
      <trkpt lat="45.8053" lon="1.88399">
        <ele>670.8</ele>
        <time>2024-09-15T12:38:05Z</time>
      </trkpt>
      <trkpt lat="45.80529" lon="1.88401">
        <ele>670.8</ele>
        <time>2024-09-15T12:38:06Z</time>
      </trkpt>
      <trkpt lat="45.80527" lon="1.88402">
        <ele>670.6</ele>
        <time>2024-09-15T12:38:07Z</time>
      </trkpt>
      <trkpt lat="45.80525" lon="1.88404">
        <ele>670.6</ele>
        <time>2024-09-15T12:38:08Z</time>
      </trkpt>
      <trkpt lat="45.80521" lon="1.8841">
        <ele>670.8</ele>
        <time>2024-09-15T12:38:11Z</time>
      </trkpt>
      <trkpt lat="45.8052" lon="1.88411">
        <ele>671</ele>
        <time>2024-09-15T12:38:12Z</time>
      </trkpt>
      <trkpt lat="45.80519" lon="1.88413">
        <ele>671</ele>
        <time>2024-09-15T12:38:13Z</time>
      </trkpt>
      <trkpt lat="45.80518" lon="1.88416">
        <ele>671.2</ele>
        <time>2024-09-15T12:38:14Z</time>
      </trkpt>
      <trkpt lat="45.80517" lon="1.88418">
        <ele>671.2</ele>
        <time>2024-09-15T12:38:15Z</time>
      </trkpt>
      <trkpt lat="45.80516" lon="1.88419">
        <ele>671.4</ele>
        <time>2024-09-15T12:38:16Z</time>
      </trkpt>
      <trkpt lat="45.80515" lon="1.88419">
        <ele>671.4</ele>
        <time>2024-09-15T12:38:17Z</time>
      </trkpt>
      <trkpt lat="45.80513" lon="1.8842">
        <ele>671.6</ele>
        <time>2024-09-15T12:38:18Z</time>
      </trkpt>
      <trkpt lat="45.80512" lon="1.8842">
        <ele>671.6</ele>
        <time>2024-09-15T12:38:19Z</time>
      </trkpt>
      <trkpt lat="45.80507" lon="1.88424">
        <ele>672.2</ele>
        <time>2024-09-15T12:38:22Z</time>
      </trkpt>
      <trkpt lat="45.80506" lon="1.88425">
        <ele>672.2</ele>
        <time>2024-09-15T12:38:23Z</time>
      </trkpt>
      <trkpt lat="45.80502" lon="1.88426">
        <ele>672.4</ele>
        <time>2024-09-15T12:38:25Z</time>
      </trkpt>
      <trkpt lat="45.80501" lon="1.88427">
        <ele>672.6</ele>
        <time>2024-09-15T12:38:26Z</time>
      </trkpt>
      <trkpt lat="45.80499" lon="1.88428">
        <ele>672.8</ele>
        <time>2024-09-15T12:38:27Z</time>
      </trkpt>
      <trkpt lat="45.80496" lon="1.88429">
        <ele>673</ele>
        <time>2024-09-15T12:38:28Z</time>
      </trkpt>
      <trkpt lat="45.80491" lon="1.8843">
        <ele>673.2</ele>
        <time>2024-09-15T12:38:30Z</time>
      </trkpt>
      <trkpt lat="45.80489" lon="1.88431">
        <ele>673.2</ele>
        <time>2024-09-15T12:38:31Z</time>
      </trkpt>
      <trkpt lat="45.80486" lon="1.88431">
        <ele>673.4</ele>
        <time>2024-09-15T12:38:32Z</time>
      </trkpt>
      <trkpt lat="45.80483" lon="1.88433">
        <ele>673.6</ele>
        <time>2024-09-15T12:38:33Z</time>
      </trkpt>
      <trkpt lat="45.80478" lon="1.88435">
        <ele>674.4</ele>
        <time>2024-09-15T12:38:37Z</time>
      </trkpt>
      <trkpt lat="45.80476" lon="1.88436">
        <ele>674.6</ele>
        <time>2024-09-15T12:38:38Z</time>
      </trkpt>
      <trkpt lat="45.80472" lon="1.88438">
        <ele>674.8</ele>
        <time>2024-09-15T12:38:40Z</time>
      </trkpt>
      <trkpt lat="45.80469" lon="1.8844">
        <ele>674.8</ele>
        <time>2024-09-15T12:38:41Z</time>
      </trkpt>
      <trkpt lat="45.80466" lon="1.88441">
        <ele>675.2</ele>
        <time>2024-09-15T12:38:42Z</time>
      </trkpt>
      <trkpt lat="45.80463" lon="1.88442">
        <ele>675.4</ele>
        <time>2024-09-15T12:38:43Z</time>
      </trkpt>
      <trkpt lat="45.80461" lon="1.88443">
        <ele>675.8</ele>
        <time>2024-09-15T12:38:44Z</time>
      </trkpt>
      <trkpt lat="45.80458" lon="1.88445">
        <ele>675.8</ele>
        <time>2024-09-15T12:38:45Z</time>
      </trkpt>
      <trkpt lat="45.80456" lon="1.88447">
        <ele>676</ele>
        <time>2024-09-15T12:38:46Z</time>
      </trkpt>
      <trkpt lat="45.80454" lon="1.88449">
        <ele>676.2</ele>
        <time>2024-09-15T12:38:47Z</time>
      </trkpt>
      <trkpt lat="45.80452" lon="1.88451">
        <ele>676.6</ele>
        <time>2024-09-15T12:38:48Z</time>
      </trkpt>
      <trkpt lat="45.80451" lon="1.88454">
        <ele>676.6</ele>
        <time>2024-09-15T12:38:49Z</time>
      </trkpt>
      <trkpt lat="45.80448" lon="1.88456">
        <ele>676.8</ele>
        <time>2024-09-15T12:38:50Z</time>
      </trkpt>
      <trkpt lat="45.80446" lon="1.88458">
        <ele>676.8</ele>
        <time>2024-09-15T12:38:51Z</time>
      </trkpt>
      <trkpt lat="45.80443" lon="1.8846">
        <ele>677.2</ele>
        <time>2024-09-15T12:38:52Z</time>
      </trkpt>
      <trkpt lat="45.80441" lon="1.88462">
        <ele>677.2</ele>
        <time>2024-09-15T12:38:53Z</time>
      </trkpt>
      <trkpt lat="45.80438" lon="1.88464">
        <ele>677.4</ele>
        <time>2024-09-15T12:38:54Z</time>
      </trkpt>
      <trkpt lat="45.80435" lon="1.88466">
        <ele>677.6</ele>
        <time>2024-09-15T12:38:55Z</time>
      </trkpt>
      <trkpt lat="45.80433" lon="1.88467">
        <ele>677.6</ele>
        <time>2024-09-15T12:38:56Z</time>
      </trkpt>
      <trkpt lat="45.80431" lon="1.8847">
        <ele>677.8</ele>
        <time>2024-09-15T12:38:57Z</time>
      </trkpt>
      <trkpt lat="45.80429" lon="1.88472">
        <ele>677.8</ele>
        <time>2024-09-15T12:38:58Z</time>
      </trkpt>
      <trkpt lat="45.80428" lon="1.88475">
        <ele>678</ele>
        <time>2024-09-15T12:38:59Z</time>
      </trkpt>
      <trkpt lat="45.80427" lon="1.88478">
        <ele>678</ele>
        <time>2024-09-15T12:39:00Z</time>
      </trkpt>
      <trkpt lat="45.80426" lon="1.8848">
        <ele>678.2</ele>
        <time>2024-09-15T12:39:01Z</time>
      </trkpt>
      <trkpt lat="45.80426" lon="1.88479">
        <ele>678.2</ele>
        <time>2024-09-15T12:39:02Z</time>
      </trkpt>
      <trkpt lat="45.80425" lon="1.88481">
        <ele>678.4</ele>
        <time>2024-09-15T12:39:03Z</time>
      </trkpt>
      <trkpt lat="45.80422" lon="1.88482">
        <ele>678.4</ele>
        <time>2024-09-15T12:39:04Z</time>
      </trkpt>
      <trkpt lat="45.80418" lon="1.88482">
        <ele>678.4</ele>
        <time>2024-09-15T12:39:05Z</time>
      </trkpt>
      <trkpt lat="45.80417" lon="1.88483">
        <ele>678.6</ele>
        <time>2024-09-15T12:39:06Z</time>
      </trkpt>
      <trkpt lat="45.80414" lon="1.88485">
        <ele>678.6</ele>
        <time>2024-09-15T12:39:07Z</time>
      </trkpt>
      <trkpt lat="45.80412" lon="1.88486">
        <ele>678.8</ele>
        <time>2024-09-15T12:39:08Z</time>
      </trkpt>
      <trkpt lat="45.80409" lon="1.88489">
        <ele>678.8</ele>
        <time>2024-09-15T12:39:09Z</time>
      </trkpt>
      <trkpt lat="45.80407" lon="1.88491">
        <ele>678.8</ele>
        <time>2024-09-15T12:39:10Z</time>
      </trkpt>
      <trkpt lat="45.80404" lon="1.88492">
        <ele>678.8</ele>
        <time>2024-09-15T12:39:11Z</time>
      </trkpt>
      <trkpt lat="45.80401" lon="1.88493">
        <ele>678.8</ele>
        <time>2024-09-15T12:39:12Z</time>
      </trkpt>
      <trkpt lat="45.80399" lon="1.88494">
        <ele>678.8</ele>
        <time>2024-09-15T12:39:13Z</time>
      </trkpt>
      <trkpt lat="45.80397" lon="1.88495">
        <ele>679</ele>
        <time>2024-09-15T12:39:14Z</time>
      </trkpt>
      <trkpt lat="45.80396" lon="1.88496">
        <ele>679</ele>
        <time>2024-09-15T12:39:15Z</time>
      </trkpt>
      <trkpt lat="45.80394" lon="1.88497">
        <ele>679.4</ele>
        <time>2024-09-15T12:39:16Z</time>
      </trkpt>
      <trkpt lat="45.80392" lon="1.88498">
        <ele>679.6</ele>
        <time>2024-09-15T12:39:17Z</time>
      </trkpt>
      <trkpt lat="45.80389" lon="1.88499">
        <ele>679.6</ele>
        <time>2024-09-15T12:39:18Z</time>
      </trkpt>
      <trkpt lat="45.80386" lon="1.88501">
        <ele>679.8</ele>
        <time>2024-09-15T12:39:19Z</time>
      </trkpt>
      <trkpt lat="45.80385" lon="1.88502">
        <ele>679.8</ele>
        <time>2024-09-15T12:39:20Z</time>
      </trkpt>
      <trkpt lat="45.80384" lon="1.88503">
        <ele>680</ele>
        <time>2024-09-15T12:39:21Z</time>
      </trkpt>
      <trkpt lat="45.80384" lon="1.88503">
        <ele>680</ele>
        <time>2024-09-15T12:39:22Z</time>
      </trkpt>
      <trkpt lat="45.80382" lon="1.88504">
        <ele>680.2</ele>
        <time>2024-09-15T12:39:23Z</time>
      </trkpt>
      <trkpt lat="45.8038" lon="1.88506">
        <ele>680.2</ele>
        <time>2024-09-15T12:39:24Z</time>
      </trkpt>
      <trkpt lat="45.80377" lon="1.88506">
        <ele>680.4</ele>
        <time>2024-09-15T12:39:25Z</time>
      </trkpt>
      <trkpt lat="45.80373" lon="1.88508">
        <ele>680.4</ele>
        <time>2024-09-15T12:39:26Z</time>
      </trkpt>
      <trkpt lat="45.8037" lon="1.88509">
        <ele>680.6</ele>
        <time>2024-09-15T12:39:27Z</time>
      </trkpt>
      <trkpt lat="45.80367" lon="1.88509">
        <ele>680.6</ele>
        <time>2024-09-15T12:39:28Z</time>
      </trkpt>
      <trkpt lat="45.80364" lon="1.8851">
        <ele>680.8</ele>
        <time>2024-09-15T12:39:29Z</time>
      </trkpt>
      <trkpt lat="45.80362" lon="1.88511">
        <ele>681</ele>
        <time>2024-09-15T12:39:30Z</time>
      </trkpt>
      <trkpt lat="45.80359" lon="1.88512">
        <ele>681</ele>
        <time>2024-09-15T12:39:31Z</time>
      </trkpt>
      <trkpt lat="45.80356" lon="1.88514">
        <ele>681.2</ele>
        <time>2024-09-15T12:39:32Z</time>
      </trkpt>
      <trkpt lat="45.80352" lon="1.88515">
        <ele>681.2</ele>
        <time>2024-09-15T12:39:33Z</time>
      </trkpt>
      <trkpt lat="45.80348" lon="1.88517">
        <ele>681.4</ele>
        <time>2024-09-15T12:39:34Z</time>
      </trkpt>
      <trkpt lat="45.80345" lon="1.88519">
        <ele>681.4</ele>
        <time>2024-09-15T12:39:35Z</time>
      </trkpt>
      <trkpt lat="45.80343" lon="1.8852">
        <ele>681.4</ele>
        <time>2024-09-15T12:39:36Z</time>
      </trkpt>
      <trkpt lat="45.80341" lon="1.88523">
        <ele>681.4</ele>
        <time>2024-09-15T12:39:37Z</time>
      </trkpt>
      <trkpt lat="45.80339" lon="1.88525">
        <ele>681.4</ele>
        <time>2024-09-15T12:39:38Z</time>
      </trkpt>
      <trkpt lat="45.80336" lon="1.88526">
        <ele>681.4</ele>
        <time>2024-09-15T12:39:39Z</time>
      </trkpt>
      <trkpt lat="45.80333" lon="1.88527">
        <ele>681.4</ele>
        <time>2024-09-15T12:39:40Z</time>
      </trkpt>
      <trkpt lat="45.8033" lon="1.88528">
        <ele>681.4</ele>
        <time>2024-09-15T12:39:41Z</time>
      </trkpt>
      <trkpt lat="45.80317" lon="1.88534">
        <ele>681.4</ele>
        <time>2024-09-15T12:39:46Z</time>
      </trkpt>
      <trkpt lat="45.803" lon="1.88545">
        <ele>681.4</ele>
        <time>2024-09-15T12:39:53Z</time>
      </trkpt>
      <trkpt lat="45.80297" lon="1.88546">
        <ele>681.4</ele>
        <time>2024-09-15T12:39:54Z</time>
      </trkpt>
      <trkpt lat="45.80293" lon="1.88547">
        <ele>681.2</ele>
        <time>2024-09-15T12:39:55Z</time>
      </trkpt>
      <trkpt lat="45.80271" lon="1.88559">
        <ele>681.2</ele>
        <time>2024-09-15T12:40:02Z</time>
      </trkpt>
      <trkpt lat="45.80247" lon="1.88566">
        <ele>680.8</ele>
        <time>2024-09-15T12:40:07Z</time>
      </trkpt>
      <trkpt lat="45.8022" lon="1.88566">
        <ele>680.2</ele>
        <time>2024-09-15T12:40:13Z</time>
      </trkpt>
      <trkpt lat="45.80218" lon="1.88564">
        <ele>680.2</ele>
        <time>2024-09-15T12:40:14Z</time>
      </trkpt>
      <trkpt lat="45.80216" lon="1.88563">
        <ele>680.2</ele>
        <time>2024-09-15T12:40:15Z</time>
      </trkpt>
      <trkpt lat="45.80211" lon="1.88562">
        <ele>680.2</ele>
        <time>2024-09-15T12:40:16Z</time>
      </trkpt>
      <trkpt lat="45.80207" lon="1.88561">
        <ele>680.2</ele>
        <time>2024-09-15T12:40:17Z</time>
      </trkpt>
      <trkpt lat="45.80202" lon="1.8856">
        <ele>680</ele>
        <time>2024-09-15T12:40:18Z</time>
      </trkpt>
      <trkpt lat="45.80198" lon="1.88559">
        <ele>680</ele>
        <time>2024-09-15T12:40:19Z</time>
      </trkpt>
      <trkpt lat="45.80194" lon="1.88558">
        <ele>679.8</ele>
        <time>2024-09-15T12:40:20Z</time>
      </trkpt>
      <trkpt lat="45.8019" lon="1.88557">
        <ele>679.8</ele>
        <time>2024-09-15T12:40:21Z</time>
      </trkpt>
      <trkpt lat="45.80186" lon="1.88557">
        <ele>679.6</ele>
        <time>2024-09-15T12:40:22Z</time>
      </trkpt>
      <trkpt lat="45.80171" lon="1.88557">
        <ele>679.2</ele>
        <time>2024-09-15T12:40:25Z</time>
      </trkpt>
      <trkpt lat="45.80165" lon="1.88558">
        <ele>678.4</ele>
        <time>2024-09-15T12:40:26Z</time>
      </trkpt>
      <trkpt lat="45.80153" lon="1.88556">
        <ele>677.6</ele>
        <time>2024-09-15T12:40:29Z</time>
      </trkpt>
      <trkpt lat="45.80149" lon="1.88555">
        <ele>677</ele>
        <time>2024-09-15T12:40:30Z</time>
      </trkpt>
      <trkpt lat="45.80146" lon="1.88556">
        <ele>676.8</ele>
        <time>2024-09-15T12:40:31Z</time>
      </trkpt>
      <trkpt lat="45.80125" lon="1.88558">
        <ele>676</ele>
        <time>2024-09-15T12:40:35Z</time>
      </trkpt>
      <trkpt lat="45.8012" lon="1.88559">
        <ele>676</ele>
        <time>2024-09-15T12:40:36Z</time>
      </trkpt>
      <trkpt lat="45.80115" lon="1.88559">
        <ele>675.8</ele>
        <time>2024-09-15T12:40:37Z</time>
      </trkpt>
      <trkpt lat="45.80109" lon="1.88559">
        <ele>675.8</ele>
        <time>2024-09-15T12:40:38Z</time>
      </trkpt>
      <trkpt lat="45.80105" lon="1.88559">
        <ele>676</ele>
        <time>2024-09-15T12:40:39Z</time>
      </trkpt>
      <trkpt lat="45.801" lon="1.88562">
        <ele>676</ele>
        <time>2024-09-15T12:40:40Z</time>
      </trkpt>
      <trkpt lat="45.80091" lon="1.88566">
        <ele>676</ele>
        <time>2024-09-15T12:40:42Z</time>
      </trkpt>
      <trkpt lat="45.80082" lon="1.88568">
        <ele>676.2</ele>
        <time>2024-09-15T12:40:44Z</time>
      </trkpt>
      <trkpt lat="45.80078" lon="1.8857">
        <ele>676.2</ele>
        <time>2024-09-15T12:40:45Z</time>
      </trkpt>
      <trkpt lat="45.80076" lon="1.88572">
        <ele>676.2</ele>
        <time>2024-09-15T12:40:46Z</time>
      </trkpt>
      <trkpt lat="45.80072" lon="1.88574">
        <ele>676.2</ele>
        <time>2024-09-15T12:40:47Z</time>
      </trkpt>
      <trkpt lat="45.80066" lon="1.88577">
        <ele>676</ele>
        <time>2024-09-15T12:40:49Z</time>
      </trkpt>
      <trkpt lat="45.80064" lon="1.88579">
        <ele>676</ele>
        <time>2024-09-15T12:40:50Z</time>
      </trkpt>
      <trkpt lat="45.80062" lon="1.88581">
        <ele>675.6</ele>
        <time>2024-09-15T12:40:51Z</time>
      </trkpt>
      <trkpt lat="45.80059" lon="1.88584">
        <ele>675.2</ele>
        <time>2024-09-15T12:40:52Z</time>
      </trkpt>
      <trkpt lat="45.80056" lon="1.88587">
        <ele>674.8</ele>
        <time>2024-09-15T12:40:53Z</time>
      </trkpt>
      <trkpt lat="45.80054" lon="1.88591">
        <ele>674</ele>
        <time>2024-09-15T12:40:54Z</time>
      </trkpt>
      <trkpt lat="45.8005" lon="1.88597">
        <ele>673.8</ele>
        <time>2024-09-15T12:40:55Z</time>
      </trkpt>
      <trkpt lat="45.80047" lon="1.88604">
        <ele>673.6</ele>
        <time>2024-09-15T12:40:56Z</time>
      </trkpt>
      <trkpt lat="45.8004" lon="1.88618">
        <ele>673.4</ele>
        <time>2024-09-15T12:40:58Z</time>
      </trkpt>
      <trkpt lat="45.80037" lon="1.88623">
        <ele>673.2</ele>
        <time>2024-09-15T12:40:59Z</time>
      </trkpt>
      <trkpt lat="45.80034" lon="1.88628">
        <ele>673.2</ele>
        <time>2024-09-15T12:41:00Z</time>
      </trkpt>
      <trkpt lat="45.80033" lon="1.88632">
        <ele>673.2</ele>
        <time>2024-09-15T12:41:01Z</time>
      </trkpt>
      <trkpt lat="45.80031" lon="1.88635">
        <ele>673.2</ele>
        <time>2024-09-15T12:41:02Z</time>
      </trkpt>
      <trkpt lat="45.80031" lon="1.88636">
        <ele>673.2</ele>
        <time>2024-09-15T12:41:04Z</time>
      </trkpt>
      <trkpt lat="45.80031" lon="1.88636">
        <ele>673.2</ele>
        <time>2024-09-15T12:41:05Z</time>
      </trkpt>
      <trkpt lat="45.80031" lon="1.88637">
        <ele>673.2</ele>
        <time>2024-09-15T12:41:06Z</time>
      </trkpt>
      <trkpt lat="45.8003" lon="1.8864">
        <ele>673.4</ele>
        <time>2024-09-15T12:41:07Z</time>
      </trkpt>
      <trkpt lat="45.80028" lon="1.88643">
        <ele>673.4</ele>
        <time>2024-09-15T12:41:08Z</time>
      </trkpt>
      <trkpt lat="45.80027" lon="1.88645">
        <ele>673.4</ele>
        <time>2024-09-15T12:41:09Z</time>
      </trkpt>
      <trkpt lat="45.80027" lon="1.88645">
        <ele>673.6</ele>
        <time>2024-09-15T12:41:10Z</time>
      </trkpt>
      <trkpt lat="45.80027" lon="1.88645">
        <ele>673.6</ele>
        <time>2024-09-15T12:41:12Z</time>
      </trkpt>
      <trkpt lat="45.80026" lon="1.88645">
        <ele>674.2</ele>
        <time>2024-09-15T12:41:49Z</time>
      </trkpt>
      <trkpt lat="45.80026" lon="1.88645">
        <ele>674.6</ele>
        <time>2024-09-15T12:41:51Z</time>
      </trkpt>
      <trkpt lat="45.8002" lon="1.88647">
        <ele>675.2</ele>
        <time>2024-09-15T12:42:07Z</time>
      </trkpt>
      <trkpt lat="45.80017" lon="1.88648">
        <ele>675.2</ele>
        <time>2024-09-15T12:42:08Z</time>
      </trkpt>
      <trkpt lat="45.80014" lon="1.88648">
        <ele>675.2</ele>
        <time>2024-09-15T12:42:09Z</time>
      </trkpt>
      <trkpt lat="45.79994" lon="1.8865">
        <ele>675.6</ele>
        <time>2024-09-15T12:42:14Z</time>
      </trkpt>
      <trkpt lat="45.79991" lon="1.8865">
        <ele>675.6</ele>
        <time>2024-09-15T12:42:15Z</time>
      </trkpt>
      <trkpt lat="45.79987" lon="1.88648">
        <ele>675.8</ele>
        <time>2024-09-15T12:42:16Z</time>
      </trkpt>
      <trkpt lat="45.7997" lon="1.88644">
        <ele>676.2</ele>
        <time>2024-09-15T12:42:22Z</time>
      </trkpt>
      <trkpt lat="45.79965" lon="1.88643">
        <ele>676.4</ele>
        <time>2024-09-15T12:42:24Z</time>
      </trkpt>
      <trkpt lat="45.79962" lon="1.88642">
        <ele>676.4</ele>
        <time>2024-09-15T12:42:25Z</time>
      </trkpt>
      <trkpt lat="45.79959" lon="1.88641">
        <ele>676.6</ele>
        <time>2024-09-15T12:42:26Z</time>
      </trkpt>
      <trkpt lat="45.79954" lon="1.88637">
        <ele>676.8</ele>
        <time>2024-09-15T12:42:28Z</time>
      </trkpt>
      <trkpt lat="45.79952" lon="1.88636">
        <ele>676.8</ele>
        <time>2024-09-15T12:42:29Z</time>
      </trkpt>
      <trkpt lat="45.79934" lon="1.88623">
        <ele>677.2</ele>
        <time>2024-09-15T12:42:36Z</time>
      </trkpt>
      <trkpt lat="45.7993" lon="1.88621">
        <ele>677.4</ele>
        <time>2024-09-15T12:42:38Z</time>
      </trkpt>
      <trkpt lat="45.7992" lon="1.88612">
        <ele>678.2</ele>
        <time>2024-09-15T12:42:43Z</time>
      </trkpt>
      <trkpt lat="45.79919" lon="1.88611">
        <ele>678.4</ele>
        <time>2024-09-15T12:42:44Z</time>
      </trkpt>
      <trkpt lat="45.79917" lon="1.88609">
        <ele>678.8</ele>
        <time>2024-09-15T12:42:45Z</time>
      </trkpt>
      <trkpt lat="45.79915" lon="1.88608">
        <ele>678.8</ele>
        <time>2024-09-15T12:42:46Z</time>
      </trkpt>
      <trkpt lat="45.79913" lon="1.88606">
        <ele>679.2</ele>
        <time>2024-09-15T12:42:47Z</time>
      </trkpt>
      <trkpt lat="45.79912" lon="1.88604">
        <ele>679.2</ele>
        <time>2024-09-15T12:42:48Z</time>
      </trkpt>
      <trkpt lat="45.7991" lon="1.88602">
        <ele>679.4</ele>
        <time>2024-09-15T12:42:49Z</time>
      </trkpt>
      <trkpt lat="45.79908" lon="1.886">
        <ele>679.4</ele>
        <time>2024-09-15T12:42:50Z</time>
      </trkpt>
      <trkpt lat="45.79907" lon="1.88599">
        <ele>679.4</ele>
        <time>2024-09-15T12:42:51Z</time>
      </trkpt>
      <trkpt lat="45.79905" lon="1.88597">
        <ele>679.6</ele>
        <time>2024-09-15T12:42:52Z</time>
      </trkpt>
      <trkpt lat="45.79903" lon="1.88595">
        <ele>679.8</ele>
        <time>2024-09-15T12:42:53Z</time>
      </trkpt>
      <trkpt lat="45.79902" lon="1.88593">
        <ele>679.8</ele>
        <time>2024-09-15T12:42:54Z</time>
      </trkpt>
      <trkpt lat="45.799" lon="1.88591">
        <ele>680</ele>
        <time>2024-09-15T12:42:55Z</time>
      </trkpt>
      <trkpt lat="45.79898" lon="1.88588">
        <ele>680.2</ele>
        <time>2024-09-15T12:42:56Z</time>
      </trkpt>
      <trkpt lat="45.79896" lon="1.88586">
        <ele>680.4</ele>
        <time>2024-09-15T12:42:57Z</time>
      </trkpt>
      <trkpt lat="45.79895" lon="1.88583">
        <ele>680.4</ele>
        <time>2024-09-15T12:42:58Z</time>
      </trkpt>
      <trkpt lat="45.79893" lon="1.88581">
        <ele>680.4</ele>
        <time>2024-09-15T12:42:59Z</time>
      </trkpt>
      <trkpt lat="45.79892" lon="1.88579">
        <ele>680.6</ele>
        <time>2024-09-15T12:43:00Z</time>
      </trkpt>
      <trkpt lat="45.79891" lon="1.88577">
        <ele>680.6</ele>
        <time>2024-09-15T12:43:01Z</time>
      </trkpt>
      <trkpt lat="45.79888" lon="1.88573">
        <ele>680.6</ele>
        <time>2024-09-15T12:43:02Z</time>
      </trkpt>
      <trkpt lat="45.79887" lon="1.88571">
        <ele>680.8</ele>
        <time>2024-09-15T12:43:03Z</time>
      </trkpt>
      <trkpt lat="45.79885" lon="1.88569">
        <ele>680.8</ele>
        <time>2024-09-15T12:43:04Z</time>
      </trkpt>
      <trkpt lat="45.79884" lon="1.88567">
        <ele>681</ele>
        <time>2024-09-15T12:43:05Z</time>
      </trkpt>
      <trkpt lat="45.79883" lon="1.88565">
        <ele>681</ele>
        <time>2024-09-15T12:43:06Z</time>
      </trkpt>
      <trkpt lat="45.79881" lon="1.88562">
        <ele>681.2</ele>
        <time>2024-09-15T12:43:07Z</time>
      </trkpt>
      <trkpt lat="45.79879" lon="1.88559">
        <ele>681.4</ele>
        <time>2024-09-15T12:43:08Z</time>
      </trkpt>
      <trkpt lat="45.79878" lon="1.88556">
        <ele>681.8</ele>
        <time>2024-09-15T12:43:09Z</time>
      </trkpt>
      <trkpt lat="45.79876" lon="1.88553">
        <ele>681.8</ele>
        <time>2024-09-15T12:43:10Z</time>
      </trkpt>
      <trkpt lat="45.79875" lon="1.88549">
        <ele>682.2</ele>
        <time>2024-09-15T12:43:11Z</time>
      </trkpt>
      <trkpt lat="45.79874" lon="1.88546">
        <ele>682.2</ele>
        <time>2024-09-15T12:43:12Z</time>
      </trkpt>
      <trkpt lat="45.79872" lon="1.88543">
        <ele>682.4</ele>
        <time>2024-09-15T12:43:13Z</time>
      </trkpt>
      <trkpt lat="45.7987" lon="1.88539">
        <ele>682.6</ele>
        <time>2024-09-15T12:43:14Z</time>
      </trkpt>
      <trkpt lat="45.79868" lon="1.88536">
        <ele>682.8</ele>
        <time>2024-09-15T12:43:15Z</time>
      </trkpt>
      <trkpt lat="45.79867" lon="1.88532">
        <ele>683</ele>
        <time>2024-09-15T12:43:16Z</time>
      </trkpt>
      <trkpt lat="45.79867" lon="1.88529">
        <ele>683</ele>
        <time>2024-09-15T12:43:17Z</time>
      </trkpt>
      <trkpt lat="45.79865" lon="1.88525">
        <ele>683.2</ele>
        <time>2024-09-15T12:43:18Z</time>
      </trkpt>
      <trkpt lat="45.79863" lon="1.88522">
        <ele>683.2</ele>
        <time>2024-09-15T12:43:19Z</time>
      </trkpt>
      <trkpt lat="45.79861" lon="1.88517">
        <ele>683.4</ele>
        <time>2024-09-15T12:43:20Z</time>
      </trkpt>
      <trkpt lat="45.7986" lon="1.88514">
        <ele>683.6</ele>
        <time>2024-09-15T12:43:21Z</time>
      </trkpt>
      <trkpt lat="45.79859" lon="1.8851">
        <ele>683.6</ele>
        <time>2024-09-15T12:43:22Z</time>
      </trkpt>
      <trkpt lat="45.79857" lon="1.88508">
        <ele>683.6</ele>
        <time>2024-09-15T12:43:23Z</time>
      </trkpt>
      <trkpt lat="45.79856" lon="1.88505">
        <ele>683.8</ele>
        <time>2024-09-15T12:43:24Z</time>
      </trkpt>
      <trkpt lat="45.79855" lon="1.88501">
        <ele>683.8</ele>
        <time>2024-09-15T12:43:25Z</time>
      </trkpt>
      <trkpt lat="45.79855" lon="1.88498">
        <ele>684</ele>
        <time>2024-09-15T12:43:26Z</time>
      </trkpt>
      <trkpt lat="45.79854" lon="1.88496">
        <ele>684.2</ele>
        <time>2024-09-15T12:43:27Z</time>
      </trkpt>
      <trkpt lat="45.79854" lon="1.88493">
        <ele>684.2</ele>
        <time>2024-09-15T12:43:28Z</time>
      </trkpt>
      <trkpt lat="45.79853" lon="1.8849">
        <ele>684.4</ele>
        <time>2024-09-15T12:43:29Z</time>
      </trkpt>
      <trkpt lat="45.79851" lon="1.88486">
        <ele>684.4</ele>
        <time>2024-09-15T12:43:30Z</time>
      </trkpt>
      <trkpt lat="45.7985" lon="1.88483">
        <ele>684.4</ele>
        <time>2024-09-15T12:43:31Z</time>
      </trkpt>
      <trkpt lat="45.79849" lon="1.8848">
        <ele>684.4</ele>
        <time>2024-09-15T12:43:32Z</time>
      </trkpt>
      <trkpt lat="45.79848" lon="1.88477">
        <ele>684.6</ele>
        <time>2024-09-15T12:43:33Z</time>
      </trkpt>
      <trkpt lat="45.79847" lon="1.88475">
        <ele>684.6</ele>
        <time>2024-09-15T12:43:34Z</time>
      </trkpt>
      <trkpt lat="45.79846" lon="1.88472">
        <ele>685</ele>
        <time>2024-09-15T12:43:35Z</time>
      </trkpt>
      <trkpt lat="45.79845" lon="1.8847">
        <ele>685</ele>
        <time>2024-09-15T12:43:36Z</time>
      </trkpt>
      <trkpt lat="45.79844" lon="1.88468">
        <ele>685.4</ele>
        <time>2024-09-15T12:43:37Z</time>
      </trkpt>
      <trkpt lat="45.79844" lon="1.88466">
        <ele>685.6</ele>
        <time>2024-09-15T12:43:38Z</time>
      </trkpt>
      <trkpt lat="45.79843" lon="1.88464">
        <ele>685.8</ele>
        <time>2024-09-15T12:43:39Z</time>
      </trkpt>
      <trkpt lat="45.79842" lon="1.88461">
        <ele>686</ele>
        <time>2024-09-15T12:43:40Z</time>
      </trkpt>
      <trkpt lat="45.79842" lon="1.88459">
        <ele>686</ele>
        <time>2024-09-15T12:43:41Z</time>
      </trkpt>
      <trkpt lat="45.79841" lon="1.88457">
        <ele>686.2</ele>
        <time>2024-09-15T12:43:42Z</time>
      </trkpt>
      <trkpt lat="45.7984" lon="1.88456">
        <ele>686.4</ele>
        <time>2024-09-15T12:43:43Z</time>
      </trkpt>
      <trkpt lat="45.79839" lon="1.88454">
        <ele>686.6</ele>
        <time>2024-09-15T12:43:44Z</time>
      </trkpt>
      <trkpt lat="45.79839" lon="1.88452">
        <ele>686.8</ele>
        <time>2024-09-15T12:43:45Z</time>
      </trkpt>
      <trkpt lat="45.79838" lon="1.8845">
        <ele>686.8</ele>
        <time>2024-09-15T12:43:46Z</time>
      </trkpt>
      <trkpt lat="45.79837" lon="1.88449">
        <ele>686.8</ele>
        <time>2024-09-15T12:43:47Z</time>
      </trkpt>
      <trkpt lat="45.79836" lon="1.88447">
        <ele>687</ele>
        <time>2024-09-15T12:43:48Z</time>
      </trkpt>
      <trkpt lat="45.79835" lon="1.88445">
        <ele>687</ele>
        <time>2024-09-15T12:43:49Z</time>
      </trkpt>
      <trkpt lat="45.79834" lon="1.88442">
        <ele>687.2</ele>
        <time>2024-09-15T12:43:50Z</time>
      </trkpt>
      <trkpt lat="45.79833" lon="1.88441">
        <ele>687.4</ele>
        <time>2024-09-15T12:43:51Z</time>
      </trkpt>
      <trkpt lat="45.79833" lon="1.88438">
        <ele>687.8</ele>
        <time>2024-09-15T12:43:52Z</time>
      </trkpt>
      <trkpt lat="45.79832" lon="1.88436">
        <ele>688</ele>
        <time>2024-09-15T12:43:53Z</time>
      </trkpt>
      <trkpt lat="45.7983" lon="1.88433">
        <ele>688.2</ele>
        <time>2024-09-15T12:43:54Z</time>
      </trkpt>
      <trkpt lat="45.79829" lon="1.8843">
        <ele>688.4</ele>
        <time>2024-09-15T12:43:55Z</time>
      </trkpt>
      <trkpt lat="45.79827" lon="1.88429">
        <ele>688.6</ele>
        <time>2024-09-15T12:43:56Z</time>
      </trkpt>
      <trkpt lat="45.79826" lon="1.88427">
        <ele>688.6</ele>
        <time>2024-09-15T12:43:57Z</time>
      </trkpt>
      <trkpt lat="45.79825" lon="1.88424">
        <ele>688.8</ele>
        <time>2024-09-15T12:43:58Z</time>
      </trkpt>
      <trkpt lat="45.79824" lon="1.8842">
        <ele>689</ele>
        <time>2024-09-15T12:43:59Z</time>
      </trkpt>
      <trkpt lat="45.79823" lon="1.88418">
        <ele>689.2</ele>
        <time>2024-09-15T12:44:00Z</time>
      </trkpt>
      <trkpt lat="45.79822" lon="1.88415">
        <ele>689.6</ele>
        <time>2024-09-15T12:44:01Z</time>
      </trkpt>
      <trkpt lat="45.7982" lon="1.88412">
        <ele>689.8</ele>
        <time>2024-09-15T12:44:02Z</time>
      </trkpt>
      <trkpt lat="45.79819" lon="1.88411">
        <ele>689.8</ele>
        <time>2024-09-15T12:44:03Z</time>
      </trkpt>
      <trkpt lat="45.79818" lon="1.8841">
        <ele>690</ele>
        <time>2024-09-15T12:44:04Z</time>
      </trkpt>
      <trkpt lat="45.79817" lon="1.88406">
        <ele>690.4</ele>
        <time>2024-09-15T12:44:05Z</time>
      </trkpt>
      <trkpt lat="45.79816" lon="1.88405">
        <ele>690.6</ele>
        <time>2024-09-15T12:44:06Z</time>
      </trkpt>
      <trkpt lat="45.79815" lon="1.88404">
        <ele>691</ele>
        <time>2024-09-15T12:44:07Z</time>
      </trkpt>
      <trkpt lat="45.79812" lon="1.88402">
        <ele>691.2</ele>
        <time>2024-09-15T12:44:08Z</time>
      </trkpt>
      <trkpt lat="45.79811" lon="1.884">
        <ele>691.2</ele>
        <time>2024-09-15T12:44:09Z</time>
      </trkpt>
      <trkpt lat="45.7981" lon="1.88398">
        <ele>691.4</ele>
        <time>2024-09-15T12:44:10Z</time>
      </trkpt>
      <trkpt lat="45.79808" lon="1.88395">
        <ele>691.6</ele>
        <time>2024-09-15T12:44:11Z</time>
      </trkpt>
      <trkpt lat="45.79807" lon="1.88393">
        <ele>691.8</ele>
        <time>2024-09-15T12:44:12Z</time>
      </trkpt>
      <trkpt lat="45.79806" lon="1.8839">
        <ele>692</ele>
        <time>2024-09-15T12:44:13Z</time>
      </trkpt>
      <trkpt lat="45.79805" lon="1.88389">
        <ele>692.2</ele>
        <time>2024-09-15T12:44:14Z</time>
      </trkpt>
      <trkpt lat="45.79804" lon="1.88388">
        <ele>692.2</ele>
        <time>2024-09-15T12:44:15Z</time>
      </trkpt>
      <trkpt lat="45.79802" lon="1.88387">
        <ele>692.4</ele>
        <time>2024-09-15T12:44:16Z</time>
      </trkpt>
      <trkpt lat="45.798" lon="1.88385">
        <ele>692.6</ele>
        <time>2024-09-15T12:44:17Z</time>
      </trkpt>
      <trkpt lat="45.79799" lon="1.88384">
        <ele>692.8</ele>
        <time>2024-09-15T12:44:18Z</time>
      </trkpt>
      <trkpt lat="45.79798" lon="1.88381">
        <ele>693</ele>
        <time>2024-09-15T12:44:19Z</time>
      </trkpt>
      <trkpt lat="45.79797" lon="1.88379">
        <ele>693.2</ele>
        <time>2024-09-15T12:44:20Z</time>
      </trkpt>
      <trkpt lat="45.79796" lon="1.88377">
        <ele>693.4</ele>
        <time>2024-09-15T12:44:21Z</time>
      </trkpt>
      <trkpt lat="45.79795" lon="1.88375">
        <ele>693.4</ele>
        <time>2024-09-15T12:44:22Z</time>
      </trkpt>
      <trkpt lat="45.79794" lon="1.88372">
        <ele>693.6</ele>
        <time>2024-09-15T12:44:23Z</time>
      </trkpt>
      <trkpt lat="45.79793" lon="1.8837">
        <ele>693.6</ele>
        <time>2024-09-15T12:44:24Z</time>
      </trkpt>
      <trkpt lat="45.79791" lon="1.88367">
        <ele>693.8</ele>
        <time>2024-09-15T12:44:25Z</time>
      </trkpt>
      <trkpt lat="45.7979" lon="1.88364">
        <ele>693.8</ele>
        <time>2024-09-15T12:44:26Z</time>
      </trkpt>
      <trkpt lat="45.79789" lon="1.88363">
        <ele>693.8</ele>
        <time>2024-09-15T12:44:27Z</time>
      </trkpt>
      <trkpt lat="45.79788" lon="1.88362">
        <ele>694</ele>
        <time>2024-09-15T12:44:28Z</time>
      </trkpt>
      <trkpt lat="45.79787" lon="1.88361">
        <ele>694</ele>
        <time>2024-09-15T12:44:29Z</time>
      </trkpt>
      <trkpt lat="45.79786" lon="1.88359">
        <ele>694.2</ele>
        <time>2024-09-15T12:44:30Z</time>
      </trkpt>
      <trkpt lat="45.79784" lon="1.88358">
        <ele>694.2</ele>
        <time>2024-09-15T12:44:31Z</time>
      </trkpt>
      <trkpt lat="45.79783" lon="1.88357">
        <ele>694.4</ele>
        <time>2024-09-15T12:44:32Z</time>
      </trkpt>
      <trkpt lat="45.79782" lon="1.88356">
        <ele>694.4</ele>
        <time>2024-09-15T12:44:33Z</time>
      </trkpt>
      <trkpt lat="45.7978" lon="1.88354">
        <ele>694.6</ele>
        <time>2024-09-15T12:44:34Z</time>
      </trkpt>
      <trkpt lat="45.79779" lon="1.88353">
        <ele>695</ele>
        <time>2024-09-15T12:44:35Z</time>
      </trkpt>
      <trkpt lat="45.79778" lon="1.88351">
        <ele>695.2</ele>
        <time>2024-09-15T12:44:36Z</time>
      </trkpt>
      <trkpt lat="45.79777" lon="1.88349">
        <ele>695.4</ele>
        <time>2024-09-15T12:44:37Z</time>
      </trkpt>
      <trkpt lat="45.79776" lon="1.88347">
        <ele>695.6</ele>
        <time>2024-09-15T12:44:38Z</time>
      </trkpt>
      <trkpt lat="45.79775" lon="1.88346">
        <ele>695.6</ele>
        <time>2024-09-15T12:44:39Z</time>
      </trkpt>
      <trkpt lat="45.79774" lon="1.88345">
        <ele>696</ele>
        <time>2024-09-15T12:44:40Z</time>
      </trkpt>
      <trkpt lat="45.79773" lon="1.88344">
        <ele>696</ele>
        <time>2024-09-15T12:44:41Z</time>
      </trkpt>
      <trkpt lat="45.79772" lon="1.88343">
        <ele>696.2</ele>
        <time>2024-09-15T12:44:42Z</time>
      </trkpt>
      <trkpt lat="45.79771" lon="1.88342">
        <ele>696.4</ele>
        <time>2024-09-15T12:44:43Z</time>
      </trkpt>
      <trkpt lat="45.7977" lon="1.8834">
        <ele>697</ele>
        <time>2024-09-15T12:44:44Z</time>
      </trkpt>
      <trkpt lat="45.79769" lon="1.88338">
        <ele>697</ele>
        <time>2024-09-15T12:44:45Z</time>
      </trkpt>
      <trkpt lat="45.79768" lon="1.88336">
        <ele>697.2</ele>
        <time>2024-09-15T12:44:46Z</time>
      </trkpt>
      <trkpt lat="45.79767" lon="1.88335">
        <ele>697.4</ele>
        <time>2024-09-15T12:44:47Z</time>
      </trkpt>
      <trkpt lat="45.79766" lon="1.88333">
        <ele>697.4</ele>
        <time>2024-09-15T12:44:48Z</time>
      </trkpt>
      <trkpt lat="45.79765" lon="1.88331">
        <ele>697.4</ele>
        <time>2024-09-15T12:44:49Z</time>
      </trkpt>
      <trkpt lat="45.79764" lon="1.88329">
        <ele>697.6</ele>
        <time>2024-09-15T12:44:50Z</time>
      </trkpt>
      <trkpt lat="45.79763" lon="1.88327">
        <ele>697.8</ele>
        <time>2024-09-15T12:44:51Z</time>
      </trkpt>
      <trkpt lat="45.79761" lon="1.88325">
        <ele>697.8</ele>
        <time>2024-09-15T12:44:52Z</time>
      </trkpt>
      <trkpt lat="45.79759" lon="1.88323">
        <ele>698</ele>
        <time>2024-09-15T12:44:53Z</time>
      </trkpt>
      <trkpt lat="45.79758" lon="1.88321">
        <ele>698.2</ele>
        <time>2024-09-15T12:44:54Z</time>
      </trkpt>
      <trkpt lat="45.79756" lon="1.8832">
        <ele>698.2</ele>
        <time>2024-09-15T12:44:55Z</time>
      </trkpt>
      <trkpt lat="45.79754" lon="1.88318">
        <ele>698.2</ele>
        <time>2024-09-15T12:44:56Z</time>
      </trkpt>
      <trkpt lat="45.79752" lon="1.88316">
        <ele>698.4</ele>
        <time>2024-09-15T12:44:57Z</time>
      </trkpt>
      <trkpt lat="45.7975" lon="1.88315">
        <ele>698.4</ele>
        <time>2024-09-15T12:44:58Z</time>
      </trkpt>
      <trkpt lat="45.79748" lon="1.88313">
        <ele>698.6</ele>
        <time>2024-09-15T12:44:59Z</time>
      </trkpt>
      <trkpt lat="45.79746" lon="1.88311">
        <ele>698.8</ele>
        <time>2024-09-15T12:45:00Z</time>
      </trkpt>
      <trkpt lat="45.79744" lon="1.88309">
        <ele>699</ele>
        <time>2024-09-15T12:45:01Z</time>
      </trkpt>
      <trkpt lat="45.79742" lon="1.88308">
        <ele>699</ele>
        <time>2024-09-15T12:45:02Z</time>
      </trkpt>
      <trkpt lat="45.7974" lon="1.88306">
        <ele>699.2</ele>
        <time>2024-09-15T12:45:03Z</time>
      </trkpt>
      <trkpt lat="45.79739" lon="1.88304">
        <ele>699.2</ele>
        <time>2024-09-15T12:45:04Z</time>
      </trkpt>
      <trkpt lat="45.79737" lon="1.88302">
        <ele>699.2</ele>
        <time>2024-09-15T12:45:05Z</time>
      </trkpt>
      <trkpt lat="45.79736" lon="1.883">
        <ele>699.4</ele>
        <time>2024-09-15T12:45:06Z</time>
      </trkpt>
      <trkpt lat="45.79734" lon="1.88298">
        <ele>699.4</ele>
        <time>2024-09-15T12:45:07Z</time>
      </trkpt>
      <trkpt lat="45.79732" lon="1.88297">
        <ele>699.4</ele>
        <time>2024-09-15T12:45:08Z</time>
      </trkpt>
      <trkpt lat="45.79731" lon="1.88295">
        <ele>699.4</ele>
        <time>2024-09-15T12:45:09Z</time>
      </trkpt>
      <trkpt lat="45.7973" lon="1.88294">
        <ele>699.4</ele>
        <time>2024-09-15T12:45:10Z</time>
      </trkpt>
      <trkpt lat="45.79728" lon="1.88292">
        <ele>699.6</ele>
        <time>2024-09-15T12:45:11Z</time>
      </trkpt>
      <trkpt lat="45.79726" lon="1.8829">
        <ele>699.6</ele>
        <time>2024-09-15T12:45:12Z</time>
      </trkpt>
      <trkpt lat="45.79725" lon="1.88288">
        <ele>699.8</ele>
        <time>2024-09-15T12:45:13Z</time>
      </trkpt>
      <trkpt lat="45.79723" lon="1.88287">
        <ele>699.8</ele>
        <time>2024-09-15T12:45:14Z</time>
      </trkpt>
      <trkpt lat="45.79721" lon="1.88286">
        <ele>699.8</ele>
        <time>2024-09-15T12:45:15Z</time>
      </trkpt>
      <trkpt lat="45.7972" lon="1.88284">
        <ele>700</ele>
        <time>2024-09-15T12:45:16Z</time>
      </trkpt>
      <trkpt lat="45.79718" lon="1.88283">
        <ele>700.2</ele>
        <time>2024-09-15T12:45:17Z</time>
      </trkpt>
      <trkpt lat="45.79717" lon="1.88281">
        <ele>700.2</ele>
        <time>2024-09-15T12:45:18Z</time>
      </trkpt>
      <trkpt lat="45.79716" lon="1.88279">
        <ele>700.2</ele>
        <time>2024-09-15T12:45:19Z</time>
      </trkpt>
      <trkpt lat="45.79715" lon="1.88277">
        <ele>700.2</ele>
        <time>2024-09-15T12:45:20Z</time>
      </trkpt>
      <trkpt lat="45.79714" lon="1.88276">
        <ele>700.4</ele>
        <time>2024-09-15T12:45:21Z</time>
      </trkpt>
      <trkpt lat="45.79713" lon="1.88274">
        <ele>700.6</ele>
        <time>2024-09-15T12:45:22Z</time>
      </trkpt>
      <trkpt lat="45.79711" lon="1.88273">
        <ele>700.8</ele>
        <time>2024-09-15T12:45:23Z</time>
      </trkpt>
      <trkpt lat="45.7971" lon="1.88272">
        <ele>701</ele>
        <time>2024-09-15T12:45:24Z</time>
      </trkpt>
      <trkpt lat="45.79708" lon="1.88271">
        <ele>701.2</ele>
        <time>2024-09-15T12:45:25Z</time>
      </trkpt>
      <trkpt lat="45.79707" lon="1.8827">
        <ele>701.4</ele>
        <time>2024-09-15T12:45:26Z</time>
      </trkpt>
      <trkpt lat="45.79705" lon="1.88269">
        <ele>701.6</ele>
        <time>2024-09-15T12:45:27Z</time>
      </trkpt>
      <trkpt lat="45.79704" lon="1.88268">
        <ele>701.8</ele>
        <time>2024-09-15T12:45:28Z</time>
      </trkpt>
      <trkpt lat="45.79702" lon="1.88267">
        <ele>702.2</ele>
        <time>2024-09-15T12:45:29Z</time>
      </trkpt>
      <trkpt lat="45.79701" lon="1.88266">
        <ele>702.4</ele>
        <time>2024-09-15T12:45:30Z</time>
      </trkpt>
      <trkpt lat="45.79699" lon="1.88265">
        <ele>702.6</ele>
        <time>2024-09-15T12:45:31Z</time>
      </trkpt>
      <trkpt lat="45.79698" lon="1.88264">
        <ele>702.8</ele>
        <time>2024-09-15T12:45:32Z</time>
      </trkpt>
      <trkpt lat="45.79696" lon="1.88263">
        <ele>703</ele>
        <time>2024-09-15T12:45:33Z</time>
      </trkpt>
      <trkpt lat="45.79695" lon="1.88262">
        <ele>703.2</ele>
        <time>2024-09-15T12:45:34Z</time>
      </trkpt>
      <trkpt lat="45.79693" lon="1.88262">
        <ele>703.2</ele>
        <time>2024-09-15T12:45:35Z</time>
      </trkpt>
      <trkpt lat="45.79691" lon="1.8826">
        <ele>703.4</ele>
        <time>2024-09-15T12:45:36Z</time>
      </trkpt>
      <trkpt lat="45.7969" lon="1.88259">
        <ele>703.8</ele>
        <time>2024-09-15T12:45:37Z</time>
      </trkpt>
      <trkpt lat="45.79688" lon="1.88258">
        <ele>704</ele>
        <time>2024-09-15T12:45:38Z</time>
      </trkpt>
      <trkpt lat="45.79687" lon="1.88258">
        <ele>704.2</ele>
        <time>2024-09-15T12:45:39Z</time>
      </trkpt>
      <trkpt lat="45.79685" lon="1.88256">
        <ele>704.4</ele>
        <time>2024-09-15T12:45:40Z</time>
      </trkpt>
      <trkpt lat="45.79684" lon="1.88255">
        <ele>704.6</ele>
        <time>2024-09-15T12:45:41Z</time>
      </trkpt>
      <trkpt lat="45.79682" lon="1.88254">
        <ele>704.8</ele>
        <time>2024-09-15T12:45:42Z</time>
      </trkpt>
      <trkpt lat="45.7968" lon="1.88253">
        <ele>705</ele>
        <time>2024-09-15T12:45:43Z</time>
      </trkpt>
      <trkpt lat="45.79679" lon="1.88251">
        <ele>705.2</ele>
        <time>2024-09-15T12:45:44Z</time>
      </trkpt>
      <trkpt lat="45.79678" lon="1.8825">
        <ele>705.6</ele>
        <time>2024-09-15T12:45:45Z</time>
      </trkpt>
      <trkpt lat="45.79676" lon="1.88248">
        <ele>705.8</ele>
        <time>2024-09-15T12:45:46Z</time>
      </trkpt>
      <trkpt lat="45.79674" lon="1.88247">
        <ele>706.4</ele>
        <time>2024-09-15T12:45:47Z</time>
      </trkpt>
      <trkpt lat="45.79672" lon="1.88246">
        <ele>706.4</ele>
        <time>2024-09-15T12:45:48Z</time>
      </trkpt>
      <trkpt lat="45.79671" lon="1.88244">
        <ele>706.8</ele>
        <time>2024-09-15T12:45:49Z</time>
      </trkpt>
      <trkpt lat="45.79669" lon="1.88243">
        <ele>707</ele>
        <time>2024-09-15T12:45:50Z</time>
      </trkpt>
      <trkpt lat="45.79667" lon="1.88241">
        <ele>707.2</ele>
        <time>2024-09-15T12:45:51Z</time>
      </trkpt>
      <trkpt lat="45.79666" lon="1.8824">
        <ele>707.4</ele>
        <time>2024-09-15T12:45:52Z</time>
      </trkpt>
      <trkpt lat="45.79664" lon="1.88238">
        <ele>707.4</ele>
        <time>2024-09-15T12:45:53Z</time>
      </trkpt>
      <trkpt lat="45.79663" lon="1.88236">
        <ele>707.8</ele>
        <time>2024-09-15T12:45:54Z</time>
      </trkpt>
      <trkpt lat="45.79661" lon="1.88234">
        <ele>707.8</ele>
        <time>2024-09-15T12:45:55Z</time>
      </trkpt>
      <trkpt lat="45.7966" lon="1.88232">
        <ele>708</ele>
        <time>2024-09-15T12:45:56Z</time>
      </trkpt>
      <trkpt lat="45.79658" lon="1.8823">
        <ele>708</ele>
        <time>2024-09-15T12:45:57Z</time>
      </trkpt>
      <trkpt lat="45.79657" lon="1.88229">
        <ele>708</ele>
        <time>2024-09-15T12:45:58Z</time>
      </trkpt>
      <trkpt lat="45.79655" lon="1.88228">
        <ele>708</ele>
        <time>2024-09-15T12:45:59Z</time>
      </trkpt>
      <trkpt lat="45.79654" lon="1.88226">
        <ele>708.2</ele>
        <time>2024-09-15T12:46:00Z</time>
      </trkpt>
      <trkpt lat="45.79653" lon="1.88225">
        <ele>708.2</ele>
        <time>2024-09-15T12:46:01Z</time>
      </trkpt>
      <trkpt lat="45.79653" lon="1.88223">
        <ele>708.4</ele>
        <time>2024-09-15T12:46:02Z</time>
      </trkpt>
      <trkpt lat="45.79652" lon="1.88222">
        <ele>708.4</ele>
        <time>2024-09-15T12:46:03Z</time>
      </trkpt>
      <trkpt lat="45.79651" lon="1.8822">
        <ele>708.6</ele>
        <time>2024-09-15T12:46:04Z</time>
      </trkpt>
      <trkpt lat="45.7965" lon="1.88219">
        <ele>708.6</ele>
        <time>2024-09-15T12:46:05Z</time>
      </trkpt>
      <trkpt lat="45.79649" lon="1.88217">
        <ele>708.6</ele>
        <time>2024-09-15T12:46:06Z</time>
      </trkpt>
      <trkpt lat="45.79648" lon="1.88216">
        <ele>708.6</ele>
        <time>2024-09-15T12:46:07Z</time>
      </trkpt>
      <trkpt lat="45.79646" lon="1.88214">
        <ele>708.8</ele>
        <time>2024-09-15T12:46:08Z</time>
      </trkpt>
      <trkpt lat="45.79645" lon="1.88212">
        <ele>708.8</ele>
        <time>2024-09-15T12:46:09Z</time>
      </trkpt>
      <trkpt lat="45.79644" lon="1.8821">
        <ele>708.8</ele>
        <time>2024-09-15T12:46:10Z</time>
      </trkpt>
      <trkpt lat="45.79643" lon="1.88208">
        <ele>708.8</ele>
        <time>2024-09-15T12:46:11Z</time>
      </trkpt>
      <trkpt lat="45.79643" lon="1.88205">
        <ele>708.8</ele>
        <time>2024-09-15T12:46:12Z</time>
      </trkpt>
      <trkpt lat="45.79642" lon="1.88203">
        <ele>709</ele>
        <time>2024-09-15T12:46:13Z</time>
      </trkpt>
      <trkpt lat="45.79642" lon="1.882">
        <ele>709.2</ele>
        <time>2024-09-15T12:46:14Z</time>
      </trkpt>
      <trkpt lat="45.79641" lon="1.88198">
        <ele>709.4</ele>
        <time>2024-09-15T12:46:15Z</time>
      </trkpt>
      <trkpt lat="45.7964" lon="1.88196">
        <ele>709.4</ele>
        <time>2024-09-15T12:46:16Z</time>
      </trkpt>
      <trkpt lat="45.7964" lon="1.88194">
        <ele>709.6</ele>
        <time>2024-09-15T12:46:17Z</time>
      </trkpt>
      <trkpt lat="45.79639" lon="1.88191">
        <ele>709.8</ele>
        <time>2024-09-15T12:46:18Z</time>
      </trkpt>
      <trkpt lat="45.79638" lon="1.88189">
        <ele>709.8</ele>
        <time>2024-09-15T12:46:19Z</time>
      </trkpt>
      <trkpt lat="45.79638" lon="1.88186">
        <ele>710</ele>
        <time>2024-09-15T12:46:20Z</time>
      </trkpt>
      <trkpt lat="45.79637" lon="1.88184">
        <ele>710</ele>
        <time>2024-09-15T12:46:21Z</time>
      </trkpt>
      <trkpt lat="45.79637" lon="1.88182">
        <ele>710.2</ele>
        <time>2024-09-15T12:46:22Z</time>
      </trkpt>
      <trkpt lat="45.79636" lon="1.88179">
        <ele>710.2</ele>
        <time>2024-09-15T12:46:23Z</time>
      </trkpt>
      <trkpt lat="45.79635" lon="1.88177">
        <ele>710.4</ele>
        <time>2024-09-15T12:46:24Z</time>
      </trkpt>
      <trkpt lat="45.79634" lon="1.88175">
        <ele>710.6</ele>
        <time>2024-09-15T12:46:25Z</time>
      </trkpt>
      <trkpt lat="45.79633" lon="1.88172">
        <ele>710.8</ele>
        <time>2024-09-15T12:46:26Z</time>
      </trkpt>
      <trkpt lat="45.79632" lon="1.8817">
        <ele>710.8</ele>
        <time>2024-09-15T12:46:27Z</time>
      </trkpt>
      <trkpt lat="45.79631" lon="1.88167">
        <ele>711</ele>
        <time>2024-09-15T12:46:28Z</time>
      </trkpt>
      <trkpt lat="45.79629" lon="1.88164">
        <ele>711.2</ele>
        <time>2024-09-15T12:46:29Z</time>
      </trkpt>
      <trkpt lat="45.79628" lon="1.88162">
        <ele>711.4</ele>
        <time>2024-09-15T12:46:30Z</time>
      </trkpt>
      <trkpt lat="45.79627" lon="1.88159">
        <ele>711.8</ele>
        <time>2024-09-15T12:46:31Z</time>
      </trkpt>
      <trkpt lat="45.79627" lon="1.88156">
        <ele>711.8</ele>
        <time>2024-09-15T12:46:32Z</time>
      </trkpt>
      <trkpt lat="45.79626" lon="1.88153">
        <ele>712.2</ele>
        <time>2024-09-15T12:46:33Z</time>
      </trkpt>
      <trkpt lat="45.79626" lon="1.8815">
        <ele>712.4</ele>
        <time>2024-09-15T12:46:34Z</time>
      </trkpt>
      <trkpt lat="45.79626" lon="1.88147">
        <ele>712.4</ele>
        <time>2024-09-15T12:46:35Z</time>
      </trkpt>
      <trkpt lat="45.79624" lon="1.88143">
        <ele>712.4</ele>
        <time>2024-09-15T12:46:36Z</time>
      </trkpt>
      <trkpt lat="45.79623" lon="1.88141">
        <ele>712.8</ele>
        <time>2024-09-15T12:46:37Z</time>
      </trkpt>
      <trkpt lat="45.79621" lon="1.8814">
        <ele>712.8</ele>
        <time>2024-09-15T12:46:38Z</time>
      </trkpt>
      <trkpt lat="45.7962" lon="1.88137">
        <ele>713</ele>
        <time>2024-09-15T12:46:39Z</time>
      </trkpt>
      <trkpt lat="45.79618" lon="1.88135">
        <ele>713</ele>
        <time>2024-09-15T12:46:40Z</time>
      </trkpt>
      <trkpt lat="45.79617" lon="1.88133">
        <ele>713</ele>
        <time>2024-09-15T12:46:41Z</time>
      </trkpt>
      <trkpt lat="45.79614" lon="1.88131">
        <ele>713.2</ele>
        <time>2024-09-15T12:46:42Z</time>
      </trkpt>
      <trkpt lat="45.79613" lon="1.8813">
        <ele>713.2</ele>
        <time>2024-09-15T12:46:43Z</time>
      </trkpt>
      <trkpt lat="45.79611" lon="1.88128">
        <ele>713.4</ele>
        <time>2024-09-15T12:46:44Z</time>
      </trkpt>
      <trkpt lat="45.79609" lon="1.88127">
        <ele>713.6</ele>
        <time>2024-09-15T12:46:45Z</time>
      </trkpt>
      <trkpt lat="45.79607" lon="1.88125">
        <ele>713.6</ele>
        <time>2024-09-15T12:46:46Z</time>
      </trkpt>
      <trkpt lat="45.79605" lon="1.88124">
        <ele>713.6</ele>
        <time>2024-09-15T12:46:47Z</time>
      </trkpt>
      <trkpt lat="45.79603" lon="1.88123">
        <ele>713.8</ele>
        <time>2024-09-15T12:46:48Z</time>
      </trkpt>
      <trkpt lat="45.79601" lon="1.88122">
        <ele>713.8</ele>
        <time>2024-09-15T12:46:49Z</time>
      </trkpt>
      <trkpt lat="45.796" lon="1.88121">
        <ele>713.8</ele>
        <time>2024-09-15T12:46:50Z</time>
      </trkpt>
      <trkpt lat="45.79598" lon="1.8812">
        <ele>713.8</ele>
        <time>2024-09-15T12:46:51Z</time>
      </trkpt>
      <trkpt lat="45.79596" lon="1.88118">
        <ele>714</ele>
        <time>2024-09-15T12:46:52Z</time>
      </trkpt>
      <trkpt lat="45.79595" lon="1.88117">
        <ele>714</ele>
        <time>2024-09-15T12:46:53Z</time>
      </trkpt>
      <trkpt lat="45.79593" lon="1.88116">
        <ele>714.2</ele>
        <time>2024-09-15T12:46:54Z</time>
      </trkpt>
      <trkpt lat="45.79592" lon="1.88115">
        <ele>714.4</ele>
        <time>2024-09-15T12:46:55Z</time>
      </trkpt>
      <trkpt lat="45.7959" lon="1.88114">
        <ele>714.6</ele>
        <time>2024-09-15T12:46:56Z</time>
      </trkpt>
      <trkpt lat="45.79589" lon="1.88112">
        <ele>714.8</ele>
        <time>2024-09-15T12:46:57Z</time>
      </trkpt>
      <trkpt lat="45.79588" lon="1.88111">
        <ele>714.8</ele>
        <time>2024-09-15T12:46:58Z</time>
      </trkpt>
      <trkpt lat="45.79587" lon="1.8811">
        <ele>715.2</ele>
        <time>2024-09-15T12:46:59Z</time>
      </trkpt>
      <trkpt lat="45.79586" lon="1.88109">
        <ele>715.2</ele>
        <time>2024-09-15T12:47:00Z</time>
      </trkpt>
      <trkpt lat="45.79585" lon="1.88108">
        <ele>715.8</ele>
        <time>2024-09-15T12:47:01Z</time>
      </trkpt>
      <trkpt lat="45.79583" lon="1.88107">
        <ele>716</ele>
        <time>2024-09-15T12:47:02Z</time>
      </trkpt>
      <trkpt lat="45.79582" lon="1.88106">
        <ele>716.2</ele>
        <time>2024-09-15T12:47:03Z</time>
      </trkpt>
      <trkpt lat="45.79581" lon="1.88105">
        <ele>716.4</ele>
        <time>2024-09-15T12:47:04Z</time>
      </trkpt>
      <trkpt lat="45.79579" lon="1.88105">
        <ele>716.8</ele>
        <time>2024-09-15T12:47:05Z</time>
      </trkpt>
      <trkpt lat="45.79578" lon="1.88103">
        <ele>717.4</ele>
        <time>2024-09-15T12:47:06Z</time>
      </trkpt>
      <trkpt lat="45.79577" lon="1.88102">
        <ele>717.6</ele>
        <time>2024-09-15T12:47:07Z</time>
      </trkpt>
      <trkpt lat="45.79576" lon="1.881">
        <ele>718</ele>
        <time>2024-09-15T12:47:08Z</time>
      </trkpt>
      <trkpt lat="45.79574" lon="1.88099">
        <ele>718</ele>
        <time>2024-09-15T12:47:09Z</time>
      </trkpt>
      <trkpt lat="45.79573" lon="1.88097">
        <ele>718.2</ele>
        <time>2024-09-15T12:47:10Z</time>
      </trkpt>
      <trkpt lat="45.79571" lon="1.88095">
        <ele>718.4</ele>
        <time>2024-09-15T12:47:11Z</time>
      </trkpt>
      <trkpt lat="45.7957" lon="1.88093">
        <ele>718.6</ele>
        <time>2024-09-15T12:47:12Z</time>
      </trkpt>
      <trkpt lat="45.79569" lon="1.88091">
        <ele>718.6</ele>
        <time>2024-09-15T12:47:13Z</time>
      </trkpt>
      <trkpt lat="45.79568" lon="1.88088">
        <ele>718.6</ele>
        <time>2024-09-15T12:47:14Z</time>
      </trkpt>
      <trkpt lat="45.79567" lon="1.88086">
        <ele>718.8</ele>
        <time>2024-09-15T12:47:15Z</time>
      </trkpt>
      <trkpt lat="45.79566" lon="1.88084">
        <ele>718.8</ele>
        <time>2024-09-15T12:47:16Z</time>
      </trkpt>
      <trkpt lat="45.79565" lon="1.88081">
        <ele>718.8</ele>
        <time>2024-09-15T12:47:17Z</time>
      </trkpt>
      <trkpt lat="45.79563" lon="1.88078">
        <ele>719</ele>
        <time>2024-09-15T12:47:18Z</time>
      </trkpt>
      <trkpt lat="45.79562" lon="1.88075">
        <ele>719</ele>
        <time>2024-09-15T12:47:19Z</time>
      </trkpt>
      <trkpt lat="45.79561" lon="1.88072">
        <ele>719.2</ele>
        <time>2024-09-15T12:47:20Z</time>
      </trkpt>
      <trkpt lat="45.79561" lon="1.88069">
        <ele>719.2</ele>
        <time>2024-09-15T12:47:21Z</time>
      </trkpt>
      <trkpt lat="45.7956" lon="1.88065">
        <ele>719.4</ele>
        <time>2024-09-15T12:47:22Z</time>
      </trkpt>
      <trkpt lat="45.79559" lon="1.88062">
        <ele>719.6</ele>
        <time>2024-09-15T12:47:23Z</time>
      </trkpt>
      <trkpt lat="45.79557" lon="1.88059">
        <ele>719.8</ele>
        <time>2024-09-15T12:47:24Z</time>
      </trkpt>
      <trkpt lat="45.79556" lon="1.88056">
        <ele>720.2</ele>
        <time>2024-09-15T12:47:25Z</time>
      </trkpt>
      <trkpt lat="45.79555" lon="1.88054">
        <ele>720.2</ele>
        <time>2024-09-15T12:47:26Z</time>
      </trkpt>
      <trkpt lat="45.79554" lon="1.88051">
        <ele>720.4</ele>
        <time>2024-09-15T12:47:27Z</time>
      </trkpt>
      <trkpt lat="45.79554" lon="1.88048">
        <ele>720.6</ele>
        <time>2024-09-15T12:47:28Z</time>
      </trkpt>
      <trkpt lat="45.79553" lon="1.88045">
        <ele>720.6</ele>
        <time>2024-09-15T12:47:29Z</time>
      </trkpt>
      <trkpt lat="45.79552" lon="1.88042">
        <ele>720.6</ele>
        <time>2024-09-15T12:47:30Z</time>
      </trkpt>
      <trkpt lat="45.79551" lon="1.88036">
        <ele>720.8</ele>
        <time>2024-09-15T12:47:31Z</time>
      </trkpt>
      <trkpt lat="45.79552" lon="1.88034">
        <ele>721</ele>
        <time>2024-09-15T12:47:32Z</time>
      </trkpt>
      <trkpt lat="45.79552" lon="1.88031">
        <ele>721</ele>
        <time>2024-09-15T12:47:33Z</time>
      </trkpt>
      <trkpt lat="45.79552" lon="1.88028">
        <ele>721.2</ele>
        <time>2024-09-15T12:47:34Z</time>
      </trkpt>
      <trkpt lat="45.79552" lon="1.88025">
        <ele>721.2</ele>
        <time>2024-09-15T12:47:35Z</time>
      </trkpt>
      <trkpt lat="45.79552" lon="1.88023">
        <ele>721.4</ele>
        <time>2024-09-15T12:47:36Z</time>
      </trkpt>
      <trkpt lat="45.79551" lon="1.88019">
        <ele>721.6</ele>
        <time>2024-09-15T12:47:37Z</time>
      </trkpt>
      <trkpt lat="45.79551" lon="1.88016">
        <ele>721.6</ele>
        <time>2024-09-15T12:47:38Z</time>
      </trkpt>
      <trkpt lat="45.7955" lon="1.88013">
        <ele>721.8</ele>
        <time>2024-09-15T12:47:39Z</time>
      </trkpt>
      <trkpt lat="45.79551" lon="1.88011">
        <ele>722</ele>
        <time>2024-09-15T12:47:40Z</time>
      </trkpt>
      <trkpt lat="45.79551" lon="1.88008">
        <ele>722.2</ele>
        <time>2024-09-15T12:47:41Z</time>
      </trkpt>
      <trkpt lat="45.79552" lon="1.88005">
        <ele>722.6</ele>
        <time>2024-09-15T12:47:42Z</time>
      </trkpt>
      <trkpt lat="45.79554" lon="1.88003">
        <ele>722.8</ele>
        <time>2024-09-15T12:47:43Z</time>
      </trkpt>
      <trkpt lat="45.79556" lon="1.88001">
        <ele>722.8</ele>
        <time>2024-09-15T12:47:44Z</time>
      </trkpt>
      <trkpt lat="45.79557" lon="1.87999">
        <ele>723</ele>
        <time>2024-09-15T12:47:45Z</time>
      </trkpt>
      <trkpt lat="45.79559" lon="1.87997">
        <ele>723</ele>
        <time>2024-09-15T12:47:46Z</time>
      </trkpt>
      <trkpt lat="45.79561" lon="1.87993">
        <ele>723.4</ele>
        <time>2024-09-15T12:47:47Z</time>
      </trkpt>
      <trkpt lat="45.79562" lon="1.87991">
        <ele>723.6</ele>
        <time>2024-09-15T12:47:48Z</time>
      </trkpt>
      <trkpt lat="45.79562" lon="1.8799">
        <ele>723.8</ele>
        <time>2024-09-15T12:47:49Z</time>
      </trkpt>
      <trkpt lat="45.79564" lon="1.87988">
        <ele>723.8</ele>
        <time>2024-09-15T12:47:50Z</time>
      </trkpt>
      <trkpt lat="45.79565" lon="1.87986">
        <ele>724</ele>
        <time>2024-09-15T12:47:51Z</time>
      </trkpt>
      <trkpt lat="45.79566" lon="1.87986">
        <ele>724.2</ele>
        <time>2024-09-15T12:47:52Z</time>
      </trkpt>
      <trkpt lat="45.79567" lon="1.87985">
        <ele>724.4</ele>
        <time>2024-09-15T12:47:53Z</time>
      </trkpt>
      <trkpt lat="45.79568" lon="1.87984">
        <ele>725</ele>
        <time>2024-09-15T12:47:54Z</time>
      </trkpt>
      <trkpt lat="45.79568" lon="1.87983">
        <ele>725.2</ele>
        <time>2024-09-15T12:47:55Z</time>
      </trkpt>
      <trkpt lat="45.79569" lon="1.87982">
        <ele>725.4</ele>
        <time>2024-09-15T12:47:56Z</time>
      </trkpt>
      <trkpt lat="45.79571" lon="1.87982">
        <ele>725.6</ele>
        <time>2024-09-15T12:47:57Z</time>
      </trkpt>
      <trkpt lat="45.79572" lon="1.87981">
        <ele>725.8</ele>
        <time>2024-09-15T12:47:58Z</time>
      </trkpt>
      <trkpt lat="45.79572" lon="1.87981">
        <ele>725.8</ele>
        <time>2024-09-15T12:47:59Z</time>
      </trkpt>
      <trkpt lat="45.79573" lon="1.87981">
        <ele>726</ele>
        <time>2024-09-15T12:48:00Z</time>
      </trkpt>
      <trkpt lat="45.79574" lon="1.87981">
        <ele>726.2</ele>
        <time>2024-09-15T12:48:01Z</time>
      </trkpt>
      <trkpt lat="45.79575" lon="1.87982">
        <ele>726.4</ele>
        <time>2024-09-15T12:48:02Z</time>
      </trkpt>
      <trkpt lat="45.79576" lon="1.87982">
        <ele>726.4</ele>
        <time>2024-09-15T12:48:03Z</time>
      </trkpt>
      <trkpt lat="45.79577" lon="1.87982">
        <ele>726.6</ele>
        <time>2024-09-15T12:48:04Z</time>
      </trkpt>
      <trkpt lat="45.79579" lon="1.87982">
        <ele>726.8</ele>
        <time>2024-09-15T12:48:05Z</time>
      </trkpt>
      <trkpt lat="45.7958" lon="1.87982">
        <ele>727</ele>
        <time>2024-09-15T12:48:06Z</time>
      </trkpt>
      <trkpt lat="45.79582" lon="1.87982">
        <ele>727</ele>
        <time>2024-09-15T12:48:07Z</time>
      </trkpt>
      <trkpt lat="45.79584" lon="1.87982">
        <ele>727</ele>
        <time>2024-09-15T12:48:08Z</time>
      </trkpt>
      <trkpt lat="45.79587" lon="1.87982">
        <ele>727.2</ele>
        <time>2024-09-15T12:48:09Z</time>
      </trkpt>
      <trkpt lat="45.79589" lon="1.87982">
        <ele>727.2</ele>
        <time>2024-09-15T12:48:10Z</time>
      </trkpt>
      <trkpt lat="45.79589" lon="1.87983">
        <ele>727.4</ele>
        <time>2024-09-15T12:48:11Z</time>
      </trkpt>
      <trkpt lat="45.79591" lon="1.87982">
        <ele>727.4</ele>
        <time>2024-09-15T12:48:12Z</time>
      </trkpt>
      <trkpt lat="45.79592" lon="1.87982">
        <ele>727.6</ele>
        <time>2024-09-15T12:48:13Z</time>
      </trkpt>
      <trkpt lat="45.79593" lon="1.87982">
        <ele>727.8</ele>
        <time>2024-09-15T12:48:14Z</time>
      </trkpt>
      <trkpt lat="45.79595" lon="1.87982">
        <ele>728</ele>
        <time>2024-09-15T12:48:15Z</time>
      </trkpt>
      <trkpt lat="45.79597" lon="1.87982">
        <ele>728.4</ele>
        <time>2024-09-15T12:48:16Z</time>
      </trkpt>
      <trkpt lat="45.796" lon="1.87981">
        <ele>728.8</ele>
        <time>2024-09-15T12:48:17Z</time>
      </trkpt>
      <trkpt lat="45.79602" lon="1.87981">
        <ele>729</ele>
        <time>2024-09-15T12:48:18Z</time>
      </trkpt>
      <trkpt lat="45.79605" lon="1.87982">
        <ele>729.2</ele>
        <time>2024-09-15T12:48:19Z</time>
      </trkpt>
      <trkpt lat="45.79609" lon="1.87981">
        <ele>729.4</ele>
        <time>2024-09-15T12:48:20Z</time>
      </trkpt>
      <trkpt lat="45.79609" lon="1.87981">
        <ele>729.4</ele>
        <time>2024-09-15T12:48:21Z</time>
      </trkpt>
      <trkpt lat="45.79611" lon="1.87981">
        <ele>729.4</ele>
        <time>2024-09-15T12:48:22Z</time>
      </trkpt>
      <trkpt lat="45.79613" lon="1.87983">
        <ele>729.6</ele>
        <time>2024-09-15T12:48:23Z</time>
      </trkpt>
      <trkpt lat="45.79615" lon="1.87985">
        <ele>729.8</ele>
        <time>2024-09-15T12:48:24Z</time>
      </trkpt>
      <trkpt lat="45.79617" lon="1.87985">
        <ele>729.8</ele>
        <time>2024-09-15T12:48:25Z</time>
      </trkpt>
      <trkpt lat="45.79619" lon="1.87985">
        <ele>730</ele>
        <time>2024-09-15T12:48:26Z</time>
      </trkpt>
      <trkpt lat="45.79622" lon="1.87985">
        <ele>730</ele>
        <time>2024-09-15T12:48:27Z</time>
      </trkpt>
      <trkpt lat="45.79624" lon="1.87986">
        <ele>730.2</ele>
        <time>2024-09-15T12:48:28Z</time>
      </trkpt>
      <trkpt lat="45.79628" lon="1.87985">
        <ele>730.2</ele>
        <time>2024-09-15T12:48:29Z</time>
      </trkpt>
      <trkpt lat="45.7963" lon="1.87985">
        <ele>730.4</ele>
        <time>2024-09-15T12:48:30Z</time>
      </trkpt>
      <trkpt lat="45.79632" lon="1.87987">
        <ele>730.4</ele>
        <time>2024-09-15T12:48:31Z</time>
      </trkpt>
      <trkpt lat="45.79634" lon="1.87988">
        <ele>730.6</ele>
        <time>2024-09-15T12:48:32Z</time>
      </trkpt>
      <trkpt lat="45.79636" lon="1.87988">
        <ele>730.8</ele>
        <time>2024-09-15T12:48:33Z</time>
      </trkpt>
      <trkpt lat="45.79638" lon="1.87989">
        <ele>730.8</ele>
        <time>2024-09-15T12:48:34Z</time>
      </trkpt>
      <trkpt lat="45.79639" lon="1.87989">
        <ele>730.8</ele>
        <time>2024-09-15T12:48:35Z</time>
      </trkpt>
      <trkpt lat="45.79641" lon="1.87989">
        <ele>731</ele>
        <time>2024-09-15T12:48:36Z</time>
      </trkpt>
      <trkpt lat="45.79641" lon="1.87989">
        <ele>731.4</ele>
        <time>2024-09-15T12:48:37Z</time>
      </trkpt>
      <trkpt lat="45.79643" lon="1.8799">
        <ele>731.4</ele>
        <time>2024-09-15T12:48:38Z</time>
      </trkpt>
      <trkpt lat="45.79645" lon="1.87992">
        <ele>731.8</ele>
        <time>2024-09-15T12:48:39Z</time>
      </trkpt>
      <trkpt lat="45.79648" lon="1.87992">
        <ele>731.8</ele>
        <time>2024-09-15T12:48:40Z</time>
      </trkpt>
      <trkpt lat="45.7965" lon="1.87994">
        <ele>732.2</ele>
        <time>2024-09-15T12:48:41Z</time>
      </trkpt>
      <trkpt lat="45.79651" lon="1.87995">
        <ele>732.2</ele>
        <time>2024-09-15T12:48:42Z</time>
      </trkpt>
      <trkpt lat="45.79652" lon="1.87995">
        <ele>732.4</ele>
        <time>2024-09-15T12:48:43Z</time>
      </trkpt>
      <trkpt lat="45.79653" lon="1.87996">
        <ele>732.6</ele>
        <time>2024-09-15T12:48:44Z</time>
      </trkpt>
      <trkpt lat="45.79655" lon="1.87997">
        <ele>732.8</ele>
        <time>2024-09-15T12:48:45Z</time>
      </trkpt>
      <trkpt lat="45.79656" lon="1.87997">
        <ele>732.8</ele>
        <time>2024-09-15T12:48:46Z</time>
      </trkpt>
      <trkpt lat="45.79658" lon="1.87998">
        <ele>732.8</ele>
        <time>2024-09-15T12:48:47Z</time>
      </trkpt>
      <trkpt lat="45.7966" lon="1.87998">
        <ele>733</ele>
        <time>2024-09-15T12:48:48Z</time>
      </trkpt>
      <trkpt lat="45.79661" lon="1.87999">
        <ele>733</ele>
        <time>2024-09-15T12:48:49Z</time>
      </trkpt>
      <trkpt lat="45.79664" lon="1.88001">
        <ele>733.2</ele>
        <time>2024-09-15T12:48:50Z</time>
      </trkpt>
      <trkpt lat="45.79665" lon="1.88001">
        <ele>733.4</ele>
        <time>2024-09-15T12:48:51Z</time>
      </trkpt>
      <trkpt lat="45.79667" lon="1.88001">
        <ele>733.4</ele>
        <time>2024-09-15T12:48:52Z</time>
      </trkpt>
      <trkpt lat="45.79669" lon="1.88002">
        <ele>733.6</ele>
        <time>2024-09-15T12:48:53Z</time>
      </trkpt>
      <trkpt lat="45.7967" lon="1.88004">
        <ele>733.6</ele>
        <time>2024-09-15T12:48:54Z</time>
      </trkpt>
      <trkpt lat="45.79671" lon="1.88006">
        <ele>733.8</ele>
        <time>2024-09-15T12:48:55Z</time>
      </trkpt>
      <trkpt lat="45.79673" lon="1.88007">
        <ele>734</ele>
        <time>2024-09-15T12:48:56Z</time>
      </trkpt>
      <trkpt lat="45.79674" lon="1.88008">
        <ele>734.2</ele>
        <time>2024-09-15T12:48:57Z</time>
      </trkpt>
      <trkpt lat="45.79675" lon="1.8801">
        <ele>734.2</ele>
        <time>2024-09-15T12:48:58Z</time>
      </trkpt>
      <trkpt lat="45.79675" lon="1.88011">
        <ele>734.4</ele>
        <time>2024-09-15T12:48:59Z</time>
      </trkpt>
      <trkpt lat="45.79676" lon="1.88012">
        <ele>734.6</ele>
        <time>2024-09-15T12:49:00Z</time>
      </trkpt>
      <trkpt lat="45.79676" lon="1.88012">
        <ele>734.6</ele>
        <time>2024-09-15T12:49:01Z</time>
      </trkpt>
      <trkpt lat="45.79677" lon="1.88013">
        <ele>734.8</ele>
        <time>2024-09-15T12:49:02Z</time>
      </trkpt>
      <trkpt lat="45.79679" lon="1.88015">
        <ele>735</ele>
        <time>2024-09-15T12:49:03Z</time>
      </trkpt>
      <trkpt lat="45.7968" lon="1.88017">
        <ele>735.4</ele>
        <time>2024-09-15T12:49:04Z</time>
      </trkpt>
      <trkpt lat="45.7968" lon="1.88019">
        <ele>735.6</ele>
        <time>2024-09-15T12:49:05Z</time>
      </trkpt>
      <trkpt lat="45.79681" lon="1.88022">
        <ele>735.8</ele>
        <time>2024-09-15T12:49:06Z</time>
      </trkpt>
      <trkpt lat="45.79683" lon="1.88026">
        <ele>736</ele>
        <time>2024-09-15T12:49:07Z</time>
      </trkpt>
      <trkpt lat="45.79684" lon="1.88029">
        <ele>736.2</ele>
        <time>2024-09-15T12:49:08Z</time>
      </trkpt>
      <trkpt lat="45.79686" lon="1.88032">
        <ele>736.4</ele>
        <time>2024-09-15T12:49:09Z</time>
      </trkpt>
      <trkpt lat="45.79687" lon="1.88036">
        <ele>736.6</ele>
        <time>2024-09-15T12:49:10Z</time>
      </trkpt>
      <trkpt lat="45.79689" lon="1.88037">
        <ele>736.8</ele>
        <time>2024-09-15T12:49:11Z</time>
      </trkpt>
      <trkpt lat="45.7969" lon="1.88038">
        <ele>737</ele>
        <time>2024-09-15T12:49:12Z</time>
      </trkpt>
      <trkpt lat="45.79692" lon="1.88038">
        <ele>737</ele>
        <time>2024-09-15T12:49:13Z</time>
      </trkpt>
      <trkpt lat="45.79693" lon="1.8804">
        <ele>737.2</ele>
        <time>2024-09-15T12:49:14Z</time>
      </trkpt>
      <trkpt lat="45.79695" lon="1.88042">
        <ele>737.2</ele>
        <time>2024-09-15T12:49:15Z</time>
      </trkpt>
      <trkpt lat="45.79697" lon="1.88043">
        <ele>737.6</ele>
        <time>2024-09-15T12:49:16Z</time>
      </trkpt>
      <trkpt lat="45.79698" lon="1.88045">
        <ele>737.8</ele>
        <time>2024-09-15T12:49:17Z</time>
      </trkpt>
      <trkpt lat="45.797" lon="1.88045">
        <ele>738</ele>
        <time>2024-09-15T12:49:18Z</time>
      </trkpt>
      <trkpt lat="45.79702" lon="1.88047">
        <ele>738.2</ele>
        <time>2024-09-15T12:49:19Z</time>
      </trkpt>
      <trkpt lat="45.79703" lon="1.88048">
        <ele>738.2</ele>
        <time>2024-09-15T12:49:20Z</time>
      </trkpt>
      <trkpt lat="45.79705" lon="1.88049">
        <ele>738.4</ele>
        <time>2024-09-15T12:49:21Z</time>
      </trkpt>
      <trkpt lat="45.79706" lon="1.8805">
        <ele>738.4</ele>
        <time>2024-09-15T12:49:22Z</time>
      </trkpt>
      <trkpt lat="45.79708" lon="1.88052">
        <ele>738.6</ele>
        <time>2024-09-15T12:49:23Z</time>
      </trkpt>
      <trkpt lat="45.79709" lon="1.88053">
        <ele>738.6</ele>
        <time>2024-09-15T12:49:24Z</time>
      </trkpt>
      <trkpt lat="45.79711" lon="1.88054">
        <ele>738.6</ele>
        <time>2024-09-15T12:49:25Z</time>
      </trkpt>
      <trkpt lat="45.79713" lon="1.88055">
        <ele>738.8</ele>
        <time>2024-09-15T12:49:26Z</time>
      </trkpt>
      <trkpt lat="45.79715" lon="1.88056">
        <ele>738.8</ele>
        <time>2024-09-15T12:49:27Z</time>
      </trkpt>
      <trkpt lat="45.79717" lon="1.88056">
        <ele>738.8</ele>
        <time>2024-09-15T12:49:28Z</time>
      </trkpt>
      <trkpt lat="45.79718" lon="1.88056">
        <ele>739.4</ele>
        <time>2024-09-15T12:49:29Z</time>
      </trkpt>
      <trkpt lat="45.7972" lon="1.88056">
        <ele>739.4</ele>
        <time>2024-09-15T12:49:30Z</time>
      </trkpt>
      <trkpt lat="45.79722" lon="1.88056">
        <ele>739.8</ele>
        <time>2024-09-15T12:49:31Z</time>
      </trkpt>
      <trkpt lat="45.79723" lon="1.88055">
        <ele>740</ele>
        <time>2024-09-15T12:49:32Z</time>
      </trkpt>
      <trkpt lat="45.79725" lon="1.88055">
        <ele>740</ele>
        <time>2024-09-15T12:49:33Z</time>
      </trkpt>
      <trkpt lat="45.79726" lon="1.88054">
        <ele>740.2</ele>
        <time>2024-09-15T12:49:34Z</time>
      </trkpt>
      <trkpt lat="45.79728" lon="1.88053">
        <ele>740.4</ele>
        <time>2024-09-15T12:49:35Z</time>
      </trkpt>
      <trkpt lat="45.79729" lon="1.88053">
        <ele>740.6</ele>
        <time>2024-09-15T12:49:36Z</time>
      </trkpt>
      <trkpt lat="45.79731" lon="1.88052">
        <ele>740.8</ele>
        <time>2024-09-15T12:49:37Z</time>
      </trkpt>
      <trkpt lat="45.79732" lon="1.88051">
        <ele>740.8</ele>
        <time>2024-09-15T12:49:38Z</time>
      </trkpt>
      <trkpt lat="45.79734" lon="1.8805">
        <ele>741</ele>
        <time>2024-09-15T12:49:39Z</time>
      </trkpt>
      <trkpt lat="45.79736" lon="1.88049">
        <ele>741</ele>
        <time>2024-09-15T12:49:40Z</time>
      </trkpt>
      <trkpt lat="45.79738" lon="1.88048">
        <ele>741.2</ele>
        <time>2024-09-15T12:49:41Z</time>
      </trkpt>
      <trkpt lat="45.7974" lon="1.88048">
        <ele>741.2</ele>
        <time>2024-09-15T12:49:42Z</time>
      </trkpt>
      <trkpt lat="45.79742" lon="1.88048">
        <ele>741.4</ele>
        <time>2024-09-15T12:49:43Z</time>
      </trkpt>
      <trkpt lat="45.79744" lon="1.88047">
        <ele>741.4</ele>
        <time>2024-09-15T12:49:44Z</time>
      </trkpt>
      <trkpt lat="45.79746" lon="1.88047">
        <ele>741.6</ele>
        <time>2024-09-15T12:49:45Z</time>
      </trkpt>
      <trkpt lat="45.79749" lon="1.88047">
        <ele>741.6</ele>
        <time>2024-09-15T12:49:46Z</time>
      </trkpt>
      <trkpt lat="45.79751" lon="1.88047">
        <ele>741.6</ele>
        <time>2024-09-15T12:49:47Z</time>
      </trkpt>
      <trkpt lat="45.79753" lon="1.88047">
        <ele>741.6</ele>
        <time>2024-09-15T12:49:48Z</time>
      </trkpt>
      <trkpt lat="45.79756" lon="1.88047">
        <ele>741.8</ele>
        <time>2024-09-15T12:49:49Z</time>
      </trkpt>
      <trkpt lat="45.79758" lon="1.88047">
        <ele>741.8</ele>
        <time>2024-09-15T12:49:50Z</time>
      </trkpt>
      <trkpt lat="45.7976" lon="1.88048">
        <ele>742</ele>
        <time>2024-09-15T12:49:51Z</time>
      </trkpt>
      <trkpt lat="45.79763" lon="1.88048">
        <ele>742</ele>
        <time>2024-09-15T12:49:52Z</time>
      </trkpt>
      <trkpt lat="45.79765" lon="1.88049">
        <ele>742</ele>
        <time>2024-09-15T12:49:53Z</time>
      </trkpt>
      <trkpt lat="45.79766" lon="1.88049">
        <ele>742</ele>
        <time>2024-09-15T12:49:54Z</time>
      </trkpt>
      <trkpt lat="45.79768" lon="1.88049">
        <ele>742.2</ele>
        <time>2024-09-15T12:49:55Z</time>
      </trkpt>
      <trkpt lat="45.79769" lon="1.8805">
        <ele>742.2</ele>
        <time>2024-09-15T12:49:56Z</time>
      </trkpt>
      <trkpt lat="45.79771" lon="1.88051">
        <ele>742.2</ele>
        <time>2024-09-15T12:49:57Z</time>
      </trkpt>
      <trkpt lat="45.79773" lon="1.88052">
        <ele>742.2</ele>
        <time>2024-09-15T12:49:58Z</time>
      </trkpt>
      <trkpt lat="45.79775" lon="1.88053">
        <ele>742.2</ele>
        <time>2024-09-15T12:49:59Z</time>
      </trkpt>
      <trkpt lat="45.79776" lon="1.88054">
        <ele>742.2</ele>
        <time>2024-09-15T12:50:00Z</time>
      </trkpt>
      <trkpt lat="45.79778" lon="1.88055">
        <ele>742.4</ele>
        <time>2024-09-15T12:50:01Z</time>
      </trkpt>
      <trkpt lat="45.79779" lon="1.88057">
        <ele>742.6</ele>
        <time>2024-09-15T12:50:02Z</time>
      </trkpt>
      <trkpt lat="45.7978" lon="1.88059">
        <ele>742.8</ele>
        <time>2024-09-15T12:50:03Z</time>
      </trkpt>
      <trkpt lat="45.79781" lon="1.88061">
        <ele>743</ele>
        <time>2024-09-15T12:50:04Z</time>
      </trkpt>
      <trkpt lat="45.7978" lon="1.88063">
        <ele>743</ele>
        <time>2024-09-15T12:50:05Z</time>
      </trkpt>
      <trkpt lat="45.79779" lon="1.88065">
        <ele>743.2</ele>
        <time>2024-09-15T12:50:06Z</time>
      </trkpt>
      <trkpt lat="45.79777" lon="1.88066">
        <ele>743.6</ele>
        <time>2024-09-15T12:50:08Z</time>
      </trkpt>
      <trkpt lat="45.79776" lon="1.88067">
        <ele>743.6</ele>
        <time>2024-09-15T12:50:09Z</time>
      </trkpt>
      <trkpt lat="45.79775" lon="1.88067">
        <ele>743.8</ele>
        <time>2024-09-15T12:50:10Z</time>
      </trkpt>
      <trkpt lat="45.79773" lon="1.88068">
        <ele>743.8</ele>
        <time>2024-09-15T12:50:11Z</time>
      </trkpt>
      <trkpt lat="45.79772" lon="1.88068">
        <ele>743.8</ele>
        <time>2024-09-15T12:50:12Z</time>
      </trkpt>
      <trkpt lat="45.79771" lon="1.88069">
        <ele>743.8</ele>
        <time>2024-09-15T12:50:13Z</time>
      </trkpt>
      <trkpt lat="45.7977" lon="1.88069">
        <ele>743.8</ele>
        <time>2024-09-15T12:50:14Z</time>
      </trkpt>
      <trkpt lat="45.7977" lon="1.88069">
        <ele>743.8</ele>
        <time>2024-09-15T12:50:16Z</time>
      </trkpt>
      <trkpt lat="45.79773" lon="1.88066">
        <ele>745</ele>
        <time>2024-09-15T12:57:03Z</time>
      </trkpt>
      <trkpt lat="45.79777" lon="1.88063">
        <ele>745</ele>
        <time>2024-09-15T12:57:07Z</time>
      </trkpt>
      <trkpt lat="45.79784" lon="1.88062">
        <ele>744.6</ele>
        <time>2024-09-15T12:57:13Z</time>
      </trkpt>
      <trkpt lat="45.79785" lon="1.88062">
        <ele>744.4</ele>
        <time>2024-09-15T12:57:14Z</time>
      </trkpt>
      <trkpt lat="45.79785" lon="1.88061">
        <ele>744.4</ele>
        <time>2024-09-15T12:57:15Z</time>
      </trkpt>
      <trkpt lat="45.79785" lon="1.88061">
        <ele>744.4</ele>
        <time>2024-09-15T12:57:16Z</time>
      </trkpt>
      <trkpt lat="45.79786" lon="1.8806">
        <ele>744.2</ele>
        <time>2024-09-15T12:57:17Z</time>
      </trkpt>
      <trkpt lat="45.79787" lon="1.88059">
        <ele>744.2</ele>
        <time>2024-09-15T12:57:18Z</time>
      </trkpt>
      <trkpt lat="45.79787" lon="1.88059">
        <ele>744</ele>
        <time>2024-09-15T12:57:19Z</time>
      </trkpt>
      <trkpt lat="45.79788" lon="1.88057">
        <ele>744</ele>
        <time>2024-09-15T12:57:21Z</time>
      </trkpt>
      <trkpt lat="45.79788" lon="1.88057">
        <ele>744</ele>
        <time>2024-09-15T12:57:23Z</time>
      </trkpt>
      <trkpt lat="45.79788" lon="1.88056">
        <ele>743.8</ele>
        <time>2024-09-15T12:57:26Z</time>
      </trkpt>
      <trkpt lat="45.79789" lon="1.88054">
        <ele>743.8</ele>
        <time>2024-09-15T12:57:27Z</time>
      </trkpt>
      <trkpt lat="45.79791" lon="1.88035">
        <ele>743.8</ele>
        <time>2024-09-15T12:57:31Z</time>
      </trkpt>
      <trkpt lat="45.79791" lon="1.88027">
        <ele>743.6</ele>
        <time>2024-09-15T12:57:32Z</time>
      </trkpt>
      <trkpt lat="45.79793" lon="1.88006">
        <ele>742.8</ele>
        <time>2024-09-15T12:57:35Z</time>
      </trkpt>
      <trkpt lat="45.79794" lon="1.88002">
        <ele>742.2</ele>
        <time>2024-09-15T12:57:36Z</time>
      </trkpt>
      <trkpt lat="45.79794" lon="1.88001">
        <ele>741.4</ele>
        <time>2024-09-15T12:57:37Z</time>
      </trkpt>
      <trkpt lat="45.79794" lon="1.88001">
        <ele>740.8</ele>
        <time>2024-09-15T12:57:38Z</time>
      </trkpt>
      <trkpt lat="45.79794" lon="1.88">
        <ele>740.2</ele>
        <time>2024-09-15T12:57:39Z</time>
      </trkpt>
      <trkpt lat="45.79794" lon="1.87991">
        <ele>739.4</ele>
        <time>2024-09-15T12:57:42Z</time>
      </trkpt>
      <trkpt lat="45.79794" lon="1.87985">
        <ele>738.8</ele>
        <time>2024-09-15T12:57:44Z</time>
      </trkpt>
      <trkpt lat="45.79794" lon="1.87982">
        <ele>738.4</ele>
        <time>2024-09-15T12:57:45Z</time>
      </trkpt>
      <trkpt lat="45.79794" lon="1.8798">
        <ele>738.2</ele>
        <time>2024-09-15T12:57:46Z</time>
      </trkpt>
      <trkpt lat="45.79795" lon="1.87977">
        <ele>738</ele>
        <time>2024-09-15T12:57:47Z</time>
      </trkpt>
      <trkpt lat="45.79795" lon="1.87973">
        <ele>737.2</ele>
        <time>2024-09-15T12:57:49Z</time>
      </trkpt>
      <trkpt lat="45.79796" lon="1.8797">
        <ele>737</ele>
        <time>2024-09-15T12:57:50Z</time>
      </trkpt>
      <trkpt lat="45.79795" lon="1.87968">
        <ele>736.8</ele>
        <time>2024-09-15T12:57:51Z</time>
      </trkpt>
      <trkpt lat="45.79795" lon="1.87965">
        <ele>736</ele>
        <time>2024-09-15T12:57:52Z</time>
      </trkpt>
      <trkpt lat="45.79797" lon="1.87952">
        <ele>734.4</ele>
        <time>2024-09-15T12:57:56Z</time>
      </trkpt>
      <trkpt lat="45.79798" lon="1.87949">
        <ele>734.2</ele>
        <time>2024-09-15T12:57:57Z</time>
      </trkpt>
      <trkpt lat="45.79799" lon="1.87941">
        <ele>733.2</ele>
        <time>2024-09-15T12:57:59Z</time>
      </trkpt>
      <trkpt lat="45.79799" lon="1.87938">
        <ele>733</ele>
        <time>2024-09-15T12:58:00Z</time>
      </trkpt>
      <trkpt lat="45.79799" lon="1.87935">
        <ele>732.6</ele>
        <time>2024-09-15T12:58:01Z</time>
      </trkpt>
      <trkpt lat="45.79799" lon="1.87935">
        <ele>731.2</ele>
        <time>2024-09-15T12:58:03Z</time>
      </trkpt>
      <trkpt lat="45.79799" lon="1.87931">
        <ele>728.6</ele>
        <time>2024-09-15T12:58:09Z</time>
      </trkpt>
      <trkpt lat="45.79799" lon="1.8793">
        <ele>728.4</ele>
        <time>2024-09-15T12:58:10Z</time>
      </trkpt>
      <trkpt lat="45.79799" lon="1.87928">
        <ele>728.4</ele>
        <time>2024-09-15T12:58:11Z</time>
      </trkpt>
      <trkpt lat="45.79799" lon="1.87925">
        <ele>728.2</ele>
        <time>2024-09-15T12:58:13Z</time>
      </trkpt>
      <trkpt lat="45.798" lon="1.87924">
        <ele>728.2</ele>
        <time>2024-09-15T12:58:14Z</time>
      </trkpt>
      <trkpt lat="45.798" lon="1.87915">
        <ele>727.8</ele>
        <time>2024-09-15T12:58:18Z</time>
      </trkpt>
      <trkpt lat="45.798" lon="1.87914">
        <ele>727.8</ele>
        <time>2024-09-15T12:58:19Z</time>
      </trkpt>
      <trkpt lat="45.79801" lon="1.87911">
        <ele>727.2</ele>
        <time>2024-09-15T12:58:20Z</time>
      </trkpt>
      <trkpt lat="45.79801" lon="1.87902">
        <ele>726.4</ele>
        <time>2024-09-15T12:58:23Z</time>
      </trkpt>
      <trkpt lat="45.79801" lon="1.87899">
        <ele>726.2</ele>
        <time>2024-09-15T12:58:24Z</time>
      </trkpt>
      <trkpt lat="45.79801" lon="1.87895">
        <ele>726</ele>
        <time>2024-09-15T12:58:25Z</time>
      </trkpt>
      <trkpt lat="45.79801" lon="1.87893">
        <ele>725.8</ele>
        <time>2024-09-15T12:58:26Z</time>
      </trkpt>
      <trkpt lat="45.79801" lon="1.87892">
        <ele>725.4</ele>
        <time>2024-09-15T12:58:28Z</time>
      </trkpt>
      <trkpt lat="45.79801" lon="1.87892">
        <ele>724.8</ele>
        <time>2024-09-15T12:58:29Z</time>
      </trkpt>
      <trkpt lat="45.79801" lon="1.87892">
        <ele>724.4</ele>
        <time>2024-09-15T12:58:31Z</time>
      </trkpt>
      <trkpt lat="45.79802" lon="1.87887">
        <ele>723.8</ele>
        <time>2024-09-15T12:58:34Z</time>
      </trkpt>
      <trkpt lat="45.79803" lon="1.87883">
        <ele>723.2</ele>
        <time>2024-09-15T12:58:36Z</time>
      </trkpt>
      <trkpt lat="45.79803" lon="1.87882">
        <ele>723</ele>
        <time>2024-09-15T12:58:37Z</time>
      </trkpt>
      <trkpt lat="45.79803" lon="1.8788">
        <ele>722.8</ele>
        <time>2024-09-15T12:58:38Z</time>
      </trkpt>
      <trkpt lat="45.79803" lon="1.87878">
        <ele>722.8</ele>
        <time>2024-09-15T12:58:39Z</time>
      </trkpt>
      <trkpt lat="45.79803" lon="1.87876">
        <ele>722.2</ele>
        <time>2024-09-15T12:58:40Z</time>
      </trkpt>
      <trkpt lat="45.79803" lon="1.87876">
        <ele>722.2</ele>
        <time>2024-09-15T12:58:41Z</time>
      </trkpt>
      <trkpt lat="45.79803" lon="1.87875">
        <ele>722</ele>
        <time>2024-09-15T12:58:42Z</time>
      </trkpt>
      <trkpt lat="45.79802" lon="1.87867">
        <ele>721.6</ele>
        <time>2024-09-15T12:58:46Z</time>
      </trkpt>
      <trkpt lat="45.79802" lon="1.87865">
        <ele>721.6</ele>
        <time>2024-09-15T12:58:47Z</time>
      </trkpt>
      <trkpt lat="45.79802" lon="1.87863">
        <ele>721.6</ele>
        <time>2024-09-15T12:58:48Z</time>
      </trkpt>
      <trkpt lat="45.79802" lon="1.87861">
        <ele>721.4</ele>
        <time>2024-09-15T12:58:49Z</time>
      </trkpt>
      <trkpt lat="45.79802" lon="1.87861">
        <ele>721</ele>
        <time>2024-09-15T12:58:50Z</time>
      </trkpt>
      <trkpt lat="45.79803" lon="1.87861">
        <ele>720</ele>
        <time>2024-09-15T12:58:53Z</time>
      </trkpt>
      <trkpt lat="45.79804" lon="1.8786">
        <ele>719.8</ele>
        <time>2024-09-15T12:58:54Z</time>
      </trkpt>
      <trkpt lat="45.79804" lon="1.87859">
        <ele>719.8</ele>
        <time>2024-09-15T12:58:55Z</time>
      </trkpt>
      <trkpt lat="45.79805" lon="1.87856">
        <ele>719.6</ele>
        <time>2024-09-15T12:58:56Z</time>
      </trkpt>
      <trkpt lat="45.79806" lon="1.87854">
        <ele>719.6</ele>
        <time>2024-09-15T12:58:57Z</time>
      </trkpt>
      <trkpt lat="45.79806" lon="1.87852">
        <ele>719.6</ele>
        <time>2024-09-15T12:58:58Z</time>
      </trkpt>
      <trkpt lat="45.79806" lon="1.8785">
        <ele>719.4</ele>
        <time>2024-09-15T12:58:59Z</time>
      </trkpt>
      <trkpt lat="45.79807" lon="1.8785">
        <ele>719.4</ele>
        <time>2024-09-15T12:59:00Z</time>
      </trkpt>
      <trkpt lat="45.79807" lon="1.8785">
        <ele>719.2</ele>
        <time>2024-09-15T12:59:01Z</time>
      </trkpt>
      <trkpt lat="45.79806" lon="1.87848">
        <ele>719</ele>
        <time>2024-09-15T12:59:02Z</time>
      </trkpt>
      <trkpt lat="45.79806" lon="1.87846">
        <ele>718.8</ele>
        <time>2024-09-15T12:59:03Z</time>
      </trkpt>
      <trkpt lat="45.79806" lon="1.87843">
        <ele>718.4</ele>
        <time>2024-09-15T12:59:04Z</time>
      </trkpt>
      <trkpt lat="45.79806" lon="1.87841">
        <ele>718</ele>
        <time>2024-09-15T12:59:05Z</time>
      </trkpt>
      <trkpt lat="45.79806" lon="1.87841">
        <ele>717.8</ele>
        <time>2024-09-15T12:59:06Z</time>
      </trkpt>
      <trkpt lat="45.79807" lon="1.87838">
        <ele>717.4</ele>
        <time>2024-09-15T12:59:07Z</time>
      </trkpt>
      <trkpt lat="45.79807" lon="1.87836">
        <ele>717.2</ele>
        <time>2024-09-15T12:59:08Z</time>
      </trkpt>
      <trkpt lat="45.79807" lon="1.87833">
        <ele>717</ele>
        <time>2024-09-15T12:59:09Z</time>
      </trkpt>
      <trkpt lat="45.79807" lon="1.87829">
        <ele>717</ele>
        <time>2024-09-15T12:59:10Z</time>
      </trkpt>
      <trkpt lat="45.79807" lon="1.87826">
        <ele>716.6</ele>
        <time>2024-09-15T12:59:11Z</time>
      </trkpt>
      <trkpt lat="45.79808" lon="1.87824">
        <ele>716.4</ele>
        <time>2024-09-15T12:59:12Z</time>
      </trkpt>
      <trkpt lat="45.79808" lon="1.87823">
        <ele>716</ele>
        <time>2024-09-15T12:59:13Z</time>
      </trkpt>
      <trkpt lat="45.79809" lon="1.8782">
        <ele>715.8</ele>
        <time>2024-09-15T12:59:14Z</time>
      </trkpt>
      <trkpt lat="45.79808" lon="1.87815">
        <ele>715.2</ele>
        <time>2024-09-15T12:59:15Z</time>
      </trkpt>
      <trkpt lat="45.79809" lon="1.87811">
        <ele>714.8</ele>
        <time>2024-09-15T12:59:16Z</time>
      </trkpt>
      <trkpt lat="45.7981" lon="1.87807">
        <ele>714.6</ele>
        <time>2024-09-15T12:59:17Z</time>
      </trkpt>
      <trkpt lat="45.79811" lon="1.87803">
        <ele>714.2</ele>
        <time>2024-09-15T12:59:18Z</time>
      </trkpt>
      <trkpt lat="45.79812" lon="1.87797">
        <ele>713.4</ele>
        <time>2024-09-15T12:59:20Z</time>
      </trkpt>
      <trkpt lat="45.79812" lon="1.87792">
        <ele>713</ele>
        <time>2024-09-15T12:59:21Z</time>
      </trkpt>
      <trkpt lat="45.79813" lon="1.87785">
        <ele>712.6</ele>
        <time>2024-09-15T12:59:22Z</time>
      </trkpt>
      <trkpt lat="45.79812" lon="1.87777">
        <ele>711.8</ele>
        <time>2024-09-15T12:59:24Z</time>
      </trkpt>
      <trkpt lat="45.79815" lon="1.8777">
        <ele>711.6</ele>
        <time>2024-09-15T12:59:25Z</time>
      </trkpt>
      <trkpt lat="45.79816" lon="1.87763">
        <ele>710.4</ele>
        <time>2024-09-15T12:59:26Z</time>
      </trkpt>
      <trkpt lat="45.79815" lon="1.87755">
        <ele>709.8</ele>
        <time>2024-09-15T12:59:27Z</time>
      </trkpt>
      <trkpt lat="45.79815" lon="1.87748">
        <ele>709.6</ele>
        <time>2024-09-15T12:59:28Z</time>
      </trkpt>
      <trkpt lat="45.79815" lon="1.87741">
        <ele>709.2</ele>
        <time>2024-09-15T12:59:29Z</time>
      </trkpt>
      <trkpt lat="45.79816" lon="1.87734">
        <ele>709</ele>
        <time>2024-09-15T12:59:30Z</time>
      </trkpt>
      <trkpt lat="45.79815" lon="1.87728">
        <ele>708.6</ele>
        <time>2024-09-15T12:59:31Z</time>
      </trkpt>
      <trkpt lat="45.79815" lon="1.87725">
        <ele>708.4</ele>
        <time>2024-09-15T12:59:32Z</time>
      </trkpt>
      <trkpt lat="45.79817" lon="1.8772">
        <ele>708.2</ele>
        <time>2024-09-15T12:59:33Z</time>
      </trkpt>
      <trkpt lat="45.79818" lon="1.87716">
        <ele>708</ele>
        <time>2024-09-15T12:59:34Z</time>
      </trkpt>
      <trkpt lat="45.79819" lon="1.87713">
        <ele>707.8</ele>
        <time>2024-09-15T12:59:35Z</time>
      </trkpt>
      <trkpt lat="45.79819" lon="1.8771">
        <ele>707.6</ele>
        <time>2024-09-15T12:59:36Z</time>
      </trkpt>
      <trkpt lat="45.79818" lon="1.87705">
        <ele>707.4</ele>
        <time>2024-09-15T12:59:37Z</time>
      </trkpt>
      <trkpt lat="45.79818" lon="1.87697">
        <ele>706.8</ele>
        <time>2024-09-15T12:59:38Z</time>
      </trkpt>
      <trkpt lat="45.79818" lon="1.8769">
        <ele>706.6</ele>
        <time>2024-09-15T12:59:39Z</time>
      </trkpt>
      <trkpt lat="45.79819" lon="1.87684">
        <ele>706.2</ele>
        <time>2024-09-15T12:59:40Z</time>
      </trkpt>
      <trkpt lat="45.79817" lon="1.87672">
        <ele>705.4</ele>
        <time>2024-09-15T12:59:42Z</time>
      </trkpt>
      <trkpt lat="45.79817" lon="1.87667">
        <ele>705.2</ele>
        <time>2024-09-15T12:59:43Z</time>
      </trkpt>
      <trkpt lat="45.79818" lon="1.87665">
        <ele>705</ele>
        <time>2024-09-15T12:59:44Z</time>
      </trkpt>
      <trkpt lat="45.7982" lon="1.87661">
        <ele>704.4</ele>
        <time>2024-09-15T12:59:45Z</time>
      </trkpt>
      <trkpt lat="45.79821" lon="1.87659">
        <ele>703.8</ele>
        <time>2024-09-15T12:59:46Z</time>
      </trkpt>
      <trkpt lat="45.79822" lon="1.87658">
        <ele>703.6</ele>
        <time>2024-09-15T12:59:47Z</time>
      </trkpt>
      <trkpt lat="45.79822" lon="1.87654">
        <ele>703.4</ele>
        <time>2024-09-15T12:59:48Z</time>
      </trkpt>
      <trkpt lat="45.79821" lon="1.87648">
        <ele>702.6</ele>
        <time>2024-09-15T12:59:50Z</time>
      </trkpt>
      <trkpt lat="45.79821" lon="1.87645">
        <ele>702.2</ele>
        <time>2024-09-15T12:59:51Z</time>
      </trkpt>
      <trkpt lat="45.79821" lon="1.87642">
        <ele>702</ele>
        <time>2024-09-15T12:59:52Z</time>
      </trkpt>
      <trkpt lat="45.79821" lon="1.87639">
        <ele>701.4</ele>
        <time>2024-09-15T12:59:53Z</time>
      </trkpt>
      <trkpt lat="45.79821" lon="1.87636">
        <ele>701.2</ele>
        <time>2024-09-15T12:59:54Z</time>
      </trkpt>
      <trkpt lat="45.79822" lon="1.87635">
        <ele>700.8</ele>
        <time>2024-09-15T12:59:55Z</time>
      </trkpt>
      <trkpt lat="45.79823" lon="1.87634">
        <ele>700.6</ele>
        <time>2024-09-15T12:59:56Z</time>
      </trkpt>
      <trkpt lat="45.79824" lon="1.87633">
        <ele>700</ele>
        <time>2024-09-15T12:59:57Z</time>
      </trkpt>
      <trkpt lat="45.79825" lon="1.87633">
        <ele>699.6</ele>
        <time>2024-09-15T12:59:58Z</time>
      </trkpt>
      <trkpt lat="45.79825" lon="1.87633">
        <ele>699.2</ele>
        <time>2024-09-15T12:59:59Z</time>
      </trkpt>
      <trkpt lat="45.79825" lon="1.87632">
        <ele>698.8</ele>
        <time>2024-09-15T13:00:00Z</time>
      </trkpt>
      <trkpt lat="45.79824" lon="1.87629">
        <ele>698.4</ele>
        <time>2024-09-15T13:00:01Z</time>
      </trkpt>
      <trkpt lat="45.79824" lon="1.87625">
        <ele>697</ele>
        <time>2024-09-15T13:00:02Z</time>
      </trkpt>
      <trkpt lat="45.79822" lon="1.87621">
        <ele>696.4</ele>
        <time>2024-09-15T13:00:03Z</time>
      </trkpt>
      <trkpt lat="45.79822" lon="1.87619">
        <ele>695.4</ele>
        <time>2024-09-15T13:00:04Z</time>
      </trkpt>
      <trkpt lat="45.79823" lon="1.87617">
        <ele>695.2</ele>
        <time>2024-09-15T13:00:05Z</time>
      </trkpt>
      <trkpt lat="45.79822" lon="1.87613">
        <ele>694.6</ele>
        <time>2024-09-15T13:00:06Z</time>
      </trkpt>
      <trkpt lat="45.79822" lon="1.8761">
        <ele>694.2</ele>
        <time>2024-09-15T13:00:07Z</time>
      </trkpt>
      <trkpt lat="45.79821" lon="1.87603">
        <ele>692.6</ele>
        <time>2024-09-15T13:00:10Z</time>
      </trkpt>
      <trkpt lat="45.79819" lon="1.87598">
        <ele>692.2</ele>
        <time>2024-09-15T13:00:11Z</time>
      </trkpt>
      <trkpt lat="45.79817" lon="1.8759">
        <ele>690.8</ele>
        <time>2024-09-15T13:00:13Z</time>
      </trkpt>
      <trkpt lat="45.79814" lon="1.87584">
        <ele>689.8</ele>
        <time>2024-09-15T13:00:15Z</time>
      </trkpt>
      <trkpt lat="45.79812" lon="1.87579">
        <ele>689.4</ele>
        <time>2024-09-15T13:00:16Z</time>
      </trkpt>
      <trkpt lat="45.7981" lon="1.87574">
        <ele>688.8</ele>
        <time>2024-09-15T13:00:17Z</time>
      </trkpt>
      <trkpt lat="45.79809" lon="1.87571">
        <ele>688.6</ele>
        <time>2024-09-15T13:00:18Z</time>
      </trkpt>
      <trkpt lat="45.79807" lon="1.87565">
        <ele>687.6</ele>
        <time>2024-09-15T13:00:20Z</time>
      </trkpt>
      <trkpt lat="45.79806" lon="1.87562">
        <ele>687.2</ele>
        <time>2024-09-15T13:00:21Z</time>
      </trkpt>
      <trkpt lat="45.79806" lon="1.87559">
        <ele>687</ele>
        <time>2024-09-15T13:00:22Z</time>
      </trkpt>
      <trkpt lat="45.79806" lon="1.87556">
        <ele>686.4</ele>
        <time>2024-09-15T13:00:24Z</time>
      </trkpt>
      <trkpt lat="45.79806" lon="1.87556">
        <ele>686.4</ele>
        <time>2024-09-15T13:00:25Z</time>
      </trkpt>
      <trkpt lat="45.79806" lon="1.87556">
        <ele>685.6</ele>
        <time>2024-09-15T13:00:26Z</time>
      </trkpt>
      <trkpt lat="45.79805" lon="1.87555">
        <ele>685.4</ele>
        <time>2024-09-15T13:00:27Z</time>
      </trkpt>
      <trkpt lat="45.79803" lon="1.87555">
        <ele>685</ele>
        <time>2024-09-15T13:00:28Z</time>
      </trkpt>
      <trkpt lat="45.79803" lon="1.87554">
        <ele>684.6</ele>
        <time>2024-09-15T13:00:30Z</time>
      </trkpt>
      <trkpt lat="45.79804" lon="1.87554">
        <ele>683.8</ele>
        <time>2024-09-15T13:03:35Z</time>
      </trkpt>
      <trkpt lat="45.79805" lon="1.87553">
        <ele>683.8</ele>
        <time>2024-09-15T13:03:36Z</time>
      </trkpt>
      <trkpt lat="45.79807" lon="1.87551">
        <ele>683.6</ele>
        <time>2024-09-15T13:03:38Z</time>
      </trkpt>
      <trkpt lat="45.79809" lon="1.87549">
        <ele>682.8</ele>
        <time>2024-09-15T13:03:41Z</time>
      </trkpt>
      <trkpt lat="45.79816" lon="1.87541">
        <ele>680.8</ele>
        <time>2024-09-15T13:03:45Z</time>
      </trkpt>
      <trkpt lat="45.79819" lon="1.87536">
        <ele>679.8</ele>
        <time>2024-09-15T13:03:47Z</time>
      </trkpt>
      <trkpt lat="45.79823" lon="1.87532">
        <ele>678.6</ele>
        <time>2024-09-15T13:03:49Z</time>
      </trkpt>
      <trkpt lat="45.79829" lon="1.87524">
        <ele>677.2</ele>
        <time>2024-09-15T13:03:52Z</time>
      </trkpt>
      <trkpt lat="45.79831" lon="1.87518">
        <ele>676.8</ele>
        <time>2024-09-15T13:03:54Z</time>
      </trkpt>
      <trkpt lat="45.7983" lon="1.87514">
        <ele>676.4</ele>
        <time>2024-09-15T13:03:55Z</time>
      </trkpt>
      <trkpt lat="45.7983" lon="1.87508">
        <ele>675.6</ele>
        <time>2024-09-15T13:03:56Z</time>
      </trkpt>
      <trkpt lat="45.79831" lon="1.87504">
        <ele>674.8</ele>
        <time>2024-09-15T13:03:57Z</time>
      </trkpt>
      <trkpt lat="45.7983" lon="1.875">
        <ele>674.4</ele>
        <time>2024-09-15T13:03:58Z</time>
      </trkpt>
      <trkpt lat="45.79831" lon="1.87496">
        <ele>673.2</ele>
        <time>2024-09-15T13:03:59Z</time>
      </trkpt>
      <trkpt lat="45.79833" lon="1.87494">
        <ele>672.6</ele>
        <time>2024-09-15T13:04:00Z</time>
      </trkpt>
      <trkpt lat="45.79835" lon="1.8749">
        <ele>671.8</ele>
        <time>2024-09-15T13:04:01Z</time>
      </trkpt>
      <trkpt lat="45.79837" lon="1.87487">
        <ele>671.6</ele>
        <time>2024-09-15T13:04:02Z</time>
      </trkpt>
      <trkpt lat="45.79838" lon="1.87484">
        <ele>671.2</ele>
        <time>2024-09-15T13:04:03Z</time>
      </trkpt>
      <trkpt lat="45.79837" lon="1.87479">
        <ele>670.2</ele>
        <time>2024-09-15T13:04:05Z</time>
      </trkpt>
      <trkpt lat="45.79838" lon="1.87475">
        <ele>669.8</ele>
        <time>2024-09-15T13:04:06Z</time>
      </trkpt>
      <trkpt lat="45.79839" lon="1.87469">
        <ele>669</ele>
        <time>2024-09-15T13:04:07Z</time>
      </trkpt>
      <trkpt lat="45.7984" lon="1.87462">
        <ele>668</ele>
        <time>2024-09-15T13:04:08Z</time>
      </trkpt>
      <trkpt lat="45.7984" lon="1.87458">
        <ele>667.8</ele>
        <time>2024-09-15T13:04:09Z</time>
      </trkpt>
      <trkpt lat="45.79839" lon="1.87454">
        <ele>667</ele>
        <time>2024-09-15T13:04:10Z</time>
      </trkpt>
      <trkpt lat="45.79839" lon="1.87451">
        <ele>666.8</ele>
        <time>2024-09-15T13:04:11Z</time>
      </trkpt>
      <trkpt lat="45.79838" lon="1.87448">
        <ele>666</ele>
        <time>2024-09-15T13:04:12Z</time>
      </trkpt>
      <trkpt lat="45.79839" lon="1.87445">
        <ele>665.6</ele>
        <time>2024-09-15T13:04:13Z</time>
      </trkpt>
      <trkpt lat="45.79841" lon="1.87443">
        <ele>665</ele>
        <time>2024-09-15T13:04:14Z</time>
      </trkpt>
      <trkpt lat="45.79841" lon="1.87442">
        <ele>665</ele>
        <time>2024-09-15T13:04:15Z</time>
      </trkpt>
      <trkpt lat="45.79843" lon="1.87434">
        <ele>663.8</ele>
        <time>2024-09-15T13:04:18Z</time>
      </trkpt>
      <trkpt lat="45.79844" lon="1.87427">
        <ele>663.2</ele>
        <time>2024-09-15T13:04:19Z</time>
      </trkpt>
      <trkpt lat="45.79844" lon="1.87424">
        <ele>663</ele>
        <time>2024-09-15T13:04:20Z</time>
      </trkpt>
      <trkpt lat="45.79844" lon="1.8742">
        <ele>662.6</ele>
        <time>2024-09-15T13:04:21Z</time>
      </trkpt>
      <trkpt lat="45.79843" lon="1.87412">
        <ele>662.2</ele>
        <time>2024-09-15T13:04:23Z</time>
      </trkpt>
      <trkpt lat="45.79842" lon="1.87409">
        <ele>661.8</ele>
        <time>2024-09-15T13:04:24Z</time>
      </trkpt>
      <trkpt lat="45.79842" lon="1.87407">
        <ele>660.8</ele>
        <time>2024-09-15T13:04:25Z</time>
      </trkpt>
      <trkpt lat="45.79845" lon="1.87402">
        <ele>660.4</ele>
        <time>2024-09-15T13:04:26Z</time>
      </trkpt>
      <trkpt lat="45.79847" lon="1.874">
        <ele>659.8</ele>
        <time>2024-09-15T13:04:27Z</time>
      </trkpt>
      <trkpt lat="45.79847" lon="1.874">
        <ele>659.4</ele>
        <time>2024-09-15T13:04:28Z</time>
      </trkpt>
      <trkpt lat="45.79847" lon="1.874">
        <ele>658.6</ele>
        <time>2024-09-15T13:04:29Z</time>
      </trkpt>
      <trkpt lat="45.79847" lon="1.874">
        <ele>658.2</ele>
        <time>2024-09-15T13:04:30Z</time>
      </trkpt>
      <trkpt lat="45.79847" lon="1.874">
        <ele>657.8</ele>
        <time>2024-09-15T13:04:31Z</time>
      </trkpt>
      <trkpt lat="45.79849" lon="1.874">
        <ele>656</ele>
        <time>2024-09-15T13:04:53Z</time>
      </trkpt>
      <trkpt lat="45.79849" lon="1.87399">
        <ele>656</ele>
        <time>2024-09-15T13:04:56Z</time>
      </trkpt>
      <trkpt lat="45.79852" lon="1.87399">
        <ele>656.2</ele>
        <time>2024-09-15T13:05:36Z</time>
      </trkpt>
      <trkpt lat="45.79854" lon="1.874">
        <ele>656.2</ele>
        <time>2024-09-15T13:05:37Z</time>
      </trkpt>
      <trkpt lat="45.79864" lon="1.874">
        <ele>656.2</ele>
        <time>2024-09-15T13:05:42Z</time>
      </trkpt>
      <trkpt lat="45.79867" lon="1.874">
        <ele>656.2</ele>
        <time>2024-09-15T13:05:43Z</time>
      </trkpt>
      <trkpt lat="45.79873" lon="1.874">
        <ele>656</ele>
        <time>2024-09-15T13:05:46Z</time>
      </trkpt>
      <trkpt lat="45.79874" lon="1.874">
        <ele>656</ele>
        <time>2024-09-15T13:05:47Z</time>
      </trkpt>
      <trkpt lat="45.7988" lon="1.874">
        <ele>656</ele>
        <time>2024-09-15T13:05:50Z</time>
      </trkpt>
      <trkpt lat="45.79884" lon="1.87402">
        <ele>655.8</ele>
        <time>2024-09-15T13:05:52Z</time>
      </trkpt>
      <trkpt lat="45.79888" lon="1.87405">
        <ele>655.8</ele>
        <time>2024-09-15T13:05:54Z</time>
      </trkpt>
      <trkpt lat="45.7989" lon="1.87406">
        <ele>655.8</ele>
        <time>2024-09-15T13:05:55Z</time>
      </trkpt>
      <trkpt lat="45.79903" lon="1.8741">
        <ele>656</ele>
        <time>2024-09-15T13:06:00Z</time>
      </trkpt>
      <trkpt lat="45.79907" lon="1.87411">
        <ele>656</ele>
        <time>2024-09-15T13:06:01Z</time>
      </trkpt>
      <trkpt lat="45.79911" lon="1.87409">
        <ele>656</ele>
        <time>2024-09-15T13:06:02Z</time>
      </trkpt>
      <trkpt lat="45.79914" lon="1.8741">
        <ele>656</ele>
        <time>2024-09-15T13:06:03Z</time>
      </trkpt>
      <trkpt lat="45.79915" lon="1.8741">
        <ele>656</ele>
        <time>2024-09-15T13:06:04Z</time>
      </trkpt>
      <trkpt lat="45.79917" lon="1.87411">
        <ele>656</ele>
        <time>2024-09-15T13:06:05Z</time>
      </trkpt>
      <trkpt lat="45.7992" lon="1.87413">
        <ele>656</ele>
        <time>2024-09-15T13:06:06Z</time>
      </trkpt>
      <trkpt lat="45.79923" lon="1.87415">
        <ele>656</ele>
        <time>2024-09-15T13:06:07Z</time>
      </trkpt>
      <trkpt lat="45.79923" lon="1.87416">
        <ele>656</ele>
        <time>2024-09-15T13:06:08Z</time>
      </trkpt>
      <trkpt lat="45.79926" lon="1.87416">
        <ele>656</ele>
        <time>2024-09-15T13:06:09Z</time>
      </trkpt>
      <trkpt lat="45.79928" lon="1.87417">
        <ele>656</ele>
        <time>2024-09-15T13:06:10Z</time>
      </trkpt>
      <trkpt lat="45.79931" lon="1.87417">
        <ele>656</ele>
        <time>2024-09-15T13:06:12Z</time>
      </trkpt>
      <trkpt lat="45.79934" lon="1.87417">
        <ele>656</ele>
        <time>2024-09-15T13:06:13Z</time>
      </trkpt>
      <trkpt lat="45.79936" lon="1.8742">
        <ele>656</ele>
        <time>2024-09-15T13:06:14Z</time>
      </trkpt>
      <trkpt lat="45.79937" lon="1.87423">
        <ele>656.2</ele>
        <time>2024-09-15T13:06:15Z</time>
      </trkpt>
      <trkpt lat="45.79939" lon="1.87426">
        <ele>656.2</ele>
        <time>2024-09-15T13:06:16Z</time>
      </trkpt>
      <trkpt lat="45.79941" lon="1.87429">
        <ele>656.2</ele>
        <time>2024-09-15T13:06:17Z</time>
      </trkpt>
      <trkpt lat="45.79945" lon="1.8743">
        <ele>656.2</ele>
        <time>2024-09-15T13:06:19Z</time>
      </trkpt>
      <trkpt lat="45.79946" lon="1.87429">
        <ele>656.4</ele>
        <time>2024-09-15T13:06:20Z</time>
      </trkpt>
      <trkpt lat="45.79946" lon="1.8743">
        <ele>656.4</ele>
        <time>2024-09-15T13:06:21Z</time>
      </trkpt>
      <trkpt lat="45.79946" lon="1.87429">
        <ele>656.4</ele>
        <time>2024-09-15T13:06:22Z</time>
      </trkpt>
      <trkpt lat="45.79946" lon="1.8743">
        <ele>656.4</ele>
        <time>2024-09-15T13:06:23Z</time>
      </trkpt>
      <trkpt lat="45.79946" lon="1.8743">
        <ele>656.4</ele>
        <time>2024-09-15T13:06:24Z</time>
      </trkpt>
      <trkpt lat="45.79946" lon="1.8743">
        <ele>656.4</ele>
        <time>2024-09-15T13:06:25Z</time>
      </trkpt>
      <trkpt lat="45.79946" lon="1.8743">
        <ele>656.4</ele>
        <time>2024-09-15T13:06:30Z</time>
      </trkpt>
      <trkpt lat="45.79948" lon="1.87435">
        <ele>656.4</ele>
        <time>2024-09-15T13:06:33Z</time>
      </trkpt>
      <trkpt lat="45.79948" lon="1.87435">
        <ele>656.4</ele>
        <time>2024-09-15T13:06:35Z</time>
      </trkpt>
      <trkpt lat="45.79953" lon="1.87438">
        <ele>656.2</ele>
        <time>2024-09-15T13:07:31Z</time>
      </trkpt>
      <trkpt lat="45.79956" lon="1.87441">
        <ele>656.2</ele>
        <time>2024-09-15T13:07:32Z</time>
      </trkpt>
      <trkpt lat="45.79959" lon="1.87444">
        <ele>656.2</ele>
        <time>2024-09-15T13:07:33Z</time>
      </trkpt>
      <trkpt lat="45.79974" lon="1.87454">
        <ele>656</ele>
        <time>2024-09-15T13:07:37Z</time>
      </trkpt>
      <trkpt lat="45.79977" lon="1.87455">
        <ele>656</ele>
        <time>2024-09-15T13:07:38Z</time>
      </trkpt>
      <trkpt lat="45.7998" lon="1.87456">
        <ele>656</ele>
        <time>2024-09-15T13:07:39Z</time>
      </trkpt>
      <trkpt lat="45.79983" lon="1.87457">
        <ele>656</ele>
        <time>2024-09-15T13:07:40Z</time>
      </trkpt>
      <trkpt lat="45.79989" lon="1.87464">
        <ele>655.8</ele>
        <time>2024-09-15T13:07:42Z</time>
      </trkpt>
      <trkpt lat="45.79991" lon="1.87465">
        <ele>655.8</ele>
        <time>2024-09-15T13:07:43Z</time>
      </trkpt>
      <trkpt lat="45.79995" lon="1.87467">
        <ele>656</ele>
        <time>2024-09-15T13:07:45Z</time>
      </trkpt>
      <trkpt lat="45.79996" lon="1.87468">
        <ele>656</ele>
        <time>2024-09-15T13:07:46Z</time>
      </trkpt>
      <trkpt lat="45.79997" lon="1.87469">
        <ele>656.2</ele>
        <time>2024-09-15T13:07:48Z</time>
      </trkpt>
      <trkpt lat="45.79997" lon="1.8747">
        <ele>656.4</ele>
        <time>2024-09-15T13:07:49Z</time>
      </trkpt>
      <trkpt lat="45.79999" lon="1.87472">
        <ele>656.6</ele>
        <time>2024-09-15T13:07:50Z</time>
      </trkpt>
      <trkpt lat="45.8" lon="1.87473">
        <ele>656.8</ele>
        <time>2024-09-15T13:07:51Z</time>
      </trkpt>
      <trkpt lat="45.8" lon="1.87473">
        <ele>656.8</ele>
        <time>2024-09-15T13:07:52Z</time>
      </trkpt>
      <trkpt lat="45.80001" lon="1.87476">
        <ele>657</ele>
        <time>2024-09-15T13:07:53Z</time>
      </trkpt>
      <trkpt lat="45.80004" lon="1.8748">
        <ele>657</ele>
        <time>2024-09-15T13:07:54Z</time>
      </trkpt>
      <trkpt lat="45.80007" lon="1.87484">
        <ele>657</ele>
        <time>2024-09-15T13:07:55Z</time>
      </trkpt>
      <trkpt lat="45.8001" lon="1.87486">
        <ele>657</ele>
        <time>2024-09-15T13:07:56Z</time>
      </trkpt>
      <trkpt lat="45.80017" lon="1.8749">
        <ele>657</ele>
        <time>2024-09-15T13:07:58Z</time>
      </trkpt>
      <trkpt lat="45.80019" lon="1.87491">
        <ele>657</ele>
        <time>2024-09-15T13:07:59Z</time>
      </trkpt>
      <trkpt lat="45.80021" lon="1.87492">
        <ele>657</ele>
        <time>2024-09-15T13:08:00Z</time>
      </trkpt>
      <trkpt lat="45.80021" lon="1.87492">
        <ele>656.8</ele>
        <time>2024-09-15T13:08:01Z</time>
      </trkpt>
      <trkpt lat="45.80021" lon="1.87492">
        <ele>656.6</ele>
        <time>2024-09-15T13:08:02Z</time>
      </trkpt>
      <trkpt lat="45.80021" lon="1.87492">
        <ele>656.4</ele>
        <time>2024-09-15T13:08:03Z</time>
      </trkpt>
      <trkpt lat="45.80023" lon="1.87495">
        <ele>656</ele>
        <time>2024-09-15T13:08:12Z</time>
      </trkpt>
      <trkpt lat="45.80032" lon="1.87497">
        <ele>656</ele>
        <time>2024-09-15T13:08:15Z</time>
      </trkpt>
      <trkpt lat="45.80035" lon="1.87498">
        <ele>656</ele>
        <time>2024-09-15T13:08:17Z</time>
      </trkpt>
      <trkpt lat="45.80035" lon="1.87498">
        <ele>656</ele>
        <time>2024-09-15T13:08:18Z</time>
      </trkpt>
      <trkpt lat="45.80042" lon="1.875">
        <ele>656.2</ele>
        <time>2024-09-15T13:08:22Z</time>
      </trkpt>
      <trkpt lat="45.80046" lon="1.87498">
        <ele>656.2</ele>
        <time>2024-09-15T13:08:25Z</time>
      </trkpt>
      <trkpt lat="45.80048" lon="1.87498">
        <ele>656.2</ele>
        <time>2024-09-15T13:08:26Z</time>
      </trkpt>
      <trkpt lat="45.8005" lon="1.87497">
        <ele>656.2</ele>
        <time>2024-09-15T13:08:27Z</time>
      </trkpt>
      <trkpt lat="45.80058" lon="1.87497">
        <ele>656.4</ele>
        <time>2024-09-15T13:08:31Z</time>
      </trkpt>
      <trkpt lat="45.80066" lon="1.87496">
        <ele>656.6</ele>
        <time>2024-09-15T13:08:34Z</time>
      </trkpt>
      <trkpt lat="45.80068" lon="1.87498">
        <ele>656.6</ele>
        <time>2024-09-15T13:08:35Z</time>
      </trkpt>
      <trkpt lat="45.80071" lon="1.87499">
        <ele>656.6</ele>
        <time>2024-09-15T13:08:36Z</time>
      </trkpt>
      <trkpt lat="45.80073" lon="1.87499">
        <ele>656.6</ele>
        <time>2024-09-15T13:08:37Z</time>
      </trkpt>
      <trkpt lat="45.80077" lon="1.87502">
        <ele>656.6</ele>
        <time>2024-09-15T13:08:40Z</time>
      </trkpt>
      <trkpt lat="45.80078" lon="1.87503">
        <ele>656.6</ele>
        <time>2024-09-15T13:08:41Z</time>
      </trkpt>
      <trkpt lat="45.80078" lon="1.87504">
        <ele>656.4</ele>
        <time>2024-09-15T13:08:42Z</time>
      </trkpt>
      <trkpt lat="45.80079" lon="1.87504">
        <ele>656.4</ele>
        <time>2024-09-15T13:08:43Z</time>
      </trkpt>
      <trkpt lat="45.80079" lon="1.87504">
        <ele>656.2</ele>
        <time>2024-09-15T13:08:44Z</time>
      </trkpt>
      <trkpt lat="45.80079" lon="1.87504">
        <ele>656.2</ele>
        <time>2024-09-15T13:08:46Z</time>
      </trkpt>
      <trkpt lat="45.80079" lon="1.87504">
        <ele>656.6</ele>
        <time>2024-09-15T13:09:10Z</time>
      </trkpt>
      <trkpt lat="45.80079" lon="1.87504">
        <ele>657.2</ele>
        <time>2024-09-15T13:09:11Z</time>
      </trkpt>
      <trkpt lat="45.80079" lon="1.87504">
        <ele>656.2</ele>
        <time>2024-09-15T13:09:12Z</time>
      </trkpt>
      <trkpt lat="45.80079" lon="1.87502">
        <ele>655.4</ele>
        <time>2024-09-15T13:09:14Z</time>
      </trkpt>
      <trkpt lat="45.80079" lon="1.87502">
        <ele>655</ele>
        <time>2024-09-15T13:09:16Z</time>
      </trkpt>
      <trkpt lat="45.80079" lon="1.87498">
        <ele>656.6</ele>
        <time>2024-09-15T13:09:57Z</time>
      </trkpt>
      <trkpt lat="45.80081" lon="1.87498">
        <ele>656.6</ele>
        <time>2024-09-15T13:09:58Z</time>
      </trkpt>
      <trkpt lat="45.8009" lon="1.875">
        <ele>656.4</ele>
        <time>2024-09-15T13:10:03Z</time>
      </trkpt>
      <trkpt lat="45.80092" lon="1.87501">
        <ele>656.4</ele>
        <time>2024-09-15T13:10:04Z</time>
      </trkpt>
      <trkpt lat="45.80104" lon="1.87511">
        <ele>656.4</ele>
        <time>2024-09-15T13:10:11Z</time>
      </trkpt>
      <trkpt lat="45.80109" lon="1.87515">
        <ele>656.4</ele>
        <time>2024-09-15T13:10:13Z</time>
      </trkpt>
      <trkpt lat="45.80112" lon="1.87516">
        <ele>656.4</ele>
        <time>2024-09-15T13:10:14Z</time>
      </trkpt>
      <trkpt lat="45.80118" lon="1.87521">
        <ele>656.4</ele>
        <time>2024-09-15T13:10:17Z</time>
      </trkpt>
      <trkpt lat="45.80125" lon="1.87527">
        <ele>656.4</ele>
        <time>2024-09-15T13:10:20Z</time>
      </trkpt>
      <trkpt lat="45.80127" lon="1.87529">
        <ele>656.4</ele>
        <time>2024-09-15T13:10:21Z</time>
      </trkpt>
      <trkpt lat="45.8013" lon="1.8753">
        <ele>656.4</ele>
        <time>2024-09-15T13:10:22Z</time>
      </trkpt>
      <trkpt lat="45.80133" lon="1.87532">
        <ele>656.4</ele>
        <time>2024-09-15T13:10:23Z</time>
      </trkpt>
      <trkpt lat="45.80142" lon="1.87537">
        <ele>656.4</ele>
        <time>2024-09-15T13:10:26Z</time>
      </trkpt>
      <trkpt lat="45.80145" lon="1.87539">
        <ele>656.4</ele>
        <time>2024-09-15T13:10:27Z</time>
      </trkpt>
      <trkpt lat="45.80149" lon="1.87542">
        <ele>656.4</ele>
        <time>2024-09-15T13:10:28Z</time>
      </trkpt>
      <trkpt lat="45.80159" lon="1.87543">
        <ele>656.4</ele>
        <time>2024-09-15T13:10:30Z</time>
      </trkpt>
      <trkpt lat="45.80162" lon="1.87544">
        <ele>656.4</ele>
        <time>2024-09-15T13:10:31Z</time>
      </trkpt>
      <trkpt lat="45.80168" lon="1.8755">
        <ele>656.4</ele>
        <time>2024-09-15T13:10:34Z</time>
      </trkpt>
      <trkpt lat="45.80169" lon="1.87553">
        <ele>656.6</ele>
        <time>2024-09-15T13:10:35Z</time>
      </trkpt>
      <trkpt lat="45.8017" lon="1.87556">
        <ele>656.6</ele>
        <time>2024-09-15T13:10:36Z</time>
      </trkpt>
      <trkpt lat="45.80173" lon="1.8756">
        <ele>656.8</ele>
        <time>2024-09-15T13:10:37Z</time>
      </trkpt>
      <trkpt lat="45.80177" lon="1.87563">
        <ele>656.8</ele>
        <time>2024-09-15T13:10:38Z</time>
      </trkpt>
      <trkpt lat="45.80177" lon="1.87564">
        <ele>656.8</ele>
        <time>2024-09-15T13:10:39Z</time>
      </trkpt>
      <trkpt lat="45.80179" lon="1.87564">
        <ele>657</ele>
        <time>2024-09-15T13:10:40Z</time>
      </trkpt>
      <trkpt lat="45.80181" lon="1.87564">
        <ele>657</ele>
        <time>2024-09-15T13:10:41Z</time>
      </trkpt>
      <trkpt lat="45.80184" lon="1.87565">
        <ele>657</ele>
        <time>2024-09-15T13:10:42Z</time>
      </trkpt>
      <trkpt lat="45.80186" lon="1.87567">
        <ele>657.2</ele>
        <time>2024-09-15T13:10:43Z</time>
      </trkpt>
      <trkpt lat="45.80191" lon="1.87582">
        <ele>657.2</ele>
        <time>2024-09-15T13:10:47Z</time>
      </trkpt>
      <trkpt lat="45.80192" lon="1.87584">
        <ele>657.4</ele>
        <time>2024-09-15T13:10:48Z</time>
      </trkpt>
      <trkpt lat="45.80193" lon="1.87588">
        <ele>657.4</ele>
        <time>2024-09-15T13:10:49Z</time>
      </trkpt>
      <trkpt lat="45.80195" lon="1.87589">
        <ele>657.4</ele>
        <time>2024-09-15T13:10:50Z</time>
      </trkpt>
      <trkpt lat="45.80197" lon="1.87589">
        <ele>657.6</ele>
        <time>2024-09-15T13:10:51Z</time>
      </trkpt>
      <trkpt lat="45.80199" lon="1.87592">
        <ele>657.6</ele>
        <time>2024-09-15T13:10:52Z</time>
      </trkpt>
      <trkpt lat="45.80201" lon="1.87594">
        <ele>657.8</ele>
        <time>2024-09-15T13:10:53Z</time>
      </trkpt>
      <trkpt lat="45.80203" lon="1.87598">
        <ele>657.8</ele>
        <time>2024-09-15T13:10:54Z</time>
      </trkpt>
      <trkpt lat="45.80205" lon="1.87601">
        <ele>658</ele>
        <time>2024-09-15T13:10:55Z</time>
      </trkpt>
      <trkpt lat="45.80207" lon="1.87603">
        <ele>658</ele>
        <time>2024-09-15T13:10:56Z</time>
      </trkpt>
      <trkpt lat="45.80208" lon="1.87604">
        <ele>658</ele>
        <time>2024-09-15T13:10:57Z</time>
      </trkpt>
      <trkpt lat="45.8021" lon="1.87604">
        <ele>658</ele>
        <time>2024-09-15T13:10:58Z</time>
      </trkpt>
      <trkpt lat="45.80212" lon="1.87608">
        <ele>658</ele>
        <time>2024-09-15T13:10:59Z</time>
      </trkpt>
      <trkpt lat="45.80213" lon="1.87608">
        <ele>658</ele>
        <time>2024-09-15T13:11:00Z</time>
      </trkpt>
      <trkpt lat="45.80214" lon="1.87612">
        <ele>658</ele>
        <time>2024-09-15T13:11:01Z</time>
      </trkpt>
      <trkpt lat="45.80216" lon="1.87614">
        <ele>657.8</ele>
        <time>2024-09-15T13:11:02Z</time>
      </trkpt>
      <trkpt lat="45.80218" lon="1.87615">
        <ele>657.8</ele>
        <time>2024-09-15T13:11:03Z</time>
      </trkpt>
      <trkpt lat="45.8022" lon="1.87615">
        <ele>657.8</ele>
        <time>2024-09-15T13:11:04Z</time>
      </trkpt>
      <trkpt lat="45.80222" lon="1.87617">
        <ele>657.6</ele>
        <time>2024-09-15T13:11:05Z</time>
      </trkpt>
      <trkpt lat="45.80225" lon="1.87618">
        <ele>657.6</ele>
        <time>2024-09-15T13:11:06Z</time>
      </trkpt>
      <trkpt lat="45.80227" lon="1.87619">
        <ele>657.4</ele>
        <time>2024-09-15T13:11:07Z</time>
      </trkpt>
      <trkpt lat="45.80236" lon="1.87626">
        <ele>656.6</ele>
        <time>2024-09-15T13:11:10Z</time>
      </trkpt>
      <trkpt lat="45.80238" lon="1.87627">
        <ele>656.4</ele>
        <time>2024-09-15T13:11:11Z</time>
      </trkpt>
      <trkpt lat="45.80242" lon="1.87628">
        <ele>656</ele>
        <time>2024-09-15T13:11:12Z</time>
      </trkpt>
      <trkpt lat="45.80246" lon="1.8763">
        <ele>655.8</ele>
        <time>2024-09-15T13:11:14Z</time>
      </trkpt>
      <trkpt lat="45.80246" lon="1.87633">
        <ele>655.8</ele>
        <time>2024-09-15T13:11:15Z</time>
      </trkpt>
      <trkpt lat="45.80248" lon="1.87634">
        <ele>655.8</ele>
        <time>2024-09-15T13:11:16Z</time>
      </trkpt>
      <trkpt lat="45.8025" lon="1.87635">
        <ele>655.8</ele>
        <time>2024-09-15T13:11:17Z</time>
      </trkpt>
      <trkpt lat="45.8025" lon="1.87635">
        <ele>655.8</ele>
        <time>2024-09-15T13:11:18Z</time>
      </trkpt>
      <trkpt lat="45.8025" lon="1.87636">
        <ele>655.8</ele>
        <time>2024-09-15T13:11:19Z</time>
      </trkpt>
      <trkpt lat="45.80252" lon="1.87639">
        <ele>656.2</ele>
        <time>2024-09-15T13:11:21Z</time>
      </trkpt>
      <trkpt lat="45.80255" lon="1.87643">
        <ele>656.6</ele>
        <time>2024-09-15T13:11:23Z</time>
      </trkpt>
      <trkpt lat="45.80256" lon="1.87645">
        <ele>656.6</ele>
        <time>2024-09-15T13:11:24Z</time>
      </trkpt>
      <trkpt lat="45.80257" lon="1.87646">
        <ele>656.8</ele>
        <time>2024-09-15T13:11:25Z</time>
      </trkpt>
      <trkpt lat="45.80257" lon="1.87648">
        <ele>656.8</ele>
        <time>2024-09-15T13:11:26Z</time>
      </trkpt>
      <trkpt lat="45.80258" lon="1.8765">
        <ele>657</ele>
        <time>2024-09-15T13:11:27Z</time>
      </trkpt>
      <trkpt lat="45.80259" lon="1.87651">
        <ele>657.2</ele>
        <time>2024-09-15T13:11:28Z</time>
      </trkpt>
      <trkpt lat="45.80259" lon="1.87652">
        <ele>657.4</ele>
        <time>2024-09-15T13:11:29Z</time>
      </trkpt>
      <trkpt lat="45.80259" lon="1.87652">
        <ele>657.4</ele>
        <time>2024-09-15T13:11:30Z</time>
      </trkpt>
      <trkpt lat="45.80261" lon="1.87655">
        <ele>657.6</ele>
        <time>2024-09-15T13:11:31Z</time>
      </trkpt>
      <trkpt lat="45.80264" lon="1.8766">
        <ele>657.6</ele>
        <time>2024-09-15T13:11:32Z</time>
      </trkpt>
      <trkpt lat="45.80266" lon="1.87663">
        <ele>657.6</ele>
        <time>2024-09-15T13:11:33Z</time>
      </trkpt>
      <trkpt lat="45.8027" lon="1.87669">
        <ele>657.8</ele>
        <time>2024-09-15T13:11:35Z</time>
      </trkpt>
      <trkpt lat="45.80273" lon="1.87673">
        <ele>657.8</ele>
        <time>2024-09-15T13:11:37Z</time>
      </trkpt>
      <trkpt lat="45.80275" lon="1.87675">
        <ele>657.8</ele>
        <time>2024-09-15T13:11:38Z</time>
      </trkpt>
      <trkpt lat="45.8028" lon="1.87679">
        <ele>658</ele>
        <time>2024-09-15T13:11:40Z</time>
      </trkpt>
      <trkpt lat="45.80301" lon="1.87693">
        <ele>657.8</ele>
        <time>2024-09-15T13:11:46Z</time>
      </trkpt>
      <trkpt lat="45.80304" lon="1.87693">
        <ele>657.8</ele>
        <time>2024-09-15T13:11:47Z</time>
      </trkpt>
      <trkpt lat="45.80312" lon="1.87695">
        <ele>657.8</ele>
        <time>2024-09-15T13:11:49Z</time>
      </trkpt>
      <trkpt lat="45.80321" lon="1.87695">
        <ele>658</ele>
        <time>2024-09-15T13:11:52Z</time>
      </trkpt>
      <trkpt lat="45.80323" lon="1.87703">
        <ele>658</ele>
        <time>2024-09-15T13:11:54Z</time>
      </trkpt>
      <trkpt lat="45.80325" lon="1.87707">
        <ele>658.2</ele>
        <time>2024-09-15T13:11:55Z</time>
      </trkpt>
      <trkpt lat="45.80326" lon="1.87709">
        <ele>658.2</ele>
        <time>2024-09-15T13:11:56Z</time>
      </trkpt>
      <trkpt lat="45.80329" lon="1.87711">
        <ele>658.2</ele>
        <time>2024-09-15T13:11:57Z</time>
      </trkpt>
      <trkpt lat="45.80332" lon="1.87712">
        <ele>658.2</ele>
        <time>2024-09-15T13:11:58Z</time>
      </trkpt>
      <trkpt lat="45.80334" lon="1.87715">
        <ele>658.2</ele>
        <time>2024-09-15T13:11:59Z</time>
      </trkpt>
      <trkpt lat="45.80335" lon="1.87716">
        <ele>658.2</ele>
        <time>2024-09-15T13:12:00Z</time>
      </trkpt>
      <trkpt lat="45.80335" lon="1.87717">
        <ele>658.2</ele>
        <time>2024-09-15T13:12:01Z</time>
      </trkpt>
      <trkpt lat="45.80336" lon="1.87719">
        <ele>658.2</ele>
        <time>2024-09-15T13:12:02Z</time>
      </trkpt>
      <trkpt lat="45.80336" lon="1.8772">
        <ele>658.4</ele>
        <time>2024-09-15T13:12:03Z</time>
      </trkpt>
      <trkpt lat="45.80337" lon="1.87723">
        <ele>658.2</ele>
        <time>2024-09-15T13:12:04Z</time>
      </trkpt>
      <trkpt lat="45.80339" lon="1.87726">
        <ele>658</ele>
        <time>2024-09-15T13:12:05Z</time>
      </trkpt>
      <trkpt lat="45.80341" lon="1.87728">
        <ele>658</ele>
        <time>2024-09-15T13:12:06Z</time>
      </trkpt>
      <trkpt lat="45.80343" lon="1.87729">
        <ele>658</ele>
        <time>2024-09-15T13:12:07Z</time>
      </trkpt>
      <trkpt lat="45.80348" lon="1.87728">
        <ele>657.8</ele>
        <time>2024-09-15T13:12:08Z</time>
      </trkpt>
      <trkpt lat="45.80349" lon="1.87729">
        <ele>657.8</ele>
        <time>2024-09-15T13:12:09Z</time>
      </trkpt>
      <trkpt lat="45.80349" lon="1.87729">
        <ele>657.8</ele>
        <time>2024-09-15T13:12:10Z</time>
      </trkpt>
      <trkpt lat="45.80349" lon="1.87729">
        <ele>657</ele>
        <time>2024-09-15T13:12:12Z</time>
      </trkpt>
      <trkpt lat="45.80349" lon="1.8773">
        <ele>656.4</ele>
        <time>2024-09-15T13:12:37Z</time>
      </trkpt>
      <trkpt lat="45.8035" lon="1.87733">
        <ele>656.4</ele>
        <time>2024-09-15T13:12:38Z</time>
      </trkpt>
      <trkpt lat="45.80351" lon="1.87736">
        <ele>656.4</ele>
        <time>2024-09-15T13:12:39Z</time>
      </trkpt>
      <trkpt lat="45.80353" lon="1.87738">
        <ele>656.4</ele>
        <time>2024-09-15T13:12:40Z</time>
      </trkpt>
      <trkpt lat="45.80357" lon="1.87745">
        <ele>656.6</ele>
        <time>2024-09-15T13:12:43Z</time>
      </trkpt>
      <trkpt lat="45.80358" lon="1.87748">
        <ele>656.6</ele>
        <time>2024-09-15T13:12:44Z</time>
      </trkpt>
      <trkpt lat="45.8036" lon="1.8775">
        <ele>656.6</ele>
        <time>2024-09-15T13:12:45Z</time>
      </trkpt>
      <trkpt lat="45.80361" lon="1.87753">
        <ele>656.8</ele>
        <time>2024-09-15T13:12:46Z</time>
      </trkpt>
      <trkpt lat="45.80363" lon="1.87755">
        <ele>656.8</ele>
        <time>2024-09-15T13:12:47Z</time>
      </trkpt>
      <trkpt lat="45.80365" lon="1.87757">
        <ele>656.8</ele>
        <time>2024-09-15T13:12:48Z</time>
      </trkpt>
      <trkpt lat="45.80367" lon="1.8776">
        <ele>657</ele>
        <time>2024-09-15T13:12:49Z</time>
      </trkpt>
      <trkpt lat="45.80368" lon="1.87763">
        <ele>657</ele>
        <time>2024-09-15T13:12:50Z</time>
      </trkpt>
      <trkpt lat="45.80374" lon="1.87777">
        <ele>657.4</ele>
        <time>2024-09-15T13:12:54Z</time>
      </trkpt>
      <trkpt lat="45.80375" lon="1.87779">
        <ele>657.4</ele>
        <time>2024-09-15T13:12:55Z</time>
      </trkpt>
      <trkpt lat="45.80377" lon="1.87782">
        <ele>657.4</ele>
        <time>2024-09-15T13:12:56Z</time>
      </trkpt>
      <trkpt lat="45.80378" lon="1.87785">
        <ele>657.6</ele>
        <time>2024-09-15T13:12:57Z</time>
      </trkpt>
      <trkpt lat="45.80379" lon="1.87788">
        <ele>657.8</ele>
        <time>2024-09-15T13:12:58Z</time>
      </trkpt>
      <trkpt lat="45.80383" lon="1.87793">
        <ele>657.8</ele>
        <time>2024-09-15T13:13:00Z</time>
      </trkpt>
      <trkpt lat="45.80385" lon="1.87795">
        <ele>658</ele>
        <time>2024-09-15T13:13:01Z</time>
      </trkpt>
      <trkpt lat="45.80387" lon="1.87797">
        <ele>658</ele>
        <time>2024-09-15T13:13:02Z</time>
      </trkpt>
      <trkpt lat="45.80389" lon="1.87799">
        <ele>658.2</ele>
        <time>2024-09-15T13:13:03Z</time>
      </trkpt>
      <trkpt lat="45.80392" lon="1.878">
        <ele>658.2</ele>
        <time>2024-09-15T13:13:04Z</time>
      </trkpt>
      <trkpt lat="45.80396" lon="1.87802">
        <ele>658.4</ele>
        <time>2024-09-15T13:13:06Z</time>
      </trkpt>
      <trkpt lat="45.80398" lon="1.87804">
        <ele>658.8</ele>
        <time>2024-09-15T13:13:08Z</time>
      </trkpt>
      <trkpt lat="45.804" lon="1.87806">
        <ele>659</ele>
        <time>2024-09-15T13:13:09Z</time>
      </trkpt>
      <trkpt lat="45.80402" lon="1.87809">
        <ele>659.2</ele>
        <time>2024-09-15T13:13:10Z</time>
      </trkpt>
      <trkpt lat="45.80404" lon="1.87812">
        <ele>659.4</ele>
        <time>2024-09-15T13:13:11Z</time>
      </trkpt>
      <trkpt lat="45.80406" lon="1.87815">
        <ele>659.4</ele>
        <time>2024-09-15T13:13:12Z</time>
      </trkpt>
      <trkpt lat="45.80412" lon="1.87819">
        <ele>659.8</ele>
        <time>2024-09-15T13:13:14Z</time>
      </trkpt>
      <trkpt lat="45.80413" lon="1.87822">
        <ele>659.8</ele>
        <time>2024-09-15T13:13:15Z</time>
      </trkpt>
      <trkpt lat="45.80418" lon="1.87827">
        <ele>660</ele>
        <time>2024-09-15T13:13:17Z</time>
      </trkpt>
      <trkpt lat="45.80419" lon="1.87829">
        <ele>660.2</ele>
        <time>2024-09-15T13:13:18Z</time>
      </trkpt>
      <trkpt lat="45.8042" lon="1.87831">
        <ele>660.2</ele>
        <time>2024-09-15T13:13:19Z</time>
      </trkpt>
      <trkpt lat="45.80422" lon="1.87834">
        <ele>660.4</ele>
        <time>2024-09-15T13:13:20Z</time>
      </trkpt>
      <trkpt lat="45.80425" lon="1.87836">
        <ele>660.6</ele>
        <time>2024-09-15T13:13:21Z</time>
      </trkpt>
      <trkpt lat="45.80427" lon="1.87838">
        <ele>660.6</ele>
        <time>2024-09-15T13:13:22Z</time>
      </trkpt>
      <trkpt lat="45.80427" lon="1.8784">
        <ele>660.8</ele>
        <time>2024-09-15T13:13:23Z</time>
      </trkpt>
      <trkpt lat="45.80428" lon="1.87843">
        <ele>660.8</ele>
        <time>2024-09-15T13:13:24Z</time>
      </trkpt>
      <trkpt lat="45.8043" lon="1.87846">
        <ele>661</ele>
        <time>2024-09-15T13:13:25Z</time>
      </trkpt>
      <trkpt lat="45.80432" lon="1.8785">
        <ele>661</ele>
        <time>2024-09-15T13:13:26Z</time>
      </trkpt>
      <trkpt lat="45.80434" lon="1.87854">
        <ele>661</ele>
        <time>2024-09-15T13:13:27Z</time>
      </trkpt>
      <trkpt lat="45.80435" lon="1.87858">
        <ele>661.2</ele>
        <time>2024-09-15T13:13:28Z</time>
      </trkpt>
      <trkpt lat="45.80436" lon="1.87861">
        <ele>661.2</ele>
        <time>2024-09-15T13:13:29Z</time>
      </trkpt>
      <trkpt lat="45.80438" lon="1.87864">
        <ele>661.4</ele>
        <time>2024-09-15T13:13:30Z</time>
      </trkpt>
      <trkpt lat="45.80438" lon="1.87868">
        <ele>661.4</ele>
        <time>2024-09-15T13:13:31Z</time>
      </trkpt>
      <trkpt lat="45.80439" lon="1.87873">
        <ele>661.4</ele>
        <time>2024-09-15T13:13:32Z</time>
      </trkpt>
      <trkpt lat="45.8044" lon="1.87877">
        <ele>661.6</ele>
        <time>2024-09-15T13:13:33Z</time>
      </trkpt>
      <trkpt lat="45.80441" lon="1.87881">
        <ele>661.6</ele>
        <time>2024-09-15T13:13:34Z</time>
      </trkpt>
      <trkpt lat="45.80442" lon="1.87883">
        <ele>661.6</ele>
        <time>2024-09-15T13:13:35Z</time>
      </trkpt>
      <trkpt lat="45.80443" lon="1.87885">
        <ele>661.6</ele>
        <time>2024-09-15T13:13:36Z</time>
      </trkpt>
      <trkpt lat="45.80445" lon="1.87887">
        <ele>661.8</ele>
        <time>2024-09-15T13:13:37Z</time>
      </trkpt>
      <trkpt lat="45.80446" lon="1.8789">
        <ele>661.8</ele>
        <time>2024-09-15T13:13:38Z</time>
      </trkpt>
      <trkpt lat="45.80446" lon="1.87892">
        <ele>661.8</ele>
        <time>2024-09-15T13:13:39Z</time>
      </trkpt>
      <trkpt lat="45.80448" lon="1.87896">
        <ele>662</ele>
        <time>2024-09-15T13:13:40Z</time>
      </trkpt>
      <trkpt lat="45.80449" lon="1.87901">
        <ele>662</ele>
        <time>2024-09-15T13:13:41Z</time>
      </trkpt>
      <trkpt lat="45.8045" lon="1.87904">
        <ele>662</ele>
        <time>2024-09-15T13:13:42Z</time>
      </trkpt>
      <trkpt lat="45.80454" lon="1.87918">
        <ele>662.2</ele>
        <time>2024-09-15T13:13:45Z</time>
      </trkpt>
      <trkpt lat="45.8046" lon="1.87931">
        <ele>662.6</ele>
        <time>2024-09-15T13:13:49Z</time>
      </trkpt>
      <trkpt lat="45.80468" lon="1.87946">
        <ele>663</ele>
        <time>2024-09-15T13:13:53Z</time>
      </trkpt>
      <trkpt lat="45.80472" lon="1.87953">
        <ele>663</ele>
        <time>2024-09-15T13:13:55Z</time>
      </trkpt>
      <trkpt lat="45.80473" lon="1.87957">
        <ele>663</ele>
        <time>2024-09-15T13:13:56Z</time>
      </trkpt>
      <trkpt lat="45.80475" lon="1.87961">
        <ele>663.2</ele>
        <time>2024-09-15T13:13:57Z</time>
      </trkpt>
      <trkpt lat="45.80481" lon="1.8797">
        <ele>663.6</ele>
        <time>2024-09-15T13:14:00Z</time>
      </trkpt>
      <trkpt lat="45.80484" lon="1.87975">
        <ele>663.6</ele>
        <time>2024-09-15T13:14:02Z</time>
      </trkpt>
      <trkpt lat="45.80486" lon="1.87978">
        <ele>663.8</ele>
        <time>2024-09-15T13:14:03Z</time>
      </trkpt>
      <trkpt lat="45.80488" lon="1.8798">
        <ele>663.8</ele>
        <time>2024-09-15T13:14:04Z</time>
      </trkpt>
      <trkpt lat="45.8049" lon="1.87982">
        <ele>663.8</ele>
        <time>2024-09-15T13:14:05Z</time>
      </trkpt>
      <trkpt lat="45.80492" lon="1.87985">
        <ele>663.8</ele>
        <time>2024-09-15T13:14:06Z</time>
      </trkpt>
      <trkpt lat="45.80494" lon="1.87988">
        <ele>663.8</ele>
        <time>2024-09-15T13:14:07Z</time>
      </trkpt>
      <trkpt lat="45.80496" lon="1.87991">
        <ele>663.8</ele>
        <time>2024-09-15T13:14:08Z</time>
      </trkpt>
      <trkpt lat="45.80498" lon="1.87993">
        <ele>663.8</ele>
        <time>2024-09-15T13:14:09Z</time>
      </trkpt>
      <trkpt lat="45.80501" lon="1.87992">
        <ele>663.8</ele>
        <time>2024-09-15T13:14:10Z</time>
      </trkpt>
      <trkpt lat="45.80507" lon="1.87986">
        <ele>663.8</ele>
        <time>2024-09-15T13:14:12Z</time>
      </trkpt>
      <trkpt lat="45.80518" lon="1.8798">
        <ele>663.8</ele>
        <time>2024-09-15T13:14:16Z</time>
      </trkpt>
      <trkpt lat="45.80522" lon="1.87978">
        <ele>663.8</ele>
        <time>2024-09-15T13:14:17Z</time>
      </trkpt>
      <trkpt lat="45.80528" lon="1.87973">
        <ele>663.8</ele>
        <time>2024-09-15T13:14:19Z</time>
      </trkpt>
      <trkpt lat="45.8053" lon="1.87972">
        <ele>663.8</ele>
        <time>2024-09-15T13:14:20Z</time>
      </trkpt>
      <trkpt lat="45.80538" lon="1.87966">
        <ele>663.8</ele>
        <time>2024-09-15T13:14:23Z</time>
      </trkpt>
      <trkpt lat="45.80542" lon="1.87961">
        <ele>663.8</ele>
        <time>2024-09-15T13:14:26Z</time>
      </trkpt>
      <trkpt lat="45.80548" lon="1.87958">
        <ele>663.8</ele>
        <time>2024-09-15T13:14:28Z</time>
      </trkpt>
      <trkpt lat="45.80549" lon="1.87957">
        <ele>663.8</ele>
        <time>2024-09-15T13:14:29Z</time>
      </trkpt>
      <trkpt lat="45.80551" lon="1.87956">
        <ele>663.8</ele>
        <time>2024-09-15T13:14:30Z</time>
      </trkpt>
      <trkpt lat="45.80552" lon="1.87955">
        <ele>663.8</ele>
        <time>2024-09-15T13:14:31Z</time>
      </trkpt>
      <trkpt lat="45.80554" lon="1.87953">
        <ele>664</ele>
        <time>2024-09-15T13:14:32Z</time>
      </trkpt>
      <trkpt lat="45.80556" lon="1.87952">
        <ele>664</ele>
        <time>2024-09-15T13:14:33Z</time>
      </trkpt>
      <trkpt lat="45.80559" lon="1.8795">
        <ele>664.4</ele>
        <time>2024-09-15T13:14:35Z</time>
      </trkpt>
      <trkpt lat="45.8056" lon="1.87949">
        <ele>664.4</ele>
        <time>2024-09-15T13:14:36Z</time>
      </trkpt>
      <trkpt lat="45.80561" lon="1.87948">
        <ele>664.6</ele>
        <time>2024-09-15T13:14:37Z</time>
      </trkpt>
      <trkpt lat="45.80564" lon="1.87947">
        <ele>664.6</ele>
        <time>2024-09-15T13:14:38Z</time>
      </trkpt>
      <trkpt lat="45.80566" lon="1.87945">
        <ele>664.8</ele>
        <time>2024-09-15T13:14:39Z</time>
      </trkpt>
      <trkpt lat="45.80569" lon="1.87944">
        <ele>664.8</ele>
        <time>2024-09-15T13:14:40Z</time>
      </trkpt>
      <trkpt lat="45.80571" lon="1.87943">
        <ele>665</ele>
        <time>2024-09-15T13:14:41Z</time>
      </trkpt>
      <trkpt lat="45.80573" lon="1.87942">
        <ele>665</ele>
        <time>2024-09-15T13:14:42Z</time>
      </trkpt>
      <trkpt lat="45.80575" lon="1.8794">
        <ele>665.2</ele>
        <time>2024-09-15T13:14:43Z</time>
      </trkpt>
      <trkpt lat="45.80578" lon="1.87939">
        <ele>665.4</ele>
        <time>2024-09-15T13:14:44Z</time>
      </trkpt>
      <trkpt lat="45.80587" lon="1.87935">
        <ele>666</ele>
        <time>2024-09-15T13:14:48Z</time>
      </trkpt>
      <trkpt lat="45.80589" lon="1.87935">
        <ele>666</ele>
        <time>2024-09-15T13:14:49Z</time>
      </trkpt>
      <trkpt lat="45.80591" lon="1.87936">
        <ele>666.2</ele>
        <time>2024-09-15T13:14:50Z</time>
      </trkpt>
      <trkpt lat="45.80594" lon="1.87936">
        <ele>666.4</ele>
        <time>2024-09-15T13:14:51Z</time>
      </trkpt>
      <trkpt lat="45.80613" lon="1.87934">
        <ele>667</ele>
        <time>2024-09-15T13:14:56Z</time>
      </trkpt>
      <trkpt lat="45.80618" lon="1.87934">
        <ele>667.2</ele>
        <time>2024-09-15T13:14:57Z</time>
      </trkpt>
      <trkpt lat="45.80621" lon="1.87934">
        <ele>667.2</ele>
        <time>2024-09-15T13:14:58Z</time>
      </trkpt>
      <trkpt lat="45.80624" lon="1.87935">
        <ele>667.4</ele>
        <time>2024-09-15T13:14:59Z</time>
      </trkpt>
      <trkpt lat="45.80626" lon="1.87937">
        <ele>667.4</ele>
        <time>2024-09-15T13:15:00Z</time>
      </trkpt>
      <trkpt lat="45.80629" lon="1.87939">
        <ele>667.6</ele>
        <time>2024-09-15T13:15:01Z</time>
      </trkpt>
      <trkpt lat="45.80631" lon="1.87941">
        <ele>667.6</ele>
        <time>2024-09-15T13:15:02Z</time>
      </trkpt>
      <trkpt lat="45.80634" lon="1.87942">
        <ele>667.6</ele>
        <time>2024-09-15T13:15:03Z</time>
      </trkpt>
      <trkpt lat="45.80637" lon="1.87943">
        <ele>667.6</ele>
        <time>2024-09-15T13:15:04Z</time>
      </trkpt>
      <trkpt lat="45.8064" lon="1.87944">
        <ele>667.8</ele>
        <time>2024-09-15T13:15:05Z</time>
      </trkpt>
      <trkpt lat="45.80646" lon="1.87944">
        <ele>667.8</ele>
        <time>2024-09-15T13:15:06Z</time>
      </trkpt>
      <trkpt lat="45.80649" lon="1.87945">
        <ele>668</ele>
        <time>2024-09-15T13:15:07Z</time>
      </trkpt>
      <trkpt lat="45.80652" lon="1.87945">
        <ele>668</ele>
        <time>2024-09-15T13:15:08Z</time>
      </trkpt>
      <trkpt lat="45.80655" lon="1.87945">
        <ele>668.2</ele>
        <time>2024-09-15T13:15:09Z</time>
      </trkpt>
      <trkpt lat="45.80658" lon="1.87945">
        <ele>668.2</ele>
        <time>2024-09-15T13:15:10Z</time>
      </trkpt>
      <trkpt lat="45.80663" lon="1.87946">
        <ele>668.2</ele>
        <time>2024-09-15T13:15:11Z</time>
      </trkpt>
      <trkpt lat="45.80665" lon="1.87947">
        <ele>668.4</ele>
        <time>2024-09-15T13:15:12Z</time>
      </trkpt>
      <trkpt lat="45.80668" lon="1.87947">
        <ele>668.4</ele>
        <time>2024-09-15T13:15:13Z</time>
      </trkpt>
      <trkpt lat="45.80671" lon="1.87946">
        <ele>668.6</ele>
        <time>2024-09-15T13:15:14Z</time>
      </trkpt>
      <trkpt lat="45.80674" lon="1.87946">
        <ele>668.6</ele>
        <time>2024-09-15T13:15:15Z</time>
      </trkpt>
      <trkpt lat="45.80677" lon="1.87947">
        <ele>668.8</ele>
        <time>2024-09-15T13:15:16Z</time>
      </trkpt>
      <trkpt lat="45.80689" lon="1.87952">
        <ele>669.2</ele>
        <time>2024-09-15T13:15:20Z</time>
      </trkpt>
      <trkpt lat="45.80692" lon="1.87953">
        <ele>669.2</ele>
        <time>2024-09-15T13:15:21Z</time>
      </trkpt>
      <trkpt lat="45.8071" lon="1.87958">
        <ele>669.8</ele>
        <time>2024-09-15T13:15:26Z</time>
      </trkpt>
      <trkpt lat="45.80724" lon="1.87963">
        <ele>670.2</ele>
        <time>2024-09-15T13:15:31Z</time>
      </trkpt>
      <trkpt lat="45.80733" lon="1.87966">
        <ele>670.4</ele>
        <time>2024-09-15T13:15:34Z</time>
      </trkpt>
      <trkpt lat="45.80738" lon="1.87968">
        <ele>670.8</ele>
        <time>2024-09-15T13:15:36Z</time>
      </trkpt>
      <trkpt lat="45.8075" lon="1.87973">
        <ele>671</ele>
        <time>2024-09-15T13:15:40Z</time>
      </trkpt>
      <trkpt lat="45.80752" lon="1.87975">
        <ele>671</ele>
        <time>2024-09-15T13:15:41Z</time>
      </trkpt>
      <trkpt lat="45.80761" lon="1.8798">
        <ele>671.2</ele>
        <time>2024-09-15T13:15:44Z</time>
      </trkpt>
      <trkpt lat="45.80763" lon="1.87982">
        <ele>671.2</ele>
        <time>2024-09-15T13:15:45Z</time>
      </trkpt>
      <trkpt lat="45.80765" lon="1.87983">
        <ele>671.4</ele>
        <time>2024-09-15T13:15:46Z</time>
      </trkpt>
      <trkpt lat="45.80776" lon="1.87991">
        <ele>671.8</ele>
        <time>2024-09-15T13:15:50Z</time>
      </trkpt>
      <trkpt lat="45.80778" lon="1.87992">
        <ele>672</ele>
        <time>2024-09-15T13:15:51Z</time>
      </trkpt>
      <trkpt lat="45.8078" lon="1.87994">
        <ele>672.2</ele>
        <time>2024-09-15T13:15:52Z</time>
      </trkpt>
      <trkpt lat="45.80782" lon="1.87995">
        <ele>672.2</ele>
        <time>2024-09-15T13:15:53Z</time>
      </trkpt>
      <trkpt lat="45.80792" lon="1.88003">
        <ele>672.4</ele>
        <time>2024-09-15T13:15:56Z</time>
      </trkpt>
      <trkpt lat="45.80802" lon="1.88016">
        <ele>672.2</ele>
        <time>2024-09-15T13:16:01Z</time>
      </trkpt>
      <trkpt lat="45.80821" lon="1.88042">
        <ele>672</ele>
        <time>2024-09-15T13:16:07Z</time>
      </trkpt>
      <trkpt lat="45.80839" lon="1.88071">
        <ele>671.2</ele>
        <time>2024-09-15T13:16:14Z</time>
      </trkpt>
      <trkpt lat="45.80842" lon="1.88075">
        <ele>671.2</ele>
        <time>2024-09-15T13:16:15Z</time>
      </trkpt>
      <trkpt lat="45.8085" lon="1.88087">
        <ele>671.2</ele>
        <time>2024-09-15T13:16:18Z</time>
      </trkpt>
      <trkpt lat="45.80871" lon="1.88106">
        <ele>670.8</ele>
        <time>2024-09-15T13:16:25Z</time>
      </trkpt>
      <trkpt lat="45.80886" lon="1.8811">
        <ele>671</ele>
        <time>2024-09-15T13:16:29Z</time>
      </trkpt>
      <trkpt lat="45.80889" lon="1.88111">
        <ele>671</ele>
        <time>2024-09-15T13:16:30Z</time>
      </trkpt>
      <trkpt lat="45.80893" lon="1.88111">
        <ele>671</ele>
        <time>2024-09-15T13:16:31Z</time>
      </trkpt>
      <trkpt lat="45.80896" lon="1.88111">
        <ele>671</ele>
        <time>2024-09-15T13:16:32Z</time>
      </trkpt>
      <trkpt lat="45.809" lon="1.88111">
        <ele>671</ele>
        <time>2024-09-15T13:16:33Z</time>
      </trkpt>
      <trkpt lat="45.80903" lon="1.88112">
        <ele>671</ele>
        <time>2024-09-15T13:16:34Z</time>
      </trkpt>
      <trkpt lat="45.80912" lon="1.88115">
        <ele>671.2</ele>
        <time>2024-09-15T13:16:37Z</time>
      </trkpt>
      <trkpt lat="45.80916" lon="1.88116">
        <ele>671.2</ele>
        <time>2024-09-15T13:16:38Z</time>
      </trkpt>
      <trkpt lat="45.8093" lon="1.88119">
        <ele>671.4</ele>
        <time>2024-09-15T13:16:42Z</time>
      </trkpt>
      <trkpt lat="45.80933" lon="1.88119">
        <ele>671.4</ele>
        <time>2024-09-15T13:16:43Z</time>
      </trkpt>
      <trkpt lat="45.80937" lon="1.88119">
        <ele>671.4</ele>
        <time>2024-09-15T13:16:44Z</time>
      </trkpt>
      <trkpt lat="45.80942" lon="1.8812">
        <ele>671.8</ele>
        <time>2024-09-15T13:16:46Z</time>
      </trkpt>
      <trkpt lat="45.80948" lon="1.88123">
        <ele>672.2</ele>
        <time>2024-09-15T13:16:48Z</time>
      </trkpt>
      <trkpt lat="45.8095" lon="1.88125">
        <ele>672.2</ele>
        <time>2024-09-15T13:16:49Z</time>
      </trkpt>
      <trkpt lat="45.80953" lon="1.88126">
        <ele>672.4</ele>
        <time>2024-09-15T13:16:50Z</time>
      </trkpt>
      <trkpt lat="45.80956" lon="1.88127">
        <ele>672.4</ele>
        <time>2024-09-15T13:16:51Z</time>
      </trkpt>
      <trkpt lat="45.80962" lon="1.8813">
        <ele>672.6</ele>
        <time>2024-09-15T13:16:53Z</time>
      </trkpt>
      <trkpt lat="45.80964" lon="1.88131">
        <ele>672.6</ele>
        <time>2024-09-15T13:16:54Z</time>
      </trkpt>
      <trkpt lat="45.80972" lon="1.88136">
        <ele>672.8</ele>
        <time>2024-09-15T13:16:57Z</time>
      </trkpt>
      <trkpt lat="45.80976" lon="1.88141">
        <ele>673.2</ele>
        <time>2024-09-15T13:16:59Z</time>
      </trkpt>
      <trkpt lat="45.80979" lon="1.88143">
        <ele>673.4</ele>
        <time>2024-09-15T13:17:00Z</time>
      </trkpt>
      <trkpt lat="45.80981" lon="1.88145">
        <ele>673.4</ele>
        <time>2024-09-15T13:17:01Z</time>
      </trkpt>
      <trkpt lat="45.80983" lon="1.88147">
        <ele>673.6</ele>
        <time>2024-09-15T13:17:02Z</time>
      </trkpt>
      <trkpt lat="45.80986" lon="1.88149">
        <ele>673.6</ele>
        <time>2024-09-15T13:17:03Z</time>
      </trkpt>
      <trkpt lat="45.80988" lon="1.88151">
        <ele>673.8</ele>
        <time>2024-09-15T13:17:04Z</time>
      </trkpt>
      <trkpt lat="45.80994" lon="1.88157">
        <ele>674</ele>
        <time>2024-09-15T13:17:07Z</time>
      </trkpt>
      <trkpt lat="45.81005" lon="1.88165">
        <ele>674.4</ele>
        <time>2024-09-15T13:17:11Z</time>
      </trkpt>
      <trkpt lat="45.81012" lon="1.8817">
        <ele>674.6</ele>
        <time>2024-09-15T13:17:14Z</time>
      </trkpt>
      <trkpt lat="45.81018" lon="1.88175">
        <ele>675.4</ele>
        <time>2024-09-15T13:17:17Z</time>
      </trkpt>
      <trkpt lat="45.8102" lon="1.88176">
        <ele>675.4</ele>
        <time>2024-09-15T13:17:18Z</time>
      </trkpt>
      <trkpt lat="45.81022" lon="1.88178">
        <ele>675.6</ele>
        <time>2024-09-15T13:17:19Z</time>
      </trkpt>
      <trkpt lat="45.81024" lon="1.8818">
        <ele>675.8</ele>
        <time>2024-09-15T13:17:20Z</time>
      </trkpt>
      <trkpt lat="45.81026" lon="1.88182">
        <ele>675.8</ele>
        <time>2024-09-15T13:17:21Z</time>
      </trkpt>
      <trkpt lat="45.81028" lon="1.88183">
        <ele>676.2</ele>
        <time>2024-09-15T13:17:22Z</time>
      </trkpt>
      <trkpt lat="45.8103" lon="1.88185">
        <ele>676.2</ele>
        <time>2024-09-15T13:17:23Z</time>
      </trkpt>
      <trkpt lat="45.81033" lon="1.88187">
        <ele>676.4</ele>
        <time>2024-09-15T13:17:24Z</time>
      </trkpt>
      <trkpt lat="45.81036" lon="1.88188">
        <ele>676.4</ele>
        <time>2024-09-15T13:17:25Z</time>
      </trkpt>
      <trkpt lat="45.81039" lon="1.88189">
        <ele>676.6</ele>
        <time>2024-09-15T13:17:26Z</time>
      </trkpt>
      <trkpt lat="45.81041" lon="1.8819">
        <ele>676.8</ele>
        <time>2024-09-15T13:17:27Z</time>
      </trkpt>
      <trkpt lat="45.81043" lon="1.88191">
        <ele>676.8</ele>
        <time>2024-09-15T13:17:28Z</time>
      </trkpt>
      <trkpt lat="45.81046" lon="1.88191">
        <ele>676.8</ele>
        <time>2024-09-15T13:17:29Z</time>
      </trkpt>
      <trkpt lat="45.81049" lon="1.88191">
        <ele>677</ele>
        <time>2024-09-15T13:17:30Z</time>
      </trkpt>
      <trkpt lat="45.81052" lon="1.88193">
        <ele>677</ele>
        <time>2024-09-15T13:17:31Z</time>
      </trkpt>
      <trkpt lat="45.81054" lon="1.88194">
        <ele>677.4</ele>
        <time>2024-09-15T13:17:32Z</time>
      </trkpt>
      <trkpt lat="45.81056" lon="1.88196">
        <ele>677.4</ele>
        <time>2024-09-15T13:17:33Z</time>
      </trkpt>
      <trkpt lat="45.81059" lon="1.88196">
        <ele>677.6</ele>
        <time>2024-09-15T13:17:34Z</time>
      </trkpt>
      <trkpt lat="45.81061" lon="1.88197">
        <ele>677.6</ele>
        <time>2024-09-15T13:17:35Z</time>
      </trkpt>
      <trkpt lat="45.81065" lon="1.88198">
        <ele>677.6</ele>
        <time>2024-09-15T13:17:36Z</time>
      </trkpt>
      <trkpt lat="45.81068" lon="1.88198">
        <ele>677.6</ele>
        <time>2024-09-15T13:17:37Z</time>
      </trkpt>
      <trkpt lat="45.81071" lon="1.88199">
        <ele>677.6</ele>
        <time>2024-09-15T13:17:38Z</time>
      </trkpt>
      <trkpt lat="45.81073" lon="1.88199">
        <ele>677.8</ele>
        <time>2024-09-15T13:17:39Z</time>
      </trkpt>
      <trkpt lat="45.81076" lon="1.882">
        <ele>677.8</ele>
        <time>2024-09-15T13:17:40Z</time>
      </trkpt>
      <trkpt lat="45.8108" lon="1.882">
        <ele>678</ele>
        <time>2024-09-15T13:17:41Z</time>
      </trkpt>
      <trkpt lat="45.81083" lon="1.88199">
        <ele>678.2</ele>
        <time>2024-09-15T13:17:42Z</time>
      </trkpt>
      <trkpt lat="45.81086" lon="1.88199">
        <ele>678.4</ele>
        <time>2024-09-15T13:17:43Z</time>
      </trkpt>
      <trkpt lat="45.81088" lon="1.88198">
        <ele>678.4</ele>
        <time>2024-09-15T13:17:44Z</time>
      </trkpt>
      <trkpt lat="45.81092" lon="1.88198">
        <ele>678.6</ele>
        <time>2024-09-15T13:17:45Z</time>
      </trkpt>
      <trkpt lat="45.81095" lon="1.88198">
        <ele>678.8</ele>
        <time>2024-09-15T13:17:46Z</time>
      </trkpt>
      <trkpt lat="45.81098" lon="1.88197">
        <ele>678.8</ele>
        <time>2024-09-15T13:17:47Z</time>
      </trkpt>
      <trkpt lat="45.81102" lon="1.88196">
        <ele>679</ele>
        <time>2024-09-15T13:17:48Z</time>
      </trkpt>
      <trkpt lat="45.81105" lon="1.88194">
        <ele>679</ele>
        <time>2024-09-15T13:17:49Z</time>
      </trkpt>
      <trkpt lat="45.81108" lon="1.88192">
        <ele>679.2</ele>
        <time>2024-09-15T13:17:50Z</time>
      </trkpt>
      <trkpt lat="45.81111" lon="1.88191">
        <ele>679.2</ele>
        <time>2024-09-15T13:17:51Z</time>
      </trkpt>
      <trkpt lat="45.81114" lon="1.88189">
        <ele>679.2</ele>
        <time>2024-09-15T13:17:52Z</time>
      </trkpt>
      <trkpt lat="45.81117" lon="1.88188">
        <ele>679.4</ele>
        <time>2024-09-15T13:17:53Z</time>
      </trkpt>
      <trkpt lat="45.8112" lon="1.88187">
        <ele>679.6</ele>
        <time>2024-09-15T13:17:54Z</time>
      </trkpt>
      <trkpt lat="45.81123" lon="1.88185">
        <ele>679.6</ele>
        <time>2024-09-15T13:17:55Z</time>
      </trkpt>
      <trkpt lat="45.81125" lon="1.88183">
        <ele>679.8</ele>
        <time>2024-09-15T13:17:56Z</time>
      </trkpt>
      <trkpt lat="45.81128" lon="1.88182">
        <ele>679.6</ele>
        <time>2024-09-15T13:17:57Z</time>
      </trkpt>
      <trkpt lat="45.81131" lon="1.88179">
        <ele>679.6</ele>
        <time>2024-09-15T13:17:58Z</time>
      </trkpt>
      <trkpt lat="45.81133" lon="1.88177">
        <ele>679.8</ele>
        <time>2024-09-15T13:17:59Z</time>
      </trkpt>
      <trkpt lat="45.81135" lon="1.88176">
        <ele>679.8</ele>
        <time>2024-09-15T13:18:00Z</time>
      </trkpt>
      <trkpt lat="45.81137" lon="1.88174">
        <ele>680</ele>
        <time>2024-09-15T13:18:01Z</time>
      </trkpt>
      <trkpt lat="45.81139" lon="1.88173">
        <ele>680</ele>
        <time>2024-09-15T13:18:02Z</time>
      </trkpt>
      <trkpt lat="45.81141" lon="1.88171">
        <ele>680</ele>
        <time>2024-09-15T13:18:03Z</time>
      </trkpt>
      <trkpt lat="45.81143" lon="1.88169">
        <ele>680.2</ele>
        <time>2024-09-15T13:18:04Z</time>
      </trkpt>
      <trkpt lat="45.81145" lon="1.88168">
        <ele>680.2</ele>
        <time>2024-09-15T13:18:05Z</time>
      </trkpt>
      <trkpt lat="45.81147" lon="1.88167">
        <ele>680.4</ele>
        <time>2024-09-15T13:18:06Z</time>
      </trkpt>
      <trkpt lat="45.81149" lon="1.88166">
        <ele>680.2</ele>
        <time>2024-09-15T13:18:07Z</time>
      </trkpt>
      <trkpt lat="45.81151" lon="1.88165">
        <ele>680.2</ele>
        <time>2024-09-15T13:18:08Z</time>
      </trkpt>
      <trkpt lat="45.81152" lon="1.88164">
        <ele>680.4</ele>
        <time>2024-09-15T13:18:09Z</time>
      </trkpt>
      <trkpt lat="45.81153" lon="1.88163">
        <ele>680.4</ele>
        <time>2024-09-15T13:18:10Z</time>
      </trkpt>
      <trkpt lat="45.81154" lon="1.88163">
        <ele>680.6</ele>
        <time>2024-09-15T13:18:11Z</time>
      </trkpt>
      <trkpt lat="45.81155" lon="1.88162">
        <ele>680.6</ele>
        <time>2024-09-15T13:18:12Z</time>
      </trkpt>
      <trkpt lat="45.81156" lon="1.8816">
        <ele>680.8</ele>
        <time>2024-09-15T13:18:14Z</time>
      </trkpt>
      <trkpt lat="45.81156" lon="1.8816">
        <ele>680.8</ele>
        <time>2024-09-15T13:18:15Z</time>
      </trkpt>
      <trkpt lat="45.81156" lon="1.88158">
        <ele>680.8</ele>
        <time>2024-09-15T13:18:16Z</time>
      </trkpt>
      <trkpt lat="45.81157" lon="1.88158">
        <ele>680.8</ele>
        <time>2024-09-15T13:18:17Z</time>
      </trkpt>
      <trkpt lat="45.81157" lon="1.88157">
        <ele>680.8</ele>
        <time>2024-09-15T13:18:18Z</time>
      </trkpt>
      <trkpt lat="45.81157" lon="1.88156">
        <ele>680.8</ele>
        <time>2024-09-15T13:18:19Z</time>
      </trkpt>
      <trkpt lat="45.81158" lon="1.88153">
        <ele>680.8</ele>
        <time>2024-09-15T13:18:21Z</time>
      </trkpt>
      <trkpt lat="45.8116" lon="1.88152">
        <ele>680.8</ele>
        <time>2024-09-15T13:18:22Z</time>
      </trkpt>
      <trkpt lat="45.81162" lon="1.8815">
        <ele>680.8</ele>
        <time>2024-09-15T13:18:23Z</time>
      </trkpt>
      <trkpt lat="45.81165" lon="1.88146">
        <ele>680.2</ele>
        <time>2024-09-15T13:18:25Z</time>
      </trkpt>
      <trkpt lat="45.81168" lon="1.88142">
        <ele>679.6</ele>
        <time>2024-09-15T13:18:28Z</time>
      </trkpt>
      <trkpt lat="45.81168" lon="1.8814">
        <ele>679.4</ele>
        <time>2024-09-15T13:18:29Z</time>
      </trkpt>
      <trkpt lat="45.81177" lon="1.88127">
        <ele>678.6</ele>
        <time>2024-09-15T13:18:34Z</time>
      </trkpt>
      <trkpt lat="45.81178" lon="1.88125">
        <ele>678.4</ele>
        <time>2024-09-15T13:18:35Z</time>
      </trkpt>
      <trkpt lat="45.81179" lon="1.88122">
        <ele>677.8</ele>
        <time>2024-09-15T13:18:36Z</time>
      </trkpt>
      <trkpt lat="45.8118" lon="1.88119">
        <ele>677.2</ele>
        <time>2024-09-15T13:18:37Z</time>
      </trkpt>
      <trkpt lat="45.81186" lon="1.88113">
        <ele>676</ele>
        <time>2024-09-15T13:18:39Z</time>
      </trkpt>
      <trkpt lat="45.81195" lon="1.88104">
        <ele>675.2</ele>
        <time>2024-09-15T13:18:41Z</time>
      </trkpt>
      <trkpt lat="45.81198" lon="1.88099">
        <ele>674.8</ele>
        <time>2024-09-15T13:18:42Z</time>
      </trkpt>
      <trkpt lat="45.81202" lon="1.88091">
        <ele>674.4</ele>
        <time>2024-09-15T13:18:44Z</time>
      </trkpt>
      <trkpt lat="45.81204" lon="1.88086">
        <ele>674.2</ele>
        <time>2024-09-15T13:18:45Z</time>
      </trkpt>
      <trkpt lat="45.81208" lon="1.88082">
        <ele>673.8</ele>
        <time>2024-09-15T13:18:46Z</time>
      </trkpt>
      <trkpt lat="45.81211" lon="1.88078">
        <ele>673.8</ele>
        <time>2024-09-15T13:18:47Z</time>
      </trkpt>
      <trkpt lat="45.81216" lon="1.88068">
        <ele>673.2</ele>
        <time>2024-09-15T13:18:49Z</time>
      </trkpt>
      <trkpt lat="45.8122" lon="1.88064">
        <ele>673</ele>
        <time>2024-09-15T13:18:50Z</time>
      </trkpt>
      <trkpt lat="45.81222" lon="1.88058">
        <ele>672.8</ele>
        <time>2024-09-15T13:18:51Z</time>
      </trkpt>
      <trkpt lat="45.81225" lon="1.88054">
        <ele>672.6</ele>
        <time>2024-09-15T13:18:52Z</time>
      </trkpt>
      <trkpt lat="45.81224" lon="1.88051">
        <ele>672.4</ele>
        <time>2024-09-15T13:18:53Z</time>
      </trkpt>
      <trkpt lat="45.81222" lon="1.88046">
        <ele>672.2</ele>
        <time>2024-09-15T13:18:54Z</time>
      </trkpt>
      <trkpt lat="45.81218" lon="1.88036">
        <ele>671.8</ele>
        <time>2024-09-15T13:18:56Z</time>
      </trkpt>
      <trkpt lat="45.81217" lon="1.88032">
        <ele>671.4</ele>
        <time>2024-09-15T13:18:57Z</time>
      </trkpt>
      <trkpt lat="45.81217" lon="1.88027">
        <ele>670.6</ele>
        <time>2024-09-15T13:18:59Z</time>
      </trkpt>
      <trkpt lat="45.81219" lon="1.88024">
        <ele>670.2</ele>
        <time>2024-09-15T13:19:00Z</time>
      </trkpt>
      <trkpt lat="45.8122" lon="1.88022">
        <ele>670</ele>
        <time>2024-09-15T13:19:01Z</time>
      </trkpt>
      <trkpt lat="45.81222" lon="1.88019">
        <ele>668.6</ele>
        <time>2024-09-15T13:19:02Z</time>
      </trkpt>
      <trkpt lat="45.81223" lon="1.88018">
        <ele>668</ele>
        <time>2024-09-15T13:19:03Z</time>
      </trkpt>
      <trkpt lat="45.81225" lon="1.88016">
        <ele>667.2</ele>
        <time>2024-09-15T13:19:04Z</time>
      </trkpt>
      <trkpt lat="45.81227" lon="1.88014">
        <ele>666.6</ele>
        <time>2024-09-15T13:19:05Z</time>
      </trkpt>
      <trkpt lat="45.81232" lon="1.88011">
        <ele>666.2</ele>
        <time>2024-09-15T13:19:06Z</time>
      </trkpt>
      <trkpt lat="45.81237" lon="1.88008">
        <ele>666</ele>
        <time>2024-09-15T13:19:07Z</time>
      </trkpt>
      <trkpt lat="45.81242" lon="1.88005">
        <ele>665.6</ele>
        <time>2024-09-15T13:19:08Z</time>
      </trkpt>
      <trkpt lat="45.81244" lon="1.88004">
        <ele>665.4</ele>
        <time>2024-09-15T13:19:09Z</time>
      </trkpt>
      <trkpt lat="45.81246" lon="1.88002">
        <ele>665.2</ele>
        <time>2024-09-15T13:19:10Z</time>
      </trkpt>
      <trkpt lat="45.81248" lon="1.88">
        <ele>665</ele>
        <time>2024-09-15T13:19:11Z</time>
      </trkpt>
      <trkpt lat="45.81248" lon="1.87997">
        <ele>664.6</ele>
        <time>2024-09-15T13:19:12Z</time>
      </trkpt>
      <trkpt lat="45.81248" lon="1.87994">
        <ele>664.6</ele>
        <time>2024-09-15T13:19:13Z</time>
      </trkpt>
      <trkpt lat="45.81247" lon="1.87992">
        <ele>664.4</ele>
        <time>2024-09-15T13:19:14Z</time>
      </trkpt>
      <trkpt lat="45.81244" lon="1.87986">
        <ele>663.8</ele>
        <time>2024-09-15T13:19:16Z</time>
      </trkpt>
      <trkpt lat="45.81243" lon="1.87985">
        <ele>663.2</ele>
        <time>2024-09-15T13:19:17Z</time>
      </trkpt>
      <trkpt lat="45.81246" lon="1.87984">
        <ele>662.8</ele>
        <time>2024-09-15T13:19:18Z</time>
      </trkpt>
      <trkpt lat="45.81248" lon="1.87983">
        <ele>662.2</ele>
        <time>2024-09-15T13:19:19Z</time>
      </trkpt>
      <trkpt lat="45.81252" lon="1.87981">
        <ele>662</ele>
        <time>2024-09-15T13:19:20Z</time>
      </trkpt>
      <trkpt lat="45.81255" lon="1.87978">
        <ele>661.6</ele>
        <time>2024-09-15T13:19:21Z</time>
      </trkpt>
      <trkpt lat="45.81259" lon="1.87974">
        <ele>661.2</ele>
        <time>2024-09-15T13:19:24Z</time>
      </trkpt>
      <trkpt lat="45.8126" lon="1.87972">
        <ele>661</ele>
        <time>2024-09-15T13:19:25Z</time>
      </trkpt>
      <trkpt lat="45.81262" lon="1.87969">
        <ele>661</ele>
        <time>2024-09-15T13:19:27Z</time>
      </trkpt>
      <trkpt lat="45.81269" lon="1.87955">
        <ele>660.4</ele>
        <time>2024-09-15T13:19:32Z</time>
      </trkpt>
      <trkpt lat="45.8127" lon="1.87953">
        <ele>660.2</ele>
        <time>2024-09-15T13:19:33Z</time>
      </trkpt>
      <trkpt lat="45.81272" lon="1.87951">
        <ele>660</ele>
        <time>2024-09-15T13:19:34Z</time>
      </trkpt>
      <trkpt lat="45.81277" lon="1.87947">
        <ele>659</ele>
        <time>2024-09-15T13:19:36Z</time>
      </trkpt>
      <trkpt lat="45.81281" lon="1.87943">
        <ele>658.6</ele>
        <time>2024-09-15T13:19:38Z</time>
      </trkpt>
      <trkpt lat="45.81283" lon="1.87942">
        <ele>658.6</ele>
        <time>2024-09-15T13:19:39Z</time>
      </trkpt>
      <trkpt lat="45.81284" lon="1.87941">
        <ele>658.4</ele>
        <time>2024-09-15T13:19:40Z</time>
      </trkpt>
      <trkpt lat="45.81285" lon="1.87942">
        <ele>658.4</ele>
        <time>2024-09-15T13:19:41Z</time>
      </trkpt>
      <trkpt lat="45.81286" lon="1.87942">
        <ele>658.4</ele>
        <time>2024-09-15T13:19:42Z</time>
      </trkpt>
      <trkpt lat="45.81288" lon="1.87943">
        <ele>658.6</ele>
        <time>2024-09-15T13:19:43Z</time>
      </trkpt>
      <trkpt lat="45.81289" lon="1.87944">
        <ele>658.6</ele>
        <time>2024-09-15T13:19:44Z</time>
      </trkpt>
      <trkpt lat="45.8129" lon="1.87945">
        <ele>658.8</ele>
        <time>2024-09-15T13:19:45Z</time>
      </trkpt>
      <trkpt lat="45.81292" lon="1.87946">
        <ele>659</ele>
        <time>2024-09-15T13:19:46Z</time>
      </trkpt>
      <trkpt lat="45.81293" lon="1.87945">
        <ele>659.4</ele>
        <time>2024-09-15T13:19:47Z</time>
      </trkpt>
      <trkpt lat="45.81295" lon="1.87945">
        <ele>659.8</ele>
        <time>2024-09-15T13:19:48Z</time>
      </trkpt>
      <trkpt lat="45.81297" lon="1.87943">
        <ele>660.2</ele>
        <time>2024-09-15T13:19:49Z</time>
      </trkpt>
      <trkpt lat="45.81297" lon="1.87943">
        <ele>660.2</ele>
        <time>2024-09-15T13:19:50Z</time>
      </trkpt>
      <trkpt lat="45.813" lon="1.87942">
        <ele>660.4</ele>
        <time>2024-09-15T13:19:51Z</time>
      </trkpt>
      <trkpt lat="45.81304" lon="1.87941">
        <ele>660.6</ele>
        <time>2024-09-15T13:19:52Z</time>
      </trkpt>
      <trkpt lat="45.81309" lon="1.8794">
        <ele>661</ele>
        <time>2024-09-15T13:19:54Z</time>
      </trkpt>
      <trkpt lat="45.81311" lon="1.8794">
        <ele>661.2</ele>
        <time>2024-09-15T13:19:55Z</time>
      </trkpt>
      <trkpt lat="45.81314" lon="1.8794">
        <ele>661.2</ele>
        <time>2024-09-15T13:19:56Z</time>
      </trkpt>
      <trkpt lat="45.81315" lon="1.8794">
        <ele>661.4</ele>
        <time>2024-09-15T13:19:57Z</time>
      </trkpt>
      <trkpt lat="45.81319" lon="1.8794">
        <ele>661.6</ele>
        <time>2024-09-15T13:19:58Z</time>
      </trkpt>
      <trkpt lat="45.81321" lon="1.87939">
        <ele>661.6</ele>
        <time>2024-09-15T13:19:59Z</time>
      </trkpt>
      <trkpt lat="45.81321" lon="1.87939">
        <ele>661.8</ele>
        <time>2024-09-15T13:20:00Z</time>
      </trkpt>
      <trkpt lat="45.81324" lon="1.87938">
        <ele>662</ele>
        <time>2024-09-15T13:20:02Z</time>
      </trkpt>
      <trkpt lat="45.81327" lon="1.87937">
        <ele>662</ele>
        <time>2024-09-15T13:20:03Z</time>
      </trkpt>
      <trkpt lat="45.81331" lon="1.87936">
        <ele>662</ele>
        <time>2024-09-15T13:20:04Z</time>
      </trkpt>
      <trkpt lat="45.81334" lon="1.87936">
        <ele>662</ele>
        <time>2024-09-15T13:20:05Z</time>
      </trkpt>
      <trkpt lat="45.81337" lon="1.87935">
        <ele>662</ele>
        <time>2024-09-15T13:20:06Z</time>
      </trkpt>
      <trkpt lat="45.81338" lon="1.87936">
        <ele>662</ele>
        <time>2024-09-15T13:20:07Z</time>
      </trkpt>
      <trkpt lat="45.81347" lon="1.87935">
        <ele>662</ele>
        <time>2024-09-15T13:20:09Z</time>
      </trkpt>
      <trkpt lat="45.81354" lon="1.87933">
        <ele>662</ele>
        <time>2024-09-15T13:20:11Z</time>
      </trkpt>
      <trkpt lat="45.8137" lon="1.87932">
        <ele>662</ele>
        <time>2024-09-15T13:20:15Z</time>
      </trkpt>
      <trkpt lat="45.81378" lon="1.87927">
        <ele>662</ele>
        <time>2024-09-15T13:20:17Z</time>
      </trkpt>
      <trkpt lat="45.8138" lon="1.87925">
        <ele>662</ele>
        <time>2024-09-15T13:20:18Z</time>
      </trkpt>
      <trkpt lat="45.81383" lon="1.87923">
        <ele>662</ele>
        <time>2024-09-15T13:20:19Z</time>
      </trkpt>
      <trkpt lat="45.81386" lon="1.8792">
        <ele>662</ele>
        <time>2024-09-15T13:20:20Z</time>
      </trkpt>
      <trkpt lat="45.81396" lon="1.87899">
        <ele>662</ele>
        <time>2024-09-15T13:20:25Z</time>
      </trkpt>
      <trkpt lat="45.81397" lon="1.87895">
        <ele>662</ele>
        <time>2024-09-15T13:20:26Z</time>
      </trkpt>
      <trkpt lat="45.81401" lon="1.87886">
        <ele>662</ele>
        <time>2024-09-15T13:20:29Z</time>
      </trkpt>
      <trkpt lat="45.81403" lon="1.87884">
        <ele>662</ele>
        <time>2024-09-15T13:20:30Z</time>
      </trkpt>
      <trkpt lat="45.81405" lon="1.87881">
        <ele>662.2</ele>
        <time>2024-09-15T13:20:31Z</time>
      </trkpt>
      <trkpt lat="45.81406" lon="1.87878">
        <ele>662.2</ele>
        <time>2024-09-15T13:20:32Z</time>
      </trkpt>
      <trkpt lat="45.81407" lon="1.87876">
        <ele>662.4</ele>
        <time>2024-09-15T13:20:33Z</time>
      </trkpt>
      <trkpt lat="45.81407" lon="1.87872">
        <ele>662.4</ele>
        <time>2024-09-15T13:20:34Z</time>
      </trkpt>
      <trkpt lat="45.81408" lon="1.87869">
        <ele>662.6</ele>
        <time>2024-09-15T13:20:35Z</time>
      </trkpt>
      <trkpt lat="45.81408" lon="1.87866">
        <ele>662.6</ele>
        <time>2024-09-15T13:20:36Z</time>
      </trkpt>
      <trkpt lat="45.81408" lon="1.87863">
        <ele>662.8</ele>
        <time>2024-09-15T13:20:37Z</time>
      </trkpt>
      <trkpt lat="45.81408" lon="1.87861">
        <ele>662.8</ele>
        <time>2024-09-15T13:20:38Z</time>
      </trkpt>
      <trkpt lat="45.81409" lon="1.87859">
        <ele>663</ele>
        <time>2024-09-15T13:20:39Z</time>
      </trkpt>
      <trkpt lat="45.81409" lon="1.87857">
        <ele>662.8</ele>
        <time>2024-09-15T13:20:40Z</time>
      </trkpt>
      <trkpt lat="45.8141" lon="1.87856">
        <ele>663.2</ele>
        <time>2024-09-15T13:20:41Z</time>
      </trkpt>
      <trkpt lat="45.81412" lon="1.87855">
        <ele>663.2</ele>
        <time>2024-09-15T13:20:42Z</time>
      </trkpt>
      <trkpt lat="45.81413" lon="1.87855">
        <ele>663.4</ele>
        <time>2024-09-15T13:20:43Z</time>
      </trkpt>
      <trkpt lat="45.81416" lon="1.87855">
        <ele>663.4</ele>
        <time>2024-09-15T13:20:45Z</time>
      </trkpt>
      <trkpt lat="45.81417" lon="1.87855">
        <ele>663.6</ele>
        <time>2024-09-15T13:20:46Z</time>
      </trkpt>
      <trkpt lat="45.81417" lon="1.87855">
        <ele>663.6</ele>
        <time>2024-09-15T13:20:47Z</time>
      </trkpt>
      <trkpt lat="45.81417" lon="1.87856">
        <ele>664</ele>
        <time>2024-09-15T13:20:48Z</time>
      </trkpt>
      <trkpt lat="45.81418" lon="1.87857">
        <ele>664.2</ele>
        <time>2024-09-15T13:20:49Z</time>
      </trkpt>
      <trkpt lat="45.81419" lon="1.87858">
        <ele>664.6</ele>
        <time>2024-09-15T13:20:50Z</time>
      </trkpt>
      <trkpt lat="45.81422" lon="1.87859">
        <ele>665.2</ele>
        <time>2024-09-15T13:20:52Z</time>
      </trkpt>
      <trkpt lat="45.81423" lon="1.8786">
        <ele>665.2</ele>
        <time>2024-09-15T13:20:53Z</time>
      </trkpt>
      <trkpt lat="45.81424" lon="1.8786">
        <ele>665.6</ele>
        <time>2024-09-15T13:20:54Z</time>
      </trkpt>
      <trkpt lat="45.81425" lon="1.87861">
        <ele>665.8</ele>
        <time>2024-09-15T13:20:55Z</time>
      </trkpt>
      <trkpt lat="45.81427" lon="1.87861">
        <ele>665.8</ele>
        <time>2024-09-15T13:20:56Z</time>
      </trkpt>
      <trkpt lat="45.81428" lon="1.87863">
        <ele>666.2</ele>
        <time>2024-09-15T13:20:57Z</time>
      </trkpt>
      <trkpt lat="45.81429" lon="1.87864">
        <ele>666.4</ele>
        <time>2024-09-15T13:20:58Z</time>
      </trkpt>
      <trkpt lat="45.8143" lon="1.87865">
        <ele>666.6</ele>
        <time>2024-09-15T13:20:59Z</time>
      </trkpt>
      <trkpt lat="45.81431" lon="1.87866">
        <ele>666.6</ele>
        <time>2024-09-15T13:21:00Z</time>
      </trkpt>
      <trkpt lat="45.81432" lon="1.87867">
        <ele>666.8</ele>
        <time>2024-09-15T13:21:01Z</time>
      </trkpt>
      <trkpt lat="45.81434" lon="1.87868">
        <ele>667</ele>
        <time>2024-09-15T13:21:02Z</time>
      </trkpt>
      <trkpt lat="45.81436" lon="1.8787">
        <ele>667.2</ele>
        <time>2024-09-15T13:21:03Z</time>
      </trkpt>
      <trkpt lat="45.81437" lon="1.8787">
        <ele>667.2</ele>
        <time>2024-09-15T13:21:04Z</time>
      </trkpt>
      <trkpt lat="45.81439" lon="1.87871">
        <ele>667.6</ele>
        <time>2024-09-15T13:21:05Z</time>
      </trkpt>
      <trkpt lat="45.8144" lon="1.8787">
        <ele>667.8</ele>
        <time>2024-09-15T13:21:06Z</time>
      </trkpt>
      <trkpt lat="45.81442" lon="1.8787">
        <ele>668</ele>
        <time>2024-09-15T13:21:07Z</time>
      </trkpt>
      <trkpt lat="45.81443" lon="1.87868">
        <ele>668</ele>
        <time>2024-09-15T13:21:08Z</time>
      </trkpt>
      <trkpt lat="45.81443" lon="1.87867">
        <ele>668.2</ele>
        <time>2024-09-15T13:21:09Z</time>
      </trkpt>
      <trkpt lat="45.81443" lon="1.87865">
        <ele>668.2</ele>
        <time>2024-09-15T13:21:10Z</time>
      </trkpt>
      <trkpt lat="45.81443" lon="1.87864">
        <ele>668.2</ele>
        <time>2024-09-15T13:21:11Z</time>
      </trkpt>
      <trkpt lat="45.81442" lon="1.87862">
        <ele>668.4</ele>
        <time>2024-09-15T13:21:12Z</time>
      </trkpt>
      <trkpt lat="45.81442" lon="1.8786">
        <ele>668.6</ele>
        <time>2024-09-15T13:21:13Z</time>
      </trkpt>
      <trkpt lat="45.81442" lon="1.87858">
        <ele>668.6</ele>
        <time>2024-09-15T13:21:14Z</time>
      </trkpt>
      <trkpt lat="45.81442" lon="1.87857">
        <ele>668.8</ele>
        <time>2024-09-15T13:21:15Z</time>
      </trkpt>
      <trkpt lat="45.81443" lon="1.87855">
        <ele>669.2</ele>
        <time>2024-09-15T13:21:16Z</time>
      </trkpt>
      <trkpt lat="45.81445" lon="1.87854">
        <ele>669.4</ele>
        <time>2024-09-15T13:21:17Z</time>
      </trkpt>
      <trkpt lat="45.81446" lon="1.87853">
        <ele>669.6</ele>
        <time>2024-09-15T13:21:18Z</time>
      </trkpt>
      <trkpt lat="45.81446" lon="1.87853">
        <ele>669.8</ele>
        <time>2024-09-15T13:21:19Z</time>
      </trkpt>
      <trkpt lat="45.81447" lon="1.87853">
        <ele>670.2</ele>
        <time>2024-09-15T13:21:20Z</time>
      </trkpt>
      <trkpt lat="45.81448" lon="1.87853">
        <ele>670.4</ele>
        <time>2024-09-15T13:21:21Z</time>
      </trkpt>
      <trkpt lat="45.81448" lon="1.87853">
        <ele>670.6</ele>
        <time>2024-09-15T13:21:22Z</time>
      </trkpt>
      <trkpt lat="45.81449" lon="1.87853">
        <ele>671</ele>
        <time>2024-09-15T13:21:23Z</time>
      </trkpt>
      <trkpt lat="45.81451" lon="1.87854">
        <ele>671.2</ele>
        <time>2024-09-15T13:21:24Z</time>
      </trkpt>
      <trkpt lat="45.81452" lon="1.87855">
        <ele>671.6</ele>
        <time>2024-09-15T13:21:25Z</time>
      </trkpt>
      <trkpt lat="45.81452" lon="1.87855">
        <ele>671.8</ele>
        <time>2024-09-15T13:21:26Z</time>
      </trkpt>
      <trkpt lat="45.81454" lon="1.87855">
        <ele>672.2</ele>
        <time>2024-09-15T13:21:27Z</time>
      </trkpt>
      <trkpt lat="45.81455" lon="1.87856">
        <ele>672.4</ele>
        <time>2024-09-15T13:21:28Z</time>
      </trkpt>
      <trkpt lat="45.81456" lon="1.87856">
        <ele>672.8</ele>
        <time>2024-09-15T13:21:29Z</time>
      </trkpt>
      <trkpt lat="45.81458" lon="1.87857">
        <ele>673</ele>
        <time>2024-09-15T13:21:30Z</time>
      </trkpt>
      <trkpt lat="45.81459" lon="1.87858">
        <ele>673.2</ele>
        <time>2024-09-15T13:21:31Z</time>
      </trkpt>
      <trkpt lat="45.8146" lon="1.87858">
        <ele>673.2</ele>
        <time>2024-09-15T13:21:32Z</time>
      </trkpt>
      <trkpt lat="45.8146" lon="1.87858">
        <ele>673.4</ele>
        <time>2024-09-15T13:21:33Z</time>
      </trkpt>
      <trkpt lat="45.8146" lon="1.87858">
        <ele>673.6</ele>
        <time>2024-09-15T13:21:34Z</time>
      </trkpt>
      <trkpt lat="45.8146" lon="1.87858">
        <ele>673.6</ele>
        <time>2024-09-15T13:21:35Z</time>
      </trkpt>
      <trkpt lat="45.81462" lon="1.87858">
        <ele>674.4</ele>
        <time>2024-09-15T13:21:41Z</time>
      </trkpt>
      <trkpt lat="45.81462" lon="1.87858">
        <ele>674.6</ele>
        <time>2024-09-15T13:21:42Z</time>
      </trkpt>
      <trkpt lat="45.81463" lon="1.87858">
        <ele>674.8</ele>
        <time>2024-09-15T13:21:44Z</time>
      </trkpt>
      <trkpt lat="45.81464" lon="1.87858">
        <ele>675.2</ele>
        <time>2024-09-15T13:21:50Z</time>
      </trkpt>
      <trkpt lat="45.81465" lon="1.87858">
        <ele>675.4</ele>
        <time>2024-09-15T13:21:51Z</time>
      </trkpt>
      <trkpt lat="45.81466" lon="1.87859">
        <ele>675.6</ele>
        <time>2024-09-15T13:21:52Z</time>
      </trkpt>
      <trkpt lat="45.81468" lon="1.87858">
        <ele>675.8</ele>
        <time>2024-09-15T13:21:53Z</time>
      </trkpt>
      <trkpt lat="45.81469" lon="1.87858">
        <ele>676</ele>
        <time>2024-09-15T13:21:54Z</time>
      </trkpt>
      <trkpt lat="45.8147" lon="1.87858">
        <ele>676.4</ele>
        <time>2024-09-15T13:21:55Z</time>
      </trkpt>
      <trkpt lat="45.8147" lon="1.87858">
        <ele>676.6</ele>
        <time>2024-09-15T13:21:56Z</time>
      </trkpt>
      <trkpt lat="45.81471" lon="1.87858">
        <ele>676.8</ele>
        <time>2024-09-15T13:21:57Z</time>
      </trkpt>
      <trkpt lat="45.81473" lon="1.87862">
        <ele>677.4</ele>
        <time>2024-09-15T13:22:05Z</time>
      </trkpt>
      <trkpt lat="45.81473" lon="1.87864">
        <ele>677.4</ele>
        <time>2024-09-15T13:22:06Z</time>
      </trkpt>
      <trkpt lat="45.81474" lon="1.87866">
        <ele>677.4</ele>
        <time>2024-09-15T13:22:07Z</time>
      </trkpt>
      <trkpt lat="45.81475" lon="1.87868">
        <ele>677.4</ele>
        <time>2024-09-15T13:22:08Z</time>
      </trkpt>
      <trkpt lat="45.81477" lon="1.87871">
        <ele>677.4</ele>
        <time>2024-09-15T13:22:09Z</time>
      </trkpt>
      <trkpt lat="45.81478" lon="1.87874">
        <ele>677.4</ele>
        <time>2024-09-15T13:22:10Z</time>
      </trkpt>
      <trkpt lat="45.81481" lon="1.87877">
        <ele>677.4</ele>
        <time>2024-09-15T13:22:11Z</time>
      </trkpt>
      <trkpt lat="45.81484" lon="1.8788">
        <ele>677.4</ele>
        <time>2024-09-15T13:22:12Z</time>
      </trkpt>
      <trkpt lat="45.81487" lon="1.87882">
        <ele>677.4</ele>
        <time>2024-09-15T13:22:13Z</time>
      </trkpt>
      <trkpt lat="45.81488" lon="1.87883">
        <ele>677.4</ele>
        <time>2024-09-15T13:22:14Z</time>
      </trkpt>
      <trkpt lat="45.8149" lon="1.87885">
        <ele>677.4</ele>
        <time>2024-09-15T13:22:15Z</time>
      </trkpt>
      <trkpt lat="45.81492" lon="1.87885">
        <ele>677.4</ele>
        <time>2024-09-15T13:22:16Z</time>
      </trkpt>
      <trkpt lat="45.81493" lon="1.87886">
        <ele>677.4</ele>
        <time>2024-09-15T13:22:17Z</time>
      </trkpt>
      <trkpt lat="45.81495" lon="1.87886">
        <ele>677.4</ele>
        <time>2024-09-15T13:22:18Z</time>
      </trkpt>
      <trkpt lat="45.81495" lon="1.87886">
        <ele>677.4</ele>
        <time>2024-09-15T13:22:19Z</time>
      </trkpt>
      <trkpt lat="45.81495" lon="1.87886">
        <ele>677.4</ele>
        <time>2024-09-15T13:22:20Z</time>
      </trkpt>
      <trkpt lat="45.81495" lon="1.87886">
        <ele>677.4</ele>
        <time>2024-09-15T13:22:21Z</time>
      </trkpt>
      <trkpt lat="45.81495" lon="1.87885">
        <ele>677.4</ele>
        <time>2024-09-15T13:22:22Z</time>
      </trkpt>
      <trkpt lat="45.81495" lon="1.87885">
        <ele>677.6</ele>
        <time>2024-09-15T13:22:24Z</time>
      </trkpt>
      <trkpt lat="45.81495" lon="1.87885">
        <ele>677.6</ele>
        <time>2024-09-15T13:22:25Z</time>
      </trkpt>
      <trkpt lat="45.81495" lon="1.87885">
        <ele>677.8</ele>
        <time>2024-09-15T13:22:28Z</time>
      </trkpt>
      <trkpt lat="45.81496" lon="1.87884">
        <ele>678</ele>
        <time>2024-09-15T13:22:31Z</time>
      </trkpt>
      <trkpt lat="45.81496" lon="1.87884">
        <ele>678.2</ele>
        <time>2024-09-15T13:22:33Z</time>
      </trkpt>
      <trkpt lat="45.81496" lon="1.87882">
        <ele>678.8</ele>
        <time>2024-09-15T13:22:36Z</time>
      </trkpt>
      <trkpt lat="45.81496" lon="1.87881">
        <ele>678.8</ele>
        <time>2024-09-15T13:22:37Z</time>
      </trkpt>
      <trkpt lat="45.81496" lon="1.87879">
        <ele>679</ele>
        <time>2024-09-15T13:22:38Z</time>
      </trkpt>
      <trkpt lat="45.81495" lon="1.87878">
        <ele>679.4</ele>
        <time>2024-09-15T13:22:39Z</time>
      </trkpt>
      <trkpt lat="45.81494" lon="1.87877">
        <ele>679.6</ele>
        <time>2024-09-15T13:22:40Z</time>
      </trkpt>
      <trkpt lat="45.81494" lon="1.87875">
        <ele>680</ele>
        <time>2024-09-15T13:22:41Z</time>
      </trkpt>
      <trkpt lat="45.81493" lon="1.87873">
        <ele>680.2</ele>
        <time>2024-09-15T13:22:43Z</time>
      </trkpt>
      <trkpt lat="45.81493" lon="1.87871">
        <ele>680.2</ele>
        <time>2024-09-15T13:22:45Z</time>
      </trkpt>
      <trkpt lat="45.81494" lon="1.8787">
        <ele>680.2</ele>
        <time>2024-09-15T13:22:46Z</time>
      </trkpt>
      <trkpt lat="45.81494" lon="1.87869">
        <ele>680.4</ele>
        <time>2024-09-15T13:22:48Z</time>
      </trkpt>
      <trkpt lat="45.81494" lon="1.87868">
        <ele>680.4</ele>
        <time>2024-09-15T13:22:49Z</time>
      </trkpt>
      <trkpt lat="45.81493" lon="1.87866">
        <ele>680.4</ele>
        <time>2024-09-15T13:22:50Z</time>
      </trkpt>
      <trkpt lat="45.81492" lon="1.87865">
        <ele>680.4</ele>
        <time>2024-09-15T13:22:51Z</time>
      </trkpt>
      <trkpt lat="45.81491" lon="1.87863">
        <ele>680.6</ele>
        <time>2024-09-15T13:22:52Z</time>
      </trkpt>
      <trkpt lat="45.8149" lon="1.87861">
        <ele>680.6</ele>
        <time>2024-09-15T13:22:53Z</time>
      </trkpt>
      <trkpt lat="45.8149" lon="1.87858">
        <ele>680.8</ele>
        <time>2024-09-15T13:22:54Z</time>
      </trkpt>
      <trkpt lat="45.81489" lon="1.87856">
        <ele>680.8</ele>
        <time>2024-09-15T13:22:55Z</time>
      </trkpt>
      <trkpt lat="45.81488" lon="1.87854">
        <ele>681.2</ele>
        <time>2024-09-15T13:22:56Z</time>
      </trkpt>
      <trkpt lat="45.81488" lon="1.87852">
        <ele>681.4</ele>
        <time>2024-09-15T13:22:57Z</time>
      </trkpt>
      <trkpt lat="45.81487" lon="1.8785">
        <ele>681.4</ele>
        <time>2024-09-15T13:22:58Z</time>
      </trkpt>
      <trkpt lat="45.81487" lon="1.87848">
        <ele>681.6</ele>
        <time>2024-09-15T13:22:59Z</time>
      </trkpt>
      <trkpt lat="45.81486" lon="1.87846">
        <ele>681.8</ele>
        <time>2024-09-15T13:23:00Z</time>
      </trkpt>
      <trkpt lat="45.81485" lon="1.87844">
        <ele>682</ele>
        <time>2024-09-15T13:23:01Z</time>
      </trkpt>
      <trkpt lat="45.81485" lon="1.87843">
        <ele>682</ele>
        <time>2024-09-15T13:23:02Z</time>
      </trkpt>
      <trkpt lat="45.81485" lon="1.87841">
        <ele>682</ele>
        <time>2024-09-15T13:23:03Z</time>
      </trkpt>
      <trkpt lat="45.81484" lon="1.87839">
        <ele>682.4</ele>
        <time>2024-09-15T13:23:04Z</time>
      </trkpt>
      <trkpt lat="45.81484" lon="1.87838">
        <ele>682.6</ele>
        <time>2024-09-15T13:23:05Z</time>
      </trkpt>
      <trkpt lat="45.81484" lon="1.87836">
        <ele>682.8</ele>
        <time>2024-09-15T13:23:06Z</time>
      </trkpt>
      <trkpt lat="45.81484" lon="1.87836">
        <ele>683</ele>
        <time>2024-09-15T13:23:07Z</time>
      </trkpt>
      <trkpt lat="45.81484" lon="1.87836">
        <ele>683.2</ele>
        <time>2024-09-15T13:23:08Z</time>
      </trkpt>
      <trkpt lat="45.81485" lon="1.87835">
        <ele>683.4</ele>
        <time>2024-09-15T13:23:09Z</time>
      </trkpt>
      <trkpt lat="45.81485" lon="1.87835">
        <ele>683.6</ele>
        <time>2024-09-15T13:23:10Z</time>
      </trkpt>
      <trkpt lat="45.81486" lon="1.87834">
        <ele>683.8</ele>
        <time>2024-09-15T13:23:11Z</time>
      </trkpt>
      <trkpt lat="45.81486" lon="1.87833">
        <ele>683.8</ele>
        <time>2024-09-15T13:23:12Z</time>
      </trkpt>
      <trkpt lat="45.81486" lon="1.87833">
        <ele>684</ele>
        <time>2024-09-15T13:23:13Z</time>
      </trkpt>
      <trkpt lat="45.81487" lon="1.87832">
        <ele>684</ele>
        <time>2024-09-15T13:23:14Z</time>
      </trkpt>
      <trkpt lat="45.81488" lon="1.87831">
        <ele>684.2</ele>
        <time>2024-09-15T13:23:15Z</time>
      </trkpt>
      <trkpt lat="45.81489" lon="1.8783">
        <ele>684.4</ele>
        <time>2024-09-15T13:23:16Z</time>
      </trkpt>
      <trkpt lat="45.81489" lon="1.8783">
        <ele>684.4</ele>
        <time>2024-09-15T13:23:17Z</time>
      </trkpt>
      <trkpt lat="45.81489" lon="1.87829">
        <ele>684.6</ele>
        <time>2024-09-15T13:23:18Z</time>
      </trkpt>
      <trkpt lat="45.81489" lon="1.87828">
        <ele>684.8</ele>
        <time>2024-09-15T13:23:19Z</time>
      </trkpt>
      <trkpt lat="45.81489" lon="1.87827">
        <ele>685</ele>
        <time>2024-09-15T13:23:20Z</time>
      </trkpt>
      <trkpt lat="45.81489" lon="1.87826">
        <ele>685</ele>
        <time>2024-09-15T13:23:21Z</time>
      </trkpt>
      <trkpt lat="45.81488" lon="1.87825">
        <ele>685.2</ele>
        <time>2024-09-15T13:23:22Z</time>
      </trkpt>
      <trkpt lat="45.81486" lon="1.87824">
        <ele>685.2</ele>
        <time>2024-09-15T13:23:23Z</time>
      </trkpt>
      <trkpt lat="45.81485" lon="1.87824">
        <ele>685.2</ele>
        <time>2024-09-15T13:23:24Z</time>
      </trkpt>
      <trkpt lat="45.81482" lon="1.87824">
        <ele>685.2</ele>
        <time>2024-09-15T13:23:25Z</time>
      </trkpt>
      <trkpt lat="45.81483" lon="1.87824">
        <ele>685.2</ele>
        <time>2024-09-15T13:23:26Z</time>
      </trkpt>
      <trkpt lat="45.81483" lon="1.87824">
        <ele>685.4</ele>
        <time>2024-09-15T13:23:27Z</time>
      </trkpt>
      <trkpt lat="45.81483" lon="1.87824">
        <ele>685.4</ele>
        <time>2024-09-15T13:23:28Z</time>
      </trkpt>
      <trkpt lat="45.81483" lon="1.87824">
        <ele>685.4</ele>
        <time>2024-09-15T13:23:30Z</time>
      </trkpt>
      <trkpt lat="45.81483" lon="1.87824">
        <ele>685.4</ele>
        <time>2024-09-15T13:25:01Z</time>
      </trkpt>
      <trkpt lat="45.81485" lon="1.87821">
        <ele>685.4</ele>
        <time>2024-09-15T13:25:03Z</time>
      </trkpt>
      <trkpt lat="45.81486" lon="1.8782">
        <ele>685.4</ele>
        <time>2024-09-15T13:25:04Z</time>
      </trkpt>
      <trkpt lat="45.81486" lon="1.8782">
        <ele>685.4</ele>
        <time>2024-09-15T13:25:05Z</time>
      </trkpt>
      <trkpt lat="45.81486" lon="1.87821">
        <ele>685.8</ele>
        <time>2024-09-15T13:25:52Z</time>
      </trkpt>
      <trkpt lat="45.81486" lon="1.87821">
        <ele>685.6</ele>
        <time>2024-09-15T13:25:54Z</time>
      </trkpt>
      <trkpt lat="45.81484" lon="1.87816">
        <ele>685.4</ele>
        <time>2024-09-15T13:27:37Z</time>
      </trkpt>
      <trkpt lat="45.81481" lon="1.87811">
        <ele>685.4</ele>
        <time>2024-09-15T13:27:41Z</time>
      </trkpt>
      <trkpt lat="45.81477" lon="1.87806">
        <ele>685.2</ele>
        <time>2024-09-15T13:27:43Z</time>
      </trkpt>
      <trkpt lat="45.81477" lon="1.87806">
        <ele>685.2</ele>
        <time>2024-09-15T13:27:44Z</time>
      </trkpt>
      <trkpt lat="45.81469" lon="1.87783">
        <ele>685.2</ele>
        <time>2024-09-15T13:27:52Z</time>
      </trkpt>
      <trkpt lat="45.81458" lon="1.87768">
        <ele>685</ele>
        <time>2024-09-15T13:27:57Z</time>
      </trkpt>
      <trkpt lat="45.81455" lon="1.87761">
        <ele>685</ele>
        <time>2024-09-15T13:27:59Z</time>
      </trkpt>
      <trkpt lat="45.81455" lon="1.87758">
        <ele>685</ele>
        <time>2024-09-15T13:28:00Z</time>
      </trkpt>
      <trkpt lat="45.81455" lon="1.87755">
        <ele>685</ele>
        <time>2024-09-15T13:28:01Z</time>
      </trkpt>
      <trkpt lat="45.81453" lon="1.87751">
        <ele>685</ele>
        <time>2024-09-15T13:28:02Z</time>
      </trkpt>
      <trkpt lat="45.81451" lon="1.87747">
        <ele>685</ele>
        <time>2024-09-15T13:28:03Z</time>
      </trkpt>
      <trkpt lat="45.81445" lon="1.87736">
        <ele>685</ele>
        <time>2024-09-15T13:28:06Z</time>
      </trkpt>
      <trkpt lat="45.81443" lon="1.87732">
        <ele>685</ele>
        <time>2024-09-15T13:28:07Z</time>
      </trkpt>
      <trkpt lat="45.8144" lon="1.87728">
        <ele>685</ele>
        <time>2024-09-15T13:28:08Z</time>
      </trkpt>
      <trkpt lat="45.81438" lon="1.87724">
        <ele>684.8</ele>
        <time>2024-09-15T13:28:09Z</time>
      </trkpt>
      <trkpt lat="45.81435" lon="1.8772">
        <ele>684.6</ele>
        <time>2024-09-15T13:28:10Z</time>
      </trkpt>
      <trkpt lat="45.81423" lon="1.87701">
        <ele>684.4</ele>
        <time>2024-09-15T13:28:14Z</time>
      </trkpt>
      <trkpt lat="45.8142" lon="1.87698">
        <ele>684.4</ele>
        <time>2024-09-15T13:28:15Z</time>
      </trkpt>
      <trkpt lat="45.81412" lon="1.87688">
        <ele>683.8</ele>
        <time>2024-09-15T13:28:18Z</time>
      </trkpt>
      <trkpt lat="45.8141" lon="1.87685">
        <ele>683.6</ele>
        <time>2024-09-15T13:28:19Z</time>
      </trkpt>
      <trkpt lat="45.81409" lon="1.87682">
        <ele>683.6</ele>
        <time>2024-09-15T13:28:20Z</time>
      </trkpt>
      <trkpt lat="45.81407" lon="1.87679">
        <ele>683.4</ele>
        <time>2024-09-15T13:28:21Z</time>
      </trkpt>
      <trkpt lat="45.81402" lon="1.87675">
        <ele>683.2</ele>
        <time>2024-09-15T13:28:22Z</time>
      </trkpt>
      <trkpt lat="45.81398" lon="1.87671">
        <ele>683</ele>
        <time>2024-09-15T13:28:23Z</time>
      </trkpt>
      <trkpt lat="45.81395" lon="1.87667">
        <ele>682.8</ele>
        <time>2024-09-15T13:28:24Z</time>
      </trkpt>
      <trkpt lat="45.81391" lon="1.87664">
        <ele>682.4</ele>
        <time>2024-09-15T13:28:25Z</time>
      </trkpt>
      <trkpt lat="45.81387" lon="1.87661">
        <ele>682.2</ele>
        <time>2024-09-15T13:28:26Z</time>
      </trkpt>
      <trkpt lat="45.81385" lon="1.87658">
        <ele>682</ele>
        <time>2024-09-15T13:28:27Z</time>
      </trkpt>
      <trkpt lat="45.81384" lon="1.87656">
        <ele>681.8</ele>
        <time>2024-09-15T13:28:28Z</time>
      </trkpt>
      <trkpt lat="45.81383" lon="1.87653">
        <ele>681.6</ele>
        <time>2024-09-15T13:28:29Z</time>
      </trkpt>
      <trkpt lat="45.81382" lon="1.87651">
        <ele>681.4</ele>
        <time>2024-09-15T13:28:30Z</time>
      </trkpt>
      <trkpt lat="45.8138" lon="1.87649">
        <ele>681.4</ele>
        <time>2024-09-15T13:28:31Z</time>
      </trkpt>
      <trkpt lat="45.81376" lon="1.87646">
        <ele>681.4</ele>
        <time>2024-09-15T13:28:34Z</time>
      </trkpt>
      <trkpt lat="45.81376" lon="1.87645">
        <ele>681.6</ele>
        <time>2024-09-15T13:28:35Z</time>
      </trkpt>
      <trkpt lat="45.81375" lon="1.87644">
        <ele>681.4</ele>
        <time>2024-09-15T13:28:36Z</time>
      </trkpt>
      <trkpt lat="45.81375" lon="1.87642">
        <ele>681.6</ele>
        <time>2024-09-15T13:28:37Z</time>
      </trkpt>
      <trkpt lat="45.81375" lon="1.8764">
        <ele>681.6</ele>
        <time>2024-09-15T13:28:39Z</time>
      </trkpt>
      <trkpt lat="45.81375" lon="1.87635">
        <ele>681.8</ele>
        <time>2024-09-15T13:28:40Z</time>
      </trkpt>
      <trkpt lat="45.81375" lon="1.87632">
        <ele>681.8</ele>
        <time>2024-09-15T13:28:41Z</time>
      </trkpt>
      <trkpt lat="45.81375" lon="1.8763">
        <ele>682</ele>
        <time>2024-09-15T13:28:42Z</time>
      </trkpt>
      <trkpt lat="45.81376" lon="1.87626">
        <ele>682</ele>
        <time>2024-09-15T13:28:44Z</time>
      </trkpt>
      <trkpt lat="45.81377" lon="1.87624">
        <ele>682.6</ele>
        <time>2024-09-15T13:28:45Z</time>
      </trkpt>
      <trkpt lat="45.81378" lon="1.87621">
        <ele>683</ele>
        <time>2024-09-15T13:28:47Z</time>
      </trkpt>
      <trkpt lat="45.81379" lon="1.87619">
        <ele>683</ele>
        <time>2024-09-15T13:28:48Z</time>
      </trkpt>
      <trkpt lat="45.81379" lon="1.87618">
        <ele>683</ele>
        <time>2024-09-15T13:28:49Z</time>
      </trkpt>
      <trkpt lat="45.8138" lon="1.87615">
        <ele>683.2</ele>
        <time>2024-09-15T13:28:50Z</time>
      </trkpt>
      <trkpt lat="45.8138" lon="1.87613">
        <ele>683.4</ele>
        <time>2024-09-15T13:28:51Z</time>
      </trkpt>
      <trkpt lat="45.8138" lon="1.87611">
        <ele>683.4</ele>
        <time>2024-09-15T13:28:53Z</time>
      </trkpt>
      <trkpt lat="45.8138" lon="1.87611">
        <ele>683.6</ele>
        <time>2024-09-15T13:28:54Z</time>
      </trkpt>
      <trkpt lat="45.8138" lon="1.8761">
        <ele>683.6</ele>
        <time>2024-09-15T13:28:55Z</time>
      </trkpt>
      <trkpt lat="45.8138" lon="1.87608">
        <ele>683.8</ele>
        <time>2024-09-15T13:28:56Z</time>
      </trkpt>
      <trkpt lat="45.8138" lon="1.87606">
        <ele>683.8</ele>
        <time>2024-09-15T13:28:57Z</time>
      </trkpt>
      <trkpt lat="45.81381" lon="1.87603">
        <ele>684</ele>
        <time>2024-09-15T13:28:58Z</time>
      </trkpt>
      <trkpt lat="45.81382" lon="1.87601">
        <ele>684</ele>
        <time>2024-09-15T13:28:59Z</time>
      </trkpt>
      <trkpt lat="45.81382" lon="1.87598">
        <ele>684</ele>
        <time>2024-09-15T13:29:00Z</time>
      </trkpt>
      <trkpt lat="45.81383" lon="1.87594">
        <ele>684.2</ele>
        <time>2024-09-15T13:29:01Z</time>
      </trkpt>
      <trkpt lat="45.81384" lon="1.87586">
        <ele>684.2</ele>
        <time>2024-09-15T13:29:03Z</time>
      </trkpt>
      <trkpt lat="45.81386" lon="1.8758">
        <ele>684.2</ele>
        <time>2024-09-15T13:29:05Z</time>
      </trkpt>
      <trkpt lat="45.81386" lon="1.87579">
        <ele>684.2</ele>
        <time>2024-09-15T13:29:06Z</time>
      </trkpt>
      <trkpt lat="45.81386" lon="1.87579">
        <ele>684.2</ele>
        <time>2024-09-15T13:29:07Z</time>
      </trkpt>
      <trkpt lat="45.81389" lon="1.87576">
        <ele>684.2</ele>
        <time>2024-09-15T13:29:08Z</time>
      </trkpt>
      <trkpt lat="45.81391" lon="1.87571">
        <ele>684.2</ele>
        <time>2024-09-15T13:29:09Z</time>
      </trkpt>
      <trkpt lat="45.81392" lon="1.87571">
        <ele>684.4</ele>
        <time>2024-09-15T13:29:10Z</time>
      </trkpt>
      <trkpt lat="45.81393" lon="1.87551">
        <ele>684.4</ele>
        <time>2024-09-15T13:29:14Z</time>
      </trkpt>
      <trkpt lat="45.81395" lon="1.87546">
        <ele>684.4</ele>
        <time>2024-09-15T13:29:15Z</time>
      </trkpt>
      <trkpt lat="45.81398" lon="1.87541">
        <ele>684.6</ele>
        <time>2024-09-15T13:29:16Z</time>
      </trkpt>
      <trkpt lat="45.814" lon="1.87536">
        <ele>684.6</ele>
        <time>2024-09-15T13:29:17Z</time>
      </trkpt>
      <trkpt lat="45.81403" lon="1.87531">
        <ele>684.8</ele>
        <time>2024-09-15T13:29:18Z</time>
      </trkpt>
      <trkpt lat="45.81406" lon="1.87526">
        <ele>685</ele>
        <time>2024-09-15T13:29:19Z</time>
      </trkpt>
      <trkpt lat="45.81409" lon="1.87521">
        <ele>685.4</ele>
        <time>2024-09-15T13:29:21Z</time>
      </trkpt>
      <trkpt lat="45.81413" lon="1.87518">
        <ele>685.4</ele>
        <time>2024-09-15T13:29:22Z</time>
      </trkpt>
      <trkpt lat="45.81414" lon="1.87512">
        <ele>685.6</ele>
        <time>2024-09-15T13:29:24Z</time>
      </trkpt>
      <trkpt lat="45.81414" lon="1.87507">
        <ele>685.8</ele>
        <time>2024-09-15T13:29:25Z</time>
      </trkpt>
      <trkpt lat="45.81415" lon="1.87503">
        <ele>685.8</ele>
        <time>2024-09-15T13:29:26Z</time>
      </trkpt>
      <trkpt lat="45.81417" lon="1.87499">
        <ele>685.8</ele>
        <time>2024-09-15T13:29:27Z</time>
      </trkpt>
      <trkpt lat="45.8142" lon="1.87496">
        <ele>685.8</ele>
        <time>2024-09-15T13:29:28Z</time>
      </trkpt>
      <trkpt lat="45.81423" lon="1.87491">
        <ele>686</ele>
        <time>2024-09-15T13:29:30Z</time>
      </trkpt>
      <trkpt lat="45.81424" lon="1.87489">
        <ele>686</ele>
        <time>2024-09-15T13:29:31Z</time>
      </trkpt>
      <trkpt lat="45.81424" lon="1.87487">
        <ele>686.2</ele>
        <time>2024-09-15T13:29:32Z</time>
      </trkpt>
      <trkpt lat="45.81424" lon="1.87484">
        <ele>686.2</ele>
        <time>2024-09-15T13:29:33Z</time>
      </trkpt>
      <trkpt lat="45.81425" lon="1.87482">
        <ele>686.4</ele>
        <time>2024-09-15T13:29:34Z</time>
      </trkpt>
      <trkpt lat="45.81427" lon="1.8748">
        <ele>686.4</ele>
        <time>2024-09-15T13:29:35Z</time>
      </trkpt>
      <trkpt lat="45.81428" lon="1.87479">
        <ele>686.4</ele>
        <time>2024-09-15T13:29:36Z</time>
      </trkpt>
      <trkpt lat="45.81434" lon="1.87474">
        <ele>686.6</ele>
        <time>2024-09-15T13:29:40Z</time>
      </trkpt>
      <trkpt lat="45.81434" lon="1.87472">
        <ele>686.8</ele>
        <time>2024-09-15T13:29:41Z</time>
      </trkpt>
      <trkpt lat="45.81435" lon="1.87471">
        <ele>686.8</ele>
        <time>2024-09-15T13:29:42Z</time>
      </trkpt>
      <trkpt lat="45.81435" lon="1.8747">
        <ele>687</ele>
        <time>2024-09-15T13:29:43Z</time>
      </trkpt>
      <trkpt lat="45.81435" lon="1.8747">
        <ele>687</ele>
        <time>2024-09-15T13:29:44Z</time>
      </trkpt>
      <trkpt lat="45.81435" lon="1.8747">
        <ele>687.2</ele>
        <time>2024-09-15T13:29:45Z</time>
      </trkpt>
      <trkpt lat="45.81437" lon="1.87468">
        <ele>688.4</ele>
        <time>2024-09-15T13:30:32Z</time>
      </trkpt>
      <trkpt lat="45.81437" lon="1.87468">
        <ele>688.4</ele>
        <time>2024-09-15T13:30:33Z</time>
      </trkpt>
      <trkpt lat="45.81442" lon="1.87461">
        <ele>688.6</ele>
        <time>2024-09-15T13:30:36Z</time>
      </trkpt>
      <trkpt lat="45.81447" lon="1.87454">
        <ele>688.6</ele>
        <time>2024-09-15T13:30:39Z</time>
      </trkpt>
      <trkpt lat="45.81451" lon="1.87443">
        <ele>688.8</ele>
        <time>2024-09-15T13:30:43Z</time>
      </trkpt>
      <trkpt lat="45.81452" lon="1.87439">
        <ele>689</ele>
        <time>2024-09-15T13:30:45Z</time>
      </trkpt>
      <trkpt lat="45.81453" lon="1.87437">
        <ele>689.2</ele>
        <time>2024-09-15T13:30:46Z</time>
      </trkpt>
      <trkpt lat="45.81455" lon="1.87435">
        <ele>689.2</ele>
        <time>2024-09-15T13:30:47Z</time>
      </trkpt>
      <trkpt lat="45.81456" lon="1.87433">
        <ele>689.6</ele>
        <time>2024-09-15T13:30:48Z</time>
      </trkpt>
      <trkpt lat="45.81458" lon="1.87431">
        <ele>689.8</ele>
        <time>2024-09-15T13:30:49Z</time>
      </trkpt>
      <trkpt lat="45.81461" lon="1.8743">
        <ele>690</ele>
        <time>2024-09-15T13:30:50Z</time>
      </trkpt>
      <trkpt lat="45.81463" lon="1.87429">
        <ele>690</ele>
        <time>2024-09-15T13:30:51Z</time>
      </trkpt>
      <trkpt lat="45.81467" lon="1.87429">
        <ele>690.2</ele>
        <time>2024-09-15T13:30:52Z</time>
      </trkpt>
      <trkpt lat="45.8147" lon="1.87429">
        <ele>690.4</ele>
        <time>2024-09-15T13:30:53Z</time>
      </trkpt>
      <trkpt lat="45.81472" lon="1.87429">
        <ele>690.6</ele>
        <time>2024-09-15T13:30:54Z</time>
      </trkpt>
      <trkpt lat="45.81475" lon="1.87429">
        <ele>690.6</ele>
        <time>2024-09-15T13:30:55Z</time>
      </trkpt>
      <trkpt lat="45.81479" lon="1.87429">
        <ele>691</ele>
        <time>2024-09-15T13:30:57Z</time>
      </trkpt>
      <trkpt lat="45.81483" lon="1.87426">
        <ele>691.4</ele>
        <time>2024-09-15T13:31:00Z</time>
      </trkpt>
      <trkpt lat="45.81484" lon="1.87425">
        <ele>691.8</ele>
        <time>2024-09-15T13:31:01Z</time>
      </trkpt>
      <trkpt lat="45.81485" lon="1.87425">
        <ele>692.2</ele>
        <time>2024-09-15T13:31:02Z</time>
      </trkpt>
      <trkpt lat="45.81486" lon="1.87425">
        <ele>692.6</ele>
        <time>2024-09-15T13:31:03Z</time>
      </trkpt>
      <trkpt lat="45.81488" lon="1.87425">
        <ele>692.8</ele>
        <time>2024-09-15T13:31:04Z</time>
      </trkpt>
      <trkpt lat="45.8149" lon="1.87424">
        <ele>693</ele>
        <time>2024-09-15T13:31:05Z</time>
      </trkpt>
      <trkpt lat="45.81492" lon="1.87424">
        <ele>693.6</ele>
        <time>2024-09-15T13:31:06Z</time>
      </trkpt>
      <trkpt lat="45.81493" lon="1.87424">
        <ele>693.8</ele>
        <time>2024-09-15T13:31:07Z</time>
      </trkpt>
      <trkpt lat="45.81495" lon="1.87424">
        <ele>694.2</ele>
        <time>2024-09-15T13:31:08Z</time>
      </trkpt>
      <trkpt lat="45.81497" lon="1.87423">
        <ele>694.2</ele>
        <time>2024-09-15T13:31:09Z</time>
      </trkpt>
      <trkpt lat="45.81499" lon="1.87423">
        <ele>694.4</ele>
        <time>2024-09-15T13:31:10Z</time>
      </trkpt>
      <trkpt lat="45.815" lon="1.87421">
        <ele>694.6</ele>
        <time>2024-09-15T13:31:11Z</time>
      </trkpt>
      <trkpt lat="45.815" lon="1.87421">
        <ele>695.2</ele>
        <time>2024-09-15T13:31:12Z</time>
      </trkpt>
      <trkpt lat="45.815" lon="1.87421">
        <ele>695.6</ele>
        <time>2024-09-15T13:31:13Z</time>
      </trkpt>
      <trkpt lat="45.815" lon="1.87421">
        <ele>695.8</ele>
        <time>2024-09-15T13:31:14Z</time>
      </trkpt>
      <trkpt lat="45.815" lon="1.87421">
        <ele>696</ele>
        <time>2024-09-15T13:31:15Z</time>
      </trkpt>
      <trkpt lat="45.81502" lon="1.87417">
        <ele>696.4</ele>
        <time>2024-09-15T13:32:38Z</time>
      </trkpt>
      <trkpt lat="45.81503" lon="1.87415">
        <ele>696.4</ele>
        <time>2024-09-15T13:32:39Z</time>
      </trkpt>
      <trkpt lat="45.81503" lon="1.87414">
        <ele>696.4</ele>
        <time>2024-09-15T13:32:40Z</time>
      </trkpt>
      <trkpt lat="45.81512" lon="1.874">
        <ele>696.4</ele>
        <time>2024-09-15T13:32:44Z</time>
      </trkpt>
      <trkpt lat="45.81519" lon="1.87385">
        <ele>696</ele>
        <time>2024-09-15T13:32:48Z</time>
      </trkpt>
      <trkpt lat="45.81522" lon="1.87381">
        <ele>695.8</ele>
        <time>2024-09-15T13:32:49Z</time>
      </trkpt>
      <trkpt lat="45.81536" lon="1.87364">
        <ele>695</ele>
        <time>2024-09-15T13:32:53Z</time>
      </trkpt>
      <trkpt lat="45.81539" lon="1.8736">
        <ele>694.8</ele>
        <time>2024-09-15T13:32:54Z</time>
      </trkpt>
      <trkpt lat="45.81553" lon="1.87344">
        <ele>694.4</ele>
        <time>2024-09-15T13:32:58Z</time>
      </trkpt>
      <trkpt lat="45.81563" lon="1.87334">
        <ele>694.2</ele>
        <time>2024-09-15T13:33:01Z</time>
      </trkpt>
      <trkpt lat="45.81567" lon="1.87331">
        <ele>694</ele>
        <time>2024-09-15T13:33:02Z</time>
      </trkpt>
      <trkpt lat="45.81587" lon="1.8731">
        <ele>693.2</ele>
        <time>2024-09-15T13:33:06Z</time>
      </trkpt>
      <trkpt lat="45.81592" lon="1.87304">
        <ele>692.8</ele>
        <time>2024-09-15T13:33:07Z</time>
      </trkpt>
      <trkpt lat="45.81602" lon="1.87295">
        <ele>692.8</ele>
        <time>2024-09-15T13:33:09Z</time>
      </trkpt>
      <trkpt lat="45.81613" lon="1.87285">
        <ele>692.2</ele>
        <time>2024-09-15T13:33:11Z</time>
      </trkpt>
      <trkpt lat="45.81617" lon="1.87282">
        <ele>692.2</ele>
        <time>2024-09-15T13:33:12Z</time>
      </trkpt>
      <trkpt lat="45.81621" lon="1.87278">
        <ele>691.8</ele>
        <time>2024-09-15T13:33:13Z</time>
      </trkpt>
      <trkpt lat="45.81626" lon="1.87275">
        <ele>691.8</ele>
        <time>2024-09-15T13:33:14Z</time>
      </trkpt>
      <trkpt lat="45.81648" lon="1.87261">
        <ele>691</ele>
        <time>2024-09-15T13:33:19Z</time>
      </trkpt>
      <trkpt lat="45.81653" lon="1.87259">
        <ele>690.8</ele>
        <time>2024-09-15T13:33:20Z</time>
      </trkpt>
      <trkpt lat="45.81663" lon="1.87253">
        <ele>690.6</ele>
        <time>2024-09-15T13:33:22Z</time>
      </trkpt>
      <trkpt lat="45.81668" lon="1.87249">
        <ele>690.4</ele>
        <time>2024-09-15T13:33:23Z</time>
      </trkpt>
      <trkpt lat="45.81672" lon="1.87246">
        <ele>690.2</ele>
        <time>2024-09-15T13:33:24Z</time>
      </trkpt>
      <trkpt lat="45.81676" lon="1.87242">
        <ele>690.2</ele>
        <time>2024-09-15T13:33:25Z</time>
      </trkpt>
      <trkpt lat="45.81684" lon="1.87233">
        <ele>689.8</ele>
        <time>2024-09-15T13:33:27Z</time>
      </trkpt>
      <trkpt lat="45.81687" lon="1.87228">
        <ele>689.6</ele>
        <time>2024-09-15T13:33:28Z</time>
      </trkpt>
      <trkpt lat="45.81695" lon="1.8722">
        <ele>689.4</ele>
        <time>2024-09-15T13:33:30Z</time>
      </trkpt>
      <trkpt lat="45.81698" lon="1.87216">
        <ele>689.2</ele>
        <time>2024-09-15T13:33:31Z</time>
      </trkpt>
      <trkpt lat="45.81702" lon="1.8721">
        <ele>689.2</ele>
        <time>2024-09-15T13:33:32Z</time>
      </trkpt>
      <trkpt lat="45.81705" lon="1.87205">
        <ele>689</ele>
        <time>2024-09-15T13:33:33Z</time>
      </trkpt>
      <trkpt lat="45.81709" lon="1.87201">
        <ele>689</ele>
        <time>2024-09-15T13:33:34Z</time>
      </trkpt>
      <trkpt lat="45.81722" lon="1.87182">
        <ele>688.6</ele>
        <time>2024-09-15T13:33:38Z</time>
      </trkpt>
      <trkpt lat="45.81726" lon="1.87177">
        <ele>688.6</ele>
        <time>2024-09-15T13:33:39Z</time>
      </trkpt>
      <trkpt lat="45.81733" lon="1.87163">
        <ele>688.2</ele>
        <time>2024-09-15T13:33:42Z</time>
      </trkpt>
      <trkpt lat="45.81737" lon="1.87159">
        <ele>688.2</ele>
        <time>2024-09-15T13:33:43Z</time>
      </trkpt>
      <trkpt lat="45.81744" lon="1.87151">
        <ele>688</ele>
        <time>2024-09-15T13:33:45Z</time>
      </trkpt>
      <trkpt lat="45.81745" lon="1.87143">
        <ele>688</ele>
        <time>2024-09-15T13:33:46Z</time>
      </trkpt>
      <trkpt lat="45.81746" lon="1.87135">
        <ele>687.8</ele>
        <time>2024-09-15T13:33:47Z</time>
      </trkpt>
      <trkpt lat="45.81747" lon="1.87128">
        <ele>687.8</ele>
        <time>2024-09-15T13:33:48Z</time>
      </trkpt>
      <trkpt lat="45.81748" lon="1.87123">
        <ele>687.8</ele>
        <time>2024-09-15T13:33:49Z</time>
      </trkpt>
      <trkpt lat="45.81749" lon="1.87118">
        <ele>687.6</ele>
        <time>2024-09-15T13:33:50Z</time>
      </trkpt>
      <trkpt lat="45.8175" lon="1.87114">
        <ele>687.6</ele>
        <time>2024-09-15T13:33:51Z</time>
      </trkpt>
      <trkpt lat="45.81751" lon="1.87102">
        <ele>687.4</ele>
        <time>2024-09-15T13:33:53Z</time>
      </trkpt>
      <trkpt lat="45.81753" lon="1.87093">
        <ele>687.4</ele>
        <time>2024-09-15T13:33:55Z</time>
      </trkpt>
      <trkpt lat="45.81753" lon="1.87089">
        <ele>687.4</ele>
        <time>2024-09-15T13:33:56Z</time>
      </trkpt>
      <trkpt lat="45.81755" lon="1.87085">
        <ele>687.2</ele>
        <time>2024-09-15T13:33:57Z</time>
      </trkpt>
      <trkpt lat="45.81756" lon="1.87082">
        <ele>687.2</ele>
        <time>2024-09-15T13:33:58Z</time>
      </trkpt>
      <trkpt lat="45.81757" lon="1.87079">
        <ele>687.2</ele>
        <time>2024-09-15T13:33:59Z</time>
      </trkpt>
      <trkpt lat="45.81757" lon="1.87076">
        <ele>687.2</ele>
        <time>2024-09-15T13:34:00Z</time>
      </trkpt>
      <trkpt lat="45.81757" lon="1.87073">
        <ele>687.4</ele>
        <time>2024-09-15T13:34:01Z</time>
      </trkpt>
      <trkpt lat="45.81757" lon="1.87071">
        <ele>687.4</ele>
        <time>2024-09-15T13:34:02Z</time>
      </trkpt>
      <trkpt lat="45.81757" lon="1.87068">
        <ele>687.4</ele>
        <time>2024-09-15T13:34:03Z</time>
      </trkpt>
      <trkpt lat="45.81759" lon="1.87062">
        <ele>687.2</ele>
        <time>2024-09-15T13:34:05Z</time>
      </trkpt>
      <trkpt lat="45.81759" lon="1.87059">
        <ele>687.4</ele>
        <time>2024-09-15T13:34:06Z</time>
      </trkpt>
      <trkpt lat="45.81759" lon="1.87056">
        <ele>687.2</ele>
        <time>2024-09-15T13:34:07Z</time>
      </trkpt>
      <trkpt lat="45.8176" lon="1.87054">
        <ele>687.2</ele>
        <time>2024-09-15T13:34:08Z</time>
      </trkpt>
      <trkpt lat="45.8176" lon="1.87052">
        <ele>687.2</ele>
        <time>2024-09-15T13:34:09Z</time>
      </trkpt>
      <trkpt lat="45.8176" lon="1.87049">
        <ele>687</ele>
        <time>2024-09-15T13:34:10Z</time>
      </trkpt>
      <trkpt lat="45.8176" lon="1.87047">
        <ele>687</ele>
        <time>2024-09-15T13:34:11Z</time>
      </trkpt>
      <trkpt lat="45.81759" lon="1.87045">
        <ele>686.8</ele>
        <time>2024-09-15T13:34:12Z</time>
      </trkpt>
      <trkpt lat="45.81759" lon="1.87042">
        <ele>686.8</ele>
        <time>2024-09-15T13:34:13Z</time>
      </trkpt>
      <trkpt lat="45.81759" lon="1.87041">
        <ele>686.8</ele>
        <time>2024-09-15T13:34:14Z</time>
      </trkpt>
      <trkpt lat="45.8176" lon="1.87039">
        <ele>686.6</ele>
        <time>2024-09-15T13:34:15Z</time>
      </trkpt>
      <trkpt lat="45.8176" lon="1.87038">
        <ele>686.6</ele>
        <time>2024-09-15T13:34:16Z</time>
      </trkpt>
      <trkpt lat="45.8176" lon="1.87037">
        <ele>686.6</ele>
        <time>2024-09-15T13:34:17Z</time>
      </trkpt>
      <trkpt lat="45.8176" lon="1.87036">
        <ele>686.6</ele>
        <time>2024-09-15T13:34:18Z</time>
      </trkpt>
      <trkpt lat="45.81761" lon="1.87035">
        <ele>686.6</ele>
        <time>2024-09-15T13:34:19Z</time>
      </trkpt>
      <trkpt lat="45.8176" lon="1.87033">
        <ele>686.6</ele>
        <time>2024-09-15T13:34:20Z</time>
      </trkpt>
      <trkpt lat="45.8176" lon="1.87032">
        <ele>686.6</ele>
        <time>2024-09-15T13:34:21Z</time>
      </trkpt>
      <trkpt lat="45.8176" lon="1.87032">
        <ele>686.6</ele>
        <time>2024-09-15T13:34:22Z</time>
      </trkpt>
      <trkpt lat="45.8176" lon="1.87032">
        <ele>686.6</ele>
        <time>2024-09-15T13:34:23Z</time>
      </trkpt>
      <trkpt lat="45.8176" lon="1.87032">
        <ele>686</ele>
        <time>2024-09-15T13:34:39Z</time>
      </trkpt>
      <trkpt lat="45.8176" lon="1.87027">
        <ele>686</ele>
        <time>2024-09-15T13:34:40Z</time>
      </trkpt>
      <trkpt lat="45.81759" lon="1.87021">
        <ele>686</ele>
        <time>2024-09-15T13:34:43Z</time>
      </trkpt>
      <trkpt lat="45.81759" lon="1.87019">
        <ele>686</ele>
        <time>2024-09-15T13:34:44Z</time>
      </trkpt>
      <trkpt lat="45.81759" lon="1.87017">
        <ele>686</ele>
        <time>2024-09-15T13:34:45Z</time>
      </trkpt>
      <trkpt lat="45.81756" lon="1.87011">
        <ele>686.2</ele>
        <time>2024-09-15T13:34:49Z</time>
      </trkpt>
      <trkpt lat="45.81756" lon="1.8701">
        <ele>686.2</ele>
        <time>2024-09-15T13:34:50Z</time>
      </trkpt>
      <trkpt lat="45.81756" lon="1.87009">
        <ele>686.2</ele>
        <time>2024-09-15T13:34:51Z</time>
      </trkpt>
      <trkpt lat="45.81756" lon="1.87008">
        <ele>686.2</ele>
        <time>2024-09-15T13:34:54Z</time>
      </trkpt>
      <trkpt lat="45.81755" lon="1.87007">
        <ele>686</ele>
        <time>2024-09-15T13:34:56Z</time>
      </trkpt>
      <trkpt lat="45.81754" lon="1.87006">
        <ele>686</ele>
        <time>2024-09-15T13:34:58Z</time>
      </trkpt>
      <trkpt lat="45.81755" lon="1.87005">
        <ele>686</ele>
        <time>2024-09-15T13:35:00Z</time>
      </trkpt>
      <trkpt lat="45.81756" lon="1.87003">
        <ele>686</ele>
        <time>2024-09-15T13:35:03Z</time>
      </trkpt>
      <trkpt lat="45.81757" lon="1.87002">
        <ele>686</ele>
        <time>2024-09-15T13:35:04Z</time>
      </trkpt>
      <trkpt lat="45.81758" lon="1.87">
        <ele>686</ele>
        <time>2024-09-15T13:35:05Z</time>
      </trkpt>
      <trkpt lat="45.8176" lon="1.86999">
        <ele>686.2</ele>
        <time>2024-09-15T13:35:07Z</time>
      </trkpt>
      <trkpt lat="45.8176" lon="1.86999">
        <ele>686.4</ele>
        <time>2024-09-15T13:35:08Z</time>
      </trkpt>
      <trkpt lat="45.8176" lon="1.86999">
        <ele>686.8</ele>
        <time>2024-09-15T13:35:09Z</time>
      </trkpt>
      <trkpt lat="45.81761" lon="1.86998">
        <ele>687</ele>
        <time>2024-09-15T13:35:10Z</time>
      </trkpt>
      <trkpt lat="45.81762" lon="1.86997">
        <ele>687</ele>
        <time>2024-09-15T13:35:11Z</time>
      </trkpt>
      <trkpt lat="45.81762" lon="1.86997">
        <ele>688.4</ele>
        <time>2024-09-15T13:35:14Z</time>
      </trkpt>
      <trkpt lat="45.81768" lon="1.86995">
        <ele>692.4</ele>
        <time>2024-09-15T13:35:43Z</time>
      </trkpt>
      <trkpt lat="45.81769" lon="1.86992">
        <ele>692.6</ele>
        <time>2024-09-15T13:35:44Z</time>
      </trkpt>
      <trkpt lat="45.8177" lon="1.8699">
        <ele>692.8</ele>
        <time>2024-09-15T13:35:45Z</time>
      </trkpt>
      <trkpt lat="45.81771" lon="1.86989">
        <ele>693.2</ele>
        <time>2024-09-15T13:35:46Z</time>
      </trkpt>
      <trkpt lat="45.81773" lon="1.86987">
        <ele>693.2</ele>
        <time>2024-09-15T13:35:47Z</time>
      </trkpt>
      <trkpt lat="45.81774" lon="1.86985">
        <ele>693.4</ele>
        <time>2024-09-15T13:35:48Z</time>
      </trkpt>
      <trkpt lat="45.81775" lon="1.86984">
        <ele>693.4</ele>
        <time>2024-09-15T13:35:49Z</time>
      </trkpt>
      <trkpt lat="45.81775" lon="1.86984">
        <ele>693.4</ele>
        <time>2024-09-15T13:35:50Z</time>
      </trkpt>
      <trkpt lat="45.81776" lon="1.86983">
        <ele>693.6</ele>
        <time>2024-09-15T13:35:51Z</time>
      </trkpt>
      <trkpt lat="45.81777" lon="1.86977">
        <ele>694.8</ele>
        <time>2024-09-15T13:36:07Z</time>
      </trkpt>
      <trkpt lat="45.81778" lon="1.86976">
        <ele>694.8</ele>
        <time>2024-09-15T13:36:08Z</time>
      </trkpt>
      <trkpt lat="45.8178" lon="1.86974">
        <ele>694.8</ele>
        <time>2024-09-15T13:36:09Z</time>
      </trkpt>
      <trkpt lat="45.81781" lon="1.86973">
        <ele>695</ele>
        <time>2024-09-15T13:36:10Z</time>
      </trkpt>
      <trkpt lat="45.81781" lon="1.86972">
        <ele>695</ele>
        <time>2024-09-15T13:36:11Z</time>
      </trkpt>
      <trkpt lat="45.81781" lon="1.86972">
        <ele>695</ele>
        <time>2024-09-15T13:36:12Z</time>
      </trkpt>
      <trkpt lat="45.81783" lon="1.86969">
        <ele>695.6</ele>
        <time>2024-09-15T13:36:30Z</time>
      </trkpt>
      <trkpt lat="45.81783" lon="1.86969">
        <ele>695.6</ele>
        <time>2024-09-15T13:36:31Z</time>
      </trkpt>
      <trkpt lat="45.81783" lon="1.86969">
        <ele>695.8</ele>
        <time>2024-09-15T13:36:32Z</time>
      </trkpt>
      <trkpt lat="45.81783" lon="1.86969">
        <ele>695.8</ele>
        <time>2024-09-15T13:36:33Z</time>
      </trkpt>
      <trkpt lat="45.81786" lon="1.86966">
        <ele>696.4</ele>
        <time>2024-09-15T13:36:38Z</time>
      </trkpt>
      <trkpt lat="45.81789" lon="1.86961">
        <ele>696.8</ele>
        <time>2024-09-15T13:36:41Z</time>
      </trkpt>
      <trkpt lat="45.81799" lon="1.86949">
        <ele>697</ele>
        <time>2024-09-15T13:36:46Z</time>
      </trkpt>
      <trkpt lat="45.81804" lon="1.86943">
        <ele>697.2</ele>
        <time>2024-09-15T13:36:49Z</time>
      </trkpt>
      <trkpt lat="45.81806" lon="1.8694">
        <ele>697.2</ele>
        <time>2024-09-15T13:36:50Z</time>
      </trkpt>
      <trkpt lat="45.81807" lon="1.86937">
        <ele>697.2</ele>
        <time>2024-09-15T13:36:51Z</time>
      </trkpt>
      <trkpt lat="45.81823" lon="1.8692">
        <ele>697.4</ele>
        <time>2024-09-15T13:36:55Z</time>
      </trkpt>
      <trkpt lat="45.8183" lon="1.86912">
        <ele>697.4</ele>
        <time>2024-09-15T13:36:57Z</time>
      </trkpt>
      <trkpt lat="45.81837" lon="1.86899">
        <ele>697.6</ele>
        <time>2024-09-15T13:37:01Z</time>
      </trkpt>
      <trkpt lat="45.81839" lon="1.86897">
        <ele>697.6</ele>
        <time>2024-09-15T13:37:02Z</time>
      </trkpt>
      <trkpt lat="45.8184" lon="1.86897">
        <ele>697.6</ele>
        <time>2024-09-15T13:37:03Z</time>
      </trkpt>
      <trkpt lat="45.81841" lon="1.86896">
        <ele>697.6</ele>
        <time>2024-09-15T13:37:04Z</time>
      </trkpt>
      <trkpt lat="45.81845" lon="1.86894">
        <ele>697.6</ele>
        <time>2024-09-15T13:37:05Z</time>
      </trkpt>
      <trkpt lat="45.81847" lon="1.86893">
        <ele>697.6</ele>
        <time>2024-09-15T13:37:06Z</time>
      </trkpt>
      <trkpt lat="45.8185" lon="1.86892">
        <ele>697.8</ele>
        <time>2024-09-15T13:37:07Z</time>
      </trkpt>
      <trkpt lat="45.81869" lon="1.86891">
        <ele>698.2</ele>
        <time>2024-09-15T13:37:13Z</time>
      </trkpt>
      <trkpt lat="45.81875" lon="1.86891">
        <ele>698.6</ele>
        <time>2024-09-15T13:37:15Z</time>
      </trkpt>
      <trkpt lat="45.81893" lon="1.86887">
        <ele>699.2</ele>
        <time>2024-09-15T13:37:21Z</time>
      </trkpt>
      <trkpt lat="45.81908" lon="1.86886">
        <ele>699.6</ele>
        <time>2024-09-15T13:37:24Z</time>
      </trkpt>
      <trkpt lat="45.81924" lon="1.86884">
        <ele>700</ele>
        <time>2024-09-15T13:37:28Z</time>
      </trkpt>
      <trkpt lat="45.81955" lon="1.86883">
        <ele>700.8</ele>
        <time>2024-09-15T13:37:36Z</time>
      </trkpt>
      <trkpt lat="45.81959" lon="1.86883">
        <ele>700.8</ele>
        <time>2024-09-15T13:37:37Z</time>
      </trkpt>
      <trkpt lat="45.81966" lon="1.86884">
        <ele>700.8</ele>
        <time>2024-09-15T13:37:39Z</time>
      </trkpt>
      <trkpt lat="45.81969" lon="1.86884">
        <ele>700.8</ele>
        <time>2024-09-15T13:37:40Z</time>
      </trkpt>
      <trkpt lat="45.81978" lon="1.86886">
        <ele>700.6</ele>
        <time>2024-09-15T13:37:42Z</time>
      </trkpt>
      <trkpt lat="45.81986" lon="1.86887">
        <ele>700.8</ele>
        <time>2024-09-15T13:37:44Z</time>
      </trkpt>
      <trkpt lat="45.8199" lon="1.86887">
        <ele>700.6</ele>
        <time>2024-09-15T13:37:45Z</time>
      </trkpt>
      <trkpt lat="45.81994" lon="1.86887">
        <ele>700.6</ele>
        <time>2024-09-15T13:37:46Z</time>
      </trkpt>
      <trkpt lat="45.82002" lon="1.86888">
        <ele>700</ele>
        <time>2024-09-15T13:37:49Z</time>
      </trkpt>
      <trkpt lat="45.82003" lon="1.86888">
        <ele>700</ele>
        <time>2024-09-15T13:37:50Z</time>
      </trkpt>
      <trkpt lat="45.82005" lon="1.86887">
        <ele>699.6</ele>
        <time>2024-09-15T13:37:51Z</time>
      </trkpt>
      <trkpt lat="45.82007" lon="1.86886">
        <ele>699.6</ele>
        <time>2024-09-15T13:37:52Z</time>
      </trkpt>
      <trkpt lat="45.82008" lon="1.86886">
        <ele>699.2</ele>
        <time>2024-09-15T13:37:53Z</time>
      </trkpt>
      <trkpt lat="45.82008" lon="1.86886">
        <ele>699.2</ele>
        <time>2024-09-15T13:37:54Z</time>
      </trkpt>
      <trkpt lat="45.82008" lon="1.86886">
        <ele>699</ele>
        <time>2024-09-15T13:37:55Z</time>
      </trkpt>
      <trkpt lat="45.82008" lon="1.86886">
        <ele>699</ele>
        <time>2024-09-15T13:37:56Z</time>
      </trkpt>
      <trkpt lat="45.82012" lon="1.86883">
        <ele>698</ele>
        <time>2024-09-15T13:38:04Z</time>
      </trkpt>
      <trkpt lat="45.82018" lon="1.86876">
        <ele>697.8</ele>
        <time>2024-09-15T13:38:07Z</time>
      </trkpt>
      <trkpt lat="45.82032" lon="1.86851">
        <ele>697.4</ele>
        <time>2024-09-15T13:38:12Z</time>
      </trkpt>
      <trkpt lat="45.82033" lon="1.86844">
        <ele>697.4</ele>
        <time>2024-09-15T13:38:13Z</time>
      </trkpt>
      <trkpt lat="45.82031" lon="1.86825">
        <ele>696.6</ele>
        <time>2024-09-15T13:38:16Z</time>
      </trkpt>
      <trkpt lat="45.82031" lon="1.86818">
        <ele>696</ele>
        <time>2024-09-15T13:38:17Z</time>
      </trkpt>
      <trkpt lat="45.82031" lon="1.86811">
        <ele>695.8</ele>
        <time>2024-09-15T13:38:18Z</time>
      </trkpt>
      <trkpt lat="45.82032" lon="1.86807">
        <ele>695.4</ele>
        <time>2024-09-15T13:38:19Z</time>
      </trkpt>
      <trkpt lat="45.82032" lon="1.86802">
        <ele>695</ele>
        <time>2024-09-15T13:38:20Z</time>
      </trkpt>
      <trkpt lat="45.82038" lon="1.86793">
        <ele>694.4</ele>
        <time>2024-09-15T13:38:22Z</time>
      </trkpt>
      <trkpt lat="45.82042" lon="1.86788">
        <ele>694.2</ele>
        <time>2024-09-15T13:38:23Z</time>
      </trkpt>
      <trkpt lat="45.82044" lon="1.86783">
        <ele>693.4</ele>
        <time>2024-09-15T13:38:24Z</time>
      </trkpt>
      <trkpt lat="45.82047" lon="1.86778">
        <ele>693.2</ele>
        <time>2024-09-15T13:38:25Z</time>
      </trkpt>
      <trkpt lat="45.8205" lon="1.86774">
        <ele>692.8</ele>
        <time>2024-09-15T13:38:26Z</time>
      </trkpt>
      <trkpt lat="45.82055" lon="1.86756">
        <ele>692.4</ele>
        <time>2024-09-15T13:38:29Z</time>
      </trkpt>
      <trkpt lat="45.82055" lon="1.8675">
        <ele>692.4</ele>
        <time>2024-09-15T13:38:30Z</time>
      </trkpt>
      <trkpt lat="45.82057" lon="1.86743">
        <ele>692</ele>
        <time>2024-09-15T13:38:31Z</time>
      </trkpt>
      <trkpt lat="45.82058" lon="1.86738">
        <ele>691.8</ele>
        <time>2024-09-15T13:38:32Z</time>
      </trkpt>
      <trkpt lat="45.8206" lon="1.86732">
        <ele>691.6</ele>
        <time>2024-09-15T13:38:33Z</time>
      </trkpt>
      <trkpt lat="45.82062" lon="1.86726">
        <ele>691.6</ele>
        <time>2024-09-15T13:38:34Z</time>
      </trkpt>
      <trkpt lat="45.82067" lon="1.86711">
        <ele>691.8</ele>
        <time>2024-09-15T13:38:37Z</time>
      </trkpt>
      <trkpt lat="45.82068" lon="1.86705">
        <ele>691.8</ele>
        <time>2024-09-15T13:38:38Z</time>
      </trkpt>
      <trkpt lat="45.82069" lon="1.867">
        <ele>691.8</ele>
        <time>2024-09-15T13:38:39Z</time>
      </trkpt>
      <trkpt lat="45.82071" lon="1.86694">
        <ele>692</ele>
        <time>2024-09-15T13:38:40Z</time>
      </trkpt>
      <trkpt lat="45.82072" lon="1.86689">
        <ele>691.8</ele>
        <time>2024-09-15T13:38:41Z</time>
      </trkpt>
      <trkpt lat="45.82073" lon="1.86684">
        <ele>691.8</ele>
        <time>2024-09-15T13:38:42Z</time>
      </trkpt>
      <trkpt lat="45.82074" lon="1.86679">
        <ele>692</ele>
        <time>2024-09-15T13:38:43Z</time>
      </trkpt>
      <trkpt lat="45.82075" lon="1.86674">
        <ele>692.2</ele>
        <time>2024-09-15T13:38:44Z</time>
      </trkpt>
      <trkpt lat="45.82076" lon="1.8667">
        <ele>692.2</ele>
        <time>2024-09-15T13:38:45Z</time>
      </trkpt>
      <trkpt lat="45.82076" lon="1.86666">
        <ele>692.6</ele>
        <time>2024-09-15T13:38:46Z</time>
      </trkpt>
      <trkpt lat="45.82076" lon="1.86661">
        <ele>692.6</ele>
        <time>2024-09-15T13:38:47Z</time>
      </trkpt>
      <trkpt lat="45.82077" lon="1.86657">
        <ele>692.8</ele>
        <time>2024-09-15T13:38:48Z</time>
      </trkpt>
      <trkpt lat="45.82079" lon="1.86653">
        <ele>692.8</ele>
        <time>2024-09-15T13:38:49Z</time>
      </trkpt>
      <trkpt lat="45.8208" lon="1.8665">
        <ele>693</ele>
        <time>2024-09-15T13:38:50Z</time>
      </trkpt>
      <trkpt lat="45.82083" lon="1.86642">
        <ele>693.6</ele>
        <time>2024-09-15T13:38:52Z</time>
      </trkpt>
      <trkpt lat="45.82084" lon="1.86638">
        <ele>693.8</ele>
        <time>2024-09-15T13:38:53Z</time>
      </trkpt>
      <trkpt lat="45.82085" lon="1.86634">
        <ele>694</ele>
        <time>2024-09-15T13:38:54Z</time>
      </trkpt>
      <trkpt lat="45.82085" lon="1.8663">
        <ele>694</ele>
        <time>2024-09-15T13:38:55Z</time>
      </trkpt>
      <trkpt lat="45.82086" lon="1.86625">
        <ele>694.2</ele>
        <time>2024-09-15T13:38:56Z</time>
      </trkpt>
      <trkpt lat="45.82087" lon="1.86621">
        <ele>694.2</ele>
        <time>2024-09-15T13:38:57Z</time>
      </trkpt>
      <trkpt lat="45.82089" lon="1.86609">
        <ele>694.4</ele>
        <time>2024-09-15T13:39:00Z</time>
      </trkpt>
      <trkpt lat="45.82088" lon="1.86604">
        <ele>694.6</ele>
        <time>2024-09-15T13:39:01Z</time>
      </trkpt>
      <trkpt lat="45.82087" lon="1.86599">
        <ele>694.6</ele>
        <time>2024-09-15T13:39:02Z</time>
      </trkpt>
      <trkpt lat="45.82085" lon="1.86594">
        <ele>694.8</ele>
        <time>2024-09-15T13:39:03Z</time>
      </trkpt>
      <trkpt lat="45.82084" lon="1.86589">
        <ele>694.8</ele>
        <time>2024-09-15T13:39:04Z</time>
      </trkpt>
      <trkpt lat="45.82083" lon="1.86583">
        <ele>695</ele>
        <time>2024-09-15T13:39:05Z</time>
      </trkpt>
      <trkpt lat="45.82082" lon="1.86572">
        <ele>695.2</ele>
        <time>2024-09-15T13:39:07Z</time>
      </trkpt>
      <trkpt lat="45.82082" lon="1.86555">
        <ele>695.4</ele>
        <time>2024-09-15T13:39:10Z</time>
      </trkpt>
      <trkpt lat="45.82085" lon="1.86543">
        <ele>695.4</ele>
        <time>2024-09-15T13:39:12Z</time>
      </trkpt>
      <trkpt lat="45.82088" lon="1.86539">
        <ele>695.4</ele>
        <time>2024-09-15T13:39:13Z</time>
      </trkpt>
      <trkpt lat="45.82089" lon="1.86534">
        <ele>695.6</ele>
        <time>2024-09-15T13:39:14Z</time>
      </trkpt>
      <trkpt lat="45.82089" lon="1.86528">
        <ele>695.6</ele>
        <time>2024-09-15T13:39:15Z</time>
      </trkpt>
      <trkpt lat="45.8209" lon="1.8651">
        <ele>696</ele>
        <time>2024-09-15T13:39:19Z</time>
      </trkpt>
      <trkpt lat="45.82092" lon="1.86502">
        <ele>696.2</ele>
        <time>2024-09-15T13:39:21Z</time>
      </trkpt>
      <trkpt lat="45.82093" lon="1.86497">
        <ele>696.2</ele>
        <time>2024-09-15T13:39:22Z</time>
      </trkpt>
      <trkpt lat="45.82094" lon="1.86493">
        <ele>696.4</ele>
        <time>2024-09-15T13:39:23Z</time>
      </trkpt>
      <trkpt lat="45.82096" lon="1.86489">
        <ele>696.4</ele>
        <time>2024-09-15T13:39:24Z</time>
      </trkpt>
      <trkpt lat="45.82097" lon="1.86484">
        <ele>696.4</ele>
        <time>2024-09-15T13:39:25Z</time>
      </trkpt>
      <trkpt lat="45.82099" lon="1.8648">
        <ele>696.4</ele>
        <time>2024-09-15T13:39:26Z</time>
      </trkpt>
      <trkpt lat="45.82102" lon="1.86476">
        <ele>696.6</ele>
        <time>2024-09-15T13:39:27Z</time>
      </trkpt>
      <trkpt lat="45.82106" lon="1.86469">
        <ele>696.8</ele>
        <time>2024-09-15T13:39:29Z</time>
      </trkpt>
      <trkpt lat="45.82107" lon="1.86464">
        <ele>696.8</ele>
        <time>2024-09-15T13:39:30Z</time>
      </trkpt>
      <trkpt lat="45.82108" lon="1.8646">
        <ele>696.8</ele>
        <time>2024-09-15T13:39:31Z</time>
      </trkpt>
      <trkpt lat="45.82109" lon="1.86456">
        <ele>696.8</ele>
        <time>2024-09-15T13:39:32Z</time>
      </trkpt>
      <trkpt lat="45.82118" lon="1.86431">
        <ele>696.8</ele>
        <time>2024-09-15T13:39:37Z</time>
      </trkpt>
      <trkpt lat="45.82118" lon="1.86427">
        <ele>696.8</ele>
        <time>2024-09-15T13:39:38Z</time>
      </trkpt>
      <trkpt lat="45.82119" lon="1.86421">
        <ele>696.8</ele>
        <time>2024-09-15T13:39:39Z</time>
      </trkpt>
      <trkpt lat="45.82121" lon="1.86415">
        <ele>696.6</ele>
        <time>2024-09-15T13:39:40Z</time>
      </trkpt>
      <trkpt lat="45.82121" lon="1.86411">
        <ele>696.6</ele>
        <time>2024-09-15T13:39:41Z</time>
      </trkpt>
      <trkpt lat="45.82121" lon="1.86405">
        <ele>696.6</ele>
        <time>2024-09-15T13:39:42Z</time>
      </trkpt>
      <trkpt lat="45.82124" lon="1.86393">
        <ele>696.8</ele>
        <time>2024-09-15T13:39:44Z</time>
      </trkpt>
      <trkpt lat="45.82125" lon="1.86389">
        <ele>697</ele>
        <time>2024-09-15T13:39:45Z</time>
      </trkpt>
      <trkpt lat="45.82127" lon="1.86385">
        <ele>697</ele>
        <time>2024-09-15T13:39:46Z</time>
      </trkpt>
      <trkpt lat="45.82129" lon="1.86381">
        <ele>697.2</ele>
        <time>2024-09-15T13:39:47Z</time>
      </trkpt>
      <trkpt lat="45.82131" lon="1.86375">
        <ele>697.2</ele>
        <time>2024-09-15T13:39:48Z</time>
      </trkpt>
      <trkpt lat="45.82133" lon="1.86371">
        <ele>697.4</ele>
        <time>2024-09-15T13:39:49Z</time>
      </trkpt>
      <trkpt lat="45.82136" lon="1.86367">
        <ele>697.4</ele>
        <time>2024-09-15T13:39:50Z</time>
      </trkpt>
      <trkpt lat="45.82141" lon="1.86359">
        <ele>697.8</ele>
        <time>2024-09-15T13:39:52Z</time>
      </trkpt>
      <trkpt lat="45.82143" lon="1.86357">
        <ele>697.8</ele>
        <time>2024-09-15T13:39:53Z</time>
      </trkpt>
      <trkpt lat="45.82144" lon="1.86349">
        <ele>698.4</ele>
        <time>2024-09-15T13:39:54Z</time>
      </trkpt>
      <trkpt lat="45.82145" lon="1.86345">
        <ele>698.6</ele>
        <time>2024-09-15T13:39:55Z</time>
      </trkpt>
      <trkpt lat="45.82146" lon="1.86341">
        <ele>699</ele>
        <time>2024-09-15T13:39:56Z</time>
      </trkpt>
      <trkpt lat="45.82147" lon="1.86337">
        <ele>699</ele>
        <time>2024-09-15T13:39:57Z</time>
      </trkpt>
      <trkpt lat="45.82149" lon="1.86331">
        <ele>699.2</ele>
        <time>2024-09-15T13:39:58Z</time>
      </trkpt>
      <trkpt lat="45.82151" lon="1.86328">
        <ele>699.4</ele>
        <time>2024-09-15T13:39:59Z</time>
      </trkpt>
      <trkpt lat="45.82155" lon="1.86323">
        <ele>699.8</ele>
        <time>2024-09-15T13:40:01Z</time>
      </trkpt>
      <trkpt lat="45.82156" lon="1.86318">
        <ele>699.8</ele>
        <time>2024-09-15T13:40:02Z</time>
      </trkpt>
      <trkpt lat="45.82157" lon="1.86313">
        <ele>699.8</ele>
        <time>2024-09-15T13:40:03Z</time>
      </trkpt>
      <trkpt lat="45.82158" lon="1.8631">
        <ele>700</ele>
        <time>2024-09-15T13:40:04Z</time>
      </trkpt>
      <trkpt lat="45.82159" lon="1.86307">
        <ele>700</ele>
        <time>2024-09-15T13:40:05Z</time>
      </trkpt>
      <trkpt lat="45.82157" lon="1.86301">
        <ele>700.2</ele>
        <time>2024-09-15T13:40:06Z</time>
      </trkpt>
      <trkpt lat="45.82158" lon="1.86295">
        <ele>700.4</ele>
        <time>2024-09-15T13:40:07Z</time>
      </trkpt>
      <trkpt lat="45.82158" lon="1.8629">
        <ele>700.4</ele>
        <time>2024-09-15T13:40:08Z</time>
      </trkpt>
      <trkpt lat="45.82158" lon="1.86286">
        <ele>700.4</ele>
        <time>2024-09-15T13:40:09Z</time>
      </trkpt>
      <trkpt lat="45.82156" lon="1.86281">
        <ele>700.6</ele>
        <time>2024-09-15T13:40:10Z</time>
      </trkpt>
      <trkpt lat="45.82156" lon="1.86276">
        <ele>700.4</ele>
        <time>2024-09-15T13:40:11Z</time>
      </trkpt>
      <trkpt lat="45.82156" lon="1.86272">
        <ele>700.6</ele>
        <time>2024-09-15T13:40:12Z</time>
      </trkpt>
      <trkpt lat="45.82156" lon="1.86267">
        <ele>700.6</ele>
        <time>2024-09-15T13:40:13Z</time>
      </trkpt>
      <trkpt lat="45.82156" lon="1.86262">
        <ele>700.4</ele>
        <time>2024-09-15T13:40:14Z</time>
      </trkpt>
      <trkpt lat="45.82158" lon="1.86257">
        <ele>700.6</ele>
        <time>2024-09-15T13:40:15Z</time>
      </trkpt>
      <trkpt lat="45.82158" lon="1.8625">
        <ele>700.6</ele>
        <time>2024-09-15T13:40:16Z</time>
      </trkpt>
      <trkpt lat="45.82161" lon="1.86243">
        <ele>700.6</ele>
        <time>2024-09-15T13:40:17Z</time>
      </trkpt>
      <trkpt lat="45.82162" lon="1.86237">
        <ele>700.6</ele>
        <time>2024-09-15T13:40:18Z</time>
      </trkpt>
      <trkpt lat="45.82165" lon="1.86231">
        <ele>700.4</ele>
        <time>2024-09-15T13:40:19Z</time>
      </trkpt>
      <trkpt lat="45.82165" lon="1.86226">
        <ele>700</ele>
        <time>2024-09-15T13:40:20Z</time>
      </trkpt>
      <trkpt lat="45.82161" lon="1.86214">
        <ele>699.6</ele>
        <time>2024-09-15T13:40:22Z</time>
      </trkpt>
      <trkpt lat="45.82165" lon="1.86203">
        <ele>699.4</ele>
        <time>2024-09-15T13:40:24Z</time>
      </trkpt>
      <trkpt lat="45.82166" lon="1.86199">
        <ele>699.2</ele>
        <time>2024-09-15T13:40:25Z</time>
      </trkpt>
      <trkpt lat="45.82165" lon="1.86195">
        <ele>699</ele>
        <time>2024-09-15T13:40:26Z</time>
      </trkpt>
      <trkpt lat="45.82166" lon="1.86192">
        <ele>698.8</ele>
        <time>2024-09-15T13:40:27Z</time>
      </trkpt>
      <trkpt lat="45.82165" lon="1.86189">
        <ele>698</ele>
        <time>2024-09-15T13:40:28Z</time>
      </trkpt>
      <trkpt lat="45.82165" lon="1.86186">
        <ele>697.6</ele>
        <time>2024-09-15T13:40:29Z</time>
      </trkpt>
      <trkpt lat="45.82165" lon="1.86182">
        <ele>697.2</ele>
        <time>2024-09-15T13:40:30Z</time>
      </trkpt>
      <trkpt lat="45.82165" lon="1.86175">
        <ele>697</ele>
        <time>2024-09-15T13:40:31Z</time>
      </trkpt>
      <trkpt lat="45.82162" lon="1.86168">
        <ele>696.8</ele>
        <time>2024-09-15T13:40:32Z</time>
      </trkpt>
      <trkpt lat="45.82158" lon="1.8616">
        <ele>696.4</ele>
        <time>2024-09-15T13:40:33Z</time>
      </trkpt>
      <trkpt lat="45.82156" lon="1.86148">
        <ele>695.6</ele>
        <time>2024-09-15T13:40:35Z</time>
      </trkpt>
      <trkpt lat="45.82156" lon="1.86143">
        <ele>695.2</ele>
        <time>2024-09-15T13:40:36Z</time>
      </trkpt>
      <trkpt lat="45.82157" lon="1.86137">
        <ele>694.4</ele>
        <time>2024-09-15T13:40:37Z</time>
      </trkpt>
      <trkpt lat="45.82158" lon="1.86131">
        <ele>694</ele>
        <time>2024-09-15T13:40:38Z</time>
      </trkpt>
      <trkpt lat="45.8216" lon="1.86122">
        <ele>693.2</ele>
        <time>2024-09-15T13:40:40Z</time>
      </trkpt>
      <trkpt lat="45.82162" lon="1.86118">
        <ele>692.2</ele>
        <time>2024-09-15T13:40:41Z</time>
      </trkpt>
      <trkpt lat="45.82162" lon="1.86116">
        <ele>691.4</ele>
        <time>2024-09-15T13:40:42Z</time>
      </trkpt>
      <trkpt lat="45.82163" lon="1.86112">
        <ele>691</ele>
        <time>2024-09-15T13:40:43Z</time>
      </trkpt>
      <trkpt lat="45.82162" lon="1.86107">
        <ele>690.6</ele>
        <time>2024-09-15T13:40:44Z</time>
      </trkpt>
      <trkpt lat="45.82159" lon="1.86103">
        <ele>690.4</ele>
        <time>2024-09-15T13:40:45Z</time>
      </trkpt>
      <trkpt lat="45.82157" lon="1.86099">
        <ele>689.6</ele>
        <time>2024-09-15T13:40:46Z</time>
      </trkpt>
      <trkpt lat="45.82158" lon="1.86096">
        <ele>689.4</ele>
        <time>2024-09-15T13:40:47Z</time>
      </trkpt>
      <trkpt lat="45.82159" lon="1.86092">
        <ele>689.2</ele>
        <time>2024-09-15T13:40:48Z</time>
      </trkpt>
      <trkpt lat="45.8216" lon="1.8609">
        <ele>689</ele>
        <time>2024-09-15T13:40:49Z</time>
      </trkpt>
      <trkpt lat="45.82159" lon="1.86085">
        <ele>688.6</ele>
        <time>2024-09-15T13:40:50Z</time>
      </trkpt>
      <trkpt lat="45.82157" lon="1.86077">
        <ele>688.6</ele>
        <time>2024-09-15T13:40:51Z</time>
      </trkpt>
      <trkpt lat="45.82155" lon="1.86072">
        <ele>688</ele>
        <time>2024-09-15T13:40:52Z</time>
      </trkpt>
      <trkpt lat="45.82154" lon="1.86067">
        <ele>687.6</ele>
        <time>2024-09-15T13:40:53Z</time>
      </trkpt>
      <trkpt lat="45.82152" lon="1.86062">
        <ele>687.4</ele>
        <time>2024-09-15T13:40:54Z</time>
      </trkpt>
      <trkpt lat="45.82149" lon="1.86054">
        <ele>687.2</ele>
        <time>2024-09-15T13:40:56Z</time>
      </trkpt>
      <trkpt lat="45.82148" lon="1.86041">
        <ele>686.6</ele>
        <time>2024-09-15T13:40:59Z</time>
      </trkpt>
      <trkpt lat="45.82148" lon="1.86039">
        <ele>686.6</ele>
        <time>2024-09-15T13:41:00Z</time>
      </trkpt>
      <trkpt lat="45.82148" lon="1.86036">
        <ele>686.2</ele>
        <time>2024-09-15T13:41:01Z</time>
      </trkpt>
      <trkpt lat="45.82149" lon="1.86032">
        <ele>686</ele>
        <time>2024-09-15T13:41:02Z</time>
      </trkpt>
      <trkpt lat="45.82149" lon="1.86029">
        <ele>685.4</ele>
        <time>2024-09-15T13:41:03Z</time>
      </trkpt>
      <trkpt lat="45.82152" lon="1.86025">
        <ele>685</ele>
        <time>2024-09-15T13:41:04Z</time>
      </trkpt>
      <trkpt lat="45.82156" lon="1.86022">
        <ele>684.6</ele>
        <time>2024-09-15T13:41:05Z</time>
      </trkpt>
      <trkpt lat="45.82157" lon="1.86018">
        <ele>684.4</ele>
        <time>2024-09-15T13:41:06Z</time>
      </trkpt>
      <trkpt lat="45.82159" lon="1.86015">
        <ele>684.2</ele>
        <time>2024-09-15T13:41:07Z</time>
      </trkpt>
      <trkpt lat="45.82161" lon="1.86014">
        <ele>683.8</ele>
        <time>2024-09-15T13:41:08Z</time>
      </trkpt>
      <trkpt lat="45.82163" lon="1.86013">
        <ele>683.6</ele>
        <time>2024-09-15T13:41:09Z</time>
      </trkpt>
      <trkpt lat="45.82163" lon="1.86012">
        <ele>683.4</ele>
        <time>2024-09-15T13:41:10Z</time>
      </trkpt>
      <trkpt lat="45.82164" lon="1.86011">
        <ele>683.4</ele>
        <time>2024-09-15T13:41:11Z</time>
      </trkpt>
      <trkpt lat="45.82167" lon="1.8601">
        <ele>682.6</ele>
        <time>2024-09-15T13:41:12Z</time>
      </trkpt>
      <trkpt lat="45.82173" lon="1.86006">
        <ele>681.6</ele>
        <time>2024-09-15T13:41:14Z</time>
      </trkpt>
      <trkpt lat="45.82181" lon="1.86005">
        <ele>681.2</ele>
        <time>2024-09-15T13:41:16Z</time>
      </trkpt>
      <trkpt lat="45.82185" lon="1.86003">
        <ele>681</ele>
        <time>2024-09-15T13:41:17Z</time>
      </trkpt>
      <trkpt lat="45.82186" lon="1.86001">
        <ele>680.4</ele>
        <time>2024-09-15T13:41:18Z</time>
      </trkpt>
      <trkpt lat="45.82187" lon="1.85998">
        <ele>679.8</ele>
        <time>2024-09-15T13:41:19Z</time>
      </trkpt>
      <trkpt lat="45.82189" lon="1.85993">
        <ele>679.6</ele>
        <time>2024-09-15T13:41:20Z</time>
      </trkpt>
      <trkpt lat="45.82192" lon="1.85988">
        <ele>679.4</ele>
        <time>2024-09-15T13:41:21Z</time>
      </trkpt>
      <trkpt lat="45.82196" lon="1.85985">
        <ele>679.2</ele>
        <time>2024-09-15T13:41:22Z</time>
      </trkpt>
      <trkpt lat="45.822" lon="1.85982">
        <ele>679</ele>
        <time>2024-09-15T13:41:23Z</time>
      </trkpt>
      <trkpt lat="45.82203" lon="1.85977">
        <ele>679</ele>
        <time>2024-09-15T13:41:24Z</time>
      </trkpt>
      <trkpt lat="45.82204" lon="1.85974">
        <ele>678.6</ele>
        <time>2024-09-15T13:41:25Z</time>
      </trkpt>
      <trkpt lat="45.82206" lon="1.8597">
        <ele>678.6</ele>
        <time>2024-09-15T13:41:26Z</time>
      </trkpt>
      <trkpt lat="45.82208" lon="1.85965">
        <ele>678</ele>
        <time>2024-09-15T13:41:27Z</time>
      </trkpt>
      <trkpt lat="45.8221" lon="1.85962">
        <ele>677.8</ele>
        <time>2024-09-15T13:41:28Z</time>
      </trkpt>
      <trkpt lat="45.8221" lon="1.85954">
        <ele>677.6</ele>
        <time>2024-09-15T13:41:30Z</time>
      </trkpt>
      <trkpt lat="45.82212" lon="1.8595">
        <ele>677.2</ele>
        <time>2024-09-15T13:41:31Z</time>
      </trkpt>
      <trkpt lat="45.82221" lon="1.85937">
        <ele>676.2</ele>
        <time>2024-09-15T13:41:34Z</time>
      </trkpt>
      <trkpt lat="45.82226" lon="1.85926">
        <ele>675.6</ele>
        <time>2024-09-15T13:41:36Z</time>
      </trkpt>
      <trkpt lat="45.82235" lon="1.85911">
        <ele>675.2</ele>
        <time>2024-09-15T13:41:39Z</time>
      </trkpt>
      <trkpt lat="45.82245" lon="1.85889">
        <ele>674.6</ele>
        <time>2024-09-15T13:41:43Z</time>
      </trkpt>
      <trkpt lat="45.82248" lon="1.85879">
        <ele>674.6</ele>
        <time>2024-09-15T13:41:45Z</time>
      </trkpt>
      <trkpt lat="45.82249" lon="1.85872">
        <ele>674.6</ele>
        <time>2024-09-15T13:41:46Z</time>
      </trkpt>
      <trkpt lat="45.82249" lon="1.85862">
        <ele>674.6</ele>
        <time>2024-09-15T13:41:48Z</time>
      </trkpt>
      <trkpt lat="45.82249" lon="1.85855">
        <ele>674.4</ele>
        <time>2024-09-15T13:41:49Z</time>
      </trkpt>
      <trkpt lat="45.82249" lon="1.85849">
        <ele>674.4</ele>
        <time>2024-09-15T13:41:50Z</time>
      </trkpt>
      <trkpt lat="45.82249" lon="1.85842">
        <ele>674.4</ele>
        <time>2024-09-15T13:41:51Z</time>
      </trkpt>
      <trkpt lat="45.82246" lon="1.85819">
        <ele>674.2</ele>
        <time>2024-09-15T13:41:55Z</time>
      </trkpt>
      <trkpt lat="45.82244" lon="1.85806">
        <ele>674</ele>
        <time>2024-09-15T13:41:57Z</time>
      </trkpt>
      <trkpt lat="45.8224" lon="1.85788">
        <ele>673.6</ele>
        <time>2024-09-15T13:42:00Z</time>
      </trkpt>
      <trkpt lat="45.82237" lon="1.85774">
        <ele>673.6</ele>
        <time>2024-09-15T13:42:03Z</time>
      </trkpt>
      <trkpt lat="45.82236" lon="1.8577">
        <ele>673.2</ele>
        <time>2024-09-15T13:42:04Z</time>
      </trkpt>
      <trkpt lat="45.82235" lon="1.85765">
        <ele>673.2</ele>
        <time>2024-09-15T13:42:05Z</time>
      </trkpt>
      <trkpt lat="45.82233" lon="1.85761">
        <ele>672.8</ele>
        <time>2024-09-15T13:42:06Z</time>
      </trkpt>
      <trkpt lat="45.82229" lon="1.85755">
        <ele>672.4</ele>
        <time>2024-09-15T13:42:08Z</time>
      </trkpt>
      <trkpt lat="45.82227" lon="1.85753">
        <ele>672</ele>
        <time>2024-09-15T13:42:09Z</time>
      </trkpt>
      <trkpt lat="45.82224" lon="1.85751">
        <ele>671.8</ele>
        <time>2024-09-15T13:42:10Z</time>
      </trkpt>
      <trkpt lat="45.82222" lon="1.85749">
        <ele>671.4</ele>
        <time>2024-09-15T13:42:11Z</time>
      </trkpt>
      <trkpt lat="45.8222" lon="1.85748">
        <ele>671.4</ele>
        <time>2024-09-15T13:42:12Z</time>
      </trkpt>
      <trkpt lat="45.82217" lon="1.85746">
        <ele>671</ele>
        <time>2024-09-15T13:42:13Z</time>
      </trkpt>
      <trkpt lat="45.82214" lon="1.85743">
        <ele>670.8</ele>
        <time>2024-09-15T13:42:14Z</time>
      </trkpt>
      <trkpt lat="45.82212" lon="1.85741">
        <ele>670.2</ele>
        <time>2024-09-15T13:42:15Z</time>
      </trkpt>
      <trkpt lat="45.82209" lon="1.85739">
        <ele>669.6</ele>
        <time>2024-09-15T13:42:16Z</time>
      </trkpt>
      <trkpt lat="45.82207" lon="1.85738">
        <ele>669</ele>
        <time>2024-09-15T13:42:17Z</time>
      </trkpt>
      <trkpt lat="45.82205" lon="1.85736">
        <ele>668.6</ele>
        <time>2024-09-15T13:42:18Z</time>
      </trkpt>
      <trkpt lat="45.82203" lon="1.85734">
        <ele>668.4</ele>
        <time>2024-09-15T13:42:19Z</time>
      </trkpt>
      <trkpt lat="45.822" lon="1.85733">
        <ele>667.8</ele>
        <time>2024-09-15T13:42:21Z</time>
      </trkpt>
      <trkpt lat="45.82198" lon="1.85731">
        <ele>667.4</ele>
        <time>2024-09-15T13:42:22Z</time>
      </trkpt>
      <trkpt lat="45.8219" lon="1.85721">
        <ele>666.8</ele>
        <time>2024-09-15T13:42:26Z</time>
      </trkpt>
      <trkpt lat="45.82188" lon="1.85719">
        <ele>666.4</ele>
        <time>2024-09-15T13:42:27Z</time>
      </trkpt>
      <trkpt lat="45.82187" lon="1.85716">
        <ele>666.2</ele>
        <time>2024-09-15T13:42:28Z</time>
      </trkpt>
      <trkpt lat="45.82186" lon="1.85715">
        <ele>665.8</ele>
        <time>2024-09-15T13:42:29Z</time>
      </trkpt>
      <trkpt lat="45.82184" lon="1.85713">
        <ele>665.2</ele>
        <time>2024-09-15T13:42:30Z</time>
      </trkpt>
      <trkpt lat="45.82182" lon="1.85712">
        <ele>665</ele>
        <time>2024-09-15T13:42:31Z</time>
      </trkpt>
      <trkpt lat="45.82181" lon="1.85712">
        <ele>664.8</ele>
        <time>2024-09-15T13:42:32Z</time>
      </trkpt>
      <trkpt lat="45.8218" lon="1.85712">
        <ele>664.6</ele>
        <time>2024-09-15T13:42:33Z</time>
      </trkpt>
      <trkpt lat="45.8218" lon="1.85712">
        <ele>664.4</ele>
        <time>2024-09-15T13:42:34Z</time>
      </trkpt>
      <trkpt lat="45.8218" lon="1.85712">
        <ele>664</ele>
        <time>2024-09-15T13:42:35Z</time>
      </trkpt>
      <trkpt lat="45.82179" lon="1.85715">
        <ele>662.8</ele>
        <time>2024-09-15T13:42:58Z</time>
      </trkpt>
      <trkpt lat="45.82178" lon="1.85717">
        <ele>662.8</ele>
        <time>2024-09-15T13:42:59Z</time>
      </trkpt>
      <trkpt lat="45.82176" lon="1.85719">
        <ele>662.8</ele>
        <time>2024-09-15T13:43:00Z</time>
      </trkpt>
      <trkpt lat="45.82174" lon="1.85722">
        <ele>662.8</ele>
        <time>2024-09-15T13:43:01Z</time>
      </trkpt>
      <trkpt lat="45.82167" lon="1.85731">
        <ele>662.8</ele>
        <time>2024-09-15T13:43:04Z</time>
      </trkpt>
      <trkpt lat="45.82154" lon="1.85758">
        <ele>662.8</ele>
        <time>2024-09-15T13:43:10Z</time>
      </trkpt>
      <trkpt lat="45.82137" lon="1.85775">
        <ele>662.4</ele>
        <time>2024-09-15T13:43:16Z</time>
      </trkpt>
      <trkpt lat="45.82134" lon="1.85776">
        <ele>662.2</ele>
        <time>2024-09-15T13:43:17Z</time>
      </trkpt>
      <trkpt lat="45.82131" lon="1.85777">
        <ele>662.2</ele>
        <time>2024-09-15T13:43:18Z</time>
      </trkpt>
      <trkpt lat="45.8213" lon="1.8578">
        <ele>662</ele>
        <time>2024-09-15T13:43:19Z</time>
      </trkpt>
      <trkpt lat="45.82128" lon="1.85783">
        <ele>661.8</ele>
        <time>2024-09-15T13:43:20Z</time>
      </trkpt>
      <trkpt lat="45.82126" lon="1.85788">
        <ele>661.8</ele>
        <time>2024-09-15T13:43:21Z</time>
      </trkpt>
      <trkpt lat="45.82126" lon="1.85791">
        <ele>661.6</ele>
        <time>2024-09-15T13:43:22Z</time>
      </trkpt>
      <trkpt lat="45.82126" lon="1.85795">
        <ele>661.6</ele>
        <time>2024-09-15T13:43:23Z</time>
      </trkpt>
      <trkpt lat="45.82126" lon="1.85798">
        <ele>661.6</ele>
        <time>2024-09-15T13:43:24Z</time>
      </trkpt>
      <trkpt lat="45.82126" lon="1.85802">
        <ele>661.8</ele>
        <time>2024-09-15T13:43:25Z</time>
      </trkpt>
      <trkpt lat="45.82125" lon="1.85805">
        <ele>661.8</ele>
        <time>2024-09-15T13:43:26Z</time>
      </trkpt>
      <trkpt lat="45.82124" lon="1.85808">
        <ele>661.8</ele>
        <time>2024-09-15T13:43:27Z</time>
      </trkpt>
      <trkpt lat="45.82123" lon="1.8581">
        <ele>661.8</ele>
        <time>2024-09-15T13:43:28Z</time>
      </trkpt>
      <trkpt lat="45.82121" lon="1.85812">
        <ele>661.8</ele>
        <time>2024-09-15T13:43:29Z</time>
      </trkpt>
      <trkpt lat="45.8212" lon="1.85813">
        <ele>662.2</ele>
        <time>2024-09-15T13:43:30Z</time>
      </trkpt>
      <trkpt lat="45.82118" lon="1.85815">
        <ele>662.4</ele>
        <time>2024-09-15T13:43:31Z</time>
      </trkpt>
      <trkpt lat="45.82116" lon="1.85816">
        <ele>662.6</ele>
        <time>2024-09-15T13:43:32Z</time>
      </trkpt>
      <trkpt lat="45.82114" lon="1.85817">
        <ele>662.8</ele>
        <time>2024-09-15T13:43:33Z</time>
      </trkpt>
      <trkpt lat="45.82112" lon="1.85818">
        <ele>663</ele>
        <time>2024-09-15T13:43:34Z</time>
      </trkpt>
      <trkpt lat="45.82111" lon="1.85819">
        <ele>663.4</ele>
        <time>2024-09-15T13:43:35Z</time>
      </trkpt>
      <trkpt lat="45.8211" lon="1.85822">
        <ele>663.8</ele>
        <time>2024-09-15T13:43:36Z</time>
      </trkpt>
      <trkpt lat="45.82109" lon="1.85824">
        <ele>663.8</ele>
        <time>2024-09-15T13:43:37Z</time>
      </trkpt>
      <trkpt lat="45.82109" lon="1.85824">
        <ele>664</ele>
        <time>2024-09-15T13:43:38Z</time>
      </trkpt>
      <trkpt lat="45.82108" lon="1.85826">
        <ele>664</ele>
        <time>2024-09-15T13:43:39Z</time>
      </trkpt>
      <trkpt lat="45.82107" lon="1.85828">
        <ele>664.4</ele>
        <time>2024-09-15T13:43:40Z</time>
      </trkpt>
      <trkpt lat="45.82105" lon="1.8583">
        <ele>664.6</ele>
        <time>2024-09-15T13:43:41Z</time>
      </trkpt>
      <trkpt lat="45.82104" lon="1.85832">
        <ele>665</ele>
        <time>2024-09-15T13:43:42Z</time>
      </trkpt>
      <trkpt lat="45.82102" lon="1.85834">
        <ele>665.2</ele>
        <time>2024-09-15T13:43:43Z</time>
      </trkpt>
      <trkpt lat="45.82101" lon="1.85836">
        <ele>665.4</ele>
        <time>2024-09-15T13:43:44Z</time>
      </trkpt>
      <trkpt lat="45.82099" lon="1.85838">
        <ele>665.4</ele>
        <time>2024-09-15T13:43:45Z</time>
      </trkpt>
      <trkpt lat="45.82098" lon="1.85839">
        <ele>665.8</ele>
        <time>2024-09-15T13:43:46Z</time>
      </trkpt>
      <trkpt lat="45.82096" lon="1.85841">
        <ele>666</ele>
        <time>2024-09-15T13:43:47Z</time>
      </trkpt>
      <trkpt lat="45.82094" lon="1.85842">
        <ele>666.2</ele>
        <time>2024-09-15T13:43:48Z</time>
      </trkpt>
      <trkpt lat="45.82092" lon="1.85843">
        <ele>666.2</ele>
        <time>2024-09-15T13:43:49Z</time>
      </trkpt>
      <trkpt lat="45.8209" lon="1.85845">
        <ele>666.4</ele>
        <time>2024-09-15T13:43:50Z</time>
      </trkpt>
      <trkpt lat="45.82089" lon="1.85846">
        <ele>666.6</ele>
        <time>2024-09-15T13:43:51Z</time>
      </trkpt>
      <trkpt lat="45.82088" lon="1.85846">
        <ele>666.6</ele>
        <time>2024-09-15T13:43:52Z</time>
      </trkpt>
      <trkpt lat="45.82087" lon="1.85847">
        <ele>666.8</ele>
        <time>2024-09-15T13:43:53Z</time>
      </trkpt>
      <trkpt lat="45.82084" lon="1.85849">
        <ele>667.2</ele>
        <time>2024-09-15T13:43:54Z</time>
      </trkpt>
      <trkpt lat="45.82082" lon="1.8585">
        <ele>667.2</ele>
        <time>2024-09-15T13:43:55Z</time>
      </trkpt>
      <trkpt lat="45.82078" lon="1.85852">
        <ele>667.4</ele>
        <time>2024-09-15T13:43:56Z</time>
      </trkpt>
      <trkpt lat="45.82076" lon="1.85854">
        <ele>667.6</ele>
        <time>2024-09-15T13:43:57Z</time>
      </trkpt>
      <trkpt lat="45.82073" lon="1.85857">
        <ele>667.8</ele>
        <time>2024-09-15T13:43:58Z</time>
      </trkpt>
      <trkpt lat="45.82072" lon="1.85857">
        <ele>668.2</ele>
        <time>2024-09-15T13:43:59Z</time>
      </trkpt>
      <trkpt lat="45.82072" lon="1.85857">
        <ele>668.2</ele>
        <time>2024-09-15T13:44:00Z</time>
      </trkpt>
      <trkpt lat="45.82072" lon="1.85857">
        <ele>668.6</ele>
        <time>2024-09-15T13:44:01Z</time>
      </trkpt>
      <trkpt lat="45.82072" lon="1.85857">
        <ele>668.8</ele>
        <time>2024-09-15T13:44:02Z</time>
      </trkpt>
      <trkpt lat="45.82065" lon="1.85858">
        <ele>669</ele>
        <time>2024-09-15T13:44:12Z</time>
      </trkpt>
      <trkpt lat="45.82065" lon="1.85858">
        <ele>669</ele>
        <time>2024-09-15T13:44:13Z</time>
      </trkpt>
      <trkpt lat="45.82065" lon="1.85858">
        <ele>669</ele>
        <time>2024-09-15T13:44:14Z</time>
      </trkpt>
      <trkpt lat="45.82061" lon="1.85863">
        <ele>669</ele>
        <time>2024-09-15T13:44:22Z</time>
      </trkpt>
      <trkpt lat="45.8206" lon="1.85864">
        <ele>669</ele>
        <time>2024-09-15T13:44:23Z</time>
      </trkpt>
      <trkpt lat="45.8206" lon="1.85864">
        <ele>669</ele>
        <time>2024-09-15T13:44:25Z</time>
      </trkpt>
      <trkpt lat="45.82057" lon="1.85868">
        <ele>669.8</ele>
        <time>2024-09-15T13:44:30Z</time>
      </trkpt>
      <trkpt lat="45.82057" lon="1.85871">
        <ele>669.8</ele>
        <time>2024-09-15T13:44:31Z</time>
      </trkpt>
      <trkpt lat="45.82056" lon="1.85874">
        <ele>670</ele>
        <time>2024-09-15T13:44:32Z</time>
      </trkpt>
      <trkpt lat="45.82053" lon="1.85877">
        <ele>670.2</ele>
        <time>2024-09-15T13:44:33Z</time>
      </trkpt>
      <trkpt lat="45.82049" lon="1.8588">
        <ele>670.6</ele>
        <time>2024-09-15T13:44:34Z</time>
      </trkpt>
      <trkpt lat="45.82041" lon="1.85887">
        <ele>670.8</ele>
        <time>2024-09-15T13:44:37Z</time>
      </trkpt>
      <trkpt lat="45.82039" lon="1.85889">
        <ele>671</ele>
        <time>2024-09-15T13:44:38Z</time>
      </trkpt>
      <trkpt lat="45.82036" lon="1.85891">
        <ele>671</ele>
        <time>2024-09-15T13:44:39Z</time>
      </trkpt>
      <trkpt lat="45.82033" lon="1.85892">
        <ele>671.2</ele>
        <time>2024-09-15T13:44:40Z</time>
      </trkpt>
      <trkpt lat="45.82028" lon="1.85896">
        <ele>671.6</ele>
        <time>2024-09-15T13:44:42Z</time>
      </trkpt>
      <trkpt lat="45.82019" lon="1.859">
        <ele>671.8</ele>
        <time>2024-09-15T13:44:44Z</time>
      </trkpt>
      <trkpt lat="45.82015" lon="1.85902">
        <ele>672.2</ele>
        <time>2024-09-15T13:44:45Z</time>
      </trkpt>
      <trkpt lat="45.82012" lon="1.85905">
        <ele>672.2</ele>
        <time>2024-09-15T13:44:46Z</time>
      </trkpt>
      <trkpt lat="45.82008" lon="1.85908">
        <ele>672.4</ele>
        <time>2024-09-15T13:44:47Z</time>
      </trkpt>
      <trkpt lat="45.82003" lon="1.85911">
        <ele>672.4</ele>
        <time>2024-09-15T13:44:48Z</time>
      </trkpt>
      <trkpt lat="45.81997" lon="1.85913">
        <ele>672.4</ele>
        <time>2024-09-15T13:44:49Z</time>
      </trkpt>
      <trkpt lat="45.81991" lon="1.85915">
        <ele>672.4</ele>
        <time>2024-09-15T13:44:50Z</time>
      </trkpt>
      <trkpt lat="45.81988" lon="1.85918">
        <ele>672.4</ele>
        <time>2024-09-15T13:44:51Z</time>
      </trkpt>
      <trkpt lat="45.81982" lon="1.8592">
        <ele>672.4</ele>
        <time>2024-09-15T13:44:52Z</time>
      </trkpt>
      <trkpt lat="45.81978" lon="1.85922">
        <ele>672.4</ele>
        <time>2024-09-15T13:44:53Z</time>
      </trkpt>
      <trkpt lat="45.81975" lon="1.85924">
        <ele>672.2</ele>
        <time>2024-09-15T13:44:54Z</time>
      </trkpt>
      <trkpt lat="45.81974" lon="1.85925">
        <ele>672.2</ele>
        <time>2024-09-15T13:44:55Z</time>
      </trkpt>
      <trkpt lat="45.81972" lon="1.85927">
        <ele>672</ele>
        <time>2024-09-15T13:44:56Z</time>
      </trkpt>
      <trkpt lat="45.8197" lon="1.8593">
        <ele>672</ele>
        <time>2024-09-15T13:44:57Z</time>
      </trkpt>
      <trkpt lat="45.81965" lon="1.85934">
        <ele>672</ele>
        <time>2024-09-15T13:44:58Z</time>
      </trkpt>
      <trkpt lat="45.81964" lon="1.85937">
        <ele>672</ele>
        <time>2024-09-15T13:44:59Z</time>
      </trkpt>
      <trkpt lat="45.8196" lon="1.85942">
        <ele>672</ele>
        <time>2024-09-15T13:45:00Z</time>
      </trkpt>
      <trkpt lat="45.81956" lon="1.85948">
        <ele>672</ele>
        <time>2024-09-15T13:45:01Z</time>
      </trkpt>
      <trkpt lat="45.81946" lon="1.85963">
        <ele>672</ele>
        <time>2024-09-15T13:45:04Z</time>
      </trkpt>
      <trkpt lat="45.81941" lon="1.85975">
        <ele>672</ele>
        <time>2024-09-15T13:45:06Z</time>
      </trkpt>
      <trkpt lat="45.81937" lon="1.85981">
        <ele>672</ele>
        <time>2024-09-15T13:45:07Z</time>
      </trkpt>
      <trkpt lat="45.81933" lon="1.85985">
        <ele>672</ele>
        <time>2024-09-15T13:45:08Z</time>
      </trkpt>
      <trkpt lat="45.81923" lon="1.85997">
        <ele>671.8</ele>
        <time>2024-09-15T13:45:10Z</time>
      </trkpt>
      <trkpt lat="45.81916" lon="1.86007">
        <ele>671.4</ele>
        <time>2024-09-15T13:45:12Z</time>
      </trkpt>
      <trkpt lat="45.81909" lon="1.86016">
        <ele>671.2</ele>
        <time>2024-09-15T13:45:14Z</time>
      </trkpt>
      <trkpt lat="45.81906" lon="1.8602">
        <ele>671</ele>
        <time>2024-09-15T13:45:15Z</time>
      </trkpt>
      <trkpt lat="45.81903" lon="1.86024">
        <ele>671</ele>
        <time>2024-09-15T13:45:16Z</time>
      </trkpt>
      <trkpt lat="45.81901" lon="1.86026">
        <ele>671</ele>
        <time>2024-09-15T13:45:17Z</time>
      </trkpt>
      <trkpt lat="45.81897" lon="1.8603">
        <ele>670.8</ele>
        <time>2024-09-15T13:45:18Z</time>
      </trkpt>
      <trkpt lat="45.81894" lon="1.86032">
        <ele>670.8</ele>
        <time>2024-09-15T13:45:19Z</time>
      </trkpt>
      <trkpt lat="45.81892" lon="1.86034">
        <ele>670.6</ele>
        <time>2024-09-15T13:45:20Z</time>
      </trkpt>
      <trkpt lat="45.8189" lon="1.86034">
        <ele>670.4</ele>
        <time>2024-09-15T13:45:21Z</time>
      </trkpt>
      <trkpt lat="45.81889" lon="1.86035">
        <ele>670.4</ele>
        <time>2024-09-15T13:45:22Z</time>
      </trkpt>
      <trkpt lat="45.81887" lon="1.86036">
        <ele>670.4</ele>
        <time>2024-09-15T13:45:23Z</time>
      </trkpt>
      <trkpt lat="45.81878" lon="1.8604">
        <ele>669.4</ele>
        <time>2024-09-15T13:45:25Z</time>
      </trkpt>
      <trkpt lat="45.81872" lon="1.86043">
        <ele>668.2</ele>
        <time>2024-09-15T13:45:27Z</time>
      </trkpt>
      <trkpt lat="45.81871" lon="1.86044">
        <ele>668</ele>
        <time>2024-09-15T13:45:28Z</time>
      </trkpt>
      <trkpt lat="45.81869" lon="1.86044">
        <ele>667</ele>
        <time>2024-09-15T13:45:29Z</time>
      </trkpt>
      <trkpt lat="45.81867" lon="1.86045">
        <ele>666.6</ele>
        <time>2024-09-15T13:45:30Z</time>
      </trkpt>
      <trkpt lat="45.81866" lon="1.86045">
        <ele>666</ele>
        <time>2024-09-15T13:45:31Z</time>
      </trkpt>
      <trkpt lat="45.81864" lon="1.86046">
        <ele>665.8</ele>
        <time>2024-09-15T13:45:32Z</time>
      </trkpt>
      <trkpt lat="45.8186" lon="1.86047">
        <ele>665.2</ele>
        <time>2024-09-15T13:45:33Z</time>
      </trkpt>
      <trkpt lat="45.81855" lon="1.86049">
        <ele>664.8</ele>
        <time>2024-09-15T13:45:34Z</time>
      </trkpt>
      <trkpt lat="45.81844" lon="1.86056">
        <ele>663.4</ele>
        <time>2024-09-15T13:45:36Z</time>
      </trkpt>
      <trkpt lat="45.81842" lon="1.86057">
        <ele>663.2</ele>
        <time>2024-09-15T13:45:37Z</time>
      </trkpt>
      <trkpt lat="45.8184" lon="1.86058">
        <ele>662.2</ele>
        <time>2024-09-15T13:45:38Z</time>
      </trkpt>
      <trkpt lat="45.81839" lon="1.86058">
        <ele>662</ele>
        <time>2024-09-15T13:45:39Z</time>
      </trkpt>
      <trkpt lat="45.81837" lon="1.86058">
        <ele>661.4</ele>
        <time>2024-09-15T13:45:40Z</time>
      </trkpt>
      <trkpt lat="45.81835" lon="1.86059">
        <ele>661.2</ele>
        <time>2024-09-15T13:45:41Z</time>
      </trkpt>
      <trkpt lat="45.81827" lon="1.8606">
        <ele>660</ele>
        <time>2024-09-15T13:45:44Z</time>
      </trkpt>
      <trkpt lat="45.81826" lon="1.8606">
        <ele>660</ele>
        <time>2024-09-15T13:45:45Z</time>
      </trkpt>
      <trkpt lat="45.81826" lon="1.8606">
        <ele>659.4</ele>
        <time>2024-09-15T13:45:46Z</time>
      </trkpt>
      <trkpt lat="45.81826" lon="1.8606">
        <ele>659.2</ele>
        <time>2024-09-15T13:45:47Z</time>
      </trkpt>
      <trkpt lat="45.81826" lon="1.8606">
        <ele>659</ele>
        <time>2024-09-15T13:45:48Z</time>
      </trkpt>
      <trkpt lat="45.81826" lon="1.8606">
        <ele>659</ele>
        <time>2024-09-15T13:45:49Z</time>
      </trkpt>
      <trkpt lat="45.81823" lon="1.86059">
        <ele>657.6</ele>
        <time>2024-09-15T13:46:29Z</time>
      </trkpt>
      <trkpt lat="45.8182" lon="1.86058">
        <ele>657.6</ele>
        <time>2024-09-15T13:46:30Z</time>
      </trkpt>
      <trkpt lat="45.81808" lon="1.86056">
        <ele>657.4</ele>
        <time>2024-09-15T13:46:34Z</time>
      </trkpt>
      <trkpt lat="45.81794" lon="1.86055">
        <ele>656.8</ele>
        <time>2024-09-15T13:46:38Z</time>
      </trkpt>
      <trkpt lat="45.8178" lon="1.86047">
        <ele>656.6</ele>
        <time>2024-09-15T13:46:43Z</time>
      </trkpt>
      <trkpt lat="45.81773" lon="1.86043">
        <ele>656.6</ele>
        <time>2024-09-15T13:46:45Z</time>
      </trkpt>
      <trkpt lat="45.81752" lon="1.86028">
        <ele>656.6</ele>
        <time>2024-09-15T13:46:51Z</time>
      </trkpt>
      <trkpt lat="45.81744" lon="1.86022">
        <ele>656.4</ele>
        <time>2024-09-15T13:46:53Z</time>
      </trkpt>
      <trkpt lat="45.81737" lon="1.86014">
        <ele>656.4</ele>
        <time>2024-09-15T13:46:55Z</time>
      </trkpt>
      <trkpt lat="45.81733" lon="1.8601">
        <ele>656.6</ele>
        <time>2024-09-15T13:46:56Z</time>
      </trkpt>
      <trkpt lat="45.81727" lon="1.86">
        <ele>656.6</ele>
        <time>2024-09-15T13:46:58Z</time>
      </trkpt>
      <trkpt lat="45.81724" lon="1.85995">
        <ele>656.6</ele>
        <time>2024-09-15T13:46:59Z</time>
      </trkpt>
      <trkpt lat="45.8172" lon="1.85984">
        <ele>656.6</ele>
        <time>2024-09-15T13:47:01Z</time>
      </trkpt>
      <trkpt lat="45.81717" lon="1.85977">
        <ele>656.6</ele>
        <time>2024-09-15T13:47:03Z</time>
      </trkpt>
      <trkpt lat="45.81717" lon="1.85975">
        <ele>656.6</ele>
        <time>2024-09-15T13:47:04Z</time>
      </trkpt>
      <trkpt lat="45.81716" lon="1.85974">
        <ele>656.8</ele>
        <time>2024-09-15T13:47:05Z</time>
      </trkpt>
      <trkpt lat="45.81716" lon="1.85974">
        <ele>656.8</ele>
        <time>2024-09-15T13:47:06Z</time>
      </trkpt>
      <trkpt lat="45.81716" lon="1.85974">
        <ele>657</ele>
        <time>2024-09-15T13:47:07Z</time>
      </trkpt>
      <trkpt lat="45.81715" lon="1.85972">
        <ele>656.8</ele>
        <time>2024-09-15T13:47:15Z</time>
      </trkpt>
      <trkpt lat="45.81713" lon="1.85965">
        <ele>656.8</ele>
        <time>2024-09-15T13:47:17Z</time>
      </trkpt>
      <trkpt lat="45.81711" lon="1.85955">
        <ele>656.8</ele>
        <time>2024-09-15T13:47:19Z</time>
      </trkpt>
      <trkpt lat="45.8171" lon="1.8595">
        <ele>656.8</ele>
        <time>2024-09-15T13:47:20Z</time>
      </trkpt>
      <trkpt lat="45.81709" lon="1.85944">
        <ele>656.8</ele>
        <time>2024-09-15T13:47:21Z</time>
      </trkpt>
      <trkpt lat="45.81698" lon="1.8589">
        <ele>656.8</ele>
        <time>2024-09-15T13:47:30Z</time>
      </trkpt>
      <trkpt lat="45.81688" lon="1.85842">
        <ele>657</ele>
        <time>2024-09-15T13:47:38Z</time>
      </trkpt>
      <trkpt lat="45.81687" lon="1.85836">
        <ele>657</ele>
        <time>2024-09-15T13:47:39Z</time>
      </trkpt>
      <trkpt lat="45.81686" lon="1.8583">
        <ele>657</ele>
        <time>2024-09-15T13:47:40Z</time>
      </trkpt>
      <trkpt lat="45.81684" lon="1.85818">
        <ele>657</ele>
        <time>2024-09-15T13:47:42Z</time>
      </trkpt>
      <trkpt lat="45.81682" lon="1.85813">
        <ele>657</ele>
        <time>2024-09-15T13:47:43Z</time>
      </trkpt>
      <trkpt lat="45.81678" lon="1.85805">
        <ele>657.2</ele>
        <time>2024-09-15T13:47:45Z</time>
      </trkpt>
      <trkpt lat="45.81675" lon="1.85803">
        <ele>657</ele>
        <time>2024-09-15T13:47:46Z</time>
      </trkpt>
      <trkpt lat="45.81673" lon="1.85801">
        <ele>657</ele>
        <time>2024-09-15T13:47:47Z</time>
      </trkpt>
      <trkpt lat="45.8167" lon="1.858">
        <ele>657</ele>
        <time>2024-09-15T13:47:48Z</time>
      </trkpt>
      <trkpt lat="45.81668" lon="1.85799">
        <ele>657</ele>
        <time>2024-09-15T13:47:49Z</time>
      </trkpt>
      <trkpt lat="45.81667" lon="1.85798">
        <ele>657</ele>
        <time>2024-09-15T13:47:50Z</time>
      </trkpt>
      <trkpt lat="45.81665" lon="1.85797">
        <ele>657</ele>
        <time>2024-09-15T13:47:51Z</time>
      </trkpt>
      <trkpt lat="45.81664" lon="1.85797">
        <ele>657</ele>
        <time>2024-09-15T13:47:52Z</time>
      </trkpt>
      <trkpt lat="45.81664" lon="1.85796">
        <ele>657.2</ele>
        <time>2024-09-15T13:47:53Z</time>
      </trkpt>
      <trkpt lat="45.81663" lon="1.85795">
        <ele>657.2</ele>
        <time>2024-09-15T13:47:54Z</time>
      </trkpt>
      <trkpt lat="45.81662" lon="1.85793">
        <ele>657.2</ele>
        <time>2024-09-15T13:47:55Z</time>
      </trkpt>
      <trkpt lat="45.8166" lon="1.85793">
        <ele>657.4</ele>
        <time>2024-09-15T13:47:56Z</time>
      </trkpt>
      <trkpt lat="45.81657" lon="1.85794">
        <ele>658</ele>
        <time>2024-09-15T13:47:59Z</time>
      </trkpt>
      <trkpt lat="45.81655" lon="1.85794">
        <ele>658.2</ele>
        <time>2024-09-15T13:48:00Z</time>
      </trkpt>
      <trkpt lat="45.81653" lon="1.85794">
        <ele>658.2</ele>
        <time>2024-09-15T13:48:01Z</time>
      </trkpt>
      <trkpt lat="45.81652" lon="1.85793">
        <ele>658.4</ele>
        <time>2024-09-15T13:48:02Z</time>
      </trkpt>
      <trkpt lat="45.8165" lon="1.85792">
        <ele>658.4</ele>
        <time>2024-09-15T13:48:03Z</time>
      </trkpt>
      <trkpt lat="45.81649" lon="1.85791">
        <ele>658.4</ele>
        <time>2024-09-15T13:48:04Z</time>
      </trkpt>
      <trkpt lat="45.81644" lon="1.85792">
        <ele>658.6</ele>
        <time>2024-09-15T13:48:07Z</time>
      </trkpt>
      <trkpt lat="45.81644" lon="1.85792">
        <ele>658.8</ele>
        <time>2024-09-15T13:48:08Z</time>
      </trkpt>
      <trkpt lat="45.81642" lon="1.85793">
        <ele>658.8</ele>
        <time>2024-09-15T13:48:09Z</time>
      </trkpt>
      <trkpt lat="45.8164" lon="1.85794">
        <ele>658.8</ele>
        <time>2024-09-15T13:48:10Z</time>
      </trkpt>
      <trkpt lat="45.81634" lon="1.85794">
        <ele>659</ele>
        <time>2024-09-15T13:48:13Z</time>
      </trkpt>
      <trkpt lat="45.81632" lon="1.85794">
        <ele>659</ele>
        <time>2024-09-15T13:48:14Z</time>
      </trkpt>
      <trkpt lat="45.81631" lon="1.85794">
        <ele>659.2</ele>
        <time>2024-09-15T13:48:15Z</time>
      </trkpt>
      <trkpt lat="45.81629" lon="1.85793">
        <ele>659.4</ele>
        <time>2024-09-15T13:48:16Z</time>
      </trkpt>
      <trkpt lat="45.81626" lon="1.85792">
        <ele>659.6</ele>
        <time>2024-09-15T13:48:17Z</time>
      </trkpt>
      <trkpt lat="45.81624" lon="1.85791">
        <ele>659.6</ele>
        <time>2024-09-15T13:48:18Z</time>
      </trkpt>
      <trkpt lat="45.81622" lon="1.8579">
        <ele>659.8</ele>
        <time>2024-09-15T13:48:19Z</time>
      </trkpt>
      <trkpt lat="45.81613" lon="1.85791">
        <ele>659.8</ele>
        <time>2024-09-15T13:48:22Z</time>
      </trkpt>
      <trkpt lat="45.8161" lon="1.85791">
        <ele>660</ele>
        <time>2024-09-15T13:48:23Z</time>
      </trkpt>
      <trkpt lat="45.81608" lon="1.85793">
        <ele>660</ele>
        <time>2024-09-15T13:48:24Z</time>
      </trkpt>
      <trkpt lat="45.81607" lon="1.85793">
        <ele>660</ele>
        <time>2024-09-15T13:48:25Z</time>
      </trkpt>
      <trkpt lat="45.81606" lon="1.85794">
        <ele>660.2</ele>
        <time>2024-09-15T13:48:26Z</time>
      </trkpt>
      <trkpt lat="45.81605" lon="1.85796">
        <ele>660.2</ele>
        <time>2024-09-15T13:48:27Z</time>
      </trkpt>
      <trkpt lat="45.81603" lon="1.85797">
        <ele>660.2</ele>
        <time>2024-09-15T13:48:28Z</time>
      </trkpt>
      <trkpt lat="45.816" lon="1.85798">
        <ele>660</ele>
        <time>2024-09-15T13:48:29Z</time>
      </trkpt>
      <trkpt lat="45.81593" lon="1.85799">
        <ele>660</ele>
        <time>2024-09-15T13:48:31Z</time>
      </trkpt>
      <trkpt lat="45.81591" lon="1.85799">
        <ele>660</ele>
        <time>2024-09-15T13:48:32Z</time>
      </trkpt>
      <trkpt lat="45.81588" lon="1.85799">
        <ele>660</ele>
        <time>2024-09-15T13:48:33Z</time>
      </trkpt>
      <trkpt lat="45.81586" lon="1.85798">
        <ele>660</ele>
        <time>2024-09-15T13:48:34Z</time>
      </trkpt>
      <trkpt lat="45.81586" lon="1.85798">
        <ele>660</ele>
        <time>2024-09-15T13:48:35Z</time>
      </trkpt>
      <trkpt lat="45.81582" lon="1.85797">
        <ele>660</ele>
        <time>2024-09-15T13:48:36Z</time>
      </trkpt>
      <trkpt lat="45.81575" lon="1.85795">
        <ele>660</ele>
        <time>2024-09-15T13:48:39Z</time>
      </trkpt>
      <trkpt lat="45.81574" lon="1.85793">
        <ele>660.2</ele>
        <time>2024-09-15T13:48:40Z</time>
      </trkpt>
      <trkpt lat="45.81573" lon="1.85792">
        <ele>660.2</ele>
        <time>2024-09-15T13:48:41Z</time>
      </trkpt>
      <trkpt lat="45.81572" lon="1.85791">
        <ele>660.2</ele>
        <time>2024-09-15T13:48:42Z</time>
      </trkpt>
      <trkpt lat="45.81571" lon="1.8579">
        <ele>660.4</ele>
        <time>2024-09-15T13:48:43Z</time>
      </trkpt>
      <trkpt lat="45.81569" lon="1.85789">
        <ele>660.4</ele>
        <time>2024-09-15T13:48:44Z</time>
      </trkpt>
      <trkpt lat="45.81568" lon="1.85789">
        <ele>660.4</ele>
        <time>2024-09-15T13:48:45Z</time>
      </trkpt>
      <trkpt lat="45.81566" lon="1.85789">
        <ele>660.4</ele>
        <time>2024-09-15T13:48:46Z</time>
      </trkpt>
      <trkpt lat="45.81564" lon="1.85787">
        <ele>660.4</ele>
        <time>2024-09-15T13:48:47Z</time>
      </trkpt>
      <trkpt lat="45.81562" lon="1.85786">
        <ele>660.6</ele>
        <time>2024-09-15T13:48:48Z</time>
      </trkpt>
      <trkpt lat="45.81558" lon="1.85782">
        <ele>660.4</ele>
        <time>2024-09-15T13:48:50Z</time>
      </trkpt>
      <trkpt lat="45.81556" lon="1.85781">
        <ele>660.4</ele>
        <time>2024-09-15T13:48:51Z</time>
      </trkpt>
      <trkpt lat="45.81554" lon="1.85781">
        <ele>660.4</ele>
        <time>2024-09-15T13:48:52Z</time>
      </trkpt>
      <trkpt lat="45.81553" lon="1.85781">
        <ele>660.4</ele>
        <time>2024-09-15T13:48:53Z</time>
      </trkpt>
      <trkpt lat="45.81552" lon="1.8578">
        <ele>660</ele>
        <time>2024-09-15T13:48:54Z</time>
      </trkpt>
      <trkpt lat="45.81551" lon="1.85779">
        <ele>659.8</ele>
        <time>2024-09-15T13:48:55Z</time>
      </trkpt>
      <trkpt lat="45.81551" lon="1.85779">
        <ele>659.6</ele>
        <time>2024-09-15T13:48:56Z</time>
      </trkpt>
      <trkpt lat="45.8155" lon="1.85778">
        <ele>659.4</ele>
        <time>2024-09-15T13:48:57Z</time>
      </trkpt>
      <trkpt lat="45.81549" lon="1.85777">
        <ele>659.4</ele>
        <time>2024-09-15T13:48:58Z</time>
      </trkpt>
      <trkpt lat="45.81547" lon="1.85776">
        <ele>659.2</ele>
        <time>2024-09-15T13:48:59Z</time>
      </trkpt>
      <trkpt lat="45.81544" lon="1.85773">
        <ele>659</ele>
        <time>2024-09-15T13:49:03Z</time>
      </trkpt>
      <trkpt lat="45.81543" lon="1.85773">
        <ele>659</ele>
        <time>2024-09-15T13:49:04Z</time>
      </trkpt>
      <trkpt lat="45.81542" lon="1.85772">
        <ele>659</ele>
        <time>2024-09-15T13:49:05Z</time>
      </trkpt>
      <trkpt lat="45.81542" lon="1.85772">
        <ele>659</ele>
        <time>2024-09-15T13:49:06Z</time>
      </trkpt>
      <trkpt lat="45.81542" lon="1.85772">
        <ele>658.8</ele>
        <time>2024-09-15T13:49:07Z</time>
      </trkpt>
      <trkpt lat="45.8154" lon="1.85769">
        <ele>658.8</ele>
        <time>2024-09-15T13:49:13Z</time>
      </trkpt>
      <trkpt lat="45.8154" lon="1.85769">
        <ele>658.8</ele>
        <time>2024-09-15T13:49:15Z</time>
      </trkpt>
      <trkpt lat="45.8154" lon="1.85766">
        <ele>659.6</ele>
        <time>2024-09-15T13:49:32Z</time>
      </trkpt>
      <trkpt lat="45.81541" lon="1.85764">
        <ele>659.8</ele>
        <time>2024-09-15T13:49:35Z</time>
      </trkpt>
      <trkpt lat="45.81538" lon="1.85761">
        <ele>661</ele>
        <time>2024-09-15T13:49:51Z</time>
      </trkpt>
      <trkpt lat="45.81529" lon="1.8575">
        <ele>661</ele>
        <time>2024-09-15T13:49:54Z</time>
      </trkpt>
      <trkpt lat="45.81526" lon="1.85746">
        <ele>661</ele>
        <time>2024-09-15T13:49:55Z</time>
      </trkpt>
      <trkpt lat="45.81515" lon="1.85724">
        <ele>660.6</ele>
        <time>2024-09-15T13:49:59Z</time>
      </trkpt>
      <trkpt lat="45.81511" lon="1.85713">
        <ele>660.2</ele>
        <time>2024-09-15T13:50:01Z</time>
      </trkpt>
      <trkpt lat="45.8151" lon="1.85707">
        <ele>659.8</ele>
        <time>2024-09-15T13:50:02Z</time>
      </trkpt>
      <trkpt lat="45.81506" lon="1.8569">
        <ele>658.6</ele>
        <time>2024-09-15T13:50:05Z</time>
      </trkpt>
      <trkpt lat="45.81503" lon="1.85686">
        <ele>658.2</ele>
        <time>2024-09-15T13:50:06Z</time>
      </trkpt>
      <trkpt lat="45.81501" lon="1.85676">
        <ele>657.8</ele>
        <time>2024-09-15T13:50:08Z</time>
      </trkpt>
      <trkpt lat="45.81501" lon="1.85671">
        <ele>657.8</ele>
        <time>2024-09-15T13:50:09Z</time>
      </trkpt>
      <trkpt lat="45.81502" lon="1.85667">
        <ele>657.8</ele>
        <time>2024-09-15T13:50:10Z</time>
      </trkpt>
      <trkpt lat="45.81502" lon="1.85663">
        <ele>657.8</ele>
        <time>2024-09-15T13:50:11Z</time>
      </trkpt>
      <trkpt lat="45.81504" lon="1.85659">
        <ele>657.8</ele>
        <time>2024-09-15T13:50:12Z</time>
      </trkpt>
      <trkpt lat="45.81506" lon="1.85656">
        <ele>658</ele>
        <time>2024-09-15T13:50:13Z</time>
      </trkpt>
      <trkpt lat="45.81508" lon="1.8565">
        <ele>658</ele>
        <time>2024-09-15T13:50:14Z</time>
      </trkpt>
      <trkpt lat="45.81511" lon="1.85644">
        <ele>658</ele>
        <time>2024-09-15T13:50:16Z</time>
      </trkpt>
      <trkpt lat="45.81513" lon="1.8564">
        <ele>658</ele>
        <time>2024-09-15T13:50:17Z</time>
      </trkpt>
      <trkpt lat="45.81515" lon="1.85637">
        <ele>658.2</ele>
        <time>2024-09-15T13:50:18Z</time>
      </trkpt>
      <trkpt lat="45.81519" lon="1.85631">
        <ele>658.6</ele>
        <time>2024-09-15T13:50:20Z</time>
      </trkpt>
      <trkpt lat="45.81521" lon="1.85629">
        <ele>658.8</ele>
        <time>2024-09-15T13:50:21Z</time>
      </trkpt>
      <trkpt lat="45.81524" lon="1.85626">
        <ele>659</ele>
        <time>2024-09-15T13:50:22Z</time>
      </trkpt>
      <trkpt lat="45.81532" lon="1.85615">
        <ele>660</ele>
        <time>2024-09-15T13:50:26Z</time>
      </trkpt>
      <trkpt lat="45.81534" lon="1.85613">
        <ele>660</ele>
        <time>2024-09-15T13:50:27Z</time>
      </trkpt>
      <trkpt lat="45.81538" lon="1.85609">
        <ele>660.4</ele>
        <time>2024-09-15T13:50:29Z</time>
      </trkpt>
      <trkpt lat="45.8154" lon="1.85608">
        <ele>660.8</ele>
        <time>2024-09-15T13:50:30Z</time>
      </trkpt>
      <trkpt lat="45.81542" lon="1.85607">
        <ele>661</ele>
        <time>2024-09-15T13:50:31Z</time>
      </trkpt>
      <trkpt lat="45.81542" lon="1.85605">
        <ele>661.2</ele>
        <time>2024-09-15T13:50:32Z</time>
      </trkpt>
      <trkpt lat="45.81543" lon="1.85605">
        <ele>661.4</ele>
        <time>2024-09-15T13:50:33Z</time>
      </trkpt>
      <trkpt lat="45.81544" lon="1.85604">
        <ele>661.4</ele>
        <time>2024-09-15T13:50:34Z</time>
      </trkpt>
      <trkpt lat="45.81546" lon="1.85602">
        <ele>661.6</ele>
        <time>2024-09-15T13:50:35Z</time>
      </trkpt>
      <trkpt lat="45.81547" lon="1.85599">
        <ele>661.6</ele>
        <time>2024-09-15T13:50:36Z</time>
      </trkpt>
      <trkpt lat="45.81548" lon="1.85595">
        <ele>661.8</ele>
        <time>2024-09-15T13:50:37Z</time>
      </trkpt>
      <trkpt lat="45.81549" lon="1.85591">
        <ele>661.8</ele>
        <time>2024-09-15T13:50:38Z</time>
      </trkpt>
      <trkpt lat="45.81551" lon="1.85586">
        <ele>661.8</ele>
        <time>2024-09-15T13:50:39Z</time>
      </trkpt>
      <trkpt lat="45.81553" lon="1.85581">
        <ele>661.8</ele>
        <time>2024-09-15T13:50:40Z</time>
      </trkpt>
      <trkpt lat="45.81555" lon="1.85576">
        <ele>661.8</ele>
        <time>2024-09-15T13:50:41Z</time>
      </trkpt>
      <trkpt lat="45.81557" lon="1.85572">
        <ele>661.8</ele>
        <time>2024-09-15T13:50:42Z</time>
      </trkpt>
      <trkpt lat="45.81559" lon="1.85568">
        <ele>661.8</ele>
        <time>2024-09-15T13:50:43Z</time>
      </trkpt>
      <trkpt lat="45.81562" lon="1.85564">
        <ele>661.8</ele>
        <time>2024-09-15T13:50:44Z</time>
      </trkpt>
      <trkpt lat="45.81563" lon="1.85561">
        <ele>661.8</ele>
        <time>2024-09-15T13:50:45Z</time>
      </trkpt>
      <trkpt lat="45.81565" lon="1.85558">
        <ele>661.8</ele>
        <time>2024-09-15T13:50:46Z</time>
      </trkpt>
      <trkpt lat="45.81567" lon="1.85556">
        <ele>661.8</ele>
        <time>2024-09-15T13:50:47Z</time>
      </trkpt>
      <trkpt lat="45.81568" lon="1.85553">
        <ele>661.6</ele>
        <time>2024-09-15T13:50:48Z</time>
      </trkpt>
      <trkpt lat="45.8157" lon="1.8555">
        <ele>661.6</ele>
        <time>2024-09-15T13:50:49Z</time>
      </trkpt>
      <trkpt lat="45.81572" lon="1.85547">
        <ele>661.6</ele>
        <time>2024-09-15T13:50:50Z</time>
      </trkpt>
      <trkpt lat="45.81573" lon="1.85545">
        <ele>661.6</ele>
        <time>2024-09-15T13:50:51Z</time>
      </trkpt>
      <trkpt lat="45.81579" lon="1.85538">
        <ele>661.2</ele>
        <time>2024-09-15T13:50:54Z</time>
      </trkpt>
      <trkpt lat="45.8158" lon="1.85536">
        <ele>661</ele>
        <time>2024-09-15T13:50:55Z</time>
      </trkpt>
      <trkpt lat="45.81581" lon="1.85528">
        <ele>660.8</ele>
        <time>2024-09-15T13:50:57Z</time>
      </trkpt>
      <trkpt lat="45.81583" lon="1.85523">
        <ele>660.6</ele>
        <time>2024-09-15T13:50:58Z</time>
      </trkpt>
      <trkpt lat="45.81585" lon="1.85516">
        <ele>660.8</ele>
        <time>2024-09-15T13:50:59Z</time>
      </trkpt>
      <trkpt lat="45.81585" lon="1.85506">
        <ele>660.4</ele>
        <time>2024-09-15T13:51:01Z</time>
      </trkpt>
      <trkpt lat="45.81583" lon="1.85503">
        <ele>660.2</ele>
        <time>2024-09-15T13:51:02Z</time>
      </trkpt>
      <trkpt lat="45.81582" lon="1.855">
        <ele>660</ele>
        <time>2024-09-15T13:51:03Z</time>
      </trkpt>
      <trkpt lat="45.81581" lon="1.85495">
        <ele>659.8</ele>
        <time>2024-09-15T13:51:04Z</time>
      </trkpt>
      <trkpt lat="45.8158" lon="1.85492">
        <ele>659.8</ele>
        <time>2024-09-15T13:51:05Z</time>
      </trkpt>
      <trkpt lat="45.81576" lon="1.85483">
        <ele>659.8</ele>
        <time>2024-09-15T13:51:07Z</time>
      </trkpt>
      <trkpt lat="45.81565" lon="1.85458">
        <ele>659.4</ele>
        <time>2024-09-15T13:51:14Z</time>
      </trkpt>
      <trkpt lat="45.81554" lon="1.85435">
        <ele>659.4</ele>
        <time>2024-09-15T13:51:20Z</time>
      </trkpt>
      <trkpt lat="45.81536" lon="1.85405">
        <ele>659.4</ele>
        <time>2024-09-15T13:51:28Z</time>
      </trkpt>
      <trkpt lat="45.81512" lon="1.85365">
        <ele>659.6</ele>
        <time>2024-09-15T13:51:37Z</time>
      </trkpt>
      <trkpt lat="45.81487" lon="1.85318">
        <ele>659.4</ele>
        <time>2024-09-15T13:51:46Z</time>
      </trkpt>
      <trkpt lat="45.81461" lon="1.85271">
        <ele>659.8</ele>
        <time>2024-09-15T13:51:54Z</time>
      </trkpt>
      <trkpt lat="45.81455" lon="1.8526">
        <ele>659.8</ele>
        <time>2024-09-15T13:51:56Z</time>
      </trkpt>
      <trkpt lat="45.81425" lon="1.85205">
        <ele>659.8</ele>
        <time>2024-09-15T13:52:05Z</time>
      </trkpt>
      <trkpt lat="45.81393" lon="1.85148">
        <ele>659.6</ele>
        <time>2024-09-15T13:52:15Z</time>
      </trkpt>
      <trkpt lat="45.81389" lon="1.85141">
        <ele>659.6</ele>
        <time>2024-09-15T13:52:16Z</time>
      </trkpt>
      <trkpt lat="45.81386" lon="1.85135">
        <ele>659.6</ele>
        <time>2024-09-15T13:52:17Z</time>
      </trkpt>
      <trkpt lat="45.81383" lon="1.8513">
        <ele>659.6</ele>
        <time>2024-09-15T13:52:18Z</time>
      </trkpt>
      <trkpt lat="45.8138" lon="1.85125">
        <ele>659.6</ele>
        <time>2024-09-15T13:52:19Z</time>
      </trkpt>
      <trkpt lat="45.81376" lon="1.8512">
        <ele>659.6</ele>
        <time>2024-09-15T13:52:20Z</time>
      </trkpt>
      <trkpt lat="45.81373" lon="1.85115">
        <ele>659.6</ele>
        <time>2024-09-15T13:52:21Z</time>
      </trkpt>
      <trkpt lat="45.81369" lon="1.85111">
        <ele>659.6</ele>
        <time>2024-09-15T13:52:22Z</time>
      </trkpt>
      <trkpt lat="45.81366" lon="1.85108">
        <ele>659.8</ele>
        <time>2024-09-15T13:52:23Z</time>
      </trkpt>
      <trkpt lat="45.81363" lon="1.85105">
        <ele>659.8</ele>
        <time>2024-09-15T13:52:24Z</time>
      </trkpt>
      <trkpt lat="45.8136" lon="1.85103">
        <ele>660</ele>
        <time>2024-09-15T13:52:25Z</time>
      </trkpt>
      <trkpt lat="45.81357" lon="1.85101">
        <ele>660</ele>
        <time>2024-09-15T13:52:26Z</time>
      </trkpt>
      <trkpt lat="45.81354" lon="1.85099">
        <ele>660.2</ele>
        <time>2024-09-15T13:52:27Z</time>
      </trkpt>
      <trkpt lat="45.81352" lon="1.85097">
        <ele>660</ele>
        <time>2024-09-15T13:52:28Z</time>
      </trkpt>
      <trkpt lat="45.81351" lon="1.85096">
        <ele>660.2</ele>
        <time>2024-09-15T13:52:29Z</time>
      </trkpt>
      <trkpt lat="45.8135" lon="1.85095">
        <ele>660.2</ele>
        <time>2024-09-15T13:52:30Z</time>
      </trkpt>
      <trkpt lat="45.81348" lon="1.85093">
        <ele>660.4</ele>
        <time>2024-09-15T13:52:31Z</time>
      </trkpt>
      <trkpt lat="45.81347" lon="1.85092">
        <ele>660.4</ele>
        <time>2024-09-15T13:52:32Z</time>
      </trkpt>
      <trkpt lat="45.81346" lon="1.85091">
        <ele>660.4</ele>
        <time>2024-09-15T13:52:33Z</time>
      </trkpt>
      <trkpt lat="45.81345" lon="1.85091">
        <ele>660.4</ele>
        <time>2024-09-15T13:52:34Z</time>
      </trkpt>
      <trkpt lat="45.81344" lon="1.8509">
        <ele>660.6</ele>
        <time>2024-09-15T13:52:35Z</time>
      </trkpt>
      <trkpt lat="45.81344" lon="1.8509">
        <ele>660.6</ele>
        <time>2024-09-15T13:52:36Z</time>
      </trkpt>
      <trkpt lat="45.81344" lon="1.85089">
        <ele>660.6</ele>
        <time>2024-09-15T13:52:37Z</time>
      </trkpt>
      <trkpt lat="45.81343" lon="1.85089">
        <ele>661</ele>
        <time>2024-09-15T13:52:38Z</time>
      </trkpt>
      <trkpt lat="45.81343" lon="1.8509">
        <ele>660.8</ele>
        <time>2024-09-15T13:52:39Z</time>
      </trkpt>
      <trkpt lat="45.81343" lon="1.8509">
        <ele>661</ele>
        <time>2024-09-15T13:52:41Z</time>
      </trkpt>
      <trkpt lat="45.81343" lon="1.8509">
        <ele>661</ele>
        <time>2024-09-15T13:52:42Z</time>
      </trkpt>
      <trkpt lat="45.81343" lon="1.8509">
        <ele>660.8</ele>
        <time>2024-09-15T13:52:43Z</time>
      </trkpt>
      <trkpt lat="45.81341" lon="1.85089">
        <ele>660.6</ele>
        <time>2024-09-15T13:52:56Z</time>
      </trkpt>
      <trkpt lat="45.8134" lon="1.85088">
        <ele>660.6</ele>
        <time>2024-09-15T13:52:57Z</time>
      </trkpt>
      <trkpt lat="45.81333" lon="1.85076">
        <ele>660.6</ele>
        <time>2024-09-15T13:53:03Z</time>
      </trkpt>
      <trkpt lat="45.81332" lon="1.85073">
        <ele>660.6</ele>
        <time>2024-09-15T13:53:04Z</time>
      </trkpt>
      <trkpt lat="45.81331" lon="1.85071">
        <ele>660.8</ele>
        <time>2024-09-15T13:53:05Z</time>
      </trkpt>
      <trkpt lat="45.81327" lon="1.85053">
        <ele>661</ele>
        <time>2024-09-15T13:53:10Z</time>
      </trkpt>
      <trkpt lat="45.81326" lon="1.85045">
        <ele>661.2</ele>
        <time>2024-09-15T13:53:12Z</time>
      </trkpt>
      <trkpt lat="45.8133" lon="1.85038">
        <ele>662</ele>
        <time>2024-09-15T13:53:14Z</time>
      </trkpt>
      <trkpt lat="45.81331" lon="1.85035">
        <ele>662.4</ele>
        <time>2024-09-15T13:53:15Z</time>
      </trkpt>
      <trkpt lat="45.81331" lon="1.85032">
        <ele>662.4</ele>
        <time>2024-09-15T13:53:16Z</time>
      </trkpt>
      <trkpt lat="45.81332" lon="1.85028">
        <ele>662.6</ele>
        <time>2024-09-15T13:53:17Z</time>
      </trkpt>
      <trkpt lat="45.81334" lon="1.85021">
        <ele>663</ele>
        <time>2024-09-15T13:53:19Z</time>
      </trkpt>
      <trkpt lat="45.81336" lon="1.85018">
        <ele>663.2</ele>
        <time>2024-09-15T13:53:20Z</time>
      </trkpt>
      <trkpt lat="45.81337" lon="1.85015">
        <ele>663.4</ele>
        <time>2024-09-15T13:53:21Z</time>
      </trkpt>
      <trkpt lat="45.81338" lon="1.85013">
        <ele>663.6</ele>
        <time>2024-09-15T13:53:22Z</time>
      </trkpt>
      <trkpt lat="45.81339" lon="1.85009">
        <ele>663.8</ele>
        <time>2024-09-15T13:53:23Z</time>
      </trkpt>
      <trkpt lat="45.8134" lon="1.85006">
        <ele>663.8</ele>
        <time>2024-09-15T13:53:24Z</time>
      </trkpt>
      <trkpt lat="45.8134" lon="1.85003">
        <ele>664</ele>
        <time>2024-09-15T13:53:25Z</time>
      </trkpt>
      <trkpt lat="45.8134" lon="1.84999">
        <ele>664</ele>
        <time>2024-09-15T13:53:26Z</time>
      </trkpt>
      <trkpt lat="45.8134" lon="1.84996">
        <ele>664</ele>
        <time>2024-09-15T13:53:27Z</time>
      </trkpt>
      <trkpt lat="45.81341" lon="1.84992">
        <ele>664.2</ele>
        <time>2024-09-15T13:53:28Z</time>
      </trkpt>
      <trkpt lat="45.81341" lon="1.84988">
        <ele>664.4</ele>
        <time>2024-09-15T13:53:29Z</time>
      </trkpt>
      <trkpt lat="45.81339" lon="1.84984">
        <ele>664.6</ele>
        <time>2024-09-15T13:53:30Z</time>
      </trkpt>
      <trkpt lat="45.81338" lon="1.8498">
        <ele>664.6</ele>
        <time>2024-09-15T13:53:31Z</time>
      </trkpt>
      <trkpt lat="45.81336" lon="1.84977">
        <ele>665</ele>
        <time>2024-09-15T13:53:32Z</time>
      </trkpt>
      <trkpt lat="45.81335" lon="1.84974">
        <ele>665.2</ele>
        <time>2024-09-15T13:53:33Z</time>
      </trkpt>
      <trkpt lat="45.81333" lon="1.84971">
        <ele>665.6</ele>
        <time>2024-09-15T13:53:34Z</time>
      </trkpt>
      <trkpt lat="45.81332" lon="1.84967">
        <ele>665.8</ele>
        <time>2024-09-15T13:53:35Z</time>
      </trkpt>
      <trkpt lat="45.8133" lon="1.84964">
        <ele>666</ele>
        <time>2024-09-15T13:53:36Z</time>
      </trkpt>
      <trkpt lat="45.81329" lon="1.8496">
        <ele>666.2</ele>
        <time>2024-09-15T13:53:37Z</time>
      </trkpt>
      <trkpt lat="45.81327" lon="1.84957">
        <ele>666.4</ele>
        <time>2024-09-15T13:53:38Z</time>
      </trkpt>
      <trkpt lat="45.81325" lon="1.84955">
        <ele>666.6</ele>
        <time>2024-09-15T13:53:39Z</time>
      </trkpt>
      <trkpt lat="45.81324" lon="1.84952">
        <ele>666.6</ele>
        <time>2024-09-15T13:53:40Z</time>
      </trkpt>
      <trkpt lat="45.81323" lon="1.84949">
        <ele>667.2</ele>
        <time>2024-09-15T13:53:41Z</time>
      </trkpt>
      <trkpt lat="45.81321" lon="1.84946">
        <ele>667.4</ele>
        <time>2024-09-15T13:53:42Z</time>
      </trkpt>
      <trkpt lat="45.81319" lon="1.84944">
        <ele>667.6</ele>
        <time>2024-09-15T13:53:43Z</time>
      </trkpt>
      <trkpt lat="45.81317" lon="1.84941">
        <ele>667.8</ele>
        <time>2024-09-15T13:53:44Z</time>
      </trkpt>
      <trkpt lat="45.81316" lon="1.84939">
        <ele>668</ele>
        <time>2024-09-15T13:53:45Z</time>
      </trkpt>
      <trkpt lat="45.81314" lon="1.84937">
        <ele>668.2</ele>
        <time>2024-09-15T13:53:46Z</time>
      </trkpt>
      <trkpt lat="45.81312" lon="1.84934">
        <ele>668.2</ele>
        <time>2024-09-15T13:53:47Z</time>
      </trkpt>
      <trkpt lat="45.81311" lon="1.84932">
        <ele>668.4</ele>
        <time>2024-09-15T13:53:48Z</time>
      </trkpt>
      <trkpt lat="45.81309" lon="1.84929">
        <ele>668.6</ele>
        <time>2024-09-15T13:53:49Z</time>
      </trkpt>
      <trkpt lat="45.81307" lon="1.84928">
        <ele>668.8</ele>
        <time>2024-09-15T13:53:50Z</time>
      </trkpt>
      <trkpt lat="45.81306" lon="1.84927">
        <ele>669</ele>
        <time>2024-09-15T13:53:51Z</time>
      </trkpt>
      <trkpt lat="45.81304" lon="1.84925">
        <ele>669.2</ele>
        <time>2024-09-15T13:53:52Z</time>
      </trkpt>
      <trkpt lat="45.81302" lon="1.84923">
        <ele>669.4</ele>
        <time>2024-09-15T13:53:53Z</time>
      </trkpt>
      <trkpt lat="45.81299" lon="1.84921">
        <ele>669.4</ele>
        <time>2024-09-15T13:53:54Z</time>
      </trkpt>
      <trkpt lat="45.81297" lon="1.8492">
        <ele>669.4</ele>
        <time>2024-09-15T13:53:55Z</time>
      </trkpt>
      <trkpt lat="45.81295" lon="1.84919">
        <ele>670</ele>
        <time>2024-09-15T13:53:56Z</time>
      </trkpt>
      <trkpt lat="45.81293" lon="1.84918">
        <ele>670.2</ele>
        <time>2024-09-15T13:53:57Z</time>
      </trkpt>
      <trkpt lat="45.81291" lon="1.84917">
        <ele>670.4</ele>
        <time>2024-09-15T13:53:58Z</time>
      </trkpt>
      <trkpt lat="45.81289" lon="1.84916">
        <ele>670.6</ele>
        <time>2024-09-15T13:53:59Z</time>
      </trkpt>
      <trkpt lat="45.81286" lon="1.84915">
        <ele>670.8</ele>
        <time>2024-09-15T13:54:00Z</time>
      </trkpt>
      <trkpt lat="45.81284" lon="1.84914">
        <ele>671</ele>
        <time>2024-09-15T13:54:01Z</time>
      </trkpt>
      <trkpt lat="45.81282" lon="1.84914">
        <ele>671</ele>
        <time>2024-09-15T13:54:02Z</time>
      </trkpt>
      <trkpt lat="45.81281" lon="1.84913">
        <ele>671.4</ele>
        <time>2024-09-15T13:54:03Z</time>
      </trkpt>
      <trkpt lat="45.81279" lon="1.84913">
        <ele>671.4</ele>
        <time>2024-09-15T13:54:04Z</time>
      </trkpt>
      <trkpt lat="45.81276" lon="1.84913">
        <ele>671.8</ele>
        <time>2024-09-15T13:54:05Z</time>
      </trkpt>
      <trkpt lat="45.81272" lon="1.84912">
        <ele>671.8</ele>
        <time>2024-09-15T13:54:06Z</time>
      </trkpt>
      <trkpt lat="45.81269" lon="1.84912">
        <ele>672</ele>
        <time>2024-09-15T13:54:07Z</time>
      </trkpt>
      <trkpt lat="45.81267" lon="1.84911">
        <ele>672.2</ele>
        <time>2024-09-15T13:54:08Z</time>
      </trkpt>
      <trkpt lat="45.81267" lon="1.84909">
        <ele>672.4</ele>
        <time>2024-09-15T13:54:09Z</time>
      </trkpt>
      <trkpt lat="45.81266" lon="1.84908">
        <ele>672.6</ele>
        <time>2024-09-15T13:54:10Z</time>
      </trkpt>
      <trkpt lat="45.81265" lon="1.84907">
        <ele>672.6</ele>
        <time>2024-09-15T13:54:11Z</time>
      </trkpt>
      <trkpt lat="45.81265" lon="1.84905">
        <ele>672.8</ele>
        <time>2024-09-15T13:54:12Z</time>
      </trkpt>
      <trkpt lat="45.81265" lon="1.84903">
        <ele>673</ele>
        <time>2024-09-15T13:54:13Z</time>
      </trkpt>
      <trkpt lat="45.81265" lon="1.84902">
        <ele>673.2</ele>
        <time>2024-09-15T13:54:14Z</time>
      </trkpt>
      <trkpt lat="45.81264" lon="1.849">
        <ele>673.4</ele>
        <time>2024-09-15T13:54:15Z</time>
      </trkpt>
      <trkpt lat="45.81263" lon="1.84899">
        <ele>673.4</ele>
        <time>2024-09-15T13:54:16Z</time>
      </trkpt>
      <trkpt lat="45.81264" lon="1.84897">
        <ele>673.4</ele>
        <time>2024-09-15T13:54:17Z</time>
      </trkpt>
      <trkpt lat="45.81263" lon="1.84896">
        <ele>673.6</ele>
        <time>2024-09-15T13:54:18Z</time>
      </trkpt>
      <trkpt lat="45.81263" lon="1.84895">
        <ele>673.6</ele>
        <time>2024-09-15T13:54:19Z</time>
      </trkpt>
      <trkpt lat="45.81262" lon="1.84894">
        <ele>673.8</ele>
        <time>2024-09-15T13:54:20Z</time>
      </trkpt>
      <trkpt lat="45.8126" lon="1.84894">
        <ele>674</ele>
        <time>2024-09-15T13:54:21Z</time>
      </trkpt>
      <trkpt lat="45.81259" lon="1.84894">
        <ele>674.2</ele>
        <time>2024-09-15T13:54:22Z</time>
      </trkpt>
      <trkpt lat="45.81259" lon="1.84894">
        <ele>674.6</ele>
        <time>2024-09-15T13:54:23Z</time>
      </trkpt>
      <trkpt lat="45.81259" lon="1.84894">
        <ele>674.8</ele>
        <time>2024-09-15T13:54:24Z</time>
      </trkpt>
      <trkpt lat="45.81258" lon="1.84894">
        <ele>675.2</ele>
        <time>2024-09-15T13:54:25Z</time>
      </trkpt>
      <trkpt lat="45.81252" lon="1.84892">
        <ele>676.4</ele>
        <time>2024-09-15T13:54:33Z</time>
      </trkpt>
      <trkpt lat="45.81249" lon="1.84891">
        <ele>676.6</ele>
        <time>2024-09-15T13:54:34Z</time>
      </trkpt>
      <trkpt lat="45.81246" lon="1.8489">
        <ele>676.8</ele>
        <time>2024-09-15T13:54:35Z</time>
      </trkpt>
      <trkpt lat="45.81246" lon="1.8489">
        <ele>677</ele>
        <time>2024-09-15T13:54:36Z</time>
      </trkpt>
      <trkpt lat="45.81243" lon="1.84889">
        <ele>677</ele>
        <time>2024-09-15T13:54:37Z</time>
      </trkpt>
      <trkpt lat="45.81242" lon="1.84888">
        <ele>677.2</ele>
        <time>2024-09-15T13:54:38Z</time>
      </trkpt>
      <trkpt lat="45.81242" lon="1.84888">
        <ele>677.2</ele>
        <time>2024-09-15T13:54:39Z</time>
      </trkpt>
      <trkpt lat="45.81242" lon="1.84887">
        <ele>677.4</ele>
        <time>2024-09-15T13:54:40Z</time>
      </trkpt>
      <trkpt lat="45.81241" lon="1.84887">
        <ele>677.6</ele>
        <time>2024-09-15T13:54:41Z</time>
      </trkpt>
      <trkpt lat="45.81241" lon="1.84886">
        <ele>678</ele>
        <time>2024-09-15T13:54:42Z</time>
      </trkpt>
      <trkpt lat="45.81241" lon="1.84885">
        <ele>678.4</ele>
        <time>2024-09-15T13:54:43Z</time>
      </trkpt>
      <trkpt lat="45.8124" lon="1.84882">
        <ele>678.4</ele>
        <time>2024-09-15T13:54:44Z</time>
      </trkpt>
      <trkpt lat="45.8124" lon="1.84881">
        <ele>678.6</ele>
        <time>2024-09-15T13:54:45Z</time>
      </trkpt>
      <trkpt lat="45.8124" lon="1.84878">
        <ele>678.8</ele>
        <time>2024-09-15T13:54:46Z</time>
      </trkpt>
      <trkpt lat="45.81238" lon="1.84876">
        <ele>679</ele>
        <time>2024-09-15T13:54:47Z</time>
      </trkpt>
      <trkpt lat="45.81236" lon="1.84873">
        <ele>679</ele>
        <time>2024-09-15T13:54:48Z</time>
      </trkpt>
      <trkpt lat="45.81236" lon="1.84872">
        <ele>679.2</ele>
        <time>2024-09-15T13:54:49Z</time>
      </trkpt>
      <trkpt lat="45.81236" lon="1.84872">
        <ele>679.4</ele>
        <time>2024-09-15T13:54:50Z</time>
      </trkpt>
      <trkpt lat="45.81236" lon="1.84872">
        <ele>679.6</ele>
        <time>2024-09-15T13:54:51Z</time>
      </trkpt>
      <trkpt lat="45.81236" lon="1.84867">
        <ele>679.8</ele>
        <time>2024-09-15T13:54:52Z</time>
      </trkpt>
      <trkpt lat="45.81236" lon="1.84867">
        <ele>680</ele>
        <time>2024-09-15T13:54:53Z</time>
      </trkpt>
      <trkpt lat="45.81236" lon="1.84865">
        <ele>680</ele>
        <time>2024-09-15T13:54:54Z</time>
      </trkpt>
      <trkpt lat="45.81236" lon="1.84865">
        <ele>680</ele>
        <time>2024-09-15T13:54:55Z</time>
      </trkpt>
      <trkpt lat="45.81236" lon="1.84865">
        <ele>680.2</ele>
        <time>2024-09-15T13:54:56Z</time>
      </trkpt>
      <trkpt lat="45.81234" lon="1.84862">
        <ele>680.4</ele>
        <time>2024-09-15T13:54:57Z</time>
      </trkpt>
      <trkpt lat="45.81233" lon="1.8486">
        <ele>680.4</ele>
        <time>2024-09-15T13:54:58Z</time>
      </trkpt>
      <trkpt lat="45.81233" lon="1.8486">
        <ele>680.6</ele>
        <time>2024-09-15T13:54:59Z</time>
      </trkpt>
      <trkpt lat="45.81233" lon="1.8486">
        <ele>681</ele>
        <time>2024-09-15T13:55:00Z</time>
      </trkpt>
      <trkpt lat="45.8123" lon="1.84858">
        <ele>681.2</ele>
        <time>2024-09-15T13:55:01Z</time>
      </trkpt>
      <trkpt lat="45.8123" lon="1.84857">
        <ele>681.4</ele>
        <time>2024-09-15T13:55:02Z</time>
      </trkpt>
      <trkpt lat="45.8123" lon="1.84857">
        <ele>681.6</ele>
        <time>2024-09-15T13:55:03Z</time>
      </trkpt>
      <trkpt lat="45.81228" lon="1.84857">
        <ele>682</ele>
        <time>2024-09-15T13:55:04Z</time>
      </trkpt>
      <trkpt lat="45.81228" lon="1.84857">
        <ele>682</ele>
        <time>2024-09-15T13:55:05Z</time>
      </trkpt>
      <trkpt lat="45.81228" lon="1.84857">
        <ele>682.2</ele>
        <time>2024-09-15T13:55:06Z</time>
      </trkpt>
      <trkpt lat="45.81225" lon="1.84856">
        <ele>682.4</ele>
        <time>2024-09-15T13:55:07Z</time>
      </trkpt>
      <trkpt lat="45.81222" lon="1.84854">
        <ele>682.6</ele>
        <time>2024-09-15T13:55:08Z</time>
      </trkpt>
      <trkpt lat="45.8122" lon="1.84853">
        <ele>682.8</ele>
        <time>2024-09-15T13:55:09Z</time>
      </trkpt>
      <trkpt lat="45.81217" lon="1.84852">
        <ele>683</ele>
        <time>2024-09-15T13:55:10Z</time>
      </trkpt>
      <trkpt lat="45.81216" lon="1.8485">
        <ele>683.4</ele>
        <time>2024-09-15T13:55:11Z</time>
      </trkpt>
      <trkpt lat="45.81214" lon="1.84849">
        <ele>683.6</ele>
        <time>2024-09-15T13:55:12Z</time>
      </trkpt>
      <trkpt lat="45.81213" lon="1.84848">
        <ele>683.8</ele>
        <time>2024-09-15T13:55:13Z</time>
      </trkpt>
      <trkpt lat="45.81212" lon="1.84848">
        <ele>684</ele>
        <time>2024-09-15T13:55:14Z</time>
      </trkpt>
      <trkpt lat="45.8121" lon="1.84845">
        <ele>684.4</ele>
        <time>2024-09-15T13:55:15Z</time>
      </trkpt>
      <trkpt lat="45.81207" lon="1.84844">
        <ele>684.6</ele>
        <time>2024-09-15T13:55:16Z</time>
      </trkpt>
      <trkpt lat="45.81207" lon="1.84844">
        <ele>684.8</ele>
        <time>2024-09-15T13:55:17Z</time>
      </trkpt>
      <trkpt lat="45.81205" lon="1.84843">
        <ele>685</ele>
        <time>2024-09-15T13:55:18Z</time>
      </trkpt>
      <trkpt lat="45.81203" lon="1.8484">
        <ele>685</ele>
        <time>2024-09-15T13:55:19Z</time>
      </trkpt>
      <trkpt lat="45.81203" lon="1.84839">
        <ele>685.2</ele>
        <time>2024-09-15T13:55:20Z</time>
      </trkpt>
      <trkpt lat="45.81203" lon="1.84838">
        <ele>685.2</ele>
        <time>2024-09-15T13:55:21Z</time>
      </trkpt>
      <trkpt lat="45.81203" lon="1.84838">
        <ele>685.4</ele>
        <time>2024-09-15T13:55:22Z</time>
      </trkpt>
      <trkpt lat="45.81203" lon="1.84838">
        <ele>685.6</ele>
        <time>2024-09-15T13:55:23Z</time>
      </trkpt>
      <trkpt lat="45.81203" lon="1.84838">
        <ele>685.8</ele>
        <time>2024-09-15T13:55:24Z</time>
      </trkpt>
      <trkpt lat="45.81203" lon="1.84838">
        <ele>686</ele>
        <time>2024-09-15T13:55:25Z</time>
      </trkpt>
      <trkpt lat="45.81203" lon="1.84838">
        <ele>686.4</ele>
        <time>2024-09-15T13:55:26Z</time>
      </trkpt>
      <trkpt lat="45.81203" lon="1.84838">
        <ele>686.6</ele>
        <time>2024-09-15T13:55:27Z</time>
      </trkpt>
      <trkpt lat="45.81204" lon="1.84837">
        <ele>686.8</ele>
        <time>2024-09-15T13:55:28Z</time>
      </trkpt>
      <trkpt lat="45.81204" lon="1.84837">
        <ele>686.8</ele>
        <time>2024-09-15T13:55:29Z</time>
      </trkpt>
      <trkpt lat="45.81204" lon="1.84837">
        <ele>687</ele>
        <time>2024-09-15T13:55:30Z</time>
      </trkpt>
      <trkpt lat="45.81204" lon="1.84836">
        <ele>687.2</ele>
        <time>2024-09-15T13:55:31Z</time>
      </trkpt>
      <trkpt lat="45.81204" lon="1.84836">
        <ele>687.4</ele>
        <time>2024-09-15T13:55:32Z</time>
      </trkpt>
      <trkpt lat="45.81204" lon="1.84836">
        <ele>687.6</ele>
        <time>2024-09-15T13:55:33Z</time>
      </trkpt>
      <trkpt lat="45.81204" lon="1.84836">
        <ele>687.8</ele>
        <time>2024-09-15T13:55:34Z</time>
      </trkpt>
      <trkpt lat="45.81204" lon="1.84836">
        <ele>688</ele>
        <time>2024-09-15T13:55:35Z</time>
      </trkpt>
      <trkpt lat="45.812" lon="1.84832">
        <ele>690</ele>
        <time>2024-09-15T13:55:49Z</time>
      </trkpt>
      <trkpt lat="45.81198" lon="1.84829">
        <ele>690.2</ele>
        <time>2024-09-15T13:55:50Z</time>
      </trkpt>
      <trkpt lat="45.81194" lon="1.84827">
        <ele>690.2</ele>
        <time>2024-09-15T13:55:51Z</time>
      </trkpt>
      <trkpt lat="45.81193" lon="1.84826">
        <ele>690.4</ele>
        <time>2024-09-15T13:55:52Z</time>
      </trkpt>
      <trkpt lat="45.81192" lon="1.84825">
        <ele>690.4</ele>
        <time>2024-09-15T13:55:53Z</time>
      </trkpt>
      <trkpt lat="45.81192" lon="1.84824">
        <ele>690.6</ele>
        <time>2024-09-15T13:55:54Z</time>
      </trkpt>
      <trkpt lat="45.81188" lon="1.8482">
        <ele>692</ele>
        <time>2024-09-15T13:56:42Z</time>
      </trkpt>
      <trkpt lat="45.81186" lon="1.84819">
        <ele>692.2</ele>
        <time>2024-09-15T13:56:43Z</time>
      </trkpt>
      <trkpt lat="45.81183" lon="1.84816">
        <ele>692.2</ele>
        <time>2024-09-15T13:56:45Z</time>
      </trkpt>
      <trkpt lat="45.81182" lon="1.84816">
        <ele>692.2</ele>
        <time>2024-09-15T13:56:46Z</time>
      </trkpt>
      <trkpt lat="45.81181" lon="1.84815">
        <ele>692.4</ele>
        <time>2024-09-15T13:56:47Z</time>
      </trkpt>
      <trkpt lat="45.81177" lon="1.84814">
        <ele>692.6</ele>
        <time>2024-09-15T13:56:50Z</time>
      </trkpt>
      <trkpt lat="45.81173" lon="1.8481">
        <ele>693</ele>
        <time>2024-09-15T13:56:52Z</time>
      </trkpt>
      <trkpt lat="45.81173" lon="1.8481">
        <ele>693</ele>
        <time>2024-09-15T13:56:53Z</time>
      </trkpt>
      <trkpt lat="45.81173" lon="1.8481">
        <ele>693.2</ele>
        <time>2024-09-15T13:56:54Z</time>
      </trkpt>
      <trkpt lat="45.81173" lon="1.8481">
        <ele>693.2</ele>
        <time>2024-09-15T13:56:55Z</time>
      </trkpt>
      <trkpt lat="45.81173" lon="1.8481">
        <ele>693.4</ele>
        <time>2024-09-15T13:56:56Z</time>
      </trkpt>
      <trkpt lat="45.8117" lon="1.84808">
        <ele>693.6</ele>
        <time>2024-09-15T13:56:57Z</time>
      </trkpt>
      <trkpt lat="45.81166" lon="1.84806">
        <ele>693.6</ele>
        <time>2024-09-15T13:56:58Z</time>
      </trkpt>
      <trkpt lat="45.81166" lon="1.84806">
        <ele>693.6</ele>
        <time>2024-09-15T13:56:59Z</time>
      </trkpt>
      <trkpt lat="45.81162" lon="1.84805">
        <ele>693.8</ele>
        <time>2024-09-15T13:57:00Z</time>
      </trkpt>
      <trkpt lat="45.81158" lon="1.84803">
        <ele>693.8</ele>
        <time>2024-09-15T13:57:01Z</time>
      </trkpt>
      <trkpt lat="45.81154" lon="1.84801">
        <ele>694</ele>
        <time>2024-09-15T13:57:02Z</time>
      </trkpt>
      <trkpt lat="45.81149" lon="1.84798">
        <ele>694.4</ele>
        <time>2024-09-15T13:57:03Z</time>
      </trkpt>
      <trkpt lat="45.81138" lon="1.84789">
        <ele>694.8</ele>
        <time>2024-09-15T13:57:07Z</time>
      </trkpt>
      <trkpt lat="45.81136" lon="1.84787">
        <ele>695</ele>
        <time>2024-09-15T13:57:08Z</time>
      </trkpt>
      <trkpt lat="45.81134" lon="1.84785">
        <ele>695</ele>
        <time>2024-09-15T13:57:09Z</time>
      </trkpt>
      <trkpt lat="45.81131" lon="1.84781">
        <ele>695</ele>
        <time>2024-09-15T13:57:10Z</time>
      </trkpt>
      <trkpt lat="45.81129" lon="1.84778">
        <ele>695.4</ele>
        <time>2024-09-15T13:57:11Z</time>
      </trkpt>
      <trkpt lat="45.81127" lon="1.84776">
        <ele>695.6</ele>
        <time>2024-09-15T13:57:12Z</time>
      </trkpt>
      <trkpt lat="45.81127" lon="1.84776">
        <ele>695.8</ele>
        <time>2024-09-15T13:57:13Z</time>
      </trkpt>
      <trkpt lat="45.81126" lon="1.84776">
        <ele>696</ele>
        <time>2024-09-15T13:57:14Z</time>
      </trkpt>
      <trkpt lat="45.81123" lon="1.84776">
        <ele>696.2</ele>
        <time>2024-09-15T13:57:15Z</time>
      </trkpt>
      <trkpt lat="45.81123" lon="1.84776">
        <ele>696.4</ele>
        <time>2024-09-15T13:57:16Z</time>
      </trkpt>
      <trkpt lat="45.81121" lon="1.84776">
        <ele>696.4</ele>
        <time>2024-09-15T13:57:17Z</time>
      </trkpt>
      <trkpt lat="45.81119" lon="1.84778">
        <ele>696.4</ele>
        <time>2024-09-15T13:57:18Z</time>
      </trkpt>
      <trkpt lat="45.81118" lon="1.84781">
        <ele>696.4</ele>
        <time>2024-09-15T13:57:19Z</time>
      </trkpt>
      <trkpt lat="45.81116" lon="1.84783">
        <ele>696.6</ele>
        <time>2024-09-15T13:57:20Z</time>
      </trkpt>
      <trkpt lat="45.81115" lon="1.84786">
        <ele>696.8</ele>
        <time>2024-09-15T13:57:21Z</time>
      </trkpt>
      <trkpt lat="45.81115" lon="1.84789">
        <ele>696.8</ele>
        <time>2024-09-15T13:57:22Z</time>
      </trkpt>
      <trkpt lat="45.81114" lon="1.84791">
        <ele>696.8</ele>
        <time>2024-09-15T13:57:23Z</time>
      </trkpt>
      <trkpt lat="45.81113" lon="1.84794">
        <ele>697</ele>
        <time>2024-09-15T13:57:24Z</time>
      </trkpt>
      <trkpt lat="45.81112" lon="1.84796">
        <ele>697</ele>
        <time>2024-09-15T13:57:25Z</time>
      </trkpt>
      <trkpt lat="45.8111" lon="1.84798">
        <ele>697.2</ele>
        <time>2024-09-15T13:57:26Z</time>
      </trkpt>
      <trkpt lat="45.81108" lon="1.84801">
        <ele>697.2</ele>
        <time>2024-09-15T13:57:27Z</time>
      </trkpt>
      <trkpt lat="45.81106" lon="1.84803">
        <ele>697.4</ele>
        <time>2024-09-15T13:57:28Z</time>
      </trkpt>
      <trkpt lat="45.81104" lon="1.84806">
        <ele>697.6</ele>
        <time>2024-09-15T13:57:29Z</time>
      </trkpt>
      <trkpt lat="45.81102" lon="1.84809">
        <ele>697.6</ele>
        <time>2024-09-15T13:57:30Z</time>
      </trkpt>
      <trkpt lat="45.81102" lon="1.84809">
        <ele>697.8</ele>
        <time>2024-09-15T13:57:31Z</time>
      </trkpt>
      <trkpt lat="45.81101" lon="1.8481">
        <ele>697.8</ele>
        <time>2024-09-15T13:57:32Z</time>
      </trkpt>
      <trkpt lat="45.81101" lon="1.8481">
        <ele>698</ele>
        <time>2024-09-15T13:57:33Z</time>
      </trkpt>
      <trkpt lat="45.81101" lon="1.84813">
        <ele>698</ele>
        <time>2024-09-15T13:57:34Z</time>
      </trkpt>
      <trkpt lat="45.811" lon="1.84816">
        <ele>698</ele>
        <time>2024-09-15T13:57:35Z</time>
      </trkpt>
      <trkpt lat="45.81101" lon="1.84818">
        <ele>698</ele>
        <time>2024-09-15T13:57:36Z</time>
      </trkpt>
      <trkpt lat="45.811" lon="1.84819">
        <ele>698.4</ele>
        <time>2024-09-15T13:57:37Z</time>
      </trkpt>
      <trkpt lat="45.81098" lon="1.84822">
        <ele>698.8</ele>
        <time>2024-09-15T13:57:38Z</time>
      </trkpt>
      <trkpt lat="45.81097" lon="1.84825">
        <ele>699</ele>
        <time>2024-09-15T13:57:39Z</time>
      </trkpt>
      <trkpt lat="45.81097" lon="1.84828">
        <ele>699.2</ele>
        <time>2024-09-15T13:57:40Z</time>
      </trkpt>
      <trkpt lat="45.81096" lon="1.84829">
        <ele>699.4</ele>
        <time>2024-09-15T13:57:41Z</time>
      </trkpt>
      <trkpt lat="45.81095" lon="1.8483">
        <ele>699.6</ele>
        <time>2024-09-15T13:57:42Z</time>
      </trkpt>
      <trkpt lat="45.81094" lon="1.84831">
        <ele>699.8</ele>
        <time>2024-09-15T13:57:43Z</time>
      </trkpt>
      <trkpt lat="45.81093" lon="1.84832">
        <ele>700</ele>
        <time>2024-09-15T13:57:44Z</time>
      </trkpt>
      <trkpt lat="45.81094" lon="1.84835">
        <ele>700.4</ele>
        <time>2024-09-15T13:57:45Z</time>
      </trkpt>
      <trkpt lat="45.81095" lon="1.84836">
        <ele>700.6</ele>
        <time>2024-09-15T13:57:46Z</time>
      </trkpt>
      <trkpt lat="45.81094" lon="1.84837">
        <ele>700.8</ele>
        <time>2024-09-15T13:57:47Z</time>
      </trkpt>
      <trkpt lat="45.81091" lon="1.8484">
        <ele>701</ele>
        <time>2024-09-15T13:57:48Z</time>
      </trkpt>
      <trkpt lat="45.8109" lon="1.84841">
        <ele>701.2</ele>
        <time>2024-09-15T13:57:49Z</time>
      </trkpt>
      <trkpt lat="45.81088" lon="1.84842">
        <ele>701.4</ele>
        <time>2024-09-15T13:57:50Z</time>
      </trkpt>
      <trkpt lat="45.81087" lon="1.84845">
        <ele>701.8</ele>
        <time>2024-09-15T13:57:51Z</time>
      </trkpt>
      <trkpt lat="45.81085" lon="1.84847">
        <ele>701.8</ele>
        <time>2024-09-15T13:57:52Z</time>
      </trkpt>
      <trkpt lat="45.81084" lon="1.84849">
        <ele>702</ele>
        <time>2024-09-15T13:57:53Z</time>
      </trkpt>
      <trkpt lat="45.81082" lon="1.8485">
        <ele>702</ele>
        <time>2024-09-15T13:57:54Z</time>
      </trkpt>
      <trkpt lat="45.81081" lon="1.84851">
        <ele>702.2</ele>
        <time>2024-09-15T13:57:55Z</time>
      </trkpt>
      <trkpt lat="45.81079" lon="1.84853">
        <ele>702.2</ele>
        <time>2024-09-15T13:57:56Z</time>
      </trkpt>
      <trkpt lat="45.81078" lon="1.84855">
        <ele>702.4</ele>
        <time>2024-09-15T13:57:57Z</time>
      </trkpt>
      <trkpt lat="45.81078" lon="1.84857">
        <ele>702.4</ele>
        <time>2024-09-15T13:57:58Z</time>
      </trkpt>
      <trkpt lat="45.81077" lon="1.84858">
        <ele>702.4</ele>
        <time>2024-09-15T13:57:59Z</time>
      </trkpt>
      <trkpt lat="45.81077" lon="1.84859">
        <ele>702.6</ele>
        <time>2024-09-15T13:58:00Z</time>
      </trkpt>
      <trkpt lat="45.81077" lon="1.8486">
        <ele>702.8</ele>
        <time>2024-09-15T13:58:01Z</time>
      </trkpt>
      <trkpt lat="45.81077" lon="1.84861">
        <ele>702.8</ele>
        <time>2024-09-15T13:58:02Z</time>
      </trkpt>
      <trkpt lat="45.81076" lon="1.84862">
        <ele>702.8</ele>
        <time>2024-09-15T13:58:03Z</time>
      </trkpt>
      <trkpt lat="45.81076" lon="1.84862">
        <ele>703</ele>
        <time>2024-09-15T13:58:04Z</time>
      </trkpt>
      <trkpt lat="45.81075" lon="1.84863">
        <ele>703.2</ele>
        <time>2024-09-15T13:58:05Z</time>
      </trkpt>
      <trkpt lat="45.81075" lon="1.84864">
        <ele>703.6</ele>
        <time>2024-09-15T13:58:06Z</time>
      </trkpt>
      <trkpt lat="45.81074" lon="1.84865">
        <ele>703.8</ele>
        <time>2024-09-15T13:58:07Z</time>
      </trkpt>
      <trkpt lat="45.81073" lon="1.84866">
        <ele>703.8</ele>
        <time>2024-09-15T13:58:08Z</time>
      </trkpt>
      <trkpt lat="45.81072" lon="1.84868">
        <ele>704</ele>
        <time>2024-09-15T13:58:09Z</time>
      </trkpt>
      <trkpt lat="45.8107" lon="1.84869">
        <ele>704.2</ele>
        <time>2024-09-15T13:58:10Z</time>
      </trkpt>
      <trkpt lat="45.81069" lon="1.84871">
        <ele>704.4</ele>
        <time>2024-09-15T13:58:11Z</time>
      </trkpt>
      <trkpt lat="45.81067" lon="1.84873">
        <ele>704.6</ele>
        <time>2024-09-15T13:58:12Z</time>
      </trkpt>
      <trkpt lat="45.81066" lon="1.84875">
        <ele>704.8</ele>
        <time>2024-09-15T13:58:13Z</time>
      </trkpt>
      <trkpt lat="45.81065" lon="1.84876">
        <ele>705</ele>
        <time>2024-09-15T13:58:14Z</time>
      </trkpt>
      <trkpt lat="45.81064" lon="1.84878">
        <ele>705.2</ele>
        <time>2024-09-15T13:58:15Z</time>
      </trkpt>
      <trkpt lat="45.81063" lon="1.84879">
        <ele>705.2</ele>
        <time>2024-09-15T13:58:16Z</time>
      </trkpt>
      <trkpt lat="45.81062" lon="1.8488">
        <ele>705.4</ele>
        <time>2024-09-15T13:58:17Z</time>
      </trkpt>
      <trkpt lat="45.8106" lon="1.84881">
        <ele>705.6</ele>
        <time>2024-09-15T13:58:18Z</time>
      </trkpt>
      <trkpt lat="45.81058" lon="1.84882">
        <ele>705.6</ele>
        <time>2024-09-15T13:58:19Z</time>
      </trkpt>
      <trkpt lat="45.81056" lon="1.84883">
        <ele>705.6</ele>
        <time>2024-09-15T13:58:20Z</time>
      </trkpt>
      <trkpt lat="45.81055" lon="1.84883">
        <ele>705.8</ele>
        <time>2024-09-15T13:58:21Z</time>
      </trkpt>
      <trkpt lat="45.81053" lon="1.84884">
        <ele>706.2</ele>
        <time>2024-09-15T13:58:22Z</time>
      </trkpt>
      <trkpt lat="45.81052" lon="1.84885">
        <ele>706.4</ele>
        <time>2024-09-15T13:58:23Z</time>
      </trkpt>
      <trkpt lat="45.81051" lon="1.84885">
        <ele>706.6</ele>
        <time>2024-09-15T13:58:24Z</time>
      </trkpt>
      <trkpt lat="45.8105" lon="1.84884">
        <ele>706.8</ele>
        <time>2024-09-15T13:58:25Z</time>
      </trkpt>
      <trkpt lat="45.81049" lon="1.84885">
        <ele>707</ele>
        <time>2024-09-15T13:58:26Z</time>
      </trkpt>
      <trkpt lat="45.81048" lon="1.84884">
        <ele>707</ele>
        <time>2024-09-15T13:58:27Z</time>
      </trkpt>
      <trkpt lat="45.81047" lon="1.84883">
        <ele>707.2</ele>
        <time>2024-09-15T13:58:28Z</time>
      </trkpt>
      <trkpt lat="45.81045" lon="1.84882">
        <ele>707.2</ele>
        <time>2024-09-15T13:58:29Z</time>
      </trkpt>
      <trkpt lat="45.81044" lon="1.84881">
        <ele>707.6</ele>
        <time>2024-09-15T13:58:30Z</time>
      </trkpt>
      <trkpt lat="45.81042" lon="1.8488">
        <ele>707.8</ele>
        <time>2024-09-15T13:58:31Z</time>
      </trkpt>
      <trkpt lat="45.81041" lon="1.84879">
        <ele>708.2</ele>
        <time>2024-09-15T13:58:32Z</time>
      </trkpt>
      <trkpt lat="45.8104" lon="1.84878">
        <ele>708.2</ele>
        <time>2024-09-15T13:58:33Z</time>
      </trkpt>
      <trkpt lat="45.81039" lon="1.84877">
        <ele>708.4</ele>
        <time>2024-09-15T13:58:34Z</time>
      </trkpt>
      <trkpt lat="45.81037" lon="1.84876">
        <ele>708.6</ele>
        <time>2024-09-15T13:58:35Z</time>
      </trkpt>
      <trkpt lat="45.81036" lon="1.84875">
        <ele>709</ele>
        <time>2024-09-15T13:58:36Z</time>
      </trkpt>
      <trkpt lat="45.81035" lon="1.84874">
        <ele>709.2</ele>
        <time>2024-09-15T13:58:37Z</time>
      </trkpt>
      <trkpt lat="45.81033" lon="1.84872">
        <ele>709.2</ele>
        <time>2024-09-15T13:58:38Z</time>
      </trkpt>
      <trkpt lat="45.81032" lon="1.84872">
        <ele>709.6</ele>
        <time>2024-09-15T13:58:39Z</time>
      </trkpt>
      <trkpt lat="45.81031" lon="1.84871">
        <ele>709.6</ele>
        <time>2024-09-15T13:58:40Z</time>
      </trkpt>
      <trkpt lat="45.8103" lon="1.84871">
        <ele>709.8</ele>
        <time>2024-09-15T13:58:41Z</time>
      </trkpt>
      <trkpt lat="45.81028" lon="1.8487">
        <ele>710</ele>
        <time>2024-09-15T13:58:42Z</time>
      </trkpt>
      <trkpt lat="45.81027" lon="1.84869">
        <ele>710</ele>
        <time>2024-09-15T13:58:43Z</time>
      </trkpt>
      <trkpt lat="45.81026" lon="1.84869">
        <ele>710.2</ele>
        <time>2024-09-15T13:58:44Z</time>
      </trkpt>
      <trkpt lat="45.81024" lon="1.84868">
        <ele>710.2</ele>
        <time>2024-09-15T13:58:45Z</time>
      </trkpt>
      <trkpt lat="45.81023" lon="1.84867">
        <ele>710.2</ele>
        <time>2024-09-15T13:58:46Z</time>
      </trkpt>
      <trkpt lat="45.81022" lon="1.84867">
        <ele>710.4</ele>
        <time>2024-09-15T13:58:47Z</time>
      </trkpt>
      <trkpt lat="45.8102" lon="1.84866">
        <ele>710.4</ele>
        <time>2024-09-15T13:58:48Z</time>
      </trkpt>
      <trkpt lat="45.81019" lon="1.84866">
        <ele>710.4</ele>
        <time>2024-09-15T13:58:49Z</time>
      </trkpt>
      <trkpt lat="45.81016" lon="1.84866">
        <ele>710.6</ele>
        <time>2024-09-15T13:58:50Z</time>
      </trkpt>
      <trkpt lat="45.81014" lon="1.84866">
        <ele>710.6</ele>
        <time>2024-09-15T13:58:51Z</time>
      </trkpt>
      <trkpt lat="45.81013" lon="1.84865">
        <ele>710.8</ele>
        <time>2024-09-15T13:58:52Z</time>
      </trkpt>
      <trkpt lat="45.81012" lon="1.84865">
        <ele>710.8</ele>
        <time>2024-09-15T13:58:53Z</time>
      </trkpt>
      <trkpt lat="45.8101" lon="1.84864">
        <ele>710.8</ele>
        <time>2024-09-15T13:58:54Z</time>
      </trkpt>
      <trkpt lat="45.81009" lon="1.84864">
        <ele>710.8</ele>
        <time>2024-09-15T13:58:55Z</time>
      </trkpt>
      <trkpt lat="45.81007" lon="1.84864">
        <ele>711</ele>
        <time>2024-09-15T13:58:56Z</time>
      </trkpt>
      <trkpt lat="45.81005" lon="1.84865">
        <ele>711</ele>
        <time>2024-09-15T13:58:57Z</time>
      </trkpt>
      <trkpt lat="45.81004" lon="1.84864">
        <ele>711.2</ele>
        <time>2024-09-15T13:58:58Z</time>
      </trkpt>
      <trkpt lat="45.81002" lon="1.84863">
        <ele>711.2</ele>
        <time>2024-09-15T13:58:59Z</time>
      </trkpt>
      <trkpt lat="45.81" lon="1.84863">
        <ele>711.4</ele>
        <time>2024-09-15T13:59:00Z</time>
      </trkpt>
      <trkpt lat="45.80998" lon="1.84863">
        <ele>711.4</ele>
        <time>2024-09-15T13:59:01Z</time>
      </trkpt>
      <trkpt lat="45.80996" lon="1.84863">
        <ele>711.6</ele>
        <time>2024-09-15T13:59:02Z</time>
      </trkpt>
      <trkpt lat="45.80995" lon="1.84862">
        <ele>711.8</ele>
        <time>2024-09-15T13:59:03Z</time>
      </trkpt>
      <trkpt lat="45.80993" lon="1.84862">
        <ele>711.8</ele>
        <time>2024-09-15T13:59:04Z</time>
      </trkpt>
      <trkpt lat="45.80992" lon="1.84861">
        <ele>711.8</ele>
        <time>2024-09-15T13:59:05Z</time>
      </trkpt>
      <trkpt lat="45.80991" lon="1.84861">
        <ele>711.8</ele>
        <time>2024-09-15T13:59:06Z</time>
      </trkpt>
      <trkpt lat="45.8099" lon="1.84861">
        <ele>712</ele>
        <time>2024-09-15T13:59:07Z</time>
      </trkpt>
      <trkpt lat="45.8099" lon="1.84861">
        <ele>712</ele>
        <time>2024-09-15T13:59:08Z</time>
      </trkpt>
      <trkpt lat="45.8099" lon="1.84861">
        <ele>712</ele>
        <time>2024-09-15T13:59:09Z</time>
      </trkpt>
      <trkpt lat="45.80989" lon="1.8486">
        <ele>712</ele>
        <time>2024-09-15T13:59:40Z</time>
      </trkpt>
      <trkpt lat="45.80983" lon="1.84858">
        <ele>712</ele>
        <time>2024-09-15T13:59:43Z</time>
      </trkpt>
      <trkpt lat="45.80978" lon="1.84856">
        <ele>712</ele>
        <time>2024-09-15T13:59:46Z</time>
      </trkpt>
      <trkpt lat="45.80976" lon="1.84855">
        <ele>712</ele>
        <time>2024-09-15T13:59:47Z</time>
      </trkpt>
      <trkpt lat="45.80975" lon="1.84855">
        <ele>712</ele>
        <time>2024-09-15T13:59:48Z</time>
      </trkpt>
      <trkpt lat="45.80973" lon="1.84854">
        <ele>712</ele>
        <time>2024-09-15T13:59:49Z</time>
      </trkpt>
      <trkpt lat="45.80971" lon="1.84853">
        <ele>711.8</ele>
        <time>2024-09-15T13:59:50Z</time>
      </trkpt>
      <trkpt lat="45.80968" lon="1.84852">
        <ele>711.8</ele>
        <time>2024-09-15T13:59:52Z</time>
      </trkpt>
      <trkpt lat="45.80956" lon="1.84849">
        <ele>711.4</ele>
        <time>2024-09-15T13:59:57Z</time>
      </trkpt>
      <trkpt lat="45.80953" lon="1.84849">
        <ele>711.4</ele>
        <time>2024-09-15T13:59:58Z</time>
      </trkpt>
      <trkpt lat="45.80937" lon="1.84833">
        <ele>710.8</ele>
        <time>2024-09-15T14:00:03Z</time>
      </trkpt>
      <trkpt lat="45.80931" lon="1.84825">
        <ele>710.4</ele>
        <time>2024-09-15T14:00:05Z</time>
      </trkpt>
      <trkpt lat="45.80929" lon="1.84823">
        <ele>710.2</ele>
        <time>2024-09-15T14:00:06Z</time>
      </trkpt>
      <trkpt lat="45.80926" lon="1.8482">
        <ele>710</ele>
        <time>2024-09-15T14:00:07Z</time>
      </trkpt>
      <trkpt lat="45.80924" lon="1.84818">
        <ele>709.8</ele>
        <time>2024-09-15T14:00:08Z</time>
      </trkpt>
      <trkpt lat="45.80922" lon="1.84817">
        <ele>709.6</ele>
        <time>2024-09-15T14:00:09Z</time>
      </trkpt>
      <trkpt lat="45.8092" lon="1.84817">
        <ele>708.8</ele>
        <time>2024-09-15T14:00:10Z</time>
      </trkpt>
      <trkpt lat="45.80917" lon="1.84816">
        <ele>708.4</ele>
        <time>2024-09-15T14:00:11Z</time>
      </trkpt>
      <trkpt lat="45.80913" lon="1.84817">
        <ele>707.8</ele>
        <time>2024-09-15T14:00:12Z</time>
      </trkpt>
      <trkpt lat="45.8091" lon="1.84818">
        <ele>707.6</ele>
        <time>2024-09-15T14:00:13Z</time>
      </trkpt>
      <trkpt lat="45.80907" lon="1.8482">
        <ele>707.4</ele>
        <time>2024-09-15T14:00:14Z</time>
      </trkpt>
      <trkpt lat="45.80903" lon="1.84822">
        <ele>707.4</ele>
        <time>2024-09-15T14:00:15Z</time>
      </trkpt>
      <trkpt lat="45.8089" lon="1.84823">
        <ele>706.8</ele>
        <time>2024-09-15T14:00:18Z</time>
      </trkpt>
      <trkpt lat="45.80886" lon="1.84821">
        <ele>706.4</ele>
        <time>2024-09-15T14:00:19Z</time>
      </trkpt>
      <trkpt lat="45.80881" lon="1.84818">
        <ele>706.2</ele>
        <time>2024-09-15T14:00:20Z</time>
      </trkpt>
      <trkpt lat="45.80876" lon="1.84814">
        <ele>705.8</ele>
        <time>2024-09-15T14:00:21Z</time>
      </trkpt>
      <trkpt lat="45.8087" lon="1.8481">
        <ele>705.8</ele>
        <time>2024-09-15T14:00:22Z</time>
      </trkpt>
      <trkpt lat="45.80864" lon="1.84805">
        <ele>705.6</ele>
        <time>2024-09-15T14:00:23Z</time>
      </trkpt>
      <trkpt lat="45.80854" lon="1.84796">
        <ele>705.4</ele>
        <time>2024-09-15T14:00:25Z</time>
      </trkpt>
      <trkpt lat="45.80844" lon="1.8479">
        <ele>705</ele>
        <time>2024-09-15T14:00:27Z</time>
      </trkpt>
      <trkpt lat="45.8084" lon="1.84787">
        <ele>705</ele>
        <time>2024-09-15T14:00:28Z</time>
      </trkpt>
      <trkpt lat="45.80837" lon="1.84784">
        <ele>704.6</ele>
        <time>2024-09-15T14:00:29Z</time>
      </trkpt>
      <trkpt lat="45.80834" lon="1.84781">
        <ele>703.6</ele>
        <time>2024-09-15T14:00:30Z</time>
      </trkpt>
      <trkpt lat="45.80831" lon="1.84779">
        <ele>703.2</ele>
        <time>2024-09-15T14:00:31Z</time>
      </trkpt>
      <trkpt lat="45.80829" lon="1.84778">
        <ele>702.4</ele>
        <time>2024-09-15T14:00:32Z</time>
      </trkpt>
      <trkpt lat="45.80826" lon="1.84777">
        <ele>702</ele>
        <time>2024-09-15T14:00:33Z</time>
      </trkpt>
      <trkpt lat="45.80824" lon="1.84777">
        <ele>701.2</ele>
        <time>2024-09-15T14:00:34Z</time>
      </trkpt>
      <trkpt lat="45.80822" lon="1.84777">
        <ele>700.8</ele>
        <time>2024-09-15T14:00:35Z</time>
      </trkpt>
      <trkpt lat="45.8082" lon="1.84777">
        <ele>700</ele>
        <time>2024-09-15T14:00:36Z</time>
      </trkpt>
      <trkpt lat="45.80819" lon="1.84778">
        <ele>699.2</ele>
        <time>2024-09-15T14:00:37Z</time>
      </trkpt>
      <trkpt lat="45.80817" lon="1.84779">
        <ele>698.8</ele>
        <time>2024-09-15T14:00:38Z</time>
      </trkpt>
      <trkpt lat="45.80816" lon="1.84779">
        <ele>698</ele>
        <time>2024-09-15T14:00:39Z</time>
      </trkpt>
      <trkpt lat="45.80813" lon="1.8478">
        <ele>697.6</ele>
        <time>2024-09-15T14:00:41Z</time>
      </trkpt>
      <trkpt lat="45.80811" lon="1.8478">
        <ele>697.2</ele>
        <time>2024-09-15T14:00:42Z</time>
      </trkpt>
      <trkpt lat="45.8081" lon="1.8478">
        <ele>696.8</ele>
        <time>2024-09-15T14:00:43Z</time>
      </trkpt>
      <trkpt lat="45.80809" lon="1.8478">
        <ele>696.4</ele>
        <time>2024-09-15T14:00:44Z</time>
      </trkpt>
      <trkpt lat="45.80808" lon="1.84779">
        <ele>696.2</ele>
        <time>2024-09-15T14:00:45Z</time>
      </trkpt>
      <trkpt lat="45.80807" lon="1.84779">
        <ele>696</ele>
        <time>2024-09-15T14:00:46Z</time>
      </trkpt>
      <trkpt lat="45.80804" lon="1.8478">
        <ele>695.2</ele>
        <time>2024-09-15T14:00:48Z</time>
      </trkpt>
      <trkpt lat="45.80799" lon="1.8478">
        <ele>694.8</ele>
        <time>2024-09-15T14:00:50Z</time>
      </trkpt>
      <trkpt lat="45.80794" lon="1.8478">
        <ele>693.8</ele>
        <time>2024-09-15T14:00:52Z</time>
      </trkpt>
      <trkpt lat="45.80791" lon="1.8478">
        <ele>693.2</ele>
        <time>2024-09-15T14:00:54Z</time>
      </trkpt>
      <trkpt lat="45.80788" lon="1.8478">
        <ele>692.8</ele>
        <time>2024-09-15T14:00:55Z</time>
      </trkpt>
      <trkpt lat="45.80786" lon="1.8478">
        <ele>692.4</ele>
        <time>2024-09-15T14:00:56Z</time>
      </trkpt>
      <trkpt lat="45.80781" lon="1.84781">
        <ele>692</ele>
        <time>2024-09-15T14:00:58Z</time>
      </trkpt>
      <trkpt lat="45.80779" lon="1.84781">
        <ele>691.8</ele>
        <time>2024-09-15T14:00:59Z</time>
      </trkpt>
      <trkpt lat="45.80774" lon="1.84782">
        <ele>691.4</ele>
        <time>2024-09-15T14:01:01Z</time>
      </trkpt>
      <trkpt lat="45.80765" lon="1.84781">
        <ele>690.6</ele>
        <time>2024-09-15T14:01:04Z</time>
      </trkpt>
      <trkpt lat="45.80758" lon="1.84775">
        <ele>690.2</ele>
        <time>2024-09-15T14:01:06Z</time>
      </trkpt>
      <trkpt lat="45.80755" lon="1.84771">
        <ele>690</ele>
        <time>2024-09-15T14:01:07Z</time>
      </trkpt>
      <trkpt lat="45.80754" lon="1.84767">
        <ele>689.8</ele>
        <time>2024-09-15T14:01:08Z</time>
      </trkpt>
      <trkpt lat="45.80752" lon="1.84764">
        <ele>689.8</ele>
        <time>2024-09-15T14:01:09Z</time>
      </trkpt>
      <trkpt lat="45.8075" lon="1.8476">
        <ele>689.8</ele>
        <time>2024-09-15T14:01:10Z</time>
      </trkpt>
      <trkpt lat="45.80748" lon="1.84757">
        <ele>689.6</ele>
        <time>2024-09-15T14:01:11Z</time>
      </trkpt>
      <trkpt lat="45.80748" lon="1.84754">
        <ele>689.6</ele>
        <time>2024-09-15T14:01:12Z</time>
      </trkpt>
      <trkpt lat="45.80748" lon="1.8475">
        <ele>689.6</ele>
        <time>2024-09-15T14:01:13Z</time>
      </trkpt>
      <trkpt lat="45.80745" lon="1.84742">
        <ele>689.4</ele>
        <time>2024-09-15T14:01:15Z</time>
      </trkpt>
      <trkpt lat="45.80741" lon="1.84735">
        <ele>689.4</ele>
        <time>2024-09-15T14:01:17Z</time>
      </trkpt>
      <trkpt lat="45.80739" lon="1.84731">
        <ele>689.4</ele>
        <time>2024-09-15T14:01:18Z</time>
      </trkpt>
      <trkpt lat="45.80737" lon="1.84727">
        <ele>689.4</ele>
        <time>2024-09-15T14:01:19Z</time>
      </trkpt>
      <trkpt lat="45.80734" lon="1.84717">
        <ele>689.2</ele>
        <time>2024-09-15T14:01:21Z</time>
      </trkpt>
      <trkpt lat="45.8073" lon="1.84707">
        <ele>689</ele>
        <time>2024-09-15T14:01:23Z</time>
      </trkpt>
      <trkpt lat="45.80725" lon="1.84688">
        <ele>688.4</ele>
        <time>2024-09-15T14:01:26Z</time>
      </trkpt>
      <trkpt lat="45.80724" lon="1.84682">
        <ele>688.2</ele>
        <time>2024-09-15T14:01:27Z</time>
      </trkpt>
      <trkpt lat="45.80725" lon="1.8467">
        <ele>688</ele>
        <time>2024-09-15T14:01:29Z</time>
      </trkpt>
      <trkpt lat="45.80724" lon="1.8466">
        <ele>687.8</ele>
        <time>2024-09-15T14:01:30Z</time>
      </trkpt>
      <trkpt lat="45.80723" lon="1.84649">
        <ele>687.6</ele>
        <time>2024-09-15T14:01:31Z</time>
      </trkpt>
      <trkpt lat="45.80725" lon="1.84626">
        <ele>687.2</ele>
        <time>2024-09-15T14:01:33Z</time>
      </trkpt>
      <trkpt lat="45.80727" lon="1.84614">
        <ele>686.4</ele>
        <time>2024-09-15T14:01:34Z</time>
      </trkpt>
      <trkpt lat="45.80729" lon="1.84589">
        <ele>685.6</ele>
        <time>2024-09-15T14:01:36Z</time>
      </trkpt>
      <trkpt lat="45.80732" lon="1.84565">
        <ele>684.6</ele>
        <time>2024-09-15T14:01:38Z</time>
      </trkpt>
      <trkpt lat="45.80732" lon="1.84551">
        <ele>684.2</ele>
        <time>2024-09-15T14:01:39Z</time>
      </trkpt>
      <trkpt lat="45.80733" lon="1.84537">
        <ele>683.6</ele>
        <time>2024-09-15T14:01:40Z</time>
      </trkpt>
      <trkpt lat="45.80731" lon="1.84506">
        <ele>682.2</ele>
        <time>2024-09-15T14:01:42Z</time>
      </trkpt>
      <trkpt lat="45.80725" lon="1.84475">
        <ele>680.4</ele>
        <time>2024-09-15T14:01:44Z</time>
      </trkpt>
      <trkpt lat="45.80719" lon="1.8446">
        <ele>679.6</ele>
        <time>2024-09-15T14:01:45Z</time>
      </trkpt>
      <trkpt lat="45.80712" lon="1.84445">
        <ele>679.2</ele>
        <time>2024-09-15T14:01:46Z</time>
      </trkpt>
      <trkpt lat="45.80695" lon="1.84419">
        <ele>678</ele>
        <time>2024-09-15T14:01:48Z</time>
      </trkpt>
      <trkpt lat="45.80674" lon="1.84398">
        <ele>676.8</ele>
        <time>2024-09-15T14:01:50Z</time>
      </trkpt>
      <trkpt lat="45.80663" lon="1.84389">
        <ele>675.6</ele>
        <time>2024-09-15T14:01:51Z</time>
      </trkpt>
      <trkpt lat="45.80653" lon="1.84382">
        <ele>675.2</ele>
        <time>2024-09-15T14:01:52Z</time>
      </trkpt>
      <trkpt lat="45.80643" lon="1.84375">
        <ele>674.4</ele>
        <time>2024-09-15T14:01:53Z</time>
      </trkpt>
      <trkpt lat="45.80621" lon="1.84361">
        <ele>672</ele>
        <time>2024-09-15T14:01:55Z</time>
      </trkpt>
      <trkpt lat="45.806" lon="1.84351">
        <ele>670.8</ele>
        <time>2024-09-15T14:01:57Z</time>
      </trkpt>
      <trkpt lat="45.8059" lon="1.84346">
        <ele>670</ele>
        <time>2024-09-15T14:01:58Z</time>
      </trkpt>
      <trkpt lat="45.8058" lon="1.84342">
        <ele>669.4</ele>
        <time>2024-09-15T14:01:59Z</time>
      </trkpt>
      <trkpt lat="45.80571" lon="1.84337">
        <ele>668.4</ele>
        <time>2024-09-15T14:02:00Z</time>
      </trkpt>
      <trkpt lat="45.80564" lon="1.84333">
        <ele>668</ele>
        <time>2024-09-15T14:02:01Z</time>
      </trkpt>
      <trkpt lat="45.80558" lon="1.84328">
        <ele>667.6</ele>
        <time>2024-09-15T14:02:02Z</time>
      </trkpt>
      <trkpt lat="45.80552" lon="1.84323">
        <ele>667.6</ele>
        <time>2024-09-15T14:02:03Z</time>
      </trkpt>
      <trkpt lat="45.80548" lon="1.84319">
        <ele>667.4</ele>
        <time>2024-09-15T14:02:04Z</time>
      </trkpt>
      <trkpt lat="45.80543" lon="1.84314">
        <ele>667.4</ele>
        <time>2024-09-15T14:02:05Z</time>
      </trkpt>
      <trkpt lat="45.80539" lon="1.84309">
        <ele>667.2</ele>
        <time>2024-09-15T14:02:06Z</time>
      </trkpt>
      <trkpt lat="45.80534" lon="1.84304">
        <ele>667</ele>
        <time>2024-09-15T14:02:07Z</time>
      </trkpt>
      <trkpt lat="45.80531" lon="1.84298">
        <ele>666.6</ele>
        <time>2024-09-15T14:02:08Z</time>
      </trkpt>
      <trkpt lat="45.80524" lon="1.84286">
        <ele>666.2</ele>
        <time>2024-09-15T14:02:10Z</time>
      </trkpt>
      <trkpt lat="45.80522" lon="1.8428">
        <ele>666</ele>
        <time>2024-09-15T14:02:11Z</time>
      </trkpt>
      <trkpt lat="45.80519" lon="1.84275">
        <ele>666</ele>
        <time>2024-09-15T14:02:12Z</time>
      </trkpt>
      <trkpt lat="45.80517" lon="1.84269">
        <ele>666</ele>
        <time>2024-09-15T14:02:13Z</time>
      </trkpt>
      <trkpt lat="45.80515" lon="1.84263">
        <ele>665.8</ele>
        <time>2024-09-15T14:02:14Z</time>
      </trkpt>
      <trkpt lat="45.80513" lon="1.84258">
        <ele>665.8</ele>
        <time>2024-09-15T14:02:15Z</time>
      </trkpt>
      <trkpt lat="45.80511" lon="1.84253">
        <ele>665.8</ele>
        <time>2024-09-15T14:02:16Z</time>
      </trkpt>
      <trkpt lat="45.8051" lon="1.84248">
        <ele>665.8</ele>
        <time>2024-09-15T14:02:17Z</time>
      </trkpt>
      <trkpt lat="45.80509" lon="1.84242">
        <ele>666</ele>
        <time>2024-09-15T14:02:18Z</time>
      </trkpt>
      <trkpt lat="45.80508" lon="1.84237">
        <ele>666</ele>
        <time>2024-09-15T14:02:19Z</time>
      </trkpt>
      <trkpt lat="45.80508" lon="1.84232">
        <ele>666.2</ele>
        <time>2024-09-15T14:02:20Z</time>
      </trkpt>
      <trkpt lat="45.80506" lon="1.842">
        <ele>667</ele>
        <time>2024-09-15T14:02:25Z</time>
      </trkpt>
      <trkpt lat="45.80506" lon="1.84194">
        <ele>667.2</ele>
        <time>2024-09-15T14:02:26Z</time>
      </trkpt>
      <trkpt lat="45.80506" lon="1.8418">
        <ele>667.6</ele>
        <time>2024-09-15T14:02:28Z</time>
      </trkpt>
      <trkpt lat="45.80505" lon="1.84169">
        <ele>668</ele>
        <time>2024-09-15T14:02:30Z</time>
      </trkpt>
      <trkpt lat="45.80505" lon="1.84165">
        <ele>668.4</ele>
        <time>2024-09-15T14:02:31Z</time>
      </trkpt>
      <trkpt lat="45.80506" lon="1.8416">
        <ele>668.4</ele>
        <time>2024-09-15T14:02:32Z</time>
      </trkpt>
      <trkpt lat="45.80506" lon="1.84155">
        <ele>668.8</ele>
        <time>2024-09-15T14:02:33Z</time>
      </trkpt>
      <trkpt lat="45.80505" lon="1.84151">
        <ele>669</ele>
        <time>2024-09-15T14:02:34Z</time>
      </trkpt>
      <trkpt lat="45.80505" lon="1.84147">
        <ele>669.4</ele>
        <time>2024-09-15T14:02:35Z</time>
      </trkpt>
      <trkpt lat="45.80504" lon="1.84144">
        <ele>669.6</ele>
        <time>2024-09-15T14:02:36Z</time>
      </trkpt>
      <trkpt lat="45.80504" lon="1.84142">
        <ele>669.8</ele>
        <time>2024-09-15T14:02:37Z</time>
      </trkpt>
      <trkpt lat="45.80504" lon="1.84141">
        <ele>669.8</ele>
        <time>2024-09-15T14:02:38Z</time>
      </trkpt>
      <trkpt lat="45.80504" lon="1.84141">
        <ele>670</ele>
        <time>2024-09-15T14:02:39Z</time>
      </trkpt>
      <trkpt lat="45.80504" lon="1.84141">
        <ele>670</ele>
        <time>2024-09-15T14:02:40Z</time>
      </trkpt>
      <trkpt lat="45.80501" lon="1.84139">
        <ele>670.2</ele>
        <time>2024-09-15T14:02:43Z</time>
      </trkpt>
      <trkpt lat="45.805" lon="1.84141">
        <ele>670.4</ele>
        <time>2024-09-15T14:02:44Z</time>
      </trkpt>
      <trkpt lat="45.805" lon="1.84142">
        <ele>670.4</ele>
        <time>2024-09-15T14:02:45Z</time>
      </trkpt>
      <trkpt lat="45.80499" lon="1.84144">
        <ele>670.6</ele>
        <time>2024-09-15T14:02:46Z</time>
      </trkpt>
      <trkpt lat="45.80499" lon="1.84145">
        <ele>670.6</ele>
        <time>2024-09-15T14:02:47Z</time>
      </trkpt>
      <trkpt lat="45.80498" lon="1.84148">
        <ele>670.6</ele>
        <time>2024-09-15T14:02:48Z</time>
      </trkpt>
      <trkpt lat="45.80495" lon="1.8415">
        <ele>670.6</ele>
        <time>2024-09-15T14:02:49Z</time>
      </trkpt>
      <trkpt lat="45.80493" lon="1.84153">
        <ele>670.6</ele>
        <time>2024-09-15T14:02:50Z</time>
      </trkpt>
      <trkpt lat="45.8049" lon="1.84156">
        <ele>670.6</ele>
        <time>2024-09-15T14:02:51Z</time>
      </trkpt>
      <trkpt lat="45.80488" lon="1.8416">
        <ele>670.8</ele>
        <time>2024-09-15T14:02:52Z</time>
      </trkpt>
      <trkpt lat="45.80485" lon="1.84163">
        <ele>670.8</ele>
        <time>2024-09-15T14:02:53Z</time>
      </trkpt>
      <trkpt lat="45.80483" lon="1.84166">
        <ele>671</ele>
        <time>2024-09-15T14:02:54Z</time>
      </trkpt>
      <trkpt lat="45.8048" lon="1.84168">
        <ele>671.2</ele>
        <time>2024-09-15T14:02:55Z</time>
      </trkpt>
      <trkpt lat="45.80478" lon="1.8417">
        <ele>671.4</ele>
        <time>2024-09-15T14:02:56Z</time>
      </trkpt>
      <trkpt lat="45.80475" lon="1.84173">
        <ele>671.6</ele>
        <time>2024-09-15T14:02:57Z</time>
      </trkpt>
      <trkpt lat="45.80473" lon="1.84175">
        <ele>671.8</ele>
        <time>2024-09-15T14:02:58Z</time>
      </trkpt>
      <trkpt lat="45.80471" lon="1.8418">
        <ele>672</ele>
        <time>2024-09-15T14:02:59Z</time>
      </trkpt>
      <trkpt lat="45.80466" lon="1.84184">
        <ele>672</ele>
        <time>2024-09-15T14:03:00Z</time>
      </trkpt>
      <trkpt lat="45.8046" lon="1.84188">
        <ele>672.2</ele>
        <time>2024-09-15T14:03:01Z</time>
      </trkpt>
      <trkpt lat="45.80455" lon="1.84192">
        <ele>672.2</ele>
        <time>2024-09-15T14:03:02Z</time>
      </trkpt>
      <trkpt lat="45.80452" lon="1.84195">
        <ele>672.2</ele>
        <time>2024-09-15T14:03:03Z</time>
      </trkpt>
      <trkpt lat="45.80449" lon="1.84198">
        <ele>672.4</ele>
        <time>2024-09-15T14:03:04Z</time>
      </trkpt>
      <trkpt lat="45.80445" lon="1.84201">
        <ele>672.4</ele>
        <time>2024-09-15T14:03:05Z</time>
      </trkpt>
      <trkpt lat="45.80442" lon="1.84203">
        <ele>672.4</ele>
        <time>2024-09-15T14:03:06Z</time>
      </trkpt>
      <trkpt lat="45.80438" lon="1.84205">
        <ele>672.6</ele>
        <time>2024-09-15T14:03:07Z</time>
      </trkpt>
      <trkpt lat="45.80434" lon="1.84208">
        <ele>672.8</ele>
        <time>2024-09-15T14:03:08Z</time>
      </trkpt>
      <trkpt lat="45.80431" lon="1.84211">
        <ele>673</ele>
        <time>2024-09-15T14:03:09Z</time>
      </trkpt>
      <trkpt lat="45.80427" lon="1.84215">
        <ele>673.2</ele>
        <time>2024-09-15T14:03:10Z</time>
      </trkpt>
      <trkpt lat="45.80424" lon="1.84221">
        <ele>673.4</ele>
        <time>2024-09-15T14:03:11Z</time>
      </trkpt>
      <trkpt lat="45.80421" lon="1.84224">
        <ele>673.6</ele>
        <time>2024-09-15T14:03:12Z</time>
      </trkpt>
      <trkpt lat="45.80418" lon="1.84227">
        <ele>673.8</ele>
        <time>2024-09-15T14:03:13Z</time>
      </trkpt>
      <trkpt lat="45.80415" lon="1.84229">
        <ele>674.4</ele>
        <time>2024-09-15T14:03:14Z</time>
      </trkpt>
      <trkpt lat="45.8041" lon="1.84233">
        <ele>674.6</ele>
        <time>2024-09-15T14:03:15Z</time>
      </trkpt>
      <trkpt lat="45.80405" lon="1.84237">
        <ele>675</ele>
        <time>2024-09-15T14:03:16Z</time>
      </trkpt>
      <trkpt lat="45.80401" lon="1.8424">
        <ele>675.2</ele>
        <time>2024-09-15T14:03:17Z</time>
      </trkpt>
      <trkpt lat="45.80397" lon="1.84241">
        <ele>675.4</ele>
        <time>2024-09-15T14:03:18Z</time>
      </trkpt>
      <trkpt lat="45.80393" lon="1.84243">
        <ele>675.6</ele>
        <time>2024-09-15T14:03:19Z</time>
      </trkpt>
      <trkpt lat="45.80389" lon="1.84245">
        <ele>675.8</ele>
        <time>2024-09-15T14:03:20Z</time>
      </trkpt>
      <trkpt lat="45.80385" lon="1.84248">
        <ele>676</ele>
        <time>2024-09-15T14:03:21Z</time>
      </trkpt>
      <trkpt lat="45.80382" lon="1.84252">
        <ele>676.2</ele>
        <time>2024-09-15T14:03:22Z</time>
      </trkpt>
      <trkpt lat="45.80379" lon="1.84255">
        <ele>676.6</ele>
        <time>2024-09-15T14:03:23Z</time>
      </trkpt>
      <trkpt lat="45.80376" lon="1.84258">
        <ele>676.6</ele>
        <time>2024-09-15T14:03:24Z</time>
      </trkpt>
      <trkpt lat="45.80374" lon="1.84261">
        <ele>676.8</ele>
        <time>2024-09-15T14:03:25Z</time>
      </trkpt>
      <trkpt lat="45.80372" lon="1.84263">
        <ele>677</ele>
        <time>2024-09-15T14:03:26Z</time>
      </trkpt>
      <trkpt lat="45.80369" lon="1.84267">
        <ele>677</ele>
        <time>2024-09-15T14:03:27Z</time>
      </trkpt>
      <trkpt lat="45.80364" lon="1.84271">
        <ele>677.6</ele>
        <time>2024-09-15T14:03:28Z</time>
      </trkpt>
      <trkpt lat="45.8036" lon="1.84275">
        <ele>677.6</ele>
        <time>2024-09-15T14:03:29Z</time>
      </trkpt>
      <trkpt lat="45.80354" lon="1.84278">
        <ele>677.8</ele>
        <time>2024-09-15T14:03:30Z</time>
      </trkpt>
      <trkpt lat="45.8035" lon="1.84282">
        <ele>677.8</ele>
        <time>2024-09-15T14:03:31Z</time>
      </trkpt>
      <trkpt lat="45.80346" lon="1.84285">
        <ele>678.2</ele>
        <time>2024-09-15T14:03:32Z</time>
      </trkpt>
      <trkpt lat="45.80342" lon="1.84288">
        <ele>678.2</ele>
        <time>2024-09-15T14:03:33Z</time>
      </trkpt>
      <trkpt lat="45.80338" lon="1.84291">
        <ele>678.4</ele>
        <time>2024-09-15T14:03:34Z</time>
      </trkpt>
      <trkpt lat="45.80333" lon="1.84293">
        <ele>678.4</ele>
        <time>2024-09-15T14:03:35Z</time>
      </trkpt>
      <trkpt lat="45.80329" lon="1.84298">
        <ele>678.6</ele>
        <time>2024-09-15T14:03:36Z</time>
      </trkpt>
      <trkpt lat="45.80325" lon="1.84304">
        <ele>678.6</ele>
        <time>2024-09-15T14:03:37Z</time>
      </trkpt>
      <trkpt lat="45.80322" lon="1.84309">
        <ele>678.8</ele>
        <time>2024-09-15T14:03:38Z</time>
      </trkpt>
      <trkpt lat="45.80319" lon="1.84314">
        <ele>678.8</ele>
        <time>2024-09-15T14:03:39Z</time>
      </trkpt>
      <trkpt lat="45.80315" lon="1.84319">
        <ele>678.8</ele>
        <time>2024-09-15T14:03:40Z</time>
      </trkpt>
      <trkpt lat="45.80313" lon="1.84324">
        <ele>679</ele>
        <time>2024-09-15T14:03:41Z</time>
      </trkpt>
      <trkpt lat="45.80309" lon="1.84328">
        <ele>679</ele>
        <time>2024-09-15T14:03:42Z</time>
      </trkpt>
      <trkpt lat="45.80305" lon="1.84332">
        <ele>678.8</ele>
        <time>2024-09-15T14:03:43Z</time>
      </trkpt>
      <trkpt lat="45.80301" lon="1.84336">
        <ele>678.8</ele>
        <time>2024-09-15T14:03:44Z</time>
      </trkpt>
      <trkpt lat="45.80296" lon="1.8434">
        <ele>678.8</ele>
        <time>2024-09-15T14:03:45Z</time>
      </trkpt>
      <trkpt lat="45.80292" lon="1.84343">
        <ele>678.6</ele>
        <time>2024-09-15T14:03:46Z</time>
      </trkpt>
      <trkpt lat="45.80287" lon="1.84347">
        <ele>678.2</ele>
        <time>2024-09-15T14:03:47Z</time>
      </trkpt>
      <trkpt lat="45.80282" lon="1.8435">
        <ele>678.2</ele>
        <time>2024-09-15T14:03:48Z</time>
      </trkpt>
      <trkpt lat="45.80277" lon="1.84354">
        <ele>678.2</ele>
        <time>2024-09-15T14:03:49Z</time>
      </trkpt>
      <trkpt lat="45.80272" lon="1.84357">
        <ele>677.8</ele>
        <time>2024-09-15T14:03:50Z</time>
      </trkpt>
      <trkpt lat="45.80267" lon="1.8436">
        <ele>677.6</ele>
        <time>2024-09-15T14:03:51Z</time>
      </trkpt>
      <trkpt lat="45.80258" lon="1.84365">
        <ele>677.4</ele>
        <time>2024-09-15T14:03:53Z</time>
      </trkpt>
      <trkpt lat="45.80243" lon="1.84376">
        <ele>676.6</ele>
        <time>2024-09-15T14:03:56Z</time>
      </trkpt>
      <trkpt lat="45.80234" lon="1.84385">
        <ele>676.2</ele>
        <time>2024-09-15T14:03:58Z</time>
      </trkpt>
      <trkpt lat="45.80231" lon="1.84389">
        <ele>676</ele>
        <time>2024-09-15T14:03:59Z</time>
      </trkpt>
      <trkpt lat="45.80228" lon="1.84394">
        <ele>675.8</ele>
        <time>2024-09-15T14:04:00Z</time>
      </trkpt>
      <trkpt lat="45.80226" lon="1.844">
        <ele>675.6</ele>
        <time>2024-09-15T14:04:01Z</time>
      </trkpt>
      <trkpt lat="45.80225" lon="1.84405">
        <ele>675.4</ele>
        <time>2024-09-15T14:04:02Z</time>
      </trkpt>
      <trkpt lat="45.80223" lon="1.84412">
        <ele>675.2</ele>
        <time>2024-09-15T14:04:03Z</time>
      </trkpt>
      <trkpt lat="45.80214" lon="1.84447">
        <ele>674.6</ele>
        <time>2024-09-15T14:04:07Z</time>
      </trkpt>
      <trkpt lat="45.8021" lon="1.84455">
        <ele>674.4</ele>
        <time>2024-09-15T14:04:08Z</time>
      </trkpt>
      <trkpt lat="45.80201" lon="1.84472">
        <ele>673.2</ele>
        <time>2024-09-15T14:04:10Z</time>
      </trkpt>
      <trkpt lat="45.80195" lon="1.84479">
        <ele>671.6</ele>
        <time>2024-09-15T14:04:11Z</time>
      </trkpt>
      <trkpt lat="45.80189" lon="1.84486">
        <ele>670.6</ele>
        <time>2024-09-15T14:04:12Z</time>
      </trkpt>
      <trkpt lat="45.80183" lon="1.84492">
        <ele>670.2</ele>
        <time>2024-09-15T14:04:13Z</time>
      </trkpt>
      <trkpt lat="45.80175" lon="1.84498">
        <ele>668.8</ele>
        <time>2024-09-15T14:04:14Z</time>
      </trkpt>
      <trkpt lat="45.80167" lon="1.84503">
        <ele>668.2</ele>
        <time>2024-09-15T14:04:15Z</time>
      </trkpt>
      <trkpt lat="45.80159" lon="1.84506">
        <ele>667</ele>
        <time>2024-09-15T14:04:16Z</time>
      </trkpt>
      <trkpt lat="45.80141" lon="1.84512">
        <ele>665.4</ele>
        <time>2024-09-15T14:04:18Z</time>
      </trkpt>
      <trkpt lat="45.80132" lon="1.84513">
        <ele>665</ele>
        <time>2024-09-15T14:04:19Z</time>
      </trkpt>
      <trkpt lat="45.80124" lon="1.84514">
        <ele>664</ele>
        <time>2024-09-15T14:04:20Z</time>
      </trkpt>
      <trkpt lat="45.80101" lon="1.8451">
        <ele>662.8</ele>
        <time>2024-09-15T14:04:23Z</time>
      </trkpt>
      <trkpt lat="45.80093" lon="1.84509">
        <ele>662.2</ele>
        <time>2024-09-15T14:04:24Z</time>
      </trkpt>
      <trkpt lat="45.80087" lon="1.84506">
        <ele>662</ele>
        <time>2024-09-15T14:04:25Z</time>
      </trkpt>
      <trkpt lat="45.80081" lon="1.84503">
        <ele>661.8</ele>
        <time>2024-09-15T14:04:26Z</time>
      </trkpt>
      <trkpt lat="45.80075" lon="1.84499">
        <ele>661.8</ele>
        <time>2024-09-15T14:04:27Z</time>
      </trkpt>
      <trkpt lat="45.8007" lon="1.84495">
        <ele>661.6</ele>
        <time>2024-09-15T14:04:28Z</time>
      </trkpt>
      <trkpt lat="45.80065" lon="1.84493">
        <ele>661.8</ele>
        <time>2024-09-15T14:04:29Z</time>
      </trkpt>
      <trkpt lat="45.80059" lon="1.84493">
        <ele>661.8</ele>
        <time>2024-09-15T14:04:30Z</time>
      </trkpt>
      <trkpt lat="45.80053" lon="1.84494">
        <ele>661.8</ele>
        <time>2024-09-15T14:04:31Z</time>
      </trkpt>
      <trkpt lat="45.80046" lon="1.84498">
        <ele>661.8</ele>
        <time>2024-09-15T14:04:32Z</time>
      </trkpt>
      <trkpt lat="45.8004" lon="1.84502">
        <ele>662</ele>
        <time>2024-09-15T14:04:33Z</time>
      </trkpt>
      <trkpt lat="45.80035" lon="1.84508">
        <ele>662</ele>
        <time>2024-09-15T14:04:34Z</time>
      </trkpt>
      <trkpt lat="45.80031" lon="1.84513">
        <ele>662</ele>
        <time>2024-09-15T14:04:35Z</time>
      </trkpt>
      <trkpt lat="45.80026" lon="1.84517">
        <ele>662</ele>
        <time>2024-09-15T14:04:36Z</time>
      </trkpt>
      <trkpt lat="45.80021" lon="1.8452">
        <ele>662</ele>
        <time>2024-09-15T14:04:37Z</time>
      </trkpt>
      <trkpt lat="45.80016" lon="1.8452">
        <ele>662</ele>
        <time>2024-09-15T14:04:38Z</time>
      </trkpt>
      <trkpt lat="45.80011" lon="1.84518">
        <ele>662</ele>
        <time>2024-09-15T14:04:39Z</time>
      </trkpt>
      <trkpt lat="45.8001" lon="1.84513">
        <ele>662</ele>
        <time>2024-09-15T14:04:40Z</time>
      </trkpt>
      <trkpt lat="45.80007" lon="1.84507">
        <ele>662</ele>
        <time>2024-09-15T14:04:41Z</time>
      </trkpt>
      <trkpt lat="45.80006" lon="1.84502">
        <ele>662</ele>
        <time>2024-09-15T14:04:42Z</time>
      </trkpt>
      <trkpt lat="45.80006" lon="1.84499">
        <ele>662</ele>
        <time>2024-09-15T14:04:43Z</time>
      </trkpt>
      <trkpt lat="45.80007" lon="1.84495">
        <ele>662</ele>
        <time>2024-09-15T14:04:44Z</time>
      </trkpt>
      <trkpt lat="45.80008" lon="1.84491">
        <ele>662.2</ele>
        <time>2024-09-15T14:04:45Z</time>
      </trkpt>
      <trkpt lat="45.8001" lon="1.84487">
        <ele>662.2</ele>
        <time>2024-09-15T14:04:46Z</time>
      </trkpt>
      <trkpt lat="45.80011" lon="1.84483">
        <ele>662.4</ele>
        <time>2024-09-15T14:04:47Z</time>
      </trkpt>
      <trkpt lat="45.80012" lon="1.84479">
        <ele>662.6</ele>
        <time>2024-09-15T14:04:48Z</time>
      </trkpt>
      <trkpt lat="45.80014" lon="1.84475">
        <ele>662.8</ele>
        <time>2024-09-15T14:04:50Z</time>
      </trkpt>
      <trkpt lat="45.80016" lon="1.84473">
        <ele>663</ele>
        <time>2024-09-15T14:04:51Z</time>
      </trkpt>
      <trkpt lat="45.80018" lon="1.8447">
        <ele>663.2</ele>
        <time>2024-09-15T14:04:52Z</time>
      </trkpt>
      <trkpt lat="45.80019" lon="1.84468">
        <ele>663.4</ele>
        <time>2024-09-15T14:04:53Z</time>
      </trkpt>
      <trkpt lat="45.8002" lon="1.84468">
        <ele>663.4</ele>
        <time>2024-09-15T14:04:54Z</time>
      </trkpt>
      <trkpt lat="45.8002" lon="1.84468">
        <ele>663.6</ele>
        <time>2024-09-15T14:04:55Z</time>
      </trkpt>
      <trkpt lat="45.8002" lon="1.84468">
        <ele>663.8</ele>
        <time>2024-09-15T14:04:56Z</time>
      </trkpt>
      <trkpt lat="45.8002" lon="1.84468">
        <ele>663.8</ele>
        <time>2024-09-15T14:04:57Z</time>
      </trkpt>
      <trkpt lat="45.80024" lon="1.84461">
        <ele>663.8</ele>
        <time>2024-09-15T14:05:04Z</time>
      </trkpt>
      <trkpt lat="45.80028" lon="1.84457">
        <ele>663.6</ele>
        <time>2024-09-15T14:05:07Z</time>
      </trkpt>
      <trkpt lat="45.80032" lon="1.8445">
        <ele>664</ele>
        <time>2024-09-15T14:05:09Z</time>
      </trkpt>
      <trkpt lat="45.80035" lon="1.84447">
        <ele>664</ele>
        <time>2024-09-15T14:05:10Z</time>
      </trkpt>
      <trkpt lat="45.80037" lon="1.84444">
        <ele>664.2</ele>
        <time>2024-09-15T14:05:11Z</time>
      </trkpt>
      <trkpt lat="45.80038" lon="1.84445">
        <ele>664.2</ele>
        <time>2024-09-15T14:05:12Z</time>
      </trkpt>
      <trkpt lat="45.80038" lon="1.84445">
        <ele>664.4</ele>
        <time>2024-09-15T14:05:13Z</time>
      </trkpt>
      <trkpt lat="45.80038" lon="1.84445">
        <ele>664.4</ele>
        <time>2024-09-15T14:05:14Z</time>
      </trkpt>
      <trkpt lat="45.80038" lon="1.84445">
        <ele>664.6</ele>
        <time>2024-09-15T14:05:15Z</time>
      </trkpt>
      <trkpt lat="45.80038" lon="1.84445">
        <ele>664.6</ele>
        <time>2024-09-15T14:05:16Z</time>
      </trkpt>
    </trkseg>
  </trk>
</gpx>